<?xml version='1.0' encoding='UTF-8'?><gpx version="1.1" creator="JPX - https://github.com/jenetics/jpx" xmlns="http://www.topografix.com/GPX/1/1"><trk><trkseg><trkpt lat="44.1850283" lon="11.996475"><ele>94.0</ele><time>2026-04-12T09:09:33.019Z</time></trkpt><trkpt lat="44.1849617" lon="11.996515"><ele>94.0</ele><time>2026-04-12T09:09:41.013Z</time></trkpt><trkpt lat="44.1848867" lon="11.996595"><ele>94.0</ele><time>2026-04-12T09:09:43.015Z</time></trkpt><trkpt lat="44.18481" lon="11.9967433"><ele>94.0</ele><time>2026-04-12T09:09:45.013Z</time></trkpt><trkpt lat="44.184755" lon="11.9968333"><ele>94.0</ele><time>2026-04-12T09:09:46.013Z</time></trkpt><trkpt lat="44.184705" lon="11.9969183"><ele>94.80000000000001</ele><time>2026-04-12T09:09:47.016Z</time></trkpt><trkpt lat="44.184645" lon="11.997015"><ele>95.60000000000001</ele><time>2026-04-12T09:09:48.013Z</time></trkpt><trkpt lat="44.184575" lon="11.9971283"><ele>96.4</ele><time>2026-04-12T09:09:49.014Z</time></trkpt><trkpt lat="44.184515" lon="11.997235"><ele>97.2</ele><time>2026-04-12T09:09:50.014Z</time></trkpt><trkpt lat="44.1844667" lon="11.99732"><ele>98.0</ele><time>2026-04-12T09:09:51.014Z</time></trkpt><trkpt lat="44.184415" lon="11.9973983"><ele>98.0</ele><time>2026-04-12T09:09:52.012Z</time></trkpt><trkpt lat="44.1843683" lon="11.997465"><ele>98.0</ele><time>2026-04-12T09:09:53.013Z</time></trkpt><trkpt lat="44.1843117" lon="11.997595"><ele>98.0</ele><time>2026-04-12T09:09:55.013Z</time></trkpt><trkpt lat="44.1843033" lon="11.997745"><ele>98.0</ele><time>2026-04-12T09:09:57.013Z</time></trkpt><trkpt lat="44.1843317" lon="11.9978683"><ele>98.0</ele><time>2026-04-12T09:09:58.012Z</time></trkpt><trkpt lat="44.18437" lon="11.998005"><ele>97.66666666666666</ele><time>2026-04-12T09:09:59.013Z</time></trkpt><trkpt lat="44.184445" lon="11.9982017"><ele>97.33333333333334</ele><time>2026-04-12T09:10:00.016Z</time></trkpt><trkpt lat="44.1845317" lon="11.9984283"><ele>97.0</ele><time>2026-04-12T09:10:01.013Z</time></trkpt><trkpt lat="44.1846083" lon="11.9986517"><ele>96.0</ele><time>2026-04-12T09:10:02.013Z</time></trkpt><trkpt lat="44.1846933" lon="11.9988867"><ele>95.0</ele><time>2026-04-12T09:10:03.013Z</time></trkpt><trkpt lat="44.1847817" lon="11.999145"><ele>94.0</ele><time>2026-04-12T09:10:04.013Z</time></trkpt><trkpt lat="44.1848717" lon="11.9994117"><ele>93.33333333333333</ele><time>2026-04-12T09:10:05.013Z</time></trkpt><trkpt lat="44.1849583" lon="11.99968"><ele>92.66666666666667</ele><time>2026-04-12T09:10:06.014Z</time></trkpt><trkpt lat="44.1850517" lon="11.9999517"><ele>92.0</ele><time>2026-04-12T09:10:07.012Z</time></trkpt><trkpt lat="44.1851333" lon="12.000205"><ele>92.0</ele><time>2026-04-12T09:10:08.198Z</time></trkpt><trkpt lat="44.1852867" lon="12.0006917"><ele>92.0</ele><time>2026-04-12T09:10:10.014Z</time></trkpt><trkpt lat="44.1853633" lon="12.0009267"><ele>91.0</ele><time>2026-04-12T09:10:11.014Z</time></trkpt><trkpt lat="44.1854333" lon="12.0011617"><ele>90.0</ele><time>2026-04-12T09:10:12.013Z</time></trkpt><trkpt lat="44.1855033" lon="12.001395"><ele>89.0</ele><time>2026-04-12T09:10:13.015Z</time></trkpt><trkpt lat="44.1855717" lon="12.0016267"><ele>88.66666666666667</ele><time>2026-04-12T09:10:14.013Z</time></trkpt><trkpt lat="44.185648" lon="12.0018522"><ele>88.33333333333333</ele><time>2026-04-12T09:10:15.014Z</time></trkpt><trkpt lat="44.1857271" lon="12.0020754"><ele>88.0</ele><time>2026-04-12T09:10:16.012Z</time></trkpt><trkpt lat="44.1858156" lon="12.0022946"><ele>86.33333333333333</ele><time>2026-04-12T09:10:17.014Z</time></trkpt><trkpt lat="44.1859174" lon="12.002505"><ele>84.66666666666667</ele><time>2026-04-12T09:10:18.013Z</time></trkpt><trkpt lat="44.1860337" lon="12.0027032"><ele>83.0</ele><time>2026-04-12T09:10:19.014Z</time></trkpt><trkpt lat="44.1861615" lon="12.0028972"><ele>83.0</ele><time>2026-04-12T09:10:20.013Z</time></trkpt><trkpt lat="44.1862985" lon="12.0030952"><ele>83.0</ele><time>2026-04-12T09:10:21.013Z</time></trkpt><trkpt lat="44.1864385" lon="12.0032976"><ele>83.0</ele><time>2026-04-12T09:10:22.02Z</time></trkpt><trkpt lat="44.1865805" lon="12.0035017"><ele>81.66666666666667</ele><time>2026-04-12T09:10:23.012Z</time></trkpt><trkpt lat="44.1867259" lon="12.003711"><ele>80.33333333333333</ele><time>2026-04-12T09:10:24.012Z</time></trkpt><trkpt lat="44.186875" lon="12.003919"><ele>79.0</ele><time>2026-04-12T09:10:25.013Z</time></trkpt><trkpt lat="44.1870296" lon="12.0041209"><ele>78.33333333333333</ele><time>2026-04-12T09:10:26.013Z</time></trkpt><trkpt lat="44.1871987" lon="12.0043112"><ele>77.66666666666667</ele><time>2026-04-12T09:10:27.013Z</time></trkpt><trkpt lat="44.1873798" lon="12.0044816"><ele>77.0</ele><time>2026-04-12T09:10:28.012Z</time></trkpt><trkpt lat="44.1875587" lon="12.0046357"><ele>77.0</ele><time>2026-04-12T09:10:29.014Z</time></trkpt><trkpt lat="44.1877255" lon="12.0047782"><ele>77.0</ele><time>2026-04-12T09:10:30.013Z</time></trkpt><trkpt lat="44.1878809" lon="12.0049163"><ele>77.0</ele><time>2026-04-12T09:10:31.012Z</time></trkpt><trkpt lat="44.1880334" lon="12.0050548"><ele>75.0</ele><time>2026-04-12T09:10:32.016Z</time></trkpt><trkpt lat="44.188187" lon="12.0051962"><ele>73.0</ele><time>2026-04-12T09:10:33.013Z</time></trkpt><trkpt lat="44.1883477" lon="12.0053302"><ele>71.0</ele><time>2026-04-12T09:10:34.018Z</time></trkpt><trkpt lat="44.1885083" lon="12.0054655"><ele>71.0</ele><time>2026-04-12T09:10:35.013Z</time></trkpt><trkpt lat="44.1886714" lon="12.0056051"><ele>71.0</ele><time>2026-04-12T09:10:36.013Z</time></trkpt><trkpt lat="44.1888322" lon="12.0057639"><ele>71.0</ele><time>2026-04-12T09:10:37.013Z</time></trkpt><trkpt lat="44.1889877" lon="12.0059504"><ele>70.0</ele><time>2026-04-12T09:10:38.013Z</time></trkpt><trkpt lat="44.1891485" lon="12.0061581"><ele>69.0</ele><time>2026-04-12T09:10:39.013Z</time></trkpt><trkpt lat="44.1893134" lon="12.0063796"><ele>68.0</ele><time>2026-04-12T09:10:40.013Z</time></trkpt><trkpt lat="44.189485" lon="12.0065966"><ele>66.0</ele><time>2026-04-12T09:10:41.013Z</time></trkpt><trkpt lat="44.1896578" lon="12.0068096"><ele>64.0</ele><time>2026-04-12T09:10:42.013Z</time></trkpt><trkpt lat="44.1898316" lon="12.0070166"><ele>63.0</ele><time>2026-04-12T09:10:43.013Z</time></trkpt><trkpt lat="44.190009" lon="12.007218"><ele>62.0</ele><time>2026-04-12T09:10:44.014Z</time></trkpt><trkpt lat="44.1902005" lon="12.0074025"><ele>60.0</ele><time>2026-04-12T09:10:45.015Z</time></trkpt><trkpt lat="44.1903972" lon="12.0075794"><ele>58.0</ele><time>2026-04-12T09:10:46.013Z</time></trkpt><trkpt lat="44.1906007" lon="12.0077524"><ele>56.5</ele><time>2026-04-12T09:10:47.013Z</time></trkpt><trkpt lat="44.1908044" lon="12.0079248"><ele>55.0</ele><time>2026-04-12T09:10:48.012Z</time></trkpt><trkpt lat="44.1910086" lon="12.0081003"><ele>55.0</ele><time>2026-04-12T09:10:49.013Z</time></trkpt><trkpt lat="44.1912137" lon="12.0082744"><ele>55.0</ele><time>2026-04-12T09:10:50.016Z</time></trkpt><trkpt lat="44.1914145" lon="12.0084481"><ele>54.0</ele><time>2026-04-12T09:10:51.013Z</time></trkpt><trkpt lat="44.1916055" lon="12.0086352"><ele>53.0</ele><time>2026-04-12T09:10:52.013Z</time></trkpt><trkpt lat="44.191779" lon="12.0088503"><ele>53.0</ele><time>2026-04-12T09:10:53.013Z</time></trkpt><trkpt lat="44.1919408" lon="12.0090844"><ele>53.0</ele><time>2026-04-12T09:10:54.013Z</time></trkpt><trkpt lat="44.1921012" lon="12.009319"><ele>53.5</ele><time>2026-04-12T09:10:55.014Z</time></trkpt><trkpt lat="44.1922582" lon="12.0095507"><ele>54.0</ele><time>2026-04-12T09:10:56.013Z</time></trkpt><trkpt lat="44.1924129" lon="12.0097793"><ele>51.333333333333336</ele><time>2026-04-12T09:10:57.013Z</time></trkpt><trkpt lat="44.1925598" lon="12.0100067"><ele>48.66666666666667</ele><time>2026-04-12T09:10:58.012Z</time></trkpt><trkpt lat="44.1926868" lon="12.0102483"><ele>46.0</ele><time>2026-04-12T09:10:59.012Z</time></trkpt><trkpt lat="44.19279" lon="12.0104992"><ele>46.0</ele><time>2026-04-12T09:11:00.013Z</time></trkpt><trkpt lat="44.1928882" lon="12.0107367"><ele>46.0</ele><time>2026-04-12T09:11:01.015Z</time></trkpt><trkpt lat="44.1929814" lon="12.0109628"><ele>46.0</ele><time>2026-04-12T09:11:02.018Z</time></trkpt><trkpt lat="44.1930706" lon="12.0111753"><ele>46.0</ele><time>2026-04-12T09:11:03.015Z</time></trkpt><trkpt lat="44.1931533" lon="12.0113717"><ele>46.0</ele><time>2026-04-12T09:11:04.015Z</time></trkpt><trkpt lat="44.193225" lon="12.0115477"><ele>46.0</ele><time>2026-04-12T09:11:05.012Z</time></trkpt><trkpt lat="44.1932822" lon="12.0117024"><ele>46.0</ele><time>2026-04-12T09:11:06.013Z</time></trkpt><trkpt lat="44.1933223" lon="12.0118249"><ele>46.0</ele><time>2026-04-12T09:11:07.015Z</time></trkpt><trkpt lat="44.1933565" lon="12.011918"><ele>46.0</ele><time>2026-04-12T09:11:08.013Z</time></trkpt><trkpt lat="44.1934137" lon="12.0120238"><ele>46.0</ele><time>2026-04-12T09:11:10.013Z</time></trkpt><trkpt lat="44.1934294" lon="12.012116"><ele>46.0</ele><time>2026-04-12T09:11:20.013Z</time></trkpt><trkpt lat="44.1934603" lon="12.0122149"><ele>46.0</ele><time>2026-04-12T09:11:21.014Z</time></trkpt><trkpt lat="44.1935022" lon="12.0123476"><ele>46.0</ele><time>2026-04-12T09:11:22.013Z</time></trkpt><trkpt lat="44.1935531" lon="12.01254"><ele>46.333333333333336</ele><time>2026-04-12T09:11:23.012Z</time></trkpt><trkpt lat="44.1936226" lon="12.0127775"><ele>46.666666666666664</ele><time>2026-04-12T09:11:24.012Z</time></trkpt><trkpt lat="44.1936889" lon="12.0130044"><ele>47.0</ele><time>2026-04-12T09:11:25.013Z</time></trkpt><trkpt lat="44.1937614" lon="12.0132301"><ele>46.666666666666664</ele><time>2026-04-12T09:11:26.012Z</time></trkpt><trkpt lat="44.1938424" lon="12.0134722"><ele>46.333333333333336</ele><time>2026-04-12T09:11:27.014Z</time></trkpt><trkpt lat="44.1939213" lon="12.0137312"><ele>46.0</ele><time>2026-04-12T09:11:28.015Z</time></trkpt><trkpt lat="44.1939945" lon="12.0139919"><ele>45.333333333333336</ele><time>2026-04-12T09:11:29.011Z</time></trkpt><trkpt lat="44.1940598" lon="12.014238"><ele>44.666666666666664</ele><time>2026-04-12T09:11:30.014Z</time></trkpt><trkpt lat="44.1941189" lon="12.0144655"><ele>44.0</ele><time>2026-04-12T09:11:31.014Z</time></trkpt><trkpt lat="44.1941752" lon="12.0146761"><ele>44.0</ele><time>2026-04-12T09:11:32.012Z</time></trkpt><trkpt lat="44.1942261" lon="12.0148613"><ele>44.0</ele><time>2026-04-12T09:11:33.014Z</time></trkpt><trkpt lat="44.1942689" lon="12.0150208"><ele>44.0</ele><time>2026-04-12T09:11:34.013Z</time></trkpt><trkpt lat="44.1943111" lon="12.0151594"><ele>44.0</ele><time>2026-04-12T09:11:35.011Z</time></trkpt><trkpt lat="44.1943671" lon="12.015289"><ele>43.75</ele><time>2026-04-12T09:11:36.012Z</time></trkpt><trkpt lat="44.194442" lon="12.0154164"><ele>43.5</ele><time>2026-04-12T09:11:37.013Z</time></trkpt><trkpt lat="44.19454" lon="12.0155541"><ele>43.25</ele><time>2026-04-12T09:11:38.015Z</time></trkpt><trkpt lat="44.1946664" lon="12.0157095"><ele>43.0</ele><time>2026-04-12T09:11:39.015Z</time></trkpt><trkpt lat="44.1948067" lon="12.0158715"><ele>42.333333333333336</ele><time>2026-04-12T09:11:40.013Z</time></trkpt><trkpt lat="44.1949385" lon="12.0160311"><ele>41.666666666666664</ele><time>2026-04-12T09:11:41.014Z</time></trkpt><trkpt lat="44.1950459" lon="12.0162018"><ele>41.0</ele><time>2026-04-12T09:11:42.013Z</time></trkpt><trkpt lat="44.1951242" lon="12.0163759"><ele>41.0</ele><time>2026-04-12T09:11:43.012Z</time></trkpt><trkpt lat="44.1951703" lon="12.0165599"><ele>41.0</ele><time>2026-04-12T09:11:44.011Z</time></trkpt><trkpt lat="44.1951974" lon="12.0167674"><ele>41.0</ele><time>2026-04-12T09:11:45.018Z</time></trkpt><trkpt lat="44.1952118" lon="12.0169955"><ele>41.33333333333333</ele><time>2026-04-12T09:11:46.012Z</time></trkpt><trkpt lat="44.1952213" lon="12.0172224"><ele>41.666666666666664</ele><time>2026-04-12T09:11:47.016Z</time></trkpt><trkpt lat="44.1952327" lon="12.0174314"><ele>42.0</ele><time>2026-04-12T09:11:48.012Z</time></trkpt><trkpt lat="44.1952605" lon="12.0176209"><ele>41.5</ele><time>2026-04-12T09:11:49.013Z</time></trkpt><trkpt lat="44.1953072" lon="12.017791"><ele>41.0</ele><time>2026-04-12T09:11:50.012Z</time></trkpt><trkpt lat="44.1953731" lon="12.0179459"><ele>40.5</ele><time>2026-04-12T09:11:51.013Z</time></trkpt><trkpt lat="44.1954581" lon="12.0181032"><ele>40.0</ele><time>2026-04-12T09:11:52.014Z</time></trkpt><trkpt lat="44.1955576" lon="12.0182682"><ele>39.66666666666667</ele><time>2026-04-12T09:11:53.012Z</time></trkpt><trkpt lat="44.1956632" lon="12.0184441"><ele>39.333333333333336</ele><time>2026-04-12T09:11:54.013Z</time></trkpt><trkpt lat="44.1957674" lon="12.0186167"><ele>39.0</ele><time>2026-04-12T09:11:55.014Z</time></trkpt><trkpt lat="44.1958716" lon="12.0187759"><ele>38.75</ele><time>2026-04-12T09:11:56.013Z</time></trkpt><trkpt lat="44.1959717" lon="12.0189292"><ele>38.5</ele><time>2026-04-12T09:11:57.012Z</time></trkpt><trkpt lat="44.1960661" lon="12.0190776"><ele>38.25</ele><time>2026-04-12T09:11:58.011Z</time></trkpt><trkpt lat="44.1961564" lon="12.0192181"><ele>38.0</ele><time>2026-04-12T09:11:59.012Z</time></trkpt><trkpt lat="44.1962446" lon="12.0193575"><ele>38.0</ele><time>2026-04-12T09:12:00.013Z</time></trkpt><trkpt lat="44.1963321" lon="12.0195007"><ele>38.0</ele><time>2026-04-12T09:12:01.013Z</time></trkpt><trkpt lat="44.196426" lon="12.0196455"><ele>38.0</ele><time>2026-04-12T09:12:02.013Z</time></trkpt><trkpt lat="44.1965371" lon="12.019791"><ele>38.0</ele><time>2026-04-12T09:12:03.012Z</time></trkpt><trkpt lat="44.1966633" lon="12.0199282"><ele>38.666666666666664</ele><time>2026-04-12T09:12:04.013Z</time></trkpt><trkpt lat="44.1968027" lon="12.0200481"><ele>39.333333333333336</ele><time>2026-04-12T09:12:05.015Z</time></trkpt><trkpt lat="44.1969494" lon="12.0201514"><ele>40.0</ele><time>2026-04-12T09:12:06.014Z</time></trkpt><trkpt lat="44.1970989" lon="12.0202411"><ele>40.0</ele><time>2026-04-12T09:12:07.013Z</time></trkpt><trkpt lat="44.1972528" lon="12.0203245"><ele>40.0</ele><time>2026-04-12T09:12:08.012Z</time></trkpt><trkpt lat="44.1974139" lon="12.0203988"><ele>40.0</ele><time>2026-04-12T09:12:09.013Z</time></trkpt><trkpt lat="44.197585" lon="12.0204666"><ele>39.333333333333336</ele><time>2026-04-12T09:12:10.012Z</time></trkpt><trkpt lat="44.197768" lon="12.0205368"><ele>38.666666666666664</ele><time>2026-04-12T09:12:11.016Z</time></trkpt><trkpt lat="44.1979566" lon="12.02061"><ele>38.0</ele><time>2026-04-12T09:12:12.014Z</time></trkpt><trkpt lat="44.1981377" lon="12.0206802"><ele>38.33333333333333</ele><time>2026-04-12T09:12:13.013Z</time></trkpt><trkpt lat="44.1982992" lon="12.0207451"><ele>38.666666666666664</ele><time>2026-04-12T09:12:14.012Z</time></trkpt><trkpt lat="44.1984406" lon="12.0208065"><ele>39.0</ele><time>2026-04-12T09:12:15.013Z</time></trkpt><trkpt lat="44.1985682" lon="12.0208659"><ele>39.0</ele><time>2026-04-12T09:12:16.015Z</time></trkpt><trkpt lat="44.1986772" lon="12.0209282"><ele>39.0</ele><time>2026-04-12T09:12:17.012Z</time></trkpt><trkpt lat="44.1987669" lon="12.0209974"><ele>39.0</ele><time>2026-04-12T09:12:18.014Z</time></trkpt><trkpt lat="44.198839" lon="12.0210669"><ele>39.0</ele><time>2026-04-12T09:12:19.015Z</time></trkpt><trkpt lat="44.1989058" lon="12.0211251"><ele>39.0</ele><time>2026-04-12T09:12:20.013Z</time></trkpt><trkpt lat="44.1989815" lon="12.021162"><ele>39.0</ele><time>2026-04-12T09:12:21.014Z</time></trkpt><trkpt lat="44.1990759" lon="12.0211906"><ele>39.0</ele><time>2026-04-12T09:12:22.013Z</time></trkpt><trkpt lat="44.1991829" lon="12.021246"><ele>39.0</ele><time>2026-04-12T09:12:23.016Z</time></trkpt><trkpt lat="44.1993021" lon="12.021343"><ele>39.0</ele><time>2026-04-12T09:12:24.011Z</time></trkpt><trkpt lat="44.1994374" lon="12.0214738"><ele>39.0</ele><time>2026-04-12T09:12:25.012Z</time></trkpt><trkpt lat="44.1995852" lon="12.0216165"><ele>39.0</ele><time>2026-04-12T09:12:26.013Z</time></trkpt><trkpt lat="44.1997488" lon="12.0217504"><ele>39.0</ele><time>2026-04-12T09:12:27.012Z</time></trkpt><trkpt lat="44.1999101" lon="12.0218666"><ele>39.333333333333336</ele><time>2026-04-12T09:12:28.013Z</time></trkpt><trkpt lat="44.2000668" lon="12.0219544"><ele>39.66666666666667</ele><time>2026-04-12T09:12:29.013Z</time></trkpt><trkpt lat="44.2002079" lon="12.0220298"><ele>40.0</ele><time>2026-04-12T09:12:30.012Z</time></trkpt><trkpt lat="44.2003368" lon="12.0221019"><ele>40.0</ele><time>2026-04-12T09:12:31.013Z</time></trkpt><trkpt lat="44.2004401" lon="12.0221751"><ele>40.0</ele><time>2026-04-12T09:12:32.012Z</time></trkpt><trkpt lat="44.2005166" lon="12.0222436"><ele>40.0</ele><time>2026-04-12T09:12:33.014Z</time></trkpt><trkpt lat="44.2005722" lon="12.022311"><ele>40.0</ele><time>2026-04-12T09:12:34.012Z</time></trkpt><trkpt lat="44.2006174" lon="12.0223895"><ele>40.0</ele><time>2026-04-12T09:12:35.011Z</time></trkpt><trkpt lat="44.2006576" lon="12.0224848"><ele>40.0</ele><time>2026-04-12T09:12:36.014Z</time></trkpt><trkpt lat="44.2006946" lon="12.0226027"><ele>38.5</ele><time>2026-04-12T09:12:37.012Z</time></trkpt><trkpt lat="44.2007182" lon="12.0227516"><ele>37.0</ele><time>2026-04-12T09:12:38.021Z</time></trkpt><trkpt lat="44.2007196" lon="12.0229329"><ele>35.5</ele><time>2026-04-12T09:12:39.012Z</time></trkpt><trkpt lat="44.2007047" lon="12.0231526"><ele>34.0</ele><time>2026-04-12T09:12:40.011Z</time></trkpt><trkpt lat="44.2006791" lon="12.0234026"><ele>33.66666666666667</ele><time>2026-04-12T09:12:41.011Z</time></trkpt><trkpt lat="44.2006425" lon="12.0236857"><ele>33.333333333333336</ele><time>2026-04-12T09:12:42.013Z</time></trkpt><trkpt lat="44.2006039" lon="12.023989"><ele>33.0</ele><time>2026-04-12T09:12:43.012Z</time></trkpt><trkpt lat="44.2005723" lon="12.0243103"><ele>33.0</ele><time>2026-04-12T09:12:44.011Z</time></trkpt><trkpt lat="44.2005401" lon="12.0246426"><ele>33.0</ele><time>2026-04-12T09:12:45.014Z</time></trkpt><trkpt lat="44.2005091" lon="12.0249928"><ele>30.5</ele><time>2026-04-12T09:12:46.012Z</time></trkpt><trkpt lat="44.2004797" lon="12.0253602"><ele>28.0</ele><time>2026-04-12T09:12:47.011Z</time></trkpt><trkpt lat="44.2004594" lon="12.0257363"><ele>28.0</ele><time>2026-04-12T09:12:48.012Z</time></trkpt><trkpt lat="44.2004502" lon="12.0261049"><ele>28.0</ele><time>2026-04-12T09:12:49.012Z</time></trkpt><trkpt lat="44.2004502" lon="12.026456"><ele>27.5</ele><time>2026-04-12T09:12:50.013Z</time></trkpt><trkpt lat="44.2004628" lon="12.0267871"><ele>27.0</ele><time>2026-04-12T09:12:51.012Z</time></trkpt><trkpt lat="44.2004876" lon="12.0270936"><ele>27.0</ele><time>2026-04-12T09:12:52.011Z</time></trkpt><trkpt lat="44.2005176" lon="12.0273698"><ele>27.0</ele><time>2026-04-12T09:12:53.012Z</time></trkpt><trkpt lat="44.2005522" lon="12.0276213"><ele>27.0</ele><time>2026-04-12T09:12:54.013Z</time></trkpt><trkpt lat="44.200582" lon="12.0278538"><ele>27.0</ele><time>2026-04-12T09:12:55.012Z</time></trkpt><trkpt lat="44.2006044" lon="12.0280606"><ele>27.0</ele><time>2026-04-12T09:12:56.014Z</time></trkpt><trkpt lat="44.2006269" lon="12.0282415"><ele>27.0</ele><time>2026-04-12T09:12:57.014Z</time></trkpt><trkpt lat="44.200653" lon="12.0284033"><ele>27.0</ele><time>2026-04-12T09:12:58.012Z</time></trkpt><trkpt lat="44.2006763" lon="12.0285507"><ele>27.200000000000003</ele><time>2026-04-12T09:12:59.013Z</time></trkpt><trkpt lat="44.2006846" lon="12.0286889"><ele>27.400000000000002</ele><time>2026-04-12T09:13:00.012Z</time></trkpt><trkpt lat="44.2006662" lon="12.0288222"><ele>27.599999999999998</ele><time>2026-04-12T09:13:01.017Z</time></trkpt><trkpt lat="44.2006239" lon="12.0289479"><ele>27.799999999999997</ele><time>2026-04-12T09:13:02.017Z</time></trkpt><trkpt lat="44.2005627" lon="12.0290757"><ele>28.0</ele><time>2026-04-12T09:13:03.013Z</time></trkpt><trkpt lat="44.200489" lon="12.0292019"><ele>29.5</ele><time>2026-04-12T09:13:04.012Z</time></trkpt><trkpt lat="44.2004007" lon="12.0293194"><ele>31.0</ele><time>2026-04-12T09:13:05.012Z</time></trkpt><trkpt lat="44.2002988" lon="12.0294085"><ele>32.5</ele><time>2026-04-12T09:13:06.016Z</time></trkpt><trkpt lat="44.2001919" lon="12.0294711"><ele>34.0</ele><time>2026-04-12T09:13:07.013Z</time></trkpt><trkpt lat="44.2000851" lon="12.0295194"><ele>34.0</ele><time>2026-04-12T09:13:08.014Z</time></trkpt><trkpt lat="44.199993" lon="12.0295622"><ele>34.0</ele><time>2026-04-12T09:13:09.014Z</time></trkpt><trkpt lat="44.1999102" lon="12.0296028"><ele>34.0</ele><time>2026-04-12T09:13:10.017Z</time></trkpt><trkpt lat="44.1998228" lon="12.0296458"><ele>34.0</ele><time>2026-04-12T09:13:11.013Z</time></trkpt><trkpt lat="44.1997141" lon="12.029688"><ele>34.0</ele><time>2026-04-12T09:13:12.013Z</time></trkpt><trkpt lat="44.199579" lon="12.029733"><ele>34.0</ele><time>2026-04-12T09:13:13.015Z</time></trkpt><trkpt lat="44.199427" lon="12.0297775"><ele>34.0</ele><time>2026-04-12T09:13:14.013Z</time></trkpt><trkpt lat="44.1992558" lon="12.0298211"><ele>34.0</ele><time>2026-04-12T09:13:15.014Z</time></trkpt><trkpt lat="44.1990749" lon="12.0298594"><ele>33.333333333333336</ele><time>2026-04-12T09:13:16.016Z</time></trkpt><trkpt lat="44.1988922" lon="12.0298942"><ele>32.666666666666664</ele><time>2026-04-12T09:13:17.013Z</time></trkpt><trkpt lat="44.1987077" lon="12.0299313"><ele>32.0</ele><time>2026-04-12T09:13:18.013Z</time></trkpt><trkpt lat="44.1985245" lon="12.0299706"><ele>33.666666666666664</ele><time>2026-04-12T09:13:19.014Z</time></trkpt><trkpt lat="44.1983425" lon="12.0300127"><ele>35.333333333333336</ele><time>2026-04-12T09:13:20.012Z</time></trkpt><trkpt lat="44.1981589" lon="12.0300562"><ele>37.0</ele><time>2026-04-12T09:13:21.014Z</time></trkpt><trkpt lat="44.1979796" lon="12.0300963"><ele>37.333333333333336</ele><time>2026-04-12T09:13:22.013Z</time></trkpt><trkpt lat="44.1978038" lon="12.0301381"><ele>37.666666666666664</ele><time>2026-04-12T09:13:23.015Z</time></trkpt><trkpt lat="44.1976357" lon="12.0301815"><ele>38.0</ele><time>2026-04-12T09:13:24.013Z</time></trkpt><trkpt lat="44.1974719" lon="12.0302252"><ele>38.0</ele><time>2026-04-12T09:13:25.013Z</time></trkpt><trkpt lat="44.1973139" lon="12.0302751"><ele>38.0</ele><time>2026-04-12T09:13:26.013Z</time></trkpt><trkpt lat="44.1971707" lon="12.030336"><ele>38.0</ele><time>2026-04-12T09:13:27.017Z</time></trkpt><trkpt lat="44.1970403" lon="12.0304053"><ele>38.0</ele><time>2026-04-12T09:13:28.02Z</time></trkpt><trkpt lat="44.1969221" lon="12.0304678"><ele>38.0</ele><time>2026-04-12T09:13:29.013Z</time></trkpt><trkpt lat="44.1968108" lon="12.030526"><ele>38.0</ele><time>2026-04-12T09:13:30.014Z</time></trkpt><trkpt lat="44.1967072" lon="12.0305806"><ele>38.0</ele><time>2026-04-12T09:13:31.013Z</time></trkpt><trkpt lat="44.1966108" lon="12.0306333"><ele>38.0</ele><time>2026-04-12T09:13:32.013Z</time></trkpt><trkpt lat="44.1965182" lon="12.0306816"><ele>38.0</ele><time>2026-04-12T09:13:33.013Z</time></trkpt><trkpt lat="44.1964267" lon="12.0307259"><ele>38.0</ele><time>2026-04-12T09:13:34.012Z</time></trkpt><trkpt lat="44.1963259" lon="12.0307685"><ele>38.0</ele><time>2026-04-12T09:13:35.015Z</time></trkpt><trkpt lat="44.1962108" lon="12.0308018"><ele>38.0</ele><time>2026-04-12T09:13:36.012Z</time></trkpt><trkpt lat="44.1960847" lon="12.0308193"><ele>39.0</ele><time>2026-04-12T09:13:37.014Z</time></trkpt><trkpt lat="44.1959413" lon="12.0308339"><ele>40.0</ele><time>2026-04-12T09:13:38.014Z</time></trkpt><trkpt lat="44.1957847" lon="12.0308515"><ele>41.0</ele><time>2026-04-12T09:13:39.013Z</time></trkpt><trkpt lat="44.1956082" lon="12.0308654"><ele>41.33333333333333</ele><time>2026-04-12T09:13:40.012Z</time></trkpt><trkpt lat="44.1954189" lon="12.0308776"><ele>41.666666666666664</ele><time>2026-04-12T09:13:41.013Z</time></trkpt><trkpt lat="44.1952297" lon="12.0308927"><ele>42.0</ele><time>2026-04-12T09:13:42.014Z</time></trkpt><trkpt lat="44.1950489" lon="12.0309044"><ele>42.0</ele><time>2026-04-12T09:13:43.014Z</time></trkpt><trkpt lat="44.1948761" lon="12.0309137"><ele>42.0</ele><time>2026-04-12T09:13:44.012Z</time></trkpt><trkpt lat="44.1947074" lon="12.0309316"><ele>42.0</ele><time>2026-04-12T09:13:45.012Z</time></trkpt><trkpt lat="44.1945371" lon="12.0309649"><ele>41.666666666666664</ele><time>2026-04-12T09:13:46.013Z</time></trkpt><trkpt lat="44.194367" lon="12.0310097"><ele>41.33333333333333</ele><time>2026-04-12T09:13:47.013Z</time></trkpt><trkpt lat="44.1941942" lon="12.0310687"><ele>41.0</ele><time>2026-04-12T09:13:48.014Z</time></trkpt><trkpt lat="44.1940221" lon="12.0311377"><ele>40.666666666666664</ele><time>2026-04-12T09:13:49.012Z</time></trkpt><trkpt lat="44.1938514" lon="12.0312077"><ele>40.333333333333336</ele><time>2026-04-12T09:13:50.014Z</time></trkpt><trkpt lat="44.1936773" lon="12.0312794"><ele>40.0</ele><time>2026-04-12T09:13:51.013Z</time></trkpt><trkpt lat="44.1935023" lon="12.0313468"><ele>40.0</ele><time>2026-04-12T09:13:52.013Z</time></trkpt><trkpt lat="44.1933259" lon="12.0314136"><ele>40.0</ele><time>2026-04-12T09:13:53.014Z</time></trkpt><trkpt lat="44.1931519" lon="12.0314784"><ele>40.0</ele><time>2026-04-12T09:13:54.013Z</time></trkpt><trkpt lat="44.1929808" lon="12.031538"><ele>40.0</ele><time>2026-04-12T09:13:55.014Z</time></trkpt><trkpt lat="44.1928055" lon="12.0316034"><ele>40.0</ele><time>2026-04-12T09:13:56.013Z</time></trkpt><trkpt lat="44.1926288" lon="12.0316699"><ele>40.0</ele><time>2026-04-12T09:13:57.017Z</time></trkpt><trkpt lat="44.1924551" lon="12.0317337"><ele>40.0</ele><time>2026-04-12T09:13:58.014Z</time></trkpt><trkpt lat="44.1922841" lon="12.0317951"><ele>40.0</ele><time>2026-04-12T09:13:59.011Z</time></trkpt><trkpt lat="44.192113" lon="12.0318563"><ele>40.0</ele><time>2026-04-12T09:14:00.013Z</time></trkpt><trkpt lat="44.1919417" lon="12.0319166"><ele>40.0</ele><time>2026-04-12T09:14:01.013Z</time></trkpt><trkpt lat="44.1917702" lon="12.0319741"><ele>40.0</ele><time>2026-04-12T09:14:02.013Z</time></trkpt><trkpt lat="44.1915964" lon="12.032029"><ele>40.0</ele><time>2026-04-12T09:14:03.013Z</time></trkpt><trkpt lat="44.1914193" lon="12.0320852"><ele>39.66666666666667</ele><time>2026-04-12T09:14:04.016Z</time></trkpt><trkpt lat="44.1912476" lon="12.0321429"><ele>39.333333333333336</ele><time>2026-04-12T09:14:05.012Z</time></trkpt><trkpt lat="44.1910865" lon="12.0322075"><ele>39.0</ele><time>2026-04-12T09:14:06.012Z</time></trkpt><trkpt lat="44.1909403" lon="12.0322773"><ele>39.0</ele><time>2026-04-12T09:14:07.016Z</time></trkpt><trkpt lat="44.1908168" lon="12.0323572"><ele>39.0</ele><time>2026-04-12T09:14:08.013Z</time></trkpt><trkpt lat="44.1907061" lon="12.0324431"><ele>39.0</ele><time>2026-04-12T09:14:09.018Z</time></trkpt><trkpt lat="44.1906044" lon="12.0325348"><ele>39.0</ele><time>2026-04-12T09:14:10.012Z</time></trkpt><trkpt lat="44.1905074" lon="12.0326269"><ele>40.25</ele><time>2026-04-12T09:14:11.012Z</time></trkpt><trkpt lat="44.1904122" lon="12.0327186"><ele>41.5</ele><time>2026-04-12T09:14:12.014Z</time></trkpt><trkpt lat="44.1903175" lon="12.0328123"><ele>42.75</ele><time>2026-04-12T09:14:13.012Z</time></trkpt><trkpt lat="44.1902206" lon="12.0328998"><ele>44.0</ele><time>2026-04-12T09:14:14.013Z</time></trkpt><trkpt lat="44.1901199" lon="12.0329849"><ele>44.0</ele><time>2026-04-12T09:14:15.016Z</time></trkpt><trkpt lat="44.190027" lon="12.033068"><ele>44.0</ele><time>2026-04-12T09:14:16.013Z</time></trkpt><trkpt lat="44.1899391" lon="12.0331489"><ele>44.0</ele><time>2026-04-12T09:14:17.013Z</time></trkpt><trkpt lat="44.1898554" lon="12.0332241"><ele>44.0</ele><time>2026-04-12T09:14:18.016Z</time></trkpt><trkpt lat="44.1897687" lon="12.0332971"><ele>44.0</ele><time>2026-04-12T09:14:19.013Z</time></trkpt><trkpt lat="44.1896812" lon="12.0333784"><ele>44.0</ele><time>2026-04-12T09:14:20.013Z</time></trkpt><trkpt lat="44.1895927" lon="12.0334652"><ele>44.0</ele><time>2026-04-12T09:14:21.013Z</time></trkpt><trkpt lat="44.1894998" lon="12.0335468"><ele>44.0</ele><time>2026-04-12T09:14:22.014Z</time></trkpt><trkpt lat="44.189408" lon="12.0336269"><ele>44.0</ele><time>2026-04-12T09:14:23.014Z</time></trkpt><trkpt lat="44.189314" lon="12.0337083"><ele>44.0</ele><time>2026-04-12T09:14:24.014Z</time></trkpt><trkpt lat="44.1892225" lon="12.0337868"><ele>44.0</ele><time>2026-04-12T09:14:25.013Z</time></trkpt><trkpt lat="44.1891304" lon="12.0338696"><ele>44.0</ele><time>2026-04-12T09:14:26.013Z</time></trkpt><trkpt lat="44.1890386" lon="12.0339529"><ele>44.0</ele><time>2026-04-12T09:14:27.014Z</time></trkpt><trkpt lat="44.1889467" lon="12.0340439"><ele>44.0</ele><time>2026-04-12T09:14:28.013Z</time></trkpt><trkpt lat="44.1888399" lon="12.0341427"><ele>44.0</ele><time>2026-04-12T09:14:29.013Z</time></trkpt><trkpt lat="44.1887193" lon="12.0342563"><ele>44.0</ele><time>2026-04-12T09:14:30.013Z</time></trkpt><trkpt lat="44.1885966" lon="12.0343865"><ele>44.0</ele><time>2026-04-12T09:14:31.013Z</time></trkpt><trkpt lat="44.1884711" lon="12.0345125"><ele>44.0</ele><time>2026-04-12T09:14:32.013Z</time></trkpt><trkpt lat="44.1883515" lon="12.0346254"><ele>44.0</ele><time>2026-04-12T09:14:33.016Z</time></trkpt><trkpt lat="44.1882418" lon="12.0347202"><ele>44.0</ele><time>2026-04-12T09:14:34.013Z</time></trkpt><trkpt lat="44.1881371" lon="12.034804"><ele>44.0</ele><time>2026-04-12T09:14:35.013Z</time></trkpt><trkpt lat="44.1880354" lon="12.0348839"><ele>44.0</ele><time>2026-04-12T09:14:36.013Z</time></trkpt><trkpt lat="44.1879409" lon="12.034946"><ele>44.0</ele><time>2026-04-12T09:14:37.014Z</time></trkpt><trkpt lat="44.1878576" lon="12.0349885"><ele>44.0</ele><time>2026-04-12T09:14:38.013Z</time></trkpt><trkpt lat="44.1877787" lon="12.0350182"><ele>44.0</ele><time>2026-04-12T09:14:39.014Z</time></trkpt><trkpt lat="44.1877007" lon="12.0350475"><ele>44.0</ele><time>2026-04-12T09:14:40.013Z</time></trkpt><trkpt lat="44.1876216" lon="12.0350846"><ele>44.0</ele><time>2026-04-12T09:14:41.013Z</time></trkpt><trkpt lat="44.1875347" lon="12.0351217"><ele>44.5</ele><time>2026-04-12T09:14:42.014Z</time></trkpt><trkpt lat="44.1874258" lon="12.0351573"><ele>45.0</ele><time>2026-04-12T09:14:43.015Z</time></trkpt><trkpt lat="44.1873092" lon="12.0351951"><ele>45.5</ele><time>2026-04-12T09:14:44.012Z</time></trkpt><trkpt lat="44.1871867" lon="12.0352441"><ele>46.0</ele><time>2026-04-12T09:14:45.015Z</time></trkpt><trkpt lat="44.1870584" lon="12.035299"><ele>46.0</ele><time>2026-04-12T09:14:46.012Z</time></trkpt><trkpt lat="44.1869291" lon="12.0353247"><ele>46.0</ele><time>2026-04-12T09:14:47.013Z</time></trkpt><trkpt lat="44.1868068" lon="12.0353675"><ele>46.0</ele><time>2026-04-12T09:14:48.014Z</time></trkpt><trkpt lat="44.1866988" lon="12.0353843"><ele>46.0</ele><time>2026-04-12T09:14:49.014Z</time></trkpt><trkpt lat="44.1865974" lon="12.0353977"><ele>45.66666666666667</ele><time>2026-04-12T09:14:50.013Z</time></trkpt><trkpt lat="44.1865019" lon="12.0354104"><ele>45.333333333333336</ele><time>2026-04-12T09:14:51.017Z</time></trkpt><trkpt lat="44.186413" lon="12.0354245"><ele>45.0</ele><time>2026-04-12T09:14:52.012Z</time></trkpt><trkpt lat="44.1863339" lon="12.0354352"><ele>44.666666666666664</ele><time>2026-04-12T09:14:53.012Z</time></trkpt><trkpt lat="44.1862584" lon="12.0354438"><ele>44.33333333333333</ele><time>2026-04-12T09:14:54.013Z</time></trkpt><trkpt lat="44.1861873" lon="12.0354398"><ele>44.0</ele><time>2026-04-12T09:14:55.013Z</time></trkpt><trkpt lat="44.1861214" lon="12.0354278"><ele>44.0</ele><time>2026-04-12T09:14:56.013Z</time></trkpt><trkpt lat="44.1860084" lon="12.0354218"><ele>44.0</ele><time>2026-04-12T09:14:58.014Z</time></trkpt><trkpt lat="44.1859073" lon="12.0355199"><ele>44.0</ele><time>2026-04-12T09:15:00.013Z</time></trkpt><trkpt lat="44.1858665" lon="12.0356915"><ele>44.0</ele><time>2026-04-12T09:15:01.013Z</time></trkpt><trkpt lat="44.1858325" lon="12.0358967"><ele>44.25</ele><time>2026-04-12T09:15:02.012Z</time></trkpt><trkpt lat="44.1857803" lon="12.0361005"><ele>44.5</ele><time>2026-04-12T09:15:03.013Z</time></trkpt><trkpt lat="44.1857313" lon="12.0362969"><ele>44.75</ele><time>2026-04-12T09:15:04.014Z</time></trkpt><trkpt lat="44.185687" lon="12.0364829"><ele>45.0</ele><time>2026-04-12T09:15:05.01Z</time></trkpt><trkpt lat="44.1856389" lon="12.0366641"><ele>45.25</ele><time>2026-04-12T09:15:06.02Z</time></trkpt><trkpt lat="44.1855885" lon="12.0368461"><ele>45.5</ele><time>2026-04-12T09:15:07.013Z</time></trkpt><trkpt lat="44.1855302" lon="12.0370302"><ele>45.75</ele><time>2026-04-12T09:15:08.015Z</time></trkpt><trkpt lat="44.1854732" lon="12.0372336"><ele>46.0</ele><time>2026-04-12T09:15:09.013Z</time></trkpt><trkpt lat="44.1854003" lon="12.0374568"><ele>45.66666666666667</ele><time>2026-04-12T09:15:10.014Z</time></trkpt><trkpt lat="44.1853185" lon="12.0377057"><ele>45.333333333333336</ele><time>2026-04-12T09:15:11.013Z</time></trkpt><trkpt lat="44.1852422" lon="12.0379857"><ele>45.0</ele><time>2026-04-12T09:15:12.012Z</time></trkpt><trkpt lat="44.1851612" lon="12.0382684"><ele>44.666666666666664</ele><time>2026-04-12T09:15:13.014Z</time></trkpt><trkpt lat="44.1850798" lon="12.0385429"><ele>44.33333333333333</ele><time>2026-04-12T09:15:14.013Z</time></trkpt><trkpt lat="44.1850043" lon="12.0388096"><ele>44.0</ele><time>2026-04-12T09:15:15.014Z</time></trkpt><trkpt lat="44.1849317" lon="12.0390681"><ele>43.33333333333333</ele><time>2026-04-12T09:15:16.013Z</time></trkpt><trkpt lat="44.184856" lon="12.0393226"><ele>42.666666666666664</ele><time>2026-04-12T09:15:17.013Z</time></trkpt><trkpt lat="44.1847773" lon="12.039576"><ele>42.0</ele><time>2026-04-12T09:15:18.013Z</time></trkpt><trkpt lat="44.1847052" lon="12.0398305"><ele>41.666666666666664</ele><time>2026-04-12T09:15:19.013Z</time></trkpt><trkpt lat="44.1846361" lon="12.040085"><ele>41.33333333333333</ele><time>2026-04-12T09:15:20.012Z</time></trkpt><trkpt lat="44.1845616" lon="12.0403386"><ele>41.0</ele><time>2026-04-12T09:15:21.013Z</time></trkpt><trkpt lat="44.1844913" lon="12.040592"><ele>40.666666666666664</ele><time>2026-04-12T09:15:22.014Z</time></trkpt><trkpt lat="44.1844201" lon="12.0408426"><ele>40.333333333333336</ele><time>2026-04-12T09:15:23.013Z</time></trkpt><trkpt lat="44.1843487" lon="12.0410889"><ele>40.0</ele><time>2026-04-12T09:15:24.013Z</time></trkpt><trkpt lat="44.1842823" lon="12.0413347"><ele>40.0</ele><time>2026-04-12T09:15:25.016Z</time></trkpt><trkpt lat="44.1842154" lon="12.0415723"><ele>40.0</ele><time>2026-04-12T09:15:26.013Z</time></trkpt><trkpt lat="44.184149" lon="12.0418076"><ele>40.0</ele><time>2026-04-12T09:15:27.014Z</time></trkpt><trkpt lat="44.1840786" lon="12.0420405"><ele>40.0</ele><time>2026-04-12T09:15:28.013Z</time></trkpt><trkpt lat="44.1840082" lon="12.0422682"><ele>40.0</ele><time>2026-04-12T09:15:29.019Z</time></trkpt><trkpt lat="44.1839396" lon="12.0424962"><ele>40.0</ele><time>2026-04-12T09:15:30.011Z</time></trkpt><trkpt lat="44.1838713" lon="12.0427261"><ele>40.333333333333336</ele><time>2026-04-12T09:15:31.013Z</time></trkpt><trkpt lat="44.1838044" lon="12.0429594"><ele>40.666666666666664</ele><time>2026-04-12T09:15:32.013Z</time></trkpt><trkpt lat="44.1837401" lon="12.0431917"><ele>41.0</ele><time>2026-04-12T09:15:33.013Z</time></trkpt><trkpt lat="44.1836741" lon="12.0434289"><ele>41.0</ele><time>2026-04-12T09:15:34.012Z</time></trkpt><trkpt lat="44.1836075" lon="12.0436677"><ele>41.0</ele><time>2026-04-12T09:15:35.013Z</time></trkpt><trkpt lat="44.1835404" lon="12.0439048"><ele>41.0</ele><time>2026-04-12T09:15:36.013Z</time></trkpt><trkpt lat="44.1834711" lon="12.0441391"><ele>41.0</ele><time>2026-04-12T09:15:37.013Z</time></trkpt><trkpt lat="44.1834017" lon="12.0443865"><ele>41.0</ele><time>2026-04-12T09:15:38.013Z</time></trkpt><trkpt lat="44.1833336" lon="12.0446506"><ele>41.0</ele><time>2026-04-12T09:15:39.017Z</time></trkpt><trkpt lat="44.183256" lon="12.0449252"><ele>39.5</ele><time>2026-04-12T09:15:40.013Z</time></trkpt><trkpt lat="44.1831713" lon="12.0452183"><ele>38.0</ele><time>2026-04-12T09:15:41.013Z</time></trkpt><trkpt lat="44.1830792" lon="12.0455274"><ele>38.5</ele><time>2026-04-12T09:15:42.014Z</time></trkpt><trkpt lat="44.1829864" lon="12.045857"><ele>39.0</ele><time>2026-04-12T09:15:43.015Z</time></trkpt><trkpt lat="44.182887" lon="12.0461972"><ele>39.0</ele><time>2026-04-12T09:15:44.012Z</time></trkpt><trkpt lat="44.1827874" lon="12.0465483"><ele>39.0</ele><time>2026-04-12T09:15:45.015Z</time></trkpt><trkpt lat="44.1826861" lon="12.0469009"><ele>39.0</ele><time>2026-04-12T09:15:46.014Z</time></trkpt><trkpt lat="44.1825874" lon="12.047236"><ele>39.0</ele><time>2026-04-12T09:15:47.012Z</time></trkpt><trkpt lat="44.1824917" lon="12.0475633"><ele>38.0</ele><time>2026-04-12T09:15:48.013Z</time></trkpt><trkpt lat="44.182395" lon="12.0478982"><ele>37.0</ele><time>2026-04-12T09:15:49.013Z</time></trkpt><trkpt lat="44.1822977" lon="12.0482403"><ele>37.5</ele><time>2026-04-12T09:15:50.022Z</time></trkpt><trkpt lat="44.1821925" lon="12.0485853"><ele>38.0</ele><time>2026-04-12T09:15:51.015Z</time></trkpt><trkpt lat="44.1820866" lon="12.0489427"><ele>37.5</ele><time>2026-04-12T09:15:52.012Z</time></trkpt><trkpt lat="44.1819845" lon="12.0493011"><ele>37.0</ele><time>2026-04-12T09:15:53.012Z</time></trkpt><trkpt lat="44.1818847" lon="12.0496389"><ele>37.0</ele><time>2026-04-12T09:15:54.013Z</time></trkpt><trkpt lat="44.1817944" lon="12.0499542"><ele>37.0</ele><time>2026-04-12T09:15:55.013Z</time></trkpt><trkpt lat="44.181704" lon="12.050259"><ele>37.0</ele><time>2026-04-12T09:15:56.013Z</time></trkpt><trkpt lat="44.1816207" lon="12.050561"><ele>37.0</ele><time>2026-04-12T09:15:57.015Z</time></trkpt><trkpt lat="44.1815376" lon="12.0508677"><ele>37.0</ele><time>2026-04-12T09:15:58.013Z</time></trkpt><trkpt lat="44.1814454" lon="12.0511767"><ele>37.0</ele><time>2026-04-12T09:15:59.019Z</time></trkpt><trkpt lat="44.1813522" lon="12.0514839"><ele>37.5</ele><time>2026-04-12T09:16:00.014Z</time></trkpt><trkpt lat="44.1812638" lon="12.0517909"><ele>38.0</ele><time>2026-04-12T09:16:01.013Z</time></trkpt><trkpt lat="44.1811779" lon="12.0520933"><ele>38.0</ele><time>2026-04-12T09:16:02.012Z</time></trkpt><trkpt lat="44.1810863" lon="12.0523935"><ele>38.0</ele><time>2026-04-12T09:16:03.014Z</time></trkpt><trkpt lat="44.1809902" lon="12.0526891"><ele>38.0</ele><time>2026-04-12T09:16:04.013Z</time></trkpt><trkpt lat="44.1808824" lon="12.0529883"><ele>38.0</ele><time>2026-04-12T09:16:05.014Z</time></trkpt><trkpt lat="44.180763" lon="12.0532882"><ele>37.0</ele><time>2026-04-12T09:16:06.013Z</time></trkpt><trkpt lat="44.1806318" lon="12.0535926"><ele>36.0</ele><time>2026-04-12T09:16:07.012Z</time></trkpt><trkpt lat="44.1804906" lon="12.0538993"><ele>36.0</ele><time>2026-04-12T09:16:08.013Z</time></trkpt><trkpt lat="44.1803394" lon="12.0542069"><ele>36.0</ele><time>2026-04-12T09:16:09.013Z</time></trkpt><trkpt lat="44.1801939" lon="12.0545219"><ele>36.0</ele><time>2026-04-12T09:16:10.014Z</time></trkpt><trkpt lat="44.180052" lon="12.0548402"><ele>36.0</ele><time>2026-04-12T09:16:11.014Z</time></trkpt><trkpt lat="44.179909" lon="12.0551548"><ele>36.0</ele><time>2026-04-12T09:16:12.012Z</time></trkpt><trkpt lat="44.1797698" lon="12.0554619"><ele>36.0</ele><time>2026-04-12T09:16:13.013Z</time></trkpt><trkpt lat="44.179634" lon="12.0557622"><ele>36.5</ele><time>2026-04-12T09:16:14.013Z</time></trkpt><trkpt lat="44.1794996" lon="12.0560453"><ele>37.0</ele><time>2026-04-12T09:16:15.014Z</time></trkpt><trkpt lat="44.1793707" lon="12.0563148"><ele>37.0</ele><time>2026-04-12T09:16:16.013Z</time></trkpt><trkpt lat="44.1792418" lon="12.0565699"><ele>37.0</ele><time>2026-04-12T09:16:17.013Z</time></trkpt><trkpt lat="44.1791166" lon="12.0568192"><ele>37.0</ele><time>2026-04-12T09:16:18.014Z</time></trkpt><trkpt lat="44.1789988" lon="12.0570602"><ele>36.66666666666667</ele><time>2026-04-12T09:16:19.014Z</time></trkpt><trkpt lat="44.1788919" lon="12.057289"><ele>36.333333333333336</ele><time>2026-04-12T09:16:20.012Z</time></trkpt><trkpt lat="44.178791" lon="12.0575015"><ele>36.0</ele><time>2026-04-12T09:16:21.012Z</time></trkpt><trkpt lat="44.1787043" lon="12.0577007"><ele>36.0</ele><time>2026-04-12T09:16:22.017Z</time></trkpt><trkpt lat="44.1786359" lon="12.057892"><ele>36.0</ele><time>2026-04-12T09:16:23.014Z</time></trkpt><trkpt lat="44.1786057" lon="12.0580883"><ele>36.0</ele><time>2026-04-12T09:16:24.013Z</time></trkpt><trkpt lat="44.1786131" lon="12.0582865"><ele>36.0</ele><time>2026-04-12T09:16:25.012Z</time></trkpt><trkpt lat="44.178659" lon="12.0584735"><ele>35.666666666666664</ele><time>2026-04-12T09:16:26.012Z</time></trkpt><trkpt lat="44.1787384" lon="12.0586417"><ele>35.33333333333333</ele><time>2026-04-12T09:16:27.012Z</time></trkpt><trkpt lat="44.1788533" lon="12.0587886"><ele>35.0</ele><time>2026-04-12T09:16:28.014Z</time></trkpt><trkpt lat="44.1789958" lon="12.0589132"><ele>35.0</ele><time>2026-04-12T09:16:29.012Z</time></trkpt><trkpt lat="44.1791584" lon="12.0590299"><ele>35.0</ele><time>2026-04-12T09:16:30.016Z</time></trkpt><trkpt lat="44.1793196" lon="12.0591554"><ele>35.0</ele><time>2026-04-12T09:16:31.013Z</time></trkpt><trkpt lat="44.1794621" lon="12.0592986"><ele>35.0</ele><time>2026-04-12T09:16:32.017Z</time></trkpt><trkpt lat="44.1795753" lon="12.0594665"><ele>35.0</ele><time>2026-04-12T09:16:33.014Z</time></trkpt><trkpt lat="44.179658" lon="12.0596557"><ele>35.0</ele><time>2026-04-12T09:16:34.014Z</time></trkpt><trkpt lat="44.1797037" lon="12.0598533"><ele>34.75</ele><time>2026-04-12T09:16:35.014Z</time></trkpt><trkpt lat="44.1797071" lon="12.0600517"><ele>34.5</ele><time>2026-04-12T09:16:36.014Z</time></trkpt><trkpt lat="44.1796808" lon="12.0602499"><ele>34.25</ele><time>2026-04-12T09:16:37.013Z</time></trkpt><trkpt lat="44.1796183" lon="12.060445"><ele>34.0</ele><time>2026-04-12T09:16:38.013Z</time></trkpt><trkpt lat="44.1795517" lon="12.06063"><ele>34.0</ele><time>2026-04-12T09:16:39.014Z</time></trkpt><trkpt lat="44.179485" lon="12.0608033"><ele>34.0</ele><time>2026-04-12T09:16:40.013Z</time></trkpt><trkpt lat="44.1794183" lon="12.0609717"><ele>34.0</ele><time>2026-04-12T09:16:41.014Z</time></trkpt><trkpt lat="44.179355" lon="12.061145"><ele>34.0</ele><time>2026-04-12T09:16:42.012Z</time></trkpt><trkpt lat="44.1792933" lon="12.0613167"><ele>34.0</ele><time>2026-04-12T09:16:43.014Z</time></trkpt><trkpt lat="44.1792517" lon="12.0614933"><ele>34.0</ele><time>2026-04-12T09:16:44.013Z</time></trkpt><trkpt lat="44.1792317" lon="12.0616767"><ele>34.0</ele><time>2026-04-12T09:16:45.013Z</time></trkpt><trkpt lat="44.1792517" lon="12.0618617"><ele>34.0</ele><time>2026-04-12T09:16:46.017Z</time></trkpt><trkpt lat="44.1793067" lon="12.062025"><ele>33.66666666666667</ele><time>2026-04-12T09:16:47.012Z</time></trkpt><trkpt lat="44.1794" lon="12.062175"><ele>33.333333333333336</ele><time>2026-04-12T09:16:48.012Z</time></trkpt><trkpt lat="44.1795233" lon="12.0623117"><ele>33.0</ele><time>2026-04-12T09:16:49.014Z</time></trkpt><trkpt lat="44.1796617" lon="12.062445"><ele>33.333333333333336</ele><time>2026-04-12T09:16:50.013Z</time></trkpt><trkpt lat="44.1798033" lon="12.0625717"><ele>33.66666666666667</ele><time>2026-04-12T09:16:51.013Z</time></trkpt><trkpt lat="44.1799467" lon="12.0626833"><ele>34.0</ele><time>2026-04-12T09:16:52.014Z</time></trkpt><trkpt lat="44.1800833" lon="12.0627783"><ele>34.0</ele><time>2026-04-12T09:16:53.014Z</time></trkpt><trkpt lat="44.180205" lon="12.0628633"><ele>34.0</ele><time>2026-04-12T09:16:54.013Z</time></trkpt><trkpt lat="44.180305" lon="12.0629483"><ele>34.0</ele><time>2026-04-12T09:16:55.014Z</time></trkpt><trkpt lat="44.1803867" lon="12.0630117"><ele>34.0</ele><time>2026-04-12T09:16:56.013Z</time></trkpt><trkpt lat="44.1804517" lon="12.0630633"><ele>34.0</ele><time>2026-04-12T09:16:57.013Z</time></trkpt><trkpt lat="44.1805367" lon="12.063155"><ele>33.8</ele><time>2026-04-12T09:16:59.012Z</time></trkpt><trkpt lat="44.180555" lon="12.063305"><ele>33.599999999999994</ele><time>2026-04-12T09:17:01.013Z</time></trkpt><trkpt lat="44.1805033" lon="12.06341"><ele>33.4</ele><time>2026-04-12T09:17:02.012Z</time></trkpt><trkpt lat="44.1804283" lon="12.0634983"><ele>33.199999999999996</ele><time>2026-04-12T09:17:03.012Z</time></trkpt><trkpt lat="44.1803567" lon="12.0635767"><ele>33.0</ele><time>2026-04-12T09:17:04.014Z</time></trkpt><trkpt lat="44.1803033" lon="12.0636817"><ele>33.0</ele><time>2026-04-12T09:17:05.013Z</time></trkpt><trkpt lat="44.1802467" lon="12.06379"><ele>33.0</ele><time>2026-04-12T09:17:06.014Z</time></trkpt><trkpt lat="44.180185" lon="12.0638983"><ele>33.0</ele><time>2026-04-12T09:17:07.015Z</time></trkpt><trkpt lat="44.1801233" lon="12.0640117"><ele>33.0</ele><time>2026-04-12T09:17:08.013Z</time></trkpt><trkpt lat="44.1800517" lon="12.0641383"><ele>33.0</ele><time>2026-04-12T09:17:09.013Z</time></trkpt><trkpt lat="44.1799817" lon="12.0642767"><ele>32.75</ele><time>2026-04-12T09:17:10.018Z</time></trkpt><trkpt lat="44.17991" lon="12.064415"><ele>32.5</ele><time>2026-04-12T09:17:11.011Z</time></trkpt><trkpt lat="44.17984" lon="12.0645617"><ele>32.25</ele><time>2026-04-12T09:17:12.013Z</time></trkpt><trkpt lat="44.1797688" lon="12.0647085"><ele>32.0</ele><time>2026-04-12T09:17:13.013Z</time></trkpt><trkpt lat="44.1796905" lon="12.0648619"><ele>33.0</ele><time>2026-04-12T09:17:14.014Z</time></trkpt><trkpt lat="44.1796152" lon="12.0650168"><ele>34.0</ele><time>2026-04-12T09:17:15.016Z</time></trkpt><trkpt lat="44.1795334" lon="12.0651696"><ele>35.0</ele><time>2026-04-12T09:17:16.013Z</time></trkpt><trkpt lat="44.1794506" lon="12.0653297"><ele>36.0</ele><time>2026-04-12T09:17:17.012Z</time></trkpt><trkpt lat="44.1793664" lon="12.0654977"><ele>36.0</ele><time>2026-04-12T09:17:18.012Z</time></trkpt><trkpt lat="44.1792765" lon="12.0656686"><ele>36.0</ele><time>2026-04-12T09:17:19.013Z</time></trkpt><trkpt lat="44.1791855" lon="12.0658448"><ele>36.0</ele><time>2026-04-12T09:17:20.02Z</time></trkpt><trkpt lat="44.1790938" lon="12.0660211"><ele>35.0</ele><time>2026-04-12T09:17:21.013Z</time></trkpt><trkpt lat="44.1789976" lon="12.0662031"><ele>34.0</ele><time>2026-04-12T09:17:22.013Z</time></trkpt><trkpt lat="44.1788983" lon="12.0663987"><ele>33.0</ele><time>2026-04-12T09:17:23.012Z</time></trkpt><trkpt lat="44.1787963" lon="12.066594"><ele>32.666666666666664</ele><time>2026-04-12T09:17:24.013Z</time></trkpt><trkpt lat="44.1786912" lon="12.0667912"><ele>32.33333333333333</ele><time>2026-04-12T09:17:25.016Z</time></trkpt><trkpt lat="44.1785808" lon="12.0669835"><ele>32.0</ele><time>2026-04-12T09:17:26.013Z</time></trkpt><trkpt lat="44.1784733" lon="12.0671699"><ele>32.0</ele><time>2026-04-12T09:17:27.014Z</time></trkpt><trkpt lat="44.1783741" lon="12.0673429"><ele>32.0</ele><time>2026-04-12T09:17:28.013Z</time></trkpt><trkpt lat="44.1782739" lon="12.0674993"><ele>32.0</ele><time>2026-04-12T09:17:29.013Z</time></trkpt><trkpt lat="44.1781742" lon="12.0676437"><ele>31.75</ele><time>2026-04-12T09:17:30.013Z</time></trkpt><trkpt lat="44.1780794" lon="12.067778"><ele>31.5</ele><time>2026-04-12T09:17:31.012Z</time></trkpt><trkpt lat="44.1779885" lon="12.067901"><ele>31.25</ele><time>2026-04-12T09:17:32.013Z</time></trkpt><trkpt lat="44.1778998" lon="12.0680121"><ele>31.0</ele><time>2026-04-12T09:17:33.015Z</time></trkpt><trkpt lat="44.1778084" lon="12.0681241"><ele>31.0</ele><time>2026-04-12T09:17:34.013Z</time></trkpt><trkpt lat="44.177715" lon="12.0682421"><ele>31.0</ele><time>2026-04-12T09:17:35.014Z</time></trkpt><trkpt lat="44.1776179" lon="12.0683715"><ele>31.0</ele><time>2026-04-12T09:17:36.014Z</time></trkpt><trkpt lat="44.177517" lon="12.0685139"><ele>31.0</ele><time>2026-04-12T09:17:37.013Z</time></trkpt><trkpt lat="44.1774102" lon="12.0686604"><ele>31.333333333333336</ele><time>2026-04-12T09:17:38.013Z</time></trkpt><trkpt lat="44.1773075" lon="12.0688144"><ele>31.666666666666664</ele><time>2026-04-12T09:17:39.014Z</time></trkpt><trkpt lat="44.1772002" lon="12.0689687"><ele>32.0</ele><time>2026-04-12T09:17:40.013Z</time></trkpt><trkpt lat="44.1770934" lon="12.0691133"><ele>32.0</ele><time>2026-04-12T09:17:41.012Z</time></trkpt><trkpt lat="44.1769916" lon="12.069245"><ele>32.0</ele><time>2026-04-12T09:17:42.012Z</time></trkpt><trkpt lat="44.1769012" lon="12.0693727"><ele>32.0</ele><time>2026-04-12T09:17:43.016Z</time></trkpt><trkpt lat="44.1768089" lon="12.0694976"><ele>32.0</ele><time>2026-04-12T09:17:44.014Z</time></trkpt><trkpt lat="44.1767071" lon="12.0696165"><ele>32.0</ele><time>2026-04-12T09:17:45.014Z</time></trkpt><trkpt lat="44.1766081" lon="12.0697435"><ele>32.0</ele><time>2026-04-12T09:17:46.013Z</time></trkpt><trkpt lat="44.1765151" lon="12.0698623"><ele>32.0</ele><time>2026-04-12T09:17:47.012Z</time></trkpt><trkpt lat="44.176432" lon="12.069971"><ele>32.0</ele><time>2026-04-12T09:17:48.013Z</time></trkpt><trkpt lat="44.1763583" lon="12.0700702"><ele>32.2</ele><time>2026-04-12T09:17:49.013Z</time></trkpt><trkpt lat="44.1762914" lon="12.0701604"><ele>32.400000000000006</ele><time>2026-04-12T09:17:50.012Z</time></trkpt><trkpt lat="44.1762271" lon="12.0702469"><ele>32.599999999999994</ele><time>2026-04-12T09:17:51.014Z</time></trkpt><trkpt lat="44.1761579" lon="12.0703396"><ele>32.8</ele><time>2026-04-12T09:17:52.013Z</time></trkpt><trkpt lat="44.176068" lon="12.0704604"><ele>33.0</ele><time>2026-04-12T09:17:53.013Z</time></trkpt><trkpt lat="44.1759637" lon="12.0706062"><ele>33.0</ele><time>2026-04-12T09:17:54.019Z</time></trkpt><trkpt lat="44.1758499" lon="12.0707732"><ele>33.0</ele><time>2026-04-12T09:17:55.013Z</time></trkpt><trkpt lat="44.1757346" lon="12.0709627"><ele>33.0</ele><time>2026-04-12T09:17:56.013Z</time></trkpt><trkpt lat="44.1756276" lon="12.0711667"><ele>33.0</ele><time>2026-04-12T09:17:57.013Z</time></trkpt><trkpt lat="44.1755262" lon="12.0713666"><ele>33.0</ele><time>2026-04-12T09:17:58.014Z</time></trkpt><trkpt lat="44.1754409" lon="12.0715673"><ele>33.0</ele><time>2026-04-12T09:17:59.012Z</time></trkpt><trkpt lat="44.1753271" lon="12.0717434"><ele>33.0</ele><time>2026-04-12T09:18:00.014Z</time></trkpt><trkpt lat="44.1751911" lon="12.0719052"><ele>33.0</ele><time>2026-04-12T09:18:01.012Z</time></trkpt><trkpt lat="44.1750433" lon="12.0720672"><ele>33.0</ele><time>2026-04-12T09:18:02.012Z</time></trkpt><trkpt lat="44.1748944" lon="12.0722125"><ele>33.0</ele><time>2026-04-12T09:18:03.015Z</time></trkpt><trkpt lat="44.1747588" lon="12.0723532"><ele>33.0</ele><time>2026-04-12T09:18:04.013Z</time></trkpt><trkpt lat="44.1746369" lon="12.0724921"><ele>33.0</ele><time>2026-04-12T09:18:05.014Z</time></trkpt><trkpt lat="44.1745359" lon="12.072625"><ele>33.166666666666664</ele><time>2026-04-12T09:18:06.013Z</time></trkpt><trkpt lat="44.1744756" lon="12.0727401"><ele>33.333333333333336</ele><time>2026-04-12T09:18:07.014Z</time></trkpt><trkpt lat="44.1744461" lon="12.0728443"><ele>33.5</ele><time>2026-04-12T09:18:08.013Z</time></trkpt><trkpt lat="44.1744402" lon="12.0729405"><ele>33.66666666666667</ele><time>2026-04-12T09:18:09.013Z</time></trkpt><trkpt lat="44.1744492" lon="12.0730383"><ele>33.833333333333336</ele><time>2026-04-12T09:18:10.013Z</time></trkpt><trkpt lat="44.1744831" lon="12.0731373"><ele>34.0</ele><time>2026-04-12T09:18:11.012Z</time></trkpt><trkpt lat="44.1746287" lon="12.0732045"><ele>34.0</ele><time>2026-04-12T09:18:12.013Z</time></trkpt><trkpt lat="44.1748021" lon="12.0732761"><ele>34.0</ele><time>2026-04-12T09:18:13.014Z</time></trkpt><trkpt lat="44.1749756" lon="12.0733589"><ele>34.0</ele><time>2026-04-12T09:18:14.017Z</time></trkpt><trkpt lat="44.175146" lon="12.0734549"><ele>33.66666666666667</ele><time>2026-04-12T09:18:15.013Z</time></trkpt><trkpt lat="44.17532" lon="12.0735525"><ele>33.333333333333336</ele><time>2026-04-12T09:18:16.013Z</time></trkpt><trkpt lat="44.1754855" lon="12.0736594"><ele>33.0</ele><time>2026-04-12T09:18:17.012Z</time></trkpt><trkpt lat="44.1756394" lon="12.0737589"><ele>33.0</ele><time>2026-04-12T09:18:18.014Z</time></trkpt><trkpt lat="44.1757797" lon="12.0738605"><ele>33.0</ele><time>2026-04-12T09:18:19.013Z</time></trkpt><trkpt lat="44.1759085" lon="12.0739607"><ele>33.0</ele><time>2026-04-12T09:18:20.012Z</time></trkpt><trkpt lat="44.1760226" lon="12.0740635"><ele>33.0</ele><time>2026-04-12T09:18:21.014Z</time></trkpt><trkpt lat="44.1761124" lon="12.0741896"><ele>33.0</ele><time>2026-04-12T09:18:22.015Z</time></trkpt><trkpt lat="44.1761737" lon="12.0743422"><ele>33.0</ele><time>2026-04-12T09:18:23.012Z</time></trkpt><trkpt lat="44.1761944" lon="12.0745194"><ele>33.0</ele><time>2026-04-12T09:18:24.009Z</time></trkpt><trkpt lat="44.1761727" lon="12.0747078"><ele>33.0</ele><time>2026-04-12T09:18:25.012Z</time></trkpt><trkpt lat="44.1761119" lon="12.0749025"><ele>32.666666666666664</ele><time>2026-04-12T09:18:26.014Z</time></trkpt><trkpt lat="44.1760247" lon="12.0751037"><ele>32.33333333333333</ele><time>2026-04-12T09:18:27.013Z</time></trkpt><trkpt lat="44.1759249" lon="12.0753135"><ele>32.0</ele><time>2026-04-12T09:18:28.012Z</time></trkpt><trkpt lat="44.1758286" lon="12.0755433"><ele>32.0</ele><time>2026-04-12T09:18:29.016Z</time></trkpt><trkpt lat="44.1757334" lon="12.0757896"><ele>32.0</ele><time>2026-04-12T09:18:30.012Z</time></trkpt><trkpt lat="44.1756502" lon="12.0760541"><ele>32.0</ele><time>2026-04-12T09:18:31.013Z</time></trkpt><trkpt lat="44.1755898" lon="12.0763342"><ele>32.666666666666664</ele><time>2026-04-12T09:18:32.014Z</time></trkpt><trkpt lat="44.1755502" lon="12.0766086"><ele>33.333333333333336</ele><time>2026-04-12T09:18:33.013Z</time></trkpt><trkpt lat="44.1755385" lon="12.0768635"><ele>34.0</ele><time>2026-04-12T09:18:34.013Z</time></trkpt><trkpt lat="44.1755445" lon="12.0770894"><ele>34.0</ele><time>2026-04-12T09:18:35.014Z</time></trkpt><trkpt lat="44.1755609" lon="12.0772808"><ele>34.0</ele><time>2026-04-12T09:18:36.015Z</time></trkpt><trkpt lat="44.1755755" lon="12.0774487"><ele>34.0</ele><time>2026-04-12T09:18:37.011Z</time></trkpt><trkpt lat="44.1755693" lon="12.077601"><ele>34.0</ele><time>2026-04-12T09:18:38.015Z</time></trkpt><trkpt lat="44.1755293" lon="12.0777463"><ele>33.75</ele><time>2026-04-12T09:18:39.013Z</time></trkpt><trkpt lat="44.1754581" lon="12.0778861"><ele>33.5</ele><time>2026-04-12T09:18:40.013Z</time></trkpt><trkpt lat="44.1753679" lon="12.0780116"><ele>33.25</ele><time>2026-04-12T09:18:41.012Z</time></trkpt><trkpt lat="44.1752558" lon="12.0781135"><ele>33.0</ele><time>2026-04-12T09:18:42.013Z</time></trkpt><trkpt lat="44.1751184" lon="12.0781681"><ele>33.0</ele><time>2026-04-12T09:18:43.013Z</time></trkpt><trkpt lat="44.174964" lon="12.0781769"><ele>33.0</ele><time>2026-04-12T09:18:44.013Z</time></trkpt><trkpt lat="44.1748" lon="12.0781559"><ele>33.0</ele><time>2026-04-12T09:18:45.013Z</time></trkpt><trkpt lat="44.1746255" lon="12.0781168"><ele>33.0</ele><time>2026-04-12T09:18:46.012Z</time></trkpt><trkpt lat="44.1744399" lon="12.0780626"><ele>33.0</ele><time>2026-04-12T09:18:47.013Z</time></trkpt><trkpt lat="44.1742428" lon="12.0779971"><ele>33.0</ele><time>2026-04-12T09:18:48.013Z</time></trkpt><trkpt lat="44.1740355" lon="12.0779237"><ele>33.5</ele><time>2026-04-12T09:18:49.014Z</time></trkpt><trkpt lat="44.1738185" lon="12.0778463"><ele>34.0</ele><time>2026-04-12T09:18:50.012Z</time></trkpt><trkpt lat="44.1735951" lon="12.0777775"><ele>34.0</ele><time>2026-04-12T09:18:51.013Z</time></trkpt><trkpt lat="44.1733709" lon="12.0777023"><ele>34.0</ele><time>2026-04-12T09:18:52.012Z</time></trkpt><trkpt lat="44.173164" lon="12.0776379"><ele>34.0</ele><time>2026-04-12T09:18:53.014Z</time></trkpt><trkpt lat="44.1729944" lon="12.0775861"><ele>34.0</ele><time>2026-04-12T09:18:54.012Z</time></trkpt><trkpt lat="44.1728712" lon="12.0775524"><ele>34.0</ele><time>2026-04-12T09:18:55.015Z</time></trkpt><trkpt lat="44.1727955" lon="12.077534"><ele>34.0</ele><time>2026-04-12T09:18:56.013Z</time></trkpt><trkpt lat="44.1727162" lon="12.0775224"><ele>34.0</ele><time>2026-04-12T09:18:58.013Z</time></trkpt><trkpt lat="44.1727045" lon="12.0776152"><ele>34.0</ele><time>2026-04-12T09:19:01.015Z</time></trkpt><trkpt lat="44.1727236" lon="12.0777805"><ele>34.0</ele><time>2026-04-12T09:19:03.016Z</time></trkpt><trkpt lat="44.172714" lon="12.0778789"><ele>34.0</ele><time>2026-04-12T09:19:04.013Z</time></trkpt><trkpt lat="44.1726887" lon="12.0779946"><ele>34.0</ele><time>2026-04-12T09:19:05.011Z</time></trkpt><trkpt lat="44.1726439" lon="12.0781342"><ele>34.0</ele><time>2026-04-12T09:19:06.013Z</time></trkpt><trkpt lat="44.172551" lon="12.0783339"><ele>34.0</ele><time>2026-04-12T09:19:07.012Z</time></trkpt><trkpt lat="44.1724496" lon="12.0785612"><ele>34.66666666666667</ele><time>2026-04-12T09:19:08.013Z</time></trkpt><trkpt lat="44.172349" lon="12.0788071"><ele>35.333333333333336</ele><time>2026-04-12T09:19:09.015Z</time></trkpt><trkpt lat="44.1722471" lon="12.0790716"><ele>36.0</ele><time>2026-04-12T09:19:10.012Z</time></trkpt><trkpt lat="44.1721395" lon="12.0793519"><ele>36.5</ele><time>2026-04-12T09:19:11.014Z</time></trkpt><trkpt lat="44.1720281" lon="12.079639"><ele>37.0</ele><time>2026-04-12T09:19:12.014Z</time></trkpt><trkpt lat="44.1719084" lon="12.0799362"><ele>36.0</ele><time>2026-04-12T09:19:13.013Z</time></trkpt><trkpt lat="44.1717848" lon="12.0802433"><ele>35.0</ele><time>2026-04-12T09:19:14.013Z</time></trkpt><trkpt lat="44.1716644" lon="12.0805629"><ele>35.0</ele><time>2026-04-12T09:19:15.014Z</time></trkpt><trkpt lat="44.171545" lon="12.0808642"><ele>35.0</ele><time>2026-04-12T09:19:16.013Z</time></trkpt><trkpt lat="44.1714316" lon="12.0811444"><ele>35.0</ele><time>2026-04-12T09:19:17.016Z</time></trkpt><trkpt lat="44.1713243" lon="12.0814081"><ele>35.0</ele><time>2026-04-12T09:19:18.014Z</time></trkpt><trkpt lat="44.1712159" lon="12.081665"><ele>35.0</ele><time>2026-04-12T09:19:19.013Z</time></trkpt><trkpt lat="44.1711065" lon="12.081933"><ele>35.0</ele><time>2026-04-12T09:19:20.014Z</time></trkpt><trkpt lat="44.170974" lon="12.0821922"><ele>35.0</ele><time>2026-04-12T09:19:21.013Z</time></trkpt><trkpt lat="44.1708347" lon="12.0824506"><ele>35.0</ele><time>2026-04-12T09:19:22.016Z</time></trkpt><trkpt lat="44.1706915" lon="12.0827087"><ele>35.0</ele><time>2026-04-12T09:19:23.011Z</time></trkpt><trkpt lat="44.170543" lon="12.0829562"><ele>35.0</ele><time>2026-04-12T09:19:24.013Z</time></trkpt><trkpt lat="44.170401" lon="12.0831939"><ele>35.0</ele><time>2026-04-12T09:19:25.015Z</time></trkpt><trkpt lat="44.1702668" lon="12.0834152"><ele>35.0</ele><time>2026-04-12T09:19:26.013Z</time></trkpt><trkpt lat="44.1701417" lon="12.0836293"><ele>35.0</ele><time>2026-04-12T09:19:27.013Z</time></trkpt><trkpt lat="44.1700274" lon="12.083827"><ele>35.0</ele><time>2026-04-12T09:19:28.013Z</time></trkpt><trkpt lat="44.1699221" lon="12.0840087"><ele>35.0</ele><time>2026-04-12T09:19:29.012Z</time></trkpt><trkpt lat="44.1698202" lon="12.0841727"><ele>35.25</ele><time>2026-04-12T09:19:30.012Z</time></trkpt><trkpt lat="44.1697146" lon="12.0843026"><ele>35.5</ele><time>2026-04-12T09:19:31.012Z</time></trkpt><trkpt lat="44.1695953" lon="12.0843707"><ele>35.75</ele><time>2026-04-12T09:19:32.016Z</time></trkpt><trkpt lat="44.1694715" lon="12.0843819"><ele>36.0</ele><time>2026-04-12T09:19:33.012Z</time></trkpt><trkpt lat="44.1693433" lon="12.0843341"><ele>36.0</ele><time>2026-04-12T09:19:34.014Z</time></trkpt><trkpt lat="44.1692104" lon="12.0842312"><ele>36.0</ele><time>2026-04-12T09:19:35.011Z</time></trkpt><trkpt lat="44.1690746" lon="12.0840933"><ele>36.0</ele><time>2026-04-12T09:19:36.013Z</time></trkpt><trkpt lat="44.1689343" lon="12.0839351"><ele>36.333333333333336</ele><time>2026-04-12T09:19:37.014Z</time></trkpt><trkpt lat="44.1687889" lon="12.0837828"><ele>36.66666666666667</ele><time>2026-04-12T09:19:38.014Z</time></trkpt><trkpt lat="44.168633" lon="12.08363"><ele>37.0</ele><time>2026-04-12T09:19:39.014Z</time></trkpt><trkpt lat="44.1684657" lon="12.0834751"><ele>37.0</ele><time>2026-04-12T09:19:40.013Z</time></trkpt><trkpt lat="44.168286" lon="12.0833249"><ele>37.0</ele><time>2026-04-12T09:19:41.013Z</time></trkpt><trkpt lat="44.1681061" lon="12.0831642"><ele>37.0</ele><time>2026-04-12T09:19:42.013Z</time></trkpt><trkpt lat="44.1679347" lon="12.0830022"><ele>37.333333333333336</ele><time>2026-04-12T09:19:43.013Z</time></trkpt><trkpt lat="44.1677743" lon="12.0828504"><ele>37.666666666666664</ele><time>2026-04-12T09:19:44.013Z</time></trkpt><trkpt lat="44.1676295" lon="12.0827087"><ele>38.0</ele><time>2026-04-12T09:19:45.015Z</time></trkpt><trkpt lat="44.1675013" lon="12.0825696"><ele>38.0</ele><time>2026-04-12T09:19:46.013Z</time></trkpt><trkpt lat="44.1673831" lon="12.0824472"><ele>38.0</ele><time>2026-04-12T09:19:47.013Z</time></trkpt><trkpt lat="44.1672788" lon="12.0823408"><ele>38.0</ele><time>2026-04-12T09:19:48.014Z</time></trkpt><trkpt lat="44.1671912" lon="12.0822597"><ele>38.0</ele><time>2026-04-12T09:19:49.015Z</time></trkpt><trkpt lat="44.1671054" lon="12.0822289"><ele>38.0</ele><time>2026-04-12T09:19:50.013Z</time></trkpt><trkpt lat="44.1670233" lon="12.0822566"><ele>38.0</ele><time>2026-04-12T09:19:51.014Z</time></trkpt><trkpt lat="44.1669466" lon="12.0823146"><ele>38.0</ele><time>2026-04-12T09:19:52.013Z</time></trkpt><trkpt lat="44.1668695" lon="12.0824584"><ele>38.0</ele><time>2026-04-12T09:19:53.013Z</time></trkpt><trkpt lat="44.166794" lon="12.082668"><ele>38.0</ele><time>2026-04-12T09:19:54.016Z</time></trkpt><trkpt lat="44.166718" lon="12.0829011"><ele>38.0</ele><time>2026-04-12T09:19:55.013Z</time></trkpt><trkpt lat="44.1666417" lon="12.0831292"><ele>38.0</ele><time>2026-04-12T09:19:56.012Z</time></trkpt><trkpt lat="44.1665577" lon="12.0833526"><ele>37.33333333333333</ele><time>2026-04-12T09:19:57.013Z</time></trkpt><trkpt lat="44.1664763" lon="12.083568"><ele>36.666666666666664</ele><time>2026-04-12T09:19:58.012Z</time></trkpt><trkpt lat="44.166387" lon="12.0837797"><ele>36.0</ele><time>2026-04-12T09:19:59.013Z</time></trkpt><trkpt lat="44.1663016" lon="12.0839931"><ele>35.666666666666664</ele><time>2026-04-12T09:20:00.014Z</time></trkpt><trkpt lat="44.1662192" lon="12.0842046"><ele>35.33333333333333</ele><time>2026-04-12T09:20:01.016Z</time></trkpt><trkpt lat="44.1661416" lon="12.0844066"><ele>35.0</ele><time>2026-04-12T09:20:02.013Z</time></trkpt><trkpt lat="44.1660805" lon="12.0845839"><ele>35.0</ele><time>2026-04-12T09:20:03.014Z</time></trkpt><trkpt lat="44.166026" lon="12.0847196"><ele>35.0</ele><time>2026-04-12T09:20:04.013Z</time></trkpt><trkpt lat="44.1659605" lon="12.0848031"><ele>35.0</ele><time>2026-04-12T09:20:05.012Z</time></trkpt><trkpt lat="44.165881" lon="12.0848343"><ele>35.0</ele><time>2026-04-12T09:20:06.014Z</time></trkpt><trkpt lat="44.1657944" lon="12.0848296"><ele>35.0</ele><time>2026-04-12T09:20:07.015Z</time></trkpt><trkpt lat="44.1656974" lon="12.0847774"><ele>35.33333333333333</ele><time>2026-04-12T09:20:08.013Z</time></trkpt><trkpt lat="44.1655804" lon="12.0846739"><ele>35.666666666666664</ele><time>2026-04-12T09:20:09.013Z</time></trkpt><trkpt lat="44.1654322" lon="12.0845208"><ele>36.0</ele><time>2026-04-12T09:20:10.017Z</time></trkpt><trkpt lat="44.1652678" lon="12.0843483"><ele>36.0</ele><time>2026-04-12T09:20:11.012Z</time></trkpt><trkpt lat="44.1651074" lon="12.0841822"><ele>36.0</ele><time>2026-04-12T09:20:12.013Z</time></trkpt><trkpt lat="44.1649569" lon="12.0840308"><ele>36.0</ele><time>2026-04-12T09:20:13.014Z</time></trkpt><trkpt lat="44.1648231" lon="12.0839039"><ele>36.2</ele><time>2026-04-12T09:20:14.013Z</time></trkpt><trkpt lat="44.1647105" lon="12.0838108"><ele>36.400000000000006</ele><time>2026-04-12T09:20:15.013Z</time></trkpt><trkpt lat="44.1646147" lon="12.0837736"><ele>36.6</ele><time>2026-04-12T09:20:16.014Z</time></trkpt><trkpt lat="44.1645268" lon="12.0838046"><ele>36.800000000000004</ele><time>2026-04-12T09:20:17.013Z</time></trkpt><trkpt lat="44.1644445" lon="12.083888"><ele>37.0</ele><time>2026-04-12T09:20:18.012Z</time></trkpt><trkpt lat="44.1643693" lon="12.0840158"><ele>37.0</ele><time>2026-04-12T09:20:19.015Z</time></trkpt><trkpt lat="44.1642997" lon="12.0841481"><ele>37.0</ele><time>2026-04-12T09:20:20.013Z</time></trkpt><trkpt lat="44.1642238" lon="12.0842566"><ele>37.0</ele><time>2026-04-12T09:20:21.013Z</time></trkpt><trkpt lat="44.1641381" lon="12.0843202"><ele>37.0</ele><time>2026-04-12T09:20:22.013Z</time></trkpt><trkpt lat="44.1640444" lon="12.0843195"><ele>37.0</ele><time>2026-04-12T09:20:23.013Z</time></trkpt><trkpt lat="44.1639449" lon="12.0842571"><ele>37.0</ele><time>2026-04-12T09:20:24.013Z</time></trkpt><trkpt lat="44.1638342" lon="12.0841535"><ele>37.0</ele><time>2026-04-12T09:20:25.013Z</time></trkpt><trkpt lat="44.1637102" lon="12.0840349"><ele>37.0</ele><time>2026-04-12T09:20:26.014Z</time></trkpt><trkpt lat="44.1635829" lon="12.0839268"><ele>37.0</ele><time>2026-04-12T09:20:27.013Z</time></trkpt><trkpt lat="44.1634588" lon="12.0838342"><ele>37.2</ele><time>2026-04-12T09:20:28.013Z</time></trkpt><trkpt lat="44.1633362" lon="12.0837938"><ele>37.400000000000006</ele><time>2026-04-12T09:20:29.013Z</time></trkpt><trkpt lat="44.1632321" lon="12.0838029"><ele>37.599999999999994</ele><time>2026-04-12T09:20:30.012Z</time></trkpt><trkpt lat="44.1631354" lon="12.0838522"><ele>37.8</ele><time>2026-04-12T09:20:31.017Z</time></trkpt><trkpt lat="44.1630551" lon="12.0839395"><ele>38.0</ele><time>2026-04-12T09:20:32.013Z</time></trkpt><trkpt lat="44.162972" lon="12.084127"><ele>38.33333333333333</ele><time>2026-04-12T09:20:33.014Z</time></trkpt><trkpt lat="44.1628839" lon="12.0843368"><ele>38.666666666666664</ele><time>2026-04-12T09:20:34.012Z</time></trkpt><trkpt lat="44.1627821" lon="12.0845454"><ele>39.0</ele><time>2026-04-12T09:20:35.013Z</time></trkpt><trkpt lat="44.1626776" lon="12.0847484"><ele>38.666666666666664</ele><time>2026-04-12T09:20:36.014Z</time></trkpt><trkpt lat="44.162576" lon="12.0849359"><ele>38.33333333333333</ele><time>2026-04-12T09:20:37.014Z</time></trkpt><trkpt lat="44.1624661" lon="12.0851016"><ele>38.0</ele><time>2026-04-12T09:20:38.013Z</time></trkpt><trkpt lat="44.1623275" lon="12.0852248"><ele>37.33333333333333</ele><time>2026-04-12T09:20:39.014Z</time></trkpt><trkpt lat="44.1621565" lon="12.0853045"><ele>36.666666666666664</ele><time>2026-04-12T09:20:40.013Z</time></trkpt><trkpt lat="44.1619638" lon="12.0853363"><ele>36.0</ele><time>2026-04-12T09:20:41.012Z</time></trkpt><trkpt lat="44.1617622" lon="12.0853534"><ele>36.0</ele><time>2026-04-12T09:20:42.013Z</time></trkpt><trkpt lat="44.1615547" lon="12.0853794"><ele>36.0</ele><time>2026-04-12T09:20:43.013Z</time></trkpt><trkpt lat="44.1613404" lon="12.085409"><ele>36.0</ele><time>2026-04-12T09:20:44.013Z</time></trkpt><trkpt lat="44.161121" lon="12.0854397"><ele>37.0</ele><time>2026-04-12T09:20:45.012Z</time></trkpt><trkpt lat="44.1608928" lon="12.0854754"><ele>38.0</ele><time>2026-04-12T09:20:46.014Z</time></trkpt><trkpt lat="44.1606613" lon="12.0855072"><ele>38.0</ele><time>2026-04-12T09:20:47.015Z</time></trkpt><trkpt lat="44.1604282" lon="12.0855309"><ele>38.0</ele><time>2026-04-12T09:20:48.014Z</time></trkpt><trkpt lat="44.160195" lon="12.0855552"><ele>38.0</ele><time>2026-04-12T09:20:49.015Z</time></trkpt><trkpt lat="44.1599602" lon="12.0855828"><ele>38.0</ele><time>2026-04-12T09:20:50.012Z</time></trkpt><trkpt lat="44.159722" lon="12.0856112"><ele>38.0</ele><time>2026-04-12T09:20:51.013Z</time></trkpt><trkpt lat="44.1594895" lon="12.0856343"><ele>38.0</ele><time>2026-04-12T09:20:52.013Z</time></trkpt><trkpt lat="44.1592674" lon="12.0856604"><ele>38.0</ele><time>2026-04-12T09:20:53.012Z</time></trkpt><trkpt lat="44.1590592" lon="12.0856777"><ele>38.0</ele><time>2026-04-12T09:20:54.014Z</time></trkpt><trkpt lat="44.1588727" lon="12.085694"><ele>38.0</ele><time>2026-04-12T09:20:55.013Z</time></trkpt><trkpt lat="44.1587091" lon="12.0857084"><ele>37.75</ele><time>2026-04-12T09:20:56.013Z</time></trkpt><trkpt lat="44.1585653" lon="12.085714"><ele>37.5</ele><time>2026-04-12T09:20:57.012Z</time></trkpt><trkpt lat="44.1584283" lon="12.0856965"><ele>37.25</ele><time>2026-04-12T09:20:58.013Z</time></trkpt><trkpt lat="44.1582894" lon="12.0856587"><ele>37.0</ele><time>2026-04-12T09:20:59.012Z</time></trkpt><trkpt lat="44.1581433" lon="12.0855807"><ele>37.0</ele><time>2026-04-12T09:21:00.014Z</time></trkpt><trkpt lat="44.1579922" lon="12.0854889"><ele>37.0</ele><time>2026-04-12T09:21:01.014Z</time></trkpt><trkpt lat="44.1578327" lon="12.0854193"><ele>37.0</ele><time>2026-04-12T09:21:02.013Z</time></trkpt><trkpt lat="44.1576794" lon="12.0853663"><ele>37.0</ele><time>2026-04-12T09:21:03.012Z</time></trkpt><trkpt lat="44.1575345" lon="12.0853028"><ele>37.0</ele><time>2026-04-12T09:21:04.012Z</time></trkpt><trkpt lat="44.1573928" lon="12.0852102"><ele>37.0</ele><time>2026-04-12T09:21:05.011Z</time></trkpt><trkpt lat="44.1572503" lon="12.0850732"><ele>37.333333333333336</ele><time>2026-04-12T09:21:06.013Z</time></trkpt><trkpt lat="44.1571044" lon="12.0849062"><ele>37.666666666666664</ele><time>2026-04-12T09:21:07.015Z</time></trkpt><trkpt lat="44.1569492" lon="12.0847218"><ele>38.0</ele><time>2026-04-12T09:21:08.013Z</time></trkpt><trkpt lat="44.1567882" lon="12.0845287"><ele>38.0</ele><time>2026-04-12T09:21:09.012Z</time></trkpt><trkpt lat="44.156625" lon="12.0843371"><ele>38.0</ele><time>2026-04-12T09:21:10.012Z</time></trkpt><trkpt lat="44.156462" lon="12.0841531"><ele>38.0</ele><time>2026-04-12T09:21:11.014Z</time></trkpt><trkpt lat="44.1563041" lon="12.0839669"><ele>38.666666666666664</ele><time>2026-04-12T09:21:12.019Z</time></trkpt><trkpt lat="44.1561514" lon="12.0837783"><ele>39.333333333333336</ele><time>2026-04-12T09:21:13.014Z</time></trkpt><trkpt lat="44.1559968" lon="12.0835898"><ele>40.0</ele><time>2026-04-12T09:21:14.012Z</time></trkpt><trkpt lat="44.1558375" lon="12.0834046"><ele>39.66666666666667</ele><time>2026-04-12T09:21:15.016Z</time></trkpt><trkpt lat="44.1556775" lon="12.0832173"><ele>39.333333333333336</ele><time>2026-04-12T09:21:16.013Z</time></trkpt><trkpt lat="44.1555197" lon="12.0830237"><ele>39.0</ele><time>2026-04-12T09:21:17.011Z</time></trkpt><trkpt lat="44.1553598" lon="12.0828261"><ele>39.0</ele><time>2026-04-12T09:21:18.017Z</time></trkpt><trkpt lat="44.1551999" lon="12.0826307"><ele>39.0</ele><time>2026-04-12T09:21:19.013Z</time></trkpt><trkpt lat="44.1550372" lon="12.082439"><ele>39.0</ele><time>2026-04-12T09:21:20.013Z</time></trkpt><trkpt lat="44.1548725" lon="12.0822455"><ele>39.333333333333336</ele><time>2026-04-12T09:21:21.012Z</time></trkpt><trkpt lat="44.1547054" lon="12.0820487"><ele>39.66666666666667</ele><time>2026-04-12T09:21:22.015Z</time></trkpt><trkpt lat="44.1545357" lon="12.0818449"><ele>40.0</ele><time>2026-04-12T09:21:23.013Z</time></trkpt><trkpt lat="44.154365" lon="12.0816453"><ele>40.0</ele><time>2026-04-12T09:21:24.018Z</time></trkpt><trkpt lat="44.1542042" lon="12.0814507"><ele>40.0</ele><time>2026-04-12T09:21:25.013Z</time></trkpt><trkpt lat="44.1540556" lon="12.0812624"><ele>40.0</ele><time>2026-04-12T09:21:26.015Z</time></trkpt><trkpt lat="44.1539228" lon="12.0810816"><ele>40.0</ele><time>2026-04-12T09:21:27.012Z</time></trkpt><trkpt lat="44.1537989" lon="12.0809076"><ele>40.0</ele><time>2026-04-12T09:21:28.013Z</time></trkpt><trkpt lat="44.1536809" lon="12.0807377"><ele>40.0</ele><time>2026-04-12T09:21:29.013Z</time></trkpt><trkpt lat="44.1535686" lon="12.0805675"><ele>39.75</ele><time>2026-04-12T09:21:30.014Z</time></trkpt><trkpt lat="44.1534608" lon="12.0804068"><ele>39.5</ele><time>2026-04-12T09:21:31.014Z</time></trkpt><trkpt lat="44.1533586" lon="12.0802557"><ele>39.25</ele><time>2026-04-12T09:21:32.012Z</time></trkpt><trkpt lat="44.1532646" lon="12.0801119"><ele>39.0</ele><time>2026-04-12T09:21:33.012Z</time></trkpt><trkpt lat="44.1531759" lon="12.0799797"><ele>39.6</ele><time>2026-04-12T09:21:34.013Z</time></trkpt><trkpt lat="44.1530988" lon="12.079861"><ele>40.2</ele><time>2026-04-12T09:21:35.014Z</time></trkpt><trkpt lat="44.1530339" lon="12.079764"><ele>40.800000000000004</ele><time>2026-04-12T09:21:36.013Z</time></trkpt><trkpt lat="44.1529775" lon="12.0796967"><ele>41.4</ele><time>2026-04-12T09:21:37.013Z</time></trkpt><trkpt lat="44.1528473" lon="12.0796815"><ele>42.0</ele><time>2026-04-12T09:21:39.015Z</time></trkpt><trkpt lat="44.1527826" lon="12.0796953"><ele>42.0</ele><time>2026-04-12T09:21:40.014Z</time></trkpt><trkpt lat="44.1527122" lon="12.0797796"><ele>42.0</ele><time>2026-04-12T09:21:41.013Z</time></trkpt><trkpt lat="44.1526506" lon="12.0798724"><ele>42.0</ele><time>2026-04-12T09:21:42.013Z</time></trkpt><trkpt lat="44.1525937" lon="12.0799618"><ele>42.0</ele><time>2026-04-12T09:21:43.013Z</time></trkpt><trkpt lat="44.1525055" lon="12.0801778"><ele>42.0</ele><time>2026-04-12T09:21:44.013Z</time></trkpt><trkpt lat="44.1524068" lon="12.0803504"><ele>41.666666666666664</ele><time>2026-04-12T09:21:45.014Z</time></trkpt><trkpt lat="44.1523079" lon="12.0805305"><ele>41.33333333333333</ele><time>2026-04-12T09:21:46.012Z</time></trkpt><trkpt lat="44.1522211" lon="12.0807306"><ele>41.0</ele><time>2026-04-12T09:21:47.013Z</time></trkpt><trkpt lat="44.1521337" lon="12.0809342"><ele>40.666666666666664</ele><time>2026-04-12T09:21:48.012Z</time></trkpt><trkpt lat="44.1520485" lon="12.0811433"><ele>40.333333333333336</ele><time>2026-04-12T09:21:49.012Z</time></trkpt><trkpt lat="44.1519694" lon="12.0813656"><ele>40.0</ele><time>2026-04-12T09:21:50.014Z</time></trkpt><trkpt lat="44.1518897" lon="12.0815932"><ele>39.66666666666667</ele><time>2026-04-12T09:21:51.012Z</time></trkpt><trkpt lat="44.1518134" lon="12.0818218"><ele>39.333333333333336</ele><time>2026-04-12T09:21:52.014Z</time></trkpt><trkpt lat="44.1517367" lon="12.0820498"><ele>39.0</ele><time>2026-04-12T09:21:53.013Z</time></trkpt><trkpt lat="44.1516573" lon="12.0822775"><ele>39.666666666666664</ele><time>2026-04-12T09:21:54.012Z</time></trkpt><trkpt lat="44.1515811" lon="12.0825068"><ele>40.33333333333333</ele><time>2026-04-12T09:21:55.017Z</time></trkpt><trkpt lat="44.1515052" lon="12.0827241"><ele>41.0</ele><time>2026-04-12T09:21:56.013Z</time></trkpt><trkpt lat="44.1514355" lon="12.0829255"><ele>41.0</ele><time>2026-04-12T09:21:57.018Z</time></trkpt><trkpt lat="44.151368" lon="12.0831077"><ele>41.0</ele><time>2026-04-12T09:21:58.013Z</time></trkpt><trkpt lat="44.1513074" lon="12.0832845"><ele>41.0</ele><time>2026-04-12T09:21:59.014Z</time></trkpt><trkpt lat="44.1512511" lon="12.0834535"><ele>41.0</ele><time>2026-04-12T09:22:00.013Z</time></trkpt><trkpt lat="44.1511925" lon="12.0836222"><ele>41.0</ele><time>2026-04-12T09:22:01.013Z</time></trkpt><trkpt lat="44.1511313" lon="12.083775"><ele>41.0</ele><time>2026-04-12T09:22:02.015Z</time></trkpt><trkpt lat="44.151068" lon="12.0839071"><ele>41.0</ele><time>2026-04-12T09:22:03.014Z</time></trkpt><trkpt lat="44.1510064" lon="12.084012"><ele>41.0</ele><time>2026-04-12T09:22:04.013Z</time></trkpt><trkpt lat="44.1509566" lon="12.0840691"><ele>41.0</ele><time>2026-04-12T09:22:05.013Z</time></trkpt><trkpt lat="44.1508948" lon="12.0840994"><ele>41.14285714285714</ele><time>2026-04-12T09:22:07.013Z</time></trkpt><trkpt lat="44.1508183" lon="12.08412"><ele>41.285714285714285</ele><time>2026-04-12T09:22:13.013Z</time></trkpt><trkpt lat="44.1507417" lon="12.0841267"><ele>41.42857142857143</ele><time>2026-04-12T09:22:14.013Z</time></trkpt><trkpt lat="44.150675" lon="12.084145"><ele>41.57142857142857</ele><time>2026-04-12T09:22:15.013Z</time></trkpt><trkpt lat="44.1506133" lon="12.08419"><ele>41.714285714285715</ele><time>2026-04-12T09:22:16.015Z</time></trkpt><trkpt lat="44.15057" lon="12.0842617"><ele>41.857142857142854</ele><time>2026-04-12T09:22:17.012Z</time></trkpt><trkpt lat="44.1505467" lon="12.0843483"><ele>42.0</ele><time>2026-04-12T09:22:18.013Z</time></trkpt><trkpt lat="44.1505433" lon="12.0844883"><ele>42.0</ele><time>2026-04-12T09:22:20.013Z</time></trkpt><trkpt lat="44.150595" lon="12.084575"><ele>42.0</ele><time>2026-04-12T09:22:21.016Z</time></trkpt><trkpt lat="44.15065" lon="12.0846683"><ele>42.0</ele><time>2026-04-12T09:22:22.013Z</time></trkpt><trkpt lat="44.1507633" lon="12.08481"><ele>42.0</ele><time>2026-04-12T09:22:23.013Z</time></trkpt><trkpt lat="44.1508783" lon="12.0849783"><ele>42.0</ele><time>2026-04-12T09:22:24.014Z</time></trkpt><trkpt lat="44.1509967" lon="12.0851583"><ele>42.0</ele><time>2026-04-12T09:22:25.013Z</time></trkpt><trkpt lat="44.1511183" lon="12.0853483"><ele>42.0</ele><time>2026-04-12T09:22:26.013Z</time></trkpt><trkpt lat="44.15125" lon="12.0855633"><ele>41.0</ele><time>2026-04-12T09:22:27.014Z</time></trkpt><trkpt lat="44.15139" lon="12.0857967"><ele>40.0</ele><time>2026-04-12T09:22:28.013Z</time></trkpt><trkpt lat="44.1515383" lon="12.0860367"><ele>39.0</ele><time>2026-04-12T09:22:29.017Z</time></trkpt><trkpt lat="44.15169" lon="12.0862717"><ele>39.0</ele><time>2026-04-12T09:22:30.012Z</time></trkpt><trkpt lat="44.151845" lon="12.08651"><ele>39.0</ele><time>2026-04-12T09:22:31.014Z</time></trkpt><trkpt lat="44.1519933" lon="12.0867433"><ele>37.5</ele><time>2026-04-12T09:22:32.014Z</time></trkpt><trkpt lat="44.152145" lon="12.086975"><ele>36.0</ele><time>2026-04-12T09:22:33.014Z</time></trkpt><trkpt lat="44.1522967" lon="12.0872133"><ele>35.5</ele><time>2026-04-12T09:22:34.014Z</time></trkpt><trkpt lat="44.1524567" lon="12.087465"><ele>35.0</ele><time>2026-04-12T09:22:35.015Z</time></trkpt><trkpt lat="44.152625" lon="12.0877267"><ele>35.0</ele><time>2026-04-12T09:22:36.013Z</time></trkpt><trkpt lat="44.1527967" lon="12.0879933"><ele>35.0</ele><time>2026-04-12T09:22:37.013Z</time></trkpt><trkpt lat="44.1529667" lon="12.08827"><ele>35.0</ele><time>2026-04-12T09:22:38.014Z</time></trkpt><trkpt lat="44.1531367" lon="12.08855"><ele>35.0</ele><time>2026-04-12T09:22:39.013Z</time></trkpt><trkpt lat="44.1533117" lon="12.088825"><ele>33.5</ele><time>2026-04-12T09:22:40.013Z</time></trkpt><trkpt lat="44.1534883" lon="12.08911"><ele>32.0</ele><time>2026-04-12T09:22:41.014Z</time></trkpt><trkpt lat="44.1536633" lon="12.08939"><ele>32.0</ele><time>2026-04-12T09:22:42.014Z</time></trkpt><trkpt lat="44.1538383" lon="12.0896667"><ele>32.0</ele><time>2026-04-12T09:22:43.014Z</time></trkpt><trkpt lat="44.1540117" lon="12.08994"><ele>32.5</ele><time>2026-04-12T09:22:44.013Z</time></trkpt><trkpt lat="44.1541783" lon="12.0902033"><ele>33.0</ele><time>2026-04-12T09:22:45.013Z</time></trkpt><trkpt lat="44.15434" lon="12.0904617"><ele>33.0</ele><time>2026-04-12T09:22:46.013Z</time></trkpt><trkpt lat="44.1544954" lon="12.090713"><ele>33.0</ele><time>2026-04-12T09:22:47.015Z</time></trkpt><trkpt lat="44.1546416" lon="12.0909548"><ele>33.333333333333336</ele><time>2026-04-12T09:22:48.013Z</time></trkpt><trkpt lat="44.1547807" lon="12.0911807"><ele>33.66666666666667</ele><time>2026-04-12T09:22:49.013Z</time></trkpt><trkpt lat="44.1549169" lon="12.0913844"><ele>34.0</ele><time>2026-04-12T09:22:50.013Z</time></trkpt><trkpt lat="44.1550519" lon="12.0915722"><ele>34.0</ele><time>2026-04-12T09:22:51.014Z</time></trkpt><trkpt lat="44.1551834" lon="12.0917398"><ele>34.0</ele><time>2026-04-12T09:22:52.013Z</time></trkpt><trkpt lat="44.1553102" lon="12.091893"><ele>34.0</ele><time>2026-04-12T09:22:53.017Z</time></trkpt><trkpt lat="44.1554317" lon="12.0920325"><ele>34.0</ele><time>2026-04-12T09:22:54.013Z</time></trkpt><trkpt lat="44.15555" lon="12.0921575"><ele>34.0</ele><time>2026-04-12T09:22:55.014Z</time></trkpt><trkpt lat="44.1556606" lon="12.0922711"><ele>34.0</ele><time>2026-04-12T09:22:56.014Z</time></trkpt><trkpt lat="44.1557589" lon="12.0923721"><ele>34.0</ele><time>2026-04-12T09:22:57.014Z</time></trkpt><trkpt lat="44.1558305" lon="12.092456"><ele>34.0</ele><time>2026-04-12T09:22:58.013Z</time></trkpt><trkpt lat="44.1558495" lon="12.0926245"><ele>34.0</ele><time>2026-04-12T09:23:00.013Z</time></trkpt><trkpt lat="44.1558307" lon="12.0927252"><ele>34.0</ele><time>2026-04-12T09:23:01.012Z</time></trkpt><trkpt lat="44.1557961" lon="12.0928427"><ele>34.0</ele><time>2026-04-12T09:23:02.013Z</time></trkpt><trkpt lat="44.1557638" lon="12.0929582"><ele>34.0</ele><time>2026-04-12T09:23:03.013Z</time></trkpt><trkpt lat="44.1557281" lon="12.0930449"><ele>34.0</ele><time>2026-04-12T09:23:04.015Z</time></trkpt><trkpt lat="44.1556265" lon="12.093111"><ele>33.75</ele><time>2026-04-12T09:23:06.012Z</time></trkpt><trkpt lat="44.155557" lon="12.0931088"><ele>33.5</ele><time>2026-04-12T09:23:07.014Z</time></trkpt><trkpt lat="44.1554547" lon="12.0930765"><ele>33.25</ele><time>2026-04-12T09:23:08.013Z</time></trkpt><trkpt lat="44.1553385" lon="12.0930378"><ele>33.0</ele><time>2026-04-12T09:23:09.013Z</time></trkpt><trkpt lat="44.1551616" lon="12.093024"><ele>33.0</ele><time>2026-04-12T09:23:10.013Z</time></trkpt><trkpt lat="44.1550096" lon="12.093043"><ele>33.0</ele><time>2026-04-12T09:23:11.017Z</time></trkpt><trkpt lat="44.1548795" lon="12.0930983"><ele>33.0</ele><time>2026-04-12T09:23:12.013Z</time></trkpt><trkpt lat="44.1547756" lon="12.0931964"><ele>33.0</ele><time>2026-04-12T09:23:13.013Z</time></trkpt><trkpt lat="44.1546814" lon="12.0933268"><ele>32.75</ele><time>2026-04-12T09:23:14.013Z</time></trkpt><trkpt lat="44.1545997" lon="12.0934806"><ele>32.5</ele><time>2026-04-12T09:23:15.013Z</time></trkpt><trkpt lat="44.1545335" lon="12.093646"><ele>32.25</ele><time>2026-04-12T09:23:16.012Z</time></trkpt><trkpt lat="44.1544786" lon="12.0938017"><ele>32.0</ele><time>2026-04-12T09:23:17.012Z</time></trkpt><trkpt lat="44.1544221" lon="12.0939277"><ele>32.0</ele><time>2026-04-12T09:23:18.013Z</time></trkpt><trkpt lat="44.1543534" lon="12.094013"><ele>32.0</ele><time>2026-04-12T09:23:19.017Z</time></trkpt><trkpt lat="44.1542683" lon="12.0940533"><ele>32.0</ele><time>2026-04-12T09:23:20.013Z</time></trkpt><trkpt lat="44.1541733" lon="12.0940633"><ele>32.0</ele><time>2026-04-12T09:23:21.013Z</time></trkpt><trkpt lat="44.15404" lon="12.0940017"><ele>32.0</ele><time>2026-04-12T09:23:22.014Z</time></trkpt><trkpt lat="44.1539017" lon="12.0939433"><ele>32.25</ele><time>2026-04-12T09:23:23.013Z</time></trkpt><trkpt lat="44.1537583" lon="12.093885"><ele>32.5</ele><time>2026-04-12T09:23:24.015Z</time></trkpt><trkpt lat="44.1536167" lon="12.0938233"><ele>32.75</ele><time>2026-04-12T09:23:25.014Z</time></trkpt><trkpt lat="44.153475" lon="12.0937633"><ele>33.0</ele><time>2026-04-12T09:23:26.014Z</time></trkpt><trkpt lat="44.1533367" lon="12.0937033"><ele>33.5</ele><time>2026-04-12T09:23:27.013Z</time></trkpt><trkpt lat="44.1532017" lon="12.093645"><ele>34.0</ele><time>2026-04-12T09:23:28.014Z</time></trkpt><trkpt lat="44.153065" lon="12.093595"><ele>34.5</ele><time>2026-04-12T09:23:29.013Z</time></trkpt><trkpt lat="44.1529317" lon="12.0935517"><ele>35.0</ele><time>2026-04-12T09:23:30.012Z</time></trkpt><trkpt lat="44.15279" lon="12.0935"><ele>35.0</ele><time>2026-04-12T09:23:31.019Z</time></trkpt><trkpt lat="44.15264" lon="12.0934333"><ele>35.0</ele><time>2026-04-12T09:23:32.012Z</time></trkpt><trkpt lat="44.1524917" lon="12.0933583"><ele>35.0</ele><time>2026-04-12T09:23:33.013Z</time></trkpt><trkpt lat="44.1523517" lon="12.0932783"><ele>34.666666666666664</ele><time>2026-04-12T09:23:34.013Z</time></trkpt><trkpt lat="44.1522083" lon="12.09319"><ele>34.333333333333336</ele><time>2026-04-12T09:23:35.012Z</time></trkpt><trkpt lat="44.1520617" lon="12.0930767"><ele>34.0</ele><time>2026-04-12T09:23:36.012Z</time></trkpt><trkpt lat="44.1519183" lon="12.0929417"><ele>34.0</ele><time>2026-04-12T09:23:37.013Z</time></trkpt><trkpt lat="44.1517883" lon="12.0927917"><ele>34.0</ele><time>2026-04-12T09:23:38.013Z</time></trkpt><trkpt lat="44.15167" lon="12.0926517"><ele>34.0</ele><time>2026-04-12T09:23:39.013Z</time></trkpt><trkpt lat="44.151555" lon="12.0925383"><ele>34.25</ele><time>2026-04-12T09:23:40.013Z</time></trkpt><trkpt lat="44.1514333" lon="12.0924483"><ele>34.5</ele><time>2026-04-12T09:23:41.013Z</time></trkpt><trkpt lat="44.1513067" lon="12.0923917"><ele>34.75</ele><time>2026-04-12T09:23:42.013Z</time></trkpt><trkpt lat="44.1511633" lon="12.0923617"><ele>35.0</ele><time>2026-04-12T09:23:43.014Z</time></trkpt><trkpt lat="44.1510133" lon="12.092365"><ele>33.666666666666664</ele><time>2026-04-12T09:23:44.013Z</time></trkpt><trkpt lat="44.15086" lon="12.0923817"><ele>32.333333333333336</ele><time>2026-04-12T09:23:45.016Z</time></trkpt><trkpt lat="44.15071" lon="12.0923917"><ele>31.0</ele><time>2026-04-12T09:23:46.013Z</time></trkpt><trkpt lat="44.150555" lon="12.0924"><ele>31.0</ele><time>2026-04-12T09:23:47.013Z</time></trkpt><trkpt lat="44.1504016" lon="12.0924021"><ele>31.0</ele><time>2026-04-12T09:23:48.013Z</time></trkpt><trkpt lat="44.1502507" lon="12.0923872"><ele>31.0</ele><time>2026-04-12T09:23:49.013Z</time></trkpt><trkpt lat="44.150097" lon="12.0923617"><ele>31.0</ele><time>2026-04-12T09:23:50.014Z</time></trkpt><trkpt lat="44.1499423" lon="12.0923313"><ele>31.0</ele><time>2026-04-12T09:23:51.013Z</time></trkpt><trkpt lat="44.1497934" lon="12.0923107"><ele>31.0</ele><time>2026-04-12T09:23:52.012Z</time></trkpt><trkpt lat="44.149653" lon="12.0923146"><ele>31.0</ele><time>2026-04-12T09:23:53.012Z</time></trkpt><trkpt lat="44.1495155" lon="12.092342"><ele>31.25</ele><time>2026-04-12T09:23:54.014Z</time></trkpt><trkpt lat="44.1493771" lon="12.0923839"><ele>31.5</ele><time>2026-04-12T09:23:55.014Z</time></trkpt><trkpt lat="44.1492326" lon="12.0924278"><ele>31.75</ele><time>2026-04-12T09:23:56.013Z</time></trkpt><trkpt lat="44.1490852" lon="12.0924734"><ele>32.0</ele><time>2026-04-12T09:23:57.012Z</time></trkpt><trkpt lat="44.1489422" lon="12.0925196"><ele>32.75</ele><time>2026-04-12T09:23:58.013Z</time></trkpt><trkpt lat="44.1488065" lon="12.0925602"><ele>33.5</ele><time>2026-04-12T09:23:59.013Z</time></trkpt><trkpt lat="44.1486762" lon="12.0925919"><ele>34.25</ele><time>2026-04-12T09:24:00.013Z</time></trkpt><trkpt lat="44.1485583" lon="12.0926177"><ele>35.0</ele><time>2026-04-12T09:24:01.013Z</time></trkpt><trkpt lat="44.148455" lon="12.0926481"><ele>35.0</ele><time>2026-04-12T09:24:02.013Z</time></trkpt><trkpt lat="44.1483723" lon="12.0927082"><ele>35.0</ele><time>2026-04-12T09:24:03.015Z</time></trkpt><trkpt lat="44.1483085" lon="12.0928075"><ele>35.0</ele><time>2026-04-12T09:24:04.013Z</time></trkpt><trkpt lat="44.1482551" lon="12.0929447"><ele>35.0</ele><time>2026-04-12T09:24:05.013Z</time></trkpt><trkpt lat="44.1482032" lon="12.0931191"><ele>35.0</ele><time>2026-04-12T09:24:06.013Z</time></trkpt><trkpt lat="44.1481453" lon="12.093319"><ele>37.0</ele><time>2026-04-12T09:24:07.013Z</time></trkpt><trkpt lat="44.1480826" lon="12.0935335"><ele>39.0</ele><time>2026-04-12T09:24:08.012Z</time></trkpt><trkpt lat="44.1480149" lon="12.0937519"><ele>41.0</ele><time>2026-04-12T09:24:09.014Z</time></trkpt><trkpt lat="44.1479472" lon="12.0939659"><ele>42.0</ele><time>2026-04-12T09:24:10.012Z</time></trkpt><trkpt lat="44.1478801" lon="12.0941773"><ele>43.0</ele><time>2026-04-12T09:24:11.014Z</time></trkpt><trkpt lat="44.1478122" lon="12.0943866"><ele>44.0</ele><time>2026-04-12T09:24:12.014Z</time></trkpt><trkpt lat="44.1477452" lon="12.0945993"><ele>44.0</ele><time>2026-04-12T09:24:13.013Z</time></trkpt><trkpt lat="44.1476772" lon="12.0948167"><ele>44.0</ele><time>2026-04-12T09:24:14.017Z</time></trkpt><trkpt lat="44.1476102" lon="12.0950301"><ele>44.0</ele><time>2026-04-12T09:24:15.012Z</time></trkpt><trkpt lat="44.147539" lon="12.0952378"><ele>44.0</ele><time>2026-04-12T09:24:16.012Z</time></trkpt><trkpt lat="44.147467" lon="12.0954466"><ele>44.0</ele><time>2026-04-12T09:24:17.012Z</time></trkpt><trkpt lat="44.1473942" lon="12.0956555"><ele>44.0</ele><time>2026-04-12T09:24:18.013Z</time></trkpt><trkpt lat="44.1473245" lon="12.0958533"><ele>44.5</ele><time>2026-04-12T09:24:19.013Z</time></trkpt><trkpt lat="44.1472621" lon="12.096041"><ele>45.0</ele><time>2026-04-12T09:24:20.013Z</time></trkpt><trkpt lat="44.1472056" lon="12.0962101"><ele>45.5</ele><time>2026-04-12T09:24:21.013Z</time></trkpt><trkpt lat="44.1471538" lon="12.0963619"><ele>46.0</ele><time>2026-04-12T09:24:22.016Z</time></trkpt><trkpt lat="44.1471106" lon="12.0964967"><ele>46.16666666666667</ele><time>2026-04-12T09:24:23.013Z</time></trkpt><trkpt lat="44.1470818" lon="12.096612"><ele>46.333333333333336</ele><time>2026-04-12T09:24:24.013Z</time></trkpt><trkpt lat="44.1470704" lon="12.0967201"><ele>46.5</ele><time>2026-04-12T09:24:25.012Z</time></trkpt><trkpt lat="44.1470971" lon="12.0968075"><ele>46.666666666666664</ele><time>2026-04-12T09:24:26.013Z</time></trkpt><trkpt lat="44.1471374" lon="12.0968806"><ele>46.83333333333333</ele><time>2026-04-12T09:24:27.013Z</time></trkpt><trkpt lat="44.1472054" lon="12.0969413"><ele>47.0</ele><time>2026-04-12T09:24:28.015Z</time></trkpt><trkpt lat="44.1473106" lon="12.0969722"><ele>46.400000000000006</ele><time>2026-04-12T09:24:29.012Z</time></trkpt><trkpt lat="44.1474223" lon="12.0969964"><ele>45.800000000000004</ele><time>2026-04-12T09:24:30.012Z</time></trkpt><trkpt lat="44.1475256" lon="12.0970389"><ele>45.2</ele><time>2026-04-12T09:24:31.012Z</time></trkpt><trkpt lat="44.1476109" lon="12.0971126"><ele>44.6</ele><time>2026-04-12T09:24:32.012Z</time></trkpt><trkpt lat="44.1476744" lon="12.0972367"><ele>44.0</ele><time>2026-04-12T09:24:33.014Z</time></trkpt><trkpt lat="44.147721" lon="12.0974004"><ele>43.5</ele><time>2026-04-12T09:24:34.015Z</time></trkpt><trkpt lat="44.1477784" lon="12.097571"><ele>43.0</ele><time>2026-04-12T09:24:35.013Z</time></trkpt><trkpt lat="44.1478499" lon="12.097746"><ele>42.5</ele><time>2026-04-12T09:24:36.013Z</time></trkpt><trkpt lat="44.1479257" lon="12.09792"><ele>42.0</ele><time>2026-04-12T09:24:37.014Z</time></trkpt><trkpt lat="44.147989" lon="12.0981152"><ele>41.666666666666664</ele><time>2026-04-12T09:24:38.013Z</time></trkpt><trkpt lat="44.1480322" lon="12.09833"><ele>41.33333333333333</ele><time>2026-04-12T09:24:39.016Z</time></trkpt><trkpt lat="44.1480519" lon="12.09856"><ele>41.0</ele><time>2026-04-12T09:24:40.013Z</time></trkpt><trkpt lat="44.1480573" lon="12.0987883"><ele>41.0</ele><time>2026-04-12T09:24:41.014Z</time></trkpt><trkpt lat="44.1480601" lon="12.098999"><ele>41.0</ele><time>2026-04-12T09:24:42.012Z</time></trkpt><trkpt lat="44.1480627" lon="12.0991969"><ele>41.0</ele><time>2026-04-12T09:24:43.013Z</time></trkpt><trkpt lat="44.1480685" lon="12.0993844"><ele>41.0</ele><time>2026-04-12T09:24:44.012Z</time></trkpt><trkpt lat="44.1480747" lon="12.0995561"><ele>41.199999999999996</ele><time>2026-04-12T09:24:45.012Z</time></trkpt><trkpt lat="44.1480822" lon="12.0997065"><ele>41.4</ele><time>2026-04-12T09:24:46.012Z</time></trkpt><trkpt lat="44.148089" lon="12.0998395"><ele>41.6</ele><time>2026-04-12T09:24:47.012Z</time></trkpt><trkpt lat="44.1480971" lon="12.0999485"><ele>41.8</ele><time>2026-04-12T09:24:48.012Z</time></trkpt><trkpt lat="44.1480928" lon="12.1000976"><ele>42.0</ele><time>2026-04-12T09:24:50.014Z</time></trkpt><trkpt lat="44.1480178" lon="12.100161"><ele>42.400000000000006</ele><time>2026-04-12T09:24:52.017Z</time></trkpt><trkpt lat="44.1479413" lon="12.1001713"><ele>42.800000000000004</ele><time>2026-04-12T09:24:53.013Z</time></trkpt><trkpt lat="44.147825" lon="12.1001783"><ele>43.2</ele><time>2026-04-12T09:24:54.012Z</time></trkpt><trkpt lat="44.1477183" lon="12.10021"><ele>43.6</ele><time>2026-04-12T09:24:55.013Z</time></trkpt><trkpt lat="44.1475883" lon="12.100245"><ele>44.0</ele><time>2026-04-12T09:24:56.013Z</time></trkpt><trkpt lat="44.1474517" lon="12.1002883"><ele>44.33333333333333</ele><time>2026-04-12T09:24:57.014Z</time></trkpt><trkpt lat="44.1473067" lon="12.1003283"><ele>44.666666666666664</ele><time>2026-04-12T09:24:58.013Z</time></trkpt><trkpt lat="44.1471583" lon="12.1003717"><ele>45.0</ele><time>2026-04-12T09:24:59.013Z</time></trkpt><trkpt lat="44.1470083" lon="12.1004283"><ele>45.0</ele><time>2026-04-12T09:25:00.013Z</time></trkpt><trkpt lat="44.1468633" lon="12.1004867"><ele>45.0</ele><time>2026-04-12T09:25:01.012Z</time></trkpt><trkpt lat="44.1467183" lon="12.100545"><ele>45.0</ele><time>2026-04-12T09:25:02.013Z</time></trkpt><trkpt lat="44.1465633" lon="12.1006133"><ele>45.333333333333336</ele><time>2026-04-12T09:25:03.013Z</time></trkpt><trkpt lat="44.1464083" lon="12.100675"><ele>45.66666666666667</ele><time>2026-04-12T09:25:04.013Z</time></trkpt><trkpt lat="44.14625" lon="12.1007417"><ele>46.0</ele><time>2026-04-12T09:25:05.018Z</time></trkpt><trkpt lat="44.1460883" lon="12.1008117"><ele>46.0</ele><time>2026-04-12T09:25:06.013Z</time></trkpt><trkpt lat="44.14593" lon="12.10088"><ele>46.0</ele><time>2026-04-12T09:25:07.012Z</time></trkpt><trkpt lat="44.1457917" lon="12.1009383"><ele>46.0</ele><time>2026-04-12T09:25:08.012Z</time></trkpt><trkpt lat="44.1456633" lon="12.1009933"><ele>46.0</ele><time>2026-04-12T09:25:09.014Z</time></trkpt><trkpt lat="44.1455433" lon="12.101045"><ele>46.0</ele><time>2026-04-12T09:25:10.013Z</time></trkpt><trkpt lat="44.145445" lon="12.101085"><ele>46.0</ele><time>2026-04-12T09:25:11.015Z</time></trkpt><trkpt lat="44.1453483" lon="12.10113"><ele>46.0</ele><time>2026-04-12T09:25:12.013Z</time></trkpt><trkpt lat="44.1452567" lon="12.1011717"><ele>46.0</ele><time>2026-04-12T09:25:13.011Z</time></trkpt><trkpt lat="44.1451617" lon="12.1012133"><ele>46.0</ele><time>2026-04-12T09:25:14.013Z</time></trkpt><trkpt lat="44.145065" lon="12.1012583"><ele>46.0</ele><time>2026-04-12T09:25:15.013Z</time></trkpt><trkpt lat="44.1449583" lon="12.1013"><ele>46.0</ele><time>2026-04-12T09:25:16.011Z</time></trkpt><trkpt lat="44.1448367" lon="12.101355"><ele>46.0</ele><time>2026-04-12T09:25:17.012Z</time></trkpt><trkpt lat="44.1447" lon="12.1014217"><ele>46.0</ele><time>2026-04-12T09:25:18.012Z</time></trkpt><trkpt lat="44.14456" lon="12.10149"><ele>46.66666666666667</ele><time>2026-04-12T09:25:19.013Z</time></trkpt><trkpt lat="44.1444133" lon="12.10157"><ele>47.333333333333336</ele><time>2026-04-12T09:25:20.012Z</time></trkpt><trkpt lat="44.144265" lon="12.1016383"><ele>48.0</ele><time>2026-04-12T09:25:21.014Z</time></trkpt><trkpt lat="44.1441067" lon="12.1016833"><ele>49.33333333333333</ele><time>2026-04-12T09:25:22.012Z</time></trkpt><trkpt lat="44.1439467" lon="12.1016917"><ele>50.666666666666664</ele><time>2026-04-12T09:25:23.012Z</time></trkpt><trkpt lat="44.1437883" lon="12.101665"><ele>52.0</ele><time>2026-04-12T09:25:24.015Z</time></trkpt><trkpt lat="44.143635" lon="12.1016117"><ele>51.33333333333333</ele><time>2026-04-12T09:25:25.011Z</time></trkpt><trkpt lat="44.1434867" lon="12.101535"><ele>50.66666666666667</ele><time>2026-04-12T09:25:26.013Z</time></trkpt><trkpt lat="44.1433483" lon="12.1014617"><ele>50.0</ele><time>2026-04-12T09:25:27.014Z</time></trkpt><trkpt lat="44.14321" lon="12.1013933"><ele>50.0</ele><time>2026-04-12T09:25:28.012Z</time></trkpt><trkpt lat="44.1430683" lon="12.10132"><ele>50.0</ele><time>2026-04-12T09:25:29.013Z</time></trkpt><trkpt lat="44.1429167" lon="12.1012533"><ele>50.0</ele><time>2026-04-12T09:25:30.013Z</time></trkpt><trkpt lat="44.1427633" lon="12.1011883"><ele>50.0</ele><time>2026-04-12T09:25:31.015Z</time></trkpt><trkpt lat="44.142615" lon="12.1011133"><ele>50.0</ele><time>2026-04-12T09:25:32.013Z</time></trkpt><trkpt lat="44.1424667" lon="12.10104"><ele>50.0</ele><time>2026-04-12T09:25:33.017Z</time></trkpt><trkpt lat="44.142325" lon="12.1009717"><ele>51.333333333333336</ele><time>2026-04-12T09:25:34.012Z</time></trkpt><trkpt lat="44.142185" lon="12.1008983"><ele>52.66666666666667</ele><time>2026-04-12T09:25:35.01Z</time></trkpt><trkpt lat="44.1420433" lon="12.1008233"><ele>54.0</ele><time>2026-04-12T09:25:36.012Z</time></trkpt><trkpt lat="44.1418983" lon="12.10076"><ele>54.0</ele><time>2026-04-12T09:25:37.013Z</time></trkpt><trkpt lat="44.14175" lon="12.1006917"><ele>54.0</ele><time>2026-04-12T09:25:38.013Z</time></trkpt><trkpt lat="44.1415983" lon="12.10063"><ele>54.0</ele><time>2026-04-12T09:25:39.013Z</time></trkpt><trkpt lat="44.1414417" lon="12.10057"><ele>54.0</ele><time>2026-04-12T09:25:40.011Z</time></trkpt><trkpt lat="44.14128" lon="12.1005167"><ele>54.0</ele><time>2026-04-12T09:25:41.011Z</time></trkpt><trkpt lat="44.1411183" lon="12.1004667"><ele>54.0</ele><time>2026-04-12T09:25:42.01Z</time></trkpt><trkpt lat="44.1409667" lon="12.100425"><ele>54.0</ele><time>2026-04-12T09:25:43.014Z</time></trkpt><trkpt lat="44.140825" lon="12.1003833"><ele>54.0</ele><time>2026-04-12T09:25:44.013Z</time></trkpt><trkpt lat="44.1406933" lon="12.10035"><ele>54.0</ele><time>2026-04-12T09:25:45.012Z</time></trkpt><trkpt lat="44.1405617" lon="12.1003183"><ele>54.0</ele><time>2026-04-12T09:25:46.013Z</time></trkpt><trkpt lat="44.1404283" lon="12.1002867"><ele>54.25</ele><time>2026-04-12T09:25:47.01Z</time></trkpt><trkpt lat="44.1402967" lon="12.100255"><ele>54.5</ele><time>2026-04-12T09:25:48.013Z</time></trkpt><trkpt lat="44.1401717" lon="12.1002383"><ele>54.75</ele><time>2026-04-12T09:25:49.012Z</time></trkpt><trkpt lat="44.140045" lon="12.100245"><ele>55.0</ele><time>2026-04-12T09:25:50.015Z</time></trkpt><trkpt lat="44.139915" lon="12.1002767"><ele>55.0</ele><time>2026-04-12T09:25:51.012Z</time></trkpt><trkpt lat="44.13978" lon="12.1003383"><ele>55.0</ele><time>2026-04-12T09:25:52.02Z</time></trkpt><trkpt lat="44.139645" lon="12.10042"><ele>55.0</ele><time>2026-04-12T09:25:53.012Z</time></trkpt><trkpt lat="44.1395133" lon="12.1005167"><ele>55.0</ele><time>2026-04-12T09:25:54.012Z</time></trkpt><trkpt lat="44.1393817" lon="12.10063"><ele>54.5</ele><time>2026-04-12T09:25:55.013Z</time></trkpt><trkpt lat="44.1392617" lon="12.1007567"><ele>54.0</ele><time>2026-04-12T09:25:56.011Z</time></trkpt><trkpt lat="44.1391467" lon="12.100885"><ele>53.5</ele><time>2026-04-12T09:25:57.01Z</time></trkpt><trkpt lat="44.13905" lon="12.101015"><ele>53.0</ele><time>2026-04-12T09:25:58.01Z</time></trkpt><trkpt lat="44.13896" lon="12.1011617"><ele>53.0</ele><time>2026-04-12T09:25:59.011Z</time></trkpt><trkpt lat="44.1388833" lon="12.1013283"><ele>53.0</ele><time>2026-04-12T09:26:00.012Z</time></trkpt><trkpt lat="44.1388183" lon="12.10152"><ele>53.0</ele><time>2026-04-12T09:26:01.013Z</time></trkpt><trkpt lat="44.1387533" lon="12.1017283"><ele>53.0</ele><time>2026-04-12T09:26:02.01Z</time></trkpt><trkpt lat="44.1386842" lon="12.101957"><ele>53.0</ele><time>2026-04-12T09:26:03.011Z</time></trkpt><trkpt lat="44.1386101" lon="12.102194"><ele>53.0</ele><time>2026-04-12T09:26:04.012Z</time></trkpt><trkpt lat="44.1385303" lon="12.1024248"><ele>54.0</ele><time>2026-04-12T09:26:05.011Z</time></trkpt><trkpt lat="44.138451" lon="12.10265"><ele>55.0</ele><time>2026-04-12T09:26:06.011Z</time></trkpt><trkpt lat="44.1383712" lon="12.1028706"><ele>56.0</ele><time>2026-04-12T09:26:07.014Z</time></trkpt><trkpt lat="44.1382925" lon="12.1030933"><ele>55.333333333333336</ele><time>2026-04-12T09:26:08.01Z</time></trkpt><trkpt lat="44.138211" lon="12.103314"><ele>54.66666666666667</ele><time>2026-04-12T09:26:09.013Z</time></trkpt><trkpt lat="44.1381347" lon="12.1035245"><ele>54.0</ele><time>2026-04-12T09:26:10.012Z</time></trkpt><trkpt lat="44.1380628" lon="12.1037287"><ele>54.0</ele><time>2026-04-12T09:26:11.011Z</time></trkpt><trkpt lat="44.1379906" lon="12.1039312"><ele>54.0</ele><time>2026-04-12T09:26:12.013Z</time></trkpt><trkpt lat="44.1379186" lon="12.1041308"><ele>54.0</ele><time>2026-04-12T09:26:13.012Z</time></trkpt><trkpt lat="44.1378514" lon="12.1043313"><ele>54.5</ele><time>2026-04-12T09:26:14.013Z</time></trkpt><trkpt lat="44.1377879" lon="12.1045222"><ele>55.0</ele><time>2026-04-12T09:26:15.013Z</time></trkpt><trkpt lat="44.1377264" lon="12.1047018"><ele>55.5</ele><time>2026-04-12T09:26:16.016Z</time></trkpt><trkpt lat="44.1376655" lon="12.1048676"><ele>56.0</ele><time>2026-04-12T09:26:17.013Z</time></trkpt><trkpt lat="44.1375991" lon="12.1050248"><ele>56.0</ele><time>2026-04-12T09:26:18.013Z</time></trkpt><trkpt lat="44.1375164" lon="12.1051752"><ele>56.0</ele><time>2026-04-12T09:26:19.012Z</time></trkpt><trkpt lat="44.1374115" lon="12.1053146"><ele>56.0</ele><time>2026-04-12T09:26:20.013Z</time></trkpt><trkpt lat="44.1372848" lon="12.1054456"><ele>56.0</ele><time>2026-04-12T09:26:21.013Z</time></trkpt><trkpt lat="44.137147" lon="12.1055675"><ele>56.0</ele><time>2026-04-12T09:26:22.012Z</time></trkpt><trkpt lat="44.1370085" lon="12.1056793"><ele>56.0</ele><time>2026-04-12T09:26:23.013Z</time></trkpt><trkpt lat="44.1368676" lon="12.1057754"><ele>56.0</ele><time>2026-04-12T09:26:24.012Z</time></trkpt><trkpt lat="44.1367212" lon="12.1058374"><ele>56.0</ele><time>2026-04-12T09:26:25.013Z</time></trkpt><trkpt lat="44.1365708" lon="12.1058428"><ele>56.0</ele><time>2026-04-12T09:26:26.013Z</time></trkpt><trkpt lat="44.1364248" lon="12.1058032"><ele>56.0</ele><time>2026-04-12T09:26:27.015Z</time></trkpt><trkpt lat="44.1362881" lon="12.1057337"><ele>56.0</ele><time>2026-04-12T09:26:28.013Z</time></trkpt><trkpt lat="44.1361498" lon="12.1056668"><ele>55.5</ele><time>2026-04-12T09:26:29.013Z</time></trkpt><trkpt lat="44.1360141" lon="12.105611"><ele>55.0</ele><time>2026-04-12T09:26:30.013Z</time></trkpt><trkpt lat="44.1358832" lon="12.1055856"><ele>54.5</ele><time>2026-04-12T09:26:31.012Z</time></trkpt><trkpt lat="44.1357562" lon="12.1055941"><ele>54.0</ele><time>2026-04-12T09:26:32.014Z</time></trkpt><trkpt lat="44.1356288" lon="12.1056359"><ele>54.0</ele><time>2026-04-12T09:26:33.011Z</time></trkpt><trkpt lat="44.1354929" lon="12.1057045"><ele>54.0</ele><time>2026-04-12T09:26:34.015Z</time></trkpt><trkpt lat="44.1353483" lon="12.1057825"><ele>54.0</ele><time>2026-04-12T09:26:35.012Z</time></trkpt><trkpt lat="44.1351985" lon="12.105859"><ele>55.33333333333333</ele><time>2026-04-12T09:26:36.012Z</time></trkpt><trkpt lat="44.1350465" lon="12.1059199"><ele>56.666666666666664</ele><time>2026-04-12T09:26:37.012Z</time></trkpt><trkpt lat="44.1348941" lon="12.10596"><ele>58.0</ele><time>2026-04-12T09:26:38.012Z</time></trkpt><trkpt lat="44.1347405" lon="12.1059759"><ele>58.0</ele><time>2026-04-12T09:26:39.012Z</time></trkpt><trkpt lat="44.1345856" lon="12.1059746"><ele>58.0</ele><time>2026-04-12T09:26:40.011Z</time></trkpt><trkpt lat="44.1344354" lon="12.1059699"><ele>58.0</ele><time>2026-04-12T09:26:41.011Z</time></trkpt><trkpt lat="44.1342845" lon="12.105983"><ele>58.0</ele><time>2026-04-12T09:26:42.011Z</time></trkpt><trkpt lat="44.1341349" lon="12.1060152"><ele>58.0</ele><time>2026-04-12T09:26:43.012Z</time></trkpt><trkpt lat="44.133987" lon="12.1060743"><ele>58.0</ele><time>2026-04-12T09:26:44.011Z</time></trkpt><trkpt lat="44.1338416" lon="12.1061486"><ele>57.666666666666664</ele><time>2026-04-12T09:26:45.015Z</time></trkpt><trkpt lat="44.1336947" lon="12.1062294"><ele>57.33333333333333</ele><time>2026-04-12T09:26:46.012Z</time></trkpt><trkpt lat="44.1335504" lon="12.1063154"><ele>57.0</ele><time>2026-04-12T09:26:47.012Z</time></trkpt><trkpt lat="44.133408" lon="12.1064016"><ele>57.0</ele><time>2026-04-12T09:26:48.013Z</time></trkpt><trkpt lat="44.1332675" lon="12.1064814"><ele>57.0</ele><time>2026-04-12T09:26:49.013Z</time></trkpt><trkpt lat="44.1331306" lon="12.1065371"><ele>57.0</ele><time>2026-04-12T09:26:50.014Z</time></trkpt><trkpt lat="44.1329935" lon="12.106583"><ele>57.0</ele><time>2026-04-12T09:26:51.014Z</time></trkpt><trkpt lat="44.1328618" lon="12.106624"><ele>56.75</ele><time>2026-04-12T09:26:52.013Z</time></trkpt><trkpt lat="44.1327442" lon="12.1066456"><ele>56.5</ele><time>2026-04-12T09:26:53.013Z</time></trkpt><trkpt lat="44.1326349" lon="12.1066232"><ele>56.25</ele><time>2026-04-12T09:26:54.015Z</time></trkpt><trkpt lat="44.1325292" lon="12.1065641"><ele>56.0</ele><time>2026-04-12T09:26:55.012Z</time></trkpt><trkpt lat="44.1324216" lon="12.1065026"><ele>55.25</ele><time>2026-04-12T09:26:56.013Z</time></trkpt><trkpt lat="44.1323017" lon="12.1064592"><ele>54.5</ele><time>2026-04-12T09:26:57.014Z</time></trkpt><trkpt lat="44.1321674" lon="12.1064412"><ele>53.75</ele><time>2026-04-12T09:26:58.013Z</time></trkpt><trkpt lat="44.1320267" lon="12.1064472"><ele>53.0</ele><time>2026-04-12T09:26:59.012Z</time></trkpt><trkpt lat="44.1318786" lon="12.1064687"><ele>53.0</ele><time>2026-04-12T09:27:00.012Z</time></trkpt><trkpt lat="44.1317254" lon="12.1065071"><ele>53.0</ele><time>2026-04-12T09:27:01.016Z</time></trkpt><trkpt lat="44.1315764" lon="12.10657"><ele>53.0</ele><time>2026-04-12T09:27:02.013Z</time></trkpt><trkpt lat="44.1314303" lon="12.1066448"><ele>54.0</ele><time>2026-04-12T09:27:03.014Z</time></trkpt><trkpt lat="44.1312863" lon="12.1067246"><ele>55.0</ele><time>2026-04-12T09:27:04.013Z</time></trkpt><trkpt lat="44.1311428" lon="12.106808"><ele>56.0</ele><time>2026-04-12T09:27:05.013Z</time></trkpt><trkpt lat="44.1309954" lon="12.1068643"><ele>56.0</ele><time>2026-04-12T09:27:06.016Z</time></trkpt><trkpt lat="44.130842" lon="12.1068742"><ele>56.0</ele><time>2026-04-12T09:27:07.014Z</time></trkpt><trkpt lat="44.130688" lon="12.1068393"><ele>56.0</ele><time>2026-04-12T09:27:08.013Z</time></trkpt><trkpt lat="44.1305327" lon="12.1067815"><ele>55.333333333333336</ele><time>2026-04-12T09:27:09.013Z</time></trkpt><trkpt lat="44.1303728" lon="12.1067351"><ele>54.66666666666667</ele><time>2026-04-12T09:27:10.013Z</time></trkpt><trkpt lat="44.1302084" lon="12.1067123"><ele>54.0</ele><time>2026-04-12T09:27:11.012Z</time></trkpt><trkpt lat="44.130044" lon="12.106717"><ele>54.66666666666667</ele><time>2026-04-12T09:27:12.013Z</time></trkpt><trkpt lat="44.129884" lon="12.1067424"><ele>55.333333333333336</ele><time>2026-04-12T09:27:13.012Z</time></trkpt><trkpt lat="44.1297229" lon="12.1067914"><ele>56.0</ele><time>2026-04-12T09:27:14.013Z</time></trkpt><trkpt lat="44.1295639" lon="12.1068594"><ele>56.0</ele><time>2026-04-12T09:27:15.014Z</time></trkpt><trkpt lat="44.1294085" lon="12.1069505"><ele>56.0</ele><time>2026-04-12T09:27:16.013Z</time></trkpt><trkpt lat="44.1292595" lon="12.1070618"><ele>56.0</ele><time>2026-04-12T09:27:17.011Z</time></trkpt><trkpt lat="44.1291154" lon="12.1071787"><ele>56.333333333333336</ele><time>2026-04-12T09:27:18.013Z</time></trkpt><trkpt lat="44.1289737" lon="12.1072973"><ele>56.66666666666667</ele><time>2026-04-12T09:27:19.013Z</time></trkpt><trkpt lat="44.1288334" lon="12.1074164"><ele>57.0</ele><time>2026-04-12T09:27:20.013Z</time></trkpt><trkpt lat="44.1286925" lon="12.1075385"><ele>58.33333333333333</ele><time>2026-04-12T09:27:21.013Z</time></trkpt><trkpt lat="44.1285521" lon="12.1076577"><ele>59.666666666666664</ele><time>2026-04-12T09:27:22.012Z</time></trkpt><trkpt lat="44.1284091" lon="12.1077679"><ele>61.0</ele><time>2026-04-12T09:27:23.013Z</time></trkpt><trkpt lat="44.1282676" lon="12.107868"><ele>60.666666666666664</ele><time>2026-04-12T09:27:24.014Z</time></trkpt><trkpt lat="44.1281286" lon="12.107965"><ele>60.33333333333333</ele><time>2026-04-12T09:27:25.014Z</time></trkpt><trkpt lat="44.1279899" lon="12.1080535"><ele>60.0</ele><time>2026-04-12T09:27:26.012Z</time></trkpt><trkpt lat="44.1278502" lon="12.1081371"><ele>60.0</ele><time>2026-04-12T09:27:27.012Z</time></trkpt><trkpt lat="44.1277053" lon="12.1082151"><ele>60.0</ele><time>2026-04-12T09:27:28.013Z</time></trkpt><trkpt lat="44.1275557" lon="12.1082944"><ele>60.0</ele><time>2026-04-12T09:27:29.012Z</time></trkpt><trkpt lat="44.1273988" lon="12.1083786"><ele>60.0</ele><time>2026-04-12T09:27:30.013Z</time></trkpt><trkpt lat="44.1272316" lon="12.1084716"><ele>60.0</ele><time>2026-04-12T09:27:31.012Z</time></trkpt><trkpt lat="44.1270578" lon="12.1085702"><ele>60.0</ele><time>2026-04-12T09:27:32.011Z</time></trkpt><trkpt lat="44.1268901" lon="12.1086651"><ele>60.0</ele><time>2026-04-12T09:27:33.013Z</time></trkpt><trkpt lat="44.1267287" lon="12.1087507"><ele>60.0</ele><time>2026-04-12T09:27:34.016Z</time></trkpt><trkpt lat="44.1265731" lon="12.1088291"><ele>60.0</ele><time>2026-04-12T09:27:35.013Z</time></trkpt><trkpt lat="44.1264229" lon="12.1089149"><ele>60.0</ele><time>2026-04-12T09:27:36.014Z</time></trkpt><trkpt lat="44.1262857" lon="12.1090155"><ele>60.0</ele><time>2026-04-12T09:27:37.012Z</time></trkpt><trkpt lat="44.1261618" lon="12.1091371"><ele>60.0</ele><time>2026-04-12T09:27:38.013Z</time></trkpt><trkpt lat="44.1260462" lon="12.1092814"><ele>60.0</ele><time>2026-04-12T09:27:39.012Z</time></trkpt><trkpt lat="44.1259401" lon="12.1094419"><ele>60.0</ele><time>2026-04-12T09:27:40.013Z</time></trkpt><trkpt lat="44.1258459" lon="12.1096041"><ele>60.0</ele><time>2026-04-12T09:27:41.013Z</time></trkpt><trkpt lat="44.1257647" lon="12.1097531"><ele>60.0</ele><time>2026-04-12T09:27:42.012Z</time></trkpt><trkpt lat="44.1256939" lon="12.1098864"><ele>60.2</ele><time>2026-04-12T09:27:43.012Z</time></trkpt><trkpt lat="44.1256245" lon="12.1100007"><ele>60.4</ele><time>2026-04-12T09:27:44.013Z</time></trkpt><trkpt lat="44.1255509" lon="12.1100809"><ele>60.599999999999994</ele><time>2026-04-12T09:27:45.013Z</time></trkpt><trkpt lat="44.1254666" lon="12.1101306"><ele>60.8</ele><time>2026-04-12T09:27:46.013Z</time></trkpt><trkpt lat="44.1253698" lon="12.1101372"><ele>61.0</ele><time>2026-04-12T09:27:47.016Z</time></trkpt><trkpt lat="44.125253" lon="12.1100972"><ele>61.0</ele><time>2026-04-12T09:27:48.013Z</time></trkpt><trkpt lat="44.1251233" lon="12.1100165"><ele>61.0</ele><time>2026-04-12T09:27:49.012Z</time></trkpt><trkpt lat="44.1249876" lon="12.1099011"><ele>61.0</ele><time>2026-04-12T09:27:50.012Z</time></trkpt><trkpt lat="44.1248519" lon="12.1097632"><ele>61.666666666666664</ele><time>2026-04-12T09:27:51.012Z</time></trkpt><trkpt lat="44.124719" lon="12.1096167"><ele>62.33333333333333</ele><time>2026-04-12T09:27:52.013Z</time></trkpt><trkpt lat="44.1245963" lon="12.1094885"><ele>63.0</ele><time>2026-04-12T09:27:53.012Z</time></trkpt><trkpt lat="44.1244826" lon="12.1093944"><ele>63.0</ele><time>2026-04-12T09:27:54.013Z</time></trkpt><trkpt lat="44.1243763" lon="12.109341"><ele>63.0</ele><time>2026-04-12T09:27:55.013Z</time></trkpt><trkpt lat="44.1242682" lon="12.1093233"><ele>63.0</ele><time>2026-04-12T09:27:56.013Z</time></trkpt><trkpt lat="44.1241563" lon="12.1093193"><ele>63.0</ele><time>2026-04-12T09:27:57.012Z</time></trkpt><trkpt lat="44.1240321" lon="12.1092945"><ele>64.0</ele><time>2026-04-12T09:27:58.015Z</time></trkpt><trkpt lat="44.1238972" lon="12.1092457"><ele>65.0</ele><time>2026-04-12T09:27:59.013Z</time></trkpt><trkpt lat="44.1237554" lon="12.109182"><ele>66.0</ele><time>2026-04-12T09:28:00.013Z</time></trkpt><trkpt lat="44.1236082" lon="12.109123"><ele>67.0</ele><time>2026-04-12T09:28:01.013Z</time></trkpt><trkpt lat="44.1234619" lon="12.1090647"><ele>65.0</ele><time>2026-04-12T09:28:02.012Z</time></trkpt><trkpt lat="44.1233177" lon="12.1090215"><ele>63.0</ele><time>2026-04-12T09:28:03.013Z</time></trkpt><trkpt lat="44.1231781" lon="12.1090024"><ele>61.0</ele><time>2026-04-12T09:28:04.013Z</time></trkpt><trkpt lat="44.1230353" lon="12.109006"><ele>59.0</ele><time>2026-04-12T09:28:05.014Z</time></trkpt><trkpt lat="44.1228906" lon="12.1090374"><ele>58.75</ele><time>2026-04-12T09:28:06.013Z</time></trkpt><trkpt lat="44.122744" lon="12.1090746"><ele>58.5</ele><time>2026-04-12T09:28:07.013Z</time></trkpt><trkpt lat="44.1225959" lon="12.1090835"><ele>58.25</ele><time>2026-04-12T09:28:08.013Z</time></trkpt><trkpt lat="44.1224488" lon="12.1090468"><ele>58.0</ele><time>2026-04-12T09:28:09.012Z</time></trkpt><trkpt lat="44.1223074" lon="12.1089678"><ele>59.33333333333333</ele><time>2026-04-12T09:28:10.012Z</time></trkpt><trkpt lat="44.1221744" lon="12.1088536"><ele>60.66666666666667</ele><time>2026-04-12T09:28:11.013Z</time></trkpt><trkpt lat="44.1220516" lon="12.1087181"><ele>62.0</ele><time>2026-04-12T09:28:12.014Z</time></trkpt><trkpt lat="44.1219374" lon="12.1085845"><ele>62.0</ele><time>2026-04-12T09:28:13.013Z</time></trkpt><trkpt lat="44.121826" lon="12.1084702"><ele>62.0</ele><time>2026-04-12T09:28:14.013Z</time></trkpt><trkpt lat="44.1217162" lon="12.1083866"><ele>62.0</ele><time>2026-04-12T09:28:15.012Z</time></trkpt><trkpt lat="44.1215962" lon="12.108343"><ele>62.0</ele><time>2026-04-12T09:28:16.013Z</time></trkpt><trkpt lat="44.121469" lon="12.1083406"><ele>61.5</ele><time>2026-04-12T09:28:17.012Z</time></trkpt><trkpt lat="44.1213341" lon="12.1083933"><ele>61.0</ele><time>2026-04-12T09:28:18.013Z</time></trkpt><trkpt lat="44.1211975" lon="12.1084762"><ele>60.5</ele><time>2026-04-12T09:28:19.012Z</time></trkpt><trkpt lat="44.1210601" lon="12.1085744"><ele>60.0</ele><time>2026-04-12T09:28:20.013Z</time></trkpt><trkpt lat="44.1209211" lon="12.1086777"><ele>60.0</ele><time>2026-04-12T09:28:21.013Z</time></trkpt><trkpt lat="44.1207756" lon="12.108785"><ele>60.0</ele><time>2026-04-12T09:28:22.012Z</time></trkpt><trkpt lat="44.1206239" lon="12.1088957"><ele>60.0</ele><time>2026-04-12T09:28:23.01Z</time></trkpt><trkpt lat="44.1204709" lon="12.1090044"><ele>60.66666666666667</ele><time>2026-04-12T09:28:24.013Z</time></trkpt><trkpt lat="44.1203231" lon="12.1091027"><ele>61.333333333333336</ele><time>2026-04-12T09:28:25.013Z</time></trkpt><trkpt lat="44.1201793" lon="12.109191"><ele>62.0</ele><time>2026-04-12T09:28:26.013Z</time></trkpt><trkpt lat="44.1200344" lon="12.1092652"><ele>61.66666666666667</ele><time>2026-04-12T09:28:27.014Z</time></trkpt><trkpt lat="44.1198804" lon="12.1093112"><ele>61.33333333333333</ele><time>2026-04-12T09:28:28.014Z</time></trkpt><trkpt lat="44.119718" lon="12.109319"><ele>61.0</ele><time>2026-04-12T09:28:29.01Z</time></trkpt><trkpt lat="44.1195435" lon="12.1092917"><ele>61.0</ele><time>2026-04-12T09:28:30.012Z</time></trkpt><trkpt lat="44.1193627" lon="12.1092506"><ele>61.0</ele><time>2026-04-12T09:28:31.014Z</time></trkpt><trkpt lat="44.1191737" lon="12.1092013"><ele>61.0</ele><time>2026-04-12T09:28:32.011Z</time></trkpt><trkpt lat="44.1189825" lon="12.1091493"><ele>61.0</ele><time>2026-04-12T09:28:33.013Z</time></trkpt><trkpt lat="44.1187911" lon="12.1090997"><ele>61.0</ele><time>2026-04-12T09:28:34.01Z</time></trkpt><trkpt lat="44.1185951" lon="12.1090493"><ele>61.0</ele><time>2026-04-12T09:28:35.012Z</time></trkpt><trkpt lat="44.1183984" lon="12.1090036"><ele>62.0</ele><time>2026-04-12T09:28:36.01Z</time></trkpt><trkpt lat="44.1182094" lon="12.108953"><ele>63.0</ele><time>2026-04-12T09:28:37.013Z</time></trkpt><trkpt lat="44.1180356" lon="12.108909"><ele>64.0</ele><time>2026-04-12T09:28:38.013Z</time></trkpt><trkpt lat="44.1178818" lon="12.1088575"><ele>64.0</ele><time>2026-04-12T09:28:39.015Z</time></trkpt><trkpt lat="44.1177422" lon="12.1088082"><ele>64.0</ele><time>2026-04-12T09:28:40.013Z</time></trkpt><trkpt lat="44.1176103" lon="12.1087532"><ele>64.0</ele><time>2026-04-12T09:28:41.012Z</time></trkpt><trkpt lat="44.1174796" lon="12.1086752"><ele>64.0</ele><time>2026-04-12T09:28:42.011Z</time></trkpt><trkpt lat="44.1173469" lon="12.1085585"><ele>64.66666666666666</ele><time>2026-04-12T09:28:43.013Z</time></trkpt><trkpt lat="44.1172164" lon="12.1084101"><ele>65.33333333333333</ele><time>2026-04-12T09:28:44.011Z</time></trkpt><trkpt lat="44.1170911" lon="12.1082585"><ele>66.0</ele><time>2026-04-12T09:28:45.015Z</time></trkpt><trkpt lat="44.11697" lon="12.108115"><ele>66.33333333333333</ele><time>2026-04-12T09:28:46.012Z</time></trkpt><trkpt lat="44.1168424" lon="12.1079885"><ele>66.66666666666666</ele><time>2026-04-12T09:28:47.011Z</time></trkpt><trkpt lat="44.1167039" lon="12.1078958"><ele>67.0</ele><time>2026-04-12T09:28:48.011Z</time></trkpt><trkpt lat="44.1165478" lon="12.1078475"><ele>67.0</ele><time>2026-04-12T09:28:49.012Z</time></trkpt><trkpt lat="44.1163817" lon="12.1078382"><ele>67.0</ele><time>2026-04-12T09:28:50.014Z</time></trkpt><trkpt lat="44.116209" lon="12.1078587"><ele>67.0</ele><time>2026-04-12T09:28:51.011Z</time></trkpt><trkpt lat="44.1160335" lon="12.1079007"><ele>67.0</ele><time>2026-04-12T09:28:52.012Z</time></trkpt><trkpt lat="44.1158625" lon="12.1079471"><ele>67.0</ele><time>2026-04-12T09:28:53.01Z</time></trkpt><trkpt lat="44.1157005" lon="12.1079829"><ele>67.0</ele><time>2026-04-12T09:28:54.012Z</time></trkpt><trkpt lat="44.1155517" lon="12.108009"><ele>67.5</ele><time>2026-04-12T09:28:55.012Z</time></trkpt><trkpt lat="44.1154136" lon="12.1080295"><ele>68.0</ele><time>2026-04-12T09:28:56.013Z</time></trkpt><trkpt lat="44.1152838" lon="12.1080527"><ele>68.5</ele><time>2026-04-12T09:28:57.013Z</time></trkpt><trkpt lat="44.1151532" lon="12.1080766"><ele>69.0</ele><time>2026-04-12T09:28:58.011Z</time></trkpt><trkpt lat="44.1150126" lon="12.1080978"><ele>70.0</ele><time>2026-04-12T09:28:59.011Z</time></trkpt><trkpt lat="44.1148673" lon="12.1081199"><ele>71.0</ele><time>2026-04-12T09:29:00.012Z</time></trkpt><trkpt lat="44.1147295" lon="12.1081407"><ele>72.0</ele><time>2026-04-12T09:29:01.012Z</time></trkpt><trkpt lat="44.1145978" lon="12.1081749"><ele>73.0</ele><time>2026-04-12T09:29:02.011Z</time></trkpt><trkpt lat="44.1144753" lon="12.1082315"><ele>72.5</ele><time>2026-04-12T09:29:03.016Z</time></trkpt><trkpt lat="44.1143631" lon="12.1083244"><ele>72.0</ele><time>2026-04-12T09:29:04.014Z</time></trkpt><trkpt lat="44.1142531" lon="12.1084594"><ele>71.5</ele><time>2026-04-12T09:29:05.01Z</time></trkpt><trkpt lat="44.1141425" lon="12.1086336"><ele>71.0</ele><time>2026-04-12T09:29:06.012Z</time></trkpt><trkpt lat="44.1140287" lon="12.1088259"><ele>71.66666666666667</ele><time>2026-04-12T09:29:07.012Z</time></trkpt><trkpt lat="44.1139104" lon="12.109023"><ele>72.33333333333333</ele><time>2026-04-12T09:29:08.011Z</time></trkpt><trkpt lat="44.1137904" lon="12.1092192"><ele>73.0</ele><time>2026-04-12T09:29:09.013Z</time></trkpt><trkpt lat="44.1136712" lon="12.1094083"><ele>73.0</ele><time>2026-04-12T09:29:10.012Z</time></trkpt><trkpt lat="44.1135444" lon="12.1095844"><ele>73.0</ele><time>2026-04-12T09:29:11.011Z</time></trkpt><trkpt lat="44.1133993" lon="12.1097366"><ele>73.0</ele><time>2026-04-12T09:29:12.015Z</time></trkpt><trkpt lat="44.1132373" lon="12.1098519"><ele>73.0</ele><time>2026-04-12T09:29:13.012Z</time></trkpt><trkpt lat="44.1130653" lon="12.1099402"><ele>73.0</ele><time>2026-04-12T09:29:14.012Z</time></trkpt><trkpt lat="44.1128994" lon="12.1100277"><ele>73.0</ele><time>2026-04-12T09:29:15.012Z</time></trkpt><trkpt lat="44.1127532" lon="12.1101296"><ele>73.0</ele><time>2026-04-12T09:29:16.011Z</time></trkpt><trkpt lat="44.1126217" lon="12.1102523"><ele>73.0</ele><time>2026-04-12T09:29:17.012Z</time></trkpt><trkpt lat="44.1125086" lon="12.1103912"><ele>73.0</ele><time>2026-04-12T09:29:18.011Z</time></trkpt><trkpt lat="44.1124197" lon="12.1105366"><ele>73.0</ele><time>2026-04-12T09:29:19.012Z</time></trkpt><trkpt lat="44.1123488" lon="12.1106961"><ele>73.75</ele><time>2026-04-12T09:29:20.013Z</time></trkpt><trkpt lat="44.1123002" lon="12.1108763"><ele>74.5</ele><time>2026-04-12T09:29:21.012Z</time></trkpt><trkpt lat="44.1122639" lon="12.111072"><ele>75.25</ele><time>2026-04-12T09:29:22.013Z</time></trkpt><trkpt lat="44.1122341" lon="12.1112754"><ele>76.0</ele><time>2026-04-12T09:29:23.015Z</time></trkpt><trkpt lat="44.112205" lon="12.1114856"><ele>74.33333333333333</ele><time>2026-04-12T09:29:24.011Z</time></trkpt><trkpt lat="44.1121729" lon="12.111708"><ele>72.66666666666667</ele><time>2026-04-12T09:29:25.011Z</time></trkpt><trkpt lat="44.1121356" lon="12.1119385"><ele>71.0</ele><time>2026-04-12T09:29:26.012Z</time></trkpt><trkpt lat="44.1120909" lon="12.1121663"><ele>71.0</ele><time>2026-04-12T09:29:27.012Z</time></trkpt><trkpt lat="44.1120306" lon="12.1123796"><ele>71.0</ele><time>2026-04-12T09:29:28.011Z</time></trkpt><trkpt lat="44.1119477" lon="12.1125682"><ele>71.0</ele><time>2026-04-12T09:29:29.011Z</time></trkpt><trkpt lat="44.111842" lon="12.1127297"><ele>71.0</ele><time>2026-04-12T09:29:30.012Z</time></trkpt><trkpt lat="44.111716" lon="12.1128794"><ele>71.0</ele><time>2026-04-12T09:29:31.012Z</time></trkpt><trkpt lat="44.1115839" lon="12.1130328"><ele>71.0</ele><time>2026-04-12T09:29:32.012Z</time></trkpt><trkpt lat="44.1114605" lon="12.1131975"><ele>72.33333333333334</ele><time>2026-04-12T09:29:33.012Z</time></trkpt><trkpt lat="44.1113561" lon="12.1133886"><ele>73.66666666666667</ele><time>2026-04-12T09:29:34.013Z</time></trkpt><trkpt lat="44.1112744" lon="12.1136156"><ele>75.0</ele><time>2026-04-12T09:29:35.013Z</time></trkpt><trkpt lat="44.1112167" lon="12.113867"><ele>74.66666666666667</ele><time>2026-04-12T09:29:36.012Z</time></trkpt><trkpt lat="44.1111739" lon="12.1141299"><ele>74.33333333333334</ele><time>2026-04-12T09:29:37.013Z</time></trkpt><trkpt lat="44.111139" lon="12.1143841"><ele>74.0</ele><time>2026-04-12T09:29:38.012Z</time></trkpt><trkpt lat="44.111099" lon="12.1146215"><ele>74.0</ele><time>2026-04-12T09:29:39.011Z</time></trkpt><trkpt lat="44.1110447" lon="12.1148415"><ele>74.0</ele><time>2026-04-12T09:29:40.012Z</time></trkpt><trkpt lat="44.1109692" lon="12.1150492"><ele>74.0</ele><time>2026-04-12T09:29:41.011Z</time></trkpt><trkpt lat="44.1108782" lon="12.1152475"><ele>74.0</ele><time>2026-04-12T09:29:42.013Z</time></trkpt><trkpt lat="44.1107668" lon="12.1154313"><ele>74.0</ele><time>2026-04-12T09:29:43.011Z</time></trkpt><trkpt lat="44.1106495" lon="12.1156042"><ele>74.0</ele><time>2026-04-12T09:29:44.011Z</time></trkpt><trkpt lat="44.1105314" lon="12.115772"><ele>75.0</ele><time>2026-04-12T09:29:45.012Z</time></trkpt><trkpt lat="44.1104165" lon="12.1159457"><ele>76.0</ele><time>2026-04-12T09:29:46.012Z</time></trkpt><trkpt lat="44.1102995" lon="12.1161303"><ele>77.0</ele><time>2026-04-12T09:29:47.012Z</time></trkpt><trkpt lat="44.1101789" lon="12.1163252"><ele>77.0</ele><time>2026-04-12T09:29:48.011Z</time></trkpt><trkpt lat="44.110054" lon="12.1165302"><ele>77.0</ele><time>2026-04-12T09:29:49.011Z</time></trkpt><trkpt lat="44.109928" lon="12.1167358"><ele>77.0</ele><time>2026-04-12T09:29:50.01Z</time></trkpt><trkpt lat="44.1097999" lon="12.1169377"><ele>77.33333333333334</ele><time>2026-04-12T09:29:51.013Z</time></trkpt><trkpt lat="44.1096709" lon="12.1171443"><ele>77.66666666666667</ele><time>2026-04-12T09:29:52.011Z</time></trkpt><trkpt lat="44.1095365" lon="12.1173447"><ele>78.0</ele><time>2026-04-12T09:29:53.016Z</time></trkpt><trkpt lat="44.1093973" lon="12.1175391"><ele>78.0</ele><time>2026-04-12T09:29:54.011Z</time></trkpt><trkpt lat="44.1092551" lon="12.1177225"><ele>78.0</ele><time>2026-04-12T09:29:55.011Z</time></trkpt><trkpt lat="44.1091141" lon="12.1178898"><ele>78.0</ele><time>2026-04-12T09:29:56.012Z</time></trkpt><trkpt lat="44.1089794" lon="12.1180462"><ele>78.33333333333333</ele><time>2026-04-12T09:29:57.013Z</time></trkpt><trkpt lat="44.1088475" lon="12.1181929"><ele>78.66666666666666</ele><time>2026-04-12T09:29:58.012Z</time></trkpt><trkpt lat="44.1087065" lon="12.1183266"><ele>79.0</ele><time>2026-04-12T09:29:59.009Z</time></trkpt><trkpt lat="44.1085552" lon="12.1184428"><ele>79.0</ele><time>2026-04-12T09:30:00.012Z</time></trkpt><trkpt lat="44.1083954" lon="12.1185479"><ele>79.0</ele><time>2026-04-12T09:30:01.012Z</time></trkpt><trkpt lat="44.1082286" lon="12.1186548"><ele>79.0</ele><time>2026-04-12T09:30:02.013Z</time></trkpt><trkpt lat="44.1080663" lon="12.1187585"><ele>79.5</ele><time>2026-04-12T09:30:03.013Z</time></trkpt><trkpt lat="44.1079171" lon="12.1188536"><ele>80.0</ele><time>2026-04-12T09:30:04.011Z</time></trkpt><trkpt lat="44.1077839" lon="12.1189419"><ele>80.5</ele><time>2026-04-12T09:30:05.011Z</time></trkpt><trkpt lat="44.1076628" lon="12.1190183"><ele>81.0</ele><time>2026-04-12T09:30:06.012Z</time></trkpt><trkpt lat="44.1075539" lon="12.1190808"><ele>81.0</ele><time>2026-04-12T09:30:07.013Z</time></trkpt><trkpt lat="44.1074453" lon="12.119107"><ele>81.0</ele><time>2026-04-12T09:30:08.012Z</time></trkpt><trkpt lat="44.1073376" lon="12.1190927"><ele>81.0</ele><time>2026-04-12T09:30:09.012Z</time></trkpt><trkpt lat="44.1072205" lon="12.1190309"><ele>81.0</ele><time>2026-04-12T09:30:10.014Z</time></trkpt><trkpt lat="44.107096" lon="12.1189345"><ele>81.0</ele><time>2026-04-12T09:30:11.011Z</time></trkpt><trkpt lat="44.106964" lon="12.1188178"><ele>81.0</ele><time>2026-04-12T09:30:12.012Z</time></trkpt><trkpt lat="44.1068303" lon="12.1186909"><ele>81.0</ele><time>2026-04-12T09:30:13.013Z</time></trkpt><trkpt lat="44.1067034" lon="12.1185709"><ele>81.0</ele><time>2026-04-12T09:30:14.011Z</time></trkpt><trkpt lat="44.1065862" lon="12.1184632"><ele>81.0</ele><time>2026-04-12T09:30:15.013Z</time></trkpt><trkpt lat="44.1064775" lon="12.1183736"><ele>81.0</ele><time>2026-04-12T09:30:16.013Z</time></trkpt><trkpt lat="44.1063706" lon="12.1183116"><ele>81.0</ele><time>2026-04-12T09:30:17.012Z</time></trkpt><trkpt lat="44.1062511" lon="12.1182937"><ele>81.33333333333333</ele><time>2026-04-12T09:30:18.012Z</time></trkpt><trkpt lat="44.105971" lon="12.1182597"><ele>81.66666666666666</ele><time>2026-04-12T09:30:20.012Z</time></trkpt><trkpt lat="44.1058099" lon="12.1181936"><ele>82.0</ele><time>2026-04-12T09:30:21.011Z</time></trkpt><trkpt lat="44.1056371" lon="12.1181017"><ele>83.33333333333333</ele><time>2026-04-12T09:30:22.012Z</time></trkpt><trkpt lat="44.1054614" lon="12.1180111"><ele>84.66666666666667</ele><time>2026-04-12T09:30:23.015Z</time></trkpt><trkpt lat="44.1052826" lon="12.1179451"><ele>86.0</ele><time>2026-04-12T09:30:24.013Z</time></trkpt><trkpt lat="44.1050964" lon="12.1179148"><ele>87.66666666666667</ele><time>2026-04-12T09:30:25.013Z</time></trkpt><trkpt lat="44.1049046" lon="12.1179036"><ele>89.33333333333333</ele><time>2026-04-12T09:30:26.011Z</time></trkpt><trkpt lat="44.1047075" lon="12.117899"><ele>91.0</ele><time>2026-04-12T09:30:27.013Z</time></trkpt><trkpt lat="44.1045082" lon="12.1178945"><ele>91.0</ele><time>2026-04-12T09:30:28.014Z</time></trkpt><trkpt lat="44.1043067" lon="12.117891"><ele>91.0</ele><time>2026-04-12T09:30:29.012Z</time></trkpt><trkpt lat="44.1041017" lon="12.1178903"><ele>91.0</ele><time>2026-04-12T09:30:30.012Z</time></trkpt><trkpt lat="44.1038913" lon="12.1178885"><ele>91.0</ele><time>2026-04-12T09:30:31.011Z</time></trkpt><trkpt lat="44.1036845" lon="12.1178849"><ele>91.0</ele><time>2026-04-12T09:30:32.011Z</time></trkpt><trkpt lat="44.1034822" lon="12.1178824"><ele>91.0</ele><time>2026-04-12T09:30:33.012Z</time></trkpt><trkpt lat="44.103282" lon="12.1178795"><ele>90.66666666666666</ele><time>2026-04-12T09:30:34.011Z</time></trkpt><trkpt lat="44.1030822" lon="12.1178776"><ele>90.33333333333333</ele><time>2026-04-12T09:30:35.011Z</time></trkpt><trkpt lat="44.1028851" lon="12.1178687"><ele>90.0</ele><time>2026-04-12T09:30:36.012Z</time></trkpt><trkpt lat="44.1026922" lon="12.1178555"><ele>90.0</ele><time>2026-04-12T09:30:37.013Z</time></trkpt><trkpt lat="44.1025052" lon="12.1178431"><ele>90.0</ele><time>2026-04-12T09:30:38.01Z</time></trkpt><trkpt lat="44.1023286" lon="12.1178276"><ele>90.0</ele><time>2026-04-12T09:30:39.012Z</time></trkpt><trkpt lat="44.1021641" lon="12.1178093"><ele>90.0</ele><time>2026-04-12T09:30:40.013Z</time></trkpt><trkpt lat="44.1020137" lon="12.1177911"><ele>90.0</ele><time>2026-04-12T09:30:41.013Z</time></trkpt><trkpt lat="44.1018784" lon="12.1177772"><ele>90.0</ele><time>2026-04-12T09:30:42.012Z</time></trkpt><trkpt lat="44.101764" lon="12.1177736"><ele>90.0</ele><time>2026-04-12T09:30:43.012Z</time></trkpt><trkpt lat="44.10167" lon="12.1177884"><ele>90.0</ele><time>2026-04-12T09:30:44.015Z</time></trkpt><trkpt lat="44.1015849" lon="12.1178307"><ele>90.0</ele><time>2026-04-12T09:30:45.011Z</time></trkpt><trkpt lat="44.1015016" lon="12.1179077"><ele>90.0</ele><time>2026-04-12T09:30:46.012Z</time></trkpt><trkpt lat="44.1014195" lon="12.1180203"><ele>90.0</ele><time>2026-04-12T09:30:47.012Z</time></trkpt><trkpt lat="44.1013318" lon="12.1181514"><ele>90.0</ele><time>2026-04-12T09:30:48.012Z</time></trkpt><trkpt lat="44.1012352" lon="12.1182924"><ele>90.25</ele><time>2026-04-12T09:30:49.012Z</time></trkpt><trkpt lat="44.1011244" lon="12.1184297"><ele>90.5</ele><time>2026-04-12T09:30:50.012Z</time></trkpt><trkpt lat="44.101007" lon="12.1185485"><ele>90.75</ele><time>2026-04-12T09:30:51.012Z</time></trkpt><trkpt lat="44.1008817" lon="12.1186317"><ele>91.0</ele><time>2026-04-12T09:30:52.01Z</time></trkpt><trkpt lat="44.1007481" lon="12.118672"><ele>91.66666666666666</ele><time>2026-04-12T09:30:53.011Z</time></trkpt><trkpt lat="44.1006026" lon="12.1186697"><ele>92.33333333333333</ele><time>2026-04-12T09:30:54.011Z</time></trkpt><trkpt lat="44.1004427" lon="12.1186462"><ele>93.0</ele><time>2026-04-12T09:30:55.012Z</time></trkpt><trkpt lat="44.1002724" lon="12.1186216"><ele>93.0</ele><time>2026-04-12T09:30:56.012Z</time></trkpt><trkpt lat="44.1000988" lon="12.1186037"><ele>93.0</ele><time>2026-04-12T09:30:57.011Z</time></trkpt><trkpt lat="44.0999148" lon="12.1185854"><ele>93.0</ele><time>2026-04-12T09:30:58.011Z</time></trkpt><trkpt lat="44.0997241" lon="12.1185625"><ele>93.66666666666667</ele><time>2026-04-12T09:30:59.012Z</time></trkpt><trkpt lat="44.0995282" lon="12.1185387"><ele>94.33333333333334</ele><time>2026-04-12T09:31:00.012Z</time></trkpt><trkpt lat="44.0993279" lon="12.1185117"><ele>95.0</ele><time>2026-04-12T09:31:01.015Z</time></trkpt><trkpt lat="44.0991251" lon="12.1184917"><ele>95.33333333333334</ele><time>2026-04-12T09:31:02.014Z</time></trkpt><trkpt lat="44.0989249" lon="12.1184741"><ele>95.66666666666667</ele><time>2026-04-12T09:31:03.012Z</time></trkpt><trkpt lat="44.0987402" lon="12.1184574"><ele>96.0</ele><time>2026-04-12T09:31:04.014Z</time></trkpt><trkpt lat="44.0985676" lon="12.1184353"><ele>96.0</ele><time>2026-04-12T09:31:05.012Z</time></trkpt><trkpt lat="44.0983941" lon="12.1184083"><ele>96.0</ele><time>2026-04-12T09:31:06.011Z</time></trkpt><trkpt lat="44.0982151" lon="12.1183861"><ele>96.0</ele><time>2026-04-12T09:31:07.014Z</time></trkpt><trkpt lat="44.0980343" lon="12.1183645"><ele>97.0</ele><time>2026-04-12T09:31:08.011Z</time></trkpt><trkpt lat="44.0978556" lon="12.1183518"><ele>98.0</ele><time>2026-04-12T09:31:09.012Z</time></trkpt><trkpt lat="44.0976775" lon="12.1183494"><ele>99.0</ele><time>2026-04-12T09:31:10.011Z</time></trkpt><trkpt lat="44.0975044" lon="12.1183692"><ele>100.66666666666666</ele><time>2026-04-12T09:31:11.012Z</time></trkpt><trkpt lat="44.097337" lon="12.1184289"><ele>102.33333333333333</ele><time>2026-04-12T09:31:12.011Z</time></trkpt><trkpt lat="44.097168" lon="12.1185309"><ele>104.0</ele><time>2026-04-12T09:31:13.012Z</time></trkpt><trkpt lat="44.0969982" lon="12.1186575"><ele>104.0</ele><time>2026-04-12T09:31:14.01Z</time></trkpt><trkpt lat="44.0968227" lon="12.1187875"><ele>104.0</ele><time>2026-04-12T09:31:15.011Z</time></trkpt><trkpt lat="44.0966389" lon="12.1189142"><ele>104.0</ele><time>2026-04-12T09:31:16.013Z</time></trkpt><trkpt lat="44.0964547" lon="12.1190371"><ele>103.33333333333333</ele><time>2026-04-12T09:31:17.009Z</time></trkpt><trkpt lat="44.0962715" lon="12.1191616"><ele>102.66666666666666</ele><time>2026-04-12T09:31:18.012Z</time></trkpt><trkpt lat="44.0960931" lon="12.1192848"><ele>102.0</ele><time>2026-04-12T09:31:19.014Z</time></trkpt><trkpt lat="44.0959165" lon="12.1194145"><ele>104.33333333333334</ele><time>2026-04-12T09:31:20.012Z</time></trkpt><trkpt lat="44.0957411" lon="12.1195435"><ele>106.66666666666667</ele><time>2026-04-12T09:31:21.011Z</time></trkpt><trkpt lat="44.095569" lon="12.1196751"><ele>109.0</ele><time>2026-04-12T09:31:22.012Z</time></trkpt><trkpt lat="44.0953989" lon="12.1198156"><ele>108.66666666666667</ele><time>2026-04-12T09:31:23.015Z</time></trkpt><trkpt lat="44.0952312" lon="12.1199651"><ele>108.33333333333334</ele><time>2026-04-12T09:31:24.011Z</time></trkpt><trkpt lat="44.0950648" lon="12.1201283"><ele>108.0</ele><time>2026-04-12T09:31:25.012Z</time></trkpt><trkpt lat="44.0949032" lon="12.1203"><ele>108.0</ele><time>2026-04-12T09:31:26.01Z</time></trkpt><trkpt lat="44.0947461" lon="12.1204729"><ele>108.0</ele><time>2026-04-12T09:31:27.014Z</time></trkpt><trkpt lat="44.0945961" lon="12.1206368"><ele>108.0</ele><time>2026-04-12T09:31:28.015Z</time></trkpt><trkpt lat="44.0944508" lon="12.1207973"><ele>107.66666666666666</ele><time>2026-04-12T09:31:29.011Z</time></trkpt><trkpt lat="44.0943086" lon="12.1209502"><ele>107.33333333333333</ele><time>2026-04-12T09:31:30.012Z</time></trkpt><trkpt lat="44.0941672" lon="12.1210947"><ele>107.0</ele><time>2026-04-12T09:31:31.011Z</time></trkpt><trkpt lat="44.0940271" lon="12.1212309"><ele>107.66666666666666</ele><time>2026-04-12T09:31:32.014Z</time></trkpt><trkpt lat="44.0938917" lon="12.1213611"><ele>108.33333333333334</ele><time>2026-04-12T09:31:33.011Z</time></trkpt><trkpt lat="44.0937561" lon="12.1214931"><ele>109.0</ele><time>2026-04-12T09:31:34.09Z</time></trkpt><trkpt lat="44.0936381" lon="12.1216137"><ele>109.0</ele><time>2026-04-12T09:31:35.012Z</time></trkpt><trkpt lat="44.093517" lon="12.1217504"><ele>109.0</ele><time>2026-04-12T09:31:36.011Z</time></trkpt><trkpt lat="44.0934058" lon="12.121897"><ele>109.0</ele><time>2026-04-12T09:31:37.011Z</time></trkpt><trkpt lat="44.0933025" lon="12.1220575"><ele>110.75</ele><time>2026-04-12T09:31:38.009Z</time></trkpt><trkpt lat="44.0932096" lon="12.1222242"><ele>112.5</ele><time>2026-04-12T09:31:39.012Z</time></trkpt><trkpt lat="44.0931201" lon="12.1223911"><ele>114.25</ele><time>2026-04-12T09:31:40.012Z</time></trkpt><trkpt lat="44.0930325" lon="12.1225487"><ele>116.0</ele><time>2026-04-12T09:31:41.012Z</time></trkpt><trkpt lat="44.0929481" lon="12.1226988"><ele>116.0</ele><time>2026-04-12T09:31:42.014Z</time></trkpt><trkpt lat="44.0928637" lon="12.1228526"><ele>116.0</ele><time>2026-04-12T09:31:43.012Z</time></trkpt><trkpt lat="44.0927775" lon="12.1230115"><ele>116.0</ele><time>2026-04-12T09:31:44.015Z</time></trkpt><trkpt lat="44.0926899" lon="12.1231775"><ele>116.0</ele><time>2026-04-12T09:31:45.012Z</time></trkpt><trkpt lat="44.0925977" lon="12.1233531"><ele>117.33333333333333</ele><time>2026-04-12T09:31:46.013Z</time></trkpt><trkpt lat="44.0925015" lon="12.123535"><ele>118.66666666666666</ele><time>2026-04-12T09:31:47.012Z</time></trkpt><trkpt lat="44.0924032" lon="12.1237245"><ele>120.0</ele><time>2026-04-12T09:31:48.013Z</time></trkpt><trkpt lat="44.0923031" lon="12.1239169"><ele>118.0</ele><time>2026-04-12T09:31:49.013Z</time></trkpt><trkpt lat="44.0921998" lon="12.1241036"><ele>116.0</ele><time>2026-04-12T09:31:50.012Z</time></trkpt><trkpt lat="44.092092" lon="12.1242784"><ele>114.0</ele><time>2026-04-12T09:31:51.013Z</time></trkpt><trkpt lat="44.0919807" lon="12.1244349"><ele>114.0</ele><time>2026-04-12T09:31:52.012Z</time></trkpt><trkpt lat="44.0918668" lon="12.1245719"><ele>114.0</ele><time>2026-04-12T09:31:53.012Z</time></trkpt><trkpt lat="44.0917498" lon="12.1247014"><ele>114.0</ele><time>2026-04-12T09:31:54.01Z</time></trkpt><trkpt lat="44.0916325" lon="12.1248324"><ele>114.25</ele><time>2026-04-12T09:31:55.012Z</time></trkpt><trkpt lat="44.0915155" lon="12.124963"><ele>114.5</ele><time>2026-04-12T09:31:56.012Z</time></trkpt><trkpt lat="44.0914039" lon="12.1250929"><ele>114.75</ele><time>2026-04-12T09:31:57.012Z</time></trkpt><trkpt lat="44.0913037" lon="12.1252278"><ele>115.0</ele><time>2026-04-12T09:31:58.013Z</time></trkpt><trkpt lat="44.0912217" lon="12.1253637"><ele>115.0</ele><time>2026-04-12T09:31:59.01Z</time></trkpt><trkpt lat="44.0911586" lon="12.125498"><ele>115.0</ele><time>2026-04-12T09:32:00.011Z</time></trkpt><trkpt lat="44.0911211" lon="12.1256434"><ele>115.0</ele><time>2026-04-12T09:32:01.011Z</time></trkpt><trkpt lat="44.0911008" lon="12.1257989"><ele>115.0</ele><time>2026-04-12T09:32:02.012Z</time></trkpt><trkpt lat="44.0910779" lon="12.1259661"><ele>115.0</ele><time>2026-04-12T09:32:03.011Z</time></trkpt><trkpt lat="44.0910411" lon="12.126141"><ele>115.0</ele><time>2026-04-12T09:32:04.01Z</time></trkpt><trkpt lat="44.0909909" lon="12.1263202"><ele>115.0</ele><time>2026-04-12T09:32:05.011Z</time></trkpt><trkpt lat="44.0909359" lon="12.1265025"><ele>115.0</ele><time>2026-04-12T09:32:06.015Z</time></trkpt><trkpt lat="44.0908741" lon="12.1266782"><ele>115.5</ele><time>2026-04-12T09:32:07.011Z</time></trkpt><trkpt lat="44.0908353" lon="12.1268565"><ele>116.0</ele><time>2026-04-12T09:32:08.011Z</time></trkpt><trkpt lat="44.0908208" lon="12.127042"><ele>116.5</ele><time>2026-04-12T09:32:09.014Z</time></trkpt><trkpt lat="44.0908243" lon="12.1272366"><ele>117.0</ele><time>2026-04-12T09:32:10.013Z</time></trkpt><trkpt lat="44.0908322" lon="12.1274386"><ele>118.0</ele><time>2026-04-12T09:32:11.012Z</time></trkpt><trkpt lat="44.0908371" lon="12.1276383"><ele>119.0</ele><time>2026-04-12T09:32:12.012Z</time></trkpt><trkpt lat="44.0908367" lon="12.1278371"><ele>120.0</ele><time>2026-04-12T09:32:13.011Z</time></trkpt><trkpt lat="44.0908288" lon="12.1280383"><ele>121.0</ele><time>2026-04-12T09:32:14.016Z</time></trkpt><trkpt lat="44.0908152" lon="12.1282407"><ele>122.75</ele><time>2026-04-12T09:32:15.014Z</time></trkpt><trkpt lat="44.090801" lon="12.1284393"><ele>124.5</ele><time>2026-04-12T09:32:16.011Z</time></trkpt><trkpt lat="44.0907898" lon="12.1286331"><ele>126.25</ele><time>2026-04-12T09:32:17.012Z</time></trkpt><trkpt lat="44.0907905" lon="12.1288123"><ele>128.0</ele><time>2026-04-12T09:32:18.012Z</time></trkpt><trkpt lat="44.0908092" lon="12.1289777"><ele>129.4</ele><time>2026-04-12T09:32:19.014Z</time></trkpt><trkpt lat="44.0908447" lon="12.1291399"><ele>130.8</ele><time>2026-04-12T09:32:20.011Z</time></trkpt><trkpt lat="44.0908894" lon="12.1292958"><ele>132.2</ele><time>2026-04-12T09:32:21.012Z</time></trkpt><trkpt lat="44.0909306" lon="12.1294417"><ele>133.6</ele><time>2026-04-12T09:32:22.01Z</time></trkpt><trkpt lat="44.0909586" lon="12.1295658"><ele>135.0</ele><time>2026-04-12T09:32:23.01Z</time></trkpt><trkpt lat="44.0909821" lon="12.1296761"><ele>135.0</ele><time>2026-04-12T09:32:24.012Z</time></trkpt><trkpt lat="44.0909944" lon="12.1297697"><ele>135.0</ele><time>2026-04-12T09:32:25.013Z</time></trkpt><trkpt lat="44.090991" lon="12.1299149"><ele>135.0</ele><time>2026-04-12T09:32:27.013Z</time></trkpt><trkpt lat="44.0909341" lon="12.1300497"><ele>135.0</ele><time>2026-04-12T09:32:29.014Z</time></trkpt><trkpt lat="44.090872" lon="12.1301149"><ele>135.0</ele><time>2026-04-12T09:32:30.01Z</time></trkpt><trkpt lat="44.0907899" lon="12.130168"><ele>134.0</ele><time>2026-04-12T09:32:31.012Z</time></trkpt><trkpt lat="44.0907055" lon="12.130222"><ele>133.0</ele><time>2026-04-12T09:32:32.012Z</time></trkpt><trkpt lat="44.0905984" lon="12.1303129"><ele>132.0</ele><time>2026-04-12T09:32:33.013Z</time></trkpt><trkpt lat="44.090458" lon="12.130453"><ele>131.0</ele><time>2026-04-12T09:32:34.013Z</time></trkpt><trkpt lat="44.0903154" lon="12.1305871"><ele>131.0</ele><time>2026-04-12T09:32:35.012Z</time></trkpt><trkpt lat="44.0901563" lon="12.1307085"><ele>131.0</ele><time>2026-04-12T09:32:36.011Z</time></trkpt><trkpt lat="44.0899792" lon="12.1308316"><ele>131.0</ele><time>2026-04-12T09:32:37.014Z</time></trkpt><trkpt lat="44.0897776" lon="12.1309562"><ele>131.66666666666666</ele><time>2026-04-12T09:32:38.012Z</time></trkpt><trkpt lat="44.0895748" lon="12.1310745"><ele>132.33333333333334</ele><time>2026-04-12T09:32:39.011Z</time></trkpt><trkpt lat="44.0893688" lon="12.131192"><ele>133.0</ele><time>2026-04-12T09:32:40.012Z</time></trkpt><trkpt lat="44.0891757" lon="12.1312989"><ele>134.66666666666669</ele><time>2026-04-12T09:32:41.013Z</time></trkpt><trkpt lat="44.0889984" lon="12.1314066"><ele>136.33333333333334</ele><time>2026-04-12T09:32:42.012Z</time></trkpt><trkpt lat="44.0888333" lon="12.1315114"><ele>138.0</ele><time>2026-04-12T09:32:43.012Z</time></trkpt><trkpt lat="44.0886796" lon="12.1316109"><ele>139.75</ele><time>2026-04-12T09:32:44.012Z</time></trkpt><trkpt lat="44.0885437" lon="12.1317031"><ele>141.5</ele><time>2026-04-12T09:32:45.012Z</time></trkpt><trkpt lat="44.0884222" lon="12.131795"><ele>143.25</ele><time>2026-04-12T09:32:46.015Z</time></trkpt><trkpt lat="44.0883166" lon="12.1318994"><ele>145.0</ele><time>2026-04-12T09:32:47.011Z</time></trkpt><trkpt lat="44.0882256" lon="12.1320326"><ele>145.5</ele><time>2026-04-12T09:32:48.011Z</time></trkpt><trkpt lat="44.0881437" lon="12.132182"><ele>146.0</ele><time>2026-04-12T09:32:49.012Z</time></trkpt><trkpt lat="44.0880789" lon="12.1323442"><ele>146.5</ele><time>2026-04-12T09:32:50.01Z</time></trkpt><trkpt lat="44.0880222" lon="12.1325226"><ele>147.0</ele><time>2026-04-12T09:32:51.012Z</time></trkpt><trkpt lat="44.087973" lon="12.1327226"><ele>149.33333333333334</ele><time>2026-04-12T09:32:52.015Z</time></trkpt><trkpt lat="44.0879275" lon="12.1329455"><ele>151.66666666666669</ele><time>2026-04-12T09:32:53.013Z</time></trkpt><trkpt lat="44.0878832" lon="12.1331847"><ele>154.0</ele><time>2026-04-12T09:32:54.014Z</time></trkpt><trkpt lat="44.0878361" lon="12.1334377"><ele>156.0</ele><time>2026-04-12T09:32:55.016Z</time></trkpt><trkpt lat="44.0877878" lon="12.1336947"><ele>158.0</ele><time>2026-04-12T09:32:56.012Z</time></trkpt><trkpt lat="44.0877363" lon="12.1339493"><ele>160.0</ele><time>2026-04-12T09:32:57.015Z</time></trkpt><trkpt lat="44.0876883" lon="12.1341867"><ele>161.66666666666669</ele><time>2026-04-12T09:32:58.011Z</time></trkpt><trkpt lat="44.0876443" lon="12.1344045"><ele>163.33333333333334</ele><time>2026-04-12T09:32:59.011Z</time></trkpt><trkpt lat="44.0875959" lon="12.1346169"><ele>165.0</ele><time>2026-04-12T09:33:00.011Z</time></trkpt><trkpt lat="44.087538" lon="12.1348247"><ele>166.66666666666666</ele><time>2026-04-12T09:33:01.012Z</time></trkpt><trkpt lat="44.0874692" lon="12.1350223"><ele>168.33333333333331</ele><time>2026-04-12T09:33:02.012Z</time></trkpt><trkpt lat="44.0873941" lon="12.1352129"><ele>170.0</ele><time>2026-04-12T09:33:03.014Z</time></trkpt><trkpt lat="44.0873154" lon="12.1353949"><ele>171.5</ele><time>2026-04-12T09:33:04.012Z</time></trkpt><trkpt lat="44.0872349" lon="12.1355642"><ele>173.0</ele><time>2026-04-12T09:33:05.012Z</time></trkpt><trkpt lat="44.0871569" lon="12.1357206"><ele>174.5</ele><time>2026-04-12T09:33:06.012Z</time></trkpt><trkpt lat="44.0870751" lon="12.1358741"><ele>176.0</ele><time>2026-04-12T09:33:07.017Z</time></trkpt><trkpt lat="44.0869929" lon="12.1360294"><ele>177.75</ele><time>2026-04-12T09:33:08.012Z</time></trkpt><trkpt lat="44.0869139" lon="12.1361765"><ele>179.5</ele><time>2026-04-12T09:33:09.012Z</time></trkpt><trkpt lat="44.0868437" lon="12.1363058"><ele>181.25</ele><time>2026-04-12T09:33:10.014Z</time></trkpt><trkpt lat="44.0867781" lon="12.1364294"><ele>183.0</ele><time>2026-04-12T09:33:11.012Z</time></trkpt><trkpt lat="44.086708" lon="12.1365502"><ele>185.5</ele><time>2026-04-12T09:33:12.011Z</time></trkpt><trkpt lat="44.0866298" lon="12.1366653"><ele>188.0</ele><time>2026-04-12T09:33:13.012Z</time></trkpt><trkpt lat="44.086548" lon="12.136773"><ele>190.5</ele><time>2026-04-12T09:33:14.011Z</time></trkpt><trkpt lat="44.0864577" lon="12.1368807"><ele>193.0</ele><time>2026-04-12T09:33:15.015Z</time></trkpt><trkpt lat="44.0863628" lon="12.1369919"><ele>195.0</ele><time>2026-04-12T09:33:16.012Z</time></trkpt><trkpt lat="44.0862654" lon="12.1371051"><ele>197.0</ele><time>2026-04-12T09:33:17.011Z</time></trkpt><trkpt lat="44.086168" lon="12.1372187"><ele>199.0</ele><time>2026-04-12T09:33:18.011Z</time></trkpt><trkpt lat="44.0860679" lon="12.1373366"><ele>201.0</ele><time>2026-04-12T09:33:19.013Z</time></trkpt><trkpt lat="44.0859661" lon="12.1374565"><ele>204.66666666666669</ele><time>2026-04-12T09:33:20.012Z</time></trkpt><trkpt lat="44.0858578" lon="12.1375807"><ele>208.33333333333334</ele><time>2026-04-12T09:33:21.013Z</time></trkpt><trkpt lat="44.0857399" lon="12.137716"><ele>212.0</ele><time>2026-04-12T09:33:22.01Z</time></trkpt><trkpt lat="44.0856133" lon="12.1378575"><ele>212.0</ele><time>2026-04-12T09:33:23.011Z</time></trkpt><trkpt lat="44.085481" lon="12.1380077"><ele>212.0</ele><time>2026-04-12T09:33:24.013Z</time></trkpt><trkpt lat="44.085344" lon="12.1381687"><ele>212.0</ele><time>2026-04-12T09:33:25.011Z</time></trkpt><trkpt lat="44.0852024" lon="12.1383288"><ele>215.0</ele><time>2026-04-12T09:33:26.012Z</time></trkpt><trkpt lat="44.0850707" lon="12.1384868"><ele>218.0</ele><time>2026-04-12T09:33:27.011Z</time></trkpt><trkpt lat="44.0849389" lon="12.1386512"><ele>221.0</ele><time>2026-04-12T09:33:28.014Z</time></trkpt><trkpt lat="44.0848102" lon="12.1388346"><ele>221.0</ele><time>2026-04-12T09:33:29.011Z</time></trkpt><trkpt lat="44.0846846" lon="12.139037"><ele>221.0</ele><time>2026-04-12T09:33:30.012Z</time></trkpt><trkpt lat="44.0845572" lon="12.1392524"><ele>221.0</ele><time>2026-04-12T09:33:31.013Z</time></trkpt><trkpt lat="44.0844338" lon="12.1394633"><ele>225.33333333333334</ele><time>2026-04-12T09:33:32.012Z</time></trkpt><trkpt lat="44.0843201" lon="12.1396546"><ele>229.66666666666669</ele><time>2026-04-12T09:33:33.014Z</time></trkpt><trkpt lat="44.0842234" lon="12.1398165"><ele>234.0</ele><time>2026-04-12T09:33:34.015Z</time></trkpt><trkpt lat="44.0841428" lon="12.1399478"><ele>236.33333333333334</ele><time>2026-04-12T09:33:35.011Z</time></trkpt><trkpt lat="44.0840751" lon="12.1400519"><ele>238.66666666666669</ele><time>2026-04-12T09:33:36.014Z</time></trkpt><trkpt lat="44.0840148" lon="12.1401346"><ele>241.0</ele><time>2026-04-12T09:33:37.011Z</time></trkpt><trkpt lat="44.0839532" lon="12.1402035"><ele>243.33333333333334</ele><time>2026-04-12T09:33:38.011Z</time></trkpt><trkpt lat="44.0838864" lon="12.1402554"><ele>245.66666666666669</ele><time>2026-04-12T09:33:39.012Z</time></trkpt><trkpt lat="44.0838035" lon="12.1402903"><ele>248.0</ele><time>2026-04-12T09:33:40.014Z</time></trkpt><trkpt lat="44.0837083" lon="12.1403116"><ele>248.0</ele><time>2026-04-12T09:33:41.012Z</time></trkpt><trkpt lat="44.0835636" lon="12.1402975"><ele>248.0</ele><time>2026-04-12T09:33:42.012Z</time></trkpt><trkpt lat="44.0834071" lon="12.1402795"><ele>248.0</ele><time>2026-04-12T09:33:43.012Z</time></trkpt><trkpt lat="44.0832585" lon="12.1402674"><ele>249.75</ele><time>2026-04-12T09:33:44.012Z</time></trkpt><trkpt lat="44.0831194" lon="12.1402509"><ele>251.5</ele><time>2026-04-12T09:33:45.012Z</time></trkpt><trkpt lat="44.0829878" lon="12.1402231"><ele>253.25</ele><time>2026-04-12T09:33:46.013Z</time></trkpt><trkpt lat="44.0828639" lon="12.1401832"><ele>255.0</ele><time>2026-04-12T09:33:47.011Z</time></trkpt><trkpt lat="44.082751" lon="12.1401517"><ele>255.0</ele><time>2026-04-12T09:33:48.014Z</time></trkpt><trkpt lat="44.0826421" lon="12.1401356"><ele>255.0</ele><time>2026-04-12T09:33:49.012Z</time></trkpt><trkpt lat="44.0825285" lon="12.1401451"><ele>255.0</ele><time>2026-04-12T09:33:50.011Z</time></trkpt><trkpt lat="44.0824068" lon="12.14018"><ele>255.0</ele><time>2026-04-12T09:33:51.013Z</time></trkpt><trkpt lat="44.082286" lon="12.1402176"><ele>255.6</ele><time>2026-04-12T09:33:52.013Z</time></trkpt><trkpt lat="44.0821718" lon="12.1402503"><ele>256.2</ele><time>2026-04-12T09:33:53.011Z</time></trkpt><trkpt lat="44.0820672" lon="12.1402738"><ele>256.8</ele><time>2026-04-12T09:33:54.012Z</time></trkpt><trkpt lat="44.0819583" lon="12.1402782"><ele>257.4</ele><time>2026-04-12T09:33:55.015Z</time></trkpt><trkpt lat="44.0818412" lon="12.1402658"><ele>258.0</ele><time>2026-04-12T09:33:56.012Z</time></trkpt><trkpt lat="44.0817154" lon="12.1402392"><ele>256.5</ele><time>2026-04-12T09:33:57.012Z</time></trkpt><trkpt lat="44.0815927" lon="12.1401894"><ele>255.0</ele><time>2026-04-12T09:33:58.012Z</time></trkpt><trkpt lat="44.0814702" lon="12.1401221"><ele>253.5</ele><time>2026-04-12T09:33:59.011Z</time></trkpt><trkpt lat="44.0813512" lon="12.1400487"><ele>252.0</ele><time>2026-04-12T09:34:00.012Z</time></trkpt><trkpt lat="44.0812326" lon="12.139984"><ele>252.0</ele><time>2026-04-12T09:34:01.012Z</time></trkpt><trkpt lat="44.0811097" lon="12.1399316"><ele>252.0</ele><time>2026-04-12T09:34:02.017Z</time></trkpt><trkpt lat="44.0809828" lon="12.1398858"><ele>252.0</ele><time>2026-04-12T09:34:03.012Z</time></trkpt><trkpt lat="44.0808561" lon="12.1398321"><ele>252.0</ele><time>2026-04-12T09:34:04.012Z</time></trkpt><trkpt lat="44.0807321" lon="12.1397608"><ele>251.75</ele><time>2026-04-12T09:34:05.011Z</time></trkpt><trkpt lat="44.080611" lon="12.1396706"><ele>251.5</ele><time>2026-04-12T09:34:06.011Z</time></trkpt><trkpt lat="44.0804909" lon="12.1395637"><ele>251.25</ele><time>2026-04-12T09:34:07.014Z</time></trkpt><trkpt lat="44.0803614" lon="12.1394321"><ele>251.0</ele><time>2026-04-12T09:34:08.01Z</time></trkpt><trkpt lat="44.0802201" lon="12.1392758"><ele>251.0</ele><time>2026-04-12T09:34:09.014Z</time></trkpt><trkpt lat="44.0800669" lon="12.139109"><ele>251.0</ele><time>2026-04-12T09:34:10.012Z</time></trkpt><trkpt lat="44.0799131" lon="12.1389372"><ele>251.0</ele><time>2026-04-12T09:34:11.011Z</time></trkpt><trkpt lat="44.0797661" lon="12.1387694"><ele>254.0</ele><time>2026-04-12T09:34:12.012Z</time></trkpt><trkpt lat="44.0796315" lon="12.1386165"><ele>257.0</ele><time>2026-04-12T09:34:13.011Z</time></trkpt><trkpt lat="44.0795022" lon="12.1384786"><ele>260.0</ele><time>2026-04-12T09:34:14.012Z</time></trkpt><trkpt lat="44.0793745" lon="12.1383521"><ele>260.0</ele><time>2026-04-12T09:34:15.014Z</time></trkpt><trkpt lat="44.0792502" lon="12.1382505"><ele>260.0</ele><time>2026-04-12T09:34:16.011Z</time></trkpt><trkpt lat="44.0791204" lon="12.1381707"><ele>260.0</ele><time>2026-04-12T09:34:17.012Z</time></trkpt><trkpt lat="44.0789866" lon="12.1381176"><ele>260.0</ele><time>2026-04-12T09:34:18.011Z</time></trkpt><trkpt lat="44.0788489" lon="12.1380938"><ele>261.6666666666667</ele><time>2026-04-12T09:34:19.014Z</time></trkpt><trkpt lat="44.0787011" lon="12.138097"><ele>263.3333333333333</ele><time>2026-04-12T09:34:20.011Z</time></trkpt><trkpt lat="44.0785412" lon="12.1381176"><ele>265.0</ele><time>2026-04-12T09:34:21.012Z</time></trkpt><trkpt lat="44.0783695" lon="12.1381401"><ele>264.3333333333333</ele><time>2026-04-12T09:34:22.011Z</time></trkpt><trkpt lat="44.0781915" lon="12.1381603"><ele>263.6666666666667</ele><time>2026-04-12T09:34:23.012Z</time></trkpt><trkpt lat="44.0780105" lon="12.1381782"><ele>263.0</ele><time>2026-04-12T09:34:24.012Z</time></trkpt><trkpt lat="44.0778331" lon="12.1381977"><ele>263.0</ele><time>2026-04-12T09:34:25.012Z</time></trkpt><trkpt lat="44.0776574" lon="12.1382141"><ele>263.0</ele><time>2026-04-12T09:34:26.014Z</time></trkpt><trkpt lat="44.0774816" lon="12.1382329"><ele>263.0</ele><time>2026-04-12T09:34:27.012Z</time></trkpt><trkpt lat="44.0773008" lon="12.1382523"><ele>267.0</ele><time>2026-04-12T09:34:28.013Z</time></trkpt><trkpt lat="44.0771134" lon="12.1382702"><ele>271.0</ele><time>2026-04-12T09:34:29.012Z</time></trkpt><trkpt lat="44.0769247" lon="12.1382908"><ele>275.0</ele><time>2026-04-12T09:34:30.01Z</time></trkpt><trkpt lat="44.0767361" lon="12.1383081"><ele>277.33333333333337</ele><time>2026-04-12T09:34:31.011Z</time></trkpt><trkpt lat="44.076551" lon="12.1383209"><ele>279.6666666666667</ele><time>2026-04-12T09:34:32.011Z</time></trkpt><trkpt lat="44.076376" lon="12.138327"><ele>282.0</ele><time>2026-04-12T09:34:33.011Z</time></trkpt><trkpt lat="44.076213" lon="12.1383247"><ele>282.0</ele><time>2026-04-12T09:34:34.014Z</time></trkpt><trkpt lat="44.0760618" lon="12.1383084"><ele>282.0</ele><time>2026-04-12T09:34:35.011Z</time></trkpt><trkpt lat="44.0759239" lon="12.1382735"><ele>282.0</ele><time>2026-04-12T09:34:36.013Z</time></trkpt><trkpt lat="44.0757957" lon="12.1382248"><ele>282.0</ele><time>2026-04-12T09:34:37.011Z</time></trkpt><trkpt lat="44.0756737" lon="12.1381613"><ele>284.75</ele><time>2026-04-12T09:34:38.014Z</time></trkpt><trkpt lat="44.0755607" lon="12.1380831"><ele>287.5</ele><time>2026-04-12T09:34:39.013Z</time></trkpt><trkpt lat="44.0754538" lon="12.1379862"><ele>290.25</ele><time>2026-04-12T09:34:40.011Z</time></trkpt><trkpt lat="44.0753557" lon="12.1378565"><ele>293.0</ele><time>2026-04-12T09:34:41.013Z</time></trkpt><trkpt lat="44.07527" lon="12.1377094"><ele>293.0</ele><time>2026-04-12T09:34:42.012Z</time></trkpt><trkpt lat="44.0752027" lon="12.1375533"><ele>293.0</ele><time>2026-04-12T09:34:43.014Z</time></trkpt><trkpt lat="44.0751456" lon="12.1374011"><ele>293.0</ele><time>2026-04-12T09:34:44.012Z</time></trkpt><trkpt lat="44.0750966" lon="12.1372519"><ele>293.0</ele><time>2026-04-12T09:34:45.013Z</time></trkpt><trkpt lat="44.0750456" lon="12.1371124"><ele>291.8</ele><time>2026-04-12T09:34:46.011Z</time></trkpt><trkpt lat="44.074985" lon="12.1369911"><ele>290.6</ele><time>2026-04-12T09:34:47.01Z</time></trkpt><trkpt lat="44.0749089" lon="12.1368878"><ele>289.4</ele><time>2026-04-12T09:34:48.013Z</time></trkpt><trkpt lat="44.0748196" lon="12.1368093"><ele>288.2</ele><time>2026-04-12T09:34:49.014Z</time></trkpt><trkpt lat="44.0747163" lon="12.1367563"><ele>287.0</ele><time>2026-04-12T09:34:50.011Z</time></trkpt><trkpt lat="44.0745949" lon="12.1367323"><ele>290.25</ele><time>2026-04-12T09:34:51.015Z</time></trkpt><trkpt lat="44.0744685" lon="12.1367242"><ele>293.5</ele><time>2026-04-12T09:34:52.011Z</time></trkpt><trkpt lat="44.074336" lon="12.1367306"><ele>296.75</ele><time>2026-04-12T09:34:53.01Z</time></trkpt><trkpt lat="44.074207" lon="12.1367586"><ele>300.0</ele><time>2026-04-12T09:34:54.011Z</time></trkpt><trkpt lat="44.0740812" lon="12.1368084"><ele>304.4</ele><time>2026-04-12T09:34:55.013Z</time></trkpt><trkpt lat="44.0739657" lon="12.136877"><ele>308.8</ele><time>2026-04-12T09:34:56.011Z</time></trkpt><trkpt lat="44.0738625" lon="12.1369485"><ele>313.20000000000005</ele><time>2026-04-12T09:34:57.012Z</time></trkpt><trkpt lat="44.0737806" lon="12.1370134"><ele>317.6</ele><time>2026-04-12T09:34:58.012Z</time></trkpt><trkpt lat="44.0737104" lon="12.1370636"><ele>322.0</ele><time>2026-04-12T09:34:59.012Z</time></trkpt><trkpt lat="44.0736392" lon="12.1371043"><ele>322.0</ele><time>2026-04-12T09:35:00.012Z</time></trkpt><trkpt lat="44.0735648" lon="12.1371305"><ele>322.0</ele><time>2026-04-12T09:35:01.011Z</time></trkpt><trkpt lat="44.0734813" lon="12.137146"><ele>322.0</ele><time>2026-04-12T09:35:02.014Z</time></trkpt><trkpt lat="44.0733983" lon="12.1371563"><ele>322.0</ele><time>2026-04-12T09:35:03.012Z</time></trkpt><trkpt lat="44.0733174" lon="12.1371695"><ele>322.0</ele><time>2026-04-12T09:35:04.013Z</time></trkpt><trkpt lat="44.0732367" lon="12.1371614"><ele>322.0</ele><time>2026-04-12T09:35:05.011Z</time></trkpt><trkpt lat="44.0731534" lon="12.1371326"><ele>326.6</ele><time>2026-04-12T09:35:06.012Z</time></trkpt><trkpt lat="44.0730685" lon="12.1370936"><ele>331.20000000000005</ele><time>2026-04-12T09:35:07.011Z</time></trkpt><trkpt lat="44.0729846" lon="12.1370433"><ele>335.8</ele><time>2026-04-12T09:35:08.01Z</time></trkpt><trkpt lat="44.0728935" lon="12.1369819"><ele>340.4</ele><time>2026-04-12T09:35:09.014Z</time></trkpt><trkpt lat="44.0728007" lon="12.1369088"><ele>345.0</ele><time>2026-04-12T09:35:10.011Z</time></trkpt><trkpt lat="44.0727067" lon="12.1368282"><ele>345.0</ele><time>2026-04-12T09:35:11.01Z</time></trkpt><trkpt lat="44.072617" lon="12.1367476"><ele>345.0</ele><time>2026-04-12T09:35:12.013Z</time></trkpt><trkpt lat="44.0725459" lon="12.1366572"><ele>345.0</ele><time>2026-04-12T09:35:13.012Z</time></trkpt><trkpt lat="44.0724953" lon="12.1365626"><ele>345.0</ele><time>2026-04-12T09:35:14.013Z</time></trkpt><trkpt lat="44.0724548" lon="12.1364712"><ele>345.0</ele><time>2026-04-12T09:35:15.012Z</time></trkpt><trkpt lat="44.0724282" lon="12.1363748"><ele>345.0</ele><time>2026-04-12T09:35:16.012Z</time></trkpt><trkpt lat="44.07241" lon="12.1362806"><ele>349.6</ele><time>2026-04-12T09:35:17.011Z</time></trkpt><trkpt lat="44.0723963" lon="12.1361823"><ele>354.2</ele><time>2026-04-12T09:35:18.013Z</time></trkpt><trkpt lat="44.0723748" lon="12.1360701"><ele>358.79999999999995</ele><time>2026-04-12T09:35:19.011Z</time></trkpt><trkpt lat="44.072354" lon="12.1359438"><ele>363.4</ele><time>2026-04-12T09:35:20.012Z</time></trkpt><trkpt lat="44.0723424" lon="12.1358077"><ele>368.0</ele><time>2026-04-12T09:35:21.011Z</time></trkpt><trkpt lat="44.0723231" lon="12.1356638"><ele>372.25</ele><time>2026-04-12T09:35:22.012Z</time></trkpt><trkpt lat="44.0722925" lon="12.1355115"><ele>376.5</ele><time>2026-04-12T09:35:23.011Z</time></trkpt><trkpt lat="44.0722542" lon="12.1353527"><ele>380.75</ele><time>2026-04-12T09:35:24.012Z</time></trkpt><trkpt lat="44.0722174" lon="12.1351801"><ele>385.0</ele><time>2026-04-12T09:35:25.014Z</time></trkpt><trkpt lat="44.0721872" lon="12.1349872"><ele>388.75</ele><time>2026-04-12T09:35:26.013Z</time></trkpt><trkpt lat="44.0721631" lon="12.1347839"><ele>392.5</ele><time>2026-04-12T09:35:27.011Z</time></trkpt><trkpt lat="44.0721467" lon="12.1345873"><ele>396.25</ele><time>2026-04-12T09:35:28.013Z</time></trkpt><trkpt lat="44.0721286" lon="12.1344064"><ele>400.0</ele><time>2026-04-12T09:35:29.012Z</time></trkpt><trkpt lat="44.0721139" lon="12.134248"><ele>400.00000000000006</ele><time>2026-04-12T09:35:30.013Z</time></trkpt><trkpt lat="44.0720836" lon="12.1341189"><ele>400.0</ele><time>2026-04-12T09:35:31.012Z</time></trkpt><trkpt lat="44.0720418" lon="12.1340018"><ele>400.0</ele><time>2026-04-12T09:35:32.012Z</time></trkpt><trkpt lat="44.0720092" lon="12.1338967"><ele>400.0</ele><time>2026-04-12T09:35:33.015Z</time></trkpt><trkpt lat="44.0720094" lon="12.1338023"><ele>400.00000000000006</ele><time>2026-04-12T09:35:34.013Z</time></trkpt><trkpt lat="44.072034" lon="12.1337108"><ele>400.0</ele><time>2026-04-12T09:35:35.011Z</time></trkpt><trkpt lat="44.0720842" lon="12.1336279"><ele>402.1666666666667</ele><time>2026-04-12T09:35:36.012Z</time></trkpt><trkpt lat="44.0721405" lon="12.1335423"><ele>404.33333333333337</ele><time>2026-04-12T09:35:37.011Z</time></trkpt><trkpt lat="44.0722134" lon="12.1334537"><ele>406.5</ele><time>2026-04-12T09:35:38.011Z</time></trkpt><trkpt lat="44.0722829" lon="12.1333656"><ele>408.66666666666663</ele><time>2026-04-12T09:35:39.011Z</time></trkpt><trkpt lat="44.0723394" lon="12.1332747"><ele>410.8333333333333</ele><time>2026-04-12T09:35:40.016Z</time></trkpt><trkpt lat="44.0723829" lon="12.1331744"><ele>413.0</ele><time>2026-04-12T09:35:41.012Z</time></trkpt><trkpt lat="44.0724327" lon="12.1330709"><ele>411.3333333333333</ele><time>2026-04-12T09:35:42.011Z</time></trkpt><trkpt lat="44.0724761" lon="12.132967"><ele>409.66666666666663</ele><time>2026-04-12T09:35:43.013Z</time></trkpt><trkpt lat="44.0725165" lon="12.1328575"><ele>408.0</ele><time>2026-04-12T09:35:44.011Z</time></trkpt><trkpt lat="44.0725527" lon="12.1327477"><ele>406.33333333333337</ele><time>2026-04-12T09:35:45.015Z</time></trkpt><trkpt lat="44.0725792" lon="12.1326416"><ele>404.6666666666667</ele><time>2026-04-12T09:35:46.013Z</time></trkpt><trkpt lat="44.0725963" lon="12.1325446"><ele>403.0</ele><time>2026-04-12T09:35:47.014Z</time></trkpt><trkpt lat="44.0725982" lon="12.1324003"><ele>403.6666666666667</ele><time>2026-04-12T09:35:49.013Z</time></trkpt><trkpt lat="44.0725538" lon="12.1323259"><ele>404.33333333333337</ele><time>2026-04-12T09:35:51.013Z</time></trkpt><trkpt lat="44.0724852" lon="12.1323343"><ele>405.0</ele><time>2026-04-12T09:35:53.013Z</time></trkpt><trkpt lat="44.0723963" lon="12.1324078"><ele>405.66666666666663</ele><time>2026-04-12T09:35:55.013Z</time></trkpt><trkpt lat="44.072303" lon="12.1324923"><ele>406.3333333333333</ele><time>2026-04-12T09:35:57.014Z</time></trkpt><trkpt lat="44.0722323" lon="12.1325199"><ele>407.0</ele><time>2026-04-12T09:36:00.012Z</time></trkpt><trkpt lat="44.0721617" lon="12.1326067"><ele>411.25</ele><time>2026-04-12T09:36:13.015Z</time></trkpt><trkpt lat="44.072095" lon="12.13269"><ele>415.5</ele><time>2026-04-12T09:36:14.016Z</time></trkpt><trkpt lat="44.072015" lon="12.132785"><ele>419.75</ele><time>2026-04-12T09:36:15.015Z</time></trkpt><trkpt lat="44.071925" lon="12.1329"><ele>424.0</ele><time>2026-04-12T09:36:16.014Z</time></trkpt><trkpt lat="44.0718183" lon="12.13304"><ele>424.0</ele><time>2026-04-12T09:36:17.013Z</time></trkpt><trkpt lat="44.0717183" lon="12.1331683"><ele>424.0</ele><time>2026-04-12T09:36:18.012Z</time></trkpt><trkpt lat="44.0716167" lon="12.13329"><ele>424.0</ele><time>2026-04-12T09:36:19.014Z</time></trkpt><trkpt lat="44.0715217" lon="12.1334267"><ele>424.0</ele><time>2026-04-12T09:36:20.014Z</time></trkpt><trkpt lat="44.0714383" lon="12.13358"><ele>424.2</ele><time>2026-04-12T09:36:21.013Z</time></trkpt><trkpt lat="44.0713733" lon="12.1337283"><ele>424.4</ele><time>2026-04-12T09:36:22.013Z</time></trkpt><trkpt lat="44.0713167" lon="12.1338617"><ele>424.6</ele><time>2026-04-12T09:36:23.012Z</time></trkpt><trkpt lat="44.0712683" lon="12.133985"><ele>424.8</ele><time>2026-04-12T09:36:24.014Z</time></trkpt><trkpt lat="44.0712117" lon="12.13409"><ele>425.0</ele><time>2026-04-12T09:36:25.014Z</time></trkpt><trkpt lat="44.0711533" lon="12.1341817"><ele>425.0</ele><time>2026-04-12T09:36:26.013Z</time></trkpt><trkpt lat="44.0710783" lon="12.1342467"><ele>425.0</ele><time>2026-04-12T09:36:27.017Z</time></trkpt><trkpt lat="44.0710017" lon="12.1343117"><ele>425.0</ele><time>2026-04-12T09:36:28.014Z</time></trkpt><trkpt lat="44.0709067" lon="12.1343767"><ele>425.0</ele><time>2026-04-12T09:36:29.013Z</time></trkpt><trkpt lat="44.0707933" lon="12.1344267"><ele>425.0</ele><time>2026-04-12T09:36:30.014Z</time></trkpt><trkpt lat="44.07067" lon="12.1344833"><ele>428.25</ele><time>2026-04-12T09:36:31.015Z</time></trkpt><trkpt lat="44.0705483" lon="12.1345617"><ele>431.5</ele><time>2026-04-12T09:36:32.014Z</time></trkpt><trkpt lat="44.0704267" lon="12.134625"><ele>434.75</ele><time>2026-04-12T09:36:33.014Z</time></trkpt><trkpt lat="44.0703083" lon="12.1346833"><ele>438.0</ele><time>2026-04-12T09:36:34.013Z</time></trkpt><trkpt lat="44.07019" lon="12.1347617"><ele>438.0</ele><time>2026-04-12T09:36:35.015Z</time></trkpt><trkpt lat="44.0700767" lon="12.1348633"><ele>438.0</ele><time>2026-04-12T09:36:36.015Z</time></trkpt><trkpt lat="44.06997" lon="12.1349667"><ele>438.0</ele><time>2026-04-12T09:36:37.013Z</time></trkpt><trkpt lat="44.0698717" lon="12.13504"><ele>438.0</ele><time>2026-04-12T09:36:38.016Z</time></trkpt><trkpt lat="44.0697633" lon="12.135095"><ele>437.0</ele><time>2026-04-12T09:36:39.014Z</time></trkpt><trkpt lat="44.0696533" lon="12.1351233"><ele>435.99999999999994</ele><time>2026-04-12T09:36:40.013Z</time></trkpt><trkpt lat="44.06955" lon="12.1351333"><ele>434.99999999999994</ele><time>2026-04-12T09:36:41.013Z</time></trkpt><trkpt lat="44.06946" lon="12.1351383"><ele>434.0</ele><time>2026-04-12T09:36:42.012Z</time></trkpt><trkpt lat="44.0693817" lon="12.13514"><ele>433.0</ele><time>2026-04-12T09:36:43.015Z</time></trkpt><trkpt lat="44.069295" lon="12.1351317"><ele>433.0</ele><time>2026-04-12T09:36:44.013Z</time></trkpt><trkpt lat="44.0692" lon="12.135115"><ele>432.99999999999994</ele><time>2026-04-12T09:36:45.013Z</time></trkpt><trkpt lat="44.0690967" lon="12.1351183"><ele>432.99999999999994</ele><time>2026-04-12T09:36:46.014Z</time></trkpt><trkpt lat="44.068985" lon="12.135115"><ele>433.0</ele><time>2026-04-12T09:36:47.013Z</time></trkpt><trkpt lat="44.0688667" lon="12.1351083"><ele>433.0</ele><time>2026-04-12T09:36:48.013Z</time></trkpt><trkpt lat="44.06875" lon="12.1350833"><ele>432.50000000000006</ele><time>2026-04-12T09:36:49.013Z</time></trkpt><trkpt lat="44.0686517" lon="12.1350533"><ele>432.0</ele><time>2026-04-12T09:36:50.014Z</time></trkpt><trkpt lat="44.0685833" lon="12.135035"><ele>431.5</ele><time>2026-04-12T09:36:51.016Z</time></trkpt><trkpt lat="44.0685017" lon="12.1349783"><ele>431.0</ele><time>2026-04-12T09:36:53.012Z</time></trkpt><trkpt lat="44.0684617" lon="12.13487"><ele>430.50000000000006</ele><time>2026-04-12T09:36:55.013Z</time></trkpt><trkpt lat="44.06846" lon="12.1347817"><ele>430.0</ele><time>2026-04-12T09:36:56.012Z</time></trkpt><trkpt lat="44.068485" lon="12.1346133"><ele>429.75</ele><time>2026-04-12T09:36:57.013Z</time></trkpt><trkpt lat="44.0684917" lon="12.1344433"><ele>429.5</ele><time>2026-04-12T09:36:58.013Z</time></trkpt><trkpt lat="44.0684817" lon="12.1342783"><ele>429.25</ele><time>2026-04-12T09:36:59.015Z</time></trkpt><trkpt lat="44.06849" lon="12.1341183"><ele>429.0</ele><time>2026-04-12T09:37:00.014Z</time></trkpt><trkpt lat="44.0685167" lon="12.1339583"><ele>430.25</ele><time>2026-04-12T09:37:01.014Z</time></trkpt><trkpt lat="44.0685767" lon="12.1338017"><ele>431.5</ele><time>2026-04-12T09:37:02.012Z</time></trkpt><trkpt lat="44.06862" lon="12.133635"><ele>432.75</ele><time>2026-04-12T09:37:03.014Z</time></trkpt><trkpt lat="44.0686233" lon="12.133445"><ele>434.0</ele><time>2026-04-12T09:37:04.013Z</time></trkpt><trkpt lat="44.0686017" lon="12.1332617"><ele>435.5</ele><time>2026-04-12T09:37:05.014Z</time></trkpt><trkpt lat="44.068565" lon="12.1330983"><ele>437.0</ele><time>2026-04-12T09:37:06.014Z</time></trkpt><trkpt lat="44.0685182" lon="12.132937"><ele>438.5</ele><time>2026-04-12T09:37:07.014Z</time></trkpt><trkpt lat="44.0684754" lon="12.1327593"><ele>440.0</ele><time>2026-04-12T09:37:08.014Z</time></trkpt><trkpt lat="44.0684407" lon="12.1325672"><ele>440.25</ele><time>2026-04-12T09:37:09.015Z</time></trkpt><trkpt lat="44.0684155" lon="12.1323659"><ele>440.5</ele><time>2026-04-12T09:37:10.011Z</time></trkpt><trkpt lat="44.0684073" lon="12.1321622"><ele>440.75</ele><time>2026-04-12T09:37:11.015Z</time></trkpt><trkpt lat="44.0684213" lon="12.1319507"><ele>441.0</ele><time>2026-04-12T09:37:12.013Z</time></trkpt><trkpt lat="44.0684292" lon="12.1317372"><ele>440.75</ele><time>2026-04-12T09:37:13.013Z</time></trkpt><trkpt lat="44.0684247" lon="12.1315294"><ele>440.5</ele><time>2026-04-12T09:37:14.013Z</time></trkpt><trkpt lat="44.0684189" lon="12.1313268"><ele>440.25</ele><time>2026-04-12T09:37:15.015Z</time></trkpt><trkpt lat="44.0684162" lon="12.1311355"><ele>440.0</ele><time>2026-04-12T09:37:16.014Z</time></trkpt><trkpt lat="44.0684304" lon="12.1309497"><ele>440.0</ele><time>2026-04-12T09:37:17.017Z</time></trkpt><trkpt lat="44.0684709" lon="12.130768"><ele>440.0</ele><time>2026-04-12T09:37:18.013Z</time></trkpt><trkpt lat="44.0685144" lon="12.1305812"><ele>440.0</ele><time>2026-04-12T09:37:19.014Z</time></trkpt><trkpt lat="44.0685399" lon="12.1303828"><ele>440.0</ele><time>2026-04-12T09:37:20.014Z</time></trkpt><trkpt lat="44.0685494" lon="12.130175"><ele>440.0</ele><time>2026-04-12T09:37:21.013Z</time></trkpt><trkpt lat="44.0685379" lon="12.129963"><ele>440.0</ele><time>2026-04-12T09:37:22.013Z</time></trkpt><trkpt lat="44.0685115" lon="12.1297506"><ele>440.0</ele><time>2026-04-12T09:37:23.012Z</time></trkpt><trkpt lat="44.0684731" lon="12.1295392"><ele>441.66666666666663</ele><time>2026-04-12T09:37:24.016Z</time></trkpt><trkpt lat="44.0684308" lon="12.1293275"><ele>443.33333333333337</ele><time>2026-04-12T09:37:25.014Z</time></trkpt><trkpt lat="44.0683818" lon="12.1291233"><ele>445.0</ele><time>2026-04-12T09:37:26.012Z</time></trkpt><trkpt lat="44.0683308" lon="12.1289295"><ele>441.5</ele><time>2026-04-12T09:37:27.011Z</time></trkpt><trkpt lat="44.0682657" lon="12.1287586"><ele>438.0</ele><time>2026-04-12T09:37:28.013Z</time></trkpt><trkpt lat="44.0681949" lon="12.1286106"><ele>434.5</ele><time>2026-04-12T09:37:29.013Z</time></trkpt><trkpt lat="44.0681318" lon="12.128479"><ele>431.0</ele><time>2026-04-12T09:37:30.013Z</time></trkpt><trkpt lat="44.0680787" lon="12.1283634"><ele>431.0</ele><time>2026-04-12T09:37:31.013Z</time></trkpt><trkpt lat="44.0680326" lon="12.1282523"><ele>431.0</ele><time>2026-04-12T09:37:32.011Z</time></trkpt><trkpt lat="44.0680255" lon="12.1281406"><ele>431.0</ele><time>2026-04-12T09:37:33.013Z</time></trkpt><trkpt lat="44.0680441" lon="12.1280367"><ele>431.0</ele><time>2026-04-12T09:37:34.012Z</time></trkpt><trkpt lat="44.0681094" lon="12.127946"><ele>431.0</ele><time>2026-04-12T09:37:35.013Z</time></trkpt><trkpt lat="44.06821" lon="12.1278551"><ele>432.75</ele><time>2026-04-12T09:37:36.013Z</time></trkpt><trkpt lat="44.0683262" lon="12.1277623"><ele>434.5</ele><time>2026-04-12T09:37:37.014Z</time></trkpt><trkpt lat="44.0684469" lon="12.1276627"><ele>436.25</ele><time>2026-04-12T09:37:38.011Z</time></trkpt><trkpt lat="44.0685556" lon="12.1275284"><ele>438.0</ele><time>2026-04-12T09:37:39.015Z</time></trkpt><trkpt lat="44.0686546" lon="12.1273555"><ele>433.0</ele><time>2026-04-12T09:37:40.011Z</time></trkpt><trkpt lat="44.0687491" lon="12.1271698"><ele>428.0</ele><time>2026-04-12T09:37:41.011Z</time></trkpt><trkpt lat="44.0688388" lon="12.126977"><ele>423.0</ele><time>2026-04-12T09:37:42.013Z</time></trkpt><trkpt lat="44.0689193" lon="12.1267685"><ele>420.33333333333337</ele><time>2026-04-12T09:37:43.013Z</time></trkpt><trkpt lat="44.068976" lon="12.1265409"><ele>417.6666666666667</ele><time>2026-04-12T09:37:44.012Z</time></trkpt><trkpt lat="44.0690112" lon="12.1262952"><ele>415.0</ele><time>2026-04-12T09:37:45.012Z</time></trkpt><trkpt lat="44.0690139" lon="12.1260539"><ele>415.0</ele><time>2026-04-12T09:37:46.017Z</time></trkpt><trkpt lat="44.0689989" lon="12.1258325"><ele>415.0</ele><time>2026-04-12T09:37:47.012Z</time></trkpt><trkpt lat="44.0689846" lon="12.1256399"><ele>415.0</ele><time>2026-04-12T09:37:48.011Z</time></trkpt><trkpt lat="44.0689817" lon="12.1254712"><ele>415.0</ele><time>2026-04-12T09:37:49.013Z</time></trkpt><trkpt lat="44.069" lon="12.1253206"><ele>415.00000000000006</ele><time>2026-04-12T09:37:50.013Z</time></trkpt><trkpt lat="44.069044" lon="12.125181"><ele>415.0</ele><time>2026-04-12T09:37:51.012Z</time></trkpt><trkpt lat="44.0691014" lon="12.1250608"><ele>415.0</ele><time>2026-04-12T09:37:52.011Z</time></trkpt><trkpt lat="44.0691597" lon="12.1249648"><ele>415.0</ele><time>2026-04-12T09:37:53.012Z</time></trkpt><trkpt lat="44.0692051" lon="12.1248831"><ele>415.00000000000006</ele><time>2026-04-12T09:37:54.011Z</time></trkpt><trkpt lat="44.0692365" lon="12.1248032"><ele>415.0</ele><time>2026-04-12T09:37:55.016Z</time></trkpt><trkpt lat="44.0692554" lon="12.1246327"><ele>417.2</ele><time>2026-04-12T09:37:57.012Z</time></trkpt><trkpt lat="44.0692337" lon="12.124523"><ele>419.4</ele><time>2026-04-12T09:37:58.015Z</time></trkpt><trkpt lat="44.069215" lon="12.1244029"><ele>421.6</ele><time>2026-04-12T09:37:59.012Z</time></trkpt><trkpt lat="44.0691751" lon="12.1242415"><ele>423.8</ele><time>2026-04-12T09:38:00.014Z</time></trkpt><trkpt lat="44.0691172" lon="12.1240595"><ele>426.0</ele><time>2026-04-12T09:38:01.011Z</time></trkpt><trkpt lat="44.0690659" lon="12.1238654"><ele>426.0</ele><time>2026-04-12T09:38:02.011Z</time></trkpt><trkpt lat="44.0690005" lon="12.1236614"><ele>426.0</ele><time>2026-04-12T09:38:03.013Z</time></trkpt><trkpt lat="44.0689216" lon="12.1234629"><ele>426.0</ele><time>2026-04-12T09:38:04.012Z</time></trkpt><trkpt lat="44.0688464" lon="12.12328"><ele>427.25</ele><time>2026-04-12T09:38:05.012Z</time></trkpt><trkpt lat="44.0687741" lon="12.123129"><ele>428.5</ele><time>2026-04-12T09:38:06.011Z</time></trkpt><trkpt lat="44.068716" lon="12.1229914"><ele>429.75</ele><time>2026-04-12T09:38:07.012Z</time></trkpt><trkpt lat="44.0686773" lon="12.1228535"><ele>431.0</ele><time>2026-04-12T09:38:08.012Z</time></trkpt><trkpt lat="44.0686589" lon="12.1227"><ele>431.0</ele><time>2026-04-12T09:38:09.019Z</time></trkpt><trkpt lat="44.0686568" lon="12.122527"><ele>431.0</ele><time>2026-04-12T09:38:10.011Z</time></trkpt><trkpt lat="44.0686733" lon="12.122344"><ele>431.0</ele><time>2026-04-12T09:38:11.013Z</time></trkpt><trkpt lat="44.0686696" lon="12.1221528"><ele>431.0</ele><time>2026-04-12T09:38:12.011Z</time></trkpt><trkpt lat="44.0686518" lon="12.1219565"><ele>431.0</ele><time>2026-04-12T09:38:13.013Z</time></trkpt><trkpt lat="44.06862" lon="12.1217603"><ele>431.0</ele><time>2026-04-12T09:38:14.015Z</time></trkpt><trkpt lat="44.0685926" lon="12.121567"><ele>431.0</ele><time>2026-04-12T09:38:15.014Z</time></trkpt><trkpt lat="44.0685672" lon="12.1213858"><ele>431.0</ele><time>2026-04-12T09:38:16.016Z</time></trkpt><trkpt lat="44.0685315" lon="12.1212189"><ele>430.66666666666663</ele><time>2026-04-12T09:38:17.012Z</time></trkpt><trkpt lat="44.0684909" lon="12.1210672"><ele>430.3333333333333</ele><time>2026-04-12T09:38:18.012Z</time></trkpt><trkpt lat="44.068454" lon="12.1209393"><ele>430.0</ele><time>2026-04-12T09:38:19.011Z</time></trkpt><trkpt lat="44.0684319" lon="12.120828"><ele>429.66666666666663</ele><time>2026-04-12T09:38:20.012Z</time></trkpt><trkpt lat="44.0684176" lon="12.1207308"><ele>429.3333333333333</ele><time>2026-04-12T09:38:21.014Z</time></trkpt><trkpt lat="44.0684016" lon="12.1206363"><ele>429.0</ele><time>2026-04-12T09:38:22.014Z</time></trkpt><trkpt lat="44.0683673" lon="12.1205482"><ele>426.0</ele><time>2026-04-12T09:38:23.011Z</time></trkpt><trkpt lat="44.0683097" lon="12.1204735"><ele>423.0</ele><time>2026-04-12T09:38:24.013Z</time></trkpt><trkpt lat="44.0682429" lon="12.1204017"><ele>420.0</ele><time>2026-04-12T09:38:25.014Z</time></trkpt><trkpt lat="44.0681863" lon="12.1203194"><ele>417.0</ele><time>2026-04-12T09:38:26.013Z</time></trkpt><trkpt lat="44.0681252" lon="12.1202711"><ele>414.0</ele><time>2026-04-12T09:38:27.014Z</time></trkpt><trkpt lat="44.0680066" lon="12.1202683"><ele>411.0</ele><time>2026-04-12T09:38:29.012Z</time></trkpt><trkpt lat="44.0679226" lon="12.1203603"><ele>410.20000000000005</ele><time>2026-04-12T09:38:31.017Z</time></trkpt><trkpt lat="44.0679059" lon="12.1205287"><ele>409.40000000000003</ele><time>2026-04-12T09:38:33.013Z</time></trkpt><trkpt lat="44.0678368" lon="12.1206581"><ele>408.6</ele><time>2026-04-12T09:38:35.014Z</time></trkpt><trkpt lat="44.0677442" lon="12.1207106"><ele>407.8</ele><time>2026-04-12T09:38:37.016Z</time></trkpt><trkpt lat="44.0676825" lon="12.1206511"><ele>407.0</ele><time>2026-04-12T09:38:38.013Z</time></trkpt><trkpt lat="44.0676335" lon="12.1205526"><ele>407.0</ele><time>2026-04-12T09:38:39.015Z</time></trkpt><trkpt lat="44.0675934" lon="12.1204279"><ele>407.0</ele><time>2026-04-12T09:38:40.013Z</time></trkpt><trkpt lat="44.0675423" lon="12.1203185"><ele>407.0</ele><time>2026-04-12T09:38:41.013Z</time></trkpt><trkpt lat="44.0674685" lon="12.1202314"><ele>407.0</ele><time>2026-04-12T09:38:42.014Z</time></trkpt><trkpt lat="44.0673834" lon="12.1201707"><ele>407.0</ele><time>2026-04-12T09:38:43.012Z</time></trkpt><trkpt lat="44.0672847" lon="12.1201244"><ele>407.40000000000003</ele><time>2026-04-12T09:38:44.018Z</time></trkpt><trkpt lat="44.0671816" lon="12.1200995"><ele>407.8</ele><time>2026-04-12T09:38:45.015Z</time></trkpt><trkpt lat="44.0670931" lon="12.1200538"><ele>408.2</ele><time>2026-04-12T09:38:46.014Z</time></trkpt><trkpt lat="44.0670178" lon="12.1199929"><ele>408.6</ele><time>2026-04-12T09:38:47.013Z</time></trkpt><trkpt lat="44.066952" lon="12.119914"><ele>409.0</ele><time>2026-04-12T09:38:48.012Z</time></trkpt><trkpt lat="44.0669027" lon="12.1198283"><ele>409.0</ele><time>2026-04-12T09:38:49.014Z</time></trkpt><trkpt lat="44.0668937" lon="12.1197142"><ele>409.0</ele><time>2026-04-12T09:38:50.013Z</time></trkpt><trkpt lat="44.0668769" lon="12.1196155"><ele>409.0</ele><time>2026-04-12T09:38:51.014Z</time></trkpt><trkpt lat="44.0668299" lon="12.119549"><ele>409.0</ele><time>2026-04-12T09:38:52.013Z</time></trkpt><trkpt lat="44.0667779" lon="12.1194817"><ele>409.0</ele><time>2026-04-12T09:38:53.014Z</time></trkpt><trkpt lat="44.0667221" lon="12.1194193"><ele>409.0</ele><time>2026-04-12T09:38:54.011Z</time></trkpt><trkpt lat="44.066652" lon="12.1193878"><ele>409.0</ele><time>2026-04-12T09:38:55.012Z</time></trkpt><trkpt lat="44.066579" lon="12.1193928"><ele>412.4</ele><time>2026-04-12T09:38:56.012Z</time></trkpt><trkpt lat="44.0665095" lon="12.1194226"><ele>415.79999999999995</ele><time>2026-04-12T09:38:57.013Z</time></trkpt><trkpt lat="44.0664353" lon="12.1194783"><ele>419.20000000000005</ele><time>2026-04-12T09:38:58.016Z</time></trkpt><trkpt lat="44.06635" lon="12.1195634"><ele>422.6</ele><time>2026-04-12T09:38:59.013Z</time></trkpt><trkpt lat="44.0662492" lon="12.1196461"><ele>426.0</ele><time>2026-04-12T09:39:00.013Z</time></trkpt><trkpt lat="44.066132" lon="12.1197101"><ele>426.0</ele><time>2026-04-12T09:39:01.014Z</time></trkpt><trkpt lat="44.0660088" lon="12.1197741"><ele>426.0</ele><time>2026-04-12T09:39:02.011Z</time></trkpt><trkpt lat="44.0658845" lon="12.1198426"><ele>426.0</ele><time>2026-04-12T09:39:03.013Z</time></trkpt><trkpt lat="44.0657546" lon="12.119915"><ele>426.0</ele><time>2026-04-12T09:39:04.013Z</time></trkpt><trkpt lat="44.0656294" lon="12.1199856"><ele>426.8</ele><time>2026-04-12T09:39:05.011Z</time></trkpt><trkpt lat="44.0655178" lon="12.1200483"><ele>427.6</ele><time>2026-04-12T09:39:06.015Z</time></trkpt><trkpt lat="44.0654172" lon="12.1200981"><ele>428.4</ele><time>2026-04-12T09:39:07.012Z</time></trkpt><trkpt lat="44.0653209" lon="12.1201347"><ele>429.2</ele><time>2026-04-12T09:39:08.014Z</time></trkpt><trkpt lat="44.0652168" lon="12.1201409"><ele>430.0</ele><time>2026-04-12T09:39:09.013Z</time></trkpt><trkpt lat="44.0651035" lon="12.1201099"><ele>430.0</ele><time>2026-04-12T09:39:10.013Z</time></trkpt><trkpt lat="44.0649826" lon="12.1200615"><ele>430.0</ele><time>2026-04-12T09:39:11.013Z</time></trkpt><trkpt lat="44.0648588" lon="12.1199887"><ele>430.0</ele><time>2026-04-12T09:39:12.013Z</time></trkpt><trkpt lat="44.0647379" lon="12.1199065"><ele>430.0</ele><time>2026-04-12T09:39:13.013Z</time></trkpt><trkpt lat="44.0646278" lon="12.1198182"><ele>430.0</ele><time>2026-04-12T09:39:14.013Z</time></trkpt><trkpt lat="44.0645278" lon="12.1197293"><ele>430.0</ele><time>2026-04-12T09:39:15.014Z</time></trkpt><trkpt lat="44.06444" lon="12.1196366"><ele>430.0</ele><time>2026-04-12T09:39:16.012Z</time></trkpt><trkpt lat="44.0643702" lon="12.1195351"><ele>430.0</ele><time>2026-04-12T09:39:17.012Z</time></trkpt><trkpt lat="44.0643253" lon="12.119428"><ele>430.0</ele><time>2026-04-12T09:39:18.011Z</time></trkpt><trkpt lat="44.0643012" lon="12.1193076"><ele>430.0</ele><time>2026-04-12T09:39:19.011Z</time></trkpt><trkpt lat="44.064295" lon="12.1191656"><ele>430.0</ele><time>2026-04-12T09:39:20.012Z</time></trkpt><trkpt lat="44.0642991" lon="12.1190014"><ele>430.0</ele><time>2026-04-12T09:39:21.012Z</time></trkpt><trkpt lat="44.0642887" lon="12.1188309"><ele>430.0</ele><time>2026-04-12T09:39:22.014Z</time></trkpt><trkpt lat="44.0642568" lon="12.1186595"><ele>430.0</ele><time>2026-04-12T09:39:23.012Z</time></trkpt><trkpt lat="44.0642067" lon="12.1184906"><ele>430.0</ele><time>2026-04-12T09:39:24.015Z</time></trkpt><trkpt lat="44.0641465" lon="12.1183319"><ele>430.0</ele><time>2026-04-12T09:39:25.011Z</time></trkpt><trkpt lat="44.0641064" lon="12.1181792"><ele>430.0</ele><time>2026-04-12T09:39:26.012Z</time></trkpt><trkpt lat="44.064079" lon="12.1180328"><ele>430.00000000000006</ele><time>2026-04-12T09:39:27.012Z</time></trkpt><trkpt lat="44.0640639" lon="12.1178963"><ele>430.0</ele><time>2026-04-12T09:39:28.012Z</time></trkpt><trkpt lat="44.0640495" lon="12.1177711"><ele>430.0</ele><time>2026-04-12T09:39:29.012Z</time></trkpt><trkpt lat="44.0640145" lon="12.1176685"><ele>430.0</ele><time>2026-04-12T09:39:30.013Z</time></trkpt><trkpt lat="44.0639674" lon="12.1175932"><ele>430.00000000000006</ele><time>2026-04-12T09:39:31.012Z</time></trkpt><trkpt lat="44.0639006" lon="12.1175338"><ele>430.0</ele><time>2026-04-12T09:39:32.014Z</time></trkpt><trkpt lat="44.0637987" lon="12.1174996"><ele>430.0</ele><time>2026-04-12T09:39:33.012Z</time></trkpt><trkpt lat="44.06368" lon="12.1174497"><ele>430.0</ele><time>2026-04-12T09:39:34.014Z</time></trkpt><trkpt lat="44.0635723" lon="12.1173709"><ele>430.0</ele><time>2026-04-12T09:39:35.011Z</time></trkpt><trkpt lat="44.0634636" lon="12.1172767"><ele>430.0</ele><time>2026-04-12T09:39:36.012Z</time></trkpt><trkpt lat="44.0633588" lon="12.1171567"><ele>430.33333333333337</ele><time>2026-04-12T09:39:37.019Z</time></trkpt><trkpt lat="44.0632564" lon="12.1170029"><ele>430.66666666666663</ele><time>2026-04-12T09:39:38.012Z</time></trkpt><trkpt lat="44.0631573" lon="12.1168256"><ele>431.0</ele><time>2026-04-12T09:39:39.011Z</time></trkpt><trkpt lat="44.0630535" lon="12.1166542"><ele>430.5</ele><time>2026-04-12T09:39:40.012Z</time></trkpt><trkpt lat="44.0629458" lon="12.1165018"><ele>430.0</ele><time>2026-04-12T09:39:41.012Z</time></trkpt><trkpt lat="44.0628444" lon="12.1163736"><ele>429.5</ele><time>2026-04-12T09:39:42.013Z</time></trkpt><trkpt lat="44.0627418" lon="12.1162738"><ele>429.0</ele><time>2026-04-12T09:39:43.012Z</time></trkpt><trkpt lat="44.0626411" lon="12.1161877"><ele>429.0</ele><time>2026-04-12T09:39:44.012Z</time></trkpt><trkpt lat="44.0625369" lon="12.1161404"><ele>429.0</ele><time>2026-04-12T09:39:45.013Z</time></trkpt><trkpt lat="44.0624305" lon="12.1161284"><ele>429.0</ele><time>2026-04-12T09:39:46.012Z</time></trkpt><trkpt lat="44.0623244" lon="12.1161478"><ele>429.0</ele><time>2026-04-12T09:39:47.012Z</time></trkpt><trkpt lat="44.0622175" lon="12.1161944"><ele>429.0</ele><time>2026-04-12T09:39:48.014Z</time></trkpt><trkpt lat="44.0621125" lon="12.1162706"><ele>431.0</ele><time>2026-04-12T09:39:49.012Z</time></trkpt><trkpt lat="44.0620204" lon="12.1163551"><ele>433.0</ele><time>2026-04-12T09:39:50.011Z</time></trkpt><trkpt lat="44.0619388" lon="12.1164037"><ele>435.0</ele><time>2026-04-12T09:39:51.014Z</time></trkpt><trkpt lat="44.0618538" lon="12.1163946"><ele>437.0</ele><time>2026-04-12T09:39:52.014Z</time></trkpt><trkpt lat="44.0617886" lon="12.116363"><ele>439.0</ele><time>2026-04-12T09:39:53.012Z</time></trkpt><trkpt lat="44.0617218" lon="12.1162309"><ele>439.00000000000006</ele><time>2026-04-12T09:39:55.012Z</time></trkpt><trkpt lat="44.0617119" lon="12.1161369"><ele>439.0</ele><time>2026-04-12T09:39:56.014Z</time></trkpt><trkpt lat="44.0617142" lon="12.1160394"><ele>439.0</ele><time>2026-04-12T09:39:57.013Z</time></trkpt><trkpt lat="44.0617253" lon="12.115918"><ele>439.0</ele><time>2026-04-12T09:39:58.012Z</time></trkpt><trkpt lat="44.0617158" lon="12.1158065"><ele>439.00000000000006</ele><time>2026-04-12T09:39:59.016Z</time></trkpt><trkpt lat="44.0616819" lon="12.1157054"><ele>439.0</ele><time>2026-04-12T09:40:00.011Z</time></trkpt><trkpt lat="44.0615992" lon="12.115616"><ele>439.0</ele><time>2026-04-12T09:40:01.013Z</time></trkpt><trkpt lat="44.0614865" lon="12.115533"><ele>439.0</ele><time>2026-04-12T09:40:02.014Z</time></trkpt><trkpt lat="44.0613561" lon="12.1154255"><ele>439.0</ele><time>2026-04-12T09:40:03.013Z</time></trkpt><trkpt lat="44.0612192" lon="12.115319"><ele>439.0</ele><time>2026-04-12T09:40:04.012Z</time></trkpt><trkpt lat="44.0611014" lon="12.115184"><ele>439.0</ele><time>2026-04-12T09:40:05.011Z</time></trkpt><trkpt lat="44.0609987" lon="12.1150366"><ele>439.0</ele><time>2026-04-12T09:40:06.011Z</time></trkpt><trkpt lat="44.060923" lon="12.1148809"><ele>439.0</ele><time>2026-04-12T09:40:07.012Z</time></trkpt><trkpt lat="44.0608607" lon="12.1147457"><ele>439.0</ele><time>2026-04-12T09:40:08.012Z</time></trkpt><trkpt lat="44.060815" lon="12.1146347"><ele>439.0</ele><time>2026-04-12T09:40:09.013Z</time></trkpt><trkpt lat="44.0607761" lon="12.1145455"><ele>439.0</ele><time>2026-04-12T09:40:10.012Z</time></trkpt><trkpt lat="44.0607326" lon="12.1144254"><ele>439.0</ele><time>2026-04-12T09:40:12.013Z</time></trkpt><trkpt lat="44.0606483" lon="12.1142017"><ele>439.0</ele><time>2026-04-12T09:41:40.013Z</time></trkpt><trkpt lat="44.0606067" lon="12.1141283"><ele>439.0</ele><time>2026-04-12T09:41:41.013Z</time></trkpt><trkpt lat="44.060555" lon="12.11405"><ele>439.0</ele><time>2026-04-12T09:41:42.012Z</time></trkpt><trkpt lat="44.0605117" lon="12.11398"><ele>439.0</ele><time>2026-04-12T09:41:43.013Z</time></trkpt><trkpt lat="44.0604633" lon="12.1139117"><ele>439.0</ele><time>2026-04-12T09:41:44.014Z</time></trkpt><trkpt lat="44.060415" lon="12.1138517"><ele>439.0</ele><time>2026-04-12T09:41:45.014Z</time></trkpt><trkpt lat="44.0603633" lon="12.113795"><ele>439.0</ele><time>2026-04-12T09:41:46.013Z</time></trkpt><trkpt lat="44.0603033" lon="12.11373"><ele>439.0</ele><time>2026-04-12T09:41:47.014Z</time></trkpt><trkpt lat="44.0602317" lon="12.11366"><ele>439.0</ele><time>2026-04-12T09:41:48.013Z</time></trkpt><trkpt lat="44.060155" lon="12.1135717"><ele>439.0</ele><time>2026-04-12T09:41:49.013Z</time></trkpt><trkpt lat="44.060095" lon="12.1134667"><ele>439.0</ele><time>2026-04-12T09:41:50.013Z</time></trkpt><trkpt lat="44.060055" lon="12.1133433"><ele>439.0</ele><time>2026-04-12T09:41:51.015Z</time></trkpt><trkpt lat="44.06004" lon="12.1132167"><ele>439.0</ele><time>2026-04-12T09:41:52.011Z</time></trkpt><trkpt lat="44.060055" lon="12.1130867"><ele>439.0</ele><time>2026-04-12T09:41:53.012Z</time></trkpt><trkpt lat="44.0600933" lon="12.1129533"><ele>438.00000000000006</ele><time>2026-04-12T09:41:54.013Z</time></trkpt><trkpt lat="44.060135" lon="12.112835"><ele>437.0</ele><time>2026-04-12T09:41:55.013Z</time></trkpt><trkpt lat="44.0601583" lon="12.1127083"><ele>436.0</ele><time>2026-04-12T09:41:56.014Z</time></trkpt><trkpt lat="44.0601533" lon="12.1125933"><ele>435.0</ele><time>2026-04-12T09:41:57.015Z</time></trkpt><trkpt lat="44.06013" lon="12.1124817"><ele>434.00000000000006</ele><time>2026-04-12T09:41:58.012Z</time></trkpt><trkpt lat="44.0600867" lon="12.1123733"><ele>433.0</ele><time>2026-04-12T09:41:59.013Z</time></trkpt><trkpt lat="44.06003" lon="12.1122683"><ele>430.25</ele><time>2026-04-12T09:42:00.015Z</time></trkpt><trkpt lat="44.0599417" lon="12.1121667"><ele>427.5</ele><time>2026-04-12T09:42:01.011Z</time></trkpt><trkpt lat="44.059835" lon="12.112065"><ele>424.75</ele><time>2026-04-12T09:42:02.011Z</time></trkpt><trkpt lat="44.0597367" lon="12.111965"><ele>422.0</ele><time>2026-04-12T09:42:03.013Z</time></trkpt><trkpt lat="44.059645" lon="12.11186"><ele>422.0</ele><time>2026-04-12T09:42:04.013Z</time></trkpt><trkpt lat="44.0595467" lon="12.111765"><ele>422.0</ele><time>2026-04-12T09:42:05.013Z</time></trkpt><trkpt lat="44.0594483" lon="12.1116933"><ele>422.0</ele><time>2026-04-12T09:42:06.019Z</time></trkpt><trkpt lat="44.0593517" lon="12.111635"><ele>422.0</ele><time>2026-04-12T09:42:07.014Z</time></trkpt><trkpt lat="44.05925" lon="12.111585"><ele>422.0</ele><time>2026-04-12T09:42:08.013Z</time></trkpt><trkpt lat="44.0591567" lon="12.1115133"><ele>417.3333333333333</ele><time>2026-04-12T09:42:09.013Z</time></trkpt><trkpt lat="44.059085" lon="12.111425"><ele>412.66666666666663</ele><time>2026-04-12T09:42:10.012Z</time></trkpt><trkpt lat="44.059025" lon="12.11132"><ele>408.0</ele><time>2026-04-12T09:42:11.012Z</time></trkpt><trkpt lat="44.058985" lon="12.1112017"><ele>403.33333333333337</ele><time>2026-04-12T09:42:12.013Z</time></trkpt><trkpt lat="44.0589717" lon="12.1110917"><ele>398.6666666666667</ele><time>2026-04-12T09:42:13.013Z</time></trkpt><trkpt lat="44.05898" lon="12.11099"><ele>394.0</ele><time>2026-04-12T09:42:14.012Z</time></trkpt><trkpt lat="44.05901" lon="12.1108733"><ele>394.0</ele><time>2026-04-12T09:42:15.012Z</time></trkpt><trkpt lat="44.0590783" lon="12.11076"><ele>394.0</ele><time>2026-04-12T09:42:16.012Z</time></trkpt><trkpt lat="44.0591867" lon="12.1106533"><ele>394.0</ele><time>2026-04-12T09:42:17.013Z</time></trkpt><trkpt lat="44.059285" lon="12.1105483"><ele>394.0</ele><time>2026-04-12T09:42:18.011Z</time></trkpt><trkpt lat="44.0593867" lon="12.1104533"><ele>396.5</ele><time>2026-04-12T09:42:19.014Z</time></trkpt><trkpt lat="44.0594917" lon="12.11036"><ele>399.0</ele><time>2026-04-12T09:42:20.014Z</time></trkpt><trkpt lat="44.0595917" lon="12.11028"><ele>401.5</ele><time>2026-04-12T09:42:21.014Z</time></trkpt><trkpt lat="44.0596933" lon="12.1102"><ele>404.0</ele><time>2026-04-12T09:42:22.011Z</time></trkpt><trkpt lat="44.0597933" lon="12.1101083"><ele>404.0</ele><time>2026-04-12T09:42:23.011Z</time></trkpt><trkpt lat="44.0598917" lon="12.1100117"><ele>404.0</ele><time>2026-04-12T09:42:24.012Z</time></trkpt><trkpt lat="44.0599767" lon="12.1099133"><ele>404.0</ele><time>2026-04-12T09:42:25.011Z</time></trkpt><trkpt lat="44.0600433" lon="12.1098017"><ele>404.0</ele><time>2026-04-12T09:42:26.012Z</time></trkpt><trkpt lat="44.0601067" lon="12.1096767"><ele>404.0</ele><time>2026-04-12T09:42:27.012Z</time></trkpt><trkpt lat="44.060135" lon="12.1095433"><ele>402.4</ele><time>2026-04-12T09:42:28.013Z</time></trkpt><trkpt lat="44.0601267" lon="12.1094183"><ele>400.79999999999995</ele><time>2026-04-12T09:42:29.014Z</time></trkpt><trkpt lat="44.0601017" lon="12.1092983"><ele>399.20000000000005</ele><time>2026-04-12T09:42:30.013Z</time></trkpt><trkpt lat="44.060045" lon="12.10918"><ele>397.6</ele><time>2026-04-12T09:42:31.013Z</time></trkpt><trkpt lat="44.0599617" lon="12.1090767"><ele>396.0</ele><time>2026-04-12T09:42:32.013Z</time></trkpt><trkpt lat="44.0598783" lon="12.10898"><ele>395.25</ele><time>2026-04-12T09:42:33.013Z</time></trkpt><trkpt lat="44.0598017" lon="12.108875"><ele>394.5</ele><time>2026-04-12T09:42:34.013Z</time></trkpt><trkpt lat="44.0597417" lon="12.10874"><ele>393.75</ele><time>2026-04-12T09:42:35.013Z</time></trkpt><trkpt lat="44.0596983" lon="12.108565"><ele>393.0</ele><time>2026-04-12T09:42:36.012Z</time></trkpt><trkpt lat="44.0596817" lon="12.108345"><ele>391.0</ele><time>2026-04-12T09:42:37.011Z</time></trkpt><trkpt lat="44.05967" lon="12.1081267"><ele>389.0</ele><time>2026-04-12T09:42:38.011Z</time></trkpt><trkpt lat="44.0596783" lon="12.1079117"><ele>387.0</ele><time>2026-04-12T09:42:39.012Z</time></trkpt><trkpt lat="44.059695" lon="12.1077183"><ele>387.0</ele><time>2026-04-12T09:42:40.018Z</time></trkpt><trkpt lat="44.0597083" lon="12.1075617"><ele>387.0</ele><time>2026-04-12T09:42:41.012Z</time></trkpt><trkpt lat="44.0597017" lon="12.1074333"><ele>387.0</ele><time>2026-04-12T09:42:42.011Z</time></trkpt><trkpt lat="44.0596617" lon="12.1073233"><ele>387.0</ele><time>2026-04-12T09:42:43.012Z</time></trkpt><trkpt lat="44.05961" lon="12.1072217"><ele>387.0</ele><time>2026-04-12T09:42:44.015Z</time></trkpt><trkpt lat="44.05955" lon="12.107125"><ele>383.25</ele><time>2026-04-12T09:42:45.014Z</time></trkpt><trkpt lat="44.0594667" lon="12.1070333"><ele>379.5</ele><time>2026-04-12T09:42:46.011Z</time></trkpt><trkpt lat="44.0593683" lon="12.1069017"><ele>375.75</ele><time>2026-04-12T09:42:47.016Z</time></trkpt><trkpt lat="44.0592883" lon="12.1067633"><ele>372.0</ele><time>2026-04-12T09:42:48.014Z</time></trkpt><trkpt lat="44.0592133" lon="12.1066183"><ele>370.0</ele><time>2026-04-12T09:42:49.017Z</time></trkpt><trkpt lat="44.0591433" lon="12.106465"><ele>368.0</ele><time>2026-04-12T09:42:50.015Z</time></trkpt><trkpt lat="44.0591067" lon="12.1063033"><ele>366.0</ele><time>2026-04-12T09:42:51.014Z</time></trkpt><trkpt lat="44.0590867" lon="12.106135"><ele>364.0</ele><time>2026-04-12T09:42:52.015Z</time></trkpt><trkpt lat="44.0590633" lon="12.1059783"><ele>362.5</ele><time>2026-04-12T09:42:53.013Z</time></trkpt><trkpt lat="44.0590083" lon="12.105845"><ele>361.0</ele><time>2026-04-12T09:42:54.014Z</time></trkpt><trkpt lat="44.0589317" lon="12.1057183"><ele>359.5</ele><time>2026-04-12T09:42:55.014Z</time></trkpt><trkpt lat="44.0588517" lon="12.10559"><ele>358.0</ele><time>2026-04-12T09:42:56.014Z</time></trkpt><trkpt lat="44.0587733" lon="12.105465"><ele>357.59999999999997</ele><time>2026-04-12T09:42:57.013Z</time></trkpt><trkpt lat="44.05872" lon="12.1053233"><ele>357.2</ele><time>2026-04-12T09:42:58.014Z</time></trkpt><trkpt lat="44.0586817" lon="12.1051767"><ele>356.8</ele><time>2026-04-12T09:42:59.015Z</time></trkpt><trkpt lat="44.058675" lon="12.105025"><ele>356.4</ele><time>2026-04-12T09:43:00.013Z</time></trkpt><trkpt lat="44.0586933" lon="12.104875"><ele>356.0</ele><time>2026-04-12T09:43:01.013Z</time></trkpt><trkpt lat="44.058735" lon="12.10472"><ele>354.0</ele><time>2026-04-12T09:43:02.014Z</time></trkpt><trkpt lat="44.058795" lon="12.1045683"><ele>352.0</ele><time>2026-04-12T09:43:03.015Z</time></trkpt><trkpt lat="44.0588733" lon="12.1044283"><ele>350.0</ele><time>2026-04-12T09:43:04.014Z</time></trkpt><trkpt lat="44.0589567" lon="12.10429"><ele>348.0</ele><time>2026-04-12T09:43:05.013Z</time></trkpt><trkpt lat="44.059035" lon="12.1041467"><ele>349.3333333333333</ele><time>2026-04-12T09:43:06.016Z</time></trkpt><trkpt lat="44.0591033" lon="12.1039733"><ele>350.66666666666663</ele><time>2026-04-12T09:43:07.013Z</time></trkpt><trkpt lat="44.0591654" lon="12.10378"><ele>352.0</ele><time>2026-04-12T09:43:08.013Z</time></trkpt><trkpt lat="44.0592229" lon="12.1035729"><ele>352.0</ele><time>2026-04-12T09:43:09.015Z</time></trkpt><trkpt lat="44.0592761" lon="12.1033653"><ele>352.0</ele><time>2026-04-12T09:43:10.012Z</time></trkpt><trkpt lat="44.0593169" lon="12.1031611"><ele>352.0</ele><time>2026-04-12T09:43:11.013Z</time></trkpt><trkpt lat="44.0593374" lon="12.1029589"><ele>351.25</ele><time>2026-04-12T09:43:12.014Z</time></trkpt><trkpt lat="44.0593381" lon="12.102756"><ele>350.5</ele><time>2026-04-12T09:43:13.014Z</time></trkpt><trkpt lat="44.0593284" lon="12.102554"><ele>349.75</ele><time>2026-04-12T09:43:14.015Z</time></trkpt><trkpt lat="44.0593093" lon="12.1023529"><ele>349.0</ele><time>2026-04-12T09:43:15.014Z</time></trkpt><trkpt lat="44.0592903" lon="12.10216"><ele>348.25</ele><time>2026-04-12T09:43:16.012Z</time></trkpt><trkpt lat="44.0592643" lon="12.1019817"><ele>347.5</ele><time>2026-04-12T09:43:17.013Z</time></trkpt><trkpt lat="44.0592306" lon="12.1018128"><ele>346.75</ele><time>2026-04-12T09:43:18.014Z</time></trkpt><trkpt lat="44.0592003" lon="12.1016459"><ele>346.0</ele><time>2026-04-12T09:43:19.013Z</time></trkpt><trkpt lat="44.0591819" lon="12.1014722"><ele>344.5</ele><time>2026-04-12T09:43:20.012Z</time></trkpt><trkpt lat="44.059175" lon="12.1012881"><ele>343.0</ele><time>2026-04-12T09:43:21.014Z</time></trkpt><trkpt lat="44.059174" lon="12.101088"><ele>341.5</ele><time>2026-04-12T09:43:22.012Z</time></trkpt><trkpt lat="44.0591802" lon="12.1008728"><ele>340.0</ele><time>2026-04-12T09:43:23.015Z</time></trkpt><trkpt lat="44.0591876" lon="12.1006533"><ele>336.3333333333333</ele><time>2026-04-12T09:43:24.013Z</time></trkpt><trkpt lat="44.0591959" lon="12.1004265"><ele>332.6666666666667</ele><time>2026-04-12T09:43:25.012Z</time></trkpt><trkpt lat="44.0592038" lon="12.1001985"><ele>329.0</ele><time>2026-04-12T09:43:26.012Z</time></trkpt><trkpt lat="44.0592057" lon="12.0999704"><ele>327.0</ele><time>2026-04-12T09:43:27.013Z</time></trkpt><trkpt lat="44.059191" lon="12.0997536"><ele>325.0</ele><time>2026-04-12T09:43:28.014Z</time></trkpt><trkpt lat="44.0591615" lon="12.0995405"><ele>323.0</ele><time>2026-04-12T09:43:29.014Z</time></trkpt><trkpt lat="44.0591295" lon="12.0993272"><ele>317.0</ele><time>2026-04-12T09:43:30.012Z</time></trkpt><trkpt lat="44.059106" lon="12.0991155"><ele>311.0</ele><time>2026-04-12T09:43:31.013Z</time></trkpt><trkpt lat="44.0591011" lon="12.0989053"><ele>305.0</ele><time>2026-04-12T09:43:32.015Z</time></trkpt><trkpt lat="44.0591115" lon="12.0986979"><ele>303.75</ele><time>2026-04-12T09:43:33.014Z</time></trkpt><trkpt lat="44.0591296" lon="12.0984961"><ele>302.5</ele><time>2026-04-12T09:43:34.014Z</time></trkpt><trkpt lat="44.0591505" lon="12.0983075"><ele>301.25</ele><time>2026-04-12T09:43:35.013Z</time></trkpt><trkpt lat="44.0591719" lon="12.0981407"><ele>300.0</ele><time>2026-04-12T09:43:36.014Z</time></trkpt><trkpt lat="44.0592028" lon="12.0980015"><ele>300.0</ele><time>2026-04-12T09:43:37.013Z</time></trkpt><trkpt lat="44.0592499" lon="12.0978835"><ele>300.0</ele><time>2026-04-12T09:43:38.015Z</time></trkpt><trkpt lat="44.0593204" lon="12.0977981"><ele>300.0</ele><time>2026-04-12T09:43:39.013Z</time></trkpt><trkpt lat="44.0594077" lon="12.0977555"><ele>300.0</ele><time>2026-04-12T09:43:40.014Z</time></trkpt><trkpt lat="44.059501" lon="12.0977546"><ele>300.0</ele><time>2026-04-12T09:43:41.013Z</time></trkpt><trkpt lat="44.059588" lon="12.0977694"><ele>300.0</ele><time>2026-04-12T09:43:42.013Z</time></trkpt><trkpt lat="44.0596595" lon="12.0977863"><ele>300.0</ele><time>2026-04-12T09:43:43.013Z</time></trkpt><trkpt lat="44.0597357" lon="12.0978144"><ele>300.0</ele><time>2026-04-12T09:43:45.013Z</time></trkpt><trkpt lat="44.0596735" lon="12.0977051"><ele>300.0</ele><time>2026-04-12T09:43:51.014Z</time></trkpt><trkpt lat="44.0596203" lon="12.0976573"><ele>300.0</ele><time>2026-04-12T09:43:52.012Z</time></trkpt><trkpt lat="44.0595531" lon="12.0976078"><ele>300.0</ele><time>2026-04-12T09:43:53.012Z</time></trkpt><trkpt lat="44.0594791" lon="12.097557"><ele>300.0</ele><time>2026-04-12T09:43:54.012Z</time></trkpt><trkpt lat="44.0593863" lon="12.0974994"><ele>300.0</ele><time>2026-04-12T09:43:55.013Z</time></trkpt><trkpt lat="44.0592881" lon="12.097442"><ele>300.0</ele><time>2026-04-12T09:43:56.014Z</time></trkpt><trkpt lat="44.0591892" lon="12.0973827"><ele>300.0</ele><time>2026-04-12T09:43:57.016Z</time></trkpt><trkpt lat="44.0590922" lon="12.0973212"><ele>300.0</ele><time>2026-04-12T09:43:58.012Z</time></trkpt><trkpt lat="44.059" lon="12.0972501"><ele>296.6666666666667</ele><time>2026-04-12T09:43:59.011Z</time></trkpt><trkpt lat="44.0589172" lon="12.097174"><ele>293.3333333333333</ele><time>2026-04-12T09:44:00.014Z</time></trkpt><trkpt lat="44.0588414" lon="12.097089"><ele>290.0</ele><time>2026-04-12T09:44:01.012Z</time></trkpt><trkpt lat="44.058772" lon="12.0970047"><ele>286.66666666666663</ele><time>2026-04-12T09:44:02.012Z</time></trkpt><trkpt lat="44.0587058" lon="12.0969266"><ele>283.3333333333333</ele><time>2026-04-12T09:44:03.012Z</time></trkpt><trkpt lat="44.0586466" lon="12.0968655"><ele>280.0</ele><time>2026-04-12T09:44:04.01Z</time></trkpt><trkpt lat="44.0585929" lon="12.0968182"><ele>280.0</ele><time>2026-04-12T09:44:05.015Z</time></trkpt><trkpt lat="44.0585024" lon="12.0967758"><ele>280.0</ele><time>2026-04-12T09:44:07.011Z</time></trkpt><trkpt lat="44.0584132" lon="12.0967061"><ele>280.0</ele><time>2026-04-12T09:44:09.011Z</time></trkpt><trkpt lat="44.0583564" lon="12.0965566"><ele>280.0</ele><time>2026-04-12T09:44:11.013Z</time></trkpt><trkpt lat="44.0583581" lon="12.0963863"><ele>280.0</ele><time>2026-04-12T09:44:13.012Z</time></trkpt><trkpt lat="44.0583473" lon="12.0962091"><ele>277.85714285714283</ele><time>2026-04-12T09:44:15.01Z</time></trkpt><trkpt lat="44.0583281" lon="12.0961148"><ele>275.7142857142857</ele><time>2026-04-12T09:44:16.011Z</time></trkpt><trkpt lat="44.0583062" lon="12.0960163"><ele>273.57142857142856</ele><time>2026-04-12T09:44:17.015Z</time></trkpt><trkpt lat="44.0582886" lon="12.0959156"><ele>271.42857142857144</ele><time>2026-04-12T09:44:18.012Z</time></trkpt><trkpt lat="44.0582747" lon="12.0958174"><ele>269.2857142857143</ele><time>2026-04-12T09:44:19.012Z</time></trkpt><trkpt lat="44.0582686" lon="12.0957154"><ele>267.1428571428571</ele><time>2026-04-12T09:44:20.012Z</time></trkpt><trkpt lat="44.0582707" lon="12.0956127"><ele>265.0</ele><time>2026-04-12T09:44:21.012Z</time></trkpt><trkpt lat="44.0582791" lon="12.0955101"><ele>263.99999999999994</ele><time>2026-04-12T09:44:22.015Z</time></trkpt><trkpt lat="44.0582948" lon="12.0954066"><ele>263.0</ele><time>2026-04-12T09:44:23.013Z</time></trkpt><trkpt lat="44.0583154" lon="12.0953073"><ele>262.0</ele><time>2026-04-12T09:44:24.012Z</time></trkpt><trkpt lat="44.0583441" lon="12.0952177"><ele>261.0</ele><time>2026-04-12T09:44:25.013Z</time></trkpt><trkpt lat="44.0583832" lon="12.0951349"><ele>260.0</ele><time>2026-04-12T09:44:26.012Z</time></trkpt><trkpt lat="44.0584272" lon="12.0950523"><ele>258.99999999999994</ele><time>2026-04-12T09:44:27.014Z</time></trkpt><trkpt lat="44.0584715" lon="12.0949706"><ele>258.0</ele><time>2026-04-12T09:44:28.011Z</time></trkpt><trkpt lat="44.0585164" lon="12.0948924"><ele>256.0</ele><time>2026-04-12T09:44:29.011Z</time></trkpt><trkpt lat="44.0585572" lon="12.0948159"><ele>254.0</ele><time>2026-04-12T09:44:30.012Z</time></trkpt><trkpt lat="44.0586036" lon="12.0946673"><ele>252.0</ele><time>2026-04-12T09:44:32.015Z</time></trkpt><trkpt lat="44.0585948" lon="12.0944767"><ele>250.0</ele><time>2026-04-12T09:44:34.011Z</time></trkpt><trkpt lat="44.058563" lon="12.0943649"><ele>248.0</ele><time>2026-04-12T09:44:35.012Z</time></trkpt><trkpt lat="44.0585173" lon="12.0942513"><ele>248.0</ele><time>2026-04-12T09:44:36.012Z</time></trkpt><trkpt lat="44.0584753" lon="12.0941405"><ele>248.00000000000003</ele><time>2026-04-12T09:44:37.012Z</time></trkpt><trkpt lat="44.0584467" lon="12.0940375"><ele>248.0</ele><time>2026-04-12T09:44:38.011Z</time></trkpt><trkpt lat="44.0584198" lon="12.0939498"><ele>248.0</ele><time>2026-04-12T09:44:39.012Z</time></trkpt><trkpt lat="44.0583884" lon="12.0938676"><ele>248.00000000000003</ele><time>2026-04-12T09:44:40.013Z</time></trkpt><trkpt lat="44.0583464" lon="12.0937983"><ele>248.0</ele><time>2026-04-12T09:44:41.012Z</time></trkpt><trkpt lat="44.0582923" lon="12.0937325"><ele>248.0</ele><time>2026-04-12T09:44:42.013Z</time></trkpt><trkpt lat="44.0582351" lon="12.0936679"><ele>244.33333333333334</ele><time>2026-04-12T09:44:43.011Z</time></trkpt><trkpt lat="44.0581719" lon="12.0936062"><ele>240.66666666666669</ele><time>2026-04-12T09:44:44.016Z</time></trkpt><trkpt lat="44.0581053" lon="12.0935432"><ele>237.0</ele><time>2026-04-12T09:44:45.011Z</time></trkpt><trkpt lat="44.0580415" lon="12.0934881"><ele>233.33333333333331</ele><time>2026-04-12T09:44:46.012Z</time></trkpt><trkpt lat="44.0579813" lon="12.0934469"><ele>229.66666666666666</ele><time>2026-04-12T09:44:47.012Z</time></trkpt><trkpt lat="44.0578705" lon="12.0934115"><ele>226.0</ele><time>2026-04-12T09:44:49.016Z</time></trkpt><trkpt lat="44.057749" lon="12.0934405"><ele>226.0</ele><time>2026-04-12T09:44:51.012Z</time></trkpt><trkpt lat="44.0576702" lon="12.0934774"><ele>226.00000000000003</ele><time>2026-04-12T09:44:52.012Z</time></trkpt><trkpt lat="44.0575856" lon="12.0935112"><ele>226.00000000000003</ele><time>2026-04-12T09:44:53.01Z</time></trkpt><trkpt lat="44.0574963" lon="12.0935437"><ele>226.0</ele><time>2026-04-12T09:44:54.01Z</time></trkpt><trkpt lat="44.0574053" lon="12.093579"><ele>226.0</ele><time>2026-04-12T09:44:55.013Z</time></trkpt><trkpt lat="44.0573124" lon="12.0936139"><ele>222.8</ele><time>2026-04-12T09:44:56.017Z</time></trkpt><trkpt lat="44.0572161" lon="12.0936469"><ele>219.60000000000002</ele><time>2026-04-12T09:44:57.013Z</time></trkpt><trkpt lat="44.0571173" lon="12.0936833"><ele>216.4</ele><time>2026-04-12T09:44:58.012Z</time></trkpt><trkpt lat="44.0570177" lon="12.0937312"><ele>213.2</ele><time>2026-04-12T09:44:59.013Z</time></trkpt><trkpt lat="44.0569214" lon="12.0937753"><ele>210.0</ele><time>2026-04-12T09:45:00.011Z</time></trkpt><trkpt lat="44.0568262" lon="12.0938139"><ele>210.0</ele><time>2026-04-12T09:45:01.011Z</time></trkpt><trkpt lat="44.0567342" lon="12.0938543"><ele>210.0</ele><time>2026-04-12T09:45:02.011Z</time></trkpt><trkpt lat="44.0566428" lon="12.0938895"><ele>210.0</ele><time>2026-04-12T09:45:03.011Z</time></trkpt><trkpt lat="44.0565542" lon="12.0939073"><ele>210.0</ele><time>2026-04-12T09:45:04.012Z</time></trkpt><trkpt lat="44.0564637" lon="12.0939039"><ele>210.0</ele><time>2026-04-12T09:45:05.015Z</time></trkpt><trkpt lat="44.0563779" lon="12.0938833"><ele>207.66666666666666</ele><time>2026-04-12T09:45:06.011Z</time></trkpt><trkpt lat="44.0563011" lon="12.0938468"><ele>205.33333333333331</ele><time>2026-04-12T09:45:07.012Z</time></trkpt><trkpt lat="44.0562297" lon="12.0938103"><ele>203.0</ele><time>2026-04-12T09:45:08.013Z</time></trkpt><trkpt lat="44.0561671" lon="12.0937791"><ele>200.66666666666666</ele><time>2026-04-12T09:45:09.015Z</time></trkpt><trkpt lat="44.0560698" lon="12.0937149"><ele>198.33333333333331</ele><time>2026-04-12T09:45:11.012Z</time></trkpt><trkpt lat="44.0560125" lon="12.0936183"><ele>196.0</ele><time>2026-04-12T09:45:13.013Z</time></trkpt><trkpt lat="44.0560396" lon="12.0934756"><ele>195.99999999999997</ele><time>2026-04-12T09:45:15.014Z</time></trkpt><trkpt lat="44.0560716" lon="12.093395"><ele>196.0</ele><time>2026-04-12T09:45:16.012Z</time></trkpt><trkpt lat="44.0561077" lon="12.0933022"><ele>196.0</ele><time>2026-04-12T09:45:17.012Z</time></trkpt><trkpt lat="44.0561485" lon="12.0931924"><ele>196.0</ele><time>2026-04-12T09:45:18.013Z</time></trkpt><trkpt lat="44.0561871" lon="12.0930667"><ele>195.99999999999997</ele><time>2026-04-12T09:45:19.013Z</time></trkpt><trkpt lat="44.0562136" lon="12.0929267"><ele>196.0</ele><time>2026-04-12T09:45:20.019Z</time></trkpt><trkpt lat="44.0562336" lon="12.0927846"><ele>193.8</ele><time>2026-04-12T09:45:21.011Z</time></trkpt><trkpt lat="44.0562507" lon="12.0926394"><ele>191.60000000000002</ele><time>2026-04-12T09:45:22.01Z</time></trkpt><trkpt lat="44.0562751" lon="12.0924982"><ele>189.4</ele><time>2026-04-12T09:45:23.011Z</time></trkpt><trkpt lat="44.0563031" lon="12.0923628"><ele>187.2</ele><time>2026-04-12T09:45:24.013Z</time></trkpt><trkpt lat="44.0563321" lon="12.0922375"><ele>185.0</ele><time>2026-04-12T09:45:25.017Z</time></trkpt><trkpt lat="44.0563625" lon="12.092125"><ele>183.0</ele><time>2026-04-12T09:45:26.011Z</time></trkpt><trkpt lat="44.0563902" lon="12.0920238"><ele>181.0</ele><time>2026-04-12T09:45:27.011Z</time></trkpt><trkpt lat="44.0564112" lon="12.0919383"><ele>179.0</ele><time>2026-04-12T09:45:28.011Z</time></trkpt><trkpt lat="44.0564363" lon="12.0918031"><ele>177.0</ele><time>2026-04-12T09:45:30.012Z</time></trkpt><trkpt lat="44.056415" lon="12.0916812"><ele>175.0</ele><time>2026-04-12T09:45:32.015Z</time></trkpt><trkpt lat="44.056337" lon="12.0915878"><ele>173.0</ele><time>2026-04-12T09:45:34.011Z</time></trkpt><trkpt lat="44.0562659" lon="12.0915623"><ele>173.0</ele><time>2026-04-12T09:45:35.012Z</time></trkpt><trkpt lat="44.0561848" lon="12.0915495"><ele>173.0</ele><time>2026-04-12T09:45:36.012Z</time></trkpt><trkpt lat="44.0561065" lon="12.0915422"><ele>173.0</ele><time>2026-04-12T09:45:37.011Z</time></trkpt><trkpt lat="44.0560274" lon="12.0915392"><ele>173.0</ele><time>2026-04-12T09:45:38.012Z</time></trkpt><trkpt lat="44.05595" lon="12.0915521"><ele>173.0</ele><time>2026-04-12T09:45:39.014Z</time></trkpt><trkpt lat="44.0558801" lon="12.0915796"><ele>173.0</ele><time>2026-04-12T09:45:40.013Z</time></trkpt><trkpt lat="44.0558082" lon="12.0916198"><ele>169.83333333333331</ele><time>2026-04-12T09:45:41.017Z</time></trkpt><trkpt lat="44.0557403" lon="12.0916703"><ele>166.66666666666666</ele><time>2026-04-12T09:45:42.013Z</time></trkpt><trkpt lat="44.0556747" lon="12.0917268"><ele>163.5</ele><time>2026-04-12T09:45:43.012Z</time></trkpt><trkpt lat="44.0556069" lon="12.0917805"><ele>160.33333333333334</ele><time>2026-04-12T09:45:44.012Z</time></trkpt><trkpt lat="44.0555436" lon="12.0918393"><ele>157.16666666666669</ele><time>2026-04-12T09:45:45.013Z</time></trkpt><trkpt lat="44.0554846" lon="12.0919053"><ele>154.0</ele><time>2026-04-12T09:45:46.016Z</time></trkpt><trkpt lat="44.0554242" lon="12.0919639"><ele>154.0</ele><time>2026-04-12T09:45:47.012Z</time></trkpt><trkpt lat="44.0553563" lon="12.0920057"><ele>154.0</ele><time>2026-04-12T09:45:48.011Z</time></trkpt><trkpt lat="44.0552821" lon="12.0920316"><ele>154.0</ele><time>2026-04-12T09:45:49.013Z</time></trkpt><trkpt lat="44.0552003" lon="12.0920341"><ele>154.0</ele><time>2026-04-12T09:45:50.01Z</time></trkpt><trkpt lat="44.0551101" lon="12.0920176"><ele>154.0</ele><time>2026-04-12T09:45:51.015Z</time></trkpt><trkpt lat="44.0550277" lon="12.0919962"><ele>154.0</ele><time>2026-04-12T09:45:52.012Z</time></trkpt><trkpt lat="44.054951" lon="12.0919755"><ele>152.33333333333334</ele><time>2026-04-12T09:45:53.01Z</time></trkpt><trkpt lat="44.0548819" lon="12.0919635"><ele>150.66666666666669</ele><time>2026-04-12T09:45:54.011Z</time></trkpt><trkpt lat="44.0548184" lon="12.0919571"><ele>149.0</ele><time>2026-04-12T09:45:55.014Z</time></trkpt><trkpt lat="44.0547171" lon="12.0919406"><ele>147.33333333333334</ele><time>2026-04-12T09:45:57.013Z</time></trkpt><trkpt lat="44.0546432" lon="12.0919032"><ele>145.66666666666666</ele><time>2026-04-12T09:46:00.011Z</time></trkpt><trkpt lat="44.054679" lon="12.0917595"><ele>144.0</ele><time>2026-04-12T09:46:03.013Z</time></trkpt><trkpt lat="44.0547274" lon="12.0916839"><ele>144.2</ele><time>2026-04-12T09:46:04.012Z</time></trkpt><trkpt lat="44.0547877" lon="12.0915857"><ele>144.4</ele><time>2026-04-12T09:46:05.015Z</time></trkpt><trkpt lat="44.054852" lon="12.0914743"><ele>144.6</ele><time>2026-04-12T09:46:06.012Z</time></trkpt><trkpt lat="44.0549169" lon="12.0913519"><ele>144.8</ele><time>2026-04-12T09:46:07.011Z</time></trkpt><trkpt lat="44.0549764" lon="12.0912251"><ele>145.0</ele><time>2026-04-12T09:46:08.012Z</time></trkpt><trkpt lat="44.0550306" lon="12.0910975"><ele>145.0</ele><time>2026-04-12T09:46:09.016Z</time></trkpt><trkpt lat="44.0550744" lon="12.0909711"><ele>145.0</ele><time>2026-04-12T09:46:10.011Z</time></trkpt><trkpt lat="44.0551129" lon="12.0908496"><ele>145.0</ele><time>2026-04-12T09:46:11.012Z</time></trkpt><trkpt lat="44.0551517" lon="12.0907287"><ele>145.0</ele><time>2026-04-12T09:46:12.01Z</time></trkpt><trkpt lat="44.0551877" lon="12.0906134"><ele>145.0</ele><time>2026-04-12T09:46:13.011Z</time></trkpt><trkpt lat="44.0552243" lon="12.0905071"><ele>143.0</ele><time>2026-04-12T09:46:14.014Z</time></trkpt><trkpt lat="44.0552621" lon="12.0904161"><ele>141.0</ele><time>2026-04-12T09:46:15.014Z</time></trkpt><trkpt lat="44.0553146" lon="12.090337"><ele>139.0</ele><time>2026-04-12T09:46:16.015Z</time></trkpt><trkpt lat="44.0553823" lon="12.0902695"><ele>137.0</ele><time>2026-04-12T09:46:17.013Z</time></trkpt><trkpt lat="44.0554622" lon="12.0902127"><ele>135.0</ele><time>2026-04-12T09:46:18.013Z</time></trkpt><trkpt lat="44.055539" lon="12.0901492"><ele>133.0</ele><time>2026-04-12T09:46:19.011Z</time></trkpt><trkpt lat="44.0556101" lon="12.0900756"><ele>133.0</ele><time>2026-04-12T09:46:20.015Z</time></trkpt><trkpt lat="44.0556717" lon="12.0899945"><ele>133.0</ele><time>2026-04-12T09:46:21.011Z</time></trkpt><trkpt lat="44.0557259" lon="12.0899134"><ele>133.0</ele><time>2026-04-12T09:46:22.012Z</time></trkpt><trkpt lat="44.055777" lon="12.0898211"><ele>133.0</ele><time>2026-04-12T09:46:23.01Z</time></trkpt><trkpt lat="44.0558264" lon="12.0897115"><ele>133.0</ele><time>2026-04-12T09:46:24.012Z</time></trkpt><trkpt lat="44.0558731" lon="12.0895919"><ele>133.0</ele><time>2026-04-12T09:46:25.016Z</time></trkpt><trkpt lat="44.0559197" lon="12.0894772"><ele>131.66666666666669</ele><time>2026-04-12T09:46:26.012Z</time></trkpt><trkpt lat="44.0559661" lon="12.0893698"><ele>130.33333333333334</ele><time>2026-04-12T09:46:27.011Z</time></trkpt><trkpt lat="44.0560077" lon="12.08927"><ele>129.0</ele><time>2026-04-12T09:46:28.014Z</time></trkpt><trkpt lat="44.0560458" lon="12.0891728"><ele>127.66666666666666</ele><time>2026-04-12T09:46:29.01Z</time></trkpt><trkpt lat="44.0560754" lon="12.0890775"><ele>126.33333333333333</ele><time>2026-04-12T09:46:30.016Z</time></trkpt><trkpt lat="44.0560999" lon="12.0889828"><ele>125.0</ele><time>2026-04-12T09:46:31.012Z</time></trkpt><trkpt lat="44.0561242" lon="12.0888839"><ele>123.83333333333333</ele><time>2026-04-12T09:46:32.012Z</time></trkpt><trkpt lat="44.0561488" lon="12.0887881"><ele>122.66666666666666</ele><time>2026-04-12T09:46:33.015Z</time></trkpt><trkpt lat="44.0561737" lon="12.0887016"><ele>121.5</ele><time>2026-04-12T09:46:34.01Z</time></trkpt><trkpt lat="44.0562017" lon="12.0886218"><ele>120.33333333333334</ele><time>2026-04-12T09:46:35.013Z</time></trkpt><trkpt lat="44.0562515" lon="12.088474"><ele>119.16666666666667</ele><time>2026-04-12T09:46:37.013Z</time></trkpt><trkpt lat="44.0562738" lon="12.0883699"><ele>118.0</ele><time>2026-04-12T09:46:39.011Z</time></trkpt><trkpt lat="44.0562157" lon="12.0882918"><ele>118.0</ele><time>2026-04-12T09:46:42.011Z</time></trkpt><trkpt lat="44.0561264" lon="12.0882936"><ele>118.0</ele><time>2026-04-12T09:46:44.013Z</time></trkpt><trkpt lat="44.0560198" lon="12.0883624"><ele>118.0</ele><time>2026-04-12T09:46:45.01Z</time></trkpt><trkpt lat="44.0558911" lon="12.0884088"><ele>118.0</ele><time>2026-04-12T09:46:46.011Z</time></trkpt><trkpt lat="44.0557694" lon="12.088427"><ele>118.5</ele><time>2026-04-12T09:46:47.012Z</time></trkpt><trkpt lat="44.0556476" lon="12.0883886"><ele>119.0</ele><time>2026-04-12T09:46:48.011Z</time></trkpt><trkpt lat="44.05552" lon="12.0882979"><ele>119.5</ele><time>2026-04-12T09:46:49.018Z</time></trkpt><trkpt lat="44.0554015" lon="12.088179"><ele>120.0</ele><time>2026-04-12T09:46:50.012Z</time></trkpt><trkpt lat="44.0552897" lon="12.0880671"><ele>120.0</ele><time>2026-04-12T09:46:51.012Z</time></trkpt><trkpt lat="44.0551836" lon="12.0879801"><ele>120.0</ele><time>2026-04-12T09:46:52.013Z</time></trkpt><trkpt lat="44.0550895" lon="12.0879275"><ele>120.0</ele><time>2026-04-12T09:46:53.011Z</time></trkpt><trkpt lat="44.0549916" lon="12.0879162"><ele>120.0</ele><time>2026-04-12T09:46:54.018Z</time></trkpt><trkpt lat="44.0548864" lon="12.0879623"><ele>120.0</ele><time>2026-04-12T09:46:55.011Z</time></trkpt><trkpt lat="44.0547797" lon="12.0880445"><ele>121.25</ele><time>2026-04-12T09:46:56.011Z</time></trkpt><trkpt lat="44.0546599" lon="12.0881623"><ele>122.5</ele><time>2026-04-12T09:46:57.012Z</time></trkpt><trkpt lat="44.054539" lon="12.0882652"><ele>123.75</ele><time>2026-04-12T09:46:58.011Z</time></trkpt><trkpt lat="44.0544246" lon="12.0883479"><ele>125.0</ele><time>2026-04-12T09:46:59.012Z</time></trkpt><trkpt lat="44.0543126" lon="12.0883888"><ele>125.75</ele><time>2026-04-12T09:47:00.015Z</time></trkpt><trkpt lat="44.0542018" lon="12.0883766"><ele>126.5</ele><time>2026-04-12T09:47:01.011Z</time></trkpt><trkpt lat="44.0540966" lon="12.0883165"><ele>127.25</ele><time>2026-04-12T09:47:02.014Z</time></trkpt><trkpt lat="44.0539941" lon="12.0882165"><ele>128.0</ele><time>2026-04-12T09:47:03.014Z</time></trkpt><trkpt lat="44.053907" lon="12.0880736"><ele>131.25</ele><time>2026-04-12T09:47:04.013Z</time></trkpt><trkpt lat="44.0538488" lon="12.0879025"><ele>134.5</ele><time>2026-04-12T09:47:05.013Z</time></trkpt><trkpt lat="44.0538146" lon="12.0877411"><ele>137.75</ele><time>2026-04-12T09:47:06.01Z</time></trkpt><trkpt lat="44.0538045" lon="12.0875791"><ele>141.0</ele><time>2026-04-12T09:47:07.012Z</time></trkpt><trkpt lat="44.0538154" lon="12.087413"><ele>141.0</ele><time>2026-04-12T09:47:08.011Z</time></trkpt><trkpt lat="44.053833" lon="12.087239"><ele>141.0</ele><time>2026-04-12T09:47:09.015Z</time></trkpt><trkpt lat="44.0538498" lon="12.0870648"><ele>141.0</ele><time>2026-04-12T09:47:10.012Z</time></trkpt><trkpt lat="44.0538558" lon="12.0868964"><ele>141.0</ele><time>2026-04-12T09:47:11.011Z</time></trkpt><trkpt lat="44.0538455" lon="12.0867353"><ele>140.8</ele><time>2026-04-12T09:47:12.012Z</time></trkpt><trkpt lat="44.0538094" lon="12.0865923"><ele>140.6</ele><time>2026-04-12T09:47:13.012Z</time></trkpt><trkpt lat="44.0537448" lon="12.0864735"><ele>140.4</ele><time>2026-04-12T09:47:14.011Z</time></trkpt><trkpt lat="44.0536629" lon="12.0863591"><ele>140.2</ele><time>2026-04-12T09:47:15.015Z</time></trkpt><trkpt lat="44.0535878" lon="12.0862356"><ele>140.0</ele><time>2026-04-12T09:47:16.012Z</time></trkpt><trkpt lat="44.0535343" lon="12.0860957"><ele>140.0</ele><time>2026-04-12T09:47:17.012Z</time></trkpt><trkpt lat="44.0535091" lon="12.085947"><ele>140.0</ele><time>2026-04-12T09:47:18.012Z</time></trkpt><trkpt lat="44.0535079" lon="12.0858045"><ele>140.0</ele><time>2026-04-12T09:47:19.012Z</time></trkpt><trkpt lat="44.0535139" lon="12.0856753"><ele>140.0</ele><time>2026-04-12T09:47:20.01Z</time></trkpt><trkpt lat="44.0535209" lon="12.0855607"><ele>140.0</ele><time>2026-04-12T09:47:21.013Z</time></trkpt><trkpt lat="44.0535255" lon="12.0854622"><ele>139.0</ele><time>2026-04-12T09:47:22.013Z</time></trkpt><trkpt lat="44.0535278" lon="12.0853727"><ele>138.0</ele><time>2026-04-12T09:47:23.012Z</time></trkpt><trkpt lat="44.0535215" lon="12.0852828"><ele>137.0</ele><time>2026-04-12T09:47:24.013Z</time></trkpt><trkpt lat="44.0535093" lon="12.0851866"><ele>136.0</ele><time>2026-04-12T09:47:25.012Z</time></trkpt><trkpt lat="44.053483" lon="12.0850805"><ele>135.0</ele><time>2026-04-12T09:47:26.014Z</time></trkpt><trkpt lat="44.0534342" lon="12.0849541"><ele>134.0</ele><time>2026-04-12T09:47:27.012Z</time></trkpt><trkpt lat="44.0533584" lon="12.0847961"><ele>133.66666666666666</ele><time>2026-04-12T09:47:28.011Z</time></trkpt><trkpt lat="44.0532707" lon="12.0846215"><ele>133.33333333333334</ele><time>2026-04-12T09:47:29.011Z</time></trkpt><trkpt lat="44.0531718" lon="12.0844533"><ele>133.0</ele><time>2026-04-12T09:47:30.011Z</time></trkpt><trkpt lat="44.0530691" lon="12.0842895"><ele>133.0</ele><time>2026-04-12T09:47:31.012Z</time></trkpt><trkpt lat="44.0529661" lon="12.084121"><ele>133.0</ele><time>2026-04-12T09:47:32.011Z</time></trkpt><trkpt lat="44.0528697" lon="12.0839385"><ele>133.0</ele><time>2026-04-12T09:47:33.013Z</time></trkpt><trkpt lat="44.0527771" lon="12.0837339"><ele>131.0</ele><time>2026-04-12T09:47:34.012Z</time></trkpt><trkpt lat="44.0526902" lon="12.0835106"><ele>129.0</ele><time>2026-04-12T09:47:35.011Z</time></trkpt><trkpt lat="44.0526093" lon="12.0832899"><ele>127.0</ele><time>2026-04-12T09:47:36.011Z</time></trkpt><trkpt lat="44.052534" lon="12.0830909"><ele>127.0</ele><time>2026-04-12T09:47:37.012Z</time></trkpt><trkpt lat="44.0524608" lon="12.0829054"><ele>127.0</ele><time>2026-04-12T09:47:38.014Z</time></trkpt><trkpt lat="44.0523889" lon="12.0827341"><ele>127.0</ele><time>2026-04-12T09:47:39.014Z</time></trkpt><trkpt lat="44.0522967" lon="12.0825818"><ele>127.0</ele><time>2026-04-12T09:47:40.014Z</time></trkpt><trkpt lat="44.0521821" lon="12.0824469"><ele>127.25</ele><time>2026-04-12T09:47:41.018Z</time></trkpt><trkpt lat="44.0520565" lon="12.0823331"><ele>127.5</ele><time>2026-04-12T09:47:42.011Z</time></trkpt><trkpt lat="44.0519259" lon="12.0822404"><ele>127.75</ele><time>2026-04-12T09:47:43.012Z</time></trkpt><trkpt lat="44.0517902" lon="12.082158"><ele>128.0</ele><time>2026-04-12T09:47:44.013Z</time></trkpt><trkpt lat="44.051658" lon="12.0820781"><ele>127.60000000000001</ele><time>2026-04-12T09:47:45.012Z</time></trkpt><trkpt lat="44.0515414" lon="12.082001"><ele>127.20000000000002</ele><time>2026-04-12T09:47:46.014Z</time></trkpt><trkpt lat="44.0514565" lon="12.0819128"><ele>126.8</ele><time>2026-04-12T09:47:47.01Z</time></trkpt><trkpt lat="44.0514001" lon="12.0818095"><ele>126.4</ele><time>2026-04-12T09:47:48.012Z</time></trkpt><trkpt lat="44.0513616" lon="12.0816918"><ele>126.0</ele><time>2026-04-12T09:47:49.013Z</time></trkpt><trkpt lat="44.0513461" lon="12.0815632"><ele>127.83333333333333</ele><time>2026-04-12T09:47:50.011Z</time></trkpt><trkpt lat="44.0513472" lon="12.081434"><ele>129.66666666666666</ele><time>2026-04-12T09:47:51.015Z</time></trkpt><trkpt lat="44.0513571" lon="12.0813135"><ele>131.5</ele><time>2026-04-12T09:47:52.013Z</time></trkpt><trkpt lat="44.0513827" lon="12.0812111"><ele>133.33333333333331</ele><time>2026-04-12T09:47:53.012Z</time></trkpt><trkpt lat="44.051446" lon="12.0811837"><ele>135.16666666666666</ele><time>2026-04-12T09:47:54.013Z</time></trkpt><trkpt lat="44.0515159" lon="12.0811922"><ele>137.0</ele><time>2026-04-12T09:47:55.01Z</time></trkpt><trkpt lat="44.0515856" lon="12.0812667"><ele>138.33333333333331</ele><time>2026-04-12T09:47:56.012Z</time></trkpt><trkpt lat="44.051657" lon="12.0813546"><ele>139.66666666666666</ele><time>2026-04-12T09:47:57.013Z</time></trkpt><trkpt lat="44.0517298" lon="12.0814367"><ele>141.0</ele><time>2026-04-12T09:47:58.012Z</time></trkpt><trkpt lat="44.0517988" lon="12.0814613"><ele>142.33333333333334</ele><time>2026-04-12T09:47:59.017Z</time></trkpt><trkpt lat="44.0518628" lon="12.0814472"><ele>143.66666666666669</ele><time>2026-04-12T09:48:00.013Z</time></trkpt><trkpt lat="44.0518727" lon="12.0813022"><ele>145.0</ele><time>2026-04-12T09:48:02.012Z</time></trkpt><trkpt lat="44.0518376" lon="12.0812106"><ele>145.0</ele><time>2026-04-12T09:48:03.012Z</time></trkpt><trkpt lat="44.051785" lon="12.0811061"><ele>145.0</ele><time>2026-04-12T09:48:04.017Z</time></trkpt><trkpt lat="44.0517511" lon="12.0810063"><ele>145.0</ele><time>2026-04-12T09:48:05.012Z</time></trkpt><trkpt lat="44.0517367" lon="12.0809082"><ele>145.0</ele><time>2026-04-12T09:48:06.012Z</time></trkpt><trkpt lat="44.051817" lon="12.0808347"><ele>145.0</ele><time>2026-04-12T09:48:08.012Z</time></trkpt><trkpt lat="44.0518823" lon="12.0808508"><ele>145.0</ele><time>2026-04-12T09:48:09.014Z</time></trkpt><trkpt lat="44.051965" lon="12.0808908"><ele>145.0</ele><time>2026-04-12T09:48:10.012Z</time></trkpt><trkpt lat="44.0520525" lon="12.0809266"><ele>145.0</ele><time>2026-04-12T09:48:11.011Z</time></trkpt><trkpt lat="44.0521435" lon="12.0809465"><ele>145.0</ele><time>2026-04-12T09:48:12.012Z</time></trkpt><trkpt lat="44.0522325" lon="12.0809489"><ele>145.0</ele><time>2026-04-12T09:48:13.011Z</time></trkpt><trkpt lat="44.052363" lon="12.0808146"><ele>145.0</ele><time>2026-04-12T09:48:14.012Z</time></trkpt><trkpt lat="44.052475" lon="12.0806731"><ele>148.25</ele><time>2026-04-12T09:48:15.014Z</time></trkpt><trkpt lat="44.0525684" lon="12.0805488"><ele>151.5</ele><time>2026-04-12T09:48:16.012Z</time></trkpt><trkpt lat="44.0526353" lon="12.0804297"><ele>154.75</ele><time>2026-04-12T09:48:17.012Z</time></trkpt><trkpt lat="44.0526921" lon="12.0802952"><ele>158.0</ele><time>2026-04-12T09:48:18.012Z</time></trkpt><trkpt lat="44.0527092" lon="12.0801252"><ele>158.0</ele><time>2026-04-12T09:48:19.013Z</time></trkpt><trkpt lat="44.0527166" lon="12.079955"><ele>158.0</ele><time>2026-04-12T09:48:20.011Z</time></trkpt><trkpt lat="44.0527033" lon="12.0797911"><ele>158.0</ele><time>2026-04-12T09:48:21.019Z</time></trkpt><trkpt lat="44.0526642" lon="12.0796624"><ele>158.0</ele><time>2026-04-12T09:48:22.012Z</time></trkpt><trkpt lat="44.0526126" lon="12.0795546"><ele>158.0</ele><time>2026-04-12T09:48:23.012Z</time></trkpt><trkpt lat="44.0525503" lon="12.0795216"><ele>159.0</ele><time>2026-04-12T09:48:24.011Z</time></trkpt><trkpt lat="44.0524411" lon="12.0795938"><ele>160.0</ele><time>2026-04-12T09:48:26.012Z</time></trkpt><trkpt lat="44.0524044" lon="12.0796941"><ele>161.0</ele><time>2026-04-12T09:48:27.015Z</time></trkpt><trkpt lat="44.052371" lon="12.0798049"><ele>162.0</ele><time>2026-04-12T09:48:28.012Z</time></trkpt><trkpt lat="44.0523348" lon="12.0799055"><ele>163.0</ele><time>2026-04-12T09:48:29.012Z</time></trkpt><trkpt lat="44.0522928" lon="12.0799881"><ele>164.0</ele><time>2026-04-12T09:48:30.012Z</time></trkpt><trkpt lat="44.0522344" lon="12.0800305"><ele>164.0</ele><time>2026-04-12T09:48:31.012Z</time></trkpt><trkpt lat="44.05213" lon="12.07998"><ele>164.0</ele><time>2026-04-12T09:48:32.012Z</time></trkpt><trkpt lat="44.052045" lon="12.0799233"><ele>164.0</ele><time>2026-04-12T09:48:33.015Z</time></trkpt><trkpt lat="44.051965" lon="12.0798367"><ele>164.0</ele><time>2026-04-12T09:48:34.012Z</time></trkpt><trkpt lat="44.0518933" lon="12.0797017"><ele>164.0</ele><time>2026-04-12T09:48:35.012Z</time></trkpt><trkpt lat="44.0518617" lon="12.079555"><ele>167.5</ele><time>2026-04-12T09:48:36.012Z</time></trkpt><trkpt lat="44.051855" lon="12.079415"><ele>171.0</ele><time>2026-04-12T09:48:37.013Z</time></trkpt><trkpt lat="44.051895" lon="12.0792517"><ele>174.5</ele><time>2026-04-12T09:48:38.013Z</time></trkpt><trkpt lat="44.0519617" lon="12.0790817"><ele>178.0</ele><time>2026-04-12T09:48:39.019Z</time></trkpt><trkpt lat="44.0520217" lon="12.0789083"><ele>180.2</ele><time>2026-04-12T09:48:40.011Z</time></trkpt><trkpt lat="44.0520783" lon="12.07875"><ele>182.4</ele><time>2026-04-12T09:48:41.013Z</time></trkpt><trkpt lat="44.05211" lon="12.0786117"><ele>184.6</ele><time>2026-04-12T09:48:42.012Z</time></trkpt><trkpt lat="44.05211" lon="12.0785"><ele>186.79999999999998</ele><time>2026-04-12T09:48:43.012Z</time></trkpt><trkpt lat="44.052065" lon="12.07836"><ele>189.0</ele><time>2026-04-12T09:48:45.015Z</time></trkpt><trkpt lat="44.0519133" lon="12.07843"><ele>189.0</ele><time>2026-04-12T09:48:47.012Z</time></trkpt><trkpt lat="44.0518333" lon="12.0785133"><ele>189.0</ele><time>2026-04-12T09:48:48.012Z</time></trkpt><trkpt lat="44.051745" lon="12.0786033"><ele>189.0</ele><time>2026-04-12T09:48:49.014Z</time></trkpt><trkpt lat="44.0516567" lon="12.0786633"><ele>189.0</ele><time>2026-04-12T09:48:50.012Z</time></trkpt><trkpt lat="44.0515733" lon="12.078685"><ele>189.0</ele><time>2026-04-12T09:48:51.012Z</time></trkpt><trkpt lat="44.0514933" lon="12.0786833"><ele>190.39999999999998</ele><time>2026-04-12T09:48:52.012Z</time></trkpt><trkpt lat="44.0514217" lon="12.0786567"><ele>191.8</ele><time>2026-04-12T09:48:53.013Z</time></trkpt><trkpt lat="44.051375" lon="12.07855"><ele>193.2</ele><time>2026-04-12T09:48:55.013Z</time></trkpt><trkpt lat="44.05145" lon="12.0783717"><ele>194.60000000000002</ele><time>2026-04-12T09:48:57.013Z</time></trkpt><trkpt lat="44.051525" lon="12.0782433"><ele>196.0</ele><time>2026-04-12T09:48:58.011Z</time></trkpt><trkpt lat="44.0515617" lon="12.078055"><ele>201.0</ele><time>2026-04-12T09:48:59.012Z</time></trkpt><trkpt lat="44.051585" lon="12.0778517"><ele>206.0</ele><time>2026-04-12T09:49:00.013Z</time></trkpt><trkpt lat="44.0515917" lon="12.077635"><ele>211.0</ele><time>2026-04-12T09:49:01.011Z</time></trkpt><trkpt lat="44.0516" lon="12.0774"><ele>213.33333333333331</ele><time>2026-04-12T09:49:02.011Z</time></trkpt><trkpt lat="44.0516017" lon="12.077155"><ele>215.66666666666669</ele><time>2026-04-12T09:49:03.012Z</time></trkpt><trkpt lat="44.0516033" lon="12.0769117"><ele>218.0</ele><time>2026-04-12T09:49:04.017Z</time></trkpt><trkpt lat="44.0515967" lon="12.0767"><ele>218.4</ele><time>2026-04-12T09:49:05.014Z</time></trkpt><trkpt lat="44.0515783" lon="12.07653"><ele>218.8</ele><time>2026-04-12T09:49:06.012Z</time></trkpt><trkpt lat="44.0515433" lon="12.0764033"><ele>219.2</ele><time>2026-04-12T09:49:07.013Z</time></trkpt><trkpt lat="44.0514983" lon="12.0763183"><ele>219.6</ele><time>2026-04-12T09:49:08.011Z</time></trkpt><trkpt lat="44.0514333" lon="12.0762983"><ele>220.0</ele><time>2026-04-12T09:49:09.014Z</time></trkpt><trkpt lat="44.05129" lon="12.0763683"><ele>220.0</ele><time>2026-04-12T09:49:11.012Z</time></trkpt><trkpt lat="44.05121" lon="12.0764517"><ele>220.0</ele><time>2026-04-12T09:49:12.011Z</time></trkpt><trkpt lat="44.05112" lon="12.07657"><ele>220.0</ele><time>2026-04-12T09:49:13.012Z</time></trkpt><trkpt lat="44.0510167" lon="12.0766933"><ele>220.0</ele><time>2026-04-12T09:49:14.013Z</time></trkpt><trkpt lat="44.0509033" lon="12.0768183"><ele>219.8</ele><time>2026-04-12T09:49:15.013Z</time></trkpt><trkpt lat="44.0507933" lon="12.0769233"><ele>219.6</ele><time>2026-04-12T09:49:16.013Z</time></trkpt><trkpt lat="44.0506933" lon="12.076985"><ele>219.39999999999998</ele><time>2026-04-12T09:49:17.012Z</time></trkpt><trkpt lat="44.0506" lon="12.0770033"><ele>219.2</ele><time>2026-04-12T09:49:18.011Z</time></trkpt><trkpt lat="44.0505083" lon="12.076975"><ele>219.0</ele><time>2026-04-12T09:49:19.012Z</time></trkpt><trkpt lat="44.0504233" lon="12.0769"><ele>219.0</ele><time>2026-04-12T09:49:20.013Z</time></trkpt><trkpt lat="44.0503433" lon="12.0767817"><ele>219.0</ele><time>2026-04-12T09:49:21.014Z</time></trkpt><trkpt lat="44.050275" lon="12.076625"><ele>219.0</ele><time>2026-04-12T09:49:22.012Z</time></trkpt><trkpt lat="44.050215" lon="12.07645"><ele>219.0</ele><time>2026-04-12T09:49:23.012Z</time></trkpt><trkpt lat="44.0501617" lon="12.07626"><ele>222.33333333333331</ele><time>2026-04-12T09:49:24.012Z</time></trkpt><trkpt lat="44.0501083" lon="12.0760617"><ele>225.66666666666666</ele><time>2026-04-12T09:49:25.016Z</time></trkpt><trkpt lat="44.050065" lon="12.07585"><ele>229.0</ele><time>2026-04-12T09:49:26.013Z</time></trkpt><trkpt lat="44.050025" lon="12.07564"><ele>232.0</ele><time>2026-04-12T09:49:27.015Z</time></trkpt><trkpt lat="44.0500017" lon="12.0754233"><ele>235.0</ele><time>2026-04-12T09:49:28.019Z</time></trkpt><trkpt lat="44.0499983" lon="12.0752017"><ele>238.0</ele><time>2026-04-12T09:49:29.013Z</time></trkpt><trkpt lat="44.0500167" lon="12.0749833"><ele>240.33333333333331</ele><time>2026-04-12T09:49:30.013Z</time></trkpt><trkpt lat="44.0500483" lon="12.074775"><ele>242.66666666666669</ele><time>2026-04-12T09:49:31.013Z</time></trkpt><trkpt lat="44.0500983" lon="12.0745767"><ele>245.0</ele><time>2026-04-12T09:49:32.014Z</time></trkpt><trkpt lat="44.0501467" lon="12.0743733"><ele>245.0</ele><time>2026-04-12T09:49:33.013Z</time></trkpt><trkpt lat="44.05019" lon="12.0741733"><ele>245.0</ele><time>2026-04-12T09:49:34.011Z</time></trkpt><trkpt lat="44.05021" lon="12.0739867"><ele>245.0</ele><time>2026-04-12T09:49:35.018Z</time></trkpt><trkpt lat="44.05021" lon="12.0738233"><ele>245.0</ele><time>2026-04-12T09:49:36.012Z</time></trkpt><trkpt lat="44.0501833" lon="12.0736917"><ele>246.00000000000003</ele><time>2026-04-12T09:49:37.011Z</time></trkpt><trkpt lat="44.050145" lon="12.07359"><ele>247.0</ele><time>2026-04-12T09:49:38.012Z</time></trkpt><trkpt lat="44.0500933" lon="12.0735183"><ele>248.0</ele><time>2026-04-12T09:49:39.012Z</time></trkpt><trkpt lat="44.0500317" lon="12.0734733"><ele>249.0</ele><time>2026-04-12T09:49:40.012Z</time></trkpt><trkpt lat="44.049968" lon="12.0734562"><ele>250.00000000000003</ele><time>2026-04-12T09:49:41.012Z</time></trkpt><trkpt lat="44.0498875" lon="12.0734987"><ele>251.0</ele><time>2026-04-12T09:49:42.017Z</time></trkpt><trkpt lat="44.0498063" lon="12.0735704"><ele>253.8</ele><time>2026-04-12T09:49:43.012Z</time></trkpt><trkpt lat="44.0497294" lon="12.0736572"><ele>256.6</ele><time>2026-04-12T09:49:44.011Z</time></trkpt><trkpt lat="44.0496453" lon="12.0737571"><ele>259.4</ele><time>2026-04-12T09:49:45.013Z</time></trkpt><trkpt lat="44.0495578" lon="12.0738331"><ele>262.2</ele><time>2026-04-12T09:49:46.011Z</time></trkpt><trkpt lat="44.0494658" lon="12.0738643"><ele>265.0</ele><time>2026-04-12T09:49:47.012Z</time></trkpt><trkpt lat="44.0493659" lon="12.0738476"><ele>265.0</ele><time>2026-04-12T09:49:48.013Z</time></trkpt><trkpt lat="44.0492533" lon="12.0737902"><ele>265.0</ele><time>2026-04-12T09:49:49.012Z</time></trkpt><trkpt lat="44.0491257" lon="12.0737091"><ele>265.0</ele><time>2026-04-12T09:49:50.012Z</time></trkpt><trkpt lat="44.0489761" lon="12.0736189"><ele>265.0</ele><time>2026-04-12T09:49:51.012Z</time></trkpt><trkpt lat="44.0488094" lon="12.0735423"><ele>267.0</ele><time>2026-04-12T09:49:52.011Z</time></trkpt><trkpt lat="44.0486271" lon="12.0734767"><ele>269.0</ele><time>2026-04-12T09:49:53.012Z</time></trkpt><trkpt lat="44.0484411" lon="12.0734341"><ele>271.0</ele><time>2026-04-12T09:49:54.014Z</time></trkpt><trkpt lat="44.0482706" lon="12.073418"><ele>271.0</ele><time>2026-04-12T09:49:55.013Z</time></trkpt><trkpt lat="44.0481184" lon="12.073417"><ele>271.0</ele><time>2026-04-12T09:49:56.012Z</time></trkpt><trkpt lat="44.0479766" lon="12.0734085"><ele>271.0</ele><time>2026-04-12T09:49:57.011Z</time></trkpt><trkpt lat="44.0478418" lon="12.0733718"><ele>271.0</ele><time>2026-04-12T09:49:58.014Z</time></trkpt><trkpt lat="44.0477213" lon="12.0733172"><ele>274.2</ele><time>2026-04-12T09:49:59.012Z</time></trkpt><trkpt lat="44.047624" lon="12.0732566"><ele>277.40000000000003</ele><time>2026-04-12T09:50:00.011Z</time></trkpt><trkpt lat="44.0475569" lon="12.0731925"><ele>280.6</ele><time>2026-04-12T09:50:01.017Z</time></trkpt><trkpt lat="44.0475095" lon="12.0730644"><ele>283.8</ele><time>2026-04-12T09:50:03.012Z</time></trkpt><trkpt lat="44.047578" lon="12.0729327"><ele>287.0</ele><time>2026-04-12T09:50:05.012Z</time></trkpt><trkpt lat="44.0476672" lon="12.0729119"><ele>287.0</ele><time>2026-04-12T09:50:06.013Z</time></trkpt><trkpt lat="44.0477718" lon="12.0729134"><ele>287.0</ele><time>2026-04-12T09:50:07.013Z</time></trkpt><trkpt lat="44.0478987" lon="12.0729106"><ele>287.0</ele><time>2026-04-12T09:50:08.016Z</time></trkpt><trkpt lat="44.048036" lon="12.0728899"><ele>287.0</ele><time>2026-04-12T09:50:09.015Z</time></trkpt><trkpt lat="44.0481723" lon="12.0728422"><ele>286.6</ele><time>2026-04-12T09:50:10.012Z</time></trkpt><trkpt lat="44.0482942" lon="12.0727781"><ele>286.2</ele><time>2026-04-12T09:50:11.012Z</time></trkpt><trkpt lat="44.0483953" lon="12.0727132"><ele>285.8</ele><time>2026-04-12T09:50:12.014Z</time></trkpt><trkpt lat="44.0484712" lon="12.0726351"><ele>285.4</ele><time>2026-04-12T09:50:13.012Z</time></trkpt><trkpt lat="44.0485357" lon="12.0725492"><ele>285.0</ele><time>2026-04-12T09:50:14.012Z</time></trkpt><trkpt lat="44.0485772" lon="12.0724457"><ele>287.0</ele><time>2026-04-12T09:50:15.012Z</time></trkpt><trkpt lat="44.0485941" lon="12.0723229"><ele>289.0</ele><time>2026-04-12T09:50:16.012Z</time></trkpt><trkpt lat="44.0485774" lon="12.0721689"><ele>291.0</ele><time>2026-04-12T09:50:17.012Z</time></trkpt><trkpt lat="44.0485527" lon="12.071995"><ele>293.0</ele><time>2026-04-12T09:50:18.014Z</time></trkpt><trkpt lat="44.048543" lon="12.071814"><ele>293.0</ele><time>2026-04-12T09:50:19.012Z</time></trkpt><trkpt lat="44.0485466" lon="12.0716384"><ele>293.0</ele><time>2026-04-12T09:50:20.012Z</time></trkpt><trkpt lat="44.0485527" lon="12.0714843"><ele>293.0</ele><time>2026-04-12T09:50:21.012Z</time></trkpt><trkpt lat="44.0485461" lon="12.0713622"><ele>293.0</ele><time>2026-04-12T09:50:22.013Z</time></trkpt><trkpt lat="44.0485301" lon="12.0712616"><ele>293.0</ele><time>2026-04-12T09:50:23.011Z</time></trkpt><trkpt lat="44.0484443" lon="12.0711948"><ele>294.2</ele><time>2026-04-12T09:50:25.013Z</time></trkpt><trkpt lat="44.0483793" lon="12.07123"><ele>295.4</ele><time>2026-04-12T09:50:26.012Z</time></trkpt><trkpt lat="44.0483196" lon="12.0712886"><ele>296.59999999999997</ele><time>2026-04-12T09:50:27.018Z</time></trkpt><trkpt lat="44.0482474" lon="12.0714118"><ele>297.8</ele><time>2026-04-12T09:50:28.012Z</time></trkpt><trkpt lat="44.0481681" lon="12.0715512"><ele>299.0</ele><time>2026-04-12T09:50:29.013Z</time></trkpt><trkpt lat="44.0480896" lon="12.0716721"><ele>300.5</ele><time>2026-04-12T09:50:30.012Z</time></trkpt><trkpt lat="44.0480151" lon="12.0717565"><ele>302.0</ele><time>2026-04-12T09:50:31.012Z</time></trkpt><trkpt lat="44.0479364" lon="12.0718087"><ele>303.5</ele><time>2026-04-12T09:50:32.013Z</time></trkpt><trkpt lat="44.0478562" lon="12.0718302"><ele>305.0</ele><time>2026-04-12T09:50:33.012Z</time></trkpt><trkpt lat="44.0475487" lon="12.0717475"><ele>306.25</ele><time>2026-04-12T09:50:35.023Z</time></trkpt><trkpt lat="44.0474464" lon="12.07154"><ele>307.5</ele><time>2026-04-12T09:50:37.011Z</time></trkpt><trkpt lat="44.0474796" lon="12.0714245"><ele>308.75</ele><time>2026-04-12T09:50:38.011Z</time></trkpt><trkpt lat="44.047533" lon="12.0713149"><ele>310.0</ele><time>2026-04-12T09:50:39.01Z</time></trkpt><trkpt lat="44.0476046" lon="12.0712172"><ele>311.2</ele><time>2026-04-12T09:50:40.01Z</time></trkpt><trkpt lat="44.0476714" lon="12.0711237"><ele>312.4</ele><time>2026-04-12T09:50:41.015Z</time></trkpt><trkpt lat="44.0477433" lon="12.0710209"><ele>313.6</ele><time>2026-04-12T09:50:42.013Z</time></trkpt><trkpt lat="44.0478125" lon="12.070907"><ele>314.8</ele><time>2026-04-12T09:50:43.013Z</time></trkpt><trkpt lat="44.0478399" lon="12.0707892"><ele>316.0</ele><time>2026-04-12T09:50:44.012Z</time></trkpt><trkpt lat="44.0478623" lon="12.0706738"><ele>317.0</ele><time>2026-04-12T09:50:45.012Z</time></trkpt><trkpt lat="44.0478858" lon="12.0705686"><ele>318.0</ele><time>2026-04-12T09:50:46.011Z</time></trkpt><trkpt lat="44.047867" lon="12.0704165"><ele>319.0</ele><time>2026-04-12T09:50:48.011Z</time></trkpt><trkpt lat="44.0477903" lon="12.0703265"><ele>320.0</ele><time>2026-04-12T09:50:50.012Z</time></trkpt><trkpt lat="44.0477269" lon="12.0703001"><ele>321.0</ele><time>2026-04-12T09:50:51.012Z</time></trkpt><trkpt lat="44.0476511" lon="12.0702739"><ele>322.0</ele><time>2026-04-12T09:50:52.013Z</time></trkpt><trkpt lat="44.0475793" lon="12.0702306"><ele>322.0</ele><time>2026-04-12T09:50:53.014Z</time></trkpt><trkpt lat="44.0475058" lon="12.0701513"><ele>322.0</ele><time>2026-04-12T09:50:54.012Z</time></trkpt><trkpt lat="44.047416" lon="12.0700231"><ele>322.0</ele><time>2026-04-12T09:50:55.013Z</time></trkpt><trkpt lat="44.047316" lon="12.0698723"><ele>322.0</ele><time>2026-04-12T09:50:56.012Z</time></trkpt><trkpt lat="44.0471865" lon="12.0697248"><ele>326.66666666666663</ele><time>2026-04-12T09:50:57.011Z</time></trkpt><trkpt lat="44.0470573" lon="12.0695864"><ele>331.3333333333333</ele><time>2026-04-12T09:50:58.011Z</time></trkpt><trkpt lat="44.0469349" lon="12.0694637"><ele>336.0</ele><time>2026-04-12T09:50:59.011Z</time></trkpt><trkpt lat="44.0468132" lon="12.0693642"><ele>336.0</ele><time>2026-04-12T09:51:00.011Z</time></trkpt><trkpt lat="44.046689" lon="12.0692843"><ele>336.0</ele><time>2026-04-12T09:51:01.011Z</time></trkpt><trkpt lat="44.0465607" lon="12.0692433"><ele>336.0</ele><time>2026-04-12T09:51:02.011Z</time></trkpt><trkpt lat="44.0464257" lon="12.0692284"><ele>336.0</ele><time>2026-04-12T09:51:03.012Z</time></trkpt><trkpt lat="44.0463015" lon="12.0692201"><ele>338.8</ele><time>2026-04-12T09:51:04.013Z</time></trkpt><trkpt lat="44.0461984" lon="12.0692069"><ele>341.6</ele><time>2026-04-12T09:51:05.011Z</time></trkpt><trkpt lat="44.0461176" lon="12.0691842"><ele>344.4</ele><time>2026-04-12T09:51:06.015Z</time></trkpt><trkpt lat="44.0460249" lon="12.0691393"><ele>347.2</ele><time>2026-04-12T09:51:08.014Z</time></trkpt><trkpt lat="44.0460238" lon="12.0690429"><ele>350.0</ele><time>2026-04-12T09:51:11.012Z</time></trkpt><trkpt lat="44.0461608" lon="12.0689188"><ele>352.83333333333337</ele><time>2026-04-12T09:51:13.012Z</time></trkpt><trkpt lat="44.0462418" lon="12.0688434"><ele>355.6666666666667</ele><time>2026-04-12T09:51:14.013Z</time></trkpt><trkpt lat="44.0462967" lon="12.0687772"><ele>358.5</ele><time>2026-04-12T09:51:15.015Z</time></trkpt><trkpt lat="44.0463544" lon="12.0686276"><ele>361.3333333333333</ele><time>2026-04-12T09:51:17.012Z</time></trkpt><trkpt lat="44.0463429" lon="12.0685254"><ele>364.16666666666663</ele><time>2026-04-12T09:51:18.011Z</time></trkpt><trkpt lat="44.0463145" lon="12.06843"><ele>367.0</ele><time>2026-04-12T09:51:19.013Z</time></trkpt><trkpt lat="44.0462525" lon="12.0683112"><ele>367.0</ele><time>2026-04-12T09:51:21.011Z</time></trkpt><trkpt lat="44.0461628" lon="12.0683377"><ele>367.0</ele><time>2026-04-12T09:51:24.011Z</time></trkpt><trkpt lat="44.0461203" lon="12.0684323"><ele>367.0</ele><time>2026-04-12T09:51:25.013Z</time></trkpt><trkpt lat="44.046068" lon="12.0685335"><ele>367.0</ele><time>2026-04-12T09:51:26.011Z</time></trkpt><trkpt lat="44.0460023" lon="12.0686172"><ele>367.0</ele><time>2026-04-12T09:51:27.013Z</time></trkpt><trkpt lat="44.0459219" lon="12.0686989"><ele>367.0</ele><time>2026-04-12T09:51:28.013Z</time></trkpt><trkpt lat="44.0457935" lon="12.0687314"><ele>367.0</ele><time>2026-04-12T09:51:29.011Z</time></trkpt><trkpt lat="44.0456625" lon="12.0687267"><ele>367.0</ele><time>2026-04-12T09:51:30.011Z</time></trkpt><trkpt lat="44.0455454" lon="12.0686956"><ele>367.0</ele><time>2026-04-12T09:51:31.014Z</time></trkpt><trkpt lat="44.045452" lon="12.068641"><ele>367.0</ele><time>2026-04-12T09:51:32.012Z</time></trkpt><trkpt lat="44.0453704" lon="12.0685679"><ele>367.0</ele><time>2026-04-12T09:51:33.018Z</time></trkpt><trkpt lat="44.045307" lon="12.0684571"><ele>367.0</ele><time>2026-04-12T09:51:34.012Z</time></trkpt><trkpt lat="44.0452694" lon="12.0683019"><ele>367.0</ele><time>2026-04-12T09:51:35.011Z</time></trkpt><trkpt lat="44.0452518" lon="12.068112"><ele>371.0</ele><time>2026-04-12T09:51:36.011Z</time></trkpt><trkpt lat="44.0452347" lon="12.067902"><ele>375.0</ele><time>2026-04-12T09:51:37.013Z</time></trkpt><trkpt lat="44.0452109" lon="12.0676886"><ele>379.0</ele><time>2026-04-12T09:51:38.013Z</time></trkpt><trkpt lat="44.0451845" lon="12.0674809"><ele>378.75</ele><time>2026-04-12T09:51:39.011Z</time></trkpt><trkpt lat="44.0451574" lon="12.0672849"><ele>378.5</ele><time>2026-04-12T09:51:40.011Z</time></trkpt><trkpt lat="44.0451214" lon="12.0670995"><ele>378.25</ele><time>2026-04-12T09:51:41.011Z</time></trkpt><trkpt lat="44.0450758" lon="12.0669367"><ele>378.0</ele><time>2026-04-12T09:51:42.012Z</time></trkpt><trkpt lat="44.0450126" lon="12.0668074"><ele>380.59999999999997</ele><time>2026-04-12T09:51:43.013Z</time></trkpt><trkpt lat="44.0449298" lon="12.0667097"><ele>383.2</ele><time>2026-04-12T09:51:44.012Z</time></trkpt><trkpt lat="44.0448346" lon="12.0666499"><ele>385.8</ele><time>2026-04-12T09:51:45.015Z</time></trkpt><trkpt lat="44.0447215" lon="12.0666351"><ele>388.4</ele><time>2026-04-12T09:51:46.011Z</time></trkpt><trkpt lat="44.0446016" lon="12.0666586"><ele>391.0</ele><time>2026-04-12T09:51:47.012Z</time></trkpt><trkpt lat="44.0444847" lon="12.0667081"><ele>391.0</ele><time>2026-04-12T09:51:48.012Z</time></trkpt><trkpt lat="44.0443714" lon="12.0667607"><ele>391.0</ele><time>2026-04-12T09:51:49.012Z</time></trkpt><trkpt lat="44.0442598" lon="12.0668009"><ele>391.0</ele><time>2026-04-12T09:51:50.012Z</time></trkpt><trkpt lat="44.0441501" lon="12.0668181"><ele>391.0</ele><time>2026-04-12T09:51:51.012Z</time></trkpt><trkpt lat="44.0440338" lon="12.0668078"><ele>390.5</ele><time>2026-04-12T09:51:52.011Z</time></trkpt><trkpt lat="44.0439082" lon="12.0667766"><ele>390.0</ele><time>2026-04-12T09:51:53.013Z</time></trkpt><trkpt lat="44.043773" lon="12.0667315"><ele>389.5</ele><time>2026-04-12T09:51:54.012Z</time></trkpt><trkpt lat="44.043625" lon="12.0666734"><ele>389.0</ele><time>2026-04-12T09:51:55.013Z</time></trkpt><trkpt lat="44.0434702" lon="12.0666073"><ele>389.0</ele><time>2026-04-12T09:51:56.012Z</time></trkpt><trkpt lat="44.043315" lon="12.0665433"><ele>389.0</ele><time>2026-04-12T09:51:57.013Z</time></trkpt><trkpt lat="44.0431689" lon="12.0664798"><ele>389.0</ele><time>2026-04-12T09:51:58.013Z</time></trkpt><trkpt lat="44.0430387" lon="12.0664171"><ele>389.5</ele><time>2026-04-12T09:51:59.013Z</time></trkpt><trkpt lat="44.0429134" lon="12.0663583"><ele>390.0</ele><time>2026-04-12T09:52:00.014Z</time></trkpt><trkpt lat="44.0427808" lon="12.06631"><ele>390.5</ele><time>2026-04-12T09:52:01.011Z</time></trkpt><trkpt lat="44.0426412" lon="12.0662734"><ele>391.0</ele><time>2026-04-12T09:52:02.011Z</time></trkpt><trkpt lat="44.0424991" lon="12.0662509"><ele>392.25</ele><time>2026-04-12T09:52:03.011Z</time></trkpt><trkpt lat="44.0423557" lon="12.066247"><ele>393.5</ele><time>2026-04-12T09:52:04.012Z</time></trkpt><trkpt lat="44.0422087" lon="12.0662584"><ele>394.75</ele><time>2026-04-12T09:52:05.012Z</time></trkpt><trkpt lat="44.0420526" lon="12.0662788"><ele>396.0</ele><time>2026-04-12T09:52:06.011Z</time></trkpt><trkpt lat="44.0418855" lon="12.0662914"><ele>396.0</ele><time>2026-04-12T09:52:07.013Z</time></trkpt><trkpt lat="44.0417147" lon="12.0662982"><ele>396.0</ele><time>2026-04-12T09:52:08.013Z</time></trkpt><trkpt lat="44.0415428" lon="12.0663066"><ele>396.0</ele><time>2026-04-12T09:52:09.011Z</time></trkpt><trkpt lat="44.0413746" lon="12.0663116"><ele>398.0</ele><time>2026-04-12T09:52:10.014Z</time></trkpt><trkpt lat="44.0412068" lon="12.0663119"><ele>400.0</ele><time>2026-04-12T09:52:11.013Z</time></trkpt><trkpt lat="44.0410322" lon="12.0662893"><ele>402.0</ele><time>2026-04-12T09:52:12.012Z</time></trkpt><trkpt lat="44.0408557" lon="12.0662323"><ele>404.33333333333337</ele><time>2026-04-12T09:52:13.012Z</time></trkpt><trkpt lat="44.0406778" lon="12.0661362"><ele>406.6666666666667</ele><time>2026-04-12T09:52:14.011Z</time></trkpt><trkpt lat="44.0405084" lon="12.0660097"><ele>409.0</ele><time>2026-04-12T09:52:15.015Z</time></trkpt><trkpt lat="44.040342" lon="12.0658694"><ele>410.33333333333337</ele><time>2026-04-12T09:52:16.012Z</time></trkpt><trkpt lat="44.0401798" lon="12.0657239"><ele>411.66666666666663</ele><time>2026-04-12T09:52:17.012Z</time></trkpt><trkpt lat="44.0400167" lon="12.0655768"><ele>413.0</ele><time>2026-04-12T09:52:18.012Z</time></trkpt><trkpt lat="44.0398523" lon="12.0654281"><ele>413.0</ele><time>2026-04-12T09:52:19.012Z</time></trkpt><trkpt lat="44.0396893" lon="12.0652712"><ele>413.0</ele><time>2026-04-12T09:52:20.013Z</time></trkpt><trkpt lat="44.0395296" lon="12.0651101"><ele>413.0</ele><time>2026-04-12T09:52:21.013Z</time></trkpt><trkpt lat="44.0393741" lon="12.0649495"><ele>413.66666666666663</ele><time>2026-04-12T09:52:22.013Z</time></trkpt><trkpt lat="44.0392287" lon="12.0647957"><ele>414.33333333333337</ele><time>2026-04-12T09:52:23.012Z</time></trkpt><trkpt lat="44.0390953" lon="12.0646496"><ele>415.0</ele><time>2026-04-12T09:52:24.013Z</time></trkpt><trkpt lat="44.0389766" lon="12.0645244"><ele>417.75</ele><time>2026-04-12T09:52:25.012Z</time></trkpt><trkpt lat="44.03886" lon="12.0644296"><ele>420.5</ele><time>2026-04-12T09:52:26.012Z</time></trkpt><trkpt lat="44.0387346" lon="12.0643699"><ele>423.25</ele><time>2026-04-12T09:52:27.011Z</time></trkpt><trkpt lat="44.0386033" lon="12.0643314"><ele>426.0</ele><time>2026-04-12T09:52:28.012Z</time></trkpt><trkpt lat="44.038472" lon="12.0643002"><ele>426.0</ele><time>2026-04-12T09:52:29.011Z</time></trkpt><trkpt lat="44.0383512" lon="12.0642539"><ele>426.0</ele><time>2026-04-12T09:52:30.013Z</time></trkpt><trkpt lat="44.0382385" lon="12.0641806"><ele>426.0</ele><time>2026-04-12T09:52:31.012Z</time></trkpt><trkpt lat="44.0381382" lon="12.0640733"><ele>426.0</ele><time>2026-04-12T09:52:32.015Z</time></trkpt><trkpt lat="44.0380459" lon="12.0639372"><ele>427.75</ele><time>2026-04-12T09:52:33.011Z</time></trkpt><trkpt lat="44.0379548" lon="12.0637837"><ele>429.5</ele><time>2026-04-12T09:52:34.011Z</time></trkpt><trkpt lat="44.0378593" lon="12.0636246"><ele>431.25</ele><time>2026-04-12T09:52:35.01Z</time></trkpt><trkpt lat="44.037757" lon="12.063471"><ele>433.0</ele><time>2026-04-12T09:52:36.012Z</time></trkpt><trkpt lat="44.037645" lon="12.0633253"><ele>432.33333333333337</ele><time>2026-04-12T09:52:37.012Z</time></trkpt><trkpt lat="44.0375176" lon="12.0631932"><ele>431.66666666666663</ele><time>2026-04-12T09:52:38.012Z</time></trkpt><trkpt lat="44.0373842" lon="12.0630816"><ele>431.0</ele><time>2026-04-12T09:52:39.014Z</time></trkpt><trkpt lat="44.0372444" lon="12.0630076"><ele>436.3333333333333</ele><time>2026-04-12T09:52:40.011Z</time></trkpt><trkpt lat="44.0370974" lon="12.0629706"><ele>441.66666666666663</ele><time>2026-04-12T09:52:41.013Z</time></trkpt><trkpt lat="44.0369443" lon="12.0629672"><ele>447.0</ele><time>2026-04-12T09:52:42.012Z</time></trkpt><trkpt lat="44.0367926" lon="12.0629848"><ele>447.0</ele><time>2026-04-12T09:52:43.013Z</time></trkpt><trkpt lat="44.0366492" lon="12.0630076"><ele>447.0</ele><time>2026-04-12T09:52:44.013Z</time></trkpt><trkpt lat="44.0365157" lon="12.0630185"><ele>447.0</ele><time>2026-04-12T09:52:45.012Z</time></trkpt><trkpt lat="44.0363942" lon="12.063006"><ele>447.0</ele><time>2026-04-12T09:52:46.016Z</time></trkpt><trkpt lat="44.0362771" lon="12.0629637"><ele>447.0</ele><time>2026-04-12T09:52:47.012Z</time></trkpt><trkpt lat="44.0361688" lon="12.0628845"><ele>447.0</ele><time>2026-04-12T09:52:48.012Z</time></trkpt><trkpt lat="44.0360694" lon="12.0627692"><ele>447.0</ele><time>2026-04-12T09:52:49.012Z</time></trkpt><trkpt lat="44.0359764" lon="12.0626092"><ele>447.0</ele><time>2026-04-12T09:52:50.013Z</time></trkpt><trkpt lat="44.0358839" lon="12.0624206"><ele>444.33333333333337</ele><time>2026-04-12T09:52:51.012Z</time></trkpt><trkpt lat="44.0357893" lon="12.062218"><ele>441.6666666666667</ele><time>2026-04-12T09:52:52.013Z</time></trkpt><trkpt lat="44.0356911" lon="12.0620133"><ele>439.0</ele><time>2026-04-12T09:52:53.012Z</time></trkpt><trkpt lat="44.035596" lon="12.0618204"><ele>439.0</ele><time>2026-04-12T09:52:54.011Z</time></trkpt><trkpt lat="44.0355029" lon="12.0616384"><ele>439.0</ele><time>2026-04-12T09:52:55.012Z</time></trkpt><trkpt lat="44.0354124" lon="12.0614702"><ele>439.0</ele><time>2026-04-12T09:52:56.012Z</time></trkpt><trkpt lat="44.0353155" lon="12.0613082"><ele>439.6666666666667</ele><time>2026-04-12T09:52:57.012Z</time></trkpt><trkpt lat="44.035214" lon="12.0611463"><ele>440.33333333333337</ele><time>2026-04-12T09:52:58.012Z</time></trkpt><trkpt lat="44.0351093" lon="12.0609838"><ele>441.0</ele><time>2026-04-12T09:52:59.011Z</time></trkpt><trkpt lat="44.035007" lon="12.0608156"><ele>442.0</ele><time>2026-04-12T09:53:00.011Z</time></trkpt><trkpt lat="44.0349078" lon="12.0606521"><ele>443.0</ele><time>2026-04-12T09:53:01.012Z</time></trkpt><trkpt lat="44.0348135" lon="12.0604992"><ele>444.0</ele><time>2026-04-12T09:53:02.012Z</time></trkpt><trkpt lat="44.03472" lon="12.060356"><ele>445.0</ele><time>2026-04-12T09:53:03.013Z</time></trkpt><trkpt lat="44.0346291" lon="12.0602196"><ele>445.0</ele><time>2026-04-12T09:53:04.011Z</time></trkpt><trkpt lat="44.0345421" lon="12.0600827"><ele>445.0</ele><time>2026-04-12T09:53:05.013Z</time></trkpt><trkpt lat="44.0344571" lon="12.0599468"><ele>445.0</ele><time>2026-04-12T09:53:06.012Z</time></trkpt><trkpt lat="44.0343686" lon="12.0598103"><ele>445.0</ele><time>2026-04-12T09:53:07.011Z</time></trkpt><trkpt lat="44.034283" lon="12.0596682"><ele>445.25</ele><time>2026-04-12T09:53:08.013Z</time></trkpt><trkpt lat="44.0342025" lon="12.0595191"><ele>445.5</ele><time>2026-04-12T09:53:09.013Z</time></trkpt><trkpt lat="44.0341283" lon="12.059368"><ele>445.75</ele><time>2026-04-12T09:53:10.012Z</time></trkpt><trkpt lat="44.0340617" lon="12.0592248"><ele>446.0</ele><time>2026-04-12T09:53:11.013Z</time></trkpt><trkpt lat="44.0340015" lon="12.0590933"><ele>450.6</ele><time>2026-04-12T09:53:12.012Z</time></trkpt><trkpt lat="44.0339434" lon="12.058986"><ele>455.20000000000005</ele><time>2026-04-12T09:53:13.011Z</time></trkpt><trkpt lat="44.0338824" lon="12.05891"><ele>459.79999999999995</ele><time>2026-04-12T09:53:14.013Z</time></trkpt><trkpt lat="44.0338131" lon="12.0588509"><ele>464.4</ele><time>2026-04-12T09:53:15.014Z</time></trkpt><trkpt lat="44.0337277" lon="12.0588068"><ele>469.0</ele><time>2026-04-12T09:53:16.012Z</time></trkpt><trkpt lat="44.0336116" lon="12.0587972"><ele>469.0</ele><time>2026-04-12T09:53:17.011Z</time></trkpt><trkpt lat="44.033498" lon="12.058777"><ele>469.0</ele><time>2026-04-12T09:53:18.013Z</time></trkpt><trkpt lat="44.0333926" lon="12.0587405"><ele>469.0</ele><time>2026-04-12T09:53:19.014Z</time></trkpt><trkpt lat="44.0332978" lon="12.0586858"><ele>469.0</ele><time>2026-04-12T09:53:20.011Z</time></trkpt><trkpt lat="44.0332114" lon="12.0586143"><ele>469.0</ele><time>2026-04-12T09:53:21.012Z</time></trkpt><trkpt lat="44.0331309" lon="12.0585341"><ele>469.6</ele><time>2026-04-12T09:53:22.01Z</time></trkpt><trkpt lat="44.0330544" lon="12.0584379"><ele>470.2</ele><time>2026-04-12T09:53:23.013Z</time></trkpt><trkpt lat="44.0329841" lon="12.0583267"><ele>470.80000000000007</ele><time>2026-04-12T09:53:24.012Z</time></trkpt><trkpt lat="44.0329175" lon="12.0581977"><ele>471.40000000000003</ele><time>2026-04-12T09:53:25.014Z</time></trkpt><trkpt lat="44.0328528" lon="12.058057"><ele>472.0</ele><time>2026-04-12T09:53:26.013Z</time></trkpt><trkpt lat="44.0327899" lon="12.0579124"><ele>472.0</ele><time>2026-04-12T09:53:27.016Z</time></trkpt><trkpt lat="44.03273" lon="12.0577707"><ele>472.00000000000006</ele><time>2026-04-12T09:53:28.013Z</time></trkpt><trkpt lat="44.0326707" lon="12.05764"><ele>472.00000000000006</ele><time>2026-04-12T09:53:29.012Z</time></trkpt><trkpt lat="44.0326189" lon="12.0575106"><ele>472.0</ele><time>2026-04-12T09:53:30.012Z</time></trkpt><trkpt lat="44.0325614" lon="12.0573975"><ele>472.0</ele><time>2026-04-12T09:53:31.011Z</time></trkpt><trkpt lat="44.0324909" lon="12.0573031"><ele>470.25</ele><time>2026-04-12T09:53:32.014Z</time></trkpt><trkpt lat="44.0324055" lon="12.0572263"><ele>468.5</ele><time>2026-04-12T09:53:33.012Z</time></trkpt><trkpt lat="44.0323022" lon="12.0571721"><ele>466.75</ele><time>2026-04-12T09:53:34.012Z</time></trkpt><trkpt lat="44.0321839" lon="12.0571331"><ele>465.0</ele><time>2026-04-12T09:53:35.012Z</time></trkpt><trkpt lat="44.0320588" lon="12.0570965"><ele>465.0</ele><time>2026-04-12T09:53:36.013Z</time></trkpt><trkpt lat="44.0319275" lon="12.0570569"><ele>465.0</ele><time>2026-04-12T09:53:37.013Z</time></trkpt><trkpt lat="44.0317829" lon="12.0570235"><ele>465.0</ele><time>2026-04-12T09:53:38.011Z</time></trkpt><trkpt lat="44.031632" lon="12.0569821"><ele>465.0</ele><time>2026-04-12T09:53:39.011Z</time></trkpt><trkpt lat="44.0314825" lon="12.0569456"><ele>462.5</ele><time>2026-04-12T09:53:40.012Z</time></trkpt><trkpt lat="44.0313406" lon="12.056924"><ele>460.0</ele><time>2026-04-12T09:53:41.013Z</time></trkpt><trkpt lat="44.031199" lon="12.0569417"><ele>457.5</ele><time>2026-04-12T09:53:42.012Z</time></trkpt><trkpt lat="44.0310619" lon="12.0569862"><ele>455.0</ele><time>2026-04-12T09:53:43.012Z</time></trkpt><trkpt lat="44.0309259" lon="12.0570498"><ele>453.0</ele><time>2026-04-12T09:53:44.014Z</time></trkpt><trkpt lat="44.0307887" lon="12.0571219"><ele>451.0</ele><time>2026-04-12T09:53:45.013Z</time></trkpt><trkpt lat="44.03065" lon="12.0571809"><ele>449.0</ele><time>2026-04-12T09:53:46.013Z</time></trkpt><trkpt lat="44.0305112" lon="12.0572243"><ele>447.0</ele><time>2026-04-12T09:53:47.013Z</time></trkpt><trkpt lat="44.0303788" lon="12.0572474"><ele>447.0</ele><time>2026-04-12T09:53:48.012Z</time></trkpt><trkpt lat="44.030251" lon="12.0572534"><ele>447.00000000000006</ele><time>2026-04-12T09:53:49.013Z</time></trkpt><trkpt lat="44.0301334" lon="12.0572394"><ele>447.00000000000006</ele><time>2026-04-12T09:53:50.013Z</time></trkpt><trkpt lat="44.0300288" lon="12.0572111"><ele>447.0</ele><time>2026-04-12T09:53:51.013Z</time></trkpt><trkpt lat="44.0299352" lon="12.0571793"><ele>447.0</ele><time>2026-04-12T09:53:52.013Z</time></trkpt><trkpt lat="44.0298479" lon="12.0571527"><ele>446.1666666666667</ele><time>2026-04-12T09:53:53.012Z</time></trkpt><trkpt lat="44.0297664" lon="12.0571384"><ele>445.33333333333337</ele><time>2026-04-12T09:53:54.018Z</time></trkpt><trkpt lat="44.0296902" lon="12.0571381"><ele>444.5</ele><time>2026-04-12T09:53:55.012Z</time></trkpt><trkpt lat="44.029613" lon="12.057154"><ele>443.6666666666667</ele><time>2026-04-12T09:53:56.013Z</time></trkpt><trkpt lat="44.0295305" lon="12.0571886"><ele>442.83333333333337</ele><time>2026-04-12T09:53:57.011Z</time></trkpt><trkpt lat="44.0294439" lon="12.0572343"><ele>442.0</ele><time>2026-04-12T09:53:58.013Z</time></trkpt><trkpt lat="44.0293566" lon="12.0572878"><ele>442.00000000000006</ele><time>2026-04-12T09:53:59.012Z</time></trkpt><trkpt lat="44.0292653" lon="12.0573365"><ele>442.0</ele><time>2026-04-12T09:54:00.014Z</time></trkpt><trkpt lat="44.0291753" lon="12.0573848"><ele>442.0</ele><time>2026-04-12T09:54:01.013Z</time></trkpt><trkpt lat="44.0290894" lon="12.0574316"><ele>442.0</ele><time>2026-04-12T09:54:02.012Z</time></trkpt><trkpt lat="44.0290128" lon="12.0574801"><ele>442.00000000000006</ele><time>2026-04-12T09:54:03.012Z</time></trkpt><trkpt lat="44.0289431" lon="12.0575274"><ele>442.0</ele><time>2026-04-12T09:54:04.01Z</time></trkpt><trkpt lat="44.0288803" lon="12.0575646"><ele>442.6</ele><time>2026-04-12T09:54:05.011Z</time></trkpt><trkpt lat="44.0287777" lon="12.0575971"><ele>443.20000000000005</ele><time>2026-04-12T09:54:07.012Z</time></trkpt><trkpt lat="44.028711" lon="12.0575588"><ele>443.8</ele><time>2026-04-12T09:54:09.011Z</time></trkpt><trkpt lat="44.0287015" lon="12.0574505"><ele>444.4</ele><time>2026-04-12T09:54:11.01Z</time></trkpt><trkpt lat="44.0287726" lon="12.0573048"><ele>445.0</ele><time>2026-04-12T09:54:13.014Z</time></trkpt><trkpt lat="44.0288392" lon="12.0572118"><ele>442.83333333333337</ele><time>2026-04-12T09:54:14.012Z</time></trkpt><trkpt lat="44.0289006" lon="12.0571208"><ele>440.6666666666667</ele><time>2026-04-12T09:54:15.017Z</time></trkpt><trkpt lat="44.0289458" lon="12.0570307"><ele>438.5</ele><time>2026-04-12T09:54:16.012Z</time></trkpt><trkpt lat="44.0289817" lon="12.056939"><ele>436.33333333333337</ele><time>2026-04-12T09:54:17.011Z</time></trkpt><trkpt lat="44.0290113" lon="12.0568429"><ele>434.1666666666667</ele><time>2026-04-12T09:54:18.012Z</time></trkpt><trkpt lat="44.0290365" lon="12.0567391"><ele>432.0</ele><time>2026-04-12T09:54:19.013Z</time></trkpt><trkpt lat="44.0290613" lon="12.0566283"><ele>429.40000000000003</ele><time>2026-04-12T09:54:20.013Z</time></trkpt><trkpt lat="44.0290807" lon="12.0565095"><ele>426.80000000000007</ele><time>2026-04-12T09:54:21.012Z</time></trkpt><trkpt lat="44.0290919" lon="12.0563842"><ele>424.2</ele><time>2026-04-12T09:54:22.013Z</time></trkpt><trkpt lat="44.029098" lon="12.0562539"><ele>421.6</ele><time>2026-04-12T09:54:23.011Z</time></trkpt><trkpt lat="44.0291072" lon="12.0561237"><ele>419.0</ele><time>2026-04-12T09:54:24.012Z</time></trkpt><trkpt lat="44.0291287" lon="12.0560001"><ele>418.66666666666663</ele><time>2026-04-12T09:54:25.014Z</time></trkpt><trkpt lat="44.0291713" lon="12.0558893"><ele>418.3333333333333</ele><time>2026-04-12T09:54:26.011Z</time></trkpt><trkpt lat="44.0292291" lon="12.0557935"><ele>418.0</ele><time>2026-04-12T09:54:27.012Z</time></trkpt><trkpt lat="44.0292824" lon="12.055698"><ele>417.66666666666663</ele><time>2026-04-12T09:54:28.013Z</time></trkpt><trkpt lat="44.0293245" lon="12.055591"><ele>417.3333333333333</ele><time>2026-04-12T09:54:29.01Z</time></trkpt><trkpt lat="44.0293432" lon="12.0554727"><ele>417.0</ele><time>2026-04-12T09:54:30.011Z</time></trkpt><trkpt lat="44.0293393" lon="12.0553435"><ele>417.0</ele><time>2026-04-12T09:54:31.011Z</time></trkpt><trkpt lat="44.0293114" lon="12.0552084"><ele>417.0</ele><time>2026-04-12T09:54:32.011Z</time></trkpt><trkpt lat="44.0292789" lon="12.0550664"><ele>417.0</ele><time>2026-04-12T09:54:33.011Z</time></trkpt><trkpt lat="44.029254" lon="12.0549284"><ele>417.0</ele><time>2026-04-12T09:54:34.011Z</time></trkpt><trkpt lat="44.0292384" lon="12.0547977"><ele>417.0</ele><time>2026-04-12T09:54:35.01Z</time></trkpt><trkpt lat="44.0292302" lon="12.0546789"><ele>415.42857142857144</ele><time>2026-04-12T09:54:36.012Z</time></trkpt><trkpt lat="44.0292326" lon="12.0545714"><ele>413.85714285714283</ele><time>2026-04-12T09:54:37.011Z</time></trkpt><trkpt lat="44.0292529" lon="12.0544721"><ele>412.2857142857143</ele><time>2026-04-12T09:54:38.011Z</time></trkpt><trkpt lat="44.0293034" lon="12.0543977"><ele>410.7142857142857</ele><time>2026-04-12T09:54:39.014Z</time></trkpt><trkpt lat="44.0293689" lon="12.0543406"><ele>409.1428571428571</ele><time>2026-04-12T09:54:40.013Z</time></trkpt><trkpt lat="44.0294328" lon="12.0542801"><ele>407.57142857142856</ele><time>2026-04-12T09:54:41.013Z</time></trkpt><trkpt lat="44.0294577" lon="12.0541897"><ele>406.0</ele><time>2026-04-12T09:54:42.013Z</time></trkpt><trkpt lat="44.0294596" lon="12.0540816"><ele>404.25</ele><time>2026-04-12T09:54:43.011Z</time></trkpt><trkpt lat="44.0294316" lon="12.0539387"><ele>402.5</ele><time>2026-04-12T09:54:44.015Z</time></trkpt><trkpt lat="44.0293835" lon="12.0537755"><ele>400.75</ele><time>2026-04-12T09:54:45.012Z</time></trkpt><trkpt lat="44.0293271" lon="12.0535991"><ele>399.0</ele><time>2026-04-12T09:54:46.014Z</time></trkpt><trkpt lat="44.029272" lon="12.0534069"><ele>397.5</ele><time>2026-04-12T09:54:47.012Z</time></trkpt><trkpt lat="44.0292225" lon="12.0532129"><ele>396.0</ele><time>2026-04-12T09:54:48.011Z</time></trkpt><trkpt lat="44.029183" lon="12.0530272"><ele>394.5</ele><time>2026-04-12T09:54:49.012Z</time></trkpt><trkpt lat="44.029151" lon="12.052856"><ele>393.0</ele><time>2026-04-12T09:54:50.012Z</time></trkpt><trkpt lat="44.0291213" lon="12.0526938"><ele>391.5</ele><time>2026-04-12T09:54:51.014Z</time></trkpt><trkpt lat="44.0290899" lon="12.05254"><ele>390.0</ele><time>2026-04-12T09:54:52.016Z</time></trkpt><trkpt lat="44.0290636" lon="12.0523878"><ele>388.5</ele><time>2026-04-12T09:54:53.011Z</time></trkpt><trkpt lat="44.0290411" lon="12.0522305"><ele>387.0</ele><time>2026-04-12T09:54:54.017Z</time></trkpt><trkpt lat="44.0290242" lon="12.0520613"><ele>385.75</ele><time>2026-04-12T09:54:55.012Z</time></trkpt><trkpt lat="44.0290091" lon="12.0518736"><ele>384.5</ele><time>2026-04-12T09:54:56.013Z</time></trkpt><trkpt lat="44.0289908" lon="12.0516674"><ele>383.25</ele><time>2026-04-12T09:54:57.012Z</time></trkpt><trkpt lat="44.0289687" lon="12.0514637"><ele>382.0</ele><time>2026-04-12T09:54:58.011Z</time></trkpt><trkpt lat="44.0289445" lon="12.0512716"><ele>381.5</ele><time>2026-04-12T09:54:59.012Z</time></trkpt><trkpt lat="44.0289161" lon="12.0510841"><ele>381.0</ele><time>2026-04-12T09:55:00.012Z</time></trkpt><trkpt lat="44.0288917" lon="12.0508985"><ele>380.5</ele><time>2026-04-12T09:55:01.015Z</time></trkpt><trkpt lat="44.0288803" lon="12.050719"><ele>380.0</ele><time>2026-04-12T09:55:02.011Z</time></trkpt><trkpt lat="44.0288887" lon="12.0505386"><ele>378.75</ele><time>2026-04-12T09:55:03.012Z</time></trkpt><trkpt lat="44.0289183" lon="12.0503568"><ele>377.5</ele><time>2026-04-12T09:55:04.011Z</time></trkpt><trkpt lat="44.0289625" lon="12.0501713"><ele>376.25</ele><time>2026-04-12T09:55:05.012Z</time></trkpt><trkpt lat="44.0290162" lon="12.0499841"><ele>375.0</ele><time>2026-04-12T09:55:06.012Z</time></trkpt><trkpt lat="44.029068" lon="12.0497967"><ele>372.0</ele><time>2026-04-12T09:55:07.012Z</time></trkpt><trkpt lat="44.0291164" lon="12.0496082"><ele>369.0</ele><time>2026-04-12T09:55:08.013Z</time></trkpt><trkpt lat="44.0291704" lon="12.0494186"><ele>366.0</ele><time>2026-04-12T09:55:09.011Z</time></trkpt><trkpt lat="44.0292345" lon="12.0492204"><ele>363.0</ele><time>2026-04-12T09:55:10.011Z</time></trkpt><trkpt lat="44.0293003" lon="12.0490168"><ele>358.3333333333333</ele><time>2026-04-12T09:55:11.013Z</time></trkpt><trkpt lat="44.0293659" lon="12.0488194"><ele>353.66666666666663</ele><time>2026-04-12T09:55:12.014Z</time></trkpt><trkpt lat="44.0294324" lon="12.0486257"><ele>349.0</ele><time>2026-04-12T09:55:13.014Z</time></trkpt><trkpt lat="44.0294948" lon="12.0484298"><ele>345.0</ele><time>2026-04-12T09:55:14.013Z</time></trkpt><trkpt lat="44.0295594" lon="12.0482404"><ele>341.0</ele><time>2026-04-12T09:55:15.012Z</time></trkpt><trkpt lat="44.0296305" lon="12.0480554"><ele>337.0</ele><time>2026-04-12T09:55:16.011Z</time></trkpt><trkpt lat="44.0297062" lon="12.0478808"><ele>333.0</ele><time>2026-04-12T09:55:17.091Z</time></trkpt><trkpt lat="44.029775" lon="12.0477385"><ele>333.0</ele><time>2026-04-12T09:55:18.012Z</time></trkpt><trkpt lat="44.0298437" lon="12.0476087"><ele>333.0</ele><time>2026-04-12T09:55:19.012Z</time></trkpt><trkpt lat="44.0299109" lon="12.0475198"><ele>333.0</ele><time>2026-04-12T09:55:20.011Z</time></trkpt><trkpt lat="44.029987" lon="12.0474739"><ele>333.0</ele><time>2026-04-12T09:55:21.013Z</time></trkpt><trkpt lat="44.0300706" lon="12.0474743"><ele>333.0</ele><time>2026-04-12T09:55:22.012Z</time></trkpt><trkpt lat="44.0301444" lon="12.0475487"><ele>333.79999999999995</ele><time>2026-04-12T09:55:23.013Z</time></trkpt><trkpt lat="44.0302016" lon="12.0476729"><ele>334.6</ele><time>2026-04-12T09:55:24.012Z</time></trkpt><trkpt lat="44.0302347" lon="12.0478215"><ele>335.4</ele><time>2026-04-12T09:55:25.013Z</time></trkpt><trkpt lat="44.0302614" lon="12.0479592"><ele>336.20000000000005</ele><time>2026-04-12T09:55:26.014Z</time></trkpt><trkpt lat="44.0302946" lon="12.0480725"><ele>337.0</ele><time>2026-04-12T09:55:27.012Z</time></trkpt><trkpt lat="44.030334" lon="12.0481642"><ele>337.0</ele><time>2026-04-12T09:55:28.012Z</time></trkpt><trkpt lat="44.0303802" lon="12.0482358"><ele>337.0</ele><time>2026-04-12T09:55:29.013Z</time></trkpt><trkpt lat="44.0304526" lon="12.0482185"><ele>337.0</ele><time>2026-04-12T09:55:30.013Z</time></trkpt><trkpt lat="44.0305258" lon="12.0481731"><ele>337.0</ele><time>2026-04-12T09:55:31.019Z</time></trkpt><trkpt lat="44.0305818" lon="12.0480338"><ele>337.0</ele><time>2026-04-12T09:55:32.012Z</time></trkpt><trkpt lat="44.0306228" lon="12.047844"><ele>337.0</ele><time>2026-04-12T09:55:33.013Z</time></trkpt><trkpt lat="44.0306632" lon="12.047647"><ele>337.0</ele><time>2026-04-12T09:55:34.012Z</time></trkpt><trkpt lat="44.0306952" lon="12.047454"><ele>337.0</ele><time>2026-04-12T09:55:35.012Z</time></trkpt><trkpt lat="44.0307188" lon="12.0472802"><ele>337.0</ele><time>2026-04-12T09:55:36.013Z</time></trkpt><trkpt lat="44.0307114" lon="12.0471347"><ele>334.0</ele><time>2026-04-12T09:55:37.012Z</time></trkpt><trkpt lat="44.0306869" lon="12.0470172"><ele>331.0</ele><time>2026-04-12T09:55:38.012Z</time></trkpt><trkpt lat="44.0306486" lon="12.0469264"><ele>328.0</ele><time>2026-04-12T09:55:39.011Z</time></trkpt><trkpt lat="44.0305992" lon="12.0468585"><ele>325.0</ele><time>2026-04-12T09:55:40.013Z</time></trkpt><trkpt lat="44.0305444" lon="12.0467289"><ele>322.0</ele><time>2026-04-12T09:55:42.015Z</time></trkpt><trkpt lat="44.0305747" lon="12.0466368"><ele>319.0</ele><time>2026-04-12T09:55:44.011Z</time></trkpt><trkpt lat="44.0306401" lon="12.0466183"><ele>315.4</ele><time>2026-04-12T09:55:45.012Z</time></trkpt><trkpt lat="44.0307317" lon="12.0466177"><ele>311.79999999999995</ele><time>2026-04-12T09:55:46.011Z</time></trkpt><trkpt lat="44.0308257" lon="12.0465992"><ele>308.20000000000005</ele><time>2026-04-12T09:55:47.014Z</time></trkpt><trkpt lat="44.030928" lon="12.046546"><ele>304.6</ele><time>2026-04-12T09:55:48.011Z</time></trkpt><trkpt lat="44.0310212" lon="12.0464518"><ele>301.0</ele><time>2026-04-12T09:55:49.012Z</time></trkpt><trkpt lat="44.0311052" lon="12.0462987"><ele>301.0</ele><time>2026-04-12T09:55:50.012Z</time></trkpt><trkpt lat="44.03119" lon="12.0461325"><ele>301.0</ele><time>2026-04-12T09:55:51.011Z</time></trkpt><trkpt lat="44.0312768" lon="12.0459532"><ele>301.0</ele><time>2026-04-12T09:55:52.011Z</time></trkpt><trkpt lat="44.0313576" lon="12.0457728"><ele>297.66666666666663</ele><time>2026-04-12T09:55:53.012Z</time></trkpt><trkpt lat="44.031434" lon="12.0455877"><ele>294.3333333333333</ele><time>2026-04-12T09:55:54.013Z</time></trkpt><trkpt lat="44.0315105" lon="12.0453937"><ele>291.0</ele><time>2026-04-12T09:55:55.014Z</time></trkpt><trkpt lat="44.0315871" lon="12.0451871"><ele>290.3333333333333</ele><time>2026-04-12T09:55:56.012Z</time></trkpt><trkpt lat="44.0316623" lon="12.0449806"><ele>289.66666666666663</ele><time>2026-04-12T09:55:57.013Z</time></trkpt><trkpt lat="44.0317333" lon="12.0447805"><ele>289.0</ele><time>2026-04-12T09:55:58.012Z</time></trkpt><trkpt lat="44.0318" lon="12.0445869"><ele>286.75</ele><time>2026-04-12T09:55:59.012Z</time></trkpt><trkpt lat="44.0318661" lon="12.0444072"><ele>284.5</ele><time>2026-04-12T09:56:00.014Z</time></trkpt><trkpt lat="44.031929" lon="12.0442432"><ele>282.25</ele><time>2026-04-12T09:56:01.011Z</time></trkpt><trkpt lat="44.031988" lon="12.0440928"><ele>280.0</ele><time>2026-04-12T09:56:02.013Z</time></trkpt><trkpt lat="44.0320392" lon="12.0439529"><ele>275.0</ele><time>2026-04-12T09:56:03.012Z</time></trkpt><trkpt lat="44.0320392" lon="12.0439529"><ele>270.0</ele><time>2026-04-12T09:56:03.012Z</time></trkpt><trkpt lat="44.0326109" lon="12.0434036"><ele>267.25</ele><time>2026-04-12T09:56:15.012Z</time></trkpt><trkpt lat="44.032707" lon="12.0432099"><ele>264.5</ele><time>2026-04-12T09:56:18.012Z</time></trkpt><trkpt lat="44.032722" lon="12.0431061"><ele>261.75</ele><time>2026-04-12T09:56:19.012Z</time></trkpt><trkpt lat="44.0327248" lon="12.0429512"><ele>259.0</ele><time>2026-04-12T09:56:20.011Z</time></trkpt><trkpt lat="44.0327254" lon="12.0427244"><ele>256.66666666666663</ele><time>2026-04-12T09:56:21.012Z</time></trkpt><trkpt lat="44.0327326" lon="12.0424172"><ele>254.33333333333331</ele><time>2026-04-12T09:56:22.012Z</time></trkpt><trkpt lat="44.0327589" lon="12.0421261"><ele>252.0</ele><time>2026-04-12T09:56:23.012Z</time></trkpt><trkpt lat="44.0327972" lon="12.0418472"><ele>248.66666666666669</ele><time>2026-04-12T09:56:24.013Z</time></trkpt><trkpt lat="44.0328417" lon="12.0415848"><ele>245.33333333333334</ele><time>2026-04-12T09:56:25.013Z</time></trkpt><trkpt lat="44.0328868" lon="12.0413562"><ele>242.0</ele><time>2026-04-12T09:56:26.012Z</time></trkpt><trkpt lat="44.0329275" lon="12.0411569"><ele>242.0</ele><time>2026-04-12T09:56:27.013Z</time></trkpt><trkpt lat="44.0329712" lon="12.0409903"><ele>242.0</ele><time>2026-04-12T09:56:28.012Z</time></trkpt><trkpt lat="44.033035" lon="12.0408567"><ele>242.0</ele><time>2026-04-12T09:56:29.017Z</time></trkpt><trkpt lat="44.033105" lon="12.04074"><ele>242.0</ele><time>2026-04-12T09:56:30.012Z</time></trkpt><trkpt lat="44.0331717" lon="12.0406417"><ele>242.0</ele><time>2026-04-12T09:56:31.011Z</time></trkpt><trkpt lat="44.033215" lon="12.0405433"><ele>239.39999999999998</ele><time>2026-04-12T09:56:32.011Z</time></trkpt><trkpt lat="44.0332367" lon="12.0404233"><ele>236.79999999999998</ele><time>2026-04-12T09:56:33.011Z</time></trkpt><trkpt lat="44.033235" lon="12.0403033"><ele>234.2</ele><time>2026-04-12T09:56:34.012Z</time></trkpt><trkpt lat="44.0331717" lon="12.040145"><ele>231.6</ele><time>2026-04-12T09:56:35.013Z</time></trkpt><trkpt lat="44.0331067" lon="12.0399933"><ele>229.0</ele><time>2026-04-12T09:56:36.012Z</time></trkpt><trkpt lat="44.0330417" lon="12.0398483"><ele>226.79999999999998</ele><time>2026-04-12T09:56:37.013Z</time></trkpt><trkpt lat="44.0330033" lon="12.0397117"><ele>224.59999999999997</ele><time>2026-04-12T09:56:38.011Z</time></trkpt><trkpt lat="44.0329967" lon="12.0395767"><ele>222.4</ele><time>2026-04-12T09:56:39.012Z</time></trkpt><trkpt lat="44.0330333" lon="12.0394583"><ele>220.2</ele><time>2026-04-12T09:56:40.011Z</time></trkpt><trkpt lat="44.033085" lon="12.0393517"><ele>218.0</ele><time>2026-04-12T09:56:41.013Z</time></trkpt><trkpt lat="44.033125" lon="12.039255"><ele>218.00000000000003</ele><time>2026-04-12T09:56:42.014Z</time></trkpt><trkpt lat="44.03315" lon="12.039155"><ele>218.0</ele><time>2026-04-12T09:56:43.016Z</time></trkpt><trkpt lat="44.0331267" lon="12.0390733"><ele>218.0</ele><time>2026-04-12T09:56:44.013Z</time></trkpt><trkpt lat="44.0330867" lon="12.0389933"><ele>218.0</ele><time>2026-04-12T09:56:45.012Z</time></trkpt><trkpt lat="44.0330083" lon="12.03893"><ele>218.00000000000003</ele><time>2026-04-12T09:56:46.011Z</time></trkpt><trkpt lat="44.0329017" lon="12.0388817"><ele>218.0</ele><time>2026-04-12T09:56:47.012Z</time></trkpt><trkpt lat="44.0328067" lon="12.0388333"><ele>217.0</ele><time>2026-04-12T09:56:48.015Z</time></trkpt><trkpt lat="44.0327233" lon="12.0387917"><ele>216.0</ele><time>2026-04-12T09:56:49.012Z</time></trkpt><trkpt lat="44.0326517" lon="12.038755"><ele>215.0</ele><time>2026-04-12T09:56:50.011Z</time></trkpt><trkpt lat="44.0325633" lon="12.0386683"><ele>214.0</ele><time>2026-04-12T09:56:52.011Z</time></trkpt><trkpt lat="44.03256" lon="12.0385033"><ele>213.0</ele><time>2026-04-12T09:56:54.011Z</time></trkpt><trkpt lat="44.032625" lon="12.03832"><ele>212.33333333333331</ele><time>2026-04-12T09:56:55.011Z</time></trkpt><trkpt lat="44.0326783" lon="12.03813"><ele>211.66666666666666</ele><time>2026-04-12T09:56:56.012Z</time></trkpt><trkpt lat="44.0327467" lon="12.0379017"><ele>211.0</ele><time>2026-04-12T09:56:57.011Z</time></trkpt><trkpt lat="44.0327983" lon="12.0376933"><ele>211.0</ele><time>2026-04-12T09:56:58.012Z</time></trkpt><trkpt lat="44.0328567" lon="12.0374917"><ele>211.0</ele><time>2026-04-12T09:56:59.011Z</time></trkpt><trkpt lat="44.03291" lon="12.0373083"><ele>211.0</ele><time>2026-04-12T09:57:00.012Z</time></trkpt><trkpt lat="44.03297" lon="12.037145"><ele>211.0</ele><time>2026-04-12T09:57:01.012Z</time></trkpt><trkpt lat="44.0330467" lon="12.03701"><ele>210.5</ele><time>2026-04-12T09:57:02.012Z</time></trkpt><trkpt lat="44.03314" lon="12.0369033"><ele>210.0</ele><time>2026-04-12T09:57:03.019Z</time></trkpt><trkpt lat="44.0332476" lon="12.0367904"><ele>209.5</ele><time>2026-04-12T09:57:04.011Z</time></trkpt><trkpt lat="44.0333672" lon="12.0366731"><ele>209.0</ele><time>2026-04-12T09:57:05.012Z</time></trkpt><trkpt lat="44.0334922" lon="12.0365506"><ele>210.0</ele><time>2026-04-12T09:57:06.011Z</time></trkpt><trkpt lat="44.0336005" lon="12.0364157"><ele>211.0</ele><time>2026-04-12T09:57:07.012Z</time></trkpt><trkpt lat="44.0336908" lon="12.0362667"><ele>212.0</ele><time>2026-04-12T09:57:08.012Z</time></trkpt><trkpt lat="44.033772" lon="12.0361363"><ele>213.0</ele><time>2026-04-12T09:57:09.012Z</time></trkpt><trkpt lat="44.0338571" lon="12.0360542"><ele>213.0</ele><time>2026-04-12T09:57:10.014Z</time></trkpt><trkpt lat="44.0339368" lon="12.0360285"><ele>213.0</ele><time>2026-04-12T09:57:11.013Z</time></trkpt><trkpt lat="44.0340054" lon="12.0360211"><ele>213.0</ele><time>2026-04-12T09:57:12.012Z</time></trkpt><trkpt lat="44.0340681" lon="12.0359987"><ele>213.0</ele><time>2026-04-12T09:57:13.014Z</time></trkpt><trkpt lat="44.034104" lon="12.0358664"><ele>213.0</ele><time>2026-04-12T09:57:15.015Z</time></trkpt><trkpt lat="44.0340858" lon="12.0357729"><ele>213.0</ele><time>2026-04-12T09:57:16.011Z</time></trkpt><trkpt lat="44.0340668" lon="12.035666"><ele>215.0</ele><time>2026-04-12T09:57:17.015Z</time></trkpt><trkpt lat="44.0340658" lon="12.0355483"><ele>217.0</ele><time>2026-04-12T09:57:18.011Z</time></trkpt><trkpt lat="44.0340906" lon="12.0354341"><ele>219.0</ele><time>2026-04-12T09:57:19.012Z</time></trkpt><trkpt lat="44.0341654" lon="12.0353025"><ele>221.0</ele><time>2026-04-12T09:57:20.012Z</time></trkpt><trkpt lat="44.0342703" lon="12.0351691"><ele>223.0</ele><time>2026-04-12T09:57:21.013Z</time></trkpt><trkpt lat="44.0343927" lon="12.0350484"><ele>224.0</ele><time>2026-04-12T09:57:22.012Z</time></trkpt><trkpt lat="44.0345278" lon="12.0349461"><ele>225.0</ele><time>2026-04-12T09:57:23.01Z</time></trkpt><trkpt lat="44.0346735" lon="12.034846"><ele>226.0</ele><time>2026-04-12T09:57:24.019Z</time></trkpt><trkpt lat="44.034819" lon="12.034741"><ele>226.0</ele><time>2026-04-12T09:57:25.011Z</time></trkpt><trkpt lat="44.0349497" lon="12.0346325"><ele>226.0</ele><time>2026-04-12T09:57:26.012Z</time></trkpt><trkpt lat="44.0350554" lon="12.0345128"><ele>226.0</ele><time>2026-04-12T09:57:27.012Z</time></trkpt><trkpt lat="44.0351379" lon="12.0343767"><ele>226.0</ele><time>2026-04-12T09:57:28.011Z</time></trkpt><trkpt lat="44.0352014" lon="12.0342174"><ele>230.33333333333331</ele><time>2026-04-12T09:57:29.011Z</time></trkpt><trkpt lat="44.0352434" lon="12.0340238"><ele>234.66666666666669</ele><time>2026-04-12T09:57:30.012Z</time></trkpt><trkpt lat="44.0352751" lon="12.0338102"><ele>239.0</ele><time>2026-04-12T09:57:31.013Z</time></trkpt><trkpt lat="44.0353073" lon="12.0335955"><ele>239.0</ele><time>2026-04-12T09:57:32.013Z</time></trkpt><trkpt lat="44.0353379" lon="12.0333868"><ele>239.0</ele><time>2026-04-12T09:57:33.012Z</time></trkpt><trkpt lat="44.035364" lon="12.0331786"><ele>239.0</ele><time>2026-04-12T09:57:34.011Z</time></trkpt><trkpt lat="44.0353837" lon="12.0329688"><ele>239.0</ele><time>2026-04-12T09:57:35.012Z</time></trkpt><trkpt lat="44.0353912" lon="12.0327559"><ele>239.0</ele><time>2026-04-12T09:57:36.011Z</time></trkpt><trkpt lat="44.0353925" lon="12.0325425"><ele>239.0</ele><time>2026-04-12T09:57:37.011Z</time></trkpt><trkpt lat="44.0353745" lon="12.0323289"><ele>240.33333333333334</ele><time>2026-04-12T09:57:38.014Z</time></trkpt><trkpt lat="44.0353253" lon="12.0321165"><ele>241.66666666666669</ele><time>2026-04-12T09:57:39.012Z</time></trkpt><trkpt lat="44.0352478" lon="12.0319169"><ele>243.0</ele><time>2026-04-12T09:57:40.013Z</time></trkpt><trkpt lat="44.0351516" lon="12.0317256"><ele>245.66666666666669</ele><time>2026-04-12T09:57:41.012Z</time></trkpt><trkpt lat="44.0350591" lon="12.0315337"><ele>248.33333333333334</ele><time>2026-04-12T09:57:42.013Z</time></trkpt><trkpt lat="44.0349806" lon="12.0313521"><ele>251.0</ele><time>2026-04-12T09:57:43.014Z</time></trkpt><trkpt lat="44.0349159" lon="12.031174"><ele>246.25</ele><time>2026-04-12T09:57:44.014Z</time></trkpt><trkpt lat="44.0348699" lon="12.0309948"><ele>241.5</ele><time>2026-04-12T09:57:45.012Z</time></trkpt><trkpt lat="44.034853" lon="12.0308055"><ele>236.75</ele><time>2026-04-12T09:57:46.012Z</time></trkpt><trkpt lat="44.034864" lon="12.0305974"><ele>232.0</ele><time>2026-04-12T09:57:47.011Z</time></trkpt><trkpt lat="44.0348891" lon="12.0303733"><ele>232.0</ele><time>2026-04-12T09:57:48.011Z</time></trkpt><trkpt lat="44.0349081" lon="12.0301318"><ele>232.0</ele><time>2026-04-12T09:57:49.011Z</time></trkpt><trkpt lat="44.0349069" lon="12.0298744"><ele>232.0</ele><time>2026-04-12T09:57:50.012Z</time></trkpt><trkpt lat="44.034875" lon="12.0296059"><ele>233.66666666666666</ele><time>2026-04-12T09:57:51.013Z</time></trkpt><trkpt lat="44.0348198" lon="12.0293305"><ele>235.33333333333331</ele><time>2026-04-12T09:57:52.011Z</time></trkpt><trkpt lat="44.0347538" lon="12.0290596"><ele>237.0</ele><time>2026-04-12T09:57:53.011Z</time></trkpt><trkpt lat="44.0346913" lon="12.0288158"><ele>238.0</ele><time>2026-04-12T09:57:54.013Z</time></trkpt><trkpt lat="44.0346406" lon="12.0286128"><ele>239.0</ele><time>2026-04-12T09:57:55.011Z</time></trkpt><trkpt lat="44.0346052" lon="12.0284474"><ele>240.0</ele><time>2026-04-12T09:57:56.011Z</time></trkpt><trkpt lat="44.0345977" lon="12.0283179"><ele>241.0</ele><time>2026-04-12T09:57:57.014Z</time></trkpt><trkpt lat="44.0346065" lon="12.0282172"><ele>242.0</ele><time>2026-04-12T09:57:58.011Z</time></trkpt><trkpt lat="44.034677" lon="12.0281248"><ele>243.0</ele><time>2026-04-12T09:58:00.012Z</time></trkpt><trkpt lat="44.0348059" lon="12.0282066"><ele>244.0</ele><time>2026-04-12T09:58:02.012Z</time></trkpt><trkpt lat="44.0348753" lon="12.0282406"><ele>245.0</ele><time>2026-04-12T09:58:03.013Z</time></trkpt><trkpt lat="44.0349403" lon="12.0282536"><ele>246.0</ele><time>2026-04-12T09:58:04.012Z</time></trkpt><trkpt lat="44.035045" lon="12.028169"><ele>247.0</ele><time>2026-04-12T09:58:06.015Z</time></trkpt><trkpt lat="44.0350496" lon="12.0280245"><ele>251.0</ele><time>2026-04-12T09:58:07.012Z</time></trkpt><trkpt lat="44.0350465" lon="12.0278509"><ele>255.0</ele><time>2026-04-12T09:58:08.012Z</time></trkpt><trkpt lat="44.0350461" lon="12.0276562"><ele>259.0</ele><time>2026-04-12T09:58:09.013Z</time></trkpt><trkpt lat="44.035044" lon="12.0274435"><ele>263.0</ele><time>2026-04-12T09:58:10.013Z</time></trkpt><trkpt lat="44.0350407" lon="12.0272119"><ele>264.6666666666667</ele><time>2026-04-12T09:58:11.015Z</time></trkpt><trkpt lat="44.0350371" lon="12.0269586"><ele>266.3333333333333</ele><time>2026-04-12T09:58:12.012Z</time></trkpt><trkpt lat="44.0350295" lon="12.0267069"><ele>268.0</ele><time>2026-04-12T09:58:13.012Z</time></trkpt><trkpt lat="44.0350183" lon="12.0264754"><ele>270.0</ele><time>2026-04-12T09:58:14.011Z</time></trkpt><trkpt lat="44.0350099" lon="12.0262707"><ele>272.0</ele><time>2026-04-12T09:58:15.012Z</time></trkpt><trkpt lat="44.0350045" lon="12.0260822"><ele>274.0</ele><time>2026-04-12T09:58:16.014Z</time></trkpt><trkpt lat="44.0350063" lon="12.025907"><ele>276.0</ele><time>2026-04-12T09:58:17.012Z</time></trkpt><trkpt lat="44.0350084" lon="12.0257573"><ele>277.3333333333333</ele><time>2026-04-12T09:58:18.012Z</time></trkpt><trkpt lat="44.0350022" lon="12.0256404"><ele>278.6666666666667</ele><time>2026-04-12T09:58:19.011Z</time></trkpt><trkpt lat="44.0349861" lon="12.0255436"><ele>280.0</ele><time>2026-04-12T09:58:20.011Z</time></trkpt><trkpt lat="44.034946" lon="12.025459"><ele>281.33333333333337</ele><time>2026-04-12T09:58:21.011Z</time></trkpt><trkpt lat="44.0348845" lon="12.025375"><ele>282.6666666666667</ele><time>2026-04-12T09:58:22.012Z</time></trkpt><trkpt lat="44.034809" lon="12.025283"><ele>284.0</ele><time>2026-04-12T09:58:23.01Z</time></trkpt><trkpt lat="44.0347292" lon="12.0251683"><ele>281.0</ele><time>2026-04-12T09:58:24.015Z</time></trkpt><trkpt lat="44.0346409" lon="12.0250377"><ele>278.0</ele><time>2026-04-12T09:58:25.011Z</time></trkpt><trkpt lat="44.0345474" lon="12.0249007"><ele>275.0</ele><time>2026-04-12T09:58:26.01Z</time></trkpt><trkpt lat="44.0344493" lon="12.0247545"><ele>272.0</ele><time>2026-04-12T09:58:27.013Z</time></trkpt><trkpt lat="44.0343442" lon="12.0245957"><ele>272.0</ele><time>2026-04-12T09:58:28.011Z</time></trkpt><trkpt lat="44.0342294" lon="12.0244253"><ele>272.0</ele><time>2026-04-12T09:58:29.012Z</time></trkpt><trkpt lat="44.0341131" lon="12.0242507"><ele>272.0</ele><time>2026-04-12T09:58:30.012Z</time></trkpt><trkpt lat="44.034003" lon="12.0240817"><ele>270.75</ele><time>2026-04-12T09:58:31.012Z</time></trkpt><trkpt lat="44.0339014" lon="12.0239296"><ele>269.5</ele><time>2026-04-12T09:58:32.013Z</time></trkpt><trkpt lat="44.033808" lon="12.0237926"><ele>268.25</ele><time>2026-04-12T09:58:33.011Z</time></trkpt><trkpt lat="44.0337186" lon="12.0236609"><ele>267.0</ele><time>2026-04-12T09:58:34.015Z</time></trkpt><trkpt lat="44.0336321" lon="12.0235384"><ele>267.0</ele><time>2026-04-12T09:58:35.011Z</time></trkpt><trkpt lat="44.0335613" lon="12.0234143"><ele>267.0</ele><time>2026-04-12T09:58:36.013Z</time></trkpt><trkpt lat="44.0335053" lon="12.0232965"><ele>267.0</ele><time>2026-04-12T09:58:37.015Z</time></trkpt><trkpt lat="44.0334582" lon="12.023175"><ele>267.0</ele><time>2026-04-12T09:58:38.012Z</time></trkpt><trkpt lat="44.0334177" lon="12.0230373"><ele>267.0</ele><time>2026-04-12T09:58:39.012Z</time></trkpt><trkpt lat="44.0333666" lon="12.0228965"><ele>267.75</ele><time>2026-04-12T09:58:40.012Z</time></trkpt><trkpt lat="44.0333034" lon="12.0227544"><ele>268.5</ele><time>2026-04-12T09:58:41.011Z</time></trkpt><trkpt lat="44.0332207" lon="12.0226269"><ele>269.25</ele><time>2026-04-12T09:58:42.009Z</time></trkpt><trkpt lat="44.0331189" lon="12.0225283"><ele>270.0</ele><time>2026-04-12T09:58:43.016Z</time></trkpt><trkpt lat="44.0330028" lon="12.022452"><ele>270.0</ele><time>2026-04-12T09:58:44.013Z</time></trkpt><trkpt lat="44.0328796" lon="12.0223853"><ele>270.0</ele><time>2026-04-12T09:58:45.013Z</time></trkpt><trkpt lat="44.032764" lon="12.0222981"><ele>270.0</ele><time>2026-04-12T09:58:46.013Z</time></trkpt><trkpt lat="44.0326508" lon="12.0221949"><ele>270.0</ele><time>2026-04-12T09:58:47.011Z</time></trkpt><trkpt lat="44.0325396" lon="12.0220844"><ele>268.25</ele><time>2026-04-12T09:58:48.015Z</time></trkpt><trkpt lat="44.0324346" lon="12.0219688"><ele>266.5</ele><time>2026-04-12T09:58:49.012Z</time></trkpt><trkpt lat="44.0323425" lon="12.0218495"><ele>264.75</ele><time>2026-04-12T09:58:50.012Z</time></trkpt><trkpt lat="44.0322493" lon="12.0217417"><ele>263.0</ele><time>2026-04-12T09:58:51.013Z</time></trkpt><trkpt lat="44.0321616" lon="12.0216393"><ele>263.0</ele><time>2026-04-12T09:58:52.013Z</time></trkpt><trkpt lat="44.0320738" lon="12.0215439"><ele>263.0</ele><time>2026-04-12T09:58:53.013Z</time></trkpt><trkpt lat="44.0319864" lon="12.0214695"><ele>263.0</ele><time>2026-04-12T09:58:54.012Z</time></trkpt><trkpt lat="44.0319035" lon="12.0214059"><ele>263.0</ele><time>2026-04-12T09:58:55.013Z</time></trkpt><trkpt lat="44.0318176" lon="12.0213632"><ele>263.0</ele><time>2026-04-12T09:58:56.013Z</time></trkpt><trkpt lat="44.0317204" lon="12.0213497"><ele>262.5</ele><time>2026-04-12T09:58:57.013Z</time></trkpt><trkpt lat="44.0316092" lon="12.021352"><ele>262.0</ele><time>2026-04-12T09:58:58.013Z</time></trkpt><trkpt lat="44.0314911" lon="12.0213619"><ele>261.5</ele><time>2026-04-12T09:58:59.013Z</time></trkpt><trkpt lat="44.0313727" lon="12.0213785"><ele>261.0</ele><time>2026-04-12T09:59:00.016Z</time></trkpt><trkpt lat="44.0312565" lon="12.0213803"><ele>261.0</ele><time>2026-04-12T09:59:01.018Z</time></trkpt><trkpt lat="44.0311479" lon="12.0213729"><ele>261.0</ele><time>2026-04-12T09:59:02.014Z</time></trkpt><trkpt lat="44.0310438" lon="12.0213524"><ele>261.0</ele><time>2026-04-12T09:59:03.012Z</time></trkpt><trkpt lat="44.0309473" lon="12.0212875"><ele>261.0</ele><time>2026-04-12T09:59:04.013Z</time></trkpt><trkpt lat="44.0308628" lon="12.0211805"><ele>261.0</ele><time>2026-04-12T09:59:05.01Z</time></trkpt><trkpt lat="44.0307831" lon="12.0210563"><ele>260.40000000000003</ele><time>2026-04-12T09:59:06.013Z</time></trkpt><trkpt lat="44.0307194" lon="12.0209065"><ele>259.8</ele><time>2026-04-12T09:59:07.013Z</time></trkpt><trkpt lat="44.0306541" lon="12.0207802"><ele>259.20000000000005</ele><time>2026-04-12T09:59:08.017Z</time></trkpt><trkpt lat="44.0305856" lon="12.0206702"><ele>258.6</ele><time>2026-04-12T09:59:09.014Z</time></trkpt><trkpt lat="44.0304954" lon="12.0206014"><ele>258.0</ele><time>2026-04-12T09:59:10.01Z</time></trkpt><trkpt lat="44.0303889" lon="12.0205583"><ele>259.0</ele><time>2026-04-12T09:59:11.011Z</time></trkpt><trkpt lat="44.0302646" lon="12.0205253"><ele>260.0</ele><time>2026-04-12T09:59:12.01Z</time></trkpt><trkpt lat="44.0301279" lon="12.0204894"><ele>261.0</ele><time>2026-04-12T09:59:13.014Z</time></trkpt><trkpt lat="44.0299942" lon="12.0204673"><ele>262.0</ele><time>2026-04-12T09:59:14.011Z</time></trkpt><trkpt lat="44.0298793" lon="12.0204238"><ele>262.0</ele><time>2026-04-12T09:59:15.013Z</time></trkpt><trkpt lat="44.0297675" lon="12.0203921"><ele>262.0</ele><time>2026-04-12T09:59:16.011Z</time></trkpt><trkpt lat="44.0296601" lon="12.0203532"><ele>262.0</ele><time>2026-04-12T09:59:17.012Z</time></trkpt><trkpt lat="44.02956" lon="12.02032"><ele>262.0</ele><time>2026-04-12T09:59:18.011Z</time></trkpt><trkpt lat="44.02946" lon="12.0202933"><ele>262.0</ele><time>2026-04-12T09:59:19.014Z</time></trkpt><trkpt lat="44.0293633" lon="12.0202667"><ele>262.0</ele><time>2026-04-12T09:59:20.011Z</time></trkpt><trkpt lat="44.02927" lon="12.02024"><ele>262.0</ele><time>2026-04-12T09:59:21.011Z</time></trkpt><trkpt lat="44.0291817" lon="12.0202033"><ele>262.0</ele><time>2026-04-12T09:59:22.011Z</time></trkpt><trkpt lat="44.0290817" lon="12.02019"><ele>262.0</ele><time>2026-04-12T09:59:23.01Z</time></trkpt><trkpt lat="44.0289817" lon="12.0201667"><ele>262.0</ele><time>2026-04-12T09:59:24.012Z</time></trkpt><trkpt lat="44.0288783" lon="12.0201367"><ele>262.6</ele><time>2026-04-12T09:59:25.013Z</time></trkpt><trkpt lat="44.02878" lon="12.0200817"><ele>263.2</ele><time>2026-04-12T09:59:26.012Z</time></trkpt><trkpt lat="44.0286917" lon="12.0200117"><ele>263.8</ele><time>2026-04-12T09:59:27.015Z</time></trkpt><trkpt lat="44.0286067" lon="12.0199317"><ele>264.4</ele><time>2026-04-12T09:59:28.012Z</time></trkpt><trkpt lat="44.0285267" lon="12.0198533"><ele>265.0</ele><time>2026-04-12T09:59:29.01Z</time></trkpt><trkpt lat="44.0284433" lon="12.0197633"><ele>265.4</ele><time>2026-04-12T09:59:30.013Z</time></trkpt><trkpt lat="44.0283683" lon="12.01966"><ele>265.8</ele><time>2026-04-12T09:59:31.012Z</time></trkpt><trkpt lat="44.028325" lon="12.0195233"><ele>266.2</ele><time>2026-04-12T09:59:32.014Z</time></trkpt><trkpt lat="44.0282967" lon="12.0193883"><ele>266.6</ele><time>2026-04-12T09:59:33.012Z</time></trkpt><trkpt lat="44.0283117" lon="12.0192433"><ele>267.0</ele><time>2026-04-12T09:59:34.015Z</time></trkpt><trkpt lat="44.0283367" lon="12.019115"><ele>268.6</ele><time>2026-04-12T09:59:35.011Z</time></trkpt><trkpt lat="44.0283417" lon="12.0189917"><ele>270.2</ele><time>2026-04-12T09:59:36.011Z</time></trkpt><trkpt lat="44.0283267" lon="12.018865"><ele>271.8</ele><time>2026-04-12T09:59:37.013Z</time></trkpt><trkpt lat="44.0282933" lon="12.018745"><ele>273.4</ele><time>2026-04-12T09:59:38.011Z</time></trkpt><trkpt lat="44.0282267" lon="12.0186367"><ele>275.0</ele><time>2026-04-12T09:59:39.014Z</time></trkpt><trkpt lat="44.028145" lon="12.018555"><ele>275.0</ele><time>2026-04-12T09:59:40.011Z</time></trkpt><trkpt lat="44.0280467" lon="12.0185"><ele>275.0</ele><time>2026-04-12T09:59:41.012Z</time></trkpt><trkpt lat="44.0279417" lon="12.0184633"><ele>275.0</ele><time>2026-04-12T09:59:42.011Z</time></trkpt><trkpt lat="44.0278217" lon="12.0184567"><ele>275.0</ele><time>2026-04-12T09:59:43.011Z</time></trkpt><trkpt lat="44.0276983" lon="12.01842"><ele>275.0</ele><time>2026-04-12T09:59:44.01Z</time></trkpt><trkpt lat="44.027585" lon="12.01832"><ele>275.0</ele><time>2026-04-12T09:59:45.011Z</time></trkpt><trkpt lat="44.02746" lon="12.018215"><ele>275.0</ele><time>2026-04-12T09:59:46.01Z</time></trkpt><trkpt lat="44.0273333" lon="12.0180783"><ele>275.0</ele><time>2026-04-12T09:59:47.011Z</time></trkpt><trkpt lat="44.0271967" lon="12.0179583"><ele>274.0</ele><time>2026-04-12T09:59:48.01Z</time></trkpt><trkpt lat="44.027055" lon="12.0178433"><ele>273.0</ele><time>2026-04-12T09:59:49.01Z</time></trkpt><trkpt lat="44.02691" lon="12.0177533"><ele>272.0</ele><time>2026-04-12T09:59:50.01Z</time></trkpt><trkpt lat="44.026785" lon="12.0176617"><ele>272.0</ele><time>2026-04-12T09:59:51.015Z</time></trkpt><trkpt lat="44.026675" lon="12.01757"><ele>272.0</ele><time>2026-04-12T09:59:52.01Z</time></trkpt><trkpt lat="44.026575" lon="12.017465"><ele>272.0</ele><time>2026-04-12T09:59:53.014Z</time></trkpt><trkpt lat="44.0264717" lon="12.0173567"><ele>272.0</ele><time>2026-04-12T09:59:54.011Z</time></trkpt><trkpt lat="44.0263833" lon="12.01724"><ele>272.5</ele><time>2026-04-12T09:59:55.01Z</time></trkpt><trkpt lat="44.0263033" lon="12.0171117"><ele>273.0</ele><time>2026-04-12T09:59:56.011Z</time></trkpt><trkpt lat="44.0262283" lon="12.0169633"><ele>273.5</ele><time>2026-04-12T09:59:57.014Z</time></trkpt><trkpt lat="44.02615" lon="12.0168233"><ele>274.0</ele><time>2026-04-12T09:59:58.013Z</time></trkpt><trkpt lat="44.02607" lon="12.0166983"><ele>275.0</ele><time>2026-04-12T09:59:59.013Z</time></trkpt><trkpt lat="44.025975" lon="12.0165817"><ele>276.0</ele><time>2026-04-12T10:00:00.013Z</time></trkpt><trkpt lat="44.02589" lon="12.0164667"><ele>277.0</ele><time>2026-04-12T10:00:01.013Z</time></trkpt><trkpt lat="44.0258167" lon="12.0163517"><ele>278.0</ele><time>2026-04-12T10:00:02.014Z</time></trkpt><trkpt lat="44.0257517" lon="12.0162467"><ele>278.0</ele><time>2026-04-12T10:00:03.015Z</time></trkpt><trkpt lat="44.0256883" lon="12.0161517"><ele>278.0</ele><time>2026-04-12T10:00:04.011Z</time></trkpt><trkpt lat="44.025625" lon="12.0160567"><ele>278.0</ele><time>2026-04-12T10:00:05.013Z</time></trkpt><trkpt lat="44.025565" lon="12.0159683"><ele>278.0</ele><time>2026-04-12T10:00:06.013Z</time></trkpt><trkpt lat="44.02548" lon="12.0159067"><ele>278.0</ele><time>2026-04-12T10:00:07.014Z</time></trkpt><trkpt lat="44.0253867" lon="12.0158717"><ele>278.0</ele><time>2026-04-12T10:00:08.013Z</time></trkpt><trkpt lat="44.0252783" lon="12.015865"><ele>278.0</ele><time>2026-04-12T10:00:09.012Z</time></trkpt><trkpt lat="44.025165" lon="12.0158633"><ele>278.0</ele><time>2026-04-12T10:00:10.015Z</time></trkpt><trkpt lat="44.02504" lon="12.0158367"><ele>278.0</ele><time>2026-04-12T10:00:11.013Z</time></trkpt><trkpt lat="44.02491" lon="12.0158183"><ele>279.5</ele><time>2026-04-12T10:00:12.014Z</time></trkpt><trkpt lat="44.0247867" lon="12.015785"><ele>281.0</ele><time>2026-04-12T10:00:13.013Z</time></trkpt><trkpt lat="44.0246733" lon="12.01575"><ele>282.5</ele><time>2026-04-12T10:00:14.012Z</time></trkpt><trkpt lat="44.02454" lon="12.01566"><ele>284.0</ele><time>2026-04-12T10:00:16.398Z</time></trkpt><trkpt lat="44.024335" lon="12.0155333"><ele>288.33333333333337</ele><time>2026-04-12T10:00:17.582Z</time></trkpt><trkpt lat="44.024085" lon="12.0154433"><ele>292.6666666666667</ele><time>2026-04-12T10:00:20.015Z</time></trkpt><trkpt lat="44.0239933" lon="12.0153817"><ele>297.0</ele><time>2026-04-12T10:00:21.01Z</time></trkpt><trkpt lat="44.0239017" lon="12.015335"><ele>297.0</ele><time>2026-04-12T10:00:22.01Z</time></trkpt><trkpt lat="44.0238083" lon="12.0153017"><ele>297.0</ele><time>2026-04-12T10:00:23.01Z</time></trkpt><trkpt lat="44.023715" lon="12.0152667"><ele>297.0</ele><time>2026-04-12T10:00:24.009Z</time></trkpt><trkpt lat="44.0236267" lon="12.01522"><ele>297.0</ele><time>2026-04-12T10:00:25.01Z</time></trkpt><trkpt lat="44.0235416" lon="12.0151621"><ele>297.0</ele><time>2026-04-12T10:00:26.012Z</time></trkpt><trkpt lat="44.0234617" lon="12.0150959"><ele>297.0</ele><time>2026-04-12T10:00:27.012Z</time></trkpt><trkpt lat="44.0233914" lon="12.0150197"><ele>297.0</ele><time>2026-04-12T10:00:28.011Z</time></trkpt><trkpt lat="44.0233252" lon="12.0149481"><ele>297.0</ele><time>2026-04-12T10:00:29.01Z</time></trkpt><trkpt lat="44.0232756" lon="12.0148732"><ele>297.0</ele><time>2026-04-12T10:00:30.011Z</time></trkpt><trkpt lat="44.0231947" lon="12.0147751"><ele>297.0</ele><time>2026-04-12T10:00:32.011Z</time></trkpt><trkpt lat="44.02312" lon="12.0147481"><ele>297.0</ele><time>2026-04-12T10:00:34.011Z</time></trkpt><trkpt lat="44.0230626" lon="12.014841"><ele>297.0</ele><time>2026-04-12T10:00:37.011Z</time></trkpt><trkpt lat="44.0230778" lon="12.014937"><ele>297.0</ele><time>2026-04-12T10:00:39.011Z</time></trkpt><trkpt lat="44.0231178" lon="12.015018"><ele>297.0</ele><time>2026-04-12T10:00:41.105Z</time></trkpt><trkpt lat="44.0231056" lon="12.0151674"><ele>297.0</ele><time>2026-04-12T10:00:42.997Z</time></trkpt><trkpt lat="44.0230649" lon="12.0152443"><ele>297.0</ele><time>2026-04-12T10:00:46.019Z</time></trkpt><trkpt lat="44.0231402" lon="12.0152687"><ele>297.0</ele><time>2026-04-12T10:00:48.019Z</time></trkpt><trkpt lat="44.0231002" lon="12.0152007"><ele>299.1666666666667</ele><time>2026-04-12T10:00:50.032Z</time></trkpt><trkpt lat="44.0230384" lon="12.0151522"><ele>301.3333333333333</ele><time>2026-04-12T10:00:51.011Z</time></trkpt><trkpt lat="44.0229612" lon="12.0151091"><ele>303.5</ele><time>2026-04-12T10:00:52.011Z</time></trkpt><trkpt lat="44.0228724" lon="12.0150815"><ele>305.66666666666663</ele><time>2026-04-12T10:00:53.012Z</time></trkpt><trkpt lat="44.0227877" lon="12.0150602"><ele>307.8333333333333</ele><time>2026-04-12T10:00:54.01Z</time></trkpt><trkpt lat="44.0227046" lon="12.0150489"><ele>310.0</ele><time>2026-04-12T10:00:55.011Z</time></trkpt><trkpt lat="44.0226284" lon="12.0150531"><ele>310.0</ele><time>2026-04-12T10:00:56.01Z</time></trkpt><trkpt lat="44.0225558" lon="12.0150784"><ele>310.0</ele><time>2026-04-12T10:00:57.011Z</time></trkpt><trkpt lat="44.0224883" lon="12.0151284"><ele>310.0</ele><time>2026-04-12T10:00:58.011Z</time></trkpt><trkpt lat="44.0224177" lon="12.0151983"><ele>310.0</ele><time>2026-04-12T10:00:59.012Z</time></trkpt><trkpt lat="44.0223399" lon="12.0152781"><ele>310.0</ele><time>2026-04-12T10:01:00.011Z</time></trkpt><trkpt lat="44.0222566" lon="12.0153543"><ele>310.0</ele><time>2026-04-12T10:01:01.012Z</time></trkpt><trkpt lat="44.0221813" lon="12.015429"><ele>312.0</ele><time>2026-04-12T10:01:02.011Z</time></trkpt><trkpt lat="44.0221063" lon="12.0154968"><ele>314.0</ele><time>2026-04-12T10:01:03.013Z</time></trkpt><trkpt lat="44.0220421" lon="12.0155669"><ele>316.0</ele><time>2026-04-12T10:01:04.01Z</time></trkpt><trkpt lat="44.0219813" lon="12.0156271"><ele>318.0</ele><time>2026-04-12T10:01:05.011Z</time></trkpt><trkpt lat="44.0219264" lon="12.0156735"><ele>320.0</ele><time>2026-04-12T10:01:06.011Z</time></trkpt><trkpt lat="44.0218712" lon="12.0157565"><ele>322.0</ele><time>2026-04-12T10:01:08.014Z</time></trkpt><trkpt lat="44.0218965" lon="12.0158519"><ele>322.0</ele><time>2026-04-12T10:01:12.011Z</time></trkpt><trkpt lat="44.0219931" lon="12.015857"><ele>322.0</ele><time>2026-04-12T10:01:15.012Z</time></trkpt><trkpt lat="44.0221126" lon="12.0158232"><ele>322.0</ele><time>2026-04-12T10:01:17.01Z</time></trkpt><trkpt lat="44.0221808" lon="12.015807"><ele>322.0</ele><time>2026-04-12T10:01:18.011Z</time></trkpt><trkpt lat="44.0222612" lon="12.0157957"><ele>322.0</ele><time>2026-04-12T10:01:19.01Z</time></trkpt><trkpt lat="44.0223408" lon="12.0157863"><ele>322.0</ele><time>2026-04-12T10:01:20.012Z</time></trkpt><trkpt lat="44.0224106" lon="12.0157924"><ele>324.6</ele><time>2026-04-12T10:01:21.011Z</time></trkpt><trkpt lat="44.0225105" lon="12.0158251"><ele>327.20000000000005</ele><time>2026-04-12T10:01:23.011Z</time></trkpt><trkpt lat="44.0225252" lon="12.0159311"><ele>329.8</ele><time>2026-04-12T10:01:26.011Z</time></trkpt><trkpt lat="44.0224778" lon="12.0160209"><ele>332.4</ele><time>2026-04-12T10:01:28.012Z</time></trkpt><trkpt lat="44.0224211" lon="12.0161316"><ele>335.0</ele><time>2026-04-12T10:01:30.013Z</time></trkpt><trkpt lat="44.0223384" lon="12.0162442"><ele>335.4285714285714</ele><time>2026-04-12T10:01:32.01Z</time></trkpt><trkpt lat="44.0223011" lon="12.0163177"><ele>335.85714285714283</ele><time>2026-04-12T10:01:33.011Z</time></trkpt><trkpt lat="44.0222604" lon="12.0163968"><ele>336.2857142857143</ele><time>2026-04-12T10:01:34.013Z</time></trkpt><trkpt lat="44.0222328" lon="12.0164839"><ele>336.71428571428567</ele><time>2026-04-12T10:01:35.013Z</time></trkpt><trkpt lat="44.0222092" lon="12.0165802"><ele>337.1428571428571</ele><time>2026-04-12T10:01:36.011Z</time></trkpt><trkpt lat="44.0221844" lon="12.0166957"><ele>337.57142857142856</ele><time>2026-04-12T10:01:37.012Z</time></trkpt><trkpt lat="44.0221505" lon="12.0168037"><ele>338.0</ele><time>2026-04-12T10:01:38.011Z</time></trkpt><trkpt lat="44.0221022" lon="12.0168947"><ele>342.33333333333337</ele><time>2026-04-12T10:01:39.012Z</time></trkpt><trkpt lat="44.0220513" lon="12.0169853"><ele>346.6666666666667</ele><time>2026-04-12T10:01:40.014Z</time></trkpt><trkpt lat="44.0219878" lon="12.0170529"><ele>351.0</ele><time>2026-04-12T10:01:41.013Z</time></trkpt><trkpt lat="44.0219195" lon="12.0171234"><ele>355.3333333333333</ele><time>2026-04-12T10:01:42.014Z</time></trkpt><trkpt lat="44.0218391" lon="12.017183"><ele>359.66666666666663</ele><time>2026-04-12T10:01:43.013Z</time></trkpt><trkpt lat="44.02177" lon="12.0172445"><ele>364.0</ele><time>2026-04-12T10:01:44.013Z</time></trkpt><trkpt lat="44.0217122" lon="12.0173153"><ele>364.0</ele><time>2026-04-12T10:01:45.01Z</time></trkpt><trkpt lat="44.0216622" lon="12.0173729"><ele>364.0</ele><time>2026-04-12T10:01:46.01Z</time></trkpt><trkpt lat="44.0215741" lon="12.0174657"><ele>364.0</ele><time>2026-04-12T10:01:48.011Z</time></trkpt><trkpt lat="44.0215014" lon="12.0175861"><ele>364.0</ele><time>2026-04-12T10:01:50.012Z</time></trkpt><trkpt lat="44.0214678" lon="12.0176603"><ele>364.0</ele><time>2026-04-12T10:01:51.013Z</time></trkpt><trkpt lat="44.0214318" lon="12.0177328"><ele>364.0</ele><time>2026-04-12T10:01:52.014Z</time></trkpt><trkpt lat="44.0213879" lon="12.0178054"><ele>367.79999999999995</ele><time>2026-04-12T10:01:53.013Z</time></trkpt><trkpt lat="44.0213357" lon="12.0178658"><ele>371.59999999999997</ele><time>2026-04-12T10:01:54.012Z</time></trkpt><trkpt lat="44.021228" lon="12.0179215"><ele>375.4</ele><time>2026-04-12T10:01:56.013Z</time></trkpt><trkpt lat="44.021184" lon="12.0180106"><ele>379.2</ele><time>2026-04-12T10:01:57.76Z</time></trkpt><trkpt lat="44.0211501" lon="12.0177643"><ele>383.0</ele><time>2026-04-12T10:02:01.014Z</time></trkpt><trkpt lat="44.0211411" lon="12.017633"><ele>383.0</ele><time>2026-04-12T10:02:02.01Z</time></trkpt><trkpt lat="44.021114" lon="12.0175476"><ele>383.0</ele><time>2026-04-12T10:02:03.013Z</time></trkpt><trkpt lat="44.0210599" lon="12.0174223"><ele>383.0</ele><time>2026-04-12T10:02:05.013Z</time></trkpt><trkpt lat="44.0209689" lon="12.0173842"><ele>383.0</ele><time>2026-04-12T10:02:07.011Z</time></trkpt><trkpt lat="44.0208673" lon="12.0174062"><ele>383.0</ele><time>2026-04-12T10:02:09.01Z</time></trkpt><trkpt lat="44.0207629" lon="12.0174718"><ele>384.5</ele><time>2026-04-12T10:02:11.011Z</time></trkpt><trkpt lat="44.0207022" lon="12.0175037"><ele>386.0</ele><time>2026-04-12T10:02:12.013Z</time></trkpt><trkpt lat="44.0206317" lon="12.0175365"><ele>387.5</ele><time>2026-04-12T10:02:13.011Z</time></trkpt><trkpt lat="44.0205625" lon="12.0175636"><ele>389.0</ele><time>2026-04-12T10:02:14.011Z</time></trkpt><trkpt lat="44.0204813" lon="12.0175946"><ele>390.49999999999994</ele><time>2026-04-12T10:02:15.011Z</time></trkpt><trkpt lat="44.020399" lon="12.017636"><ele>392.0</ele><time>2026-04-12T10:02:16.011Z</time></trkpt><trkpt lat="44.0203195" lon="12.0176782"><ele>392.0</ele><time>2026-04-12T10:02:17.011Z</time></trkpt><trkpt lat="44.0202405" lon="12.0177124"><ele>392.0</ele><time>2026-04-12T10:02:18.01Z</time></trkpt><trkpt lat="44.0201533" lon="12.0177452"><ele>392.0</ele><time>2026-04-12T10:02:19.011Z</time></trkpt><trkpt lat="44.020065" lon="12.0177516"><ele>392.0</ele><time>2026-04-12T10:02:20.01Z</time></trkpt><trkpt lat="44.0199732" lon="12.0177668"><ele>392.0</ele><time>2026-04-12T10:02:21.012Z</time></trkpt><trkpt lat="44.0198762" lon="12.017764"><ele>391.49999999999994</ele><time>2026-04-12T10:02:22.01Z</time></trkpt><trkpt lat="44.0197878" lon="12.0177632"><ele>391.0</ele><time>2026-04-12T10:02:23.01Z</time></trkpt><trkpt lat="44.0197103" lon="12.017735"><ele>390.5</ele><time>2026-04-12T10:02:24.011Z</time></trkpt><trkpt lat="44.0196397" lon="12.017697"><ele>390.0</ele><time>2026-04-12T10:02:25.011Z</time></trkpt><trkpt lat="44.0195684" lon="12.0176467"><ele>389.49999999999994</ele><time>2026-04-12T10:02:26.012Z</time></trkpt><trkpt lat="44.0195044" lon="12.0175818"><ele>389.0</ele><time>2026-04-12T10:02:27.012Z</time></trkpt><trkpt lat="44.0194507" lon="12.0174849"><ele>389.0</ele><time>2026-04-12T10:02:28.01Z</time></trkpt><trkpt lat="44.0194135" lon="12.0173793"><ele>389.0</ele><time>2026-04-12T10:02:29.01Z</time></trkpt><trkpt lat="44.0193764" lon="12.017289"><ele>389.0</ele><time>2026-04-12T10:02:30.011Z</time></trkpt><trkpt lat="44.0192847" lon="12.0172001"><ele>389.0</ele><time>2026-04-12T10:02:32.011Z</time></trkpt><trkpt lat="44.0191656" lon="12.0172133"><ele>389.0</ele><time>2026-04-12T10:02:34.01Z</time></trkpt><trkpt lat="44.0190772" lon="12.0172566"><ele>391.75</ele><time>2026-04-12T10:02:35.01Z</time></trkpt><trkpt lat="44.0189684" lon="12.0173148"><ele>394.5</ele><time>2026-04-12T10:02:36.011Z</time></trkpt><trkpt lat="44.0188661" lon="12.0174069"><ele>397.25</ele><time>2026-04-12T10:02:37.013Z</time></trkpt><trkpt lat="44.0187675" lon="12.0174996"><ele>400.0</ele><time>2026-04-12T10:02:38.01Z</time></trkpt><trkpt lat="44.0186741" lon="12.0175828"><ele>402.6</ele><time>2026-04-12T10:02:39.012Z</time></trkpt><trkpt lat="44.0185876" lon="12.0176524"><ele>405.2</ele><time>2026-04-12T10:02:40.01Z</time></trkpt><trkpt lat="44.0185132" lon="12.0177201"><ele>407.79999999999995</ele><time>2026-04-12T10:02:41.011Z</time></trkpt><trkpt lat="44.0184495" lon="12.017783"><ele>410.4</ele><time>2026-04-12T10:02:42.012Z</time></trkpt><trkpt lat="44.0183573" lon="12.0178661"><ele>413.0</ele><time>2026-04-12T10:02:44.011Z</time></trkpt><trkpt lat="44.0183" lon="12.0179717"><ele>412.99999999999994</ele><time>2026-04-12T10:03:12.011Z</time></trkpt><trkpt lat="44.0183617" lon="12.0180217"><ele>413.0</ele><time>2026-04-12T10:03:15.013Z</time></trkpt><trkpt lat="44.0184667" lon="12.0180167"><ele>413.0</ele><time>2026-04-12T10:03:17.014Z</time></trkpt><trkpt lat="44.01853" lon="12.01802"><ele>413.0</ele><time>2026-04-12T10:03:18.011Z</time></trkpt><trkpt lat="44.0185955" lon="12.0180227"><ele>412.99999999999994</ele><time>2026-04-12T10:03:19.013Z</time></trkpt><trkpt lat="44.0186677" lon="12.0180136"><ele>413.0</ele><time>2026-04-12T10:03:20.012Z</time></trkpt><trkpt lat="44.0187416" lon="12.0180163"><ele>412.99999999999994</ele><time>2026-04-12T10:03:21.012Z</time></trkpt><trkpt lat="44.0188146" lon="12.0180251"><ele>413.0</ele><time>2026-04-12T10:03:22.011Z</time></trkpt><trkpt lat="44.0188882" lon="12.0180588"><ele>413.0</ele><time>2026-04-12T10:03:23.01Z</time></trkpt><trkpt lat="44.0189633" lon="12.0181039"><ele>413.0</ele><time>2026-04-12T10:03:24.014Z</time></trkpt><trkpt lat="44.0190389" lon="12.0181578"><ele>412.99999999999994</ele><time>2026-04-12T10:03:25.013Z</time></trkpt><trkpt lat="44.0191105" lon="12.0182352"><ele>413.0</ele><time>2026-04-12T10:03:26.01Z</time></trkpt><trkpt lat="44.01918" lon="12.0183011"><ele>416.4</ele><time>2026-04-12T10:03:27.01Z</time></trkpt><trkpt lat="44.0192446" lon="12.0183535"><ele>419.79999999999995</ele><time>2026-04-12T10:03:28.011Z</time></trkpt><trkpt lat="44.0193082" lon="12.0183876"><ele>423.2</ele><time>2026-04-12T10:03:29.014Z</time></trkpt><trkpt lat="44.0194033" lon="12.0184673"><ele>426.6</ele><time>2026-04-12T10:03:31.012Z</time></trkpt><trkpt lat="44.0194262" lon="12.0185934"><ele>430.0</ele><time>2026-04-12T10:03:33.011Z</time></trkpt><trkpt lat="44.0193614" lon="12.0187491"><ele>430.0</ele><time>2026-04-12T10:03:35.011Z</time></trkpt><trkpt lat="44.0193028" lon="12.0188268"><ele>430.0</ele><time>2026-04-12T10:03:36.011Z</time></trkpt><trkpt lat="44.0192395" lon="12.0188909"><ele>430.0</ele><time>2026-04-12T10:03:37.01Z</time></trkpt><trkpt lat="44.0191513" lon="12.0189103"><ele>430.0</ele><time>2026-04-12T10:03:38.01Z</time></trkpt><trkpt lat="44.0190548" lon="12.0189235"><ele>430.0</ele><time>2026-04-12T10:03:39.01Z</time></trkpt><trkpt lat="44.0189476" lon="12.0189586"><ele>430.6</ele><time>2026-04-12T10:03:40.012Z</time></trkpt><trkpt lat="44.0188349" lon="12.0189804"><ele>431.2</ele><time>2026-04-12T10:03:41.015Z</time></trkpt><trkpt lat="44.0187191" lon="12.0189881"><ele>431.79999999999995</ele><time>2026-04-12T10:03:42.012Z</time></trkpt><trkpt lat="44.0186125" lon="12.0190086"><ele>432.4</ele><time>2026-04-12T10:03:43.011Z</time></trkpt><trkpt lat="44.0185174" lon="12.0190145"><ele>433.0</ele><time>2026-04-12T10:03:44.011Z</time></trkpt><trkpt lat="44.0184398" lon="12.0190264"><ele>433.00000000000006</ele><time>2026-04-12T10:03:45.012Z</time></trkpt><trkpt lat="44.0183663" lon="12.019059"><ele>433.0</ele><time>2026-04-12T10:03:46.011Z</time></trkpt><trkpt lat="44.0182888" lon="12.019101"><ele>433.0</ele><time>2026-04-12T10:03:47.01Z</time></trkpt><trkpt lat="44.0182071" lon="12.0191343"><ele>433.0</ele><time>2026-04-12T10:03:48.011Z</time></trkpt><trkpt lat="44.0181154" lon="12.0191872"><ele>433.00000000000006</ele><time>2026-04-12T10:03:49.013Z</time></trkpt><trkpt lat="44.0180223" lon="12.0192474"><ele>433.0</ele><time>2026-04-12T10:03:50.014Z</time></trkpt><trkpt lat="44.0179364" lon="12.0192973"><ele>438.50000000000006</ele><time>2026-04-12T10:03:51.012Z</time></trkpt><trkpt lat="44.0178617" lon="12.0193267"><ele>444.0</ele><time>2026-04-12T10:03:52.013Z</time></trkpt><trkpt lat="44.017765" lon="12.0193483"><ele>449.5</ele><time>2026-04-12T10:03:54.012Z</time></trkpt><trkpt lat="44.0177033" lon="12.0193167"><ele>455.0</ele><time>2026-04-12T10:03:56.015Z</time></trkpt><trkpt lat="44.017635" lon="12.019345"><ele>460.50000000000006</ele><time>2026-04-12T10:03:58.012Z</time></trkpt><trkpt lat="44.0176033" lon="12.01947"><ele>466.0</ele><time>2026-04-12T10:04:00.014Z</time></trkpt><trkpt lat="44.0175933" lon="12.0196117"><ele>466.0</ele><time>2026-04-12T10:04:02.01Z</time></trkpt><trkpt lat="44.0175369" lon="12.0197297"><ele>466.0</ele><time>2026-04-12T10:04:04.012Z</time></trkpt><trkpt lat="44.0174631" lon="12.0198511"><ele>466.0</ele><time>2026-04-12T10:04:06.011Z</time></trkpt><trkpt lat="44.0173824" lon="12.019936"><ele>466.0</ele><time>2026-04-12T10:04:08.011Z</time></trkpt><trkpt lat="44.0172651" lon="12.0199715"><ele>466.0</ele><time>2026-04-12T10:04:10.011Z</time></trkpt><trkpt lat="44.0172014" lon="12.0199857"><ele>473.0</ele><time>2026-04-12T10:04:11.021Z</time></trkpt><trkpt lat="44.0171391" lon="12.0200075"><ele>480.0</ele><time>2026-04-12T10:04:12.01Z</time></trkpt><trkpt lat="44.0170665" lon="12.0200273"><ele>487.0</ele><time>2026-04-12T10:04:13.011Z</time></trkpt><trkpt lat="44.0169801" lon="12.0200414"><ele>494.0</ele><time>2026-04-12T10:04:14.012Z</time></trkpt><trkpt lat="44.0164758" lon="12.0199599"><ele>494.8333333333333</ele><time>2026-04-12T10:04:18.011Z</time></trkpt><trkpt lat="44.0164458" lon="12.0200625"><ele>495.66666666666663</ele><time>2026-04-12T10:04:21.011Z</time></trkpt><trkpt lat="44.0164232" lon="12.0201604"><ele>496.5</ele><time>2026-04-12T10:04:22.009Z</time></trkpt><trkpt lat="44.0163507" lon="12.0202524"><ele>497.33333333333337</ele><time>2026-04-12T10:04:24.011Z</time></trkpt><trkpt lat="44.0162666" lon="12.0202108"><ele>498.1666666666667</ele><time>2026-04-12T10:04:26.011Z</time></trkpt><trkpt lat="44.016218" lon="12.0201345"><ele>499.0</ele><time>2026-04-12T10:04:27.01Z</time></trkpt><trkpt lat="44.0161767" lon="12.0200507"><ele>498.6</ele><time>2026-04-12T10:04:28.014Z</time></trkpt><trkpt lat="44.016111" lon="12.0199265"><ele>498.2</ele><time>2026-04-12T10:04:30.012Z</time></trkpt><trkpt lat="44.016071" lon="12.0198541"><ele>497.80000000000007</ele><time>2026-04-12T10:04:33.01Z</time></trkpt><trkpt lat="44.015935" lon="12.0198317"><ele>497.40000000000003</ele><time>2026-04-12T10:09:52.015Z</time></trkpt><trkpt lat="44.0158567" lon="12.01972"><ele>497.0</ele><time>2026-04-12T10:09:54.011Z</time></trkpt><trkpt lat="44.0158033" lon="12.01965"><ele>496.99999999999994</ele><time>2026-04-12T10:09:55.014Z</time></trkpt><trkpt lat="44.0157433" lon="12.019565"><ele>497.0</ele><time>2026-04-12T10:09:56.014Z</time></trkpt><trkpt lat="44.0156917" lon="12.01949"><ele>497.0</ele><time>2026-04-12T10:09:57.012Z</time></trkpt><trkpt lat="44.0156367" lon="12.019405"><ele>497.0</ele><time>2026-04-12T10:09:58.013Z</time></trkpt><trkpt lat="44.01558" lon="12.019305"><ele>496.99999999999994</ele><time>2026-04-12T10:09:59.012Z</time></trkpt><trkpt lat="44.0155217" lon="12.0191833"><ele>497.0</ele><time>2026-04-12T10:10:00.014Z</time></trkpt><trkpt lat="44.0154667" lon="12.01906"><ele>499.0</ele><time>2026-04-12T10:10:01.013Z</time></trkpt><trkpt lat="44.015425" lon="12.01895"><ele>501.00000000000006</ele><time>2026-04-12T10:10:02.012Z</time></trkpt><trkpt lat="44.015385" lon="12.0188517"><ele>503.00000000000006</ele><time>2026-04-12T10:10:03.013Z</time></trkpt><trkpt lat="44.0153583" lon="12.0186967"><ele>505.0</ele><time>2026-04-12T10:10:05.013Z</time></trkpt><trkpt lat="44.0153733" lon="12.018515"><ele>507.0</ele><time>2026-04-12T10:10:07.018Z</time></trkpt><trkpt lat="44.0153933" lon="12.0184017"><ele>508.5</ele><time>2026-04-12T10:10:08.013Z</time></trkpt><trkpt lat="44.0153967" lon="12.018295"><ele>510.0</ele><time>2026-04-12T10:10:09.013Z</time></trkpt><trkpt lat="44.015375" lon="12.0181933"><ele>511.5</ele><time>2026-04-12T10:10:10.012Z</time></trkpt><trkpt lat="44.0153733" lon="12.0180867"><ele>513.0</ele><time>2026-04-12T10:10:11.012Z</time></trkpt><trkpt lat="44.0153483" lon="12.0179633"><ele>514.5</ele><time>2026-04-12T10:10:12.015Z</time></trkpt><trkpt lat="44.015335" lon="12.017835"><ele>516.0</ele><time>2026-04-12T10:10:13.013Z</time></trkpt><trkpt lat="44.01533" lon="12.0177017"><ele>516.0</ele><time>2026-04-12T10:10:14.013Z</time></trkpt><trkpt lat="44.0153233" lon="12.0175617"><ele>516.0</ele><time>2026-04-12T10:10:15.013Z</time></trkpt><trkpt lat="44.0152883" lon="12.0174233"><ele>516.0</ele><time>2026-04-12T10:10:16.012Z</time></trkpt><trkpt lat="44.0152717" lon="12.0172883"><ele>516.0</ele><time>2026-04-12T10:10:17.014Z</time></trkpt><trkpt lat="44.0152433" lon="12.01715"><ele>516.0</ele><time>2026-04-12T10:10:18.012Z</time></trkpt><trkpt lat="44.015195" lon="12.0170083"><ele>516.6666666666666</ele><time>2026-04-12T10:10:19.012Z</time></trkpt><trkpt lat="44.015135" lon="12.0168833"><ele>517.3333333333334</ele><time>2026-04-12T10:10:20.012Z</time></trkpt><trkpt lat="44.0151133" lon="12.0167667"><ele>518.0</ele><time>2026-04-12T10:10:21.013Z</time></trkpt><trkpt lat="44.0150783" lon="12.016665"><ele>518.6666666666667</ele><time>2026-04-12T10:10:22.012Z</time></trkpt><trkpt lat="44.0150333" lon="12.0165517"><ele>519.3333333333334</ele><time>2026-04-12T10:10:24.012Z</time></trkpt><trkpt lat="44.0149833" lon="12.0164817"><ele>520.0</ele><time>2026-04-12T10:10:27.013Z</time></trkpt><trkpt lat="44.0149083" lon="12.0163883"><ele>520.0</ele><time>2026-04-12T10:15:21.012Z</time></trkpt><trkpt lat="44.0149134" lon="12.0162398"><ele>520.0</ele><time>2026-04-12T10:15:26.022Z</time></trkpt><trkpt lat="44.0149243" lon="12.0161326"><ele>520.0</ele><time>2026-04-12T10:15:28.028Z</time></trkpt><trkpt lat="44.0149605" lon="12.0160052"><ele>520.0</ele><time>2026-04-12T10:15:30.011Z</time></trkpt><trkpt lat="44.0149921" lon="12.0158651"><ele>520.0</ele><time>2026-04-12T10:15:32.011Z</time></trkpt><trkpt lat="44.0149793" lon="12.0157127"><ele>525.0</ele><time>2026-04-12T10:15:34.013Z</time></trkpt><trkpt lat="44.0149244" lon="12.015587"><ele>530.0</ele><time>2026-04-12T10:15:36.012Z</time></trkpt><trkpt lat="44.0148755" lon="12.0154665"><ele>535.0</ele><time>2026-04-12T10:15:38.012Z</time></trkpt><trkpt lat="44.0148423" lon="12.0153712"><ele>540.0</ele><time>2026-04-12T10:15:40.013Z</time></trkpt><trkpt lat="44.0148275" lon="12.0152667"><ele>545.0</ele><time>2026-04-12T10:15:42.011Z</time></trkpt><trkpt lat="44.0147833" lon="12.0151594"><ele>550.0</ele><time>2026-04-12T10:15:44.011Z</time></trkpt><trkpt lat="44.01475" lon="12.0150817"><ele>550.0</ele><time>2026-04-12T10:15:45.011Z</time></trkpt><trkpt lat="44.0147233" lon="12.0149967"><ele>550.0</ele><time>2026-04-12T10:15:46.011Z</time></trkpt><trkpt lat="44.0147117" lon="12.0149067"><ele>550.0</ele><time>2026-04-12T10:15:47.013Z</time></trkpt><trkpt lat="44.0147233" lon="12.0148183"><ele>550.0</ele><time>2026-04-12T10:15:48.011Z</time></trkpt><trkpt lat="44.0147333" lon="12.0146367"><ele>550.0</ele><time>2026-04-12T10:15:50.012Z</time></trkpt><trkpt lat="44.0147633" lon="12.0145483"><ele>550.0</ele><time>2026-04-12T10:15:51.015Z</time></trkpt><trkpt lat="44.0147983" lon="12.0144667"><ele>549.6</ele><time>2026-04-12T10:15:52.012Z</time></trkpt><trkpt lat="44.0148333" lon="12.0143683"><ele>549.2</ele><time>2026-04-12T10:15:53.012Z</time></trkpt><trkpt lat="44.0148783" lon="12.0142467"><ele>548.8</ele><time>2026-04-12T10:15:54.01Z</time></trkpt><trkpt lat="44.014925" lon="12.0141083"><ele>548.4</ele><time>2026-04-12T10:15:55.011Z</time></trkpt><trkpt lat="44.0149933" lon="12.0139917"><ele>548.0</ele><time>2026-04-12T10:15:56.014Z</time></trkpt><trkpt lat="44.015065" lon="12.0139067"><ele>545.5</ele><time>2026-04-12T10:15:57.011Z</time></trkpt><trkpt lat="44.0151433" lon="12.0138217"><ele>543.0</ele><time>2026-04-12T10:15:58.012Z</time></trkpt><trkpt lat="44.0152117" lon="12.013745"><ele>540.5</ele><time>2026-04-12T10:15:59.01Z</time></trkpt><trkpt lat="44.0152533" lon="12.0136633"><ele>538.0</ele><time>2026-04-12T10:16:00.01Z</time></trkpt><trkpt lat="44.0152783" lon="12.0135117"><ele>535.5</ele><time>2026-04-12T10:16:02.012Z</time></trkpt><trkpt lat="44.0152817" lon="12.013405"><ele>533.0</ele><time>2026-04-12T10:16:04.01Z</time></trkpt><trkpt lat="44.01523" lon="12.0133033"><ele>533.0</ele><time>2026-04-12T10:16:06.012Z</time></trkpt><trkpt lat="44.0151517" lon="12.01319"><ele>533.0</ele><time>2026-04-12T10:16:08.012Z</time></trkpt><trkpt lat="44.0150983" lon="12.0131233"><ele>533.0</ele><time>2026-04-12T10:16:10.012Z</time></trkpt><trkpt lat="44.0150417" lon="12.0130817"><ele>533.0</ele><time>2026-04-12T10:16:31.012Z</time></trkpt><trkpt lat="44.0150433" lon="12.01321"><ele>533.0</ele><time>2026-04-12T10:23:37.012Z</time></trkpt><trkpt lat="44.0150967" lon="12.01327"><ele>533.0</ele><time>2026-04-12T10:23:39.012Z</time></trkpt><trkpt lat="44.0151462" lon="12.0133285"><ele>533.0</ele><time>2026-04-12T10:23:42.005Z</time></trkpt><trkpt lat="44.0152367" lon="12.013345"><ele>533.0</ele><time>2026-04-12T10:23:58.01Z</time></trkpt><trkpt lat="44.0152767" lon="12.013275"><ele>533.0</ele><time>2026-04-12T10:24:00.009Z</time></trkpt><trkpt lat="44.0153133" lon="12.0131933"><ele>533.0</ele><time>2026-04-12T10:24:02.01Z</time></trkpt><trkpt lat="44.015385" lon="12.01312"><ele>533.0</ele><time>2026-04-12T10:24:04.01Z</time></trkpt><trkpt lat="44.0154683" lon="12.0130417"><ele>533.0</ele><time>2026-04-12T10:24:06.01Z</time></trkpt><trkpt lat="44.0155733" lon="12.012955"><ele>530.8</ele><time>2026-04-12T10:24:08.011Z</time></trkpt><trkpt lat="44.01567" lon="12.012875"><ele>528.5999999999999</ele><time>2026-04-12T10:24:10.012Z</time></trkpt><trkpt lat="44.0157383" lon="12.0128083"><ele>526.4000000000001</ele><time>2026-04-12T10:24:12.013Z</time></trkpt><trkpt lat="44.015795" lon="12.0127383"><ele>524.2</ele><time>2026-04-12T10:24:15.012Z</time></trkpt><trkpt lat="44.0158329" lon="12.012653"><ele>522.0</ele><time>2026-04-12T10:24:20.048Z</time></trkpt><trkpt lat="44.0158571" lon="12.0125015"><ele>520.2857142857143</ele><time>2026-04-12T10:24:22.055Z</time></trkpt><trkpt lat="44.0158597" lon="12.0123995"><ele>518.5714285714286</ele><time>2026-04-12T10:24:24.061Z</time></trkpt><trkpt lat="44.0158976" lon="12.0123095"><ele>516.8571428571429</ele><time>2026-04-12T10:24:27.07Z</time></trkpt><trkpt lat="44.0159496" lon="12.0122478"><ele>515.1428571428571</ele><time>2026-04-12T10:24:29.077Z</time></trkpt><trkpt lat="44.0159994" lon="12.0121821"><ele>513.4285714285714</ele><time>2026-04-12T10:24:31.083Z</time></trkpt><trkpt lat="44.0160467" lon="12.0120961"><ele>511.7142857142857</ele><time>2026-04-12T10:24:34.092Z</time></trkpt><trkpt lat="44.0161036" lon="12.012025"><ele>510.0</ele><time>2026-04-12T10:24:37.011Z</time></trkpt><trkpt lat="44.0161396" lon="12.0119507"><ele>510.0</ele><time>2026-04-12T10:24:39.96Z</time></trkpt><trkpt lat="44.0162019" lon="12.0118968"><ele>510.0</ele><time>2026-04-12T10:24:45.026Z</time></trkpt><trkpt lat="44.016115" lon="12.0119083"><ele>510.0</ele><time>2026-04-12T10:25:53.009Z</time></trkpt><trkpt lat="44.016085" lon="12.0120183"><ele>510.0</ele><time>2026-04-12T10:25:56.011Z</time></trkpt><trkpt lat="44.0160267" lon="12.0121017"><ele>510.0</ele><time>2026-04-12T10:25:58.011Z</time></trkpt><trkpt lat="44.01595" lon="12.0122183"><ele>510.0</ele><time>2026-04-12T10:26:00.01Z</time></trkpt><trkpt lat="44.0159" lon="12.0123383"><ele>510.0</ele><time>2026-04-12T10:26:02.011Z</time></trkpt><trkpt lat="44.015865" lon="12.0124333"><ele>510.0</ele><time>2026-04-12T10:26:04.011Z</time></trkpt><trkpt lat="44.0158117" lon="12.0125267"><ele>510.0</ele><time>2026-04-12T10:26:07.011Z</time></trkpt><trkpt lat="44.015745" lon="12.01258"><ele>510.0</ele><time>2026-04-12T10:26:10.011Z</time></trkpt><trkpt lat="44.0156617" lon="12.0126333"><ele>510.0</ele><time>2026-04-12T10:26:12.013Z</time></trkpt><trkpt lat="44.0155867" lon="12.01269"><ele>510.0</ele><time>2026-04-12T10:26:14.011Z</time></trkpt><trkpt lat="44.0155084" lon="12.0127422"><ele>511.6</ele><time>2026-04-12T10:26:16.061Z</time></trkpt><trkpt lat="44.0154145" lon="12.012716"><ele>513.2</ele><time>2026-04-12T10:26:18.012Z</time></trkpt><trkpt lat="44.0153225" lon="12.0126879"><ele>514.8</ele><time>2026-04-12T10:26:20.011Z</time></trkpt><trkpt lat="44.0152384" lon="12.0127043"><ele>516.4</ele><time>2026-04-12T10:26:22.01Z</time></trkpt><trkpt lat="44.0151556" lon="12.0127456"><ele>518.0</ele><time>2026-04-12T10:26:24.012Z</time></trkpt><trkpt lat="44.0150812" lon="12.0128278"><ele>518.0</ele><time>2026-04-12T10:26:26.011Z</time></trkpt><trkpt lat="44.0150396" lon="12.0129331"><ele>518.0</ele><time>2026-04-12T10:26:28.012Z</time></trkpt><trkpt lat="44.0150317" lon="12.0130506"><ele>518.0</ele><time>2026-04-12T10:26:30.97Z</time></trkpt><trkpt lat="44.0150513" lon="12.0131508"><ele>518.0</ele><time>2026-04-12T10:26:33.055Z</time></trkpt><trkpt lat="44.0151222" lon="12.0132025"><ele>518.0</ele><time>2026-04-12T10:26:35.062Z</time></trkpt><trkpt lat="44.0151877" lon="12.0132557"><ele>518.0</ele><time>2026-04-12T10:26:37.068Z</time></trkpt><trkpt lat="44.0152385" lon="12.0133139"><ele>521.0</ele><time>2026-04-12T10:26:39.075Z</time></trkpt><trkpt lat="44.0152683" lon="12.013405"><ele>524.0</ele><time>2026-04-12T10:26:43.012Z</time></trkpt><trkpt lat="44.0152526" lon="12.0136385"><ele>527.0</ele><time>2026-04-12T10:26:59.011Z</time></trkpt><trkpt lat="44.0152235" lon="12.0137306"><ele>530.0</ele><time>2026-04-12T10:27:00.014Z</time></trkpt><trkpt lat="44.0151769" lon="12.013814"><ele>533.0</ele><time>2026-04-12T10:27:01.011Z</time></trkpt><trkpt lat="44.0151157" lon="12.0138946"><ele>533.0</ele><time>2026-04-12T10:27:02.014Z</time></trkpt><trkpt lat="44.0150543" lon="12.0139848"><ele>533.0</ele><time>2026-04-12T10:27:03.011Z</time></trkpt><trkpt lat="44.0149959" lon="12.0140912"><ele>533.0</ele><time>2026-04-12T10:27:04.012Z</time></trkpt><trkpt lat="44.0149502" lon="12.0141992"><ele>533.0</ele><time>2026-04-12T10:27:05.009Z</time></trkpt><trkpt lat="44.0149133" lon="12.0143143"><ele>533.0</ele><time>2026-04-12T10:27:06.011Z</time></trkpt><trkpt lat="44.0148796" lon="12.0144088"><ele>533.0</ele><time>2026-04-12T10:27:07.012Z</time></trkpt><trkpt lat="44.0148457" lon="12.0144866"><ele>535.8333333333333</ele><time>2026-04-12T10:27:08.011Z</time></trkpt><trkpt lat="44.01479" lon="12.0146318"><ele>538.6666666666666</ele><time>2026-04-12T10:27:10.01Z</time></trkpt><trkpt lat="44.0147722" lon="12.0148119"><ele>541.5</ele><time>2026-04-12T10:27:12.011Z</time></trkpt><trkpt lat="44.0147747" lon="12.0149012"><ele>544.3333333333334</ele><time>2026-04-12T10:27:13.01Z</time></trkpt><trkpt lat="44.0147868" lon="12.0149893"><ele>547.1666666666667</ele><time>2026-04-12T10:27:14.012Z</time></trkpt><trkpt lat="44.014808" lon="12.0150774"><ele>550.0</ele><time>2026-04-12T10:27:15.012Z</time></trkpt><trkpt lat="44.0148376" lon="12.0151613"><ele>550.0</ele><time>2026-04-12T10:27:16.01Z</time></trkpt><trkpt lat="44.0148661" lon="12.0152482"><ele>550.0</ele><time>2026-04-12T10:27:17.01Z</time></trkpt><trkpt lat="44.0149057" lon="12.0153969"><ele>550.0</ele><time>2026-04-12T10:27:19.011Z</time></trkpt><trkpt lat="44.0149342" lon="12.0155048"><ele>550.0</ele><time>2026-04-12T10:27:21.01Z</time></trkpt><trkpt lat="44.0149233" lon="12.0156"><ele>550.0</ele><time>2026-04-12T10:32:58.01Z</time></trkpt><trkpt lat="44.014945" lon="12.0157067"><ele>550.0</ele><time>2026-04-12T10:33:00.011Z</time></trkpt><trkpt lat="44.01496" lon="12.0158267"><ele>547.3333333333334</ele><time>2026-04-12T10:33:02.011Z</time></trkpt><trkpt lat="44.0149533" lon="12.0159517"><ele>544.6666666666667</ele><time>2026-04-12T10:33:04.011Z</time></trkpt><trkpt lat="44.0148982" lon="12.0161132"><ele>542.0</ele><time>2026-04-12T10:33:08.011Z</time></trkpt><trkpt lat="44.014862" lon="12.0162404"><ele>539.3333333333334</ele><time>2026-04-12T10:33:10.093Z</time></trkpt><trkpt lat="44.014856" lon="12.0163302"><ele>536.6666666666666</ele><time>2026-04-12T10:33:12.013Z</time></trkpt><trkpt lat="44.0148539" lon="12.0164221"><ele>534.0</ele><time>2026-04-12T10:33:15.013Z</time></trkpt><trkpt lat="44.0149017" lon="12.0165083"><ele>534.0</ele><time>2026-04-12T10:42:19.011Z</time></trkpt><trkpt lat="44.0149383" lon="12.016625"><ele>534.0</ele><time>2026-04-12T10:42:21.014Z</time></trkpt><trkpt lat="44.0149917" lon="12.0167683"><ele>534.0</ele><time>2026-04-12T10:42:23.012Z</time></trkpt><trkpt lat="44.0150317" lon="12.0168467"><ele>534.0</ele><time>2026-04-12T10:42:24.014Z</time></trkpt><trkpt lat="44.0150567" lon="12.0169283"><ele>534.0</ele><time>2026-04-12T10:42:25.012Z</time></trkpt><trkpt lat="44.015085" lon="12.0170183"><ele>534.0</ele><time>2026-04-12T10:42:26.012Z</time></trkpt><trkpt lat="44.0151317" lon="12.0171083"><ele>532.0</ele><time>2026-04-12T10:42:27.013Z</time></trkpt><trkpt lat="44.0151617" lon="12.0171967"><ele>530.0</ele><time>2026-04-12T10:42:28.011Z</time></trkpt><trkpt lat="44.015175" lon="12.0172967"><ele>528.0</ele><time>2026-04-12T10:42:29.011Z</time></trkpt><trkpt lat="44.0151967" lon="12.017405"><ele>526.0</ele><time>2026-04-12T10:42:30.011Z</time></trkpt><trkpt lat="44.015225" lon="12.0175083"><ele>524.0</ele><time>2026-04-12T10:42:31.015Z</time></trkpt><trkpt lat="44.01523" lon="12.01767"><ele>522.0</ele><time>2026-04-12T10:42:33.013Z</time></trkpt><trkpt lat="44.01522" lon="12.0178367"><ele>521.0</ele><time>2026-04-12T10:42:35.011Z</time></trkpt><trkpt lat="44.01525" lon="12.0179367"><ele>520.0</ele><time>2026-04-12T10:42:36.016Z</time></trkpt><trkpt lat="44.0152683" lon="12.01805"><ele>519.0</ele><time>2026-04-12T10:42:37.014Z</time></trkpt><trkpt lat="44.0152933" lon="12.018155"><ele>518.0</ele><time>2026-04-12T10:42:38.014Z</time></trkpt><trkpt lat="44.0153133" lon="12.01825"><ele>517.0</ele><time>2026-04-12T10:42:39.012Z</time></trkpt><trkpt lat="44.0153067" lon="12.0183433"><ele>516.0</ele><time>2026-04-12T10:42:40.013Z</time></trkpt><trkpt lat="44.01527" lon="12.0184983"><ele>514.5</ele><time>2026-04-12T10:42:42.011Z</time></trkpt><trkpt lat="44.0152783" lon="12.0186667"><ele>513.0</ele><time>2026-04-12T10:42:44.011Z</time></trkpt><trkpt lat="44.015295" lon="12.0187717"><ele>511.5</ele><time>2026-04-12T10:42:45.012Z</time></trkpt><trkpt lat="44.0153317" lon="12.01888"><ele>510.0</ele><time>2026-04-12T10:42:46.012Z</time></trkpt><trkpt lat="44.015365" lon="12.01897"><ele>508.5</ele><time>2026-04-12T10:42:47.013Z</time></trkpt><trkpt lat="44.0154067" lon="12.0190533"><ele>507.0</ele><time>2026-04-12T10:42:48.014Z</time></trkpt><trkpt lat="44.0154533" lon="12.01914"><ele>505.3333333333333</ele><time>2026-04-12T10:42:49.013Z</time></trkpt><trkpt lat="44.0155017" lon="12.0192217"><ele>503.66666666666663</ele><time>2026-04-12T10:42:50.011Z</time></trkpt><trkpt lat="44.0155567" lon="12.0192933"><ele>502.0</ele><time>2026-04-12T10:42:51.012Z</time></trkpt><trkpt lat="44.0156117" lon="12.019375"><ele>500.3333333333333</ele><time>2026-04-12T10:42:52.013Z</time></trkpt><trkpt lat="44.01567" lon="12.0194517"><ele>498.66666666666663</ele><time>2026-04-12T10:42:53.012Z</time></trkpt><trkpt lat="44.01573" lon="12.0195133"><ele>497.0</ele><time>2026-04-12T10:42:54.012Z</time></trkpt><trkpt lat="44.0157817" lon="12.019585"><ele>497.3333333333333</ele><time>2026-04-12T10:42:55.016Z</time></trkpt><trkpt lat="44.015835" lon="12.0196617"><ele>497.66666666666663</ele><time>2026-04-12T10:42:56.013Z</time></trkpt><trkpt lat="44.015895" lon="12.01973"><ele>498.0</ele><time>2026-04-12T10:42:57.014Z</time></trkpt><trkpt lat="44.0159483" lon="12.0198067"><ele>498.33333333333337</ele><time>2026-04-12T10:42:58.011Z</time></trkpt><trkpt lat="44.016005" lon="12.0198667"><ele>498.6666666666667</ele><time>2026-04-12T10:42:59.012Z</time></trkpt><trkpt lat="44.016055" lon="12.0199283"><ele>499.0</ele><time>2026-04-12T10:43:00.014Z</time></trkpt><trkpt lat="44.0161417" lon="12.0200433"><ele>499.0</ele><time>2026-04-12T10:43:02.013Z</time></trkpt><trkpt lat="44.016215" lon="12.0201567"><ele>499.0</ele><time>2026-04-12T10:43:04.012Z</time></trkpt><trkpt lat="44.016295" lon="12.02022"><ele>499.0</ele><time>2026-04-12T10:43:06.012Z</time></trkpt><trkpt lat="44.016395" lon="12.0202367"><ele>499.0</ele><time>2026-04-12T10:43:08.014Z</time></trkpt><trkpt lat="44.0164817" lon="12.020195"><ele>499.0</ele><time>2026-04-12T10:43:10.015Z</time></trkpt><trkpt lat="44.0165683" lon="12.020105"><ele>498.0</ele><time>2026-04-12T10:43:12.011Z</time></trkpt><trkpt lat="44.0166567" lon="12.0200517"><ele>497.0</ele><time>2026-04-12T10:43:14.015Z</time></trkpt><trkpt lat="44.0167683" lon="12.0201017"><ele>496.0</ele><time>2026-04-12T10:43:16.012Z</time></trkpt><trkpt lat="44.0168817" lon="12.020105"><ele>495.0</ele><time>2026-04-12T10:43:18.011Z</time></trkpt><trkpt lat="44.01695" lon="12.020095"><ele>494.0</ele><time>2026-04-12T10:43:19.012Z</time></trkpt><trkpt lat="44.01702" lon="12.02008"><ele>493.99999999999994</ele><time>2026-04-12T10:43:20.012Z</time></trkpt><trkpt lat="44.01709" lon="12.0200667"><ele>494.0</ele><time>2026-04-12T10:43:21.013Z</time></trkpt><trkpt lat="44.0171517" lon="12.0200367"><ele>494.0</ele><time>2026-04-12T10:43:22.014Z</time></trkpt><trkpt lat="44.017215" lon="12.0200067"><ele>494.0</ele><time>2026-04-12T10:43:23.012Z</time></trkpt><trkpt lat="44.017335" lon="12.0199883"><ele>493.99999999999994</ele><time>2026-04-12T10:43:25.013Z</time></trkpt><trkpt lat="44.0174267" lon="12.0199417"><ele>494.0</ele><time>2026-04-12T10:43:27.014Z</time></trkpt><trkpt lat="44.0174883" lon="12.019865"><ele>489.3333333333333</ele><time>2026-04-12T10:43:29.014Z</time></trkpt><trkpt lat="44.0175467" lon="12.0197683"><ele>484.66666666666663</ele><time>2026-04-12T10:43:31.012Z</time></trkpt><trkpt lat="44.0176067" lon="12.019665"><ele>480.0</ele><time>2026-04-12T10:43:33.017Z</time></trkpt><trkpt lat="44.01763" lon="12.0195583"><ele>475.33333333333337</ele><time>2026-04-12T10:43:35.012Z</time></trkpt><trkpt lat="44.0176567" lon="12.0194317"><ele>470.6666666666667</ele><time>2026-04-12T10:43:38.011Z</time></trkpt><trkpt lat="44.01773" lon="12.0193833"><ele>466.0</ele><time>2026-04-12T10:43:40.012Z</time></trkpt><trkpt lat="44.0178287" lon="12.0194015"><ele>466.00000000000006</ele><time>2026-04-12T10:43:44.012Z</time></trkpt><trkpt lat="44.0179488" lon="12.0193573"><ele>466.0</ele><time>2026-04-12T10:43:46.013Z</time></trkpt><trkpt lat="44.0180141" lon="12.0193138"><ele>466.0</ele><time>2026-04-12T10:43:47.012Z</time></trkpt><trkpt lat="44.0180774" lon="12.0192657"><ele>466.0</ele><time>2026-04-12T10:43:48.014Z</time></trkpt><trkpt lat="44.0181466" lon="12.0192163"><ele>466.00000000000006</ele><time>2026-04-12T10:43:49.012Z</time></trkpt><trkpt lat="44.0182161" lon="12.0191688"><ele>466.0</ele><time>2026-04-12T10:43:50.011Z</time></trkpt><trkpt lat="44.0182876" lon="12.0191136"><ele>460.50000000000006</ele><time>2026-04-12T10:43:51.012Z</time></trkpt><trkpt lat="44.0183634" lon="12.0190689"><ele>455.0</ele><time>2026-04-12T10:43:52.013Z</time></trkpt><trkpt lat="44.0184439" lon="12.0190288"><ele>449.5</ele><time>2026-04-12T10:43:53.013Z</time></trkpt><trkpt lat="44.0185264" lon="12.019003"><ele>444.0</ele><time>2026-04-12T10:43:54.017Z</time></trkpt><trkpt lat="44.018612" lon="12.0189944"><ele>438.50000000000006</ele><time>2026-04-12T10:43:55.014Z</time></trkpt><trkpt lat="44.0186947" lon="12.0189959"><ele>433.0</ele><time>2026-04-12T10:43:56.012Z</time></trkpt><trkpt lat="44.0187749" lon="12.0189907"><ele>433.00000000000006</ele><time>2026-04-12T10:43:57.012Z</time></trkpt><trkpt lat="44.0188484" lon="12.0189819"><ele>433.0</ele><time>2026-04-12T10:43:58.013Z</time></trkpt><trkpt lat="44.0189167" lon="12.018969"><ele>433.0</ele><time>2026-04-12T10:43:59.011Z</time></trkpt><trkpt lat="44.0189813" lon="12.0189543"><ele>433.0</ele><time>2026-04-12T10:44:00.015Z</time></trkpt><trkpt lat="44.0190997" lon="12.0189358"><ele>433.00000000000006</ele><time>2026-04-12T10:44:02.013Z</time></trkpt><trkpt lat="44.0192052" lon="12.0189305"><ele>433.0</ele><time>2026-04-12T10:44:04.013Z</time></trkpt><trkpt lat="44.0192929" lon="12.0188834"><ele>432.4</ele><time>2026-04-12T10:44:06.013Z</time></trkpt><trkpt lat="44.0193657" lon="12.0187888"><ele>431.79999999999995</ele><time>2026-04-12T10:44:08.013Z</time></trkpt><trkpt lat="44.0194019" lon="12.0186832"><ele>431.2</ele><time>2026-04-12T10:44:10.013Z</time></trkpt><trkpt lat="44.0193864" lon="12.0185703"><ele>430.6</ele><time>2026-04-12T10:44:12.013Z</time></trkpt><trkpt lat="44.0193025" lon="12.0184741"><ele>430.0</ele><time>2026-04-12T10:44:14.013Z</time></trkpt><trkpt lat="44.0191974" lon="12.0183986"><ele>430.75</ele><time>2026-04-12T10:44:16.013Z</time></trkpt><trkpt lat="44.019093" lon="12.0183182"><ele>431.5</ele><time>2026-04-12T10:44:18.012Z</time></trkpt><trkpt lat="44.0189938" lon="12.0182175"><ele>432.25</ele><time>2026-04-12T10:44:20.015Z</time></trkpt><trkpt lat="44.0188901" lon="12.018135"><ele>433.0</ele><time>2026-04-12T10:44:22.013Z</time></trkpt><trkpt lat="44.0187739" lon="12.0180886"><ele>429.0</ele><time>2026-04-12T10:44:24.012Z</time></trkpt><trkpt lat="44.0186571" lon="12.0180828"><ele>424.99999999999994</ele><time>2026-04-12T10:44:26.013Z</time></trkpt><trkpt lat="44.0185609" lon="12.0180978"><ele>421.0</ele><time>2026-04-12T10:44:28.013Z</time></trkpt><trkpt lat="44.018478" lon="12.0180993"><ele>417.0</ele><time>2026-04-12T10:44:31.012Z</time></trkpt><trkpt lat="44.0183984" lon="12.0181041"><ele>413.0</ele><time>2026-04-12T10:44:35.043Z</time></trkpt><trkpt lat="44.0183206" lon="12.0181013"><ele>412.99999999999994</ele><time>2026-04-12T10:44:37.983Z</time></trkpt><trkpt lat="44.0183272" lon="12.0179941"><ele>413.0</ele><time>2026-04-12T10:44:41.061Z</time></trkpt><trkpt lat="44.0184233" lon="12.0179209"><ele>413.0</ele><time>2026-04-12T10:44:43.011Z</time></trkpt><trkpt lat="44.018501" lon="12.017871"><ele>413.0</ele><time>2026-04-12T10:44:44.011Z</time></trkpt><trkpt lat="44.0185642" lon="12.0178117"><ele>412.99999999999994</ele><time>2026-04-12T10:44:45.015Z</time></trkpt><trkpt lat="44.018618" lon="12.0177502"><ele>413.0</ele><time>2026-04-12T10:44:46.014Z</time></trkpt><trkpt lat="44.0186714" lon="12.0176841"><ele>412.99999999999994</ele><time>2026-04-12T10:44:47.012Z</time></trkpt><trkpt lat="44.0187301" lon="12.0176171"><ele>413.0</ele><time>2026-04-12T10:44:48.012Z</time></trkpt><trkpt lat="44.018786" lon="12.0175427"><ele>413.0</ele><time>2026-04-12T10:44:49.012Z</time></trkpt><trkpt lat="44.0188441" lon="12.017467"><ele>413.0</ele><time>2026-04-12T10:44:50.012Z</time></trkpt><trkpt lat="44.0189085" lon="12.0173952"><ele>412.99999999999994</ele><time>2026-04-12T10:44:51.011Z</time></trkpt><trkpt lat="44.0189762" lon="12.0173383"><ele>413.0</ele><time>2026-04-12T10:44:52.015Z</time></trkpt><trkpt lat="44.0190406" lon="12.0172901"><ele>410.4</ele><time>2026-04-12T10:44:53.01Z</time></trkpt><trkpt lat="44.0191003" lon="12.01725"><ele>407.79999999999995</ele><time>2026-04-12T10:44:54.016Z</time></trkpt><trkpt lat="44.0192124" lon="12.0172086"><ele>405.2</ele><time>2026-04-12T10:44:56.011Z</time></trkpt><trkpt lat="44.0193077" lon="12.0172169"><ele>402.6</ele><time>2026-04-12T10:44:58.011Z</time></trkpt><trkpt lat="44.0193923" lon="12.0173095"><ele>400.0</ele><time>2026-04-12T10:45:00.01Z</time></trkpt><trkpt lat="44.0194157" lon="12.0174194"><ele>402.0</ele><time>2026-04-12T10:45:01.011Z</time></trkpt><trkpt lat="44.0194484" lon="12.0175251"><ele>404.0</ele><time>2026-04-12T10:45:02.012Z</time></trkpt><trkpt lat="44.0194938" lon="12.0176171"><ele>406.0</ele><time>2026-04-12T10:45:03.011Z</time></trkpt><trkpt lat="44.0195597" lon="12.0176898"><ele>408.0</ele><time>2026-04-12T10:45:04.011Z</time></trkpt><trkpt lat="44.019629" lon="12.0177518"><ele>410.0</ele><time>2026-04-12T10:45:05.017Z</time></trkpt><trkpt lat="44.0198851" lon="12.0178783"><ele>410.0</ele><time>2026-04-12T10:45:09.486Z</time></trkpt><trkpt lat="44.0199361" lon="12.0179503"><ele>410.0</ele><time>2026-04-12T10:45:10.685Z</time></trkpt><trkpt lat="44.0202114" lon="12.0178879"><ele>410.0</ele><time>2026-04-12T10:45:13.012Z</time></trkpt><trkpt lat="44.0203565" lon="12.017829"><ele>406.4</ele><time>2026-04-12T10:45:14.011Z</time></trkpt><trkpt lat="44.0204538" lon="12.0177638"><ele>402.8</ele><time>2026-04-12T10:45:15.01Z</time></trkpt><trkpt lat="44.0205596" lon="12.0177177"><ele>399.20000000000005</ele><time>2026-04-12T10:45:16.01Z</time></trkpt><trkpt lat="44.0206422" lon="12.0177035"><ele>395.6</ele><time>2026-04-12T10:45:17.011Z</time></trkpt><trkpt lat="44.0207049" lon="12.0176853"><ele>392.0</ele><time>2026-04-12T10:45:18.011Z</time></trkpt><trkpt lat="44.0208191" lon="12.0176297"><ele>390.20000000000005</ele><time>2026-04-12T10:45:20.017Z</time></trkpt><trkpt lat="44.020914" lon="12.0175555"><ele>388.4</ele><time>2026-04-12T10:45:22.011Z</time></trkpt><trkpt lat="44.0210064" lon="12.0175169"><ele>386.6</ele><time>2026-04-12T10:45:24.01Z</time></trkpt><trkpt lat="44.0211126" lon="12.0175027"><ele>384.79999999999995</ele><time>2026-04-12T10:45:26.014Z</time></trkpt><trkpt lat="44.021225" lon="12.0175077"><ele>383.0</ele><time>2026-04-12T10:45:28.013Z</time></trkpt><trkpt lat="44.021327" lon="12.0175715"><ele>383.0</ele><time>2026-04-12T10:45:30.012Z</time></trkpt><trkpt lat="44.02137" lon="12.0177037"><ele>383.0</ele><time>2026-04-12T10:45:32.011Z</time></trkpt><trkpt lat="44.0214006" lon="12.0178355"><ele>383.0</ele><time>2026-04-12T10:45:34.01Z</time></trkpt><trkpt lat="44.0214559" lon="12.0179293"><ele>383.0</ele><time>2026-04-12T10:45:36.017Z</time></trkpt><trkpt lat="44.0215094" lon="12.0178787"><ele>383.0</ele><time>2026-04-12T10:45:37.015Z</time></trkpt><trkpt lat="44.021559" lon="12.0178183"><ele>383.0</ele><time>2026-04-12T10:45:38.015Z</time></trkpt><trkpt lat="44.0215979" lon="12.0177436"><ele>383.0</ele><time>2026-04-12T10:45:39.015Z</time></trkpt><trkpt lat="44.0216351" lon="12.0176652"><ele>383.0</ele><time>2026-04-12T10:45:40.012Z</time></trkpt><trkpt lat="44.0216732" lon="12.0175922"><ele>383.0</ele><time>2026-04-12T10:45:41.011Z</time></trkpt><trkpt lat="44.0217168" lon="12.017525"><ele>383.0</ele><time>2026-04-12T10:45:42.012Z</time></trkpt><trkpt lat="44.0217647" lon="12.0174636"><ele>383.0</ele><time>2026-04-12T10:45:43.015Z</time></trkpt><trkpt lat="44.0218147" lon="12.0174025"><ele>383.0</ele><time>2026-04-12T10:45:44.012Z</time></trkpt><trkpt lat="44.0218707" lon="12.0173426"><ele>383.0</ele><time>2026-04-12T10:45:45.012Z</time></trkpt><trkpt lat="44.0219243" lon="12.0172922"><ele>379.2</ele><time>2026-04-12T10:45:46.011Z</time></trkpt><trkpt lat="44.0220217" lon="12.0172143"><ele>375.4</ele><time>2026-04-12T10:45:48.011Z</time></trkpt><trkpt lat="44.0221147" lon="12.0171217"><ele>371.59999999999997</ele><time>2026-04-12T10:45:50.014Z</time></trkpt><trkpt lat="44.0221884" lon="12.0170156"><ele>367.79999999999995</ele><time>2026-04-12T10:45:52.017Z</time></trkpt><trkpt lat="44.0222455" lon="12.0168762"><ele>364.0</ele><time>2026-04-12T10:45:54.012Z</time></trkpt><trkpt lat="44.0222723" lon="12.0167916"><ele>364.0</ele><time>2026-04-12T10:45:55.012Z</time></trkpt><trkpt lat="44.0222978" lon="12.0167076"><ele>364.0</ele><time>2026-04-12T10:45:56.012Z</time></trkpt><trkpt lat="44.0223223" lon="12.0166266"><ele>364.0</ele><time>2026-04-12T10:45:57.011Z</time></trkpt><trkpt lat="44.0223666" lon="12.0164797"><ele>364.0</ele><time>2026-04-12T10:45:59.012Z</time></trkpt><trkpt lat="44.022408" lon="12.0163503"><ele>364.0</ele><time>2026-04-12T10:46:01.01Z</time></trkpt><trkpt lat="44.0224584" lon="12.016223"><ele>359.16666666666663</ele><time>2026-04-12T10:46:03.011Z</time></trkpt><trkpt lat="44.022508" lon="12.0161194"><ele>354.3333333333333</ele><time>2026-04-12T10:46:05.015Z</time></trkpt><trkpt lat="44.0225585" lon="12.0160431"><ele>349.5</ele><time>2026-04-12T10:46:07.011Z</time></trkpt><trkpt lat="44.0226121" lon="12.0159595"><ele>344.6666666666667</ele><time>2026-04-12T10:46:09.013Z</time></trkpt><trkpt lat="44.0226198" lon="12.0158486"><ele>339.83333333333337</ele><time>2026-04-12T10:46:11.011Z</time></trkpt><trkpt lat="44.0225524" lon="12.0157663"><ele>335.0</ele><time>2026-04-12T10:46:13.947Z</time></trkpt><trkpt lat="44.0224804" lon="12.0157183"><ele>332.83333333333337</ele><time>2026-04-12T10:46:15.889Z</time></trkpt><trkpt lat="44.0224196" lon="12.0156924"><ele>330.6666666666667</ele><time>2026-04-12T10:46:17.021Z</time></trkpt><trkpt lat="44.0223345" lon="12.0157057"><ele>328.5</ele><time>2026-04-12T10:46:18.01Z</time></trkpt><trkpt lat="44.0222603" lon="12.0157296"><ele>326.3333333333333</ele><time>2026-04-12T10:46:19.011Z</time></trkpt><trkpt lat="44.0221969" lon="12.0157507"><ele>324.16666666666663</ele><time>2026-04-12T10:46:20.011Z</time></trkpt><trkpt lat="44.0220964" lon="12.0157801"><ele>322.0</ele><time>2026-04-12T10:46:22.011Z</time></trkpt><trkpt lat="44.0220123" lon="12.0158054"><ele>322.0</ele><time>2026-04-12T10:46:24.011Z</time></trkpt><trkpt lat="44.0219475" lon="12.0157888"><ele>322.0</ele><time>2026-04-12T10:46:26.011Z</time></trkpt><trkpt lat="44.02191" lon="12.0157107"><ele>322.0</ele><time>2026-04-12T10:46:28.012Z</time></trkpt><trkpt lat="44.0219597" lon="12.0156099"><ele>322.0</ele><time>2026-04-12T10:46:32.052Z</time></trkpt><trkpt lat="44.0220481" lon="12.0155536"><ele>322.0</ele><time>2026-04-12T10:46:33.087Z</time></trkpt><trkpt lat="44.0221036" lon="12.0154651"><ele>322.0</ele><time>2026-04-12T10:46:34.012Z</time></trkpt><trkpt lat="44.0221654" lon="12.0153892"><ele>322.0</ele><time>2026-04-12T10:46:35.012Z</time></trkpt><trkpt lat="44.0222276" lon="12.0153227"><ele>322.0</ele><time>2026-04-12T10:46:36.011Z</time></trkpt><trkpt lat="44.0222873" lon="12.0152645"><ele>322.0</ele><time>2026-04-12T10:46:37.013Z</time></trkpt><trkpt lat="44.0223394" lon="12.0152007"><ele>322.0</ele><time>2026-04-12T10:46:38.011Z</time></trkpt><trkpt lat="44.0223851" lon="12.015135"><ele>322.0</ele><time>2026-04-12T10:46:39.01Z</time></trkpt><trkpt lat="44.0224354" lon="12.0150772"><ele>322.0</ele><time>2026-04-12T10:46:40.011Z</time></trkpt><trkpt lat="44.0224841" lon="12.0150199"><ele>322.0</ele><time>2026-04-12T10:46:41.016Z</time></trkpt><trkpt lat="44.0225859" lon="12.0149355"><ele>320.0</ele><time>2026-04-12T10:46:43.01Z</time></trkpt><trkpt lat="44.0227113" lon="12.0149265"><ele>318.0</ele><time>2026-04-12T10:46:45.01Z</time></trkpt><trkpt lat="44.0227782" lon="12.0149366"><ele>316.0</ele><time>2026-04-12T10:46:46.01Z</time></trkpt><trkpt lat="44.0228475" lon="12.0149487"><ele>314.0</ele><time>2026-04-12T10:46:47.011Z</time></trkpt><trkpt lat="44.0229181" lon="12.0149944"><ele>312.0</ele><time>2026-04-12T10:46:48.014Z</time></trkpt><trkpt lat="44.0229795" lon="12.0150392"><ele>310.0</ele><time>2026-04-12T10:46:49.011Z</time></trkpt><trkpt lat="44.0230793" lon="12.0151285"><ele>310.0</ele><time>2026-04-12T10:46:51.01Z</time></trkpt><trkpt lat="44.0231401" lon="12.0152472"><ele>310.0</ele><time>2026-04-12T10:46:53.011Z</time></trkpt><trkpt lat="44.0232123" lon="12.0152906"><ele>310.0</ele><time>2026-04-12T10:46:55.011Z</time></trkpt><trkpt lat="44.023269" lon="12.0151921"><ele>310.0</ele><time>2026-04-12T10:46:58.014Z</time></trkpt><trkpt lat="44.0232028" lon="12.0150398"><ele>310.0</ele><time>2026-04-12T10:47:01.012Z</time></trkpt><trkpt lat="44.0231583" lon="12.0149696"><ele>308.0</ele><time>2026-04-12T10:47:02.012Z</time></trkpt><trkpt lat="44.0230933" lon="12.0149027"><ele>306.0</ele><time>2026-04-12T10:47:05.031Z</time></trkpt><trkpt lat="44.0231598" lon="12.0147936"><ele>304.0</ele><time>2026-04-12T10:47:07.036Z</time></trkpt><trkpt lat="44.0232215" lon="12.0148452"><ele>302.0</ele><time>2026-04-12T10:47:09.042Z</time></trkpt><trkpt lat="44.0232841" lon="12.0148701"><ele>300.0</ele><time>2026-04-12T10:47:10.01Z</time></trkpt><trkpt lat="44.0233457" lon="12.0149233"><ele>298.0</ele><time>2026-04-12T10:47:11.01Z</time></trkpt><trkpt lat="44.0234147" lon="12.0149782"><ele>297.8333333333333</ele><time>2026-04-12T10:47:12.016Z</time></trkpt><trkpt lat="44.0234744" lon="12.0150516"><ele>297.66666666666663</ele><time>2026-04-12T10:47:13.013Z</time></trkpt><trkpt lat="44.0235316" lon="12.0151264"><ele>297.5</ele><time>2026-04-12T10:47:14.011Z</time></trkpt><trkpt lat="44.0235947" lon="12.0151926"><ele>297.3333333333333</ele><time>2026-04-12T10:47:15.013Z</time></trkpt><trkpt lat="44.0236579" lon="12.0152572"><ele>297.1666666666667</ele><time>2026-04-12T10:47:16.011Z</time></trkpt><trkpt lat="44.0237125" lon="12.0153235"><ele>297.0</ele><time>2026-04-12T10:47:17.011Z</time></trkpt><trkpt lat="44.0237821" lon="12.015365"><ele>297.0</ele><time>2026-04-12T10:47:18.011Z</time></trkpt><trkpt lat="44.0238617" lon="12.0153958"><ele>297.0</ele><time>2026-04-12T10:47:19.015Z</time></trkpt><trkpt lat="44.0239421" lon="12.0154392"><ele>297.0</ele><time>2026-04-12T10:47:20.011Z</time></trkpt><trkpt lat="44.024029" lon="12.0154953"><ele>297.0</ele><time>2026-04-12T10:47:21.012Z</time></trkpt><trkpt lat="44.0241222" lon="12.0155449"><ele>297.0</ele><time>2026-04-12T10:47:22.011Z</time></trkpt><trkpt lat="44.0242085" lon="12.0156114"><ele>292.6666666666667</ele><time>2026-04-12T10:47:23.012Z</time></trkpt><trkpt lat="44.0243593" lon="12.0156483"><ele>288.33333333333337</ele><time>2026-04-12T10:47:24.49Z</time></trkpt><trkpt lat="44.0244595" lon="12.0158448"><ele>284.0</ele><time>2026-04-12T10:47:26.164Z</time></trkpt><trkpt lat="44.0245655" lon="12.0159348"><ele>283.33333333333337</ele><time>2026-04-12T10:47:27.165Z</time></trkpt><trkpt lat="44.0247752" lon="12.0160227"><ele>282.6666666666667</ele><time>2026-04-12T10:47:29.013Z</time></trkpt><trkpt lat="44.0248906" lon="12.016061"><ele>282.0</ele><time>2026-04-12T10:47:30.012Z</time></trkpt><trkpt lat="44.0250054" lon="12.0160892"><ele>281.2</ele><time>2026-04-12T10:47:31.011Z</time></trkpt><trkpt lat="44.0251193" lon="12.0161035"><ele>280.4</ele><time>2026-04-12T10:47:32.011Z</time></trkpt><trkpt lat="44.0252173" lon="12.0161068"><ele>279.6</ele><time>2026-04-12T10:47:33.011Z</time></trkpt><trkpt lat="44.0253115" lon="12.0161072"><ele>278.8</ele><time>2026-04-12T10:47:34.011Z</time></trkpt><trkpt lat="44.025403" lon="12.0161153"><ele>278.0</ele><time>2026-04-12T10:47:35.013Z</time></trkpt><trkpt lat="44.0254877" lon="12.0161399"><ele>278.0</ele><time>2026-04-12T10:47:36.012Z</time></trkpt><trkpt lat="44.0255653" lon="12.0161773"><ele>278.0</ele><time>2026-04-12T10:47:37.012Z</time></trkpt><trkpt lat="44.0256375" lon="12.0162263"><ele>278.0</ele><time>2026-04-12T10:47:38.012Z</time></trkpt><trkpt lat="44.0257035" lon="12.0162943"><ele>278.0</ele><time>2026-04-12T10:47:39.011Z</time></trkpt><trkpt lat="44.0257731" lon="12.0163706"><ele>278.0</ele><time>2026-04-12T10:47:40.013Z</time></trkpt><trkpt lat="44.0258493" lon="12.0164598"><ele>278.0</ele><time>2026-04-12T10:47:41.012Z</time></trkpt><trkpt lat="44.0259347" lon="12.0165686"><ele>276.6666666666667</ele><time>2026-04-12T10:47:42.013Z</time></trkpt><trkpt lat="44.0260395" lon="12.0166955"><ele>275.3333333333333</ele><time>2026-04-12T10:47:43.011Z</time></trkpt><trkpt lat="44.0261586" lon="12.0168504"><ele>274.0</ele><time>2026-04-12T10:47:44.012Z</time></trkpt><trkpt lat="44.0262728" lon="12.0170212"><ele>274.0</ele><time>2026-04-12T10:47:45.011Z</time></trkpt><trkpt lat="44.0263737" lon="12.0171836"><ele>274.0</ele><time>2026-04-12T10:47:46.012Z</time></trkpt><trkpt lat="44.0264703" lon="12.0173242"><ele>274.0</ele><time>2026-04-12T10:47:47.01Z</time></trkpt><trkpt lat="44.0265727" lon="12.0174376"><ele>274.0</ele><time>2026-04-12T10:47:48.011Z</time></trkpt><trkpt lat="44.0266824" lon="12.0175335"><ele>273.5</ele><time>2026-04-12T10:47:49.012Z</time></trkpt><trkpt lat="44.0267944" lon="12.0176257"><ele>273.0</ele><time>2026-04-12T10:47:50.012Z</time></trkpt><trkpt lat="44.0269084" lon="12.0177169"><ele>272.5</ele><time>2026-04-12T10:47:51.012Z</time></trkpt><trkpt lat="44.0270269" lon="12.0178023"><ele>272.0</ele><time>2026-04-12T10:47:52.011Z</time></trkpt><trkpt lat="44.0271455" lon="12.0178948"><ele>272.0</ele><time>2026-04-12T10:47:53.01Z</time></trkpt><trkpt lat="44.0272694" lon="12.0179863"><ele>272.0</ele><time>2026-04-12T10:47:54.013Z</time></trkpt><trkpt lat="44.0273932" lon="12.0180857"><ele>272.0</ele><time>2026-04-12T10:47:55.017Z</time></trkpt><trkpt lat="44.0275151" lon="12.0181842"><ele>272.0</ele><time>2026-04-12T10:47:56.013Z</time></trkpt><trkpt lat="44.0276237" lon="12.0182794"><ele>272.75</ele><time>2026-04-12T10:47:57.011Z</time></trkpt><trkpt lat="44.0277272" lon="12.01836"><ele>273.5</ele><time>2026-04-12T10:47:58.01Z</time></trkpt><trkpt lat="44.0278262" lon="12.0184217"><ele>274.25</ele><time>2026-04-12T10:47:59.012Z</time></trkpt><trkpt lat="44.0279363" lon="12.0184413"><ele>275.0</ele><time>2026-04-12T10:48:00.015Z</time></trkpt><trkpt lat="44.0280477" lon="12.018463"><ele>275.0</ele><time>2026-04-12T10:48:01.012Z</time></trkpt><trkpt lat="44.0281483" lon="12.0185299"><ele>275.0</ele><time>2026-04-12T10:48:02.012Z</time></trkpt><trkpt lat="44.0282459" lon="12.0186218"><ele>275.0</ele><time>2026-04-12T10:48:03.012Z</time></trkpt><trkpt lat="44.0283293" lon="12.0187457"><ele>275.0</ele><time>2026-04-12T10:48:04.01Z</time></trkpt><trkpt lat="44.0283819" lon="12.0188945"><ele>275.5</ele><time>2026-04-12T10:48:05.014Z</time></trkpt><trkpt lat="44.0284063" lon="12.0190481"><ele>276.0</ele><time>2026-04-12T10:48:06.011Z</time></trkpt><trkpt lat="44.0284027" lon="12.0192085"><ele>276.5</ele><time>2026-04-12T10:48:07.012Z</time></trkpt><trkpt lat="44.0283723" lon="12.0193703"><ele>277.0</ele><time>2026-04-12T10:48:08.014Z</time></trkpt><trkpt lat="44.028371" lon="12.0195132"><ele>275.0</ele><time>2026-04-12T10:48:09.011Z</time></trkpt><trkpt lat="44.0283905" lon="12.0196449"><ele>273.0</ele><time>2026-04-12T10:48:10.012Z</time></trkpt><trkpt lat="44.0284338" lon="12.0197625"><ele>271.0</ele><time>2026-04-12T10:48:11.013Z</time></trkpt><trkpt lat="44.0284792" lon="12.0198702"><ele>269.0</ele><time>2026-04-12T10:48:12.012Z</time></trkpt><trkpt lat="44.0285274" lon="12.0199661"><ele>267.0</ele><time>2026-04-12T10:48:13.011Z</time></trkpt><trkpt lat="44.0286003" lon="12.0200387"><ele>266.6</ele><time>2026-04-12T10:48:14.011Z</time></trkpt><trkpt lat="44.0286826" lon="12.0201011"><ele>266.2</ele><time>2026-04-12T10:48:15.012Z</time></trkpt><trkpt lat="44.0287562" lon="12.0201776"><ele>265.8</ele><time>2026-04-12T10:48:16.01Z</time></trkpt><trkpt lat="44.0288437" lon="12.020231"><ele>265.4</ele><time>2026-04-12T10:48:17.012Z</time></trkpt><trkpt lat="44.0289384" lon="12.0202577"><ele>265.0</ele><time>2026-04-12T10:48:18.012Z</time></trkpt><trkpt lat="44.0290286" lon="12.0202801"><ele>265.0</ele><time>2026-04-12T10:48:19.011Z</time></trkpt><trkpt lat="44.0291148" lon="12.0202954"><ele>265.0</ele><time>2026-04-12T10:48:20.012Z</time></trkpt><trkpt lat="44.0291962" lon="12.0203153"><ele>265.0</ele><time>2026-04-12T10:48:21.012Z</time></trkpt><trkpt lat="44.0292867" lon="12.020335"><ele>265.0</ele><time>2026-04-12T10:48:22.013Z</time></trkpt><trkpt lat="44.029385" lon="12.02037"><ele>265.0</ele><time>2026-04-12T10:48:23.015Z</time></trkpt><trkpt lat="44.0295033" lon="12.0204167"><ele>265.2</ele><time>2026-04-12T10:48:24.011Z</time></trkpt><trkpt lat="44.029625" lon="12.0204667"><ele>265.4</ele><time>2026-04-12T10:48:25.013Z</time></trkpt><trkpt lat="44.0297417" lon="12.02052"><ele>265.6</ele><time>2026-04-12T10:48:26.012Z</time></trkpt><trkpt lat="44.029845" lon="12.0205567"><ele>265.8</ele><time>2026-04-12T10:48:27.011Z</time></trkpt><trkpt lat="44.0299267" lon="12.02059"><ele>266.0</ele><time>2026-04-12T10:48:28.01Z</time></trkpt><trkpt lat="44.0299933" lon="12.0206117"><ele>266.0</ele><time>2026-04-12T10:48:29.012Z</time></trkpt><trkpt lat="44.030085" lon="12.0206417"><ele>266.0</ele><time>2026-04-12T10:48:31.014Z</time></trkpt><trkpt lat="44.0301267" lon="12.0207183"><ele>266.0</ele><time>2026-04-12T10:48:34.013Z</time></trkpt><trkpt lat="44.0302383" lon="12.02072"><ele>266.0</ele><time>2026-04-12T10:50:00.012Z</time></trkpt><trkpt lat="44.0303117" lon="12.02072"><ele>266.0</ele><time>2026-04-12T10:50:01.011Z</time></trkpt><trkpt lat="44.0303983" lon="12.020725"><ele>266.0</ele><time>2026-04-12T10:50:02.012Z</time></trkpt><trkpt lat="44.0304883" lon="12.0207533"><ele>266.0</ele><time>2026-04-12T10:50:03.013Z</time></trkpt><trkpt lat="44.0305717" lon="12.02078"><ele>266.0</ele><time>2026-04-12T10:50:04.011Z</time></trkpt><trkpt lat="44.03064" lon="12.0208383"><ele>266.0</ele><time>2026-04-12T10:50:05.015Z</time></trkpt><trkpt lat="44.0307" lon="12.0209233"><ele>266.0</ele><time>2026-04-12T10:50:06.011Z</time></trkpt><trkpt lat="44.03077" lon="12.02102"><ele>266.0</ele><time>2026-04-12T10:50:07.012Z</time></trkpt><trkpt lat="44.0308367" lon="12.0211467"><ele>265.0</ele><time>2026-04-12T10:50:08.012Z</time></trkpt><trkpt lat="44.030905" lon="12.021265"><ele>264.0</ele><time>2026-04-12T10:50:09.011Z</time></trkpt><trkpt lat="44.0309833" lon="12.0213567"><ele>263.0</ele><time>2026-04-12T10:50:10.011Z</time></trkpt><trkpt lat="44.0310767" lon="12.02142"><ele>262.0</ele><time>2026-04-12T10:50:11.011Z</time></trkpt><trkpt lat="44.0311783" lon="12.0214567"><ele>261.0</ele><time>2026-04-12T10:50:12.012Z</time></trkpt><trkpt lat="44.0312967" lon="12.0214633"><ele>261.0</ele><time>2026-04-12T10:50:13.012Z</time></trkpt><trkpt lat="44.0314283" lon="12.02145"><ele>261.0</ele><time>2026-04-12T10:50:14.013Z</time></trkpt><trkpt lat="44.0315533" lon="12.0214317"><ele>261.0</ele><time>2026-04-12T10:50:15.013Z</time></trkpt><trkpt lat="44.03168" lon="12.02142"><ele>261.0</ele><time>2026-04-12T10:50:16.013Z</time></trkpt><trkpt lat="44.0317817" lon="12.0214183"><ele>261.40000000000003</ele><time>2026-04-12T10:50:17.012Z</time></trkpt><trkpt lat="44.0318783" lon="12.02144"><ele>261.8</ele><time>2026-04-12T10:50:18.012Z</time></trkpt><trkpt lat="44.031965" lon="12.0214783"><ele>262.20000000000005</ele><time>2026-04-12T10:50:19.012Z</time></trkpt><trkpt lat="44.0320517" lon="12.021515"><ele>262.6</ele><time>2026-04-12T10:50:20.012Z</time></trkpt><trkpt lat="44.0321317" lon="12.0216083"><ele>263.0</ele><time>2026-04-12T10:50:21.013Z</time></trkpt><trkpt lat="44.0322233" lon="12.02171"><ele>264.75</ele><time>2026-04-12T10:50:22.015Z</time></trkpt><trkpt lat="44.032325" lon="12.0218167"><ele>266.5</ele><time>2026-04-12T10:50:23.01Z</time></trkpt><trkpt lat="44.03243" lon="12.0219367"><ele>268.25</ele><time>2026-04-12T10:50:24.012Z</time></trkpt><trkpt lat="44.0325417" lon="12.0220617"><ele>270.0</ele><time>2026-04-12T10:50:25.012Z</time></trkpt><trkpt lat="44.0326483" lon="12.0221833"><ele>270.0</ele><time>2026-04-12T10:50:26.011Z</time></trkpt><trkpt lat="44.0327517" lon="12.02228"><ele>270.0</ele><time>2026-04-12T10:50:27.02Z</time></trkpt><trkpt lat="44.0328467" lon="12.0223617"><ele>270.0</ele><time>2026-04-12T10:50:28.01Z</time></trkpt><trkpt lat="44.0329517" lon="12.02243"><ele>270.0</ele><time>2026-04-12T10:50:29.011Z</time></trkpt><trkpt lat="44.0330517" lon="12.0225167"><ele>271.2</ele><time>2026-04-12T10:50:30.011Z</time></trkpt><trkpt lat="44.0331517" lon="12.0225983"><ele>272.4</ele><time>2026-04-12T10:50:31.012Z</time></trkpt><trkpt lat="44.03325" lon="12.0226733"><ele>273.6</ele><time>2026-04-12T10:50:32.012Z</time></trkpt><trkpt lat="44.033335" lon="12.0227667"><ele>274.8</ele><time>2026-04-12T10:50:33.012Z</time></trkpt><trkpt lat="44.0333933" lon="12.022875"><ele>276.0</ele><time>2026-04-12T10:50:34.018Z</time></trkpt><trkpt lat="44.03344" lon="12.0230017"><ele>276.0</ele><time>2026-04-12T10:50:35.012Z</time></trkpt><trkpt lat="44.0334933" lon="12.0231483"><ele>276.0</ele><time>2026-04-12T10:50:36.013Z</time></trkpt><trkpt lat="44.0335517" lon="12.023305"><ele>276.0</ele><time>2026-04-12T10:50:37.012Z</time></trkpt><trkpt lat="44.0336217" lon="12.02345"><ele>276.0</ele><time>2026-04-12T10:50:38.011Z</time></trkpt><trkpt lat="44.0337017" lon="12.0235983"><ele>273.75</ele><time>2026-04-12T10:50:39.012Z</time></trkpt><trkpt lat="44.0337917" lon="12.02374"><ele>271.5</ele><time>2026-04-12T10:50:40.011Z</time></trkpt><trkpt lat="44.033885" lon="12.0238933"><ele>269.25</ele><time>2026-04-12T10:50:41.012Z</time></trkpt><trkpt lat="44.0339817" lon="12.0240517"><ele>267.0</ele><time>2026-04-12T10:50:42.011Z</time></trkpt><trkpt lat="44.0340783" lon="12.02421"><ele>268.25</ele><time>2026-04-12T10:50:43.012Z</time></trkpt><trkpt lat="44.0341717" lon="12.0243683"><ele>269.5</ele><time>2026-04-12T10:50:44.012Z</time></trkpt><trkpt lat="44.034265" lon="12.0245133"><ele>270.75</ele><time>2026-04-12T10:50:45.012Z</time></trkpt><trkpt lat="44.0343483" lon="12.0246483"><ele>272.0</ele><time>2026-04-12T10:50:46.012Z</time></trkpt><trkpt lat="44.034435" lon="12.0247817"><ele>272.0</ele><time>2026-04-12T10:50:47.01Z</time></trkpt><trkpt lat="44.0345133" lon="12.02491"><ele>272.0</ele><time>2026-04-12T10:50:48.014Z</time></trkpt><trkpt lat="44.034585" lon="12.0250283"><ele>272.0</ele><time>2026-04-12T10:50:49.013Z</time></trkpt><trkpt lat="44.0346517" lon="12.025135"><ele>272.0</ele><time>2026-04-12T10:50:50.013Z</time></trkpt><trkpt lat="44.0347117" lon="12.0252317"><ele>272.0</ele><time>2026-04-12T10:50:51.013Z</time></trkpt><trkpt lat="44.0347633" lon="12.0253217"><ele>272.8</ele><time>2026-04-12T10:50:52.012Z</time></trkpt><trkpt lat="44.0348167" lon="12.0254033"><ele>273.6</ele><time>2026-04-12T10:50:53.013Z</time></trkpt><trkpt lat="44.0348617" lon="12.02547"><ele>274.40000000000003</ele><time>2026-04-12T10:50:54.011Z</time></trkpt><trkpt lat="44.03493" lon="12.02557"><ele>275.2</ele><time>2026-04-12T10:50:56.013Z</time></trkpt><trkpt lat="44.0349664" lon="12.0256764"><ele>276.0</ele><time>2026-04-12T10:51:50.926Z</time></trkpt><trkpt lat="44.0349924" lon="12.0258531"><ele>276.0</ele><time>2026-04-12T10:51:52.014Z</time></trkpt><trkpt lat="44.034997" lon="12.0260574"><ele>276.0</ele><time>2026-04-12T10:51:53.012Z</time></trkpt><trkpt lat="44.034996" lon="12.0262747"><ele>276.0</ele><time>2026-04-12T10:51:54.012Z</time></trkpt><trkpt lat="44.0350004" lon="12.0264824"><ele>274.0</ele><time>2026-04-12T10:51:55.015Z</time></trkpt><trkpt lat="44.0350038" lon="12.0266813"><ele>272.0</ele><time>2026-04-12T10:51:56.011Z</time></trkpt><trkpt lat="44.0350059" lon="12.0268787"><ele>270.0</ele><time>2026-04-12T10:51:57.012Z</time></trkpt><trkpt lat="44.0350081" lon="12.0270866"><ele>268.0</ele><time>2026-04-12T10:51:58.013Z</time></trkpt><trkpt lat="44.0350062" lon="12.027294"><ele>266.75</ele><time>2026-04-12T10:51:59.011Z</time></trkpt><trkpt lat="44.0350103" lon="12.0274923"><ele>265.5</ele><time>2026-04-12T10:52:00.012Z</time></trkpt><trkpt lat="44.035023" lon="12.0276809"><ele>264.25</ele><time>2026-04-12T10:52:01.015Z</time></trkpt><trkpt lat="44.0350339" lon="12.0278558"><ele>263.0</ele><time>2026-04-12T10:52:02.012Z</time></trkpt><trkpt lat="44.0350374" lon="12.0280053"><ele>263.0</ele><time>2026-04-12T10:52:03.013Z</time></trkpt><trkpt lat="44.0350329" lon="12.0281298"><ele>263.0</ele><time>2026-04-12T10:52:04.011Z</time></trkpt><trkpt lat="44.0350239" lon="12.028232"><ele>263.0</ele><time>2026-04-12T10:52:05.01Z</time></trkpt><trkpt lat="44.0349515" lon="12.0283582"><ele>263.0</ele><time>2026-04-12T10:52:07.012Z</time></trkpt><trkpt lat="44.0348884" lon="12.0283684"><ele>263.0</ele><time>2026-04-12T10:52:08.013Z</time></trkpt><trkpt lat="44.0348238" lon="12.0283438"><ele>263.0</ele><time>2026-04-12T10:52:09.014Z</time></trkpt><trkpt lat="44.0347599" lon="12.0282957"><ele>257.75</ele><time>2026-04-12T10:52:10.012Z</time></trkpt><trkpt lat="44.0346447" lon="12.0283306"><ele>252.5</ele><time>2026-04-12T10:52:12.011Z</time></trkpt><trkpt lat="44.0345995" lon="12.028512"><ele>247.25</ele><time>2026-04-12T10:52:14.013Z</time></trkpt><trkpt lat="44.0346172" lon="12.0286635"><ele>242.0</ele><time>2026-04-12T10:52:15.012Z</time></trkpt><trkpt lat="44.0346742" lon="12.0288389"><ele>242.0</ele><time>2026-04-12T10:52:16.014Z</time></trkpt><trkpt lat="44.0347267" lon="12.0290349"><ele>242.0</ele><time>2026-04-12T10:52:17.014Z</time></trkpt><trkpt lat="44.0347887" lon="12.0292365"><ele>242.0</ele><time>2026-04-12T10:52:18.013Z</time></trkpt><trkpt lat="44.0348449" lon="12.0294386"><ele>240.33333333333334</ele><time>2026-04-12T10:52:19.012Z</time></trkpt><trkpt lat="44.0348899" lon="12.0296499"><ele>238.66666666666669</ele><time>2026-04-12T10:52:20.011Z</time></trkpt><trkpt lat="44.0349268" lon="12.0298583"><ele>237.0</ele><time>2026-04-12T10:52:21.013Z</time></trkpt><trkpt lat="44.034943" lon="12.0300615"><ele>235.75</ele><time>2026-04-12T10:52:22.013Z</time></trkpt><trkpt lat="44.0349301" lon="12.0302624"><ele>234.5</ele><time>2026-04-12T10:52:23.013Z</time></trkpt><trkpt lat="44.0349069" lon="12.0304582"><ele>233.25</ele><time>2026-04-12T10:52:24.012Z</time></trkpt><trkpt lat="44.0348783" lon="12.0306514"><ele>232.0</ele><time>2026-04-12T10:52:25.012Z</time></trkpt><trkpt lat="44.0348629" lon="12.030844"><ele>232.0</ele><time>2026-04-12T10:52:26.015Z</time></trkpt><trkpt lat="44.0348663" lon="12.0310323"><ele>232.0</ele><time>2026-04-12T10:52:27.012Z</time></trkpt><trkpt lat="44.0349068" lon="12.0312111"><ele>232.0</ele><time>2026-04-12T10:52:28.014Z</time></trkpt><trkpt lat="44.0349658" lon="12.0313717"><ele>232.0</ele><time>2026-04-12T10:52:29.011Z</time></trkpt><trkpt lat="44.0350362" lon="12.0315269"><ele>234.75</ele><time>2026-04-12T10:52:30.012Z</time></trkpt><trkpt lat="44.0351032" lon="12.0316785"><ele>237.5</ele><time>2026-04-12T10:52:31.013Z</time></trkpt><trkpt lat="44.0351666" lon="12.0318274"><ele>240.25</ele><time>2026-04-12T10:52:32.011Z</time></trkpt><trkpt lat="44.0352336" lon="12.0319614"><ele>243.0</ele><time>2026-04-12T10:52:33.015Z</time></trkpt><trkpt lat="44.0352962" lon="12.0320796"><ele>243.0</ele><time>2026-04-12T10:52:34.011Z</time></trkpt><trkpt lat="44.0353437" lon="12.0322018"><ele>243.0</ele><time>2026-04-12T10:52:35.011Z</time></trkpt><trkpt lat="44.0353797" lon="12.0323358"><ele>243.0</ele><time>2026-04-12T10:52:36.011Z</time></trkpt><trkpt lat="44.0353998" lon="12.0324876"><ele>243.0</ele><time>2026-04-12T10:52:37.013Z</time></trkpt><trkpt lat="44.0354002" lon="12.0326518"><ele>243.0</ele><time>2026-04-12T10:52:38.013Z</time></trkpt><trkpt lat="44.0353899" lon="12.0328148"><ele>242.0</ele><time>2026-04-12T10:52:39.013Z</time></trkpt><trkpt lat="44.0353797" lon="12.032979"><ele>241.0</ele><time>2026-04-12T10:52:40.011Z</time></trkpt><trkpt lat="44.0353719" lon="12.0331429"><ele>240.0</ele><time>2026-04-12T10:52:41.013Z</time></trkpt><trkpt lat="44.0353518" lon="12.0333036"><ele>239.0</ele><time>2026-04-12T10:52:42.012Z</time></trkpt><trkpt lat="44.0353261" lon="12.0334597"><ele>239.0</ele><time>2026-04-12T10:52:43.013Z</time></trkpt><trkpt lat="44.0353024" lon="12.0336108"><ele>238.99999999999997</ele><time>2026-04-12T10:52:44.011Z</time></trkpt><trkpt lat="44.0352848" lon="12.0337584"><ele>238.99999999999997</ele><time>2026-04-12T10:52:45.012Z</time></trkpt><trkpt lat="44.035262" lon="12.0339006"><ele>239.0</ele><time>2026-04-12T10:52:46.012Z</time></trkpt><trkpt lat="44.03524" lon="12.0340395"><ele>239.0</ele><time>2026-04-12T10:52:47.012Z</time></trkpt><trkpt lat="44.0352125" lon="12.0341779"><ele>239.5</ele><time>2026-04-12T10:52:48.014Z</time></trkpt><trkpt lat="44.0351701" lon="12.0343148"><ele>240.0</ele><time>2026-04-12T10:52:49.013Z</time></trkpt><trkpt lat="44.0351073" lon="12.034447"><ele>240.5</ele><time>2026-04-12T10:52:50.017Z</time></trkpt><trkpt lat="44.0350222" lon="12.0345755"><ele>241.0</ele><time>2026-04-12T10:52:51.011Z</time></trkpt><trkpt lat="44.0349199" lon="12.0346846"><ele>237.25</ele><time>2026-04-12T10:52:52.012Z</time></trkpt><trkpt lat="44.0347971" lon="12.0347674"><ele>233.5</ele><time>2026-04-12T10:52:53.011Z</time></trkpt><trkpt lat="44.0346758" lon="12.0348426"><ele>229.75</ele><time>2026-04-12T10:52:54.012Z</time></trkpt><trkpt lat="44.0345633" lon="12.0349173"><ele>226.0</ele><time>2026-04-12T10:52:55.013Z</time></trkpt><trkpt lat="44.0344608" lon="12.034989"><ele>226.0</ele><time>2026-04-12T10:52:56.012Z</time></trkpt><trkpt lat="44.0343585" lon="12.0350562"><ele>226.00000000000003</ele><time>2026-04-12T10:52:57.014Z</time></trkpt><trkpt lat="44.034264" lon="12.0351521"><ele>226.00000000000003</ele><time>2026-04-12T10:52:58.013Z</time></trkpt><trkpt lat="44.0341829" lon="12.0352639"><ele>226.0</ele><time>2026-04-12T10:52:59.017Z</time></trkpt><trkpt lat="44.0341112" lon="12.0353667"><ele>226.0</ele><time>2026-04-12T10:53:00.012Z</time></trkpt><trkpt lat="44.0340549" lon="12.0354673"><ele>225.49999999999997</ele><time>2026-04-12T10:53:01.011Z</time></trkpt><trkpt lat="44.0340098" lon="12.0355558"><ele>225.0</ele><time>2026-04-12T10:53:02.013Z</time></trkpt><trkpt lat="44.0339856" lon="12.0356564"><ele>224.5</ele><time>2026-04-12T10:53:03.013Z</time></trkpt><trkpt lat="44.0339877" lon="12.0357549"><ele>224.0</ele><time>2026-04-12T10:53:04.015Z</time></trkpt><trkpt lat="44.0340037" lon="12.035853"><ele>223.49999999999997</ele><time>2026-04-12T10:53:05.012Z</time></trkpt><trkpt lat="44.0340244" lon="12.0359386"><ele>223.0</ele><time>2026-04-12T10:53:06.014Z</time></trkpt><trkpt lat="44.0340009" lon="12.0360573"><ele>221.33333333333331</ele><time>2026-04-12T10:53:08.011Z</time></trkpt><trkpt lat="44.0339193" lon="12.036119"><ele>219.66666666666666</ele><time>2026-04-12T10:53:10.012Z</time></trkpt><trkpt lat="44.0338603" lon="12.0361537"><ele>218.0</ele><time>2026-04-12T10:53:11.012Z</time></trkpt><trkpt lat="44.0337987" lon="12.0361972"><ele>216.33333333333331</ele><time>2026-04-12T10:53:12.013Z</time></trkpt><trkpt lat="44.0337338" lon="12.0362835"><ele>214.66666666666666</ele><time>2026-04-12T10:53:13.012Z</time></trkpt><trkpt lat="44.0336746" lon="12.0363916"><ele>213.0</ele><time>2026-04-12T10:53:14.014Z</time></trkpt><trkpt lat="44.0336099" lon="12.0364825"><ele>213.0</ele><time>2026-04-12T10:53:15.012Z</time></trkpt><trkpt lat="44.0335425" lon="12.0365519"><ele>213.0</ele><time>2026-04-12T10:53:16.012Z</time></trkpt><trkpt lat="44.0334836" lon="12.0366069"><ele>213.0</ele><time>2026-04-12T10:53:17.011Z</time></trkpt><trkpt lat="44.0333962" lon="12.0366875"><ele>213.0</ele><time>2026-04-12T10:53:19.011Z</time></trkpt><trkpt lat="44.033334" lon="12.0367232"><ele>213.0</ele><time>2026-04-12T10:53:22.012Z</time></trkpt><trkpt lat="44.033245" lon="12.0367117"><ele>213.0</ele><time>2026-04-12T10:53:47.012Z</time></trkpt><trkpt lat="44.0331783" lon="12.03679"><ele>214.0</ele><time>2026-04-12T10:53:48.011Z</time></trkpt><trkpt lat="44.0331117" lon="12.0368633"><ele>215.0</ele><time>2026-04-12T10:53:49.02Z</time></trkpt><trkpt lat="44.03303" lon="12.0369483"><ele>216.0</ele><time>2026-04-12T10:53:50.012Z</time></trkpt><trkpt lat="44.032955" lon="12.0370967"><ele>217.0</ele><time>2026-04-12T10:53:51.013Z</time></trkpt><trkpt lat="44.032905" lon="12.0372783"><ele>215.0</ele><time>2026-04-12T10:53:52.012Z</time></trkpt><trkpt lat="44.032855" lon="12.0374933"><ele>213.0</ele><time>2026-04-12T10:53:53.012Z</time></trkpt><trkpt lat="44.0328" lon="12.037705"><ele>211.0</ele><time>2026-04-12T10:53:54.013Z</time></trkpt><trkpt lat="44.0327483" lon="12.0379033"><ele>211.0</ele><time>2026-04-12T10:53:55.012Z</time></trkpt><trkpt lat="44.0327017" lon="12.0380817"><ele>211.0</ele><time>2026-04-12T10:53:56.012Z</time></trkpt><trkpt lat="44.032665" lon="12.0382417"><ele>211.0</ele><time>2026-04-12T10:53:57.012Z</time></trkpt><trkpt lat="44.03262" lon="12.0383817"><ele>211.0</ele><time>2026-04-12T10:53:58.013Z</time></trkpt><trkpt lat="44.0325867" lon="12.0384967"><ele>211.33333333333331</ele><time>2026-04-12T10:53:59.021Z</time></trkpt><trkpt lat="44.032555" lon="12.03859"><ele>211.66666666666666</ele><time>2026-04-12T10:54:00.012Z</time></trkpt><trkpt lat="44.0325317" lon="12.038675"><ele>212.0</ele><time>2026-04-12T10:54:01.011Z</time></trkpt><trkpt lat="44.0325733" lon="12.038825"><ele>212.33333333333331</ele><time>2026-04-12T10:54:03.012Z</time></trkpt><trkpt lat="44.032615" lon="12.0388967"><ele>212.66666666666666</ele><time>2026-04-12T10:54:04.011Z</time></trkpt><trkpt lat="44.0326783" lon="12.0389633"><ele>213.0</ele><time>2026-04-12T10:54:05.012Z</time></trkpt><trkpt lat="44.0328" lon="12.03901"><ele>213.0</ele><time>2026-04-12T10:54:06.013Z</time></trkpt><trkpt lat="44.0329083" lon="12.0390517"><ele>213.0</ele><time>2026-04-12T10:54:07.013Z</time></trkpt><trkpt lat="44.0329917" lon="12.0391117"><ele>213.0</ele><time>2026-04-12T10:54:08.013Z</time></trkpt><trkpt lat="44.03307" lon="12.0391483"><ele>213.0</ele><time>2026-04-12T10:54:09.013Z</time></trkpt><trkpt lat="44.03311" lon="12.0392217"><ele>213.0</ele><time>2026-04-12T10:54:10.01Z</time></trkpt><trkpt lat="44.0331067" lon="12.0393117"><ele>213.0</ele><time>2026-04-12T10:54:11.01Z</time></trkpt><trkpt lat="44.0330733" lon="12.0394717"><ele>214.0</ele><time>2026-04-12T10:54:13.012Z</time></trkpt><trkpt lat="44.0330317" lon="12.03965"><ele>215.0</ele><time>2026-04-12T10:54:15.017Z</time></trkpt><trkpt lat="44.0330333" lon="12.0397617"><ele>216.0</ele><time>2026-04-12T10:54:16.013Z</time></trkpt><trkpt lat="44.0330417" lon="12.03987"><ele>217.0</ele><time>2026-04-12T10:54:17.012Z</time></trkpt><trkpt lat="44.0330783" lon="12.0399883"><ele>218.0</ele><time>2026-04-12T10:54:18.013Z</time></trkpt><trkpt lat="44.0331383" lon="12.0401083"><ele>219.83333333333334</ele><time>2026-04-12T10:54:19.012Z</time></trkpt><trkpt lat="44.033195" lon="12.04023"><ele>221.66666666666669</ele><time>2026-04-12T10:54:20.011Z</time></trkpt><trkpt lat="44.033235" lon="12.04035"><ele>223.5</ele><time>2026-04-12T10:54:21.013Z</time></trkpt><trkpt lat="44.0332483" lon="12.0404667"><ele>225.33333333333331</ele><time>2026-04-12T10:54:22.012Z</time></trkpt><trkpt lat="44.0332533" lon="12.0405683"><ele>227.16666666666666</ele><time>2026-04-12T10:54:23.011Z</time></trkpt><trkpt lat="44.03321" lon="12.0406633"><ele>229.0</ele><time>2026-04-12T10:54:24.011Z</time></trkpt><trkpt lat="44.033115" lon="12.0407433"><ele>231.6</ele><time>2026-04-12T10:54:25.013Z</time></trkpt><trkpt lat="44.0330667" lon="12.040835"><ele>234.2</ele><time>2026-04-12T10:54:26.021Z</time></trkpt><trkpt lat="44.0330333" lon="12.0409533"><ele>236.79999999999998</ele><time>2026-04-12T10:54:27.013Z</time></trkpt><trkpt lat="44.033" lon="12.0411"><ele>239.39999999999998</ele><time>2026-04-12T10:54:28.012Z</time></trkpt><trkpt lat="44.0329683" lon="12.0412533"><ele>242.0</ele><time>2026-04-12T10:54:29.014Z</time></trkpt><trkpt lat="44.0329363" lon="12.0414009"><ele>242.0</ele><time>2026-04-12T10:54:30.011Z</time></trkpt><trkpt lat="44.0329017" lon="12.0415513"><ele>242.0</ele><time>2026-04-12T10:54:31.015Z</time></trkpt><trkpt lat="44.0328663" lon="12.0417039"><ele>242.0</ele><time>2026-04-12T10:54:32.012Z</time></trkpt><trkpt lat="44.0328306" lon="12.041862"><ele>242.0</ele><time>2026-04-12T10:54:33.014Z</time></trkpt><trkpt lat="44.0327964" lon="12.0420235"><ele>244.5</ele><time>2026-04-12T10:54:34.013Z</time></trkpt><trkpt lat="44.0327624" lon="12.0421874"><ele>247.0</ele><time>2026-04-12T10:54:35.011Z</time></trkpt><trkpt lat="44.0327232" lon="12.0423565"><ele>249.5</ele><time>2026-04-12T10:54:36.012Z</time></trkpt><trkpt lat="44.0326845" lon="12.0425328"><ele>252.0</ele><time>2026-04-12T10:54:37.013Z</time></trkpt><trkpt lat="44.0326557" lon="12.0427156"><ele>253.39999999999998</ele><time>2026-04-12T10:54:38.013Z</time></trkpt><trkpt lat="44.0326438" lon="12.0428931"><ele>254.79999999999998</ele><time>2026-04-12T10:54:39.012Z</time></trkpt><trkpt lat="44.0326422" lon="12.0430551"><ele>256.2</ele><time>2026-04-12T10:54:40.013Z</time></trkpt><trkpt lat="44.0326525" lon="12.0431861"><ele>257.59999999999997</ele><time>2026-04-12T10:54:41.012Z</time></trkpt><trkpt lat="44.0326458" lon="12.0432928"><ele>259.0</ele><time>2026-04-12T10:54:42.011Z</time></trkpt><trkpt lat="44.0326193" lon="12.0433828"><ele>260.16666666666663</ele><time>2026-04-12T10:54:43.013Z</time></trkpt><trkpt lat="44.0325623" lon="12.0434253"><ele>261.3333333333333</ele><time>2026-04-12T10:54:44.013Z</time></trkpt><trkpt lat="44.0324804" lon="12.0434099"><ele>262.5</ele><time>2026-04-12T10:54:45.012Z</time></trkpt><trkpt lat="44.0323966" lon="12.0433722"><ele>263.6666666666667</ele><time>2026-04-12T10:54:46.011Z</time></trkpt><trkpt lat="44.0323263" lon="12.0433664"><ele>264.83333333333337</ele><time>2026-04-12T10:54:47.013Z</time></trkpt><trkpt lat="44.0322715" lon="12.04342"><ele>266.0</ele><time>2026-04-12T10:54:48.014Z</time></trkpt><trkpt lat="44.0322048" lon="12.0434987"><ele>267.0</ele><time>2026-04-12T10:54:49.013Z</time></trkpt><trkpt lat="44.0321327" lon="12.0435922"><ele>268.0</ele><time>2026-04-12T10:54:50.011Z</time></trkpt><trkpt lat="44.032072" lon="12.0437248"><ele>269.0</ele><time>2026-04-12T10:54:51.013Z</time></trkpt><trkpt lat="44.0320141" lon="12.0438864"><ele>270.0</ele><time>2026-04-12T10:54:52.012Z</time></trkpt><trkpt lat="44.0319503" lon="12.0440643"><ele>273.3333333333333</ele><time>2026-04-12T10:54:53.012Z</time></trkpt><trkpt lat="44.0318831" lon="12.0442649"><ele>276.66666666666663</ele><time>2026-04-12T10:54:54.013Z</time></trkpt><trkpt lat="44.0318099" lon="12.0444763"><ele>280.0</ele><time>2026-04-12T10:54:55.013Z</time></trkpt><trkpt lat="44.0317289" lon="12.0446908"><ele>280.0</ele><time>2026-04-12T10:54:56.013Z</time></trkpt><trkpt lat="44.0316515" lon="12.0449106"><ele>280.0</ele><time>2026-04-12T10:54:57.014Z</time></trkpt><trkpt lat="44.0315689" lon="12.0451309"><ele>280.0</ele><time>2026-04-12T10:54:58.014Z</time></trkpt><trkpt lat="44.0314813" lon="12.0453533"><ele>283.66666666666663</ele><time>2026-04-12T10:54:59.013Z</time></trkpt><trkpt lat="44.0313929" lon="12.0455788"><ele>287.3333333333333</ele><time>2026-04-12T10:55:00.013Z</time></trkpt><trkpt lat="44.0312986" lon="12.0458058"><ele>291.0</ele><time>2026-04-12T10:55:01.015Z</time></trkpt><trkpt lat="44.0312036" lon="12.0460143"><ele>293.5</ele><time>2026-04-12T10:55:02.013Z</time></trkpt><trkpt lat="44.031121" lon="12.0461959"><ele>296.0</ele><time>2026-04-12T10:55:03.017Z</time></trkpt><trkpt lat="44.0310462" lon="12.0463628"><ele>298.5</ele><time>2026-04-12T10:55:04.013Z</time></trkpt><trkpt lat="44.0309791" lon="12.0465005"><ele>301.0</ele><time>2026-04-12T10:55:05.012Z</time></trkpt><trkpt lat="44.0309098" lon="12.0466064"><ele>303.2</ele><time>2026-04-12T10:55:06.013Z</time></trkpt><trkpt lat="44.0308327" lon="12.0466704"><ele>305.40000000000003</ele><time>2026-04-12T10:55:07.013Z</time></trkpt><trkpt lat="44.03074" lon="12.0466974"><ele>307.6</ele><time>2026-04-12T10:55:08.013Z</time></trkpt><trkpt lat="44.0306462" lon="12.0466927"><ele>309.8</ele><time>2026-04-12T10:55:09.012Z</time></trkpt><trkpt lat="44.0305632" lon="12.0466925"><ele>312.0</ele><time>2026-04-12T10:55:10.012Z</time></trkpt><trkpt lat="44.0305536" lon="12.046823"><ele>313.4</ele><time>2026-04-12T10:55:12.512Z</time></trkpt><trkpt lat="44.0305055" lon="12.0469189"><ele>314.79999999999995</ele><time>2026-04-12T10:55:14.013Z</time></trkpt><trkpt lat="44.0305848" lon="12.0470691"><ele>316.2</ele><time>2026-04-12T10:55:16.013Z</time></trkpt><trkpt lat="44.0306333" lon="12.0471538"><ele>317.59999999999997</ele><time>2026-04-12T10:55:17.011Z</time></trkpt><trkpt lat="44.0306721" lon="12.0472412"><ele>319.0</ele><time>2026-04-12T10:55:18.011Z</time></trkpt><trkpt lat="44.0306722" lon="12.0473733"><ele>323.5</ele><time>2026-04-12T10:55:19.013Z</time></trkpt><trkpt lat="44.0306676" lon="12.0475136"><ele>328.0</ele><time>2026-04-12T10:55:20.014Z</time></trkpt><trkpt lat="44.0306448" lon="12.0476824"><ele>332.5</ele><time>2026-04-12T10:55:21.013Z</time></trkpt><trkpt lat="44.0306071" lon="12.0478546"><ele>337.0</ele><time>2026-04-12T10:55:22.015Z</time></trkpt><trkpt lat="44.0305659" lon="12.0480085"><ele>337.0</ele><time>2026-04-12T10:55:23.012Z</time></trkpt><trkpt lat="44.0305284" lon="12.0481458"><ele>337.0</ele><time>2026-04-12T10:55:24.013Z</time></trkpt><trkpt lat="44.0304954" lon="12.0482484"><ele>337.0</ele><time>2026-04-12T10:55:25.014Z</time></trkpt><trkpt lat="44.0304383" lon="12.0483015"><ele>337.0</ele><time>2026-04-12T10:55:26.012Z</time></trkpt><trkpt lat="44.0303665" lon="12.0483175"><ele>337.0</ele><time>2026-04-12T10:55:27.015Z</time></trkpt><trkpt lat="44.0302991" lon="12.0482867"><ele>337.0</ele><time>2026-04-12T10:55:28.013Z</time></trkpt><trkpt lat="44.0302421" lon="12.0482208"><ele>337.0</ele><time>2026-04-12T10:55:29.012Z</time></trkpt><trkpt lat="44.0301979" lon="12.0481182"><ele>337.0</ele><time>2026-04-12T10:55:30.014Z</time></trkpt><trkpt lat="44.0301516" lon="12.0479716"><ele>337.0</ele><time>2026-04-12T10:55:31.013Z</time></trkpt><trkpt lat="44.0300939" lon="12.0478397"><ele>337.0</ele><time>2026-04-12T10:55:32.013Z</time></trkpt><trkpt lat="44.0300227" lon="12.0477399"><ele>337.0</ele><time>2026-04-12T10:55:33.021Z</time></trkpt><trkpt lat="44.02995" lon="12.0476532"><ele>336.20000000000005</ele><time>2026-04-12T10:55:34.013Z</time></trkpt><trkpt lat="44.0298735" lon="12.047594"><ele>335.4</ele><time>2026-04-12T10:55:35.014Z</time></trkpt><trkpt lat="44.0297887" lon="12.0475985"><ele>334.6</ele><time>2026-04-12T10:55:36.013Z</time></trkpt><trkpt lat="44.0297018" lon="12.0476714"><ele>333.79999999999995</ele><time>2026-04-12T10:55:37.014Z</time></trkpt><trkpt lat="44.0296245" lon="12.0478258"><ele>333.0</ele><time>2026-04-12T10:55:38.012Z</time></trkpt><trkpt lat="44.0295555" lon="12.0480422"><ele>333.0</ele><time>2026-04-12T10:55:39.014Z</time></trkpt><trkpt lat="44.0295003" lon="12.0482729"><ele>333.0</ele><time>2026-04-12T10:55:40.013Z</time></trkpt><trkpt lat="44.02944" lon="12.048495"><ele>333.0</ele><time>2026-04-12T10:55:41.014Z</time></trkpt><trkpt lat="44.0293813" lon="12.0487066"><ele>337.0</ele><time>2026-04-12T10:55:42.015Z</time></trkpt><trkpt lat="44.0293207" lon="12.048902"><ele>341.0</ele><time>2026-04-12T10:55:43.012Z</time></trkpt><trkpt lat="44.0292605" lon="12.0490921"><ele>345.0</ele><time>2026-04-12T10:55:44.016Z</time></trkpt><trkpt lat="44.0292056" lon="12.0492813"><ele>349.0</ele><time>2026-04-12T10:55:45.012Z</time></trkpt><trkpt lat="44.0291528" lon="12.0494746"><ele>353.66666666666663</ele><time>2026-04-12T10:55:46.013Z</time></trkpt><trkpt lat="44.0291011" lon="12.0496736"><ele>358.3333333333333</ele><time>2026-04-12T10:55:47.013Z</time></trkpt><trkpt lat="44.0290447" lon="12.0498748"><ele>363.0</ele><time>2026-04-12T10:55:48.013Z</time></trkpt><trkpt lat="44.02899" lon="12.0500761"><ele>366.0</ele><time>2026-04-12T10:55:49.015Z</time></trkpt><trkpt lat="44.0289419" lon="12.0502724"><ele>369.0</ele><time>2026-04-12T10:55:50.02Z</time></trkpt><trkpt lat="44.0288997" lon="12.0504568"><ele>372.0</ele><time>2026-04-12T10:55:51.013Z</time></trkpt><trkpt lat="44.0288812" lon="12.0506458"><ele>375.0</ele><time>2026-04-12T10:55:52.013Z</time></trkpt><trkpt lat="44.0288886" lon="12.0508454"><ele>376.6666666666667</ele><time>2026-04-12T10:55:53.011Z</time></trkpt><trkpt lat="44.028909" lon="12.0510528"><ele>378.33333333333337</ele><time>2026-04-12T10:55:54.014Z</time></trkpt><trkpt lat="44.0289379" lon="12.0512677"><ele>380.0</ele><time>2026-04-12T10:55:55.013Z</time></trkpt><trkpt lat="44.0289655" lon="12.0514843"><ele>380.6666666666667</ele><time>2026-04-12T10:55:56.016Z</time></trkpt><trkpt lat="44.0289865" lon="12.0517041"><ele>381.3333333333333</ele><time>2026-04-12T10:55:57.014Z</time></trkpt><trkpt lat="44.0290042" lon="12.0519247"><ele>382.0</ele><time>2026-04-12T10:55:58.012Z</time></trkpt><trkpt lat="44.0290182" lon="12.0521441"><ele>382.0</ele><time>2026-04-12T10:55:59.014Z</time></trkpt><trkpt lat="44.0290442" lon="12.0523623"><ele>382.0</ele><time>2026-04-12T10:56:00.013Z</time></trkpt><trkpt lat="44.0290807" lon="12.0525744"><ele>382.0</ele><time>2026-04-12T10:56:01.014Z</time></trkpt><trkpt lat="44.0291221" lon="12.0527846"><ele>385.66666666666663</ele><time>2026-04-12T10:56:02.013Z</time></trkpt><trkpt lat="44.0291694" lon="12.0530004"><ele>389.3333333333333</ele><time>2026-04-12T10:56:03.014Z</time></trkpt><trkpt lat="44.0292148" lon="12.0532264"><ele>393.0</ele><time>2026-04-12T10:56:04.013Z</time></trkpt><trkpt lat="44.0292674" lon="12.0534522"><ele>394.5</ele><time>2026-04-12T10:56:05.013Z</time></trkpt><trkpt lat="44.0293214" lon="12.0536704"><ele>396.0</ele><time>2026-04-12T10:56:06.013Z</time></trkpt><trkpt lat="44.0293711" lon="12.0538646"><ele>397.5</ele><time>2026-04-12T10:56:07.013Z</time></trkpt><trkpt lat="44.0294104" lon="12.0540323"><ele>399.0</ele><time>2026-04-12T10:56:08.012Z</time></trkpt><trkpt lat="44.0294337" lon="12.0541762"><ele>400.0</ele><time>2026-04-12T10:56:09.016Z</time></trkpt><trkpt lat="44.0294381" lon="12.0542962"><ele>401.0</ele><time>2026-04-12T10:56:10.013Z</time></trkpt><trkpt lat="44.0294204" lon="12.0543932"><ele>402.0</ele><time>2026-04-12T10:56:11.013Z</time></trkpt><trkpt lat="44.0293829" lon="12.0544645"><ele>403.0</ele><time>2026-04-12T10:56:12.014Z</time></trkpt><trkpt lat="44.029328" lon="12.0545107"><ele>404.0</ele><time>2026-04-12T10:56:13.013Z</time></trkpt><trkpt lat="44.0292721" lon="12.0545582"><ele>405.0</ele><time>2026-04-12T10:56:14.013Z</time></trkpt><trkpt lat="44.0292267" lon="12.0546201"><ele>406.0</ele><time>2026-04-12T10:56:15.016Z</time></trkpt><trkpt lat="44.0292043" lon="12.0547143"><ele>406.0</ele><time>2026-04-12T10:56:16.012Z</time></trkpt><trkpt lat="44.0292047" lon="12.0548395"><ele>406.0</ele><time>2026-04-12T10:56:17.013Z</time></trkpt><trkpt lat="44.0292262" lon="12.0549805"><ele>406.0</ele><time>2026-04-12T10:56:18.013Z</time></trkpt><trkpt lat="44.0292452" lon="12.0551158"><ele>406.0</ele><time>2026-04-12T10:56:19.014Z</time></trkpt><trkpt lat="44.0292777" lon="12.055245"><ele>406.0</ele><time>2026-04-12T10:56:20.015Z</time></trkpt><trkpt lat="44.0293134" lon="12.0553745"><ele>408.20000000000005</ele><time>2026-04-12T10:56:21.012Z</time></trkpt><trkpt lat="44.0293211" lon="12.0555097"><ele>410.40000000000003</ele><time>2026-04-12T10:56:22.014Z</time></trkpt><trkpt lat="44.029295" lon="12.0556424"><ele>412.6</ele><time>2026-04-12T10:56:23.013Z</time></trkpt><trkpt lat="44.0292416" lon="12.0557518"><ele>414.8</ele><time>2026-04-12T10:56:24.017Z</time></trkpt><trkpt lat="44.0291894" lon="12.0558504"><ele>417.0</ele><time>2026-04-12T10:56:25.014Z</time></trkpt><trkpt lat="44.0291783" lon="12.0559625"><ele>417.40000000000003</ele><time>2026-04-12T10:56:26.013Z</time></trkpt><trkpt lat="44.0291691" lon="12.0560874"><ele>417.8</ele><time>2026-04-12T10:56:27.011Z</time></trkpt><trkpt lat="44.0291592" lon="12.056228"><ele>418.2</ele><time>2026-04-12T10:56:28.012Z</time></trkpt><trkpt lat="44.0291459" lon="12.0563769"><ele>418.6</ele><time>2026-04-12T10:56:29.011Z</time></trkpt><trkpt lat="44.02912" lon="12.0565333"><ele>419.0</ele><time>2026-04-12T10:56:30.011Z</time></trkpt><trkpt lat="44.0290906" lon="12.056695"><ele>421.6</ele><time>2026-04-12T10:56:31.014Z</time></trkpt><trkpt lat="44.0290575" lon="12.0568491"><ele>424.2</ele><time>2026-04-12T10:56:32.015Z</time></trkpt><trkpt lat="44.0290055" lon="12.0569874"><ele>426.80000000000007</ele><time>2026-04-12T10:56:33.012Z</time></trkpt><trkpt lat="44.0289473" lon="12.0571213"><ele>429.40000000000003</ele><time>2026-04-12T10:56:34.011Z</time></trkpt><trkpt lat="44.0288813" lon="12.0572376"><ele>432.0</ele><time>2026-04-12T10:56:35.014Z</time></trkpt><trkpt lat="44.028813" lon="12.057324"><ele>432.0</ele><time>2026-04-12T10:56:36.013Z</time></trkpt><trkpt lat="44.0287625" lon="12.0573988"><ele>432.0</ele><time>2026-04-12T10:56:37.013Z</time></trkpt><trkpt lat="44.0287161" lon="12.0575368"><ele>432.0</ele><time>2026-04-12T10:56:39.014Z</time></trkpt><trkpt lat="44.0287456" lon="12.05763"><ele>432.0</ele><time>2026-04-12T10:56:41.011Z</time></trkpt><trkpt lat="44.0288263" lon="12.0576473"><ele>432.0</ele><time>2026-04-12T10:56:43.014Z</time></trkpt><trkpt lat="44.0289331" lon="12.0576344"><ele>432.0</ele><time>2026-04-12T10:56:45.011Z</time></trkpt><trkpt lat="44.0290184" lon="12.0575889"><ele>434.5</ele><time>2026-04-12T10:56:46.011Z</time></trkpt><trkpt lat="44.0291221" lon="12.0575246"><ele>437.0</ele><time>2026-04-12T10:56:47.014Z</time></trkpt><trkpt lat="44.0292342" lon="12.0574569"><ele>439.5</ele><time>2026-04-12T10:56:48.012Z</time></trkpt><trkpt lat="44.02935" lon="12.0573968"><ele>442.0</ele><time>2026-04-12T10:56:49.02Z</time></trkpt><trkpt lat="44.029462" lon="12.0573427"><ele>442.0</ele><time>2026-04-12T10:56:50.013Z</time></trkpt><trkpt lat="44.0295684" lon="12.0572924"><ele>442.00000000000006</ele><time>2026-04-12T10:56:51.013Z</time></trkpt><trkpt lat="44.0296668" lon="12.0572562"><ele>442.00000000000006</ele><time>2026-04-12T10:56:52.011Z</time></trkpt><trkpt lat="44.0297718" lon="12.0572485"><ele>442.0</ele><time>2026-04-12T10:56:53.011Z</time></trkpt><trkpt lat="44.029886" lon="12.0572713"><ele>442.0</ele><time>2026-04-12T10:56:54.013Z</time></trkpt><trkpt lat="44.0300183" lon="12.0573117"><ele>443.25</ele><time>2026-04-12T10:56:55.011Z</time></trkpt><trkpt lat="44.030155" lon="12.057335"><ele>444.5</ele><time>2026-04-12T10:56:56.012Z</time></trkpt><trkpt lat="44.0302983" lon="12.0573467"><ele>445.75</ele><time>2026-04-12T10:56:57.012Z</time></trkpt><trkpt lat="44.0304517" lon="12.0573383"><ele>447.0</ele><time>2026-04-12T10:56:58.011Z</time></trkpt><trkpt lat="44.0306117" lon="12.0572883"><ele>447.0</ele><time>2026-04-12T10:56:59.012Z</time></trkpt><trkpt lat="44.030775" lon="12.0572183"><ele>447.0</ele><time>2026-04-12T10:57:00.012Z</time></trkpt><trkpt lat="44.0309183" lon="12.057155"><ele>447.0</ele><time>2026-04-12T10:57:01.016Z</time></trkpt><trkpt lat="44.0310433" lon="12.0570883"><ele>449.0</ele><time>2026-04-12T10:57:02.012Z</time></trkpt><trkpt lat="44.03117" lon="12.057035"><ele>451.0</ele><time>2026-04-12T10:57:03.015Z</time></trkpt><trkpt lat="44.0313" lon="12.0570217"><ele>453.0</ele><time>2026-04-12T10:57:04.013Z</time></trkpt><trkpt lat="44.031445" lon="12.057035"><ele>455.0</ele><time>2026-04-12T10:57:05.013Z</time></trkpt><trkpt lat="44.031605" lon="12.0570717"><ele>458.3333333333333</ele><time>2026-04-12T10:57:06.014Z</time></trkpt><trkpt lat="44.0317733" lon="12.0571217"><ele>461.66666666666663</ele><time>2026-04-12T10:57:07.014Z</time></trkpt><trkpt lat="44.0319433" lon="12.0571617"><ele>465.0</ele><time>2026-04-12T10:57:08.011Z</time></trkpt><trkpt lat="44.0321017" lon="12.0572"><ele>465.0</ele><time>2026-04-12T10:57:09.017Z</time></trkpt><trkpt lat="44.0322367" lon="12.0572483"><ele>465.0</ele><time>2026-04-12T10:57:10.011Z</time></trkpt><trkpt lat="44.0323567" lon="12.0572833"><ele>465.0</ele><time>2026-04-12T10:57:11.012Z</time></trkpt><trkpt lat="44.0324567" lon="12.0573417"><ele>465.0</ele><time>2026-04-12T10:57:12.012Z</time></trkpt><trkpt lat="44.03254" lon="12.0574167"><ele>466.75</ele><time>2026-04-12T10:57:13.012Z</time></trkpt><trkpt lat="44.0326133" lon="12.0575167"><ele>468.5</ele><time>2026-04-12T10:57:14.012Z</time></trkpt><trkpt lat="44.0326883" lon="12.0576483"><ele>470.25</ele><time>2026-04-12T10:57:15.011Z</time></trkpt><trkpt lat="44.032755" lon="12.057795"><ele>472.0</ele><time>2026-04-12T10:57:16.011Z</time></trkpt><trkpt lat="44.032825" lon="12.0579467"><ele>472.0</ele><time>2026-04-12T10:57:17.012Z</time></trkpt><trkpt lat="44.0329033" lon="12.0580867"><ele>472.0</ele><time>2026-04-12T10:57:18.013Z</time></trkpt><trkpt lat="44.0329717" lon="12.0582333"><ele>472.0</ele><time>2026-04-12T10:57:19.016Z</time></trkpt><trkpt lat="44.0330317" lon="12.05838"><ele>472.0</ele><time>2026-04-12T10:57:20.013Z</time></trkpt><trkpt lat="44.033115" lon="12.0584933"><ele>471.25</ele><time>2026-04-12T10:57:21.013Z</time></trkpt><trkpt lat="44.03319" lon="12.058605"><ele>470.5</ele><time>2026-04-12T10:57:22.014Z</time></trkpt><trkpt lat="44.0332817" lon="12.0587017"><ele>469.75</ele><time>2026-04-12T10:57:23.013Z</time></trkpt><trkpt lat="44.03338" lon="12.05879"><ele>469.0</ele><time>2026-04-12T10:57:24.013Z</time></trkpt><trkpt lat="44.0334817" lon="12.0588533"><ele>469.0</ele><time>2026-04-12T10:57:25.013Z</time></trkpt><trkpt lat="44.0335833" lon="12.058895"><ele>469.0</ele><time>2026-04-12T10:57:26.093Z</time></trkpt><trkpt lat="44.033685" lon="12.0589033"><ele>469.0</ele><time>2026-04-12T10:57:27.013Z</time></trkpt><trkpt lat="44.0337783" lon="12.0588967"><ele>469.0</ele><time>2026-04-12T10:57:28.014Z</time></trkpt><trkpt lat="44.0338633" lon="12.0589133"><ele>469.0</ele><time>2026-04-12T10:57:29.013Z</time></trkpt><trkpt lat="44.0339433" lon="12.0589683"><ele>469.0</ele><time>2026-04-12T10:57:30.012Z</time></trkpt><trkpt lat="44.0340133" lon="12.0590533"><ele>469.0</ele><time>2026-04-12T10:57:31.013Z</time></trkpt><trkpt lat="44.0340733" lon="12.0591783"><ele>469.0</ele><time>2026-04-12T10:57:32.013Z</time></trkpt><trkpt lat="44.0341333" lon="12.0593217"><ele>469.0</ele><time>2026-04-12T10:57:33.012Z</time></trkpt><trkpt lat="44.0341933" lon="12.059485"><ele>461.33333333333337</ele><time>2026-04-12T10:57:34.012Z</time></trkpt><trkpt lat="44.0342683" lon="12.05965"><ele>453.66666666666663</ele><time>2026-04-12T10:57:35.012Z</time></trkpt><trkpt lat="44.03436" lon="12.0598333"><ele>446.0</ele><time>2026-04-12T10:57:36.011Z</time></trkpt><trkpt lat="44.0344717" lon="12.0600233"><ele>445.66666666666663</ele><time>2026-04-12T10:57:37.015Z</time></trkpt><trkpt lat="44.0345983" lon="12.060215"><ele>445.33333333333337</ele><time>2026-04-12T10:57:38.013Z</time></trkpt><trkpt lat="44.034715" lon="12.0604233"><ele>445.0</ele><time>2026-04-12T10:57:39.013Z</time></trkpt><trkpt lat="44.0348417" lon="12.060625"><ele>443.6666666666667</ele><time>2026-04-12T10:57:40.014Z</time></trkpt><trkpt lat="44.0349717" lon="12.0608233"><ele>442.33333333333337</ele><time>2026-04-12T10:57:41.013Z</time></trkpt><trkpt lat="44.035105" lon="12.0610283"><ele>441.0</ele><time>2026-04-12T10:57:42.013Z</time></trkpt><trkpt lat="44.0352383" lon="12.061235"><ele>441.0</ele><time>2026-04-12T10:57:43.014Z</time></trkpt><trkpt lat="44.0353683" lon="12.0614367"><ele>441.0</ele><time>2026-04-12T10:57:44.012Z</time></trkpt><trkpt lat="44.0354867" lon="12.06164"><ele>441.0</ele><time>2026-04-12T10:57:45.012Z</time></trkpt><trkpt lat="44.0355867" lon="12.0618417"><ele>440.33333333333337</ele><time>2026-04-12T10:57:46.013Z</time></trkpt><trkpt lat="44.0356867" lon="12.0620333"><ele>439.6666666666667</ele><time>2026-04-12T10:57:47.011Z</time></trkpt><trkpt lat="44.0357867" lon="12.0622167"><ele>439.0</ele><time>2026-04-12T10:57:48.014Z</time></trkpt><trkpt lat="44.035875" lon="12.0623933"><ele>441.0</ele><time>2026-04-12T10:57:49.015Z</time></trkpt><trkpt lat="44.0359633" lon="12.062555"><ele>443.0</ele><time>2026-04-12T10:57:50.013Z</time></trkpt><trkpt lat="44.0360417" lon="12.0627083"><ele>445.0</ele><time>2026-04-12T10:57:51.015Z</time></trkpt><trkpt lat="44.0361233" lon="12.0628367"><ele>447.0</ele><time>2026-04-12T10:57:52.013Z</time></trkpt><trkpt lat="44.03621" lon="12.0629417"><ele>447.0</ele><time>2026-04-12T10:57:53.012Z</time></trkpt><trkpt lat="44.0363133" lon="12.06302"><ele>447.0</ele><time>2026-04-12T10:57:54.012Z</time></trkpt><trkpt lat="44.0364267" lon="12.06308"><ele>447.0</ele><time>2026-04-12T10:57:55.012Z</time></trkpt><trkpt lat="44.0365567" lon="12.0630883"><ele>447.0</ele><time>2026-04-12T10:57:56.012Z</time></trkpt><trkpt lat="44.036695" lon="12.0630583"><ele>447.0</ele><time>2026-04-12T10:57:57.012Z</time></trkpt><trkpt lat="44.0368333" lon="12.0630217"><ele>447.0</ele><time>2026-04-12T10:57:58.013Z</time></trkpt><trkpt lat="44.0369717" lon="12.0630183"><ele>447.0</ele><time>2026-04-12T10:57:59.012Z</time></trkpt><trkpt lat="44.037115" lon="12.0630367"><ele>447.0</ele><time>2026-04-12T10:58:00.012Z</time></trkpt><trkpt lat="44.03726" lon="12.0630933"><ele>447.0</ele><time>2026-04-12T10:58:01.013Z</time></trkpt><trkpt lat="44.037405" lon="12.0631717"><ele>447.0</ele><time>2026-04-12T10:58:02.011Z</time></trkpt><trkpt lat="44.0375583" lon="12.063215"><ele>447.0</ele><time>2026-04-12T10:58:03.014Z</time></trkpt><trkpt lat="44.0377" lon="12.0633183"><ele>442.33333333333337</ele><time>2026-04-12T10:58:04.012Z</time></trkpt><trkpt lat="44.037795" lon="12.0635117"><ele>437.6666666666667</ele><time>2026-04-12T10:58:05.013Z</time></trkpt><trkpt lat="44.0378817" lon="12.0636817"><ele>433.0</ele><time>2026-04-12T10:58:06.012Z</time></trkpt><trkpt lat="44.0379767" lon="12.0638217"><ele>433.0</ele><time>2026-04-12T10:58:07.011Z</time></trkpt><trkpt lat="44.03806" lon="12.0639717"><ele>433.0</ele><time>2026-04-12T10:58:08.012Z</time></trkpt><trkpt lat="44.0381467" lon="12.06411"><ele>433.0</ele><time>2026-04-12T10:58:09.012Z</time></trkpt><trkpt lat="44.03823" lon="12.064225"><ele>433.0</ele><time>2026-04-12T10:58:10.015Z</time></trkpt><trkpt lat="44.0383183" lon="12.0643233"><ele>431.25</ele><time>2026-04-12T10:58:11.012Z</time></trkpt><trkpt lat="44.03843" lon="12.0643683"><ele>429.5</ele><time>2026-04-12T10:58:12.013Z</time></trkpt><trkpt lat="44.0385533" lon="12.0643983"><ele>427.75</ele><time>2026-04-12T10:58:13.013Z</time></trkpt><trkpt lat="44.0386783" lon="12.064425"><ele>426.0</ele><time>2026-04-12T10:58:14.013Z</time></trkpt><trkpt lat="44.0388" lon="12.0644683"><ele>426.0</ele><time>2026-04-12T10:58:15.012Z</time></trkpt><trkpt lat="44.03892" lon="12.0645433"><ele>426.0</ele><time>2026-04-12T10:58:16.013Z</time></trkpt><trkpt lat="44.03904" lon="12.064655"><ele>426.0</ele><time>2026-04-12T10:58:17.012Z</time></trkpt><trkpt lat="44.03916" lon="12.0647817"><ele>426.0</ele><time>2026-04-12T10:58:18.012Z</time></trkpt><trkpt lat="44.039285" lon="12.0649133"><ele>421.66666666666663</ele><time>2026-04-12T10:58:19.012Z</time></trkpt><trkpt lat="44.0394183" lon="12.06505"><ele>417.3333333333333</ele><time>2026-04-12T10:58:20.013Z</time></trkpt><trkpt lat="44.0395533" lon="12.065185"><ele>413.0</ele><time>2026-04-12T10:58:21.014Z</time></trkpt><trkpt lat="44.0396833" lon="12.0653117"><ele>413.0</ele><time>2026-04-12T10:58:22.014Z</time></trkpt><trkpt lat="44.0398217" lon="12.0654217"><ele>413.0</ele><time>2026-04-12T10:58:23.012Z</time></trkpt><trkpt lat="44.03996" lon="12.0655433"><ele>413.0</ele><time>2026-04-12T10:58:24.013Z</time></trkpt><trkpt lat="44.0401067" lon="12.0656583"><ele>411.66666666666663</ele><time>2026-04-12T10:58:25.012Z</time></trkpt><trkpt lat="44.040255" lon="12.0657783"><ele>410.33333333333337</ele><time>2026-04-12T10:58:26.013Z</time></trkpt><trkpt lat="44.0403967" lon="12.065905"><ele>409.0</ele><time>2026-04-12T10:58:27.012Z</time></trkpt><trkpt lat="44.0405267" lon="12.0660333"><ele>409.0</ele><time>2026-04-12T10:58:28.011Z</time></trkpt><trkpt lat="44.0406517" lon="12.066165"><ele>409.0</ele><time>2026-04-12T10:58:29.012Z</time></trkpt><trkpt lat="44.0407883" lon="12.06627"><ele>409.0</ele><time>2026-04-12T10:58:30.012Z</time></trkpt><trkpt lat="44.0409383" lon="12.0663467"><ele>406.6666666666667</ele><time>2026-04-12T10:58:31.013Z</time></trkpt><trkpt lat="44.041095" lon="12.066385"><ele>404.33333333333337</ele><time>2026-04-12T10:58:32.012Z</time></trkpt><trkpt lat="44.0412633" lon="12.0664"><ele>402.0</ele><time>2026-04-12T10:58:33.012Z</time></trkpt><trkpt lat="44.0414383" lon="12.0663983"><ele>402.0</ele><time>2026-04-12T10:58:34.011Z</time></trkpt><trkpt lat="44.04162" lon="12.06639"><ele>402.0</ele><time>2026-04-12T10:58:35.013Z</time></trkpt><trkpt lat="44.0417967" lon="12.0663817"><ele>402.0</ele><time>2026-04-12T10:58:36.013Z</time></trkpt><trkpt lat="44.0419633" lon="12.0663683"><ele>400.0</ele><time>2026-04-12T10:58:37.016Z</time></trkpt><trkpt lat="44.0421217" lon="12.0663533"><ele>398.0</ele><time>2026-04-12T10:58:38.013Z</time></trkpt><trkpt lat="44.0422817" lon="12.0663467"><ele>396.0</ele><time>2026-04-12T10:58:39.013Z</time></trkpt><trkpt lat="44.0424433" lon="12.0663433"><ele>394.33333333333337</ele><time>2026-04-12T10:58:40.012Z</time></trkpt><trkpt lat="44.042595" lon="12.06636"><ele>392.6666666666667</ele><time>2026-04-12T10:58:41.014Z</time></trkpt><trkpt lat="44.0427533" lon="12.06641"><ele>391.0</ele><time>2026-04-12T10:58:42.015Z</time></trkpt><trkpt lat="44.0429233" lon="12.0664733"><ele>391.0</ele><time>2026-04-12T10:58:43.012Z</time></trkpt><trkpt lat="44.0430983" lon="12.0665417"><ele>391.0</ele><time>2026-04-12T10:58:44.015Z</time></trkpt><trkpt lat="44.04327" lon="12.0666217"><ele>391.0</ele><time>2026-04-12T10:58:45.014Z</time></trkpt><trkpt lat="44.0434333" lon="12.0666967"><ele>392.0</ele><time>2026-04-12T10:58:46.012Z</time></trkpt><trkpt lat="44.0435933" lon="12.066765"><ele>393.0</ele><time>2026-04-12T10:58:47.014Z</time></trkpt><trkpt lat="44.0437433" lon="12.0668217"><ele>394.0</ele><time>2026-04-12T10:58:48.012Z</time></trkpt><trkpt lat="44.0438767" lon="12.0668883"><ele>394.0</ele><time>2026-04-12T10:58:49.014Z</time></trkpt><trkpt lat="44.0440033" lon="12.06693"><ele>394.0</ele><time>2026-04-12T10:58:50.013Z</time></trkpt><trkpt lat="44.0441233" lon="12.0669483"><ele>394.0</ele><time>2026-04-12T10:58:51.012Z</time></trkpt><trkpt lat="44.0442433" lon="12.06695"><ele>394.0</ele><time>2026-04-12T10:58:52.011Z</time></trkpt><trkpt lat="44.0443767" lon="12.0668867"><ele>393.25</ele><time>2026-04-12T10:58:53.012Z</time></trkpt><trkpt lat="44.0445217" lon="12.0668217"><ele>392.5</ele><time>2026-04-12T10:58:54.013Z</time></trkpt><trkpt lat="44.0446533" lon="12.0667733"><ele>391.75</ele><time>2026-04-12T10:58:55.013Z</time></trkpt><trkpt lat="44.0447733" lon="12.0667483"><ele>391.0</ele><time>2026-04-12T10:58:56.013Z</time></trkpt><trkpt lat="44.0448817" lon="12.0667683"><ele>388.4</ele><time>2026-04-12T10:58:57.014Z</time></trkpt><trkpt lat="44.0449733" lon="12.0668267"><ele>385.8</ele><time>2026-04-12T10:58:58.011Z</time></trkpt><trkpt lat="44.0450467" lon="12.0669117"><ele>383.2</ele><time>2026-04-12T10:58:59.012Z</time></trkpt><trkpt lat="44.0451017" lon="12.0670283"><ele>380.59999999999997</ele><time>2026-04-12T10:59:00.012Z</time></trkpt><trkpt lat="44.045145" lon="12.0671717"><ele>378.0</ele><time>2026-04-12T10:59:01.012Z</time></trkpt><trkpt lat="44.0451717" lon="12.0673433"><ele>378.25</ele><time>2026-04-12T10:59:02.014Z</time></trkpt><trkpt lat="44.0452" lon="12.0675283"><ele>378.5</ele><time>2026-04-12T10:59:03.011Z</time></trkpt><trkpt lat="44.0452317" lon="12.0677267"><ele>378.75</ele><time>2026-04-12T10:59:04.013Z</time></trkpt><trkpt lat="44.04526" lon="12.067925"><ele>379.0</ele><time>2026-04-12T10:59:05.015Z</time></trkpt><trkpt lat="44.04529" lon="12.0681133"><ele>376.6</ele><time>2026-04-12T10:59:06.012Z</time></trkpt><trkpt lat="44.045325" lon="12.0682833"><ele>374.2</ele><time>2026-04-12T10:59:07.013Z</time></trkpt><trkpt lat="44.0453383" lon="12.0684483"><ele>371.8</ele><time>2026-04-12T10:59:08.013Z</time></trkpt><trkpt lat="44.0453733" lon="12.0685867"><ele>369.40000000000003</ele><time>2026-04-12T10:59:09.013Z</time></trkpt><trkpt lat="44.0454183" lon="12.0686983"><ele>367.0</ele><time>2026-04-12T10:59:10.014Z</time></trkpt><trkpt lat="44.0454726" lon="12.0688002"><ele>367.0</ele><time>2026-04-12T10:59:11.013Z</time></trkpt><trkpt lat="44.0455387" lon="12.0688827"><ele>367.0</ele><time>2026-04-12T10:59:12.015Z</time></trkpt><trkpt lat="44.0456316" lon="12.0689225"><ele>367.0</ele><time>2026-04-12T10:59:13.014Z</time></trkpt><trkpt lat="44.0457419" lon="12.0689311"><ele>367.0</ele><time>2026-04-12T10:59:14.013Z</time></trkpt><trkpt lat="44.0458568" lon="12.0689191"><ele>367.0</ele><time>2026-04-12T10:59:15.013Z</time></trkpt><trkpt lat="44.0459655" lon="12.0688826"><ele>367.0</ele><time>2026-04-12T10:59:16.012Z</time></trkpt><trkpt lat="44.0460636" lon="12.0688433"><ele>367.0</ele><time>2026-04-12T10:59:17.013Z</time></trkpt><trkpt lat="44.046139" lon="12.0687677"><ele>367.0</ele><time>2026-04-12T10:59:18.012Z</time></trkpt><trkpt lat="44.0461848" lon="12.0686549"><ele>367.0</ele><time>2026-04-12T10:59:19.014Z</time></trkpt><trkpt lat="44.0462182" lon="12.068525"><ele>367.0</ele><time>2026-04-12T10:59:20.016Z</time></trkpt><trkpt lat="44.0462637" lon="12.06843"><ele>367.0</ele><time>2026-04-12T10:59:21.012Z</time></trkpt><trkpt lat="44.0463191" lon="12.0683674"><ele>367.0</ele><time>2026-04-12T10:59:22.013Z</time></trkpt><trkpt lat="44.0463831" lon="12.0683358"><ele>367.0</ele><time>2026-04-12T10:59:23.013Z</time></trkpt><trkpt lat="44.0464168" lon="12.0684152"><ele>367.0</ele><time>2026-04-12T10:59:24.014Z</time></trkpt><trkpt lat="44.0464616" lon="12.0684936"><ele>367.0</ele><time>2026-04-12T10:59:25.013Z</time></trkpt><trkpt lat="44.0464641" lon="12.0685921"><ele>367.0</ele><time>2026-04-12T10:59:26.015Z</time></trkpt><trkpt lat="44.0464555" lon="12.0687008"><ele>367.0</ele><time>2026-04-12T10:59:27.014Z</time></trkpt><trkpt lat="44.0464414" lon="12.0687911"><ele>367.0</ele><time>2026-04-12T10:59:28.014Z</time></trkpt><trkpt lat="44.0464037" lon="12.0688795"><ele>367.0</ele><time>2026-04-12T10:59:29.018Z</time></trkpt><trkpt lat="44.0463386" lon="12.0689563"><ele>367.0</ele><time>2026-04-12T10:59:30.018Z</time></trkpt><trkpt lat="44.0462289" lon="12.0690149"><ele>367.0</ele><time>2026-04-12T10:59:31.014Z</time></trkpt><trkpt lat="44.0461262" lon="12.0690642"><ele>367.0</ele><time>2026-04-12T10:59:32.014Z</time></trkpt><trkpt lat="44.0460436" lon="12.0691093"><ele>363.6</ele><time>2026-04-12T10:59:33.013Z</time></trkpt><trkpt lat="44.046013" lon="12.069231"><ele>360.20000000000005</ele><time>2026-04-12T10:59:35.011Z</time></trkpt><trkpt lat="44.0460886" lon="12.0693351"><ele>356.8</ele><time>2026-04-12T10:59:37.012Z</time></trkpt><trkpt lat="44.0461577" lon="12.0693615"><ele>353.4</ele><time>2026-04-12T10:59:38.012Z</time></trkpt><trkpt lat="44.0462475" lon="12.0693827"><ele>350.0</ele><time>2026-04-12T10:59:39.013Z</time></trkpt><trkpt lat="44.0463748" lon="12.0694151"><ele>350.0</ele><time>2026-04-12T10:59:40.013Z</time></trkpt><trkpt lat="44.0465286" lon="12.0694654"><ele>350.0</ele><time>2026-04-12T10:59:41.012Z</time></trkpt><trkpt lat="44.0466779" lon="12.0695546"><ele>350.0</ele><time>2026-04-12T10:59:42.014Z</time></trkpt><trkpt lat="44.0468181" lon="12.0696667"><ele>345.33333333333337</ele><time>2026-04-12T10:59:43.015Z</time></trkpt><trkpt lat="44.0469459" lon="12.0698037"><ele>340.6666666666667</ele><time>2026-04-12T10:59:44.012Z</time></trkpt><trkpt lat="44.0470661" lon="12.0699604"><ele>336.0</ele><time>2026-04-12T10:59:45.011Z</time></trkpt><trkpt lat="44.0471797" lon="12.0701147"><ele>333.0</ele><time>2026-04-12T10:59:46.015Z</time></trkpt><trkpt lat="44.0472785" lon="12.0702599"><ele>330.0</ele><time>2026-04-12T10:59:47.011Z</time></trkpt><trkpt lat="44.0473547" lon="12.0703914"><ele>327.0</ele><time>2026-04-12T10:59:48.012Z</time></trkpt><trkpt lat="44.0474218" lon="12.0705042"><ele>324.0</ele><time>2026-04-12T10:59:49.011Z</time></trkpt><trkpt lat="44.0474981" lon="12.0705851"><ele>323.6666666666667</ele><time>2026-04-12T10:59:50.011Z</time></trkpt><trkpt lat="44.0475868" lon="12.0706226"><ele>323.3333333333333</ele><time>2026-04-12T10:59:51.014Z</time></trkpt><trkpt lat="44.0476811" lon="12.0706066"><ele>323.0</ele><time>2026-04-12T10:59:52.013Z</time></trkpt><trkpt lat="44.0477675" lon="12.0705943"><ele>322.66666666666663</ele><time>2026-04-12T10:59:53.012Z</time></trkpt><trkpt lat="44.0478388" lon="12.0706245"><ele>322.3333333333333</ele><time>2026-04-12T10:59:54.012Z</time></trkpt><trkpt lat="44.0478962" lon="12.0706655"><ele>322.0</ele><time>2026-04-12T10:59:55.016Z</time></trkpt><trkpt lat="44.0479639" lon="12.0707913"><ele>320.8</ele><time>2026-04-12T10:59:57.015Z</time></trkpt><trkpt lat="44.0479492" lon="12.0709679"><ele>319.6</ele><time>2026-04-12T10:59:59.011Z</time></trkpt><trkpt lat="44.047888" lon="12.0710833"><ele>318.40000000000003</ele><time>2026-04-12T11:00:00.017Z</time></trkpt><trkpt lat="44.047819" lon="12.071181"><ele>317.20000000000005</ele><time>2026-04-12T11:00:01.012Z</time></trkpt><trkpt lat="44.0477326" lon="12.0712468"><ele>316.0</ele><time>2026-04-12T11:00:02.012Z</time></trkpt><trkpt lat="44.0476484" lon="12.0713048"><ele>316.0</ele><time>2026-04-12T11:00:03.012Z</time></trkpt><trkpt lat="44.0475925" lon="12.0713786"><ele>316.0</ele><time>2026-04-12T11:00:04.011Z</time></trkpt><trkpt lat="44.0475638" lon="12.0714742"><ele>316.0</ele><time>2026-04-12T11:00:05.011Z</time></trkpt><trkpt lat="44.0475705" lon="12.0715701"><ele>316.0</ele><time>2026-04-12T11:00:06.012Z</time></trkpt><trkpt lat="44.0476127" lon="12.0716766"><ele>316.0</ele><time>2026-04-12T11:00:07.015Z</time></trkpt><trkpt lat="44.0476848" lon="12.0717702"><ele>316.0</ele><time>2026-04-12T11:00:08.013Z</time></trkpt><trkpt lat="44.0477707" lon="12.0718492"><ele>313.8</ele><time>2026-04-12T11:00:09.013Z</time></trkpt><trkpt lat="44.0478453" lon="12.0719231"><ele>311.6</ele><time>2026-04-12T11:00:10.012Z</time></trkpt><trkpt lat="44.0479181" lon="12.0719667"><ele>309.4</ele><time>2026-04-12T11:00:11.012Z</time></trkpt><trkpt lat="44.0480033" lon="12.0719487"><ele>307.2</ele><time>2026-04-12T11:00:12.013Z</time></trkpt><trkpt lat="44.0480944" lon="12.0717956"><ele>305.0</ele><time>2026-04-12T11:00:13.019Z</time></trkpt><trkpt lat="44.0481789" lon="12.0716356"><ele>303.8</ele><time>2026-04-12T11:00:14.012Z</time></trkpt><trkpt lat="44.0482571" lon="12.0715041"><ele>302.6</ele><time>2026-04-12T11:00:15.013Z</time></trkpt><trkpt lat="44.0483175" lon="12.0713868"><ele>301.4</ele><time>2026-04-12T11:00:16.013Z</time></trkpt><trkpt lat="44.0483712" lon="12.0713103"><ele>300.2</ele><time>2026-04-12T11:00:17.012Z</time></trkpt><trkpt lat="44.0484876" lon="12.0712747"><ele>299.0</ele><time>2026-04-12T11:00:19.015Z</time></trkpt><trkpt lat="44.0485795" lon="12.0713581"><ele>299.0</ele><time>2026-04-12T11:00:21.011Z</time></trkpt><trkpt lat="44.0485655" lon="12.071515"><ele>299.0</ele><time>2026-04-12T11:00:22.013Z</time></trkpt><trkpt lat="44.0485459" lon="12.071697"><ele>299.0</ele><time>2026-04-12T11:00:23.011Z</time></trkpt><trkpt lat="44.0485583" lon="12.0718882"><ele>299.0</ele><time>2026-04-12T11:00:24.012Z</time></trkpt><trkpt lat="44.0485688" lon="12.0720794"><ele>297.8</ele><time>2026-04-12T11:00:25.013Z</time></trkpt><trkpt lat="44.0485763" lon="12.0722515"><ele>296.59999999999997</ele><time>2026-04-12T11:00:26.012Z</time></trkpt><trkpt lat="44.0485856" lon="12.0724058"><ele>295.4</ele><time>2026-04-12T11:00:27.014Z</time></trkpt><trkpt lat="44.0485749" lon="12.0725293"><ele>294.2</ele><time>2026-04-12T11:00:28.013Z</time></trkpt><trkpt lat="44.0485237" lon="12.0726352"><ele>293.0</ele><time>2026-04-12T11:00:29.016Z</time></trkpt><trkpt lat="44.048462" lon="12.0727246"><ele>291.5</ele><time>2026-04-12T11:00:30.012Z</time></trkpt><trkpt lat="44.0483699" lon="12.0727868"><ele>290.0</ele><time>2026-04-12T11:00:31.012Z</time></trkpt><trkpt lat="44.0482445" lon="12.0728449"><ele>288.5</ele><time>2026-04-12T11:00:32.012Z</time></trkpt><trkpt lat="44.0481097" lon="12.0729048"><ele>287.0</ele><time>2026-04-12T11:00:33.012Z</time></trkpt><trkpt lat="44.0479764" lon="12.072946"><ele>287.0</ele><time>2026-04-12T11:00:34.011Z</time></trkpt><trkpt lat="44.047853" lon="12.0729524"><ele>287.0</ele><time>2026-04-12T11:00:35.014Z</time></trkpt><trkpt lat="44.0477494" lon="12.0729397"><ele>287.0</ele><time>2026-04-12T11:00:36.013Z</time></trkpt><trkpt lat="44.0476653" lon="12.0729437"><ele>287.0</ele><time>2026-04-12T11:00:37.012Z</time></trkpt><trkpt lat="44.0475904" lon="12.0729736"><ele>287.0</ele><time>2026-04-12T11:00:38.012Z</time></trkpt><trkpt lat="44.0475224" lon="12.0730215"><ele>287.0</ele><time>2026-04-12T11:00:39.013Z</time></trkpt><trkpt lat="44.0474736" lon="12.0730927"><ele>287.0</ele><time>2026-04-12T11:00:40.012Z</time></trkpt><trkpt lat="44.0474956" lon="12.0731826"><ele>287.0</ele><time>2026-04-12T11:00:41.014Z</time></trkpt><trkpt lat="44.0475501" lon="12.0732745"><ele>287.0</ele><time>2026-04-12T11:00:42.013Z</time></trkpt><trkpt lat="44.0476517" lon="12.0733605"><ele>287.0</ele><time>2026-04-12T11:00:43.015Z</time></trkpt><trkpt lat="44.0477682" lon="12.0734437"><ele>281.6666666666667</ele><time>2026-04-12T11:00:44.012Z</time></trkpt><trkpt lat="44.0478982" lon="12.0735134"><ele>276.3333333333333</ele><time>2026-04-12T11:00:45.012Z</time></trkpt><trkpt lat="44.0480611" lon="12.0735177"><ele>271.0</ele><time>2026-04-12T11:00:46.012Z</time></trkpt><trkpt lat="44.0482322" lon="12.0735125"><ele>271.0</ele><time>2026-04-12T11:00:47.011Z</time></trkpt><trkpt lat="44.0484099" lon="12.0735206"><ele>271.0</ele><time>2026-04-12T11:00:48.012Z</time></trkpt><trkpt lat="44.0485782" lon="12.0735485"><ele>271.0</ele><time>2026-04-12T11:00:49.011Z</time></trkpt><trkpt lat="44.0487361" lon="12.0735922"><ele>271.0</ele><time>2026-04-12T11:00:50.013Z</time></trkpt><trkpt lat="44.0488846" lon="12.0736577"><ele>271.0</ele><time>2026-04-12T11:00:51.013Z</time></trkpt><trkpt lat="44.0490241" lon="12.073733"><ele>271.0</ele><time>2026-04-12T11:00:52.013Z</time></trkpt><trkpt lat="44.049157" lon="12.0738141"><ele>269.5</ele><time>2026-04-12T11:00:53.012Z</time></trkpt><trkpt lat="44.0492816" lon="12.0738917"><ele>268.0</ele><time>2026-04-12T11:00:54.011Z</time></trkpt><trkpt lat="44.0493943" lon="12.0739574"><ele>266.5</ele><time>2026-04-12T11:00:55.012Z</time></trkpt><trkpt lat="44.0494965" lon="12.0739944"><ele>265.0</ele><time>2026-04-12T11:00:56.013Z</time></trkpt><trkpt lat="44.0495936" lon="12.0739738"><ele>265.0</ele><time>2026-04-12T11:00:57.011Z</time></trkpt><trkpt lat="44.0496827" lon="12.0738969"><ele>265.0</ele><time>2026-04-12T11:00:58.015Z</time></trkpt><trkpt lat="44.0497624" lon="12.0737814"><ele>265.0</ele><time>2026-04-12T11:00:59.012Z</time></trkpt><trkpt lat="44.0498357" lon="12.0736767"><ele>265.0</ele><time>2026-04-12T11:01:00.013Z</time></trkpt><trkpt lat="44.0499051" lon="12.0735948"><ele>265.0</ele><time>2026-04-12T11:01:01.015Z</time></trkpt><trkpt lat="44.0499799" lon="12.0735516"><ele>262.2</ele><time>2026-04-12T11:01:02.014Z</time></trkpt><trkpt lat="44.0500625" lon="12.0735471"><ele>259.4</ele><time>2026-04-12T11:01:03.013Z</time></trkpt><trkpt lat="44.0501426" lon="12.073579"><ele>256.6</ele><time>2026-04-12T11:01:04.011Z</time></trkpt><trkpt lat="44.0502081" lon="12.0736659"><ele>253.8</ele><time>2026-04-12T11:01:05.012Z</time></trkpt><trkpt lat="44.0502536" lon="12.0737932"><ele>251.0</ele><time>2026-04-12T11:01:06.011Z</time></trkpt><trkpt lat="44.0502503" lon="12.0739874"><ele>249.5</ele><time>2026-04-12T11:01:07.014Z</time></trkpt><trkpt lat="44.0502207" lon="12.0741909"><ele>248.0</ele><time>2026-04-12T11:01:08.011Z</time></trkpt><trkpt lat="44.0501853" lon="12.0743957"><ele>246.5</ele><time>2026-04-12T11:01:09.014Z</time></trkpt><trkpt lat="44.0501369" lon="12.0745899"><ele>245.0</ele><time>2026-04-12T11:01:10.011Z</time></trkpt><trkpt lat="44.0500934" lon="12.0747735"><ele>243.25</ele><time>2026-04-12T11:01:11.013Z</time></trkpt><trkpt lat="44.0500646" lon="12.0749611"><ele>241.5</ele><time>2026-04-12T11:01:12.012Z</time></trkpt><trkpt lat="44.0500435" lon="12.0751515"><ele>239.75</ele><time>2026-04-12T11:01:13.012Z</time></trkpt><trkpt lat="44.0500387" lon="12.0753463"><ele>238.0</ele><time>2026-04-12T11:01:14.012Z</time></trkpt><trkpt lat="44.0500559" lon="12.075544"><ele>238.0</ele><time>2026-04-12T11:01:15.014Z</time></trkpt><trkpt lat="44.0500906" lon="12.0757395"><ele>238.0</ele><time>2026-04-12T11:01:16.011Z</time></trkpt><trkpt lat="44.0501389" lon="12.0759329"><ele>238.0</ele><time>2026-04-12T11:01:17.013Z</time></trkpt><trkpt lat="44.0501957" lon="12.0761268"><ele>238.0</ele><time>2026-04-12T11:01:18.012Z</time></trkpt><trkpt lat="44.0502501" lon="12.0763215"><ele>235.75</ele><time>2026-04-12T11:01:19.016Z</time></trkpt><trkpt lat="44.0503022" lon="12.0765159"><ele>233.5</ele><time>2026-04-12T11:01:20.011Z</time></trkpt><trkpt lat="44.0503516" lon="12.0766945"><ele>231.25</ele><time>2026-04-12T11:01:21.015Z</time></trkpt><trkpt lat="44.0503983" lon="12.0768461"><ele>229.0</ele><time>2026-04-12T11:01:22.013Z</time></trkpt><trkpt lat="44.0504594" lon="12.0769667"><ele>227.0</ele><time>2026-04-12T11:01:23.013Z</time></trkpt><trkpt lat="44.0505328" lon="12.0770507"><ele>224.99999999999997</ele><time>2026-04-12T11:01:24.013Z</time></trkpt><trkpt lat="44.0506167" lon="12.0771021"><ele>222.99999999999997</ele><time>2026-04-12T11:01:25.015Z</time></trkpt><trkpt lat="44.0507035" lon="12.0771106"><ele>221.0</ele><time>2026-04-12T11:01:26.012Z</time></trkpt><trkpt lat="44.0507963" lon="12.0770716"><ele>219.0</ele><time>2026-04-12T11:01:27.016Z</time></trkpt><trkpt lat="44.0508983" lon="12.0769735"><ele>218.75</ele><time>2026-04-12T11:01:28.013Z</time></trkpt><trkpt lat="44.0510042" lon="12.0768439"><ele>218.5</ele><time>2026-04-12T11:01:29.013Z</time></trkpt><trkpt lat="44.0511054" lon="12.0767159"><ele>218.25</ele><time>2026-04-12T11:01:30.014Z</time></trkpt><trkpt lat="44.0511956" lon="12.0765929"><ele>218.0</ele><time>2026-04-12T11:01:31.014Z</time></trkpt><trkpt lat="44.0512807" lon="12.0764869"><ele>218.33333333333334</ele><time>2026-04-12T11:01:32.013Z</time></trkpt><trkpt lat="44.0513596" lon="12.0764023"><ele>218.66666666666669</ele><time>2026-04-12T11:01:33.015Z</time></trkpt><trkpt lat="44.0514399" lon="12.076369"><ele>219.0</ele><time>2026-04-12T11:01:34.014Z</time></trkpt><trkpt lat="44.0515231" lon="12.0763759"><ele>219.33333333333331</ele><time>2026-04-12T11:01:35.012Z</time></trkpt><trkpt lat="44.0516" lon="12.0764185"><ele>219.66666666666666</ele><time>2026-04-12T11:01:36.013Z</time></trkpt><trkpt lat="44.0516671" lon="12.076491"><ele>220.0</ele><time>2026-04-12T11:01:37.012Z</time></trkpt><trkpt lat="44.051709" lon="12.0766301"><ele>213.33333333333331</ele><time>2026-04-12T11:01:38.015Z</time></trkpt><trkpt lat="44.0517122" lon="12.0768524"><ele>206.66666666666669</ele><time>2026-04-12T11:01:39.014Z</time></trkpt><trkpt lat="44.0516878" lon="12.0771264"><ele>200.0</ele><time>2026-04-12T11:01:40.014Z</time></trkpt><trkpt lat="44.0516624" lon="12.0773887"><ele>199.66666666666669</ele><time>2026-04-12T11:01:41.014Z</time></trkpt><trkpt lat="44.0516445" lon="12.0776364"><ele>199.33333333333331</ele><time>2026-04-12T11:01:42.013Z</time></trkpt><trkpt lat="44.051636" lon="12.0778583"><ele>199.0</ele><time>2026-04-12T11:01:43.016Z</time></trkpt><trkpt lat="44.0516245" lon="12.0780505"><ele>198.39999999999998</ele><time>2026-04-12T11:01:44.013Z</time></trkpt><trkpt lat="44.0515991" lon="12.0782122"><ele>197.8</ele><time>2026-04-12T11:01:45.014Z</time></trkpt><trkpt lat="44.0515617" lon="12.0783513"><ele>197.2</ele><time>2026-04-12T11:01:46.012Z</time></trkpt><trkpt lat="44.0514997" lon="12.078459"><ele>196.60000000000002</ele><time>2026-04-12T11:01:47.012Z</time></trkpt><trkpt lat="44.0514278" lon="12.0785393"><ele>196.0</ele><time>2026-04-12T11:01:48.015Z</time></trkpt><trkpt lat="44.0513862" lon="12.0786247"><ele>196.0</ele><time>2026-04-12T11:01:49.013Z</time></trkpt><trkpt lat="44.0513825" lon="12.0787213"><ele>196.0</ele><time>2026-04-12T11:01:50.015Z</time></trkpt><trkpt lat="44.0513923" lon="12.0788082"><ele>196.0</ele><time>2026-04-12T11:01:51.013Z</time></trkpt><trkpt lat="44.0514972" lon="12.0789023"><ele>196.0</ele><time>2026-04-12T11:01:53.013Z</time></trkpt><trkpt lat="44.0516218" lon="12.0788001"><ele>196.0</ele><time>2026-04-12T11:01:54.012Z</time></trkpt><trkpt lat="44.0517275" lon="12.0786575"><ele>194.60000000000002</ele><time>2026-04-12T11:01:55.014Z</time></trkpt><trkpt lat="44.0518273" lon="12.078538"><ele>193.2</ele><time>2026-04-12T11:01:56.012Z</time></trkpt><trkpt lat="44.0519173" lon="12.0784598"><ele>191.8</ele><time>2026-04-12T11:01:57.015Z</time></trkpt><trkpt lat="44.052002" lon="12.0784313"><ele>190.39999999999998</ele><time>2026-04-12T11:01:58.013Z</time></trkpt><trkpt lat="44.0520774" lon="12.0784555"><ele>189.0</ele><time>2026-04-12T11:01:59.012Z</time></trkpt><trkpt lat="44.0521362" lon="12.0785145"><ele>189.0</ele><time>2026-04-12T11:02:00.015Z</time></trkpt><trkpt lat="44.0521369" lon="12.0786346"><ele>189.0</ele><time>2026-04-12T11:02:01.013Z</time></trkpt><trkpt lat="44.0521218" lon="12.0787608"><ele>189.0</ele><time>2026-04-12T11:02:02.013Z</time></trkpt><trkpt lat="44.0520905" lon="12.0788994"><ele>189.0</ele><time>2026-04-12T11:02:03.013Z</time></trkpt><trkpt lat="44.0520286" lon="12.0790602"><ele>189.0</ele><time>2026-04-12T11:02:04.016Z</time></trkpt><trkpt lat="44.0519598" lon="12.0792234"><ele>186.25</ele><time>2026-04-12T11:02:05.013Z</time></trkpt><trkpt lat="44.051907" lon="12.0793759"><ele>183.5</ele><time>2026-04-12T11:02:06.013Z</time></trkpt><trkpt lat="44.0518889" lon="12.0795264"><ele>180.75</ele><time>2026-04-12T11:02:07.014Z</time></trkpt><trkpt lat="44.0519132" lon="12.0796678"><ele>178.0</ele><time>2026-04-12T11:02:08.015Z</time></trkpt><trkpt lat="44.0519821" lon="12.0798004"><ele>178.0</ele><time>2026-04-12T11:02:09.014Z</time></trkpt><trkpt lat="44.0520603" lon="12.079924"><ele>178.0</ele><time>2026-04-12T11:02:10.013Z</time></trkpt><trkpt lat="44.0521489" lon="12.0800119"><ele>178.0</ele><time>2026-04-12T11:02:11.014Z</time></trkpt><trkpt lat="44.0522377" lon="12.0800547"><ele>178.0</ele><time>2026-04-12T11:02:12.015Z</time></trkpt><trkpt lat="44.0523222" lon="12.0800602"><ele>178.0</ele><time>2026-04-12T11:02:13.015Z</time></trkpt><trkpt lat="44.0523976" lon="12.0800304"><ele>175.66666666666669</ele><time>2026-04-12T11:02:14.014Z</time></trkpt><trkpt lat="44.0524464" lon="12.0799502"><ele>173.33333333333334</ele><time>2026-04-12T11:02:15.019Z</time></trkpt><trkpt lat="44.0524689" lon="12.0798241"><ele>171.0</ele><time>2026-04-12T11:02:16.014Z</time></trkpt><trkpt lat="44.0524989" lon="12.0797162"><ele>168.66666666666666</ele><time>2026-04-12T11:02:17.013Z</time></trkpt><trkpt lat="44.0525448" lon="12.0796402"><ele>166.33333333333331</ele><time>2026-04-12T11:02:18.013Z</time></trkpt><trkpt lat="44.0526061" lon="12.0796045"><ele>164.0</ele><time>2026-04-12T11:02:19.013Z</time></trkpt><trkpt lat="44.0526672" lon="12.0796531"><ele>164.0</ele><time>2026-04-12T11:02:20.014Z</time></trkpt><trkpt lat="44.0527059" lon="12.0797748"><ele>164.0</ele><time>2026-04-12T11:02:21.015Z</time></trkpt><trkpt lat="44.0527146" lon="12.0799331"><ele>164.0</ele><time>2026-04-12T11:02:22.013Z</time></trkpt><trkpt lat="44.0527058" lon="12.080094"><ele>164.0</ele><time>2026-04-12T11:02:23.012Z</time></trkpt><trkpt lat="44.0526928" lon="12.0802385"><ele>164.0</ele><time>2026-04-12T11:02:24.013Z</time></trkpt><trkpt lat="44.0526537" lon="12.0803791"><ele>162.5</ele><time>2026-04-12T11:02:25.013Z</time></trkpt><trkpt lat="44.0525746" lon="12.0805164"><ele>161.0</ele><time>2026-04-12T11:02:26.013Z</time></trkpt><trkpt lat="44.0524736" lon="12.0806467"><ele>159.5</ele><time>2026-04-12T11:02:27.013Z</time></trkpt><trkpt lat="44.0523743" lon="12.0807711"><ele>158.0</ele><time>2026-04-12T11:02:28.013Z</time></trkpt><trkpt lat="44.0522803" lon="12.0808861"><ele>154.75</ele><time>2026-04-12T11:02:29.013Z</time></trkpt><trkpt lat="44.0521634" lon="12.080954"><ele>151.5</ele><time>2026-04-12T11:02:30.013Z</time></trkpt><trkpt lat="44.052042" lon="12.0809652"><ele>148.25</ele><time>2026-04-12T11:02:31.014Z</time></trkpt><trkpt lat="44.0519341" lon="12.0809346"><ele>145.0</ele><time>2026-04-12T11:02:32.013Z</time></trkpt><trkpt lat="44.0518475" lon="12.0808743"><ele>145.0</ele><time>2026-04-12T11:02:33.014Z</time></trkpt><trkpt lat="44.0517726" lon="12.0808426"><ele>145.0</ele><time>2026-04-12T11:02:34.012Z</time></trkpt><trkpt lat="44.0516986" lon="12.0808478"><ele>145.0</ele><time>2026-04-12T11:02:35.013Z</time></trkpt><trkpt lat="44.0516313" lon="12.0808671"><ele>145.0</ele><time>2026-04-12T11:02:36.012Z</time></trkpt><trkpt lat="44.0515992" lon="12.0810116"><ele>145.0</ele><time>2026-04-12T11:02:38.013Z</time></trkpt><trkpt lat="44.0516435" lon="12.0811069"><ele>145.0</ele><time>2026-04-12T11:02:39.012Z</time></trkpt><trkpt lat="44.0517159" lon="12.0812043"><ele>145.0</ele><time>2026-04-12T11:02:40.014Z</time></trkpt><trkpt lat="44.0517595" lon="12.0813095"><ele>145.0</ele><time>2026-04-12T11:02:41.013Z</time></trkpt><trkpt lat="44.0517095" lon="12.0814369"><ele>145.0</ele><time>2026-04-12T11:02:43.015Z</time></trkpt><trkpt lat="44.0515893" lon="12.0814032"><ele>145.0</ele><time>2026-04-12T11:02:45.013Z</time></trkpt><trkpt lat="44.0515314" lon="12.0813129"><ele>145.0</ele><time>2026-04-12T11:02:46.012Z</time></trkpt><trkpt lat="44.0514664" lon="12.0812572"><ele>143.66666666666669</ele><time>2026-04-12T11:02:47.014Z</time></trkpt><trkpt lat="44.0514009" lon="12.0812322"><ele>142.33333333333334</ele><time>2026-04-12T11:02:48.014Z</time></trkpt><trkpt lat="44.0513355" lon="12.0812448"><ele>141.0</ele><time>2026-04-12T11:02:49.017Z</time></trkpt><trkpt lat="44.0513008" lon="12.0813313"><ele>139.66666666666666</ele><time>2026-04-12T11:02:50.012Z</time></trkpt><trkpt lat="44.0513243" lon="12.0814829"><ele>138.33333333333331</ele><time>2026-04-12T11:02:51.014Z</time></trkpt><trkpt lat="44.0513494" lon="12.0816265"><ele>137.0</ele><time>2026-04-12T11:02:52.012Z</time></trkpt><trkpt lat="44.0513607" lon="12.0817563"><ele>134.75</ele><time>2026-04-12T11:02:53.013Z</time></trkpt><trkpt lat="44.0513902" lon="12.0818785"><ele>132.5</ele><time>2026-04-12T11:02:54.013Z</time></trkpt><trkpt lat="44.0514735" lon="12.0819759"><ele>130.25</ele><time>2026-04-12T11:02:55.013Z</time></trkpt><trkpt lat="44.05159" lon="12.0820485"><ele>128.0</ele><time>2026-04-12T11:02:56.015Z</time></trkpt><trkpt lat="44.0517318" lon="12.0821154"><ele>128.0</ele><time>2026-04-12T11:02:57.013Z</time></trkpt><trkpt lat="44.0518894" lon="12.0822024"><ele>128.0</ele><time>2026-04-12T11:02:58.013Z</time></trkpt><trkpt lat="44.052039" lon="12.082305"><ele>128.0</ele><time>2026-04-12T11:02:59.012Z</time></trkpt><trkpt lat="44.0521799" lon="12.0824223"><ele>127.66666666666666</ele><time>2026-04-12T11:03:00.014Z</time></trkpt><trkpt lat="44.0523006" lon="12.0825568"><ele>127.33333333333334</ele><time>2026-04-12T11:03:01.013Z</time></trkpt><trkpt lat="44.0524001" lon="12.0827082"><ele>127.0</ele><time>2026-04-12T11:03:02.012Z</time></trkpt><trkpt lat="44.0524815" lon="12.082883"><ele>127.0</ele><time>2026-04-12T11:03:03.014Z</time></trkpt><trkpt lat="44.0525459" lon="12.0830894"><ele>127.0</ele><time>2026-04-12T11:03:04.012Z</time></trkpt><trkpt lat="44.0526091" lon="12.0833094"><ele>127.0</ele><time>2026-04-12T11:03:05.012Z</time></trkpt><trkpt lat="44.0526763" lon="12.0835269"><ele>127.0</ele><time>2026-04-12T11:03:06.013Z</time></trkpt><trkpt lat="44.0527557" lon="12.0837393"><ele>127.0</ele><time>2026-04-12T11:03:07.014Z</time></trkpt><trkpt lat="44.0528389" lon="12.0839503"><ele>127.0</ele><time>2026-04-12T11:03:08.014Z</time></trkpt><trkpt lat="44.0529482" lon="12.0841392"><ele>129.0</ele><time>2026-04-12T11:03:09.014Z</time></trkpt><trkpt lat="44.0530593" lon="12.0843212"><ele>131.0</ele><time>2026-04-12T11:03:10.014Z</time></trkpt><trkpt lat="44.0531567" lon="12.0845089"><ele>133.0</ele><time>2026-04-12T11:03:11.013Z</time></trkpt><trkpt lat="44.0532448" lon="12.0846864"><ele>133.20000000000002</ele><time>2026-04-12T11:03:12.013Z</time></trkpt><trkpt lat="44.0533202" lon="12.0848473"><ele>133.4</ele><time>2026-04-12T11:03:13.013Z</time></trkpt><trkpt lat="44.0534005" lon="12.084977"><ele>133.60000000000002</ele><time>2026-04-12T11:03:14.014Z</time></trkpt><trkpt lat="44.0534635" lon="12.0850854"><ele>133.8</ele><time>2026-04-12T11:03:15.014Z</time></trkpt><trkpt lat="44.0535199" lon="12.0851698"><ele>134.0</ele><time>2026-04-12T11:03:16.012Z</time></trkpt><trkpt lat="44.053561" lon="12.0852397"><ele>134.0</ele><time>2026-04-12T11:03:17.013Z</time></trkpt><trkpt lat="44.0535814" lon="12.0853434"><ele>134.0</ele><time>2026-04-12T11:03:19.015Z</time></trkpt><trkpt lat="44.0535462" lon="12.0854571"><ele>134.0</ele><time>2026-04-12T11:03:22.013Z</time></trkpt><trkpt lat="44.0535409" lon="12.0855562"><ele>134.0</ele><time>2026-04-12T11:03:23.015Z</time></trkpt><trkpt lat="44.0535381" lon="12.0856789"><ele>134.0</ele><time>2026-04-12T11:03:24.012Z</time></trkpt><trkpt lat="44.0535411" lon="12.0858313"><ele>134.0</ele><time>2026-04-12T11:03:25.015Z</time></trkpt><trkpt lat="44.053567" lon="12.0860007"><ele>135.5</ele><time>2026-04-12T11:03:26.013Z</time></trkpt><trkpt lat="44.0536029" lon="12.0861889"><ele>137.0</ele><time>2026-04-12T11:03:27.013Z</time></trkpt><trkpt lat="44.053671" lon="12.0863532"><ele>138.5</ele><time>2026-04-12T11:03:28.012Z</time></trkpt><trkpt lat="44.053759" lon="12.0864932"><ele>140.0</ele><time>2026-04-12T11:03:29.012Z</time></trkpt><trkpt lat="44.053841" lon="12.0866189"><ele>140.25</ele><time>2026-04-12T11:03:30.013Z</time></trkpt><trkpt lat="44.0539024" lon="12.0867481"><ele>140.5</ele><time>2026-04-12T11:03:31.012Z</time></trkpt><trkpt lat="44.0539234" lon="12.0868991"><ele>140.75</ele><time>2026-04-12T11:03:32.014Z</time></trkpt><trkpt lat="44.0539189" lon="12.0870699"><ele>141.0</ele><time>2026-04-12T11:03:33.013Z</time></trkpt><trkpt lat="44.0539068" lon="12.0872598"><ele>141.5</ele><time>2026-04-12T11:03:34.014Z</time></trkpt><trkpt lat="44.053887" lon="12.0874564"><ele>142.0</ele><time>2026-04-12T11:03:35.013Z</time></trkpt><trkpt lat="44.0538702" lon="12.0876429"><ele>142.5</ele><time>2026-04-12T11:03:36.013Z</time></trkpt><trkpt lat="44.0538705" lon="12.0878149"><ele>143.0</ele><time>2026-04-12T11:03:37.013Z</time></trkpt><trkpt lat="44.053901" lon="12.0879697"><ele>143.0</ele><time>2026-04-12T11:03:38.014Z</time></trkpt><trkpt lat="44.0539646" lon="12.0881182"><ele>143.0</ele><time>2026-04-12T11:03:39.018Z</time></trkpt><trkpt lat="44.0540457" lon="12.0882619"><ele>143.0</ele><time>2026-04-12T11:03:40.012Z</time></trkpt><trkpt lat="44.054145" lon="12.08837"><ele>143.0</ele><time>2026-04-12T11:03:41.013Z</time></trkpt><trkpt lat="44.0542367" lon="12.0884417"><ele>139.25</ele><time>2026-04-12T11:03:42.012Z</time></trkpt><trkpt lat="44.0543467" lon="12.0884533"><ele>135.5</ele><time>2026-04-12T11:03:43.012Z</time></trkpt><trkpt lat="44.0544533" lon="12.0884067"><ele>131.75</ele><time>2026-04-12T11:03:44.012Z</time></trkpt><trkpt lat="44.0545517" lon="12.088335"><ele>128.0</ele><time>2026-04-12T11:03:45.013Z</time></trkpt><trkpt lat="44.05466" lon="12.08821"><ele>127.4</ele><time>2026-04-12T11:03:46.012Z</time></trkpt><trkpt lat="44.054765" lon="12.0881033"><ele>126.80000000000001</ele><time>2026-04-12T11:03:47.014Z</time></trkpt><trkpt lat="44.0548667" lon="12.0880233"><ele>126.2</ele><time>2026-04-12T11:03:48.014Z</time></trkpt><trkpt lat="44.0549633" lon="12.0879783"><ele>125.6</ele><time>2026-04-12T11:03:49.013Z</time></trkpt><trkpt lat="44.055055" lon="12.08796"><ele>125.0</ele><time>2026-04-12T11:03:50.014Z</time></trkpt><trkpt lat="44.0551483" lon="12.0879883"><ele>124.5</ele><time>2026-04-12T11:03:51.014Z</time></trkpt><trkpt lat="44.0552617" lon="12.088065"><ele>124.0</ele><time>2026-04-12T11:03:52.012Z</time></trkpt><trkpt lat="44.0553717" lon="12.0881633"><ele>123.5</ele><time>2026-04-12T11:03:53.012Z</time></trkpt><trkpt lat="44.0554833" lon="12.0882533"><ele>123.0</ele><time>2026-04-12T11:03:54.013Z</time></trkpt><trkpt lat="44.0555833" lon="12.0883617"><ele>123.0</ele><time>2026-04-12T11:03:55.013Z</time></trkpt><trkpt lat="44.0556783" lon="12.088455"><ele>123.00000000000001</ele><time>2026-04-12T11:03:56.016Z</time></trkpt><trkpt lat="44.05578" lon="12.08849"><ele>123.00000000000001</ele><time>2026-04-12T11:03:57.013Z</time></trkpt><trkpt lat="44.05588" lon="12.0884583"><ele>123.0</ele><time>2026-04-12T11:03:58.013Z</time></trkpt><trkpt lat="44.0559733" lon="12.0884017"><ele>123.0</ele><time>2026-04-12T11:03:59.015Z</time></trkpt><trkpt lat="44.0560483" lon="12.0883533"><ele>122.0</ele><time>2026-04-12T11:04:00.013Z</time></trkpt><trkpt lat="44.05611" lon="12.0883183"><ele>121.00000000000001</ele><time>2026-04-12T11:04:01.013Z</time></trkpt><trkpt lat="44.0561883" lon="12.0882983"><ele>120.00000000000001</ele><time>2026-04-12T11:04:03.013Z</time></trkpt><trkpt lat="44.0562283" lon="12.0884933"><ele>119.0</ele><time>2026-04-12T11:04:17.012Z</time></trkpt><trkpt lat="44.0561833" lon="12.0886567"><ele>118.0</ele><time>2026-04-12T11:04:19.013Z</time></trkpt><trkpt lat="44.0561517" lon="12.088765"><ele>118.0</ele><time>2026-04-12T11:04:20.012Z</time></trkpt><trkpt lat="44.056105" lon="12.0888983"><ele>118.00000000000001</ele><time>2026-04-12T11:04:21.013Z</time></trkpt><trkpt lat="44.0560567" lon="12.089025"><ele>118.00000000000001</ele><time>2026-04-12T11:04:22.015Z</time></trkpt><trkpt lat="44.05601" lon="12.089145"><ele>118.0</ele><time>2026-04-12T11:04:23.011Z</time></trkpt><trkpt lat="44.0559617" lon="12.0892717"><ele>118.0</ele><time>2026-04-12T11:04:24.012Z</time></trkpt><trkpt lat="44.0559117" lon="12.0893867"><ele>119.2</ele><time>2026-04-12T11:04:25.014Z</time></trkpt><trkpt lat="44.0558733" lon="12.0895117"><ele>120.4</ele><time>2026-04-12T11:04:26.011Z</time></trkpt><trkpt lat="44.055825" lon="12.089645"><ele>121.60000000000001</ele><time>2026-04-12T11:04:27.013Z</time></trkpt><trkpt lat="44.0557717" lon="12.0897783"><ele>122.80000000000001</ele><time>2026-04-12T11:04:28.017Z</time></trkpt><trkpt lat="44.0557133" lon="12.0899117"><ele>124.0</ele><time>2026-04-12T11:04:29.011Z</time></trkpt><trkpt lat="44.05565" lon="12.090045"><ele>125.80000000000001</ele><time>2026-04-12T11:04:30.012Z</time></trkpt><trkpt lat="44.0555683" lon="12.0901417"><ele>127.60000000000001</ele><time>2026-04-12T11:04:31.011Z</time></trkpt><trkpt lat="44.0554967" lon="12.0902367"><ele>129.4</ele><time>2026-04-12T11:04:32.012Z</time></trkpt><trkpt lat="44.0554033" lon="12.090305"><ele>131.20000000000002</ele><time>2026-04-12T11:04:33.011Z</time></trkpt><trkpt lat="44.05533" lon="12.0903783"><ele>133.0</ele><time>2026-04-12T11:04:34.012Z</time></trkpt><trkpt lat="44.0552717" lon="12.0904583"><ele>133.0</ele><time>2026-04-12T11:04:35.012Z</time></trkpt><trkpt lat="44.0552067" lon="12.0905383"><ele>133.0</ele><time>2026-04-12T11:04:36.012Z</time></trkpt><trkpt lat="44.0551467" lon="12.0906483"><ele>133.0</ele><time>2026-04-12T11:04:37.013Z</time></trkpt><trkpt lat="44.0551117" lon="12.090825"><ele>133.0</ele><time>2026-04-12T11:04:38.012Z</time></trkpt><trkpt lat="44.0550633" lon="12.0909833"><ele>133.0</ele><time>2026-04-12T11:04:39.013Z</time></trkpt><trkpt lat="44.0550133" lon="12.091155"><ele>133.5</ele><time>2026-04-12T11:04:40.012Z</time></trkpt><trkpt lat="44.054905" lon="12.091285"><ele>134.0</ele><time>2026-04-12T11:04:41.012Z</time></trkpt><trkpt lat="44.0548317" lon="12.0914467"><ele>134.5</ele><time>2026-04-12T11:04:42.016Z</time></trkpt><trkpt lat="44.0547667" lon="12.0915767"><ele>135.0</ele><time>2026-04-12T11:04:43.011Z</time></trkpt><trkpt lat="44.0547117" lon="12.0916817"><ele>136.5</ele><time>2026-04-12T11:04:44.014Z</time></trkpt><trkpt lat="44.0546667" lon="12.09176"><ele>138.0</ele><time>2026-04-12T11:04:45.013Z</time></trkpt><trkpt lat="44.0546133" lon="12.09185"><ele>139.5</ele><time>2026-04-12T11:04:47.016Z</time></trkpt><trkpt lat="44.054615" lon="12.0919583"><ele>141.0</ele><time>2026-04-12T11:04:50.014Z</time></trkpt><trkpt lat="44.054695" lon="12.09199"><ele>142.5</ele><time>2026-04-12T11:04:52.012Z</time></trkpt><trkpt lat="44.05481" lon="12.0920083"><ele>144.0</ele><time>2026-04-12T11:04:54.012Z</time></trkpt><trkpt lat="44.0548867" lon="12.0920283"><ele>146.0</ele><time>2026-04-12T11:04:55.012Z</time></trkpt><trkpt lat="44.0549783" lon="12.0920483"><ele>148.0</ele><time>2026-04-12T11:04:56.012Z</time></trkpt><trkpt lat="44.055075" lon="12.0920683"><ele>150.0</ele><time>2026-04-12T11:04:57.014Z</time></trkpt><trkpt lat="44.0551733" lon="12.09208"><ele>152.0</ele><time>2026-04-12T11:04:58.012Z</time></trkpt><trkpt lat="44.055265" lon="12.0920767"><ele>154.0</ele><time>2026-04-12T11:04:59.015Z</time></trkpt><trkpt lat="44.0553483" lon="12.0920583"><ele>154.0</ele><time>2026-04-12T11:05:00.012Z</time></trkpt><trkpt lat="44.0554283" lon="12.0920217"><ele>154.0</ele><time>2026-04-12T11:05:01.012Z</time></trkpt><trkpt lat="44.0555083" lon="12.091965"><ele>154.0</ele><time>2026-04-12T11:05:02.012Z</time></trkpt><trkpt lat="44.0555893" lon="12.0918945"><ele>154.0</ele><time>2026-04-12T11:05:03.014Z</time></trkpt><trkpt lat="44.0556766" lon="12.0918202"><ele>154.0</ele><time>2026-04-12T11:05:04.017Z</time></trkpt><trkpt lat="44.0557692" lon="12.0917428"><ele>157.8</ele><time>2026-04-12T11:05:05.011Z</time></trkpt><trkpt lat="44.0558663" lon="12.0916738"><ele>161.60000000000002</ele><time>2026-04-12T11:05:06.012Z</time></trkpt><trkpt lat="44.0559664" lon="12.0916219"><ele>165.4</ele><time>2026-04-12T11:05:07.012Z</time></trkpt><trkpt lat="44.0560644" lon="12.0915952"><ele>169.20000000000002</ele><time>2026-04-12T11:05:08.012Z</time></trkpt><trkpt lat="44.0561653" lon="12.0915972"><ele>173.0</ele><time>2026-04-12T11:05:09.014Z</time></trkpt><trkpt lat="44.0562699" lon="12.0916229"><ele>173.0</ele><time>2026-04-12T11:05:10.01Z</time></trkpt><trkpt lat="44.0563598" lon="12.0916554"><ele>173.0</ele><time>2026-04-12T11:05:11.012Z</time></trkpt><trkpt lat="44.056428" lon="12.0916861"><ele>173.0</ele><time>2026-04-12T11:05:12.012Z</time></trkpt><trkpt lat="44.0565131" lon="12.0917742"><ele>173.0</ele><time>2026-04-12T11:05:14.012Z</time></trkpt><trkpt lat="44.0565032" lon="12.0918671"><ele>173.0</ele><time>2026-04-12T11:05:15.011Z</time></trkpt><trkpt lat="44.056486" lon="12.0919604"><ele>173.0</ele><time>2026-04-12T11:05:16.011Z</time></trkpt><trkpt lat="44.0564569" lon="12.092069"><ele>173.0</ele><time>2026-04-12T11:05:17.012Z</time></trkpt><trkpt lat="44.0564203" lon="12.0921983"><ele>173.0</ele><time>2026-04-12T11:05:18.014Z</time></trkpt><trkpt lat="44.0563834" lon="12.0923395"><ele>173.0</ele><time>2026-04-12T11:05:19.012Z</time></trkpt><trkpt lat="44.0563458" lon="12.092492"><ele>173.0</ele><time>2026-04-12T11:05:20.011Z</time></trkpt><trkpt lat="44.0563206" lon="12.0926461"><ele>173.0</ele><time>2026-04-12T11:05:21.012Z</time></trkpt><trkpt lat="44.0562895" lon="12.0928135"><ele>175.4</ele><time>2026-04-12T11:05:22.011Z</time></trkpt><trkpt lat="44.0562616" lon="12.0929743"><ele>177.8</ele><time>2026-04-12T11:05:23.013Z</time></trkpt><trkpt lat="44.0562244" lon="12.093127"><ele>180.2</ele><time>2026-04-12T11:05:24.011Z</time></trkpt><trkpt lat="44.0561768" lon="12.0932636"><ele>182.6</ele><time>2026-04-12T11:05:25.015Z</time></trkpt><trkpt lat="44.0561269" lon="12.0933777"><ele>185.0</ele><time>2026-04-12T11:05:26.012Z</time></trkpt><trkpt lat="44.0560819" lon="12.0934769"><ele>186.83333333333331</ele><time>2026-04-12T11:05:27.012Z</time></trkpt><trkpt lat="44.0560453" lon="12.0935749"><ele>188.66666666666666</ele><time>2026-04-12T11:05:28.011Z</time></trkpt><trkpt lat="44.056021" lon="12.093671"><ele>190.5</ele><time>2026-04-12T11:05:29.012Z</time></trkpt><trkpt lat="44.0560073" lon="12.093771"><ele>192.33333333333331</ele><time>2026-04-12T11:05:30.012Z</time></trkpt><trkpt lat="44.0560969" lon="12.0938558"><ele>194.16666666666666</ele><time>2026-04-12T11:05:32.011Z</time></trkpt><trkpt lat="44.0561713" lon="12.093891"><ele>196.0</ele><time>2026-04-12T11:05:33.016Z</time></trkpt><trkpt lat="44.0562641" lon="12.0939309"><ele>196.0</ele><time>2026-04-12T11:05:34.011Z</time></trkpt><trkpt lat="44.0563657" lon="12.0939648"><ele>196.0</ele><time>2026-04-12T11:05:35.012Z</time></trkpt><trkpt lat="44.0564707" lon="12.0939796"><ele>196.0</ele><time>2026-04-12T11:05:36.012Z</time></trkpt><trkpt lat="44.0565713" lon="12.0939719"><ele>196.0</ele><time>2026-04-12T11:05:37.013Z</time></trkpt><trkpt lat="44.0566684" lon="12.0939446"><ele>196.0</ele><time>2026-04-12T11:05:38.011Z</time></trkpt><trkpt lat="44.0567721" lon="12.0939099"><ele>199.5</ele><time>2026-04-12T11:05:39.012Z</time></trkpt><trkpt lat="44.0568799" lon="12.0938742"><ele>203.0</ele><time>2026-04-12T11:05:40.012Z</time></trkpt><trkpt lat="44.0569865" lon="12.0938326"><ele>206.5</ele><time>2026-04-12T11:05:41.011Z</time></trkpt><trkpt lat="44.0570942" lon="12.0937887"><ele>210.0</ele><time>2026-04-12T11:05:42.014Z</time></trkpt><trkpt lat="44.0572065" lon="12.0937394"><ele>210.0</ele><time>2026-04-12T11:05:43.011Z</time></trkpt><trkpt lat="44.0573243" lon="12.093685"><ele>210.0</ele><time>2026-04-12T11:05:44.012Z</time></trkpt><trkpt lat="44.0574448" lon="12.0936307"><ele>210.0</ele><time>2026-04-12T11:05:45.012Z</time></trkpt><trkpt lat="44.0575674" lon="12.0935784"><ele>210.0</ele><time>2026-04-12T11:05:46.013Z</time></trkpt><trkpt lat="44.0576734" lon="12.0935252"><ele>212.66666666666666</ele><time>2026-04-12T11:05:47.012Z</time></trkpt><trkpt lat="44.0577606" lon="12.0934764"><ele>215.33333333333331</ele><time>2026-04-12T11:05:48.012Z</time></trkpt><trkpt lat="44.0578407" lon="12.0934362"><ele>218.0</ele><time>2026-04-12T11:05:49.014Z</time></trkpt><trkpt lat="44.0579139" lon="12.0934158"><ele>220.66666666666666</ele><time>2026-04-12T11:05:50.013Z</time></trkpt><trkpt lat="44.0579835" lon="12.0934195"><ele>223.33333333333331</ele><time>2026-04-12T11:05:51.014Z</time></trkpt><trkpt lat="44.0580529" lon="12.0934462"><ele>226.0</ele><time>2026-04-12T11:05:52.011Z</time></trkpt><trkpt lat="44.058125" lon="12.0934924"><ele>225.99999999999997</ele><time>2026-04-12T11:05:53.013Z</time></trkpt><trkpt lat="44.0581991" lon="12.0935631"><ele>226.0</ele><time>2026-04-12T11:05:54.013Z</time></trkpt><trkpt lat="44.0582709" lon="12.0936361"><ele>226.0</ele><time>2026-04-12T11:05:55.015Z</time></trkpt><trkpt lat="44.0583365" lon="12.0937221"><ele>226.0</ele><time>2026-04-12T11:05:56.014Z</time></trkpt><trkpt lat="44.0583876" lon="12.0938119"><ele>225.99999999999997</ele><time>2026-04-12T11:05:57.011Z</time></trkpt><trkpt lat="44.0584245" lon="12.0939075"><ele>226.0</ele><time>2026-04-12T11:05:58.016Z</time></trkpt><trkpt lat="44.0584527" lon="12.0940183"><ele>230.4</ele><time>2026-04-12T11:05:59.015Z</time></trkpt><trkpt lat="44.0584866" lon="12.0941424"><ele>234.8</ele><time>2026-04-12T11:06:00.012Z</time></trkpt><trkpt lat="44.0585244" lon="12.0942715"><ele>239.20000000000002</ele><time>2026-04-12T11:06:01.012Z</time></trkpt><trkpt lat="44.0585683" lon="12.0943962"><ele>243.60000000000002</ele><time>2026-04-12T11:06:02.011Z</time></trkpt><trkpt lat="44.0586058" lon="12.0945126"><ele>248.0</ele><time>2026-04-12T11:06:03.013Z</time></trkpt><trkpt lat="44.0586317" lon="12.0946176"><ele>248.00000000000003</ele><time>2026-04-12T11:06:04.012Z</time></trkpt><trkpt lat="44.0586424" lon="12.0947194"><ele>248.0</ele><time>2026-04-12T11:06:05.014Z</time></trkpt><trkpt lat="44.0586366" lon="12.0948146"><ele>248.0</ele><time>2026-04-12T11:06:06.011Z</time></trkpt><trkpt lat="44.0586001" lon="12.0949075"><ele>248.0</ele><time>2026-04-12T11:06:07.012Z</time></trkpt><trkpt lat="44.0585477" lon="12.095001"><ele>248.00000000000003</ele><time>2026-04-12T11:06:08.011Z</time></trkpt><trkpt lat="44.0584956" lon="12.0951038"><ele>248.0</ele><time>2026-04-12T11:06:09.013Z</time></trkpt><trkpt lat="44.0584391" lon="12.095209"><ele>250.0</ele><time>2026-04-12T11:06:10.012Z</time></trkpt><trkpt lat="44.0583838" lon="12.0953305"><ele>252.0</ele><time>2026-04-12T11:06:11.012Z</time></trkpt><trkpt lat="44.0583444" lon="12.0954767"><ele>254.0</ele><time>2026-04-12T11:06:12.012Z</time></trkpt><trkpt lat="44.0583202" lon="12.0956307"><ele>256.0</ele><time>2026-04-12T11:06:13.012Z</time></trkpt><trkpt lat="44.0583131" lon="12.0957833"><ele>258.0</ele><time>2026-04-12T11:06:14.013Z</time></trkpt><trkpt lat="44.0583256" lon="12.0959335"><ele>259.4</ele><time>2026-04-12T11:06:15.012Z</time></trkpt><trkpt lat="44.0583449" lon="12.0960865"><ele>260.8</ele><time>2026-04-12T11:06:16.012Z</time></trkpt><trkpt lat="44.0583617" lon="12.0962331"><ele>262.2</ele><time>2026-04-12T11:06:17.011Z</time></trkpt><trkpt lat="44.0583742" lon="12.0963722"><ele>263.6</ele><time>2026-04-12T11:06:18.013Z</time></trkpt><trkpt lat="44.058385" lon="12.0964895"><ele>265.0</ele><time>2026-04-12T11:06:19.013Z</time></trkpt><trkpt lat="44.0583998" lon="12.0965932"><ele>267.1428571428571</ele><time>2026-04-12T11:06:20.012Z</time></trkpt><trkpt lat="44.0584161" lon="12.0966863"><ele>269.2857142857143</ele><time>2026-04-12T11:06:21.013Z</time></trkpt><trkpt lat="44.0584433" lon="12.0967694"><ele>271.42857142857144</ele><time>2026-04-12T11:06:22.011Z</time></trkpt><trkpt lat="44.0584805" lon="12.0968406"><ele>273.57142857142856</ele><time>2026-04-12T11:06:23.012Z</time></trkpt><trkpt lat="44.0585302" lon="12.0969024"><ele>275.7142857142857</ele><time>2026-04-12T11:06:24.013Z</time></trkpt><trkpt lat="44.0585864" lon="12.0969707"><ele>277.85714285714283</ele><time>2026-04-12T11:06:25.012Z</time></trkpt><trkpt lat="44.0586636" lon="12.0970328"><ele>280.0</ele><time>2026-04-12T11:06:26.012Z</time></trkpt><trkpt lat="44.0587428" lon="12.0971044"><ele>280.0</ele><time>2026-04-12T11:06:27.016Z</time></trkpt><trkpt lat="44.0588246" lon="12.0971865"><ele>280.0</ele><time>2026-04-12T11:06:28.012Z</time></trkpt><trkpt lat="44.0589082" lon="12.0972697"><ele>280.0</ele><time>2026-04-12T11:06:29.012Z</time></trkpt><trkpt lat="44.0590024" lon="12.0973406"><ele>280.0</ele><time>2026-04-12T11:06:30.012Z</time></trkpt><trkpt lat="44.0591012" lon="12.097406"><ele>280.0</ele><time>2026-04-12T11:06:31.012Z</time></trkpt><trkpt lat="44.0592046" lon="12.0974621"><ele>283.3333333333333</ele><time>2026-04-12T11:06:32.012Z</time></trkpt><trkpt lat="44.0593002" lon="12.0975116"><ele>286.66666666666663</ele><time>2026-04-12T11:06:33.017Z</time></trkpt><trkpt lat="44.0593837" lon="12.0975579"><ele>290.0</ele><time>2026-04-12T11:06:34.012Z</time></trkpt><trkpt lat="44.0594606" lon="12.0976151"><ele>293.3333333333333</ele><time>2026-04-12T11:06:35.012Z</time></trkpt><trkpt lat="44.059534" lon="12.0976808"><ele>296.6666666666667</ele><time>2026-04-12T11:06:36.013Z</time></trkpt><trkpt lat="44.0595986" lon="12.0977406"><ele>300.0</ele><time>2026-04-12T11:06:37.013Z</time></trkpt><trkpt lat="44.0596497" lon="12.0977926"><ele>300.0</ele><time>2026-04-12T11:06:38.012Z</time></trkpt><trkpt lat="44.0597106" lon="12.0978779"><ele>300.0</ele><time>2026-04-12T11:06:40.014Z</time></trkpt><trkpt lat="44.05959" lon="12.09794"><ele>300.0</ele><time>2026-04-12T11:06:58.012Z</time></trkpt><trkpt lat="44.0595183" lon="12.0979067"><ele>300.0</ele><time>2026-04-12T11:06:59.012Z</time></trkpt><trkpt lat="44.059425" lon="12.097865"><ele>300.0</ele><time>2026-04-12T11:07:00.012Z</time></trkpt><trkpt lat="44.059345" lon="12.0978767"><ele>300.0</ele><time>2026-04-12T11:07:01.012Z</time></trkpt><trkpt lat="44.0592767" lon="12.09792"><ele>300.0</ele><time>2026-04-12T11:07:02.012Z</time></trkpt><trkpt lat="44.0592283" lon="12.0980033"><ele>300.0</ele><time>2026-04-12T11:07:03.012Z</time></trkpt><trkpt lat="44.0592" lon="12.0981183"><ele>300.0</ele><time>2026-04-12T11:07:04.017Z</time></trkpt><trkpt lat="44.0591683" lon="12.0982433"><ele>300.0</ele><time>2026-04-12T11:07:05.013Z</time></trkpt><trkpt lat="44.0591467" lon="12.098375"><ele>300.0</ele><time>2026-04-12T11:07:06.012Z</time></trkpt><trkpt lat="44.05913" lon="12.0985083"><ele>299.5</ele><time>2026-04-12T11:07:07.013Z</time></trkpt><trkpt lat="44.059115" lon="12.09865"><ele>299.0</ele><time>2026-04-12T11:07:08.018Z</time></trkpt><trkpt lat="44.0590967" lon="12.0988117"><ele>298.5</ele><time>2026-04-12T11:07:09.012Z</time></trkpt><trkpt lat="44.0590733" lon="12.0989983"><ele>298.0</ele><time>2026-04-12T11:07:10.011Z</time></trkpt><trkpt lat="44.0590733" lon="12.0992"><ele>300.3333333333333</ele><time>2026-04-12T11:07:11.012Z</time></trkpt><trkpt lat="44.0590983" lon="12.09942"><ele>302.6666666666667</ele><time>2026-04-12T11:07:12.011Z</time></trkpt><trkpt lat="44.05914" lon="12.0996517"><ele>305.0</ele><time>2026-04-12T11:07:13.012Z</time></trkpt><trkpt lat="44.0591667" lon="12.0998933"><ele>313.0</ele><time>2026-04-12T11:07:14.013Z</time></trkpt><trkpt lat="44.05918" lon="12.10014"><ele>321.0</ele><time>2026-04-12T11:07:15.011Z</time></trkpt><trkpt lat="44.0591767" lon="12.1003917"><ele>329.0</ele><time>2026-04-12T11:07:16.012Z</time></trkpt><trkpt lat="44.0591667" lon="12.1006533"><ele>332.6666666666667</ele><time>2026-04-12T11:07:17.011Z</time></trkpt><trkpt lat="44.0591533" lon="12.100905"><ele>336.3333333333333</ele><time>2026-04-12T11:07:18.012Z</time></trkpt><trkpt lat="44.0591583" lon="12.1011367"><ele>340.0</ele><time>2026-04-12T11:07:19.013Z</time></trkpt><trkpt lat="44.059165" lon="12.1013667"><ele>341.5</ele><time>2026-04-12T11:07:20.013Z</time></trkpt><trkpt lat="44.0591733" lon="12.101585"><ele>343.0</ele><time>2026-04-12T11:07:21.015Z</time></trkpt><trkpt lat="44.0591967" lon="12.1017733"><ele>344.5</ele><time>2026-04-12T11:07:22.012Z</time></trkpt><trkpt lat="44.0592433" lon="12.1019417"><ele>346.0</ele><time>2026-04-12T11:07:23.014Z</time></trkpt><trkpt lat="44.05927" lon="12.1021117"><ele>346.0</ele><time>2026-04-12T11:07:24.011Z</time></trkpt><trkpt lat="44.059295" lon="12.1022767"><ele>346.0</ele><time>2026-04-12T11:07:25.014Z</time></trkpt><trkpt lat="44.059315" lon="12.1024283"><ele>346.0</ele><time>2026-04-12T11:07:26.011Z</time></trkpt><trkpt lat="44.0593217" lon="12.1025883"><ele>346.0</ele><time>2026-04-12T11:07:27.014Z</time></trkpt><trkpt lat="44.0593267" lon="12.102755"><ele>346.75</ele><time>2026-04-12T11:07:28.013Z</time></trkpt><trkpt lat="44.0593283" lon="12.1029317"><ele>347.5</ele><time>2026-04-12T11:07:29.013Z</time></trkpt><trkpt lat="44.05932" lon="12.1031117"><ele>348.25</ele><time>2026-04-12T11:07:30.012Z</time></trkpt><trkpt lat="44.0592933" lon="12.1032967"><ele>349.0</ele><time>2026-04-12T11:07:31.013Z</time></trkpt><trkpt lat="44.0592517" lon="12.10348"><ele>348.75</ele><time>2026-04-12T11:07:32.013Z</time></trkpt><trkpt lat="44.0592067" lon="12.10366"><ele>348.5</ele><time>2026-04-12T11:07:33.011Z</time></trkpt><trkpt lat="44.0591633" lon="12.1038333"><ele>348.25</ele><time>2026-04-12T11:07:34.012Z</time></trkpt><trkpt lat="44.0591167" lon="12.1040017"><ele>348.0</ele><time>2026-04-12T11:07:35.012Z</time></trkpt><trkpt lat="44.059055" lon="12.1041567"><ele>348.0</ele><time>2026-04-12T11:07:36.011Z</time></trkpt><trkpt lat="44.0589833" lon="12.1043"><ele>348.0</ele><time>2026-04-12T11:07:37.013Z</time></trkpt><trkpt lat="44.0589" lon="12.1044367"><ele>348.0</ele><time>2026-04-12T11:07:38.012Z</time></trkpt><trkpt lat="44.05882" lon="12.1045667"><ele>348.0</ele><time>2026-04-12T11:07:39.011Z</time></trkpt><trkpt lat="44.058755" lon="12.1046883"><ele>348.0</ele><time>2026-04-12T11:07:40.016Z</time></trkpt><trkpt lat="44.0587017" lon="12.1048217"><ele>348.0</ele><time>2026-04-12T11:07:41.013Z</time></trkpt><trkpt lat="44.0586767" lon="12.104965"><ele>348.0</ele><time>2026-04-12T11:07:42.011Z</time></trkpt><trkpt lat="44.0586517" lon="12.105095"><ele>348.0</ele><time>2026-04-12T11:07:43.012Z</time></trkpt><trkpt lat="44.05866" lon="12.1052283"><ele>348.0</ele><time>2026-04-12T11:07:44.015Z</time></trkpt><trkpt lat="44.0587083" lon="12.1053617"><ele>350.0</ele><time>2026-04-12T11:07:45.013Z</time></trkpt><trkpt lat="44.0587733" lon="12.1055033"><ele>352.0</ele><time>2026-04-12T11:07:46.011Z</time></trkpt><trkpt lat="44.0588833" lon="12.10564"><ele>354.0</ele><time>2026-04-12T11:07:47.013Z</time></trkpt><trkpt lat="44.0589783" lon="12.105775"><ele>356.0</ele><time>2026-04-12T11:07:48.012Z</time></trkpt><trkpt lat="44.0590483" lon="12.1059167"><ele>356.5</ele><time>2026-04-12T11:07:49.011Z</time></trkpt><trkpt lat="44.0590867" lon="12.106075"><ele>357.0</ele><time>2026-04-12T11:07:50.012Z</time></trkpt><trkpt lat="44.0590983" lon="12.106255"><ele>357.5</ele><time>2026-04-12T11:07:51.015Z</time></trkpt><trkpt lat="44.05912" lon="12.1064383"><ele>358.0</ele><time>2026-04-12T11:07:52.011Z</time></trkpt><trkpt lat="44.0591817" lon="12.106605"><ele>361.5</ele><time>2026-04-12T11:07:53.012Z</time></trkpt><trkpt lat="44.059265" lon="12.10676"><ele>365.0</ele><time>2026-04-12T11:07:54.011Z</time></trkpt><trkpt lat="44.0593483" lon="12.106905"><ele>368.5</ele><time>2026-04-12T11:07:55.011Z</time></trkpt><trkpt lat="44.059425" lon="12.1070467"><ele>372.0</ele><time>2026-04-12T11:07:56.013Z</time></trkpt><trkpt lat="44.0595267" lon="12.1071567"><ele>372.0</ele><time>2026-04-12T11:07:57.011Z</time></trkpt><trkpt lat="44.0596283" lon="12.1072333"><ele>372.0</ele><time>2026-04-12T11:07:58.015Z</time></trkpt><trkpt lat="44.0596967" lon="12.107335"><ele>372.0</ele><time>2026-04-12T11:07:59.014Z</time></trkpt><trkpt lat="44.0597383" lon="12.1074583"><ele>372.0</ele><time>2026-04-12T11:08:00.012Z</time></trkpt><trkpt lat="44.05975" lon="12.1076067"><ele>372.0</ele><time>2026-04-12T11:08:01.016Z</time></trkpt><trkpt lat="44.0597433" lon="12.10777"><ele>375.75</ele><time>2026-04-12T11:08:02.012Z</time></trkpt><trkpt lat="44.0597217" lon="12.1079533"><ele>379.5</ele><time>2026-04-12T11:08:03.016Z</time></trkpt><trkpt lat="44.059705" lon="12.1081433"><ele>383.25</ele><time>2026-04-12T11:08:04.012Z</time></trkpt><trkpt lat="44.05971" lon="12.10834"><ele>387.0</ele><time>2026-04-12T11:08:05.012Z</time></trkpt><trkpt lat="44.05973" lon="12.1085367"><ele>386.75</ele><time>2026-04-12T11:08:06.011Z</time></trkpt><trkpt lat="44.059755" lon="12.1087133"><ele>386.5</ele><time>2026-04-12T11:08:07.012Z</time></trkpt><trkpt lat="44.0598083" lon="12.1088633"><ele>386.25</ele><time>2026-04-12T11:08:08.012Z</time></trkpt><trkpt lat="44.0598883" lon="12.1089833"><ele>386.0</ele><time>2026-04-12T11:08:09.012Z</time></trkpt><trkpt lat="44.059995" lon="12.1090717"><ele>388.5</ele><time>2026-04-12T11:08:10.013Z</time></trkpt><trkpt lat="44.060085" lon="12.10918"><ele>391.0</ele><time>2026-04-12T11:08:11.016Z</time></trkpt><trkpt lat="44.060135" lon="12.109325"><ele>393.5</ele><time>2026-04-12T11:08:12.012Z</time></trkpt><trkpt lat="44.0601517" lon="12.1094783"><ele>396.0</ele><time>2026-04-12T11:08:13.012Z</time></trkpt><trkpt lat="44.06014" lon="12.1096383"><ele>396.0</ele><time>2026-04-12T11:08:14.014Z</time></trkpt><trkpt lat="44.0600833" lon="12.109785"><ele>396.0</ele><time>2026-04-12T11:08:15.092Z</time></trkpt><trkpt lat="44.0599917" lon="12.1099067"><ele>396.0</ele><time>2026-04-12T11:08:16.011Z</time></trkpt><trkpt lat="44.0598733" lon="12.1100133"><ele>396.0</ele><time>2026-04-12T11:08:17.012Z</time></trkpt><trkpt lat="44.0597517" lon="12.1101183"><ele>398.66666666666663</ele><time>2026-04-12T11:08:18.011Z</time></trkpt><trkpt lat="44.0596217" lon="12.1102333"><ele>401.3333333333333</ele><time>2026-04-12T11:08:19.013Z</time></trkpt><trkpt lat="44.0594883" lon="12.1103417"><ele>404.0</ele><time>2026-04-12T11:08:20.012Z</time></trkpt><trkpt lat="44.0593667" lon="12.1104617"><ele>404.0</ele><time>2026-04-12T11:08:21.013Z</time></trkpt><trkpt lat="44.0592633" lon="12.110585"><ele>404.0</ele><time>2026-04-12T11:08:22.011Z</time></trkpt><trkpt lat="44.059175" lon="12.1107033"><ele>404.0</ele><time>2026-04-12T11:08:23.012Z</time></trkpt><trkpt lat="44.0590967" lon="12.1108067"><ele>404.0</ele><time>2026-04-12T11:08:24.011Z</time></trkpt><trkpt lat="44.05903" lon="12.1109183"><ele>402.0</ele><time>2026-04-12T11:08:25.011Z</time></trkpt><trkpt lat="44.0589867" lon="12.111035"><ele>400.0</ele><time>2026-04-12T11:08:26.012Z</time></trkpt><trkpt lat="44.058945" lon="12.1111417"><ele>398.0</ele><time>2026-04-12T11:08:27.014Z</time></trkpt><trkpt lat="44.0589467" lon="12.111265"><ele>396.0</ele><time>2026-04-12T11:08:28.011Z</time></trkpt><trkpt lat="44.0590117" lon="12.1113983"><ele>394.0</ele><time>2026-04-12T11:08:29.011Z</time></trkpt><trkpt lat="44.059095" lon="12.1115"><ele>401.0</ele><time>2026-04-12T11:08:30.012Z</time></trkpt><trkpt lat="44.0591683" lon="12.1116"><ele>408.0</ele><time>2026-04-12T11:08:31.012Z</time></trkpt><trkpt lat="44.059285" lon="12.1116717"><ele>415.0</ele><time>2026-04-12T11:08:32.013Z</time></trkpt><trkpt lat="44.0594133" lon="12.1117233"><ele>422.0</ele><time>2026-04-12T11:08:33.011Z</time></trkpt><trkpt lat="44.0595317" lon="12.1118167"><ele>422.0</ele><time>2026-04-12T11:08:34.011Z</time></trkpt><trkpt lat="44.0596317" lon="12.1119133"><ele>422.0</ele><time>2026-04-12T11:08:35.012Z</time></trkpt><trkpt lat="44.059725" lon="12.11201"><ele>422.0</ele><time>2026-04-12T11:08:36.011Z</time></trkpt><trkpt lat="44.0598217" lon="12.1120983"><ele>422.0</ele><time>2026-04-12T11:08:37.013Z</time></trkpt><trkpt lat="44.0599167" lon="12.1121933"><ele>421.75</ele><time>2026-04-12T11:08:38.013Z</time></trkpt><trkpt lat="44.06001" lon="12.1123033"><ele>421.5</ele><time>2026-04-12T11:08:39.012Z</time></trkpt><trkpt lat="44.0600933" lon="12.1124317"><ele>421.25</ele><time>2026-04-12T11:08:40.012Z</time></trkpt><trkpt lat="44.0601517" lon="12.11257"><ele>421.0</ele><time>2026-04-12T11:08:41.012Z</time></trkpt><trkpt lat="44.0601783" lon="12.1127033"><ele>423.4</ele><time>2026-04-12T11:08:42.013Z</time></trkpt><trkpt lat="44.060165" lon="12.1128283"><ele>425.8</ele><time>2026-04-12T11:08:43.013Z</time></trkpt><trkpt lat="44.0601267" lon="12.1129417"><ele>428.19999999999993</ele><time>2026-04-12T11:08:44.011Z</time></trkpt><trkpt lat="44.0600848" lon="12.1130618"><ele>430.59999999999997</ele><time>2026-04-12T11:08:45.012Z</time></trkpt><trkpt lat="44.0600695" lon="12.1132094"><ele>433.0</ele><time>2026-04-12T11:08:46.015Z</time></trkpt><trkpt lat="44.0600737" lon="12.1133539"><ele>434.2</ele><time>2026-04-12T11:08:47.011Z</time></trkpt><trkpt lat="44.0601088" lon="12.1134942"><ele>435.4</ele><time>2026-04-12T11:08:48.011Z</time></trkpt><trkpt lat="44.060163" lon="12.1136161"><ele>436.59999999999997</ele><time>2026-04-12T11:08:49.012Z</time></trkpt><trkpt lat="44.0602152" lon="12.113722"><ele>437.79999999999995</ele><time>2026-04-12T11:08:50.012Z</time></trkpt><trkpt lat="44.060263" lon="12.1138127"><ele>439.0</ele><time>2026-04-12T11:08:51.012Z</time></trkpt><trkpt lat="44.0603226" lon="12.11387"><ele>439.0</ele><time>2026-04-12T11:08:52.014Z</time></trkpt><trkpt lat="44.0604248" lon="12.1139532"><ele>439.0</ele><time>2026-04-12T11:08:54.012Z</time></trkpt><trkpt lat="44.0604786" lon="12.1140043"><ele>439.0</ele><time>2026-04-12T11:08:56.012Z</time></trkpt><trkpt lat="44.06055" lon="12.1140583"><ele>439.0</ele><time>2026-04-12T11:09:26.013Z</time></trkpt><trkpt lat="44.0606183" lon="12.114175"><ele>439.0</ele><time>2026-04-12T11:09:28.013Z</time></trkpt><trkpt lat="44.0606667" lon="12.1143017"><ele>440.1666666666667</ele><time>2026-04-12T11:09:30.011Z</time></trkpt><trkpt lat="44.0606367" lon="12.11441"><ele>441.33333333333337</ele><time>2026-04-12T11:09:32.012Z</time></trkpt><trkpt lat="44.060575" lon="12.1144683"><ele>442.5</ele><time>2026-04-12T11:09:34.013Z</time></trkpt><trkpt lat="44.060485" lon="12.1144683"><ele>443.66666666666663</ele><time>2026-04-12T11:09:36.012Z</time></trkpt><trkpt lat="44.0603683" lon="12.1144817"><ele>444.8333333333333</ele><time>2026-04-12T11:09:38.012Z</time></trkpt><trkpt lat="44.0602983" lon="12.114495"><ele>446.0</ele><time>2026-04-12T11:09:39.014Z</time></trkpt><trkpt lat="44.0602017" lon="12.1145267"><ele>446.0</ele><time>2026-04-12T11:09:40.012Z</time></trkpt><trkpt lat="44.0600783" lon="12.1145483"><ele>446.0</ele><time>2026-04-12T11:09:41.012Z</time></trkpt><trkpt lat="44.0599317" lon="12.11456"><ele>446.0</ele><time>2026-04-12T11:09:42.012Z</time></trkpt><trkpt lat="44.0597817" lon="12.1145967"><ele>446.0</ele><time>2026-04-12T11:09:43.014Z</time></trkpt><trkpt lat="44.0596283" lon="12.1146533"><ele>444.3333333333333</ele><time>2026-04-12T11:09:44.013Z</time></trkpt><trkpt lat="44.0594733" lon="12.114735"><ele>442.66666666666663</ele><time>2026-04-12T11:09:45.014Z</time></trkpt><trkpt lat="44.0593283" lon="12.11483"><ele>441.0</ele><time>2026-04-12T11:09:46.012Z</time></trkpt><trkpt lat="44.059185" lon="12.1149033"><ele>441.33333333333337</ele><time>2026-04-12T11:09:47.011Z</time></trkpt><trkpt lat="44.05904" lon="12.1149667"><ele>441.6666666666667</ele><time>2026-04-12T11:09:48.013Z</time></trkpt><trkpt lat="44.0588867" lon="12.1150333"><ele>442.0</ele><time>2026-04-12T11:09:49.014Z</time></trkpt><trkpt lat="44.0587383" lon="12.1151233"><ele>442.0</ele><time>2026-04-12T11:09:50.012Z</time></trkpt><trkpt lat="44.0585883" lon="12.1152233"><ele>442.0</ele><time>2026-04-12T11:09:51.013Z</time></trkpt><trkpt lat="44.0584367" lon="12.1153233"><ele>442.0</ele><time>2026-04-12T11:09:52.014Z</time></trkpt><trkpt lat="44.05829" lon="12.1154267"><ele>440.0</ele><time>2026-04-12T11:09:53.012Z</time></trkpt><trkpt lat="44.0581483" lon="12.1155233"><ele>438.0</ele><time>2026-04-12T11:09:54.012Z</time></trkpt><trkpt lat="44.0580117" lon="12.115615"><ele>436.0</ele><time>2026-04-12T11:09:55.014Z</time></trkpt><trkpt lat="44.0578933" lon="12.11574"><ele>436.0</ele><time>2026-04-12T11:09:56.011Z</time></trkpt><trkpt lat="44.05778" lon="12.1158767"><ele>436.0</ele><time>2026-04-12T11:09:57.013Z</time></trkpt><trkpt lat="44.0576633" lon="12.1159817"><ele>436.0</ele><time>2026-04-12T11:09:58.011Z</time></trkpt><trkpt lat="44.0575417" lon="12.116075"><ele>436.0</ele><time>2026-04-12T11:09:59.014Z</time></trkpt><trkpt lat="44.057425" lon="12.1161567"><ele>433.6</ele><time>2026-04-12T11:10:00.017Z</time></trkpt><trkpt lat="44.05732" lon="12.1162383"><ele>431.20000000000005</ele><time>2026-04-12T11:10:01.012Z</time></trkpt><trkpt lat="44.0572367" lon="12.1163367"><ele>428.79999999999995</ele><time>2026-04-12T11:10:02.012Z</time></trkpt><trkpt lat="44.057185" lon="12.11645"><ele>426.4</ele><time>2026-04-12T11:10:03.012Z</time></trkpt><trkpt lat="44.0571467" lon="12.116585"><ele>424.0</ele><time>2026-04-12T11:10:04.012Z</time></trkpt><trkpt lat="44.0571367" lon="12.1167433"><ele>424.0</ele><time>2026-04-12T11:10:05.012Z</time></trkpt><trkpt lat="44.0571362" lon="12.1169138"><ele>424.0</ele><time>2026-04-12T11:10:06.013Z</time></trkpt><trkpt lat="44.0571392" lon="12.1170921"><ele>424.0</ele><time>2026-04-12T11:10:07.013Z</time></trkpt><trkpt lat="44.0571313" lon="12.1172699"><ele>424.0</ele><time>2026-04-12T11:10:08.014Z</time></trkpt><trkpt lat="44.0570978" lon="12.1174417"><ele>423.75</ele><time>2026-04-12T11:10:09.012Z</time></trkpt><trkpt lat="44.0570287" lon="12.1175982"><ele>423.5</ele><time>2026-04-12T11:10:10.014Z</time></trkpt><trkpt lat="44.0569461" lon="12.1177346"><ele>423.25</ele><time>2026-04-12T11:10:11.013Z</time></trkpt><trkpt lat="44.0568602" lon="12.1178616"><ele>423.0</ele><time>2026-04-12T11:10:12.011Z</time></trkpt><trkpt lat="44.0567628" lon="12.1179825"><ele>423.0</ele><time>2026-04-12T11:10:13.014Z</time></trkpt><trkpt lat="44.0566539" lon="12.1181069"><ele>423.0</ele><time>2026-04-12T11:10:14.012Z</time></trkpt><trkpt lat="44.0565425" lon="12.1182422"><ele>423.0</ele><time>2026-04-12T11:10:15.012Z</time></trkpt><trkpt lat="44.0564288" lon="12.118383"><ele>423.0</ele><time>2026-04-12T11:10:16.012Z</time></trkpt><trkpt lat="44.0563167" lon="12.1185248"><ele>422.33333333333337</ele><time>2026-04-12T11:10:17.012Z</time></trkpt><trkpt lat="44.0562067" lon="12.1186615"><ele>421.6666666666667</ele><time>2026-04-12T11:10:18.01Z</time></trkpt><trkpt lat="44.0560844" lon="12.1187824"><ele>421.0</ele><time>2026-04-12T11:10:19.014Z</time></trkpt><trkpt lat="44.0559454" lon="12.118872"><ele>421.0</ele><time>2026-04-12T11:10:20.011Z</time></trkpt><trkpt lat="44.0557941" lon="12.1189269"><ele>421.0</ele><time>2026-04-12T11:10:21.012Z</time></trkpt><trkpt lat="44.0556353" lon="12.1189571"><ele>421.0</ele><time>2026-04-12T11:10:22.012Z</time></trkpt><trkpt lat="44.0554771" lon="12.1189909"><ele>419.6666666666667</ele><time>2026-04-12T11:10:23.012Z</time></trkpt><trkpt lat="44.0553219" lon="12.1190486"><ele>418.33333333333337</ele><time>2026-04-12T11:10:24.015Z</time></trkpt><trkpt lat="44.055171" lon="12.1191221"><ele>417.0</ele><time>2026-04-12T11:10:25.012Z</time></trkpt><trkpt lat="44.0550223" lon="12.1191943"><ele>419.5</ele><time>2026-04-12T11:10:26.018Z</time></trkpt><trkpt lat="44.0548758" lon="12.1192463"><ele>422.0</ele><time>2026-04-12T11:10:27.015Z</time></trkpt><trkpt lat="44.0547381" lon="12.1192731"><ele>424.5</ele><time>2026-04-12T11:10:28.012Z</time></trkpt><trkpt lat="44.0546166" lon="12.1192939"><ele>427.0</ele><time>2026-04-12T11:10:29.011Z</time></trkpt><trkpt lat="44.0545114" lon="12.1193279"><ele>427.0</ele><time>2026-04-12T11:10:30.012Z</time></trkpt><trkpt lat="44.0544241" lon="12.1193864"><ele>427.00000000000006</ele><time>2026-04-12T11:10:31.013Z</time></trkpt><trkpt lat="44.054352" lon="12.1194821"><ele>427.00000000000006</ele><time>2026-04-12T11:10:32.013Z</time></trkpt><trkpt lat="44.0542895" lon="12.1196189"><ele>427.0</ele><time>2026-04-12T11:10:33.015Z</time></trkpt><trkpt lat="44.0542286" lon="12.1197777"><ele>427.0</ele><time>2026-04-12T11:10:34.013Z</time></trkpt><trkpt lat="44.0541638" lon="12.1199461"><ele>425.0</ele><time>2026-04-12T11:10:35.014Z</time></trkpt><trkpt lat="44.0540908" lon="12.120119"><ele>423.0</ele><time>2026-04-12T11:10:36.012Z</time></trkpt><trkpt lat="44.0540128" lon="12.1202926"><ele>421.0</ele><time>2026-04-12T11:10:37.013Z</time></trkpt><trkpt lat="44.0539367" lon="12.1204551"><ele>419.0</ele><time>2026-04-12T11:10:38.012Z</time></trkpt><trkpt lat="44.0538645" lon="12.1206084"><ele>420.79999999999995</ele><time>2026-04-12T11:10:39.013Z</time></trkpt><trkpt lat="44.0538037" lon="12.1207433"><ele>422.59999999999997</ele><time>2026-04-12T11:10:40.013Z</time></trkpt><trkpt lat="44.0537465" lon="12.1208656"><ele>424.4</ele><time>2026-04-12T11:10:41.013Z</time></trkpt><trkpt lat="44.0536827" lon="12.1209649"><ele>426.2</ele><time>2026-04-12T11:10:42.011Z</time></trkpt><trkpt lat="44.0536168" lon="12.1210314"><ele>428.0</ele><time>2026-04-12T11:10:43.011Z</time></trkpt><trkpt lat="44.0535415" lon="12.12107"><ele>428.0</ele><time>2026-04-12T11:10:44.012Z</time></trkpt><trkpt lat="44.0534583" lon="12.1210832"><ele>427.99999999999994</ele><time>2026-04-12T11:10:45.013Z</time></trkpt><trkpt lat="44.0533703" lon="12.1210743"><ele>427.99999999999994</ele><time>2026-04-12T11:10:46.014Z</time></trkpt><trkpt lat="44.0532766" lon="12.1210469"><ele>428.0</ele><time>2026-04-12T11:10:47.01Z</time></trkpt><trkpt lat="44.0531767" lon="12.1210005"><ele>428.0</ele><time>2026-04-12T11:10:48.013Z</time></trkpt><trkpt lat="44.0530803" lon="12.1209369"><ele>426.79999999999995</ele><time>2026-04-12T11:10:49.012Z</time></trkpt><trkpt lat="44.0529881" lon="12.1208623"><ele>425.59999999999997</ele><time>2026-04-12T11:10:50.012Z</time></trkpt><trkpt lat="44.0528999" lon="12.120791"><ele>424.4</ele><time>2026-04-12T11:10:51.015Z</time></trkpt><trkpt lat="44.0528123" lon="12.1207222"><ele>423.20000000000005</ele><time>2026-04-12T11:10:52.012Z</time></trkpt><trkpt lat="44.0527222" lon="12.1206548"><ele>422.0</ele><time>2026-04-12T11:10:53.013Z</time></trkpt><trkpt lat="44.0526358" lon="12.120599"><ele>420.0</ele><time>2026-04-12T11:10:54.011Z</time></trkpt><trkpt lat="44.0525532" lon="12.1205448"><ele>418.0</ele><time>2026-04-12T11:10:55.013Z</time></trkpt><trkpt lat="44.0524709" lon="12.1204847"><ele>416.0</ele><time>2026-04-12T11:10:56.012Z</time></trkpt><trkpt lat="44.0523877" lon="12.1204197"><ele>414.0</ele><time>2026-04-12T11:10:57.011Z</time></trkpt><trkpt lat="44.0523084" lon="12.1203474"><ele>412.0</ele><time>2026-04-12T11:10:58.012Z</time></trkpt><trkpt lat="44.0522345" lon="12.1202623"><ele>411.0</ele><time>2026-04-12T11:10:59.014Z</time></trkpt><trkpt lat="44.052166" lon="12.1201712"><ele>410.0</ele><time>2026-04-12T11:11:00.013Z</time></trkpt><trkpt lat="44.0521002" lon="12.1200716"><ele>409.0</ele><time>2026-04-12T11:11:01.015Z</time></trkpt><trkpt lat="44.0520375" lon="12.1199673"><ele>408.0</ele><time>2026-04-12T11:11:02.015Z</time></trkpt><trkpt lat="44.0519783" lon="12.1198635"><ele>407.0</ele><time>2026-04-12T11:11:03.015Z</time></trkpt><trkpt lat="44.0519201" lon="12.1197621"><ele>404.20000000000005</ele><time>2026-04-12T11:11:04.012Z</time></trkpt><trkpt lat="44.0518545" lon="12.1196663"><ele>401.4</ele><time>2026-04-12T11:11:05.013Z</time></trkpt><trkpt lat="44.0517804" lon="12.119585"><ele>398.6</ele><time>2026-04-12T11:11:06.011Z</time></trkpt><trkpt lat="44.0517016" lon="12.1195222"><ele>395.79999999999995</ele><time>2026-04-12T11:11:07.013Z</time></trkpt><trkpt lat="44.0516158" lon="12.1194788"><ele>393.0</ele><time>2026-04-12T11:11:08.012Z</time></trkpt><trkpt lat="44.0515321" lon="12.1194618"><ele>392.14285714285717</ele><time>2026-04-12T11:11:09.012Z</time></trkpt><trkpt lat="44.0514548" lon="12.1194678"><ele>391.2857142857143</ele><time>2026-04-12T11:11:10.013Z</time></trkpt><trkpt lat="44.0513839" lon="12.1194911"><ele>390.42857142857144</ele><time>2026-04-12T11:11:11.011Z</time></trkpt><trkpt lat="44.0513137" lon="12.1195166"><ele>389.57142857142856</ele><time>2026-04-12T11:11:12.015Z</time></trkpt><trkpt lat="44.051243" lon="12.1195274"><ele>388.7142857142857</ele><time>2026-04-12T11:11:13.012Z</time></trkpt><trkpt lat="44.0511782" lon="12.1195172"><ele>387.8571428571429</ele><time>2026-04-12T11:11:14.013Z</time></trkpt><trkpt lat="44.0511178" lon="12.1194822"><ele>387.0</ele><time>2026-04-12T11:11:15.017Z</time></trkpt><trkpt lat="44.0510624" lon="12.1194227"><ele>387.0</ele><time>2026-04-12T11:11:16.012Z</time></trkpt><trkpt lat="44.0510143" lon="12.1193378"><ele>387.0</ele><time>2026-04-12T11:11:17.012Z</time></trkpt><trkpt lat="44.0509713" lon="12.1192225"><ele>387.0</ele><time>2026-04-12T11:11:18.012Z</time></trkpt><trkpt lat="44.0509317" lon="12.1190759"><ele>387.0</ele><time>2026-04-12T11:11:19.015Z</time></trkpt><trkpt lat="44.050898" lon="12.1189209"><ele>387.0</ele><time>2026-04-12T11:11:20.014Z</time></trkpt><trkpt lat="44.0508698" lon="12.1187704"><ele>385.40000000000003</ele><time>2026-04-12T11:11:21.015Z</time></trkpt><trkpt lat="44.0508456" lon="12.1186252"><ele>383.8</ele><time>2026-04-12T11:11:22.011Z</time></trkpt><trkpt lat="44.0508178" lon="12.1184854"><ele>382.2</ele><time>2026-04-12T11:11:23.011Z</time></trkpt><trkpt lat="44.0507851" lon="12.1183423"><ele>380.6</ele><time>2026-04-12T11:11:24.014Z</time></trkpt><trkpt lat="44.050743" lon="12.1181981"><ele>379.0</ele><time>2026-04-12T11:11:25.017Z</time></trkpt><trkpt lat="44.0506945" lon="12.1180614"><ele>376.2</ele><time>2026-04-12T11:11:26.015Z</time></trkpt><trkpt lat="44.0506426" lon="12.1179313"><ele>373.4</ele><time>2026-04-12T11:11:27.013Z</time></trkpt><trkpt lat="44.0505911" lon="12.1178105"><ele>370.6</ele><time>2026-04-12T11:11:28.012Z</time></trkpt><trkpt lat="44.050536" lon="12.1176983"><ele>367.8</ele><time>2026-04-12T11:11:29.013Z</time></trkpt><trkpt lat="44.050476" lon="12.1175996"><ele>365.0</ele><time>2026-04-12T11:11:30.012Z</time></trkpt><trkpt lat="44.0504089" lon="12.1175132"><ele>365.0</ele><time>2026-04-12T11:11:31.012Z</time></trkpt><trkpt lat="44.0503366" lon="12.1174378"><ele>365.0</ele><time>2026-04-12T11:11:32.011Z</time></trkpt><trkpt lat="44.0502565" lon="12.1173739"><ele>365.0</ele><time>2026-04-12T11:11:33.013Z</time></trkpt><trkpt lat="44.0501738" lon="12.1173243"><ele>365.0</ele><time>2026-04-12T11:11:34.015Z</time></trkpt><trkpt lat="44.0500861" lon="12.1172864"><ele>365.0</ele><time>2026-04-12T11:11:35.012Z</time></trkpt><trkpt lat="44.049992" lon="12.1172625"><ele>361.2</ele><time>2026-04-12T11:11:36.013Z</time></trkpt><trkpt lat="44.0498908" lon="12.1172514"><ele>357.4</ele><time>2026-04-12T11:11:37.012Z</time></trkpt><trkpt lat="44.0497869" lon="12.1172533"><ele>353.6</ele><time>2026-04-12T11:11:38.013Z</time></trkpt><trkpt lat="44.0496842" lon="12.1172556"><ele>349.8</ele><time>2026-04-12T11:11:39.015Z</time></trkpt><trkpt lat="44.0495837" lon="12.1172433"><ele>346.0</ele><time>2026-04-12T11:11:40.012Z</time></trkpt><trkpt lat="44.049486" lon="12.1172144"><ele>346.0</ele><time>2026-04-12T11:11:41.013Z</time></trkpt><trkpt lat="44.0493879" lon="12.1171642"><ele>346.0</ele><time>2026-04-12T11:11:42.012Z</time></trkpt><trkpt lat="44.0492883" lon="12.1170993"><ele>346.0</ele><time>2026-04-12T11:11:43.011Z</time></trkpt><trkpt lat="44.0491853" lon="12.1170254"><ele>346.0</ele><time>2026-04-12T11:11:44.013Z</time></trkpt><trkpt lat="44.0490801" lon="12.1169422"><ele>343.5</ele><time>2026-04-12T11:11:45.012Z</time></trkpt><trkpt lat="44.0489693" lon="12.1168555"><ele>341.0</ele><time>2026-04-12T11:11:46.013Z</time></trkpt><trkpt lat="44.048853" lon="12.116767"><ele>338.5</ele><time>2026-04-12T11:11:47.013Z</time></trkpt><trkpt lat="44.0487286" lon="12.1166736"><ele>336.0</ele><time>2026-04-12T11:11:48.013Z</time></trkpt><trkpt lat="44.0485995" lon="12.1165725"><ele>335.0</ele><time>2026-04-12T11:11:49.012Z</time></trkpt><trkpt lat="44.0484676" lon="12.1164637"><ele>334.0</ele><time>2026-04-12T11:11:50.015Z</time></trkpt><trkpt lat="44.0483357" lon="12.1163402"><ele>333.0</ele><time>2026-04-12T11:11:51.013Z</time></trkpt><trkpt lat="44.0482081" lon="12.1162038"><ele>332.6666666666667</ele><time>2026-04-12T11:11:52.014Z</time></trkpt><trkpt lat="44.0480867" lon="12.1160626"><ele>332.33333333333337</ele><time>2026-04-12T11:11:53.012Z</time></trkpt><trkpt lat="44.0479685" lon="12.1159181"><ele>332.0</ele><time>2026-04-12T11:11:54.016Z</time></trkpt><trkpt lat="44.0478528" lon="12.1157742"><ele>330.33333333333337</ele><time>2026-04-12T11:11:55.012Z</time></trkpt><trkpt lat="44.0477299" lon="12.1156378"><ele>328.6666666666667</ele><time>2026-04-12T11:11:56.014Z</time></trkpt><trkpt lat="44.0476005" lon="12.1155038"><ele>327.0</ele><time>2026-04-12T11:11:57.013Z</time></trkpt><trkpt lat="44.0474678" lon="12.1153716"><ele>326.3333333333333</ele><time>2026-04-12T11:11:58.013Z</time></trkpt><trkpt lat="44.0473391" lon="12.1152401"><ele>325.66666666666663</ele><time>2026-04-12T11:11:59.011Z</time></trkpt><trkpt lat="44.0472192" lon="12.1151122"><ele>325.0</ele><time>2026-04-12T11:12:00.012Z</time></trkpt><trkpt lat="44.047105" lon="12.1149962"><ele>325.0</ele><time>2026-04-12T11:12:01.014Z</time></trkpt><trkpt lat="44.0469965" lon="12.1148956"><ele>325.0</ele><time>2026-04-12T11:12:02.013Z</time></trkpt><trkpt lat="44.046888" lon="12.1148047"><ele>325.0</ele><time>2026-04-12T11:12:03.015Z</time></trkpt><trkpt lat="44.0467699" lon="12.1147319"><ele>325.0</ele><time>2026-04-12T11:12:04.011Z</time></trkpt><trkpt lat="44.0466451" lon="12.1146768"><ele>321.75</ele><time>2026-04-12T11:12:05.013Z</time></trkpt><trkpt lat="44.04652" lon="12.1146399"><ele>318.5</ele><time>2026-04-12T11:12:06.012Z</time></trkpt><trkpt lat="44.0464015" lon="12.1146099"><ele>315.25</ele><time>2026-04-12T11:12:07.016Z</time></trkpt><trkpt lat="44.0462892" lon="12.1145743"><ele>312.0</ele><time>2026-04-12T11:12:08.013Z</time></trkpt><trkpt lat="44.0461779" lon="12.1145368"><ele>312.0</ele><time>2026-04-12T11:12:09.012Z</time></trkpt><trkpt lat="44.0460653" lon="12.1144924"><ele>312.0</ele><time>2026-04-12T11:12:10.012Z</time></trkpt><trkpt lat="44.0459587" lon="12.1144336"><ele>312.0</ele><time>2026-04-12T11:12:11.012Z</time></trkpt><trkpt lat="44.0458636" lon="12.1143604"><ele>312.0</ele><time>2026-04-12T11:12:12.015Z</time></trkpt><trkpt lat="44.0457845" lon="12.114273"><ele>312.0</ele><time>2026-04-12T11:12:13.012Z</time></trkpt><trkpt lat="44.0457152" lon="12.1141764"><ele>310.4</ele><time>2026-04-12T11:12:14.012Z</time></trkpt><trkpt lat="44.0456478" lon="12.114082"><ele>308.79999999999995</ele><time>2026-04-12T11:12:15.011Z</time></trkpt><trkpt lat="44.045569" lon="12.1139967"><ele>307.2</ele><time>2026-04-12T11:12:16.013Z</time></trkpt><trkpt lat="44.0454799" lon="12.1139239"><ele>305.59999999999997</ele><time>2026-04-12T11:12:17.012Z</time></trkpt><trkpt lat="44.0453801" lon="12.113865"><ele>304.0</ele><time>2026-04-12T11:12:18.016Z</time></trkpt><trkpt lat="44.0452715" lon="12.1138182"><ele>303.0</ele><time>2026-04-12T11:12:19.012Z</time></trkpt><trkpt lat="44.0451475" lon="12.1137811"><ele>302.0</ele><time>2026-04-12T11:12:20.012Z</time></trkpt><trkpt lat="44.0450119" lon="12.1137509"><ele>301.0</ele><time>2026-04-12T11:12:21.013Z</time></trkpt><trkpt lat="44.0448693" lon="12.1137212"><ele>300.0</ele><time>2026-04-12T11:12:22.013Z</time></trkpt><trkpt lat="44.0447244" lon="12.1136887"><ele>300.0</ele><time>2026-04-12T11:12:23.014Z</time></trkpt><trkpt lat="44.0445802" lon="12.1136592"><ele>300.0</ele><time>2026-04-12T11:12:24.011Z</time></trkpt><trkpt lat="44.0444387" lon="12.1136347"><ele>300.0</ele><time>2026-04-12T11:12:25.011Z</time></trkpt><trkpt lat="44.0443029" lon="12.1136054"><ele>300.0</ele><time>2026-04-12T11:12:26.013Z</time></trkpt><trkpt lat="44.0441771" lon="12.1135652"><ele>300.5</ele><time>2026-04-12T11:12:27.014Z</time></trkpt><trkpt lat="44.0440588" lon="12.1135138"><ele>301.0</ele><time>2026-04-12T11:12:28.015Z</time></trkpt><trkpt lat="44.0439403" lon="12.1134512"><ele>301.5</ele><time>2026-04-12T11:12:29.013Z</time></trkpt><trkpt lat="44.0438201" lon="12.1133787"><ele>302.0</ele><time>2026-04-12T11:12:30.016Z</time></trkpt><trkpt lat="44.04371" lon="12.1133002"><ele>301.5</ele><time>2026-04-12T11:12:31.014Z</time></trkpt><trkpt lat="44.0436116" lon="12.1132161"><ele>301.0</ele><time>2026-04-12T11:12:32.012Z</time></trkpt><trkpt lat="44.0435216" lon="12.1131258"><ele>300.5</ele><time>2026-04-12T11:12:33.017Z</time></trkpt><trkpt lat="44.0434382" lon="12.1130246"><ele>300.0</ele><time>2026-04-12T11:12:34.012Z</time></trkpt><trkpt lat="44.0433572" lon="12.112904"><ele>300.5</ele><time>2026-04-12T11:12:35.012Z</time></trkpt><trkpt lat="44.0432752" lon="12.1127661"><ele>301.0</ele><time>2026-04-12T11:12:36.011Z</time></trkpt><trkpt lat="44.0431946" lon="12.112621"><ele>301.5</ele><time>2026-04-12T11:12:37.013Z</time></trkpt><trkpt lat="44.0431204" lon="12.1124824"><ele>302.0</ele><time>2026-04-12T11:12:38.014Z</time></trkpt><trkpt lat="44.04305" lon="12.1123539"><ele>300.0</ele><time>2026-04-12T11:12:39.014Z</time></trkpt><trkpt lat="44.0429807" lon="12.1122375"><ele>298.0</ele><time>2026-04-12T11:12:40.014Z</time></trkpt><trkpt lat="44.0429076" lon="12.112133"><ele>296.0</ele><time>2026-04-12T11:12:41.014Z</time></trkpt><trkpt lat="44.0428229" lon="12.112036"><ele>294.0</ele><time>2026-04-12T11:12:42.012Z</time></trkpt><trkpt lat="44.0427297" lon="12.1119585"><ele>292.0</ele><time>2026-04-12T11:12:43.013Z</time></trkpt><trkpt lat="44.0426217" lon="12.1119022"><ele>292.0</ele><time>2026-04-12T11:12:44.012Z</time></trkpt><trkpt lat="44.0425034" lon="12.1118644"><ele>292.0</ele><time>2026-04-12T11:12:45.014Z</time></trkpt><trkpt lat="44.0423783" lon="12.1118397"><ele>292.0</ele><time>2026-04-12T11:12:46.012Z</time></trkpt><trkpt lat="44.0422544" lon="12.111818"><ele>292.0</ele><time>2026-04-12T11:12:47.015Z</time></trkpt><trkpt lat="44.0421354" lon="12.1117833"><ele>291.75</ele><time>2026-04-12T11:12:48.014Z</time></trkpt><trkpt lat="44.0420172" lon="12.111732"><ele>291.5</ele><time>2026-04-12T11:12:49.012Z</time></trkpt><trkpt lat="44.0419029" lon="12.1116618"><ele>291.25</ele><time>2026-04-12T11:12:50.014Z</time></trkpt><trkpt lat="44.0418007" lon="12.111576"><ele>291.0</ele><time>2026-04-12T11:12:51.013Z</time></trkpt><trkpt lat="44.0417132" lon="12.1114754"><ele>291.75</ele><time>2026-04-12T11:12:52.012Z</time></trkpt><trkpt lat="44.0416363" lon="12.1113492"><ele>292.5</ele><time>2026-04-12T11:12:53.013Z</time></trkpt><trkpt lat="44.0415641" lon="12.1111905"><ele>293.25</ele><time>2026-04-12T11:12:54.013Z</time></trkpt><trkpt lat="44.0414922" lon="12.111016"><ele>294.0</ele><time>2026-04-12T11:12:55.011Z</time></trkpt><trkpt lat="44.0414193" lon="12.1108418"><ele>294.5</ele><time>2026-04-12T11:12:56.012Z</time></trkpt><trkpt lat="44.041348" lon="12.1106904"><ele>295.0</ele><time>2026-04-12T11:12:57.012Z</time></trkpt><trkpt lat="44.0412756" lon="12.1105702"><ele>295.5</ele><time>2026-04-12T11:12:58.013Z</time></trkpt><trkpt lat="44.0411946" lon="12.1104772"><ele>296.0</ele><time>2026-04-12T11:12:59.013Z</time></trkpt><trkpt lat="44.0411021" lon="12.1103997"><ele>296.0</ele><time>2026-04-12T11:13:00.012Z</time></trkpt><trkpt lat="44.0409935" lon="12.1103313"><ele>296.0</ele><time>2026-04-12T11:13:01.014Z</time></trkpt><trkpt lat="44.0408718" lon="12.1102637"><ele>296.0</ele><time>2026-04-12T11:13:02.012Z</time></trkpt><trkpt lat="44.0407355" lon="12.11019"><ele>296.0</ele><time>2026-04-12T11:13:03.012Z</time></trkpt><trkpt lat="44.0405896" lon="12.1101116"><ele>297.25</ele><time>2026-04-12T11:13:04.016Z</time></trkpt><trkpt lat="44.0404471" lon="12.1100387"><ele>298.5</ele><time>2026-04-12T11:13:05.012Z</time></trkpt><trkpt lat="44.0403108" lon="12.1099759"><ele>299.75</ele><time>2026-04-12T11:13:06.014Z</time></trkpt><trkpt lat="44.0401829" lon="12.1099135"><ele>301.0</ele><time>2026-04-12T11:13:07.011Z</time></trkpt><trkpt lat="44.0400625" lon="12.1098448"><ele>302.5</ele><time>2026-04-12T11:13:08.012Z</time></trkpt><trkpt lat="44.0399422" lon="12.1097691"><ele>304.0</ele><time>2026-04-12T11:13:09.016Z</time></trkpt><trkpt lat="44.0398216" lon="12.109686"><ele>305.5</ele><time>2026-04-12T11:13:10.015Z</time></trkpt><trkpt lat="44.0397008" lon="12.1095987"><ele>307.0</ele><time>2026-04-12T11:13:11.012Z</time></trkpt><trkpt lat="44.0395831" lon="12.1095055"><ele>307.0</ele><time>2026-04-12T11:13:12.011Z</time></trkpt><trkpt lat="44.0394663" lon="12.1094142"><ele>307.0</ele><time>2026-04-12T11:13:13.012Z</time></trkpt><trkpt lat="44.0393522" lon="12.1093244"><ele>307.0</ele><time>2026-04-12T11:13:14.014Z</time></trkpt><trkpt lat="44.0392406" lon="12.1092328"><ele>307.0</ele><time>2026-04-12T11:13:15.015Z</time></trkpt><trkpt lat="44.0391324" lon="12.1091477"><ele>308.4</ele><time>2026-04-12T11:13:16.012Z</time></trkpt><trkpt lat="44.0390295" lon="12.1090739"><ele>309.79999999999995</ele><time>2026-04-12T11:13:17.013Z</time></trkpt><trkpt lat="44.0389341" lon="12.109014"><ele>311.2</ele><time>2026-04-12T11:13:18.011Z</time></trkpt><trkpt lat="44.0388468" lon="12.1089774"><ele>312.59999999999997</ele><time>2026-04-12T11:13:19.013Z</time></trkpt><trkpt lat="44.0387655" lon="12.1089641"><ele>314.0</ele><time>2026-04-12T11:13:20.012Z</time></trkpt><trkpt lat="44.0386892" lon="12.1089749"><ele>314.0</ele><time>2026-04-12T11:13:21.014Z</time></trkpt><trkpt lat="44.0386177" lon="12.109013"><ele>314.0</ele><time>2026-04-12T11:13:22.017Z</time></trkpt><trkpt lat="44.0385508" lon="12.1090779"><ele>314.0</ele><time>2026-04-12T11:13:23.012Z</time></trkpt><trkpt lat="44.0385016" lon="12.1091672"><ele>314.0</ele><time>2026-04-12T11:13:24.015Z</time></trkpt><trkpt lat="44.0384411" lon="12.1092652"><ele>314.0</ele><time>2026-04-12T11:13:25.012Z</time></trkpt><trkpt lat="44.0383719" lon="12.1093682"><ele>314.0</ele><time>2026-04-12T11:13:26.013Z</time></trkpt><trkpt lat="44.0382873" lon="12.10947"><ele>319.25</ele><time>2026-04-12T11:13:27.014Z</time></trkpt><trkpt lat="44.0381901" lon="12.1095773"><ele>324.5</ele><time>2026-04-12T11:13:28.012Z</time></trkpt><trkpt lat="44.0380847" lon="12.1096855"><ele>329.75</ele><time>2026-04-12T11:13:29.011Z</time></trkpt><trkpt lat="44.0379784" lon="12.1097838"><ele>335.0</ele><time>2026-04-12T11:13:30.012Z</time></trkpt><trkpt lat="44.0378798" lon="12.1098686"><ele>335.4</ele><time>2026-04-12T11:13:31.012Z</time></trkpt><trkpt lat="44.0377887" lon="12.109935"><ele>335.8</ele><time>2026-04-12T11:13:32.011Z</time></trkpt><trkpt lat="44.037699" lon="12.1099812"><ele>336.20000000000005</ele><time>2026-04-12T11:13:33.014Z</time></trkpt><trkpt lat="44.0376115" lon="12.1100033"><ele>336.6</ele><time>2026-04-12T11:13:34.012Z</time></trkpt><trkpt lat="44.0375219" lon="12.1100082"><ele>337.0</ele><time>2026-04-12T11:13:35.011Z</time></trkpt><trkpt lat="44.0374249" lon="12.110005"><ele>337.0</ele><time>2026-04-12T11:13:36.013Z</time></trkpt><trkpt lat="44.0373196" lon="12.109997"><ele>337.0</ele><time>2026-04-12T11:13:37.012Z</time></trkpt><trkpt lat="44.0372065" lon="12.1099844"><ele>337.0</ele><time>2026-04-12T11:13:38.012Z</time></trkpt><trkpt lat="44.0370938" lon="12.1099762"><ele>337.0</ele><time>2026-04-12T11:13:39.012Z</time></trkpt><trkpt lat="44.0369781" lon="12.1099701"><ele>337.0</ele><time>2026-04-12T11:13:40.012Z</time></trkpt><trkpt lat="44.0368527" lon="12.1099645"><ele>337.0</ele><time>2026-04-12T11:13:41.013Z</time></trkpt><trkpt lat="44.0367153" lon="12.1099693"><ele>337.0</ele><time>2026-04-12T11:13:42.014Z</time></trkpt><trkpt lat="44.0365686" lon="12.1099852"><ele>337.0</ele><time>2026-04-12T11:13:43.011Z</time></trkpt><trkpt lat="44.0364137" lon="12.110012"><ele>337.0</ele><time>2026-04-12T11:13:44.013Z</time></trkpt><trkpt lat="44.0362556" lon="12.1100417"><ele>338.3333333333333</ele><time>2026-04-12T11:13:45.013Z</time></trkpt><trkpt lat="44.0360964" lon="12.1100684"><ele>339.6666666666667</ele><time>2026-04-12T11:13:46.011Z</time></trkpt><trkpt lat="44.0359374" lon="12.1100989"><ele>341.0</ele><time>2026-04-12T11:13:47.012Z</time></trkpt><trkpt lat="44.0357797" lon="12.110137"><ele>342.5</ele><time>2026-04-12T11:13:48.013Z</time></trkpt><trkpt lat="44.0356302" lon="12.1101845"><ele>344.0</ele><time>2026-04-12T11:13:49.013Z</time></trkpt><trkpt lat="44.0354921" lon="12.1102447"><ele>345.5</ele><time>2026-04-12T11:13:50.016Z</time></trkpt><trkpt lat="44.035369" lon="12.110304"><ele>347.0</ele><time>2026-04-12T11:13:51.013Z</time></trkpt><trkpt lat="44.0352575" lon="12.1103516"><ele>347.0</ele><time>2026-04-12T11:13:52.015Z</time></trkpt><trkpt lat="44.0351563" lon="12.1103706"><ele>347.0</ele><time>2026-04-12T11:13:53.012Z</time></trkpt><trkpt lat="44.0350656" lon="12.110364"><ele>347.0</ele><time>2026-04-12T11:13:54.011Z</time></trkpt><trkpt lat="44.0349891" lon="12.1103321"><ele>347.0</ele><time>2026-04-12T11:13:55.011Z</time></trkpt><trkpt lat="44.0349261" lon="12.1102814"><ele>347.0</ele><time>2026-04-12T11:13:56.013Z</time></trkpt><trkpt lat="44.0348797" lon="12.1102144"><ele>347.0</ele><time>2026-04-12T11:13:57.013Z</time></trkpt><trkpt lat="44.0348308" lon="12.1100799"><ele>345.8</ele><time>2026-04-12T11:13:59.013Z</time></trkpt><trkpt lat="44.0347749" lon="12.1100286"><ele>344.6</ele><time>2026-04-12T11:14:01.012Z</time></trkpt><trkpt lat="44.0347047" lon="12.1100663"><ele>343.40000000000003</ele><time>2026-04-12T11:14:03.014Z</time></trkpt><trkpt lat="44.0346283" lon="12.1102165"><ele>342.20000000000005</ele><time>2026-04-12T11:14:05.011Z</time></trkpt><trkpt lat="44.0345727" lon="12.110327"><ele>341.0</ele><time>2026-04-12T11:14:06.012Z</time></trkpt><trkpt lat="44.0345058" lon="12.1104424"><ele>341.0</ele><time>2026-04-12T11:14:07.013Z</time></trkpt><trkpt lat="44.0344316" lon="12.1105597"><ele>341.0</ele><time>2026-04-12T11:14:08.015Z</time></trkpt><trkpt lat="44.0343588" lon="12.110672"><ele>341.0</ele><time>2026-04-12T11:14:09.012Z</time></trkpt><trkpt lat="44.0342886" lon="12.1107778"><ele>341.0</ele><time>2026-04-12T11:14:10.012Z</time></trkpt><trkpt lat="44.0342176" lon="12.1108824"><ele>341.0</ele><time>2026-04-12T11:14:11.013Z</time></trkpt><trkpt lat="44.0341481" lon="12.1109847"><ele>337.0</ele><time>2026-04-12T11:14:12.014Z</time></trkpt><trkpt lat="44.0340799" lon="12.111093"><ele>333.0</ele><time>2026-04-12T11:14:13.013Z</time></trkpt><trkpt lat="44.0340175" lon="12.1112113"><ele>329.0</ele><time>2026-04-12T11:14:14.011Z</time></trkpt><trkpt lat="44.0339635" lon="12.1113401"><ele>325.0</ele><time>2026-04-12T11:14:15.014Z</time></trkpt><trkpt lat="44.0339223" lon="12.1114789"><ele>321.0</ele><time>2026-04-12T11:14:16.012Z</time></trkpt><trkpt lat="44.0338922" lon="12.1116272"><ele>320.40000000000003</ele><time>2026-04-12T11:14:17.013Z</time></trkpt><trkpt lat="44.0338654" lon="12.1117804"><ele>319.8</ele><time>2026-04-12T11:14:18.012Z</time></trkpt><trkpt lat="44.0338398" lon="12.1119207"><ele>319.20000000000005</ele><time>2026-04-12T11:14:19.012Z</time></trkpt><trkpt lat="44.0338151" lon="12.1120479"><ele>318.6</ele><time>2026-04-12T11:14:20.012Z</time></trkpt><trkpt lat="44.0337968" lon="12.1121666"><ele>318.0</ele><time>2026-04-12T11:14:21.014Z</time></trkpt><trkpt lat="44.033782" lon="12.1122795"><ele>318.0</ele><time>2026-04-12T11:14:22.013Z</time></trkpt><trkpt lat="44.0337705" lon="12.1123901"><ele>318.0</ele><time>2026-04-12T11:14:23.012Z</time></trkpt><trkpt lat="44.0337605" lon="12.1124918"><ele>318.0</ele><time>2026-04-12T11:14:24.012Z</time></trkpt><trkpt lat="44.0337492" lon="12.1125879"><ele>318.0</ele><time>2026-04-12T11:14:25.013Z</time></trkpt><trkpt lat="44.0337366" lon="12.1126827"><ele>318.0</ele><time>2026-04-12T11:14:26.011Z</time></trkpt><trkpt lat="44.0337218" lon="12.1127718"><ele>318.0</ele><time>2026-04-12T11:14:27.011Z</time></trkpt><trkpt lat="44.033664" lon="12.1129067"><ele>317.6666666666667</ele><time>2026-04-12T11:14:29.012Z</time></trkpt><trkpt lat="44.0335637" lon="12.1129857"><ele>317.3333333333333</ele><time>2026-04-12T11:14:31.011Z</time></trkpt><trkpt lat="44.0334974" lon="12.1129993"><ele>317.0</ele><time>2026-04-12T11:14:32.012Z</time></trkpt><trkpt lat="44.0334178" lon="12.1129849"><ele>316.66666666666663</ele><time>2026-04-12T11:14:33.013Z</time></trkpt><trkpt lat="44.0333368" lon="12.1129517"><ele>316.3333333333333</ele><time>2026-04-12T11:14:34.013Z</time></trkpt><trkpt lat="44.0332555" lon="12.1129139"><ele>316.0</ele><time>2026-04-12T11:14:35.013Z</time></trkpt><trkpt lat="44.0331775" lon="12.1128769"><ele>312.6</ele><time>2026-04-12T11:14:36.012Z</time></trkpt><trkpt lat="44.0331069" lon="12.1128516"><ele>309.20000000000005</ele><time>2026-04-12T11:14:37.016Z</time></trkpt><trkpt lat="44.0330431" lon="12.1128388"><ele>305.79999999999995</ele><time>2026-04-12T11:14:38.012Z</time></trkpt><trkpt lat="44.0329797" lon="12.1128396"><ele>302.4</ele><time>2026-04-12T11:14:39.012Z</time></trkpt><trkpt lat="44.0328725" lon="12.1129198"><ele>299.0</ele><time>2026-04-12T11:14:41.012Z</time></trkpt><trkpt lat="44.0328399" lon="12.1130907"><ele>299.0</ele><time>2026-04-12T11:14:43.011Z</time></trkpt><trkpt lat="44.0328363" lon="12.1131978"><ele>299.0</ele><time>2026-04-12T11:14:44.011Z</time></trkpt><trkpt lat="44.0328342" lon="12.1133227"><ele>299.0</ele><time>2026-04-12T11:14:45.013Z</time></trkpt><trkpt lat="44.0328183" lon="12.1134584"><ele>299.0</ele><time>2026-04-12T11:14:46.015Z</time></trkpt><trkpt lat="44.0327874" lon="12.113601"><ele>299.0</ele><time>2026-04-12T11:14:47.012Z</time></trkpt><trkpt lat="44.0327394" lon="12.1137485"><ele>298.25</ele><time>2026-04-12T11:14:48.011Z</time></trkpt><trkpt lat="44.0326815" lon="12.1139055"><ele>297.5</ele><time>2026-04-12T11:14:49.011Z</time></trkpt><trkpt lat="44.0326192" lon="12.1140713"><ele>296.75</ele><time>2026-04-12T11:14:50.012Z</time></trkpt><trkpt lat="44.0325557" lon="12.1142459"><ele>296.0</ele><time>2026-04-12T11:14:51.011Z</time></trkpt><trkpt lat="44.0324944" lon="12.1144207"><ele>292.0</ele><time>2026-04-12T11:14:52.014Z</time></trkpt><trkpt lat="44.0324359" lon="12.1145908"><ele>288.0</ele><time>2026-04-12T11:14:53.013Z</time></trkpt><trkpt lat="44.0323745" lon="12.1147471"><ele>284.0</ele><time>2026-04-12T11:14:54.016Z</time></trkpt><trkpt lat="44.0323078" lon="12.1148866"><ele>280.0</ele><time>2026-04-12T11:14:55.013Z</time></trkpt><trkpt lat="44.0322351" lon="12.1150119"><ele>279.5</ele><time>2026-04-12T11:14:56.012Z</time></trkpt><trkpt lat="44.0321545" lon="12.115126"><ele>279.0</ele><time>2026-04-12T11:14:57.014Z</time></trkpt><trkpt lat="44.032073" lon="12.1152433"><ele>278.5</ele><time>2026-04-12T11:14:58.013Z</time></trkpt><trkpt lat="44.0319939" lon="12.1153754"><ele>278.0</ele><time>2026-04-12T11:14:59.013Z</time></trkpt><trkpt lat="44.0319278" lon="12.1155252"><ele>278.0</ele><time>2026-04-12T11:15:00.012Z</time></trkpt><trkpt lat="44.0318754" lon="12.1156962"><ele>278.0</ele><time>2026-04-12T11:15:01.018Z</time></trkpt><trkpt lat="44.031835" lon="12.1158819"><ele>278.0</ele><time>2026-04-12T11:15:02.012Z</time></trkpt><trkpt lat="44.0317979" lon="12.1160763"><ele>278.0</ele><time>2026-04-12T11:15:03.012Z</time></trkpt><trkpt lat="44.0317579" lon="12.1162809"><ele>277.6666666666667</ele><time>2026-04-12T11:15:04.013Z</time></trkpt><trkpt lat="44.0317154" lon="12.1164969"><ele>277.3333333333333</ele><time>2026-04-12T11:15:05.011Z</time></trkpt><trkpt lat="44.0316652" lon="12.1167311"><ele>277.0</ele><time>2026-04-12T11:15:06.016Z</time></trkpt><trkpt lat="44.0316099" lon="12.1169723"><ele>274.0</ele><time>2026-04-12T11:15:07.015Z</time></trkpt><trkpt lat="44.0315569" lon="12.1172009"><ele>271.0</ele><time>2026-04-12T11:15:08.015Z</time></trkpt><trkpt lat="44.0315085" lon="12.1174146"><ele>268.0</ele><time>2026-04-12T11:15:09.013Z</time></trkpt><trkpt lat="44.0314564" lon="12.1176221"><ele>268.0</ele><time>2026-04-12T11:15:10.011Z</time></trkpt><trkpt lat="44.0313978" lon="12.1178243"><ele>268.0</ele><time>2026-04-12T11:15:11.014Z</time></trkpt><trkpt lat="44.0313292" lon="12.1180215"><ele>268.0</ele><time>2026-04-12T11:15:12.012Z</time></trkpt><trkpt lat="44.0312492" lon="12.1182123"><ele>269.3333333333333</ele><time>2026-04-12T11:15:13.013Z</time></trkpt><trkpt lat="44.0311641" lon="12.1184017"><ele>270.6666666666667</ele><time>2026-04-12T11:15:14.012Z</time></trkpt><trkpt lat="44.0310768" lon="12.1185911"><ele>272.0</ele><time>2026-04-12T11:15:15.017Z</time></trkpt><trkpt lat="44.0309918" lon="12.118767"><ele>272.0</ele><time>2026-04-12T11:15:16.012Z</time></trkpt><trkpt lat="44.030912" lon="12.1189284"><ele>272.0</ele><time>2026-04-12T11:15:17.013Z</time></trkpt><trkpt lat="44.0307715" lon="12.1192219"><ele>272.0</ele><time>2026-04-12T11:15:19.014Z</time></trkpt><trkpt lat="44.0307136" lon="12.1193499"><ele>269.6</ele><time>2026-04-12T11:15:20.01Z</time></trkpt><trkpt lat="44.0306579" lon="12.1194694"><ele>267.2</ele><time>2026-04-12T11:15:21.011Z</time></trkpt><trkpt lat="44.0306062" lon="12.1195781"><ele>264.8</ele><time>2026-04-12T11:15:22.011Z</time></trkpt><trkpt lat="44.0305583" lon="12.1196806"><ele>262.4</ele><time>2026-04-12T11:15:23.013Z</time></trkpt><trkpt lat="44.0305092" lon="12.1197769"><ele>260.0</ele><time>2026-04-12T11:15:24.014Z</time></trkpt><trkpt lat="44.03045" lon="12.1198602"><ele>261.6666666666667</ele><time>2026-04-12T11:15:25.012Z</time></trkpt><trkpt lat="44.0303838" lon="12.119921"><ele>263.33333333333337</ele><time>2026-04-12T11:15:26.011Z</time></trkpt><trkpt lat="44.0303101" lon="12.1199558"><ele>265.0</ele><time>2026-04-12T11:15:27.012Z</time></trkpt><trkpt lat="44.0302234" lon="12.1199778"><ele>266.6666666666667</ele><time>2026-04-12T11:15:28.013Z</time></trkpt><trkpt lat="44.0301372" lon="12.1200036"><ele>268.3333333333333</ele><time>2026-04-12T11:15:29.011Z</time></trkpt><trkpt lat="44.0300596" lon="12.1200444"><ele>270.0</ele><time>2026-04-12T11:15:30.012Z</time></trkpt><trkpt lat="44.0299903" lon="12.1200986"><ele>267.8333333333333</ele><time>2026-04-12T11:15:31.013Z</time></trkpt><trkpt lat="44.029931" lon="12.1201642"><ele>265.6666666666667</ele><time>2026-04-12T11:15:32.013Z</time></trkpt><trkpt lat="44.0298818" lon="12.1202489"><ele>263.5</ele><time>2026-04-12T11:15:33.014Z</time></trkpt><trkpt lat="44.0298544" lon="12.1203549"><ele>261.33333333333337</ele><time>2026-04-12T11:15:34.012Z</time></trkpt><trkpt lat="44.0298503" lon="12.1204763"><ele>259.1666666666667</ele><time>2026-04-12T11:15:35.012Z</time></trkpt><trkpt lat="44.0298565" lon="12.1205964"><ele>257.0</ele><time>2026-04-12T11:15:36.012Z</time></trkpt><trkpt lat="44.0298779" lon="12.1207214"><ele>256.8</ele><time>2026-04-12T11:15:37.014Z</time></trkpt><trkpt lat="44.0299114" lon="12.120852"><ele>256.6</ele><time>2026-04-12T11:15:38.012Z</time></trkpt><trkpt lat="44.0299503" lon="12.1209839"><ele>256.40000000000003</ele><time>2026-04-12T11:15:39.014Z</time></trkpt><trkpt lat="44.0299921" lon="12.1211154"><ele>256.2</ele><time>2026-04-12T11:15:40.014Z</time></trkpt><trkpt lat="44.0300405" lon="12.1212494"><ele>256.0</ele><time>2026-04-12T11:15:41.012Z</time></trkpt><trkpt lat="44.0300955" lon="12.121392"><ele>257.0</ele><time>2026-04-12T11:15:42.012Z</time></trkpt><trkpt lat="44.0301589" lon="12.1215415"><ele>258.0</ele><time>2026-04-12T11:15:43.012Z</time></trkpt><trkpt lat="44.0302224" lon="12.1216907"><ele>259.0</ele><time>2026-04-12T11:15:44.012Z</time></trkpt><trkpt lat="44.0302815" lon="12.1218283"><ele>260.0</ele><time>2026-04-12T11:15:45.012Z</time></trkpt><trkpt lat="44.0303433" lon="12.1219587"><ele>260.0</ele><time>2026-04-12T11:15:46.012Z</time></trkpt><trkpt lat="44.0304027" lon="12.1220812"><ele>260.0</ele><time>2026-04-12T11:15:47.012Z</time></trkpt><trkpt lat="44.0304621" lon="12.1222042"><ele>260.0</ele><time>2026-04-12T11:15:48.013Z</time></trkpt><trkpt lat="44.0305138" lon="12.1223202"><ele>260.0</ele><time>2026-04-12T11:15:49.012Z</time></trkpt><trkpt lat="44.0305568" lon="12.1224391"><ele>260.0</ele><time>2026-04-12T11:15:50.011Z</time></trkpt><trkpt lat="44.0305907" lon="12.1225645"><ele>258.0</ele><time>2026-04-12T11:15:51.012Z</time></trkpt><trkpt lat="44.0306122" lon="12.1226904"><ele>256.0</ele><time>2026-04-12T11:15:52.012Z</time></trkpt><trkpt lat="44.0306161" lon="12.1228286"><ele>254.0</ele><time>2026-04-12T11:15:53.012Z</time></trkpt><trkpt lat="44.0306091" lon="12.1229831"><ele>252.0</ele><time>2026-04-12T11:15:54.012Z</time></trkpt><trkpt lat="44.0305991" lon="12.123144"><ele>250.0</ele><time>2026-04-12T11:15:55.013Z</time></trkpt><trkpt lat="44.0305867" lon="12.1232996"><ele>248.33333333333331</ele><time>2026-04-12T11:15:56.013Z</time></trkpt><trkpt lat="44.0305648" lon="12.1234387"><ele>246.66666666666666</ele><time>2026-04-12T11:15:57.012Z</time></trkpt><trkpt lat="44.030527" lon="12.123558"><ele>245.0</ele><time>2026-04-12T11:15:58.013Z</time></trkpt><trkpt lat="44.0304831" lon="12.1236491"><ele>243.33333333333331</ele><time>2026-04-12T11:15:59.013Z</time></trkpt><trkpt lat="44.0304336" lon="12.1237182"><ele>241.66666666666666</ele><time>2026-04-12T11:16:00.014Z</time></trkpt><trkpt lat="44.0303665" lon="12.1237528"><ele>240.0</ele><time>2026-04-12T11:16:01.015Z</time></trkpt><trkpt lat="44.0302501" lon="12.1237117"><ele>240.0</ele><time>2026-04-12T11:16:02.015Z</time></trkpt><trkpt lat="44.0301181" lon="12.1236361"><ele>240.0</ele><time>2026-04-12T11:16:03.012Z</time></trkpt><trkpt lat="44.0299864" lon="12.1235395"><ele>240.0</ele><time>2026-04-12T11:16:04.012Z</time></trkpt><trkpt lat="44.0298602" lon="12.1234377"><ele>240.0</ele><time>2026-04-12T11:16:05.013Z</time></trkpt><trkpt lat="44.029742" lon="12.1233366"><ele>239.8</ele><time>2026-04-12T11:16:06.011Z</time></trkpt><trkpt lat="44.0296462" lon="12.1232476"><ele>239.6</ele><time>2026-04-12T11:16:07.014Z</time></trkpt><trkpt lat="44.0295653" lon="12.1231803"><ele>239.39999999999998</ele><time>2026-04-12T11:16:08.012Z</time></trkpt><trkpt lat="44.0294886" lon="12.1231298"><ele>239.2</ele><time>2026-04-12T11:16:09.013Z</time></trkpt><trkpt lat="44.029378" lon="12.1231848"><ele>239.0</ele><time>2026-04-12T11:16:11.013Z</time></trkpt><trkpt lat="44.0293496" lon="12.1232656"><ele>236.0</ele><time>2026-04-12T11:16:12.013Z</time></trkpt><trkpt lat="44.0293661" lon="12.1234093"><ele>233.0</ele><time>2026-04-12T11:16:13.013Z</time></trkpt><trkpt lat="44.0293907" lon="12.1235814"><ele>230.0</ele><time>2026-04-12T11:16:14.013Z</time></trkpt><trkpt lat="44.029413" lon="12.1237657"><ele>227.0</ele><time>2026-04-12T11:16:15.011Z</time></trkpt><trkpt lat="44.0294326" lon="12.123947"><ele>225.39999999999998</ele><time>2026-04-12T11:16:16.013Z</time></trkpt><trkpt lat="44.0294495" lon="12.1241167"><ele>223.79999999999998</ele><time>2026-04-12T11:16:17.013Z</time></trkpt><trkpt lat="44.0294667" lon="12.124271"><ele>222.2</ele><time>2026-04-12T11:16:18.015Z</time></trkpt><trkpt lat="44.0294839" lon="12.1244127"><ele>220.6</ele><time>2026-04-12T11:16:19.013Z</time></trkpt><trkpt lat="44.0295071" lon="12.1245537"><ele>219.0</ele><time>2026-04-12T11:16:20.094Z</time></trkpt><trkpt lat="44.0295415" lon="12.1246821"><ele>219.0</ele><time>2026-04-12T11:16:21.014Z</time></trkpt><trkpt lat="44.0295936" lon="12.1248125"><ele>218.99999999999997</ele><time>2026-04-12T11:16:22.013Z</time></trkpt><trkpt lat="44.0296569" lon="12.124942"><ele>218.99999999999997</ele><time>2026-04-12T11:16:23.014Z</time></trkpt><trkpt lat="44.0297174" lon="12.1250689"><ele>219.0</ele><time>2026-04-12T11:16:24.013Z</time></trkpt><trkpt lat="44.029767" lon="12.1251925"><ele>219.0</ele><time>2026-04-12T11:16:25.015Z</time></trkpt><trkpt lat="44.0298029" lon="12.1253097"><ele>217.85714285714286</ele><time>2026-04-12T11:16:26.013Z</time></trkpt><trkpt lat="44.0298219" lon="12.1254159"><ele>216.7142857142857</ele><time>2026-04-12T11:16:27.015Z</time></trkpt><trkpt lat="44.0298246" lon="12.1255101"><ele>215.57142857142856</ele><time>2026-04-12T11:16:28.013Z</time></trkpt><trkpt lat="44.0297975" lon="12.125592"><ele>214.42857142857144</ele><time>2026-04-12T11:16:29.013Z</time></trkpt><trkpt lat="44.0297252" lon="12.1256412"><ele>213.28571428571428</ele><time>2026-04-12T11:16:30.013Z</time></trkpt><trkpt lat="44.0296467" lon="12.1256671"><ele>212.14285714285714</ele><time>2026-04-12T11:16:31.015Z</time></trkpt><trkpt lat="44.0295711" lon="12.1256502"><ele>211.0</ele><time>2026-04-12T11:16:32.015Z</time></trkpt><trkpt lat="44.029499" lon="12.1256022"><ele>210.99999999999997</ele><time>2026-04-12T11:16:33.014Z</time></trkpt><trkpt lat="44.0294331" lon="12.1255618"><ele>211.0</ele><time>2026-04-12T11:16:34.012Z</time></trkpt><trkpt lat="44.0293391" lon="12.1255579"><ele>211.0</ele><time>2026-04-12T11:16:36.014Z</time></trkpt><trkpt lat="44.0293491" lon="12.1256996"><ele>211.0</ele><time>2026-04-12T11:16:38.016Z</time></trkpt><trkpt lat="44.0294004" lon="12.1257887"><ele>210.99999999999997</ele><time>2026-04-12T11:16:39.013Z</time></trkpt><trkpt lat="44.0294402" lon="12.1258841"><ele>211.0</ele><time>2026-04-12T11:16:40.013Z</time></trkpt><trkpt lat="44.0294609" lon="12.1259828"><ele>209.33333333333331</ele><time>2026-04-12T11:16:41.013Z</time></trkpt><trkpt lat="44.0294391" lon="12.1260655"><ele>207.66666666666666</ele><time>2026-04-12T11:16:42.013Z</time></trkpt><trkpt lat="44.0293761" lon="12.1261014"><ele>206.0</ele><time>2026-04-12T11:16:43.013Z</time></trkpt><trkpt lat="44.0292984" lon="12.126101"><ele>204.33333333333331</ele><time>2026-04-12T11:16:44.013Z</time></trkpt><trkpt lat="44.0292028" lon="12.1260806"><ele>202.66666666666666</ele><time>2026-04-12T11:16:45.015Z</time></trkpt><trkpt lat="44.0290988" lon="12.1260601"><ele>201.0</ele><time>2026-04-12T11:16:46.012Z</time></trkpt><trkpt lat="44.0289974" lon="12.1260533"><ele>198.4</ele><time>2026-04-12T11:16:47.012Z</time></trkpt><trkpt lat="44.0288989" lon="12.1260432"><ele>195.8</ele><time>2026-04-12T11:16:48.014Z</time></trkpt><trkpt lat="44.0288026" lon="12.1260215"><ele>193.20000000000002</ele><time>2026-04-12T11:16:49.015Z</time></trkpt><trkpt lat="44.0287099" lon="12.1259933"><ele>190.60000000000002</ele><time>2026-04-12T11:16:50.014Z</time></trkpt><trkpt lat="44.0286197" lon="12.1259626"><ele>188.0</ele><time>2026-04-12T11:16:51.015Z</time></trkpt><trkpt lat="44.02853" lon="12.1259299"><ele>188.0</ele><time>2026-04-12T11:16:52.013Z</time></trkpt><trkpt lat="44.0284394" lon="12.1258881"><ele>188.0</ele><time>2026-04-12T11:16:53.015Z</time></trkpt><trkpt lat="44.0283491" lon="12.1258443"><ele>188.0</ele><time>2026-04-12T11:16:54.014Z</time></trkpt><trkpt lat="44.0282618" lon="12.1258028"><ele>188.0</ele><time>2026-04-12T11:16:55.014Z</time></trkpt><trkpt lat="44.0281757" lon="12.1257663"><ele>188.0</ele><time>2026-04-12T11:16:56.012Z</time></trkpt><trkpt lat="44.0280905" lon="12.1257315"><ele>186.2</ele><time>2026-04-12T11:16:57.013Z</time></trkpt><trkpt lat="44.027999" lon="12.1257012"><ele>184.4</ele><time>2026-04-12T11:16:58.013Z</time></trkpt><trkpt lat="44.0279038" lon="12.1256784"><ele>182.6</ele><time>2026-04-12T11:16:59.015Z</time></trkpt><trkpt lat="44.0278013" lon="12.1256754"><ele>180.79999999999998</ele><time>2026-04-12T11:17:00.014Z</time></trkpt><trkpt lat="44.0276939" lon="12.1256946"><ele>179.0</ele><time>2026-04-12T11:17:01.013Z</time></trkpt><trkpt lat="44.0275874" lon="12.1257459"><ele>179.0</ele><time>2026-04-12T11:17:02.015Z</time></trkpt><trkpt lat="44.0274822" lon="12.1258392"><ele>179.0</ele><time>2026-04-12T11:17:03.013Z</time></trkpt><trkpt lat="44.027379" lon="12.1259653"><ele>179.0</ele><time>2026-04-12T11:17:04.013Z</time></trkpt><trkpt lat="44.0272801" lon="12.1261039"><ele>179.0</ele><time>2026-04-12T11:17:05.014Z</time></trkpt><trkpt lat="44.0271862" lon="12.1262351"><ele>175.5</ele><time>2026-04-12T11:17:06.019Z</time></trkpt><trkpt lat="44.0270885" lon="12.1263467"><ele>172.0</ele><time>2026-04-12T11:17:07.012Z</time></trkpt><trkpt lat="44.0269856" lon="12.126437"><ele>168.5</ele><time>2026-04-12T11:17:08.012Z</time></trkpt><trkpt lat="44.0268761" lon="12.1265034"><ele>165.0</ele><time>2026-04-12T11:17:09.012Z</time></trkpt><trkpt lat="44.026757" lon="12.1265447"><ele>162.6</ele><time>2026-04-12T11:17:10.012Z</time></trkpt><trkpt lat="44.0266397" lon="12.1265712"><ele>160.2</ele><time>2026-04-12T11:17:11.014Z</time></trkpt><trkpt lat="44.0265363" lon="12.1265991"><ele>157.8</ele><time>2026-04-12T11:17:12.013Z</time></trkpt><trkpt lat="44.0264481" lon="12.1266439"><ele>155.4</ele><time>2026-04-12T11:17:13.013Z</time></trkpt><trkpt lat="44.0263823" lon="12.1267192"><ele>153.0</ele><time>2026-04-12T11:17:14.012Z</time></trkpt><trkpt lat="44.0263328" lon="12.1268187"><ele>153.0</ele><time>2026-04-12T11:17:15.013Z</time></trkpt><trkpt lat="44.0263228" lon="12.1269515"><ele>153.0</ele><time>2026-04-12T11:17:16.017Z</time></trkpt><trkpt lat="44.026341" lon="12.1271105"><ele>153.0</ele><time>2026-04-12T11:17:17.013Z</time></trkpt><trkpt lat="44.0263876" lon="12.1272819"><ele>153.0</ele><time>2026-04-12T11:17:18.014Z</time></trkpt><trkpt lat="44.0264481" lon="12.1274547"><ele>152.0</ele><time>2026-04-12T11:17:19.018Z</time></trkpt><trkpt lat="44.0265163" lon="12.1276114"><ele>151.0</ele><time>2026-04-12T11:17:20.012Z</time></trkpt><trkpt lat="44.0265964" lon="12.1277618"><ele>150.0</ele><time>2026-04-12T11:17:21.013Z</time></trkpt><trkpt lat="44.0266943" lon="12.1279123"><ele>149.0</ele><time>2026-04-12T11:17:22.013Z</time></trkpt><trkpt lat="44.0268001" lon="12.1280648"><ele>149.5</ele><time>2026-04-12T11:17:23.012Z</time></trkpt><trkpt lat="44.0269055" lon="12.1282097"><ele>150.0</ele><time>2026-04-12T11:17:24.017Z</time></trkpt><trkpt lat="44.0270076" lon="12.1283551"><ele>150.5</ele><time>2026-04-12T11:17:25.012Z</time></trkpt><trkpt lat="44.0271074" lon="12.1284975"><ele>151.0</ele><time>2026-04-12T11:17:26.011Z</time></trkpt><trkpt lat="44.0272092" lon="12.1286248"><ele>151.0</ele><time>2026-04-12T11:17:27.013Z</time></trkpt><trkpt lat="44.0273165" lon="12.1287392"><ele>151.0</ele><time>2026-04-12T11:17:28.012Z</time></trkpt><trkpt lat="44.0274201" lon="12.1288464"><ele>151.0</ele><time>2026-04-12T11:17:29.011Z</time></trkpt><trkpt lat="44.0275265" lon="12.1289515"><ele>151.0</ele><time>2026-04-12T11:17:30.011Z</time></trkpt><trkpt lat="44.0276403" lon="12.1290518"><ele>148.0</ele><time>2026-04-12T11:17:31.01Z</time></trkpt><trkpt lat="44.0277642" lon="12.1291329"><ele>145.0</ele><time>2026-04-12T11:17:32.013Z</time></trkpt><trkpt lat="44.02789" lon="12.1291803"><ele>142.0</ele><time>2026-04-12T11:17:33.014Z</time></trkpt><trkpt lat="44.0280064" lon="12.1292032"><ele>139.0</ele><time>2026-04-12T11:17:34.015Z</time></trkpt><trkpt lat="44.0281072" lon="12.1292251"><ele>139.0</ele><time>2026-04-12T11:17:35.014Z</time></trkpt><trkpt lat="44.0281866" lon="12.1292705"><ele>139.0</ele><time>2026-04-12T11:17:36.013Z</time></trkpt><trkpt lat="44.0282479" lon="12.1293354"><ele>139.0</ele><time>2026-04-12T11:17:37.013Z</time></trkpt><trkpt lat="44.0282838" lon="12.1294125"><ele>139.0</ele><time>2026-04-12T11:17:38.013Z</time></trkpt><trkpt lat="44.0282988" lon="12.1295019"><ele>139.0</ele><time>2026-04-12T11:17:39.015Z</time></trkpt><trkpt lat="44.0282702" lon="12.1295882"><ele>139.0</ele><time>2026-04-12T11:17:40.012Z</time></trkpt><trkpt lat="44.0281886" lon="12.1296657"><ele>139.0</ele><time>2026-04-12T11:17:41.013Z</time></trkpt><trkpt lat="44.0280727" lon="12.1297255"><ele>139.0</ele><time>2026-04-12T11:17:42.012Z</time></trkpt><trkpt lat="44.0279661" lon="12.1297842"><ele>139.0</ele><time>2026-04-12T11:17:43.015Z</time></trkpt><trkpt lat="44.0279047" lon="12.1298631"><ele>139.0</ele><time>2026-04-12T11:17:44.014Z</time></trkpt><trkpt lat="44.0278838" lon="12.1299464"><ele>139.0</ele><time>2026-04-12T11:17:45.012Z</time></trkpt><trkpt lat="44.0279591" lon="12.130089"><ele>137.16666666666669</ele><time>2026-04-12T11:17:47.012Z</time></trkpt><trkpt lat="44.0280355" lon="12.1301578"><ele>135.33333333333334</ele><time>2026-04-12T11:17:48.016Z</time></trkpt><trkpt lat="44.028093" lon="12.1302355"><ele>133.5</ele><time>2026-04-12T11:17:49.013Z</time></trkpt><trkpt lat="44.0281247" lon="12.1303219"><ele>131.66666666666666</ele><time>2026-04-12T11:17:50.014Z</time></trkpt><trkpt lat="44.0281106" lon="12.1304805"><ele>129.83333333333331</ele><time>2026-04-12T11:17:52.013Z</time></trkpt><trkpt lat="44.0280616" lon="12.1305429"><ele>128.0</ele><time>2026-04-12T11:17:53.014Z</time></trkpt><trkpt lat="44.027986" lon="12.1306117"><ele>128.0</ele><time>2026-04-12T11:17:54.013Z</time></trkpt><trkpt lat="44.0278834" lon="12.1306683"><ele>128.0</ele><time>2026-04-12T11:17:55.016Z</time></trkpt><trkpt lat="44.0276152" lon="12.1306528"><ele>128.0</ele><time>2026-04-12T11:17:56.015Z</time></trkpt><trkpt lat="44.0274218" lon="12.1306381"><ele>127.0</ele><time>2026-04-12T11:17:57.013Z</time></trkpt><trkpt lat="44.027265" lon="12.1306152"><ele>126.0</ele><time>2026-04-12T11:17:58.012Z</time></trkpt><trkpt lat="44.0271329" lon="12.1305914"><ele>125.0</ele><time>2026-04-12T11:17:59.013Z</time></trkpt><trkpt lat="44.027014" lon="12.1305562"><ele>124.0</ele><time>2026-04-12T11:18:00.013Z</time></trkpt><trkpt lat="44.0269142" lon="12.1305214"><ele>124.00000000000001</ele><time>2026-04-12T11:18:01.013Z</time></trkpt><trkpt lat="44.0268324" lon="12.1304919"><ele>124.0</ele><time>2026-04-12T11:18:02.015Z</time></trkpt><trkpt lat="44.0267345" lon="12.1304601"><ele>124.0</ele><time>2026-04-12T11:18:04.013Z</time></trkpt><trkpt lat="44.0266721" lon="12.1304192"><ele>124.0</ele><time>2026-04-12T11:18:07.014Z</time></trkpt><trkpt lat="44.026605" lon="12.1304317"><ele>124.00000000000001</ele><time>2026-04-12T11:18:23.013Z</time></trkpt><trkpt lat="44.0265117" lon="12.130395"><ele>124.0</ele><time>2026-04-12T11:18:24.016Z</time></trkpt><trkpt lat="44.026415" lon="12.1303533"><ele>122.5</ele><time>2026-04-12T11:18:25.011Z</time></trkpt><trkpt lat="44.0263017" lon="12.1303183"><ele>121.0</ele><time>2026-04-12T11:18:26.011Z</time></trkpt><trkpt lat="44.026175" lon="12.1302683"><ele>119.5</ele><time>2026-04-12T11:18:27.014Z</time></trkpt><trkpt lat="44.0260217" lon="12.1302133"><ele>118.0</ele><time>2026-04-12T11:18:28.013Z</time></trkpt><trkpt lat="44.0258633" lon="12.1301533"><ele>117.0</ele><time>2026-04-12T11:18:29.012Z</time></trkpt><trkpt lat="44.0257167" lon="12.1300733"><ele>116.0</ele><time>2026-04-12T11:18:30.013Z</time></trkpt><trkpt lat="44.0255833" lon="12.1299917"><ele>115.0</ele><time>2026-04-12T11:18:31.015Z</time></trkpt><trkpt lat="44.025465" lon="12.1298767"><ele>114.0</ele><time>2026-04-12T11:18:32.013Z</time></trkpt><trkpt lat="44.025345" lon="12.1297217"><ele>114.0</ele><time>2026-04-12T11:18:33.013Z</time></trkpt><trkpt lat="44.0252367" lon="12.1295217"><ele>114.0</ele><time>2026-04-12T11:18:34.015Z</time></trkpt><trkpt lat="44.025135" lon="12.129295"><ele>114.0</ele><time>2026-04-12T11:18:35.015Z</time></trkpt><trkpt lat="44.0250283" lon="12.12907"><ele>114.33333333333334</ele><time>2026-04-12T11:18:36.012Z</time></trkpt><trkpt lat="44.0249133" lon="12.1288517"><ele>114.66666666666667</ele><time>2026-04-12T11:18:37.014Z</time></trkpt><trkpt lat="44.024795" lon="12.128655"><ele>115.0</ele><time>2026-04-12T11:18:38.016Z</time></trkpt><trkpt lat="44.02467" lon="12.128475"><ele>115.0</ele><time>2026-04-12T11:18:39.013Z</time></trkpt><trkpt lat="44.024535" lon="12.12831"><ele>115.0</ele><time>2026-04-12T11:18:40.013Z</time></trkpt><trkpt lat="44.024395" lon="12.12816"><ele>115.0</ele><time>2026-04-12T11:18:41.014Z</time></trkpt><trkpt lat="44.02426" lon="12.1280217"><ele>115.25</ele><time>2026-04-12T11:18:42.013Z</time></trkpt><trkpt lat="44.0241367" lon="12.1278917"><ele>115.5</ele><time>2026-04-12T11:18:43.015Z</time></trkpt><trkpt lat="44.0240217" lon="12.127775"><ele>115.75</ele><time>2026-04-12T11:18:44.013Z</time></trkpt><trkpt lat="44.023915" lon="12.1276633"><ele>116.0</ele><time>2026-04-12T11:18:45.013Z</time></trkpt><trkpt lat="44.0238167" lon="12.1275533"><ele>116.0</ele><time>2026-04-12T11:18:46.014Z</time></trkpt><trkpt lat="44.02372" lon="12.1274533"><ele>116.0</ele><time>2026-04-12T11:18:47.014Z</time></trkpt><trkpt lat="44.0236283" lon="12.12736"><ele>116.0</ele><time>2026-04-12T11:18:48.015Z</time></trkpt><trkpt lat="44.0235367" lon="12.1272717"><ele>116.0</ele><time>2026-04-12T11:18:49.013Z</time></trkpt><trkpt lat="44.0234517" lon="12.1271783"><ele>116.0</ele><time>2026-04-12T11:18:50.014Z</time></trkpt><trkpt lat="44.023365" lon="12.12708"><ele>116.0</ele><time>2026-04-12T11:18:51.014Z</time></trkpt><trkpt lat="44.02327" lon="12.1269733"><ele>116.0</ele><time>2026-04-12T11:18:52.012Z</time></trkpt><trkpt lat="44.0231583" lon="12.1268617"><ele>116.0</ele><time>2026-04-12T11:18:53.018Z</time></trkpt><trkpt lat="44.0230383" lon="12.1267367"><ele>116.33333333333333</ele><time>2026-04-12T11:18:54.013Z</time></trkpt><trkpt lat="44.0229083" lon="12.1266"><ele>116.66666666666666</ele><time>2026-04-12T11:18:55.016Z</time></trkpt><trkpt lat="44.0227617" lon="12.1264567"><ele>117.0</ele><time>2026-04-12T11:18:56.016Z</time></trkpt><trkpt lat="44.02261" lon="12.1263017"><ele>117.66666666666666</ele><time>2026-04-12T11:18:57.012Z</time></trkpt><trkpt lat="44.0224483" lon="12.1261383"><ele>118.33333333333333</ele><time>2026-04-12T11:18:58.014Z</time></trkpt><trkpt lat="44.0222833" lon="12.1259583"><ele>119.0</ele><time>2026-04-12T11:18:59.013Z</time></trkpt><trkpt lat="44.0221117" lon="12.1257767"><ele>122.5</ele><time>2026-04-12T11:19:00.014Z</time></trkpt><trkpt lat="44.021935" lon="12.1255883"><ele>126.0</ele><time>2026-04-12T11:19:01.014Z</time></trkpt><trkpt lat="44.02175" lon="12.1254"><ele>123.0</ele><time>2026-04-12T11:19:02.013Z</time></trkpt><trkpt lat="44.0215617" lon="12.1252117"><ele>120.0</ele><time>2026-04-12T11:19:03.011Z</time></trkpt><trkpt lat="44.021385" lon="12.1250283"><ele>123.0</ele><time>2026-04-12T11:19:04.011Z</time></trkpt><trkpt lat="44.0212124" lon="12.1248587"><ele>126.0</ele><time>2026-04-12T11:19:05.012Z</time></trkpt><trkpt lat="44.0210453" lon="12.1246902"><ele>129.0</ele><time>2026-04-12T11:19:06.012Z</time></trkpt><trkpt lat="44.0208768" lon="12.1245176"><ele>130.66666666666666</ele><time>2026-04-12T11:19:07.011Z</time></trkpt><trkpt lat="44.0207063" lon="12.1243425"><ele>132.33333333333331</ele><time>2026-04-12T11:19:08.016Z</time></trkpt><trkpt lat="44.0205387" lon="12.1241666"><ele>134.0</ele><time>2026-04-12T11:19:09.011Z</time></trkpt><trkpt lat="44.020368" lon="12.1239898"><ele>134.0</ele><time>2026-04-12T11:19:10.014Z</time></trkpt><trkpt lat="44.0201976" lon="12.1238085"><ele>134.0</ele><time>2026-04-12T11:19:11.011Z</time></trkpt><trkpt lat="44.0200203" lon="12.1236243"><ele>134.0</ele><time>2026-04-12T11:19:12.012Z</time></trkpt><trkpt lat="44.019842" lon="12.1234455"><ele>132.33333333333331</ele><time>2026-04-12T11:19:13.013Z</time></trkpt><trkpt lat="44.0196709" lon="12.1232686"><ele>130.66666666666666</ele><time>2026-04-12T11:19:14.015Z</time></trkpt><trkpt lat="44.01951" lon="12.1231028"><ele>129.0</ele><time>2026-04-12T11:19:15.013Z</time></trkpt><trkpt lat="44.019355" lon="12.1229479"><ele>129.0</ele><time>2026-04-12T11:19:16.011Z</time></trkpt><trkpt lat="44.0191996" lon="12.1227903"><ele>129.0</ele><time>2026-04-12T11:19:17.012Z</time></trkpt><trkpt lat="44.0190393" lon="12.122629"><ele>129.0</ele><time>2026-04-12T11:19:18.012Z</time></trkpt><trkpt lat="44.0188832" lon="12.1224625"><ele>130.0</ele><time>2026-04-12T11:19:19.012Z</time></trkpt><trkpt lat="44.0187237" lon="12.1223008"><ele>131.0</ele><time>2026-04-12T11:19:20.015Z</time></trkpt><trkpt lat="44.0185531" lon="12.122158"><ele>132.0</ele><time>2026-04-12T11:19:21.013Z</time></trkpt><trkpt lat="44.0183793" lon="12.1220583"><ele>130.66666666666666</ele><time>2026-04-12T11:19:22.013Z</time></trkpt><trkpt lat="44.0182062" lon="12.1219879"><ele>129.33333333333331</ele><time>2026-04-12T11:19:23.016Z</time></trkpt><trkpt lat="44.0180419" lon="12.1219304"><ele>128.0</ele><time>2026-04-12T11:19:24.012Z</time></trkpt><trkpt lat="44.0178845" lon="12.1218751"><ele>128.0</ele><time>2026-04-12T11:19:25.011Z</time></trkpt><trkpt lat="44.0177284" lon="12.121819"><ele>128.0</ele><time>2026-04-12T11:19:26.011Z</time></trkpt><trkpt lat="44.0175701" lon="12.1217618"><ele>128.0</ele><time>2026-04-12T11:19:27.01Z</time></trkpt><trkpt lat="44.0174074" lon="12.121697"><ele>127.33333333333333</ele><time>2026-04-12T11:19:28.014Z</time></trkpt><trkpt lat="44.0172344" lon="12.1216339"><ele>126.66666666666666</ele><time>2026-04-12T11:19:29.014Z</time></trkpt><trkpt lat="44.0170542" lon="12.1215686"><ele>126.0</ele><time>2026-04-12T11:19:30.011Z</time></trkpt><trkpt lat="44.0168698" lon="12.1214983"><ele>127.33333333333334</ele><time>2026-04-12T11:19:31.014Z</time></trkpt><trkpt lat="44.0166839" lon="12.121429"><ele>128.66666666666669</ele><time>2026-04-12T11:19:32.013Z</time></trkpt><trkpt lat="44.0164968" lon="12.121359"><ele>130.0</ele><time>2026-04-12T11:19:33.017Z</time></trkpt><trkpt lat="44.0163115" lon="12.1212889"><ele>130.0</ele><time>2026-04-12T11:19:34.015Z</time></trkpt><trkpt lat="44.0161264" lon="12.1212103"><ele>130.0</ele><time>2026-04-12T11:19:35.013Z</time></trkpt><trkpt lat="44.0159403" lon="12.1211159"><ele>130.0</ele><time>2026-04-12T11:19:36.012Z</time></trkpt><trkpt lat="44.0157562" lon="12.1209977"><ele>129.0</ele><time>2026-04-12T11:19:37.014Z</time></trkpt><trkpt lat="44.0155727" lon="12.1208571"><ele>128.0</ele><time>2026-04-12T11:19:38.014Z</time></trkpt><trkpt lat="44.0153914" lon="12.1207036"><ele>127.0</ele><time>2026-04-12T11:19:39.013Z</time></trkpt><trkpt lat="44.01521" lon="12.1205523"><ele>127.0</ele><time>2026-04-12T11:19:40.011Z</time></trkpt><trkpt lat="44.0150236" lon="12.1204089"><ele>127.0</ele><time>2026-04-12T11:19:41.014Z</time></trkpt><trkpt lat="44.0148358" lon="12.1202693"><ele>127.0</ele><time>2026-04-12T11:19:42.011Z</time></trkpt><trkpt lat="44.0146474" lon="12.1201261"><ele>126.66666666666667</ele><time>2026-04-12T11:19:43.014Z</time></trkpt><trkpt lat="44.014456" lon="12.1199765"><ele>126.33333333333334</ele><time>2026-04-12T11:19:44.015Z</time></trkpt><trkpt lat="44.0142575" lon="12.1198269"><ele>126.0</ele><time>2026-04-12T11:19:45.012Z</time></trkpt><trkpt lat="44.0140554" lon="12.1196759"><ele>126.0</ele><time>2026-04-12T11:19:46.013Z</time></trkpt><trkpt lat="44.0138556" lon="12.1195219"><ele>126.0</ele><time>2026-04-12T11:19:47.012Z</time></trkpt><trkpt lat="44.0136567" lon="12.1193695"><ele>126.0</ele><time>2026-04-12T11:19:48.012Z</time></trkpt><trkpt lat="44.0134607" lon="12.1192179"><ele>126.0</ele><time>2026-04-12T11:19:49.011Z</time></trkpt><trkpt lat="44.0132629" lon="12.1190659"><ele>126.5</ele><time>2026-04-12T11:19:50.013Z</time></trkpt><trkpt lat="44.0130668" lon="12.1189124"><ele>127.0</ele><time>2026-04-12T11:19:51.012Z</time></trkpt><trkpt lat="44.0128707" lon="12.1187581"><ele>127.0</ele><time>2026-04-12T11:19:52.011Z</time></trkpt><trkpt lat="44.012674" lon="12.1186053"><ele>127.0</ele><time>2026-04-12T11:19:53.012Z</time></trkpt><trkpt lat="44.0124828" lon="12.118455"><ele>127.0</ele><time>2026-04-12T11:19:54.012Z</time></trkpt><trkpt lat="44.0122992" lon="12.1183159"><ele>128.0</ele><time>2026-04-12T11:19:55.012Z</time></trkpt><trkpt lat="44.0121269" lon="12.1181867"><ele>129.0</ele><time>2026-04-12T11:19:56.015Z</time></trkpt><trkpt lat="44.0119636" lon="12.1180592"><ele>130.0</ele><time>2026-04-12T11:19:57.012Z</time></trkpt><trkpt lat="44.0118002" lon="12.117934"><ele>130.66666666666669</ele><time>2026-04-12T11:19:58.012Z</time></trkpt><trkpt lat="44.0116365" lon="12.117806"><ele>131.33333333333334</ele><time>2026-04-12T11:19:59.013Z</time></trkpt><trkpt lat="44.0114724" lon="12.1176779"><ele>132.0</ele><time>2026-04-12T11:20:00.011Z</time></trkpt><trkpt lat="44.0113077" lon="12.1175488"><ele>132.0</ele><time>2026-04-12T11:20:01.017Z</time></trkpt><trkpt lat="44.0111345" lon="12.1174225"><ele>132.0</ele><time>2026-04-12T11:20:02.012Z</time></trkpt><trkpt lat="44.0109609" lon="12.1172936"><ele>132.0</ele><time>2026-04-12T11:20:03.012Z</time></trkpt><trkpt lat="44.010787" lon="12.1171616"><ele>133.0</ele><time>2026-04-12T11:20:04.017Z</time></trkpt><trkpt lat="44.0105263" lon="12.1170729"><ele>134.0</ele><time>2026-04-12T11:20:05.531Z</time></trkpt><trkpt lat="44.0102376" lon="12.11693"><ele>134.5</ele><time>2026-04-12T11:20:06.711Z</time></trkpt><trkpt lat="44.0098327" lon="12.1167002"><ele>135.0</ele><time>2026-04-12T11:20:09.013Z</time></trkpt><trkpt lat="44.0096869" lon="12.1166526"><ele>135.0</ele><time>2026-04-12T11:20:10.013Z</time></trkpt><trkpt lat="44.0095311" lon="12.1166037"><ele>135.0</ele><time>2026-04-12T11:20:11.014Z</time></trkpt><trkpt lat="44.0093836" lon="12.1165759"><ele>135.0</ele><time>2026-04-12T11:20:12.013Z</time></trkpt><trkpt lat="44.0092338" lon="12.11657"><ele>135.33333333333334</ele><time>2026-04-12T11:20:13.013Z</time></trkpt><trkpt lat="44.0090787" lon="12.1165841"><ele>135.66666666666669</ele><time>2026-04-12T11:20:14.011Z</time></trkpt><trkpt lat="44.0089103" lon="12.1166185"><ele>136.0</ele><time>2026-04-12T11:20:15.011Z</time></trkpt><trkpt lat="44.0087375" lon="12.116666"><ele>136.0</ele><time>2026-04-12T11:20:16.013Z</time></trkpt><trkpt lat="44.008567" lon="12.1167193"><ele>136.0</ele><time>2026-04-12T11:20:17.012Z</time></trkpt><trkpt lat="44.0084064" lon="12.1167671"><ele>136.0</ele><time>2026-04-12T11:20:18.012Z</time></trkpt><trkpt lat="44.0082539" lon="12.1168108"><ele>136.25</ele><time>2026-04-12T11:20:19.012Z</time></trkpt><trkpt lat="44.0081096" lon="12.116857"><ele>136.5</ele><time>2026-04-12T11:20:20.013Z</time></trkpt><trkpt lat="44.0079763" lon="12.1169022"><ele>136.75</ele><time>2026-04-12T11:20:21.015Z</time></trkpt><trkpt lat="44.0078476" lon="12.1169507"><ele>137.0</ele><time>2026-04-12T11:20:22.014Z</time></trkpt><trkpt lat="44.0077246" lon="12.1169963"><ele>137.0</ele><time>2026-04-12T11:20:23.012Z</time></trkpt><trkpt lat="44.0076005" lon="12.1170439"><ele>137.0</ele><time>2026-04-12T11:20:24.015Z</time></trkpt><trkpt lat="44.0074716" lon="12.1170898"><ele>137.0</ele><time>2026-04-12T11:20:25.012Z</time></trkpt><trkpt lat="44.0073332" lon="12.117114"><ele>137.0</ele><time>2026-04-12T11:20:26.014Z</time></trkpt><trkpt lat="44.0071851" lon="12.1171264"><ele>138.0</ele><time>2026-04-12T11:20:27.012Z</time></trkpt><trkpt lat="44.0070313" lon="12.1171354"><ele>139.0</ele><time>2026-04-12T11:20:28.012Z</time></trkpt><trkpt lat="44.0068715" lon="12.1171409"><ele>140.0</ele><time>2026-04-12T11:20:29.014Z</time></trkpt><trkpt lat="44.0067038" lon="12.1171418"><ele>141.0</ele><time>2026-04-12T11:20:30.012Z</time></trkpt><trkpt lat="44.0065204" lon="12.117129"><ele>142.0</ele><time>2026-04-12T11:20:31.012Z</time></trkpt><trkpt lat="44.0063235" lon="12.1171007"><ele>143.0</ele><time>2026-04-12T11:20:32.015Z</time></trkpt><trkpt lat="44.0061217" lon="12.1170636"><ele>143.0</ele><time>2026-04-12T11:20:33.017Z</time></trkpt><trkpt lat="44.0059147" lon="12.117021"><ele>143.0</ele><time>2026-04-12T11:20:34.012Z</time></trkpt><trkpt lat="44.0057014" lon="12.1169703"><ele>143.0</ele><time>2026-04-12T11:20:35.013Z</time></trkpt><trkpt lat="44.0054962" lon="12.1169144"><ele>142.66666666666666</ele><time>2026-04-12T11:20:36.014Z</time></trkpt><trkpt lat="44.0053025" lon="12.1168364"><ele>142.33333333333334</ele><time>2026-04-12T11:20:37.013Z</time></trkpt><trkpt lat="44.0051149" lon="12.1167196"><ele>142.0</ele><time>2026-04-12T11:20:38.015Z</time></trkpt><trkpt lat="44.004932" lon="12.1165711"><ele>142.66666666666669</ele><time>2026-04-12T11:20:39.012Z</time></trkpt><trkpt lat="44.0047442" lon="12.1163934"><ele>143.33333333333334</ele><time>2026-04-12T11:20:40.09Z</time></trkpt><trkpt lat="44.0045611" lon="12.116221"><ele>144.0</ele><time>2026-04-12T11:20:41.013Z</time></trkpt><trkpt lat="44.004371" lon="12.1160393"><ele>144.0</ele><time>2026-04-12T11:20:42.012Z</time></trkpt><trkpt lat="44.0041946" lon="12.1158575"><ele>144.0</ele><time>2026-04-12T11:20:43.013Z</time></trkpt><trkpt lat="44.00403" lon="12.1156845"><ele>144.0</ele><time>2026-04-12T11:20:44.011Z</time></trkpt><trkpt lat="44.0038924" lon="12.1154917"><ele>144.33333333333334</ele><time>2026-04-12T11:20:45.012Z</time></trkpt><trkpt lat="44.0037791" lon="12.1152758"><ele>144.66666666666669</ele><time>2026-04-12T11:20:46.013Z</time></trkpt><trkpt lat="44.0036919" lon="12.1150298"><ele>145.0</ele><time>2026-04-12T11:20:47.016Z</time></trkpt><trkpt lat="44.0036194" lon="12.1147632"><ele>145.0</ele><time>2026-04-12T11:20:48.011Z</time></trkpt><trkpt lat="44.0035396" lon="12.1144962"><ele>145.0</ele><time>2026-04-12T11:20:49.013Z</time></trkpt><trkpt lat="44.0034328" lon="12.1142342"><ele>145.0</ele><time>2026-04-12T11:20:50.011Z</time></trkpt><trkpt lat="44.0032961" lon="12.1139848"><ele>144.5</ele><time>2026-04-12T11:20:51.012Z</time></trkpt><trkpt lat="44.0031377" lon="12.1137465"><ele>144.0</ele><time>2026-04-12T11:20:52.012Z</time></trkpt><trkpt lat="44.0029626" lon="12.113515"><ele>144.0</ele><time>2026-04-12T11:20:53.012Z</time></trkpt><trkpt lat="44.0027731" lon="12.1132965"><ele>144.0</ele><time>2026-04-12T11:20:54.012Z</time></trkpt><trkpt lat="44.002576" lon="12.113098"><ele>145.0</ele><time>2026-04-12T11:20:55.014Z</time></trkpt><trkpt lat="44.0023756" lon="12.112932"><ele>146.0</ele><time>2026-04-12T11:20:56.012Z</time></trkpt><trkpt lat="44.0021799" lon="12.1127921"><ele>146.0</ele><time>2026-04-12T11:20:57.013Z</time></trkpt><trkpt lat="44.0019903" lon="12.1126752"><ele>146.0</ele><time>2026-04-12T11:20:58.013Z</time></trkpt><trkpt lat="44.0018089" lon="12.112581"><ele>146.0</ele><time>2026-04-12T11:20:59.013Z</time></trkpt><trkpt lat="44.0016398" lon="12.1124967"><ele>146.0</ele><time>2026-04-12T11:21:00.015Z</time></trkpt><trkpt lat="44.0014728" lon="12.1124472"><ele>146.0</ele><time>2026-04-12T11:21:01.012Z</time></trkpt><trkpt lat="44.0013104" lon="12.1124374"><ele>146.0</ele><time>2026-04-12T11:21:02.011Z</time></trkpt><trkpt lat="44.0011631" lon="12.112463"><ele>146.0</ele><time>2026-04-12T11:21:03.016Z</time></trkpt><trkpt lat="44.001027" lon="12.112524"><ele>146.0</ele><time>2026-04-12T11:21:04.014Z</time></trkpt><trkpt lat="44.0008971" lon="12.11261"><ele>146.0</ele><time>2026-04-12T11:21:05.012Z</time></trkpt><trkpt lat="44.0007738" lon="12.1127044"><ele>146.0</ele><time>2026-04-12T11:21:06.012Z</time></trkpt><trkpt lat="44.0006587" lon="12.1127935"><ele>146.6</ele><time>2026-04-12T11:21:07.014Z</time></trkpt><trkpt lat="44.0005561" lon="12.1128678"><ele>147.2</ele><time>2026-04-12T11:21:08.012Z</time></trkpt><trkpt lat="44.0004624" lon="12.1129269"><ele>147.8</ele><time>2026-04-12T11:21:09.015Z</time></trkpt><trkpt lat="44.0003731" lon="12.1129587"><ele>148.4</ele><time>2026-04-12T11:21:10.012Z</time></trkpt><trkpt lat="44.0002922" lon="12.1129814"><ele>149.0</ele><time>2026-04-12T11:21:11.01Z</time></trkpt><trkpt lat="44.0002141" lon="12.1130077"><ele>149.0</ele><time>2026-04-12T11:21:12.015Z</time></trkpt><trkpt lat="44.000124" lon="12.1130021"><ele>149.0</ele><time>2026-04-12T11:21:13.012Z</time></trkpt><trkpt lat="44.0000212" lon="12.1129588"><ele>149.0</ele><time>2026-04-12T11:21:14.014Z</time></trkpt><trkpt lat="43.9999107" lon="12.1128698"><ele>149.0</ele><time>2026-04-12T11:21:15.013Z</time></trkpt><trkpt lat="43.9998096" lon="12.112748"><ele>149.0</ele><time>2026-04-12T11:21:16.015Z</time></trkpt><trkpt lat="43.9997149" lon="12.1126108"><ele>149.0</ele><time>2026-04-12T11:21:17.013Z</time></trkpt><trkpt lat="43.9996104" lon="12.112486"><ele>149.0</ele><time>2026-04-12T11:21:18.015Z</time></trkpt><trkpt lat="43.9994999" lon="12.1123606"><ele>149.0</ele><time>2026-04-12T11:21:19.012Z</time></trkpt><trkpt lat="43.9993875" lon="12.1122256"><ele>148.66666666666666</ele><time>2026-04-12T11:21:20.012Z</time></trkpt><trkpt lat="43.9992685" lon="12.1120895"><ele>148.33333333333334</ele><time>2026-04-12T11:21:21.013Z</time></trkpt><trkpt lat="43.9991463" lon="12.1119451"><ele>148.0</ele><time>2026-04-12T11:21:22.015Z</time></trkpt><trkpt lat="43.9990188" lon="12.1118018"><ele>149.0</ele><time>2026-04-12T11:21:23.013Z</time></trkpt><trkpt lat="43.9988939" lon="12.1116633"><ele>150.0</ele><time>2026-04-12T11:21:24.012Z</time></trkpt><trkpt lat="43.998773" lon="12.1115317"><ele>151.0</ele><time>2026-04-12T11:21:25.012Z</time></trkpt><trkpt lat="43.9986542" lon="12.1113927"><ele>151.0</ele><time>2026-04-12T11:21:26.011Z</time></trkpt><trkpt lat="43.9985328" lon="12.1112485"><ele>151.0</ele><time>2026-04-12T11:21:27.015Z</time></trkpt><trkpt lat="43.9984079" lon="12.1111021"><ele>151.0</ele><time>2026-04-12T11:21:28.014Z</time></trkpt><trkpt lat="43.9982766" lon="12.1109577"><ele>151.66666666666669</ele><time>2026-04-12T11:21:29.013Z</time></trkpt><trkpt lat="43.9981472" lon="12.1108112"><ele>152.33333333333334</ele><time>2026-04-12T11:21:30.012Z</time></trkpt><trkpt lat="43.9980181" lon="12.1106603"><ele>153.0</ele><time>2026-04-12T11:21:31.013Z</time></trkpt><trkpt lat="43.9978883" lon="12.110506"><ele>153.0</ele><time>2026-04-12T11:21:32.011Z</time></trkpt><trkpt lat="43.997757" lon="12.1103529"><ele>153.0</ele><time>2026-04-12T11:21:33.017Z</time></trkpt><trkpt lat="43.9976226" lon="12.1101932"><ele>153.0</ele><time>2026-04-12T11:21:34.014Z</time></trkpt><trkpt lat="43.9974797" lon="12.1100332"><ele>153.66666666666666</ele><time>2026-04-12T11:21:35.012Z</time></trkpt><trkpt lat="43.9973268" lon="12.1098745"><ele>154.33333333333331</ele><time>2026-04-12T11:21:36.012Z</time></trkpt><trkpt lat="43.9971704" lon="12.1097124"><ele>155.0</ele><time>2026-04-12T11:21:37.012Z</time></trkpt><trkpt lat="43.9970108" lon="12.1095373"><ele>155.0</ele><time>2026-04-12T11:21:38.011Z</time></trkpt><trkpt lat="43.9968489" lon="12.109356"><ele>155.0</ele><time>2026-04-12T11:21:39.012Z</time></trkpt><trkpt lat="43.9966863" lon="12.1091719"><ele>155.0</ele><time>2026-04-12T11:21:40.015Z</time></trkpt><trkpt lat="43.9965218" lon="12.108994"><ele>156.0</ele><time>2026-04-12T11:21:41.013Z</time></trkpt><trkpt lat="43.9963652" lon="12.1088176"><ele>157.0</ele><time>2026-04-12T11:21:42.013Z</time></trkpt><trkpt lat="43.9962103" lon="12.1086609"><ele>158.0</ele><time>2026-04-12T11:21:43.012Z</time></trkpt><trkpt lat="43.9960529" lon="12.1085214"><ele>158.0</ele><time>2026-04-12T11:21:44.012Z</time></trkpt><trkpt lat="43.9958915" lon="12.1083978"><ele>158.0</ele><time>2026-04-12T11:21:45.018Z</time></trkpt><trkpt lat="43.9957313" lon="12.108288"><ele>158.0</ele><time>2026-04-12T11:21:46.013Z</time></trkpt><trkpt lat="43.995581" lon="12.108188"><ele>159.66666666666666</ele><time>2026-04-12T11:21:47.012Z</time></trkpt><trkpt lat="43.9954452" lon="12.1080896"><ele>161.33333333333334</ele><time>2026-04-12T11:21:48.011Z</time></trkpt><trkpt lat="43.9953226" lon="12.1079724"><ele>163.0</ele><time>2026-04-12T11:21:49.011Z</time></trkpt><trkpt lat="43.9951942" lon="12.1078539"><ele>163.0</ele><time>2026-04-12T11:21:50.013Z</time></trkpt><trkpt lat="43.9950655" lon="12.1077371"><ele>163.0</ele><time>2026-04-12T11:21:51.011Z</time></trkpt><trkpt lat="43.9949426" lon="12.1076288"><ele>163.0</ele><time>2026-04-12T11:21:52.013Z</time></trkpt><trkpt lat="43.994825" lon="12.1075483"><ele>163.0</ele><time>2026-04-12T11:21:53.01Z</time></trkpt><trkpt lat="43.994705" lon="12.10751"><ele>164.0</ele><time>2026-04-12T11:21:54.013Z</time></trkpt><trkpt lat="43.9945867" lon="12.1075167"><ele>165.0</ele><time>2026-04-12T11:21:55.012Z</time></trkpt><trkpt lat="43.99446" lon="12.1075567"><ele>166.0</ele><time>2026-04-12T11:21:56.012Z</time></trkpt><trkpt lat="43.9943167" lon="12.107605"><ele>167.0</ele><time>2026-04-12T11:21:57.014Z</time></trkpt><trkpt lat="43.9941717" lon="12.1076583"><ele>170.2</ele><time>2026-04-12T11:21:58.017Z</time></trkpt><trkpt lat="43.99404" lon="12.1077167"><ele>173.39999999999998</ele><time>2026-04-12T11:21:59.013Z</time></trkpt><trkpt lat="43.9939283" lon="12.1077633"><ele>176.60000000000002</ele><time>2026-04-12T11:22:00.013Z</time></trkpt><trkpt lat="43.993835" lon="12.1077917"><ele>179.8</ele><time>2026-04-12T11:22:01.011Z</time></trkpt><trkpt lat="43.99377" lon="12.1078383"><ele>183.0</ele><time>2026-04-12T11:22:02.012Z</time></trkpt><trkpt lat="43.9937233" lon="12.1079267"><ele>183.0</ele><time>2026-04-12T11:22:03.013Z</time></trkpt><trkpt lat="43.9936883" lon="12.1080317"><ele>183.0</ele><time>2026-04-12T11:22:04.011Z</time></trkpt><trkpt lat="43.993685" lon="12.1081567"><ele>183.0</ele><time>2026-04-12T11:22:05.012Z</time></trkpt><trkpt lat="43.9937017" lon="12.10829"><ele>183.0</ele><time>2026-04-12T11:22:06.012Z</time></trkpt><trkpt lat="43.9937283" lon="12.1084067"><ele>183.0</ele><time>2026-04-12T11:22:07.012Z</time></trkpt><trkpt lat="43.993795" lon="12.1085117"><ele>181.75</ele><time>2026-04-12T11:22:08.01Z</time></trkpt><trkpt lat="43.9938633" lon="12.108605"><ele>180.5</ele><time>2026-04-12T11:22:09.01Z</time></trkpt><trkpt lat="43.99398" lon="12.1086883"><ele>179.25</ele><time>2026-04-12T11:22:10.012Z</time></trkpt><trkpt lat="43.9940983" lon="12.1088067"><ele>178.0</ele><time>2026-04-12T11:22:11.011Z</time></trkpt><trkpt lat="43.9942017" lon="12.108935"><ele>175.75</ele><time>2026-04-12T11:22:12.017Z</time></trkpt><trkpt lat="43.9943233" lon="12.10905"><ele>173.5</ele><time>2026-04-12T11:22:13.011Z</time></trkpt><trkpt lat="43.994455" lon="12.10914"><ele>171.25</ele><time>2026-04-12T11:22:14.01Z</time></trkpt><trkpt lat="43.994585" lon="12.1091917"><ele>169.0</ele><time>2026-04-12T11:22:15.012Z</time></trkpt><trkpt lat="43.9947333" lon="12.1091933"><ele>168.5</ele><time>2026-04-12T11:22:16.013Z</time></trkpt><trkpt lat="43.9948833" lon="12.1091433"><ele>168.0</ele><time>2026-04-12T11:22:17.011Z</time></trkpt><trkpt lat="43.9950283" lon="12.1090717"><ele>167.5</ele><time>2026-04-12T11:22:18.011Z</time></trkpt><trkpt lat="43.99516" lon="12.1090217"><ele>167.0</ele><time>2026-04-12T11:22:19.011Z</time></trkpt><trkpt lat="43.995275" lon="12.10898"><ele>167.0</ele><time>2026-04-12T11:22:20.011Z</time></trkpt><trkpt lat="43.9953817" lon="12.1089867"><ele>167.0</ele><time>2026-04-12T11:22:21.011Z</time></trkpt><trkpt lat="43.9954783" lon="12.1090433"><ele>167.0</ele><time>2026-04-12T11:22:22.011Z</time></trkpt><trkpt lat="43.9955683" lon="12.1091267"><ele>167.0</ele><time>2026-04-12T11:22:23.011Z</time></trkpt><trkpt lat="43.9956367" lon="12.1092567"><ele>167.0</ele><time>2026-04-12T11:22:24.011Z</time></trkpt><trkpt lat="43.995675" lon="12.1094267"><ele>169.5</ele><time>2026-04-12T11:22:25.011Z</time></trkpt><trkpt lat="43.9956817" lon="12.1096067"><ele>172.0</ele><time>2026-04-12T11:22:26.014Z</time></trkpt><trkpt lat="43.9956517" lon="12.1097883"><ele>174.5</ele><time>2026-04-12T11:22:27.02Z</time></trkpt><trkpt lat="43.9956098" lon="12.1099572"><ele>177.0</ele><time>2026-04-12T11:22:28.011Z</time></trkpt><trkpt lat="43.9955566" lon="12.1101347"><ele>180.25</ele><time>2026-04-12T11:22:29.012Z</time></trkpt><trkpt lat="43.9955286" lon="12.1103215"><ele>183.5</ele><time>2026-04-12T11:22:30.011Z</time></trkpt><trkpt lat="43.995509" lon="12.1105145"><ele>186.75</ele><time>2026-04-12T11:22:31.011Z</time></trkpt><trkpt lat="43.9955295" lon="12.1106967"><ele>190.0</ele><time>2026-04-12T11:22:32.012Z</time></trkpt><trkpt lat="43.9955821" lon="12.1108481"><ele>191.66666666666669</ele><time>2026-04-12T11:22:33.013Z</time></trkpt><trkpt lat="43.9956548" lon="12.1109518"><ele>193.33333333333334</ele><time>2026-04-12T11:22:34.014Z</time></trkpt><trkpt lat="43.9957241" lon="12.1110303"><ele>195.0</ele><time>2026-04-12T11:22:35.012Z</time></trkpt><trkpt lat="43.9957596" lon="12.111113"><ele>196.66666666666669</ele><time>2026-04-12T11:22:36.011Z</time></trkpt><trkpt lat="43.9957334" lon="12.1112487"><ele>198.33333333333334</ele><time>2026-04-12T11:22:38.012Z</time></trkpt><trkpt lat="43.9956649" lon="12.1112468"><ele>200.0</ele><time>2026-04-12T11:22:39.012Z</time></trkpt><trkpt lat="43.9955593" lon="12.1111766"><ele>200.0</ele><time>2026-04-12T11:22:40.017Z</time></trkpt><trkpt lat="43.9954545" lon="12.1110631"><ele>200.0</ele><time>2026-04-12T11:22:41.012Z</time></trkpt><trkpt lat="43.9953602" lon="12.1109572"><ele>200.0</ele><time>2026-04-12T11:22:42.012Z</time></trkpt><trkpt lat="43.9952579" lon="12.110843"><ele>200.0</ele><time>2026-04-12T11:22:43.012Z</time></trkpt><trkpt lat="43.9951509" lon="12.1106572"><ele>196.66666666666669</ele><time>2026-04-12T11:22:44.012Z</time></trkpt><trkpt lat="43.9950495" lon="12.1104462"><ele>193.33333333333334</ele><time>2026-04-12T11:22:45.015Z</time></trkpt><trkpt lat="43.9949519" lon="12.1102552"><ele>190.0</ele><time>2026-04-12T11:22:46.012Z</time></trkpt><trkpt lat="43.9948614" lon="12.110088"><ele>189.25</ele><time>2026-04-12T11:22:47.011Z</time></trkpt><trkpt lat="43.9947807" lon="12.1099447"><ele>188.5</ele><time>2026-04-12T11:22:48.011Z</time></trkpt><trkpt lat="43.9946925" lon="12.1098371"><ele>187.75</ele><time>2026-04-12T11:22:49.011Z</time></trkpt><trkpt lat="43.994577" lon="12.1097714"><ele>187.0</ele><time>2026-04-12T11:22:50.011Z</time></trkpt><trkpt lat="43.9944448" lon="12.1097456"><ele>187.0</ele><time>2026-04-12T11:22:51.014Z</time></trkpt><trkpt lat="43.9943208" lon="12.1097452"><ele>187.0</ele><time>2026-04-12T11:22:52.011Z</time></trkpt><trkpt lat="43.9942217" lon="12.109758"><ele>187.0</ele><time>2026-04-12T11:22:53.011Z</time></trkpt><trkpt lat="43.9941565" lon="12.1097897"><ele>187.0</ele><time>2026-04-12T11:22:54.011Z</time></trkpt><trkpt lat="43.9940778" lon="12.1099245"><ele>187.0</ele><time>2026-04-12T11:22:56.012Z</time></trkpt><trkpt lat="43.9941214" lon="12.1100869"><ele>192.0</ele><time>2026-04-12T11:22:58.01Z</time></trkpt><trkpt lat="43.9941862" lon="12.1101594"><ele>197.0</ele><time>2026-04-12T11:22:59.011Z</time></trkpt><trkpt lat="43.9942833" lon="12.110222"><ele>202.0</ele><time>2026-04-12T11:23:00.012Z</time></trkpt><trkpt lat="43.9943588" lon="12.1103155"><ele>207.0</ele><time>2026-04-12T11:23:01.013Z</time></trkpt><trkpt lat="43.9944229" lon="12.1104408"><ele>212.0</ele><time>2026-04-12T11:23:02.01Z</time></trkpt><trkpt lat="43.9944913" lon="12.1105782"><ele>212.00000000000003</ele><time>2026-04-12T11:23:03.012Z</time></trkpt><trkpt lat="43.9945365" lon="12.1107206"><ele>212.0</ele><time>2026-04-12T11:23:04.01Z</time></trkpt><trkpt lat="43.9945674" lon="12.1108476"><ele>212.0</ele><time>2026-04-12T11:23:05.012Z</time></trkpt><trkpt lat="43.9945773" lon="12.1109352"><ele>212.0</ele><time>2026-04-12T11:23:06.011Z</time></trkpt><trkpt lat="43.9945132" lon="12.1109739"><ele>212.00000000000003</ele><time>2026-04-12T11:23:09.013Z</time></trkpt><trkpt lat="43.9944798" lon="12.1108953"><ele>212.0</ele><time>2026-04-12T11:23:10.012Z</time></trkpt><trkpt lat="43.99445" lon="12.1107914"><ele>212.00000000000003</ele><time>2026-04-12T11:23:11.011Z</time></trkpt><trkpt lat="43.9944123" lon="12.1106853"><ele>212.0</ele><time>2026-04-12T11:23:12.015Z</time></trkpt><trkpt lat="43.9943598" lon="12.1105682"><ele>212.0</ele><time>2026-04-12T11:23:13.012Z</time></trkpt><trkpt lat="43.9943006" lon="12.1104627"><ele>212.0</ele><time>2026-04-12T11:23:14.012Z</time></trkpt><trkpt lat="43.9942287" lon="12.1103906"><ele>212.00000000000003</ele><time>2026-04-12T11:23:15.012Z</time></trkpt><trkpt lat="43.9941595" lon="12.1103647"><ele>212.0</ele><time>2026-04-12T11:23:16.012Z</time></trkpt><trkpt lat="43.9940854" lon="12.1104113"><ele>213.8</ele><time>2026-04-12T11:23:17.011Z</time></trkpt><trkpt lat="43.9940317" lon="12.1105006"><ele>215.6</ele><time>2026-04-12T11:23:18.014Z</time></trkpt><trkpt lat="43.994013" lon="12.11062"><ele>217.40000000000003</ele><time>2026-04-12T11:23:19.012Z</time></trkpt><trkpt lat="43.9940428" lon="12.1107572"><ele>219.20000000000002</ele><time>2026-04-12T11:23:20.017Z</time></trkpt><trkpt lat="43.994108" lon="12.1109005"><ele>221.0</ele><time>2026-04-12T11:23:21.012Z</time></trkpt><trkpt lat="43.9942216" lon="12.1110775"><ele>221.0</ele><time>2026-04-12T11:23:22.01Z</time></trkpt><trkpt lat="43.9943237" lon="12.1112701"><ele>221.0</ele><time>2026-04-12T11:23:23.011Z</time></trkpt><trkpt lat="43.9944192" lon="12.1114763"><ele>221.0</ele><time>2026-04-12T11:23:24.011Z</time></trkpt><trkpt lat="43.994503" lon="12.1117021"><ele>226.0</ele><time>2026-04-12T11:23:25.011Z</time></trkpt><trkpt lat="43.9945723" lon="12.1119308"><ele>231.0</ele><time>2026-04-12T11:23:26.016Z</time></trkpt><trkpt lat="43.9946243" lon="12.1121549"><ele>236.0</ele><time>2026-04-12T11:23:27.011Z</time></trkpt><trkpt lat="43.9946581" lon="12.112374"><ele>239.0</ele><time>2026-04-12T11:23:28.012Z</time></trkpt><trkpt lat="43.9946787" lon="12.1125904"><ele>242.0</ele><time>2026-04-12T11:23:29.012Z</time></trkpt><trkpt lat="43.9946773" lon="12.1128018"><ele>245.0</ele><time>2026-04-12T11:23:30.014Z</time></trkpt><trkpt lat="43.9946565" lon="12.1130144"><ele>245.0</ele><time>2026-04-12T11:23:31.016Z</time></trkpt><trkpt lat="43.9946267" lon="12.1132101"><ele>245.0</ele><time>2026-04-12T11:23:32.013Z</time></trkpt><trkpt lat="43.9945944" lon="12.1133693"><ele>245.0</ele><time>2026-04-12T11:23:33.013Z</time></trkpt><trkpt lat="43.9945576" lon="12.1134831"><ele>245.0</ele><time>2026-04-12T11:23:34.014Z</time></trkpt><trkpt lat="43.9945231" lon="12.1135662"><ele>245.0</ele><time>2026-04-12T11:23:35.011Z</time></trkpt><trkpt lat="43.9944561" lon="12.1135648"><ele>245.0</ele><time>2026-04-12T11:23:37.012Z</time></trkpt><trkpt lat="43.994424" lon="12.1133976"><ele>245.0</ele><time>2026-04-12T11:23:39.012Z</time></trkpt><trkpt lat="43.9944294" lon="12.1132872"><ele>245.0</ele><time>2026-04-12T11:23:40.012Z</time></trkpt><trkpt lat="43.9944377" lon="12.113156"><ele>245.0</ele><time>2026-04-12T11:23:41.012Z</time></trkpt><trkpt lat="43.9944535" lon="12.1129968"><ele>245.0</ele><time>2026-04-12T11:23:42.013Z</time></trkpt><trkpt lat="43.9944694" lon="12.1128161"><ele>245.00000000000003</ele><time>2026-04-12T11:23:43.014Z</time></trkpt><trkpt lat="43.9944834" lon="12.112655"><ele>245.0</ele><time>2026-04-12T11:23:44.013Z</time></trkpt><trkpt lat="43.9944768" lon="12.1125318"><ele>245.0</ele><time>2026-04-12T11:23:45.011Z</time></trkpt><trkpt lat="43.9944517" lon="12.112443"><ele>245.0</ele><time>2026-04-12T11:23:46.013Z</time></trkpt><trkpt lat="43.99438" lon="12.1123568"><ele>245.00000000000003</ele><time>2026-04-12T11:23:48.011Z</time></trkpt><trkpt lat="43.994325" lon="12.1124044"><ele>245.0</ele><time>2026-04-12T11:23:49.015Z</time></trkpt><trkpt lat="43.9942714" lon="12.1125209"><ele>245.0</ele><time>2026-04-12T11:23:50.012Z</time></trkpt><trkpt lat="43.9942701" lon="12.1127151"><ele>245.0</ele><time>2026-04-12T11:23:51.013Z</time></trkpt><trkpt lat="43.9942817" lon="12.1129203"><ele>245.0</ele><time>2026-04-12T11:23:52.013Z</time></trkpt><trkpt lat="43.9942474" lon="12.1131193"><ele>245.0</ele><time>2026-04-12T11:23:53.012Z</time></trkpt><trkpt lat="43.9941957" lon="12.1133121"><ele>257.33333333333337</ele><time>2026-04-12T11:23:54.015Z</time></trkpt><trkpt lat="43.9941296" lon="12.1134983"><ele>269.6666666666667</ele><time>2026-04-12T11:23:55.012Z</time></trkpt><trkpt lat="43.9940854" lon="12.113698"><ele>282.0</ele><time>2026-04-12T11:23:56.012Z</time></trkpt><trkpt lat="43.9940771" lon="12.1139066"><ele>284.3333333333333</ele><time>2026-04-12T11:23:57.013Z</time></trkpt><trkpt lat="43.9941095" lon="12.1141104"><ele>286.66666666666663</ele><time>2026-04-12T11:23:58.011Z</time></trkpt><trkpt lat="43.9941729" lon="12.1143086"><ele>289.0</ele><time>2026-04-12T11:23:59.012Z</time></trkpt><trkpt lat="43.9942591" lon="12.1145002"><ele>282.0</ele><time>2026-04-12T11:24:00.012Z</time></trkpt><trkpt lat="43.994337" lon="12.1147054"><ele>275.0</ele><time>2026-04-12T11:24:01.011Z</time></trkpt><trkpt lat="43.9943894" lon="12.1149223"><ele>268.0</ele><time>2026-04-12T11:24:02.012Z</time></trkpt><trkpt lat="43.9944218" lon="12.1151534"><ele>268.0</ele><time>2026-04-12T11:24:03.013Z</time></trkpt><trkpt lat="43.9944412" lon="12.1153787"><ele>268.0</ele><time>2026-04-12T11:24:04.012Z</time></trkpt><trkpt lat="43.9944574" lon="12.1155772"><ele>268.0</ele><time>2026-04-12T11:24:05.011Z</time></trkpt><trkpt lat="43.9944604" lon="12.1157457"><ele>268.0</ele><time>2026-04-12T11:24:06.013Z</time></trkpt><trkpt lat="43.9944483" lon="12.1158742"><ele>268.0</ele><time>2026-04-12T11:24:07.013Z</time></trkpt><trkpt lat="43.9944316" lon="12.1159733"><ele>268.0</ele><time>2026-04-12T11:24:08.012Z</time></trkpt><trkpt lat="43.9943949" lon="12.1160447"><ele>268.0</ele><time>2026-04-12T11:24:09.012Z</time></trkpt><trkpt lat="43.9942867" lon="12.1160017"><ele>268.0</ele><time>2026-04-12T11:24:11.014Z</time></trkpt><trkpt lat="43.9942437" lon="12.115933"><ele>268.0</ele><time>2026-04-12T11:24:12.012Z</time></trkpt><trkpt lat="43.9942367" lon="12.1157914"><ele>268.0</ele><time>2026-04-12T11:24:13.016Z</time></trkpt><trkpt lat="43.9942332" lon="12.1156382"><ele>268.0</ele><time>2026-04-12T11:24:14.012Z</time></trkpt><trkpt lat="43.9942131" lon="12.1154831"><ele>268.0</ele><time>2026-04-12T11:24:15.013Z</time></trkpt><trkpt lat="43.9941513" lon="12.1153285"><ele>268.0</ele><time>2026-04-12T11:24:16.012Z</time></trkpt><trkpt lat="43.994065" lon="12.1151785"><ele>268.0</ele><time>2026-04-12T11:24:17.012Z</time></trkpt><trkpt lat="43.9939527" lon="12.1150349"><ele>275.0</ele><time>2026-04-12T11:24:18.012Z</time></trkpt><trkpt lat="43.9938194" lon="12.1148931"><ele>282.0</ele><time>2026-04-12T11:24:19.011Z</time></trkpt><trkpt lat="43.9936744" lon="12.1147573"><ele>289.0</ele><time>2026-04-12T11:24:20.012Z</time></trkpt><trkpt lat="43.9935351" lon="12.1146194"><ele>289.0</ele><time>2026-04-12T11:24:21.014Z</time></trkpt><trkpt lat="43.9934068" lon="12.1144907"><ele>289.0</ele><time>2026-04-12T11:24:22.012Z</time></trkpt><trkpt lat="43.9932916" lon="12.1143819"><ele>289.0</ele><time>2026-04-12T11:24:23.012Z</time></trkpt><trkpt lat="43.9931893" lon="12.1142952"><ele>289.0</ele><time>2026-04-12T11:24:24.012Z</time></trkpt><trkpt lat="43.9930956" lon="12.1142393"><ele>294.4</ele><time>2026-04-12T11:24:25.014Z</time></trkpt><trkpt lat="43.9930036" lon="12.1142392"><ele>299.79999999999995</ele><time>2026-04-12T11:24:26.014Z</time></trkpt><trkpt lat="43.9929219" lon="12.1142904"><ele>305.20000000000005</ele><time>2026-04-12T11:24:27.013Z</time></trkpt><trkpt lat="43.9928515" lon="12.1143932"><ele>310.6</ele><time>2026-04-12T11:24:28.012Z</time></trkpt><trkpt lat="43.9928004" lon="12.1145291"><ele>316.0</ele><time>2026-04-12T11:24:29.012Z</time></trkpt><trkpt lat="43.9927733" lon="12.114695"><ele>316.0</ele><time>2026-04-12T11:24:30.014Z</time></trkpt><trkpt lat="43.992765" lon="12.1148815"><ele>316.0</ele><time>2026-04-12T11:24:31.012Z</time></trkpt><trkpt lat="43.9927813" lon="12.1150836"><ele>316.0</ele><time>2026-04-12T11:24:32.013Z</time></trkpt><trkpt lat="43.992782" lon="12.1152769"><ele>316.0</ele><time>2026-04-12T11:24:33.014Z</time></trkpt><trkpt lat="43.9927451" lon="12.115455"><ele>318.25</ele><time>2026-04-12T11:24:34.012Z</time></trkpt><trkpt lat="43.9926769" lon="12.1156248"><ele>320.5</ele><time>2026-04-12T11:24:35.011Z</time></trkpt><trkpt lat="43.9925861" lon="12.1157874"><ele>322.75</ele><time>2026-04-12T11:24:36.01Z</time></trkpt><trkpt lat="43.9924729" lon="12.1159307"><ele>325.0</ele><time>2026-04-12T11:24:37.013Z</time></trkpt><trkpt lat="43.9923448" lon="12.1160376"><ele>328.25</ele><time>2026-04-12T11:24:38.012Z</time></trkpt><trkpt lat="43.9922328" lon="12.1161288"><ele>331.5</ele><time>2026-04-12T11:24:39.013Z</time></trkpt><trkpt lat="43.9921524" lon="12.1162528"><ele>334.75</ele><time>2026-04-12T11:24:40.091Z</time></trkpt><trkpt lat="43.9921127" lon="12.116418"><ele>338.0</ele><time>2026-04-12T11:24:41.012Z</time></trkpt><trkpt lat="43.9920893" lon="12.1166257"><ele>342.6666666666667</ele><time>2026-04-12T11:24:42.012Z</time></trkpt><trkpt lat="43.992067" lon="12.1168469"><ele>347.3333333333333</ele><time>2026-04-12T11:24:43.012Z</time></trkpt><trkpt lat="43.9920189" lon="12.1170712"><ele>352.0</ele><time>2026-04-12T11:24:44.011Z</time></trkpt><trkpt lat="43.9919681" lon="12.1172981"><ele>354.0</ele><time>2026-04-12T11:24:45.014Z</time></trkpt><trkpt lat="43.9919201" lon="12.1175099"><ele>356.0</ele><time>2026-04-12T11:24:46.012Z</time></trkpt><trkpt lat="43.991869" lon="12.1176945"><ele>358.0</ele><time>2026-04-12T11:24:47.012Z</time></trkpt><trkpt lat="43.9917947" lon="12.1178411"><ele>360.0</ele><time>2026-04-12T11:24:48.01Z</time></trkpt><trkpt lat="43.9916889" lon="12.1179495"><ele>362.25</ele><time>2026-04-12T11:24:49.012Z</time></trkpt><trkpt lat="43.991562" lon="12.11803"><ele>364.5</ele><time>2026-04-12T11:24:50.014Z</time></trkpt><trkpt lat="43.9914417" lon="12.1181019"><ele>366.75</ele><time>2026-04-12T11:24:51.013Z</time></trkpt><trkpt lat="43.9913443" lon="12.1182162"><ele>369.0</ele><time>2026-04-12T11:24:52.016Z</time></trkpt><trkpt lat="43.9912764" lon="12.1183781"><ele>369.0</ele><time>2026-04-12T11:24:53.011Z</time></trkpt><trkpt lat="43.9912201" lon="12.1185397"><ele>369.0</ele><time>2026-04-12T11:24:54.014Z</time></trkpt><trkpt lat="43.9911716" lon="12.1186805"><ele>369.0</ele><time>2026-04-12T11:24:55.011Z</time></trkpt><trkpt lat="43.9911419" lon="12.1187984"><ele>369.0</ele><time>2026-04-12T11:24:56.012Z</time></trkpt><trkpt lat="43.9911328" lon="12.1189006"><ele>369.0</ele><time>2026-04-12T11:24:57.016Z</time></trkpt><trkpt lat="43.991147" lon="12.118986"><ele>369.0</ele><time>2026-04-12T11:24:58.013Z</time></trkpt><trkpt lat="43.9912719" lon="12.1190221"><ele>369.0</ele><time>2026-04-12T11:25:00.012Z</time></trkpt><trkpt lat="43.9913618" lon="12.1189233"><ele>369.0</ele><time>2026-04-12T11:25:01.011Z</time></trkpt><trkpt lat="43.991445" lon="12.1187945"><ele>369.0</ele><time>2026-04-12T11:25:02.013Z</time></trkpt><trkpt lat="43.9915303" lon="12.1186559"><ele>369.0</ele><time>2026-04-12T11:25:03.017Z</time></trkpt><trkpt lat="43.9916228" lon="12.1185312"><ele>369.0</ele><time>2026-04-12T11:25:04.011Z</time></trkpt><trkpt lat="43.9917311" lon="12.1184441"><ele>369.0</ele><time>2026-04-12T11:25:05.015Z</time></trkpt><trkpt lat="43.9918618" lon="12.1184073"><ele>369.0</ele><time>2026-04-12T11:25:06.012Z</time></trkpt><trkpt lat="43.9920064" lon="12.118401"><ele>369.75</ele><time>2026-04-12T11:25:07.012Z</time></trkpt><trkpt lat="43.9921539" lon="12.1184164"><ele>370.5</ele><time>2026-04-12T11:25:08.011Z</time></trkpt><trkpt lat="43.9922924" lon="12.1184456"><ele>371.25</ele><time>2026-04-12T11:25:09.014Z</time></trkpt><trkpt lat="43.992414" lon="12.1185071"><ele>372.0</ele><time>2026-04-12T11:25:10.013Z</time></trkpt><trkpt lat="43.992508" lon="12.1186147"><ele>365.75</ele><time>2026-04-12T11:25:11.013Z</time></trkpt><trkpt lat="43.9925673" lon="12.1187435"><ele>359.5</ele><time>2026-04-12T11:25:12.012Z</time></trkpt><trkpt lat="43.9925819" lon="12.1188919"><ele>353.25</ele><time>2026-04-12T11:25:13.012Z</time></trkpt><trkpt lat="43.9925718" lon="12.1190477"><ele>347.0</ele><time>2026-04-12T11:25:14.012Z</time></trkpt><trkpt lat="43.9925338" lon="12.1192094"><ele>358.33333333333337</ele><time>2026-04-12T11:25:15.015Z</time></trkpt><trkpt lat="43.9924576" lon="12.1193772"><ele>369.6666666666667</ele><time>2026-04-12T11:25:16.011Z</time></trkpt><trkpt lat="43.992368" lon="12.1195587"><ele>381.0</ele><time>2026-04-12T11:25:17.012Z</time></trkpt><trkpt lat="43.9922741" lon="12.1197533"><ele>379.3333333333333</ele><time>2026-04-12T11:25:18.012Z</time></trkpt><trkpt lat="43.9921765" lon="12.1199518"><ele>377.66666666666663</ele><time>2026-04-12T11:25:19.012Z</time></trkpt><trkpt lat="43.9920722" lon="12.1201361"><ele>376.0</ele><time>2026-04-12T11:25:20.011Z</time></trkpt><trkpt lat="43.9919752" lon="12.120295"><ele>376.0</ele><time>2026-04-12T11:25:21.011Z</time></trkpt><trkpt lat="43.9918683" lon="12.1204242"><ele>376.0</ele><time>2026-04-12T11:25:22.011Z</time></trkpt><trkpt lat="43.991738" lon="12.1204999"><ele>376.0</ele><time>2026-04-12T11:25:23.012Z</time></trkpt><trkpt lat="43.9915908" lon="12.1205328"><ele>376.0</ele><time>2026-04-12T11:25:24.015Z</time></trkpt><trkpt lat="43.9914326" lon="12.1205467"><ele>381.25</ele><time>2026-04-12T11:25:25.013Z</time></trkpt><trkpt lat="43.991277" lon="12.1205542"><ele>386.5</ele><time>2026-04-12T11:25:26.012Z</time></trkpt><trkpt lat="43.9911343" lon="12.1205749"><ele>391.75</ele><time>2026-04-12T11:25:27.012Z</time></trkpt><trkpt lat="43.9910177" lon="12.1206146"><ele>397.0</ele><time>2026-04-12T11:25:28.012Z</time></trkpt><trkpt lat="43.9909362" lon="12.120687"><ele>396.5</ele><time>2026-04-12T11:25:29.011Z</time></trkpt><trkpt lat="43.990876" lon="12.1207957"><ele>396.0</ele><time>2026-04-12T11:25:30.012Z</time></trkpt><trkpt lat="43.9908139" lon="12.1208996"><ele>395.5</ele><time>2026-04-12T11:25:31.012Z</time></trkpt><trkpt lat="43.9907928" lon="12.1210541"><ele>395.0</ele><time>2026-04-12T11:25:32.015Z</time></trkpt><trkpt lat="43.9908234" lon="12.1212449"><ele>393.3333333333333</ele><time>2026-04-12T11:25:33.012Z</time></trkpt><trkpt lat="43.9908795" lon="12.1214756"><ele>391.66666666666663</ele><time>2026-04-12T11:25:34.014Z</time></trkpt><trkpt lat="43.9909432" lon="12.1217111"><ele>390.0</ele><time>2026-04-12T11:25:35.017Z</time></trkpt><trkpt lat="43.991014" lon="12.1219473"><ele>388.66666666666663</ele><time>2026-04-12T11:25:36.012Z</time></trkpt><trkpt lat="43.9910791" lon="12.1221876"><ele>387.3333333333333</ele><time>2026-04-12T11:25:37.012Z</time></trkpt><trkpt lat="43.9911268" lon="12.1224299"><ele>386.0</ele><time>2026-04-12T11:25:38.011Z</time></trkpt><trkpt lat="43.9911498" lon="12.1226614"><ele>386.0</ele><time>2026-04-12T11:25:39.011Z</time></trkpt><trkpt lat="43.9911528" lon="12.1228686"><ele>386.0</ele><time>2026-04-12T11:25:40.012Z</time></trkpt><trkpt lat="43.9911349" lon="12.1230455"><ele>386.0</ele><time>2026-04-12T11:25:41.012Z</time></trkpt><trkpt lat="43.9910969" lon="12.1231945"><ele>386.0</ele><time>2026-04-12T11:25:42.016Z</time></trkpt><trkpt lat="43.9910299" lon="12.1233156"><ele>387.25</ele><time>2026-04-12T11:25:43.013Z</time></trkpt><trkpt lat="43.9909357" lon="12.1234236"><ele>388.5</ele><time>2026-04-12T11:25:44.013Z</time></trkpt><trkpt lat="43.9908168" lon="12.1235248"><ele>389.75</ele><time>2026-04-12T11:25:45.012Z</time></trkpt><trkpt lat="43.9906796" lon="12.1236134"><ele>391.0</ele><time>2026-04-12T11:25:46.014Z</time></trkpt><trkpt lat="43.9905458" lon="12.1236765"><ele>399.75</ele><time>2026-04-12T11:25:47.013Z</time></trkpt><trkpt lat="43.9904166" lon="12.1237049"><ele>408.5</ele><time>2026-04-12T11:25:48.011Z</time></trkpt><trkpt lat="43.9903031" lon="12.1236921"><ele>417.25</ele><time>2026-04-12T11:25:49.015Z</time></trkpt><trkpt lat="43.9901969" lon="12.1236349"><ele>426.0</ele><time>2026-04-12T11:25:50.012Z</time></trkpt><trkpt lat="43.9901051" lon="12.123528"><ele>426.0</ele><time>2026-04-12T11:25:51.015Z</time></trkpt><trkpt lat="43.9900275" lon="12.1233762"><ele>426.0</ele><time>2026-04-12T11:25:52.012Z</time></trkpt><trkpt lat="43.9899502" lon="12.1231961"><ele>426.0</ele><time>2026-04-12T11:25:53.01Z</time></trkpt><trkpt lat="43.9898634" lon="12.1230043"><ele>426.0</ele><time>2026-04-12T11:25:54.012Z</time></trkpt><trkpt lat="43.9897641" lon="12.1228225"><ele>429.33333333333337</ele><time>2026-04-12T11:25:55.013Z</time></trkpt><trkpt lat="43.9896591" lon="12.1226615"><ele>432.6666666666667</ele><time>2026-04-12T11:25:56.011Z</time></trkpt><trkpt lat="43.9895433" lon="12.1225349"><ele>436.0</ele><time>2026-04-12T11:25:57.013Z</time></trkpt><trkpt lat="43.9894113" lon="12.1224474"><ele>436.0</ele><time>2026-04-12T11:25:58.016Z</time></trkpt><trkpt lat="43.9892676" lon="12.1223983"><ele>436.0</ele><time>2026-04-12T11:25:59.011Z</time></trkpt><trkpt lat="43.9891222" lon="12.1223877"><ele>436.0</ele><time>2026-04-12T11:26:00.012Z</time></trkpt><trkpt lat="43.9889827" lon="12.1224217"><ele>436.0</ele><time>2026-04-12T11:26:01.013Z</time></trkpt><trkpt lat="43.9888643" lon="12.122504"><ele>437.25</ele><time>2026-04-12T11:26:02.01Z</time></trkpt><trkpt lat="43.9887629" lon="12.1226229"><ele>438.5</ele><time>2026-04-12T11:26:03.012Z</time></trkpt><trkpt lat="43.9886671" lon="12.1227471"><ele>439.75</ele><time>2026-04-12T11:26:04.012Z</time></trkpt><trkpt lat="43.9885567" lon="12.1228467"><ele>441.0</ele><time>2026-04-12T11:26:05.012Z</time></trkpt><trkpt lat="43.9884225" lon="12.1229143"><ele>444.66666666666663</ele><time>2026-04-12T11:26:06.012Z</time></trkpt><trkpt lat="43.9882772" lon="12.1229735"><ele>448.3333333333333</ele><time>2026-04-12T11:26:07.012Z</time></trkpt><trkpt lat="43.9881281" lon="12.123051"><ele>452.0</ele><time>2026-04-12T11:26:08.013Z</time></trkpt><trkpt lat="43.9879848" lon="12.1231571"><ele>448.25</ele><time>2026-04-12T11:26:09.012Z</time></trkpt><trkpt lat="43.9878583" lon="12.1232782"><ele>444.5</ele><time>2026-04-12T11:26:10.013Z</time></trkpt><trkpt lat="43.9877527" lon="12.1233996"><ele>440.75</ele><time>2026-04-12T11:26:11.011Z</time></trkpt><trkpt lat="43.9876593" lon="12.123506"><ele>437.0</ele><time>2026-04-12T11:26:12.012Z</time></trkpt><trkpt lat="43.9875673" lon="12.1235792"><ele>443.0</ele><time>2026-04-12T11:26:13.011Z</time></trkpt><trkpt lat="43.9874671" lon="12.1236104"><ele>449.0</ele><time>2026-04-12T11:26:14.011Z</time></trkpt><trkpt lat="43.9873538" lon="12.1236069"><ele>455.0</ele><time>2026-04-12T11:26:15.014Z</time></trkpt><trkpt lat="43.9872255" lon="12.1235704"><ele>461.0</ele><time>2026-04-12T11:26:16.012Z</time></trkpt><trkpt lat="43.9871013" lon="12.1235107"><ele>461.0</ele><time>2026-04-12T11:26:17.016Z</time></trkpt><trkpt lat="43.9869926" lon="12.1234184"><ele>461.0</ele><time>2026-04-12T11:26:18.01Z</time></trkpt><trkpt lat="43.9869002" lon="12.1232946"><ele>461.0</ele><time>2026-04-12T11:26:19.011Z</time></trkpt><trkpt lat="43.986824" lon="12.1231431"><ele>461.0</ele><time>2026-04-12T11:26:20.014Z</time></trkpt><trkpt lat="43.9867617" lon="12.1229844"><ele>465.0</ele><time>2026-04-12T11:26:21.011Z</time></trkpt><trkpt lat="43.9866774" lon="12.1228745"><ele>469.0</ele><time>2026-04-12T11:26:22.013Z</time></trkpt><trkpt lat="43.9865775" lon="12.1228202"><ele>473.0</ele><time>2026-04-12T11:26:23.012Z</time></trkpt><trkpt lat="43.9864848" lon="12.1227866"><ele>477.0</ele><time>2026-04-12T11:26:24.013Z</time></trkpt><trkpt lat="43.9863485" lon="12.12283"><ele>477.0</ele><time>2026-04-12T11:26:25.012Z</time></trkpt><trkpt lat="43.9862165" lon="12.1229034"><ele>477.0</ele><time>2026-04-12T11:26:26.011Z</time></trkpt><trkpt lat="43.9860973" lon="12.122947"><ele>477.0</ele><time>2026-04-12T11:26:27.012Z</time></trkpt><trkpt lat="43.9859948" lon="12.1230217"><ele>477.0</ele><time>2026-04-12T11:26:28.011Z</time></trkpt><trkpt lat="43.9859114" lon="12.1231508"><ele>474.20000000000005</ele><time>2026-04-12T11:26:29.014Z</time></trkpt><trkpt lat="43.9858358" lon="12.1232771"><ele>471.40000000000003</ele><time>2026-04-12T11:26:30.013Z</time></trkpt><trkpt lat="43.9857483" lon="12.1233415"><ele>468.59999999999997</ele><time>2026-04-12T11:26:31.011Z</time></trkpt><trkpt lat="43.9856458" lon="12.123339"><ele>465.79999999999995</ele><time>2026-04-12T11:26:32.011Z</time></trkpt><trkpt lat="43.9855332" lon="12.1233168"><ele>463.0</ele><time>2026-04-12T11:26:33.011Z</time></trkpt><trkpt lat="43.9854214" lon="12.1232748"><ele>466.0</ele><time>2026-04-12T11:26:34.011Z</time></trkpt><trkpt lat="43.9852839" lon="12.1231544"><ele>469.0</ele><time>2026-04-12T11:26:35.011Z</time></trkpt><trkpt lat="43.9851359" lon="12.1229923"><ele>472.0</ele><time>2026-04-12T11:26:36.012Z</time></trkpt><trkpt lat="43.9849997" lon="12.1228198"><ele>472.0</ele><time>2026-04-12T11:26:37.011Z</time></trkpt><trkpt lat="43.9848984" lon="12.1226567"><ele>472.0</ele><time>2026-04-12T11:26:38.011Z</time></trkpt><trkpt lat="43.9848227" lon="12.1224934"><ele>472.0</ele><time>2026-04-12T11:26:39.015Z</time></trkpt><trkpt lat="43.9847412" lon="12.1223667"><ele>472.0</ele><time>2026-04-12T11:26:40.011Z</time></trkpt><trkpt lat="43.9846404" lon="12.1222845"><ele>472.0</ele><time>2026-04-12T11:26:41.013Z</time></trkpt><trkpt lat="43.9845326" lon="12.122262"><ele>472.0</ele><time>2026-04-12T11:26:42.011Z</time></trkpt><trkpt lat="43.9844248" lon="12.1222661"><ele>472.0</ele><time>2026-04-12T11:26:43.011Z</time></trkpt><trkpt lat="43.9843152" lon="12.1223201"><ele>472.0</ele><time>2026-04-12T11:26:44.012Z</time></trkpt><trkpt lat="43.9842017" lon="12.1224425"><ele>473.0</ele><time>2026-04-12T11:26:45.014Z</time></trkpt><trkpt lat="43.9840747" lon="12.1225661"><ele>474.0</ele><time>2026-04-12T11:26:46.013Z</time></trkpt><trkpt lat="43.9839215" lon="12.1226904"><ele>475.0</ele><time>2026-04-12T11:26:47.011Z</time></trkpt><trkpt lat="43.9837522" lon="12.1227899"><ele>475.0</ele><time>2026-04-12T11:26:48.012Z</time></trkpt><trkpt lat="43.9835691" lon="12.1228593"><ele>475.0</ele><time>2026-04-12T11:26:49.012Z</time></trkpt><trkpt lat="43.9833722" lon="12.1229201"><ele>475.0</ele><time>2026-04-12T11:26:50.016Z</time></trkpt><trkpt lat="43.9831743" lon="12.1230001"><ele>475.33333333333337</ele><time>2026-04-12T11:26:51.013Z</time></trkpt><trkpt lat="43.9829708" lon="12.1230789"><ele>475.66666666666663</ele><time>2026-04-12T11:26:52.013Z</time></trkpt><trkpt lat="43.982763" lon="12.1231643"><ele>476.0</ele><time>2026-04-12T11:26:53.014Z</time></trkpt><trkpt lat="43.9825582" lon="12.1232411"><ele>479.0</ele><time>2026-04-12T11:26:54.012Z</time></trkpt><trkpt lat="43.9823679" lon="12.1233076"><ele>482.0</ele><time>2026-04-12T11:26:55.012Z</time></trkpt><trkpt lat="43.9821905" lon="12.1233731"><ele>485.0</ele><time>2026-04-12T11:26:56.012Z</time></trkpt><trkpt lat="43.9820176" lon="12.1234458"><ele>485.0</ele><time>2026-04-12T11:26:57.014Z</time></trkpt><trkpt lat="43.9818496" lon="12.1235356"><ele>485.0</ele><time>2026-04-12T11:26:58.014Z</time></trkpt><trkpt lat="43.9816826" lon="12.1236342"><ele>485.0</ele><time>2026-04-12T11:26:59.012Z</time></trkpt><trkpt lat="43.9815153" lon="12.1237332"><ele>486.0</ele><time>2026-04-12T11:27:00.012Z</time></trkpt><trkpt lat="43.9813531" lon="12.1238375"><ele>487.0</ele><time>2026-04-12T11:27:01.014Z</time></trkpt><trkpt lat="43.9812042" lon="12.123963"><ele>488.0</ele><time>2026-04-12T11:27:02.014Z</time></trkpt><trkpt lat="43.9810684" lon="12.1241045"><ele>488.0</ele><time>2026-04-12T11:27:03.012Z</time></trkpt><trkpt lat="43.9809362" lon="12.1242563"><ele>488.0</ele><time>2026-04-12T11:27:04.012Z</time></trkpt><trkpt lat="43.9808158" lon="12.1244295"><ele>488.0</ele><time>2026-04-12T11:27:05.013Z</time></trkpt><trkpt lat="43.9807158" lon="12.124629"><ele>487.66666666666663</ele><time>2026-04-12T11:27:06.011Z</time></trkpt><trkpt lat="43.9806326" lon="12.1248502"><ele>487.33333333333337</ele><time>2026-04-12T11:27:07.012Z</time></trkpt><trkpt lat="43.9805573" lon="12.1250734"><ele>487.0</ele><time>2026-04-12T11:27:08.012Z</time></trkpt><trkpt lat="43.9804699" lon="12.1252946"><ele>487.0</ele><time>2026-04-12T11:27:09.016Z</time></trkpt><trkpt lat="43.9803665" lon="12.1255128"><ele>487.0</ele><time>2026-04-12T11:27:10.012Z</time></trkpt><trkpt lat="43.9802536" lon="12.125735"><ele>487.0</ele><time>2026-04-12T11:27:11.012Z</time></trkpt><trkpt lat="43.9801281" lon="12.1259552"><ele>492.0</ele><time>2026-04-12T11:27:12.011Z</time></trkpt><trkpt lat="43.9800008" lon="12.1261611"><ele>497.0</ele><time>2026-04-12T11:27:13.012Z</time></trkpt><trkpt lat="43.979872" lon="12.1263518"><ele>502.0</ele><time>2026-04-12T11:27:14.015Z</time></trkpt><trkpt lat="43.9797408" lon="12.1265283"><ele>500.0</ele><time>2026-04-12T11:27:15.012Z</time></trkpt><trkpt lat="43.9796163" lon="12.1266983"><ele>498.0</ele><time>2026-04-12T11:27:16.011Z</time></trkpt><trkpt lat="43.9794963" lon="12.1268595"><ele>496.0</ele><time>2026-04-12T11:27:17.011Z</time></trkpt><trkpt lat="43.9793748" lon="12.1270027"><ele>496.0</ele><time>2026-04-12T11:27:18.012Z</time></trkpt><trkpt lat="43.9792537" lon="12.1271199"><ele>496.0</ele><time>2026-04-12T11:27:19.011Z</time></trkpt><trkpt lat="43.9791179" lon="12.1271933"><ele>496.0</ele><time>2026-04-12T11:27:20.012Z</time></trkpt><trkpt lat="43.9789635" lon="12.1272296"><ele>498.33333333333337</ele><time>2026-04-12T11:27:21.012Z</time></trkpt><trkpt lat="43.9787975" lon="12.1272399"><ele>500.66666666666663</ele><time>2026-04-12T11:27:22.013Z</time></trkpt><trkpt lat="43.9786213" lon="12.1272454"><ele>503.0</ele><time>2026-04-12T11:27:23.015Z</time></trkpt><trkpt lat="43.9784447" lon="12.1272624"><ele>499.3333333333333</ele><time>2026-04-12T11:27:24.013Z</time></trkpt><trkpt lat="43.9782773" lon="12.1272824"><ele>495.66666666666663</ele><time>2026-04-12T11:27:25.012Z</time></trkpt><trkpt lat="43.9781253" lon="12.1272766"><ele>492.0</ele><time>2026-04-12T11:27:26.014Z</time></trkpt><trkpt lat="43.9779864" lon="12.1272379"><ele>492.0</ele><time>2026-04-12T11:27:27.014Z</time></trkpt><trkpt lat="43.9778646" lon="12.1271397"><ele>492.0</ele><time>2026-04-12T11:27:28.01Z</time></trkpt><trkpt lat="43.9777481" lon="12.127015"><ele>492.0</ele><time>2026-04-12T11:27:29.01Z</time></trkpt><trkpt lat="43.9776364" lon="12.1268909"><ele>492.0</ele><time>2026-04-12T11:27:30.013Z</time></trkpt><trkpt lat="43.9775294" lon="12.1267896"><ele>495.5</ele><time>2026-04-12T11:27:31.012Z</time></trkpt><trkpt lat="43.9774259" lon="12.1267251"><ele>499.0</ele><time>2026-04-12T11:27:32.011Z</time></trkpt><trkpt lat="43.9773074" lon="12.1267095"><ele>502.5</ele><time>2026-04-12T11:27:33.011Z</time></trkpt><trkpt lat="43.9771849" lon="12.1267429"><ele>506.0</ele><time>2026-04-12T11:27:34.01Z</time></trkpt><trkpt lat="43.9770567" lon="12.1268229"><ele>506.0</ele><time>2026-04-12T11:27:35.013Z</time></trkpt><trkpt lat="43.9769197" lon="12.1269363"><ele>506.0</ele><time>2026-04-12T11:27:36.011Z</time></trkpt><trkpt lat="43.9767708" lon="12.1270567"><ele>506.0</ele><time>2026-04-12T11:27:37.015Z</time></trkpt><trkpt lat="43.9766183" lon="12.1271736"><ele>507.0</ele><time>2026-04-12T11:27:38.012Z</time></trkpt><trkpt lat="43.9764789" lon="12.12728"><ele>508.0</ele><time>2026-04-12T11:27:39.012Z</time></trkpt><trkpt lat="43.9763645" lon="12.1273927"><ele>509.0</ele><time>2026-04-12T11:27:40.011Z</time></trkpt><trkpt lat="43.976271" lon="12.127515"><ele>510.0</ele><time>2026-04-12T11:27:41.01Z</time></trkpt><trkpt lat="43.976215" lon="12.127662"><ele>513.25</ele><time>2026-04-12T11:27:42.013Z</time></trkpt><trkpt lat="43.9761932" lon="12.1278271"><ele>516.5</ele><time>2026-04-12T11:27:43.013Z</time></trkpt><trkpt lat="43.9762074" lon="12.1280131"><ele>519.75</ele><time>2026-04-12T11:27:44.011Z</time></trkpt><trkpt lat="43.9762199" lon="12.1281971"><ele>523.0</ele><time>2026-04-12T11:27:45.011Z</time></trkpt><trkpt lat="43.9762068" lon="12.1283604"><ele>527.0</ele><time>2026-04-12T11:27:46.014Z</time></trkpt><trkpt lat="43.9761567" lon="12.1284995"><ele>531.0</ele><time>2026-04-12T11:27:47.015Z</time></trkpt><trkpt lat="43.9760758" lon="12.1286218"><ele>535.0</ele><time>2026-04-12T11:27:48.01Z</time></trkpt><trkpt lat="43.9759856" lon="12.1287258"><ele>539.0</ele><time>2026-04-12T11:27:49.013Z</time></trkpt><trkpt lat="43.9758945" lon="12.1288239"><ele>540.4</ele><time>2026-04-12T11:27:50.011Z</time></trkpt><trkpt lat="43.9758267" lon="12.1289483"><ele>541.8</ele><time>2026-04-12T11:27:51.014Z</time></trkpt><trkpt lat="43.9758001" lon="12.1290914"><ele>543.2</ele><time>2026-04-12T11:27:52.015Z</time></trkpt><trkpt lat="43.9758065" lon="12.1292389"><ele>544.6</ele><time>2026-04-12T11:27:53.01Z</time></trkpt><trkpt lat="43.9758521" lon="12.1293972"><ele>546.0</ele><time>2026-04-12T11:27:54.012Z</time></trkpt><trkpt lat="43.975932" lon="12.129562"><ele>546.0</ele><time>2026-04-12T11:27:55.012Z</time></trkpt><trkpt lat="43.9760262" lon="12.1297427"><ele>546.0</ele><time>2026-04-12T11:27:56.012Z</time></trkpt><trkpt lat="43.9761355" lon="12.1299308"><ele>546.0</ele><time>2026-04-12T11:27:57.021Z</time></trkpt><trkpt lat="43.9762346" lon="12.1301149"><ele>544.5</ele><time>2026-04-12T11:27:58.011Z</time></trkpt><trkpt lat="43.9763186" lon="12.1302888"><ele>543.0</ele><time>2026-04-12T11:27:59.01Z</time></trkpt><trkpt lat="43.9763856" lon="12.130455"><ele>541.5</ele><time>2026-04-12T11:28:00.013Z</time></trkpt><trkpt lat="43.9764267" lon="12.1306172"><ele>540.0</ele><time>2026-04-12T11:28:01.012Z</time></trkpt><trkpt lat="43.976431" lon="12.1307887"><ele>539.5</ele><time>2026-04-12T11:28:02.012Z</time></trkpt><trkpt lat="43.976397" lon="12.130961"><ele>539.0</ele><time>2026-04-12T11:28:03.013Z</time></trkpt><trkpt lat="43.9763302" lon="12.1311138"><ele>538.5</ele><time>2026-04-12T11:28:04.012Z</time></trkpt><trkpt lat="43.9762309" lon="12.1312372"><ele>538.0</ele><time>2026-04-12T11:28:05.015Z</time></trkpt><trkpt lat="43.9761118" lon="12.1313277"><ele>538.0</ele><time>2026-04-12T11:28:06.011Z</time></trkpt><trkpt lat="43.9759711" lon="12.1313869"><ele>538.0</ele><time>2026-04-12T11:28:07.012Z</time></trkpt><trkpt lat="43.975835" lon="12.1314502"><ele>538.0</ele><time>2026-04-12T11:28:08.014Z</time></trkpt><trkpt lat="43.9757167" lon="12.1315396"><ele>538.0</ele><time>2026-04-12T11:28:09.015Z</time></trkpt><trkpt lat="43.9756215" lon="12.131644"><ele>538.1999999999999</ele><time>2026-04-12T11:28:10.012Z</time></trkpt><trkpt lat="43.9755611" lon="12.131756"><ele>538.4</ele><time>2026-04-12T11:28:11.012Z</time></trkpt><trkpt lat="43.9755404" lon="12.1318691"><ele>538.5999999999999</ele><time>2026-04-12T11:28:12.011Z</time></trkpt><trkpt lat="43.975562" lon="12.1319851"><ele>538.8</ele><time>2026-04-12T11:28:13.013Z</time></trkpt><trkpt lat="43.9756236" lon="12.1320942"><ele>539.0</ele><time>2026-04-12T11:28:14.012Z</time></trkpt><trkpt lat="43.9757294" lon="12.1321973"><ele>539.0</ele><time>2026-04-12T11:28:15.012Z</time></trkpt><trkpt lat="43.975843" lon="12.1323038"><ele>539.0</ele><time>2026-04-12T11:28:16.013Z</time></trkpt><trkpt lat="43.975979" lon="12.1324258"><ele>539.0</ele><time>2026-04-12T11:28:17.013Z</time></trkpt><trkpt lat="43.9761464" lon="12.1325481"><ele>539.3333333333333</ele><time>2026-04-12T11:28:18.012Z</time></trkpt><trkpt lat="43.9763188" lon="12.1326722"><ele>539.6666666666666</ele><time>2026-04-12T11:28:19.012Z</time></trkpt><trkpt lat="43.9764756" lon="12.1327957"><ele>540.0</ele><time>2026-04-12T11:28:20.013Z</time></trkpt><trkpt lat="43.9766075" lon="12.1329101"><ele>537.0</ele><time>2026-04-12T11:28:21.012Z</time></trkpt><trkpt lat="43.9766922" lon="12.1330474"><ele>534.0</ele><time>2026-04-12T11:28:22.015Z</time></trkpt><trkpt lat="43.9767349" lon="12.1332127"><ele>531.0</ele><time>2026-04-12T11:28:23.012Z</time></trkpt><trkpt lat="43.9767398" lon="12.1334041"><ele>528.0</ele><time>2026-04-12T11:28:24.011Z</time></trkpt><trkpt lat="43.9767142" lon="12.1336003"><ele>529.25</ele><time>2026-04-12T11:28:25.012Z</time></trkpt><trkpt lat="43.9766648" lon="12.133775"><ele>530.5</ele><time>2026-04-12T11:28:26.012Z</time></trkpt><trkpt lat="43.9765969" lon="12.1339045"><ele>531.75</ele><time>2026-04-12T11:28:27.012Z</time></trkpt><trkpt lat="43.976499" lon="12.1339926"><ele>533.0</ele><time>2026-04-12T11:28:28.013Z</time></trkpt><trkpt lat="43.9763796" lon="12.1340438"><ele>534.8</ele><time>2026-04-12T11:28:29.012Z</time></trkpt><trkpt lat="43.9762536" lon="12.1340801"><ele>536.5999999999999</ele><time>2026-04-12T11:28:30.012Z</time></trkpt><trkpt lat="43.9761421" lon="12.1341203"><ele>538.4000000000001</ele><time>2026-04-12T11:28:31.017Z</time></trkpt><trkpt lat="43.9760679" lon="12.1341889"><ele>540.2</ele><time>2026-04-12T11:28:32.013Z</time></trkpt><trkpt lat="43.9760214" lon="12.1342739"><ele>542.0</ele><time>2026-04-12T11:28:33.012Z</time></trkpt><trkpt lat="43.976027" lon="12.1343827"><ele>542.0</ele><time>2026-04-12T11:28:34.011Z</time></trkpt><trkpt lat="43.976085" lon="12.1345169"><ele>542.0</ele><time>2026-04-12T11:28:35.012Z</time></trkpt><trkpt lat="43.9761528" lon="12.1346727"><ele>542.0</ele><time>2026-04-12T11:28:36.011Z</time></trkpt><trkpt lat="43.9762366" lon="12.1348438"><ele>542.0</ele><time>2026-04-12T11:28:37.012Z</time></trkpt><trkpt lat="43.9763341" lon="12.1350289"><ele>544.3333333333333</ele><time>2026-04-12T11:28:38.02Z</time></trkpt><trkpt lat="43.9764382" lon="12.1352237"><ele>546.6666666666666</ele><time>2026-04-12T11:28:39.013Z</time></trkpt><trkpt lat="43.97654" lon="12.1354258"><ele>549.0</ele><time>2026-04-12T11:28:40.013Z</time></trkpt><trkpt lat="43.976638" lon="12.1356355"><ele>544.0</ele><time>2026-04-12T11:28:41.012Z</time></trkpt><trkpt lat="43.9767326" lon="12.1358514"><ele>539.0</ele><time>2026-04-12T11:28:42.011Z</time></trkpt><trkpt lat="43.9768341" lon="12.1360617"><ele>534.0</ele><time>2026-04-12T11:28:43.012Z</time></trkpt><trkpt lat="43.9769349" lon="12.1362623"><ele>534.0</ele><time>2026-04-12T11:28:44.011Z</time></trkpt><trkpt lat="43.9770332" lon="12.1364616"><ele>534.0</ele><time>2026-04-12T11:28:45.019Z</time></trkpt><trkpt lat="43.9771232" lon="12.1366556"><ele>534.0</ele><time>2026-04-12T11:28:46.012Z</time></trkpt><trkpt lat="43.9771928" lon="12.1368593"><ele>537.25</ele><time>2026-04-12T11:28:47.011Z</time></trkpt><trkpt lat="43.9772393" lon="12.1370601"><ele>540.5</ele><time>2026-04-12T11:28:48.013Z</time></trkpt><trkpt lat="43.9772689" lon="12.1372447"><ele>543.75</ele><time>2026-04-12T11:28:49.011Z</time></trkpt><trkpt lat="43.9773008" lon="12.1374024"><ele>547.0</ele><time>2026-04-12T11:28:50.012Z</time></trkpt><trkpt lat="43.9773435" lon="12.1375118"><ele>547.6</ele><time>2026-04-12T11:28:51.012Z</time></trkpt><trkpt lat="43.9773916" lon="12.1375895"><ele>548.2</ele><time>2026-04-12T11:28:52.012Z</time></trkpt><trkpt lat="43.9774552" lon="12.1376365"><ele>548.8</ele><time>2026-04-12T11:28:53.017Z</time></trkpt><trkpt lat="43.9775704" lon="12.1376224"><ele>549.4</ele><time>2026-04-12T11:28:54.012Z</time></trkpt><trkpt lat="43.9777061" lon="12.1376137"><ele>550.0</ele><time>2026-04-12T11:28:55.012Z</time></trkpt><trkpt lat="43.9778433" lon="12.1376335"><ele>550.0</ele><time>2026-04-12T11:28:56.012Z</time></trkpt><trkpt lat="43.9779784" lon="12.1376853"><ele>550.0</ele><time>2026-04-12T11:28:57.012Z</time></trkpt><trkpt lat="43.9781028" lon="12.1377858"><ele>550.0</ele><time>2026-04-12T11:28:58.012Z</time></trkpt><trkpt lat="43.9782098" lon="12.1379185"><ele>550.0</ele><time>2026-04-12T11:28:59.014Z</time></trkpt><trkpt lat="43.9783066" lon="12.1380542"><ele>550.5</ele><time>2026-04-12T11:29:00.012Z</time></trkpt><trkpt lat="43.9784101" lon="12.1381667"><ele>551.0</ele><time>2026-04-12T11:29:01.016Z</time></trkpt><trkpt lat="43.9785328" lon="12.1382472"><ele>551.5</ele><time>2026-04-12T11:29:02.012Z</time></trkpt><trkpt lat="43.9786753" lon="12.1383092"><ele>552.0</ele><time>2026-04-12T11:29:03.016Z</time></trkpt><trkpt lat="43.9788212" lon="12.1383739"><ele>552.0</ele><time>2026-04-12T11:29:04.011Z</time></trkpt><trkpt lat="43.9789592" lon="12.1384557"><ele>552.0</ele><time>2026-04-12T11:29:05.013Z</time></trkpt><trkpt lat="43.9790784" lon="12.1385503"><ele>552.0</ele><time>2026-04-12T11:29:06.012Z</time></trkpt><trkpt lat="43.9791787" lon="12.1386644"><ele>552.0</ele><time>2026-04-12T11:29:07.011Z</time></trkpt><trkpt lat="43.9792574" lon="12.1388104"><ele>547.75</ele><time>2026-04-12T11:29:08.011Z</time></trkpt><trkpt lat="43.979323" lon="12.1389919"><ele>543.5</ele><time>2026-04-12T11:29:09.011Z</time></trkpt><trkpt lat="43.9793879" lon="12.139179"><ele>539.25</ele><time>2026-04-12T11:29:10.015Z</time></trkpt><trkpt lat="43.9794631" lon="12.139342"><ele>535.0</ele><time>2026-04-12T11:29:11.011Z</time></trkpt><trkpt lat="43.9795522" lon="12.1394809"><ele>535.0</ele><time>2026-04-12T11:29:12.013Z</time></trkpt><trkpt lat="43.9796317" lon="12.1396133"><ele>535.0</ele><time>2026-04-12T11:29:13.012Z</time></trkpt><trkpt lat="43.9796717" lon="12.139755"><ele>535.0</ele><time>2026-04-12T11:29:14.012Z</time></trkpt><trkpt lat="43.9796883" lon="12.1399017"><ele>535.0</ele><time>2026-04-12T11:29:15.013Z</time></trkpt><trkpt lat="43.9796683" lon="12.1400633"><ele>537.0</ele><time>2026-04-12T11:29:16.017Z</time></trkpt><trkpt lat="43.9796117" lon="12.14024"><ele>539.0</ele><time>2026-04-12T11:29:17.015Z</time></trkpt><trkpt lat="43.9795283" lon="12.1404183"><ele>541.0</ele><time>2026-04-12T11:29:18.012Z</time></trkpt><trkpt lat="43.9794183" lon="12.14058"><ele>543.25</ele><time>2026-04-12T11:29:19.012Z</time></trkpt><trkpt lat="43.9793033" lon="12.14072"><ele>545.5</ele><time>2026-04-12T11:29:20.012Z</time></trkpt><trkpt lat="43.9791883" lon="12.140845"><ele>547.75</ele><time>2026-04-12T11:29:21.012Z</time></trkpt><trkpt lat="43.9790867" lon="12.14097"><ele>550.0</ele><time>2026-04-12T11:29:22.016Z</time></trkpt><trkpt lat="43.979" lon="12.1411183"><ele>550.0</ele><time>2026-04-12T11:29:23.012Z</time></trkpt><trkpt lat="43.9789467" lon="12.1412783"><ele>550.0</ele><time>2026-04-12T11:29:24.013Z</time></trkpt><trkpt lat="43.9788933" lon="12.1414317"><ele>550.0</ele><time>2026-04-12T11:29:25.012Z</time></trkpt><trkpt lat="43.97884" lon="12.1415667"><ele>550.0</ele><time>2026-04-12T11:29:26.014Z</time></trkpt><trkpt lat="43.978775" lon="12.1416717"><ele>550.2</ele><time>2026-04-12T11:29:27.011Z</time></trkpt><trkpt lat="43.978695" lon="12.1417417"><ele>550.4</ele><time>2026-04-12T11:29:28.01Z</time></trkpt><trkpt lat="43.97861" lon="12.1417767"><ele>550.6</ele><time>2026-04-12T11:29:29.014Z</time></trkpt><trkpt lat="43.9785067" lon="12.1417783"><ele>550.8</ele><time>2026-04-12T11:29:30.01Z</time></trkpt><trkpt lat="43.9783733" lon="12.14173"><ele>551.0</ele><time>2026-04-12T11:29:31.013Z</time></trkpt><trkpt lat="43.9782467" lon="12.1416917"><ele>551.0</ele><time>2026-04-12T11:29:32.012Z</time></trkpt><trkpt lat="43.9781267" lon="12.1416617"><ele>551.0</ele><time>2026-04-12T11:29:33.011Z</time></trkpt><trkpt lat="43.9780167" lon="12.1416867"><ele>551.0</ele><time>2026-04-12T11:29:34.016Z</time></trkpt><trkpt lat="43.9779233" lon="12.1417767"><ele>551.0</ele><time>2026-04-12T11:29:35.011Z</time></trkpt><trkpt lat="43.9778267" lon="12.14188"><ele>551.0</ele><time>2026-04-12T11:29:36.012Z</time></trkpt><trkpt lat="43.9777617" lon="12.1420367"><ele>551.0</ele><time>2026-04-12T11:29:37.013Z</time></trkpt><trkpt lat="43.9777083" lon="12.1422683"><ele>551.0</ele><time>2026-04-12T11:29:38.015Z</time></trkpt><trkpt lat="43.9776333" lon="12.142485"><ele>545.6666666666666</ele><time>2026-04-12T11:29:39.014Z</time></trkpt><trkpt lat="43.97755" lon="12.1426833"><ele>540.3333333333334</ele><time>2026-04-12T11:29:40.011Z</time></trkpt><trkpt lat="43.9775267" lon="12.1428783"><ele>535.0</ele><time>2026-04-12T11:29:41.015Z</time></trkpt><trkpt lat="43.9775267" lon="12.1430983"><ele>540.0</ele><time>2026-04-12T11:29:42.011Z</time></trkpt><trkpt lat="43.9774817" lon="12.143325"><ele>545.0</ele><time>2026-04-12T11:29:43.013Z</time></trkpt><trkpt lat="43.9773983" lon="12.1435667"><ele>550.0</ele><time>2026-04-12T11:29:44.011Z</time></trkpt><trkpt lat="43.9773167" lon="12.14382"><ele>547.3333333333334</ele><time>2026-04-12T11:29:45.012Z</time></trkpt><trkpt lat="43.977255" lon="12.1440833"><ele>544.6666666666666</ele><time>2026-04-12T11:29:46.013Z</time></trkpt><trkpt lat="43.9772267" lon="12.144345"><ele>542.0</ele><time>2026-04-12T11:29:47.012Z</time></trkpt><trkpt lat="43.9771933" lon="12.14459"><ele>542.0</ele><time>2026-04-12T11:29:48.015Z</time></trkpt><trkpt lat="43.9771533" lon="12.1448333"><ele>542.0</ele><time>2026-04-12T11:29:49.012Z</time></trkpt><trkpt lat="43.9770983" lon="12.14507"><ele>542.0</ele><time>2026-04-12T11:29:50.015Z</time></trkpt><trkpt lat="43.9770383" lon="12.1453067"><ele>538.3333333333333</ele><time>2026-04-12T11:29:51.015Z</time></trkpt><trkpt lat="43.9769767" lon="12.1455383"><ele>534.6666666666666</ele><time>2026-04-12T11:29:52.01Z</time></trkpt><trkpt lat="43.9769367" lon="12.145765"><ele>531.0</ele><time>2026-04-12T11:29:53.011Z</time></trkpt><trkpt lat="43.9769017" lon="12.1459917"><ele>526.0</ele><time>2026-04-12T11:29:54.014Z</time></trkpt><trkpt lat="43.9768767" lon="12.1462117"><ele>521.0</ele><time>2026-04-12T11:29:55.014Z</time></trkpt><trkpt lat="43.976855" lon="12.1464183"><ele>516.0</ele><time>2026-04-12T11:29:56.012Z</time></trkpt><trkpt lat="43.976835" lon="12.1466217"><ele>514.0</ele><time>2026-04-12T11:29:57.011Z</time></trkpt><trkpt lat="43.9768383" lon="12.1468267"><ele>512.0</ele><time>2026-04-12T11:29:58.013Z</time></trkpt><trkpt lat="43.9768633" lon="12.14704"><ele>510.0</ele><time>2026-04-12T11:29:59.011Z</time></trkpt><trkpt lat="43.9769033" lon="12.1472767"><ele>513.0</ele><time>2026-04-12T11:30:00.011Z</time></trkpt><trkpt lat="43.9769517" lon="12.1475333"><ele>516.0</ele><time>2026-04-12T11:30:01.013Z</time></trkpt><trkpt lat="43.9769983" lon="12.1478017"><ele>519.0</ele><time>2026-04-12T11:30:02.011Z</time></trkpt><trkpt lat="43.9770417" lon="12.1480617"><ele>522.0</ele><time>2026-04-12T11:30:03.013Z</time></trkpt><trkpt lat="43.9770867" lon="12.1483183"><ele>525.0</ele><time>2026-04-12T11:30:04.011Z</time></trkpt><trkpt lat="43.9771383" lon="12.148555"><ele>528.0</ele><time>2026-04-12T11:30:05.015Z</time></trkpt><trkpt lat="43.9771983" lon="12.14878"><ele>528.0</ele><time>2026-04-12T11:30:06.012Z</time></trkpt><trkpt lat="43.9772717" lon="12.1489967"><ele>528.0</ele><time>2026-04-12T11:30:07.012Z</time></trkpt><trkpt lat="43.977375" lon="12.149195"><ele>528.0</ele><time>2026-04-12T11:30:08.012Z</time></trkpt><trkpt lat="43.97748" lon="12.149385"><ele>524.3333333333334</ele><time>2026-04-12T11:30:09.011Z</time></trkpt><trkpt lat="43.977585" lon="12.1495483"><ele>520.6666666666667</ele><time>2026-04-12T11:30:10.013Z</time></trkpt><trkpt lat="43.9777067" lon="12.149675"><ele>517.0</ele><time>2026-04-12T11:30:11.012Z</time></trkpt><trkpt lat="43.9778583" lon="12.14979"><ele>516.3333333333334</ele><time>2026-04-12T11:30:12.012Z</time></trkpt><trkpt lat="43.9780117" lon="12.149925"><ele>515.6666666666666</ele><time>2026-04-12T11:30:13.012Z</time></trkpt><trkpt lat="43.978155" lon="12.15007"><ele>515.0</ele><time>2026-04-12T11:30:14.012Z</time></trkpt><trkpt lat="43.9782933" lon="12.1502017"><ele>512.25</ele><time>2026-04-12T11:30:15.012Z</time></trkpt><trkpt lat="43.9784267" lon="12.150325"><ele>509.5</ele><time>2026-04-12T11:30:16.013Z</time></trkpt><trkpt lat="43.978545" lon="12.15044"><ele>506.75</ele><time>2026-04-12T11:30:17.011Z</time></trkpt><trkpt lat="43.9786433" lon="12.150565"><ele>504.0</ele><time>2026-04-12T11:30:18.013Z</time></trkpt><trkpt lat="43.9787067" lon="12.15071"><ele>504.0</ele><time>2026-04-12T11:30:19.015Z</time></trkpt><trkpt lat="43.9787367" lon="12.1508717"><ele>504.0</ele><time>2026-04-12T11:30:20.012Z</time></trkpt><trkpt lat="43.9787657" lon="12.1510111"><ele>504.0</ele><time>2026-04-12T11:30:21.012Z</time></trkpt><trkpt lat="43.978804" lon="12.1511334"><ele>504.0</ele><time>2026-04-12T11:30:22.011Z</time></trkpt><trkpt lat="43.9788744" lon="12.1512249"><ele>504.0</ele><time>2026-04-12T11:30:23.012Z</time></trkpt><trkpt lat="43.9789786" lon="12.1512995"><ele>504.0</ele><time>2026-04-12T11:30:24.013Z</time></trkpt><trkpt lat="43.9791055" lon="12.1513911"><ele>504.0</ele><time>2026-04-12T11:30:25.013Z</time></trkpt><trkpt lat="43.9792429" lon="12.1515097"><ele>504.0</ele><time>2026-04-12T11:30:26.013Z</time></trkpt><trkpt lat="43.9793792" lon="12.1516477"><ele>497.0</ele><time>2026-04-12T11:30:27.017Z</time></trkpt><trkpt lat="43.9795028" lon="12.1517906"><ele>490.0</ele><time>2026-04-12T11:30:28.011Z</time></trkpt><trkpt lat="43.9796128" lon="12.1519165"><ele>483.0</ele><time>2026-04-12T11:30:29.011Z</time></trkpt><trkpt lat="43.9797003" lon="12.1520485"><ele>476.0</ele><time>2026-04-12T11:30:30.015Z</time></trkpt><trkpt lat="43.9797483" lon="12.1522007"><ele>476.0</ele><time>2026-04-12T11:30:31.012Z</time></trkpt><trkpt lat="43.9797602" lon="12.1523691"><ele>476.0</ele><time>2026-04-12T11:30:32.012Z</time></trkpt><trkpt lat="43.979746" lon="12.1525553"><ele>476.0</ele><time>2026-04-12T11:30:33.014Z</time></trkpt><trkpt lat="43.9797195" lon="12.1527711"><ele>476.0</ele><time>2026-04-12T11:30:34.012Z</time></trkpt><trkpt lat="43.9796921" lon="12.1529926"><ele>480.66666666666663</ele><time>2026-04-12T11:30:35.012Z</time></trkpt><trkpt lat="43.9796762" lon="12.1532082"><ele>485.33333333333337</ele><time>2026-04-12T11:30:36.011Z</time></trkpt><trkpt lat="43.9796623" lon="12.1534166"><ele>490.0</ele><time>2026-04-12T11:30:37.011Z</time></trkpt><trkpt lat="43.9796493" lon="12.1536177"><ele>490.0</ele><time>2026-04-12T11:30:38.012Z</time></trkpt><trkpt lat="43.9795911" lon="12.1537991"><ele>490.0</ele><time>2026-04-12T11:30:39.013Z</time></trkpt><trkpt lat="43.9794992" lon="12.1539637"><ele>490.0</ele><time>2026-04-12T11:30:40.013Z</time></trkpt><trkpt lat="43.9793862" lon="12.1540996"><ele>490.0</ele><time>2026-04-12T11:30:41.012Z</time></trkpt><trkpt lat="43.9792578" lon="12.1542027"><ele>488.25</ele><time>2026-04-12T11:30:42.014Z</time></trkpt><trkpt lat="43.9791257" lon="12.1542821"><ele>486.5</ele><time>2026-04-12T11:30:43.012Z</time></trkpt><trkpt lat="43.9790048" lon="12.1543533"><ele>484.75</ele><time>2026-04-12T11:30:44.01Z</time></trkpt><trkpt lat="43.9789006" lon="12.1544395"><ele>483.0</ele><time>2026-04-12T11:30:45.011Z</time></trkpt><trkpt lat="43.9788253" lon="12.154538"><ele>483.0</ele><time>2026-04-12T11:30:46.012Z</time></trkpt><trkpt lat="43.9787923" lon="12.1546645"><ele>483.0</ele><time>2026-04-12T11:30:47.011Z</time></trkpt><trkpt lat="43.9787773" lon="12.1548152"><ele>483.0</ele><time>2026-04-12T11:30:48.011Z</time></trkpt><trkpt lat="43.9787538" lon="12.1549847"><ele>483.0</ele><time>2026-04-12T11:30:49.013Z</time></trkpt><trkpt lat="43.9787178" lon="12.1551821"><ele>483.0</ele><time>2026-04-12T11:30:50.01Z</time></trkpt><trkpt lat="43.9786624" lon="12.1553933"><ele>483.0</ele><time>2026-04-12T11:30:51.012Z</time></trkpt><trkpt lat="43.9785934" lon="12.1556118"><ele>483.0</ele><time>2026-04-12T11:30:52.015Z</time></trkpt><trkpt lat="43.9785177" lon="12.1558241"><ele>476.66666666666663</ele><time>2026-04-12T11:30:53.01Z</time></trkpt><trkpt lat="43.9784387" lon="12.1560293"><ele>470.3333333333333</ele><time>2026-04-12T11:30:54.012Z</time></trkpt><trkpt lat="43.9783537" lon="12.1562172"><ele>464.0</ele><time>2026-04-12T11:30:55.012Z</time></trkpt><trkpt lat="43.9782438" lon="12.15638"><ele>462.0</ele><time>2026-04-12T11:30:56.012Z</time></trkpt><trkpt lat="43.9781281" lon="12.1565477"><ele>460.0</ele><time>2026-04-12T11:30:57.013Z</time></trkpt><trkpt lat="43.9780074" lon="12.1567282"><ele>458.0</ele><time>2026-04-12T11:30:58.014Z</time></trkpt><trkpt lat="43.9778852" lon="12.1569185"><ele>458.0</ele><time>2026-04-12T11:30:59.012Z</time></trkpt><trkpt lat="43.9777651" lon="12.1571123"><ele>458.0</ele><time>2026-04-12T11:31:00.016Z</time></trkpt><trkpt lat="43.9776561" lon="12.1573165"><ele>458.0</ele><time>2026-04-12T11:31:01.011Z</time></trkpt><trkpt lat="43.9775684" lon="12.1575461"><ele>457.3333333333333</ele><time>2026-04-12T11:31:02.015Z</time></trkpt><trkpt lat="43.9774876" lon="12.1577898"><ele>456.66666666666663</ele><time>2026-04-12T11:31:03.013Z</time></trkpt><trkpt lat="43.977394" lon="12.1580278"><ele>456.0</ele><time>2026-04-12T11:31:04.012Z</time></trkpt><trkpt lat="43.9773044" lon="12.1582655"><ele>456.0</ele><time>2026-04-12T11:31:05.014Z</time></trkpt><trkpt lat="43.9772258" lon="12.1585048"><ele>456.0</ele><time>2026-04-12T11:31:06.011Z</time></trkpt><trkpt lat="43.9771505" lon="12.1587496"><ele>456.0</ele><time>2026-04-12T11:31:07.017Z</time></trkpt><trkpt lat="43.9770736" lon="12.1589956"><ele>452.33333333333337</ele><time>2026-04-12T11:31:08.012Z</time></trkpt><trkpt lat="43.9769839" lon="12.1592431"><ele>448.6666666666667</ele><time>2026-04-12T11:31:09.013Z</time></trkpt><trkpt lat="43.9769012" lon="12.1594924"><ele>445.0</ele><time>2026-04-12T11:31:10.013Z</time></trkpt><trkpt lat="43.9768332" lon="12.1597384"><ele>446.33333333333337</ele><time>2026-04-12T11:31:11.012Z</time></trkpt><trkpt lat="43.9767824" lon="12.1599736"><ele>447.66666666666663</ele><time>2026-04-12T11:31:12.01Z</time></trkpt><trkpt lat="43.9767429" lon="12.1601993"><ele>449.0</ele><time>2026-04-12T11:31:13.012Z</time></trkpt><trkpt lat="43.9767258" lon="12.1604287"><ele>449.0</ele><time>2026-04-12T11:31:14.013Z</time></trkpt><trkpt lat="43.9767286" lon="12.1606575"><ele>449.0</ele><time>2026-04-12T11:31:15.013Z</time></trkpt><trkpt lat="43.9767279" lon="12.1608709"><ele>449.0</ele><time>2026-04-12T11:31:16.014Z</time></trkpt><trkpt lat="43.9767014" lon="12.1610593"><ele>452.25</ele><time>2026-04-12T11:31:17.013Z</time></trkpt><trkpt lat="43.9766425" lon="12.1612213"><ele>455.5</ele><time>2026-04-12T11:31:18.012Z</time></trkpt><trkpt lat="43.9765813" lon="12.1613746"><ele>458.75</ele><time>2026-04-12T11:31:19.012Z</time></trkpt><trkpt lat="43.9765332" lon="12.1615341"><ele>462.0</ele><time>2026-04-12T11:31:20.012Z</time></trkpt><trkpt lat="43.9765159" lon="12.1617034"><ele>465.75</ele><time>2026-04-12T11:31:21.016Z</time></trkpt><trkpt lat="43.9765176" lon="12.1618776"><ele>469.5</ele><time>2026-04-12T11:31:22.012Z</time></trkpt><trkpt lat="43.9765168" lon="12.1620494"><ele>473.25</ele><time>2026-04-12T11:31:23.013Z</time></trkpt><trkpt lat="43.9764947" lon="12.1622078"><ele>477.0</ele><time>2026-04-12T11:31:24.011Z</time></trkpt><trkpt lat="43.9764467" lon="12.162347"><ele>478.40000000000003</ele><time>2026-04-12T11:31:25.012Z</time></trkpt><trkpt lat="43.9763693" lon="12.1624591"><ele>479.80000000000007</ele><time>2026-04-12T11:31:26.015Z</time></trkpt><trkpt lat="43.9762707" lon="12.1625332"><ele>481.2</ele><time>2026-04-12T11:31:27.011Z</time></trkpt><trkpt lat="43.9761766" lon="12.1625822"><ele>482.6</ele><time>2026-04-12T11:31:28.012Z</time></trkpt><trkpt lat="43.9760713" lon="12.1625659"><ele>484.0</ele><time>2026-04-12T11:31:29.013Z</time></trkpt><trkpt lat="43.975978" lon="12.1625233"><ele>484.0</ele><time>2026-04-12T11:31:30.011Z</time></trkpt><trkpt lat="43.9759009" lon="12.1625093"><ele>484.0</ele><time>2026-04-12T11:31:31.01Z</time></trkpt><trkpt lat="43.9758242" lon="12.1625882"><ele>484.0</ele><time>2026-04-12T11:31:33.011Z</time></trkpt><trkpt lat="43.9758223" lon="12.1627004"><ele>484.0</ele><time>2026-04-12T11:31:35.009Z</time></trkpt><trkpt lat="43.9759199" lon="12.1627165"><ele>484.0</ele><time>2026-04-12T11:31:36.011Z</time></trkpt><trkpt lat="43.9760422" lon="12.1627154"><ele>484.0</ele><time>2026-04-12T11:31:37.011Z</time></trkpt><trkpt lat="43.976137" lon="12.1627742"><ele>484.0</ele><time>2026-04-12T11:31:38.013Z</time></trkpt><trkpt lat="43.9762021" lon="12.1628749"><ele>484.0</ele><time>2026-04-12T11:31:39.013Z</time></trkpt><trkpt lat="43.9762493" lon="12.1629889"><ele>484.0</ele><time>2026-04-12T11:31:40.012Z</time></trkpt><trkpt lat="43.976251" lon="12.163135"><ele>484.0</ele><time>2026-04-12T11:31:41.016Z</time></trkpt><trkpt lat="43.9762067" lon="12.1632832"><ele>481.75</ele><time>2026-04-12T11:31:42.011Z</time></trkpt><trkpt lat="43.9761468" lon="12.1634149"><ele>479.5</ele><time>2026-04-12T11:31:43.012Z</time></trkpt><trkpt lat="43.9760574" lon="12.1635301"><ele>477.25</ele><time>2026-04-12T11:31:44.012Z</time></trkpt><trkpt lat="43.9759217" lon="12.1636206"><ele>475.0</ele><time>2026-04-12T11:31:45.014Z</time></trkpt><trkpt lat="43.9757777" lon="12.1637388"><ele>477.6666666666667</ele><time>2026-04-12T11:31:46.011Z</time></trkpt><trkpt lat="43.9756531" lon="12.1639134"><ele>480.33333333333337</ele><time>2026-04-12T11:31:47.012Z</time></trkpt><trkpt lat="43.9755377" lon="12.1641265"><ele>483.0</ele><time>2026-04-12T11:31:48.013Z</time></trkpt><trkpt lat="43.9754288" lon="12.1643622"><ele>483.0</ele><time>2026-04-12T11:31:49.012Z</time></trkpt><trkpt lat="43.9753178" lon="12.1646159"><ele>483.0</ele><time>2026-04-12T11:31:50.013Z</time></trkpt><trkpt lat="43.9752086" lon="12.1648835"><ele>483.0</ele><time>2026-04-12T11:31:51.012Z</time></trkpt><trkpt lat="43.9751117" lon="12.1651647"><ele>482.5</ele><time>2026-04-12T11:31:52.013Z</time></trkpt><trkpt lat="43.9750266" lon="12.1654576"><ele>482.0</ele><time>2026-04-12T11:31:53.013Z</time></trkpt><trkpt lat="43.9749516" lon="12.1657515"><ele>482.0</ele><time>2026-04-12T11:31:54.01Z</time></trkpt><trkpt lat="43.9748843" lon="12.1660423"><ele>482.0</ele><time>2026-04-12T11:31:55.014Z</time></trkpt><trkpt lat="43.9748245" lon="12.1663151"><ele>482.0</ele><time>2026-04-12T11:31:56.013Z</time></trkpt><trkpt lat="43.9747807" lon="12.16657"><ele>481.3333333333333</ele><time>2026-04-12T11:31:57.013Z</time></trkpt><trkpt lat="43.9747575" lon="12.1668132"><ele>480.66666666666663</ele><time>2026-04-12T11:31:58.012Z</time></trkpt><trkpt lat="43.9747504" lon="12.1670487"><ele>480.0</ele><time>2026-04-12T11:31:59.013Z</time></trkpt><trkpt lat="43.9747414" lon="12.1672707"><ele>484.33333333333337</ele><time>2026-04-12T11:32:00.014Z</time></trkpt><trkpt lat="43.9747122" lon="12.1674822"><ele>488.6666666666667</ele><time>2026-04-12T11:32:01.013Z</time></trkpt><trkpt lat="43.9746534" lon="12.1676793"><ele>493.0</ele><time>2026-04-12T11:32:02.012Z</time></trkpt><trkpt lat="43.9745723" lon="12.167859"><ele>493.0</ele><time>2026-04-12T11:32:03.013Z</time></trkpt><trkpt lat="43.9744611" lon="12.16803"><ele>493.0</ele><time>2026-04-12T11:32:04.013Z</time></trkpt><trkpt lat="43.9743269" lon="12.1681899"><ele>493.0</ele><time>2026-04-12T11:32:05.015Z</time></trkpt><trkpt lat="43.974182" lon="12.1683303"><ele>495.0</ele><time>2026-04-12T11:32:06.014Z</time></trkpt><trkpt lat="43.9740333" lon="12.1684374"><ele>497.0</ele><time>2026-04-12T11:32:07.011Z</time></trkpt><trkpt lat="43.9738817" lon="12.1685035"><ele>499.0</ele><time>2026-04-12T11:32:08.013Z</time></trkpt><trkpt lat="43.9737391" lon="12.1685293"><ele>499.0</ele><time>2026-04-12T11:32:09.014Z</time></trkpt><trkpt lat="43.9736067" lon="12.1685181"><ele>499.0</ele><time>2026-04-12T11:32:10.015Z</time></trkpt><trkpt lat="43.9734876" lon="12.1685106"><ele>499.0</ele><time>2026-04-12T11:32:11.016Z</time></trkpt><trkpt lat="43.973388" lon="12.1685422"><ele>499.0</ele><time>2026-04-12T11:32:12.011Z</time></trkpt><trkpt lat="43.9733122" lon="12.1686253"><ele>500.2</ele><time>2026-04-12T11:32:13.013Z</time></trkpt><trkpt lat="43.9732525" lon="12.1687511"><ele>501.4</ele><time>2026-04-12T11:32:14.012Z</time></trkpt><trkpt lat="43.9731899" lon="12.1688781"><ele>502.6</ele><time>2026-04-12T11:32:15.012Z</time></trkpt><trkpt lat="43.9731113" lon="12.1689726"><ele>503.8</ele><time>2026-04-12T11:32:16.012Z</time></trkpt><trkpt lat="43.9730128" lon="12.1690243"><ele>505.0</ele><time>2026-04-12T11:32:17.011Z</time></trkpt><trkpt lat="43.9729207" lon="12.1690758"><ele>505.0</ele><time>2026-04-12T11:32:18.012Z</time></trkpt><trkpt lat="43.9728508" lon="12.1691593"><ele>505.0</ele><time>2026-04-12T11:32:19.012Z</time></trkpt><trkpt lat="43.9727995" lon="12.1692699"><ele>505.0</ele><time>2026-04-12T11:32:20.011Z</time></trkpt><trkpt lat="43.9727759" lon="12.1694069"><ele>505.0</ele><time>2026-04-12T11:32:21.017Z</time></trkpt><trkpt lat="43.972781" lon="12.169591"><ele>505.0</ele><time>2026-04-12T11:32:22.011Z</time></trkpt><trkpt lat="43.9727938" lon="12.1698097"><ele>503.0</ele><time>2026-04-12T11:32:23.011Z</time></trkpt><trkpt lat="43.9727892" lon="12.1700384"><ele>501.0</ele><time>2026-04-12T11:32:24.012Z</time></trkpt><trkpt lat="43.9727582" lon="12.1702643"><ele>499.0</ele><time>2026-04-12T11:32:25.013Z</time></trkpt><trkpt lat="43.9726975" lon="12.1704925"><ele>497.33333333333337</ele><time>2026-04-12T11:32:26.011Z</time></trkpt><trkpt lat="43.9726162" lon="12.1707306"><ele>495.66666666666663</ele><time>2026-04-12T11:32:27.012Z</time></trkpt><trkpt lat="43.9725185" lon="12.1709752"><ele>494.0</ele><time>2026-04-12T11:32:28.012Z</time></trkpt><trkpt lat="43.9724243" lon="12.1712391"><ele>492.5</ele><time>2026-04-12T11:32:29.01Z</time></trkpt><trkpt lat="43.9723424" lon="12.1715255"><ele>491.0</ele><time>2026-04-12T11:32:30.012Z</time></trkpt><trkpt lat="43.9722634" lon="12.1718246"><ele>491.0</ele><time>2026-04-12T11:32:31.014Z</time></trkpt><trkpt lat="43.9721924" lon="12.1721236"><ele>491.0</ele><time>2026-04-12T11:32:32.012Z</time></trkpt><trkpt lat="43.972135" lon="12.1724109"><ele>491.0</ele><time>2026-04-12T11:32:33.014Z</time></trkpt><trkpt lat="43.9720998" lon="12.1726825"><ele>488.66666666666663</ele><time>2026-04-12T11:32:34.011Z</time></trkpt><trkpt lat="43.9720759" lon="12.1729372"><ele>486.33333333333337</ele><time>2026-04-12T11:32:35.013Z</time></trkpt><trkpt lat="43.9720533" lon="12.173175"><ele>484.0</ele><time>2026-04-12T11:32:36.012Z</time></trkpt><trkpt lat="43.9720133" lon="12.1733967"><ele>482.33333333333337</ele><time>2026-04-12T11:32:37.015Z</time></trkpt><trkpt lat="43.9719483" lon="12.1735967"><ele>480.66666666666663</ele><time>2026-04-12T11:32:38.012Z</time></trkpt><trkpt lat="43.971875" lon="12.1737967"><ele>479.0</ele><time>2026-04-12T11:32:39.011Z</time></trkpt><trkpt lat="43.9718267" lon="12.1740083"><ele>479.3333333333333</ele><time>2026-04-12T11:32:40.012Z</time></trkpt><trkpt lat="43.971825" lon="12.17423"><ele>479.66666666666663</ele><time>2026-04-12T11:32:41.012Z</time></trkpt><trkpt lat="43.971825" lon="12.1744383"><ele>480.0</ele><time>2026-04-12T11:32:42.015Z</time></trkpt><trkpt lat="43.9718433" lon="12.174645"><ele>480.0</ele><time>2026-04-12T11:32:43.012Z</time></trkpt><trkpt lat="43.9718767" lon="12.1748117"><ele>480.0</ele><time>2026-04-12T11:32:44.013Z</time></trkpt><trkpt lat="43.9719417" lon="12.1749567"><ele>480.0</ele><time>2026-04-12T11:32:45.013Z</time></trkpt><trkpt lat="43.9720317" lon="12.1750917"><ele>480.0</ele><time>2026-04-12T11:32:46.013Z</time></trkpt><trkpt lat="43.9721417" lon="12.17522"><ele>479.0</ele><time>2026-04-12T11:32:47.014Z</time></trkpt><trkpt lat="43.9722533" lon="12.1753417"><ele>478.0</ele><time>2026-04-12T11:32:48.012Z</time></trkpt><trkpt lat="43.9723633" lon="12.175455"><ele>477.0</ele><time>2026-04-12T11:32:49.013Z</time></trkpt><trkpt lat="43.9724633" lon="12.1755567"><ele>476.0</ele><time>2026-04-12T11:32:50.012Z</time></trkpt><trkpt lat="43.9725517" lon="12.1756533"><ele>474.4</ele><time>2026-04-12T11:32:51.015Z</time></trkpt><trkpt lat="43.9726117" lon="12.1757417"><ele>472.8</ele><time>2026-04-12T11:32:52.014Z</time></trkpt><trkpt lat="43.9726333" lon="12.1758333"><ele>471.19999999999993</ele><time>2026-04-12T11:32:53.011Z</time></trkpt><trkpt lat="43.9725967" lon="12.1759533"><ele>469.59999999999997</ele><time>2026-04-12T11:32:55.014Z</time></trkpt><trkpt lat="43.9724533" lon="12.1759083"><ele>468.0</ele><time>2026-04-12T11:32:57.012Z</time></trkpt><trkpt lat="43.9723367" lon="12.17581"><ele>468.0</ele><time>2026-04-12T11:32:58.012Z</time></trkpt><trkpt lat="43.97221" lon="12.1756917"><ele>468.0</ele><time>2026-04-12T11:32:59.011Z</time></trkpt><trkpt lat="43.9720867" lon="12.175585"><ele>468.0</ele><time>2026-04-12T11:33:00.012Z</time></trkpt><trkpt lat="43.9719767" lon="12.1754783"><ele>468.0</ele><time>2026-04-12T11:33:01.012Z</time></trkpt><trkpt lat="43.9718633" lon="12.175445"><ele>467.0</ele><time>2026-04-12T11:33:02.014Z</time></trkpt><trkpt lat="43.971765" lon="12.175475"><ele>466.0</ele><time>2026-04-12T11:33:03.012Z</time></trkpt><trkpt lat="43.9716717" lon="12.1755367"><ele>465.0</ele><time>2026-04-12T11:33:04.01Z</time></trkpt><trkpt lat="43.9715817" lon="12.175645"><ele>464.0</ele><time>2026-04-12T11:33:05.011Z</time></trkpt><trkpt lat="43.97153" lon="12.1758217"><ele>464.0</ele><time>2026-04-12T11:33:06.011Z</time></trkpt><trkpt lat="43.9715133" lon="12.1760283"><ele>464.0</ele><time>2026-04-12T11:33:07.015Z</time></trkpt><trkpt lat="43.9714983" lon="12.176215"><ele>464.0</ele><time>2026-04-12T11:33:08.012Z</time></trkpt><trkpt lat="43.9714383" lon="12.17637"><ele>464.0</ele><time>2026-04-12T11:33:09.016Z</time></trkpt><trkpt lat="43.9713662" lon="12.1764899"><ele>464.0</ele><time>2026-04-12T11:33:10.012Z</time></trkpt><trkpt lat="43.9712779" lon="12.1765642"><ele>464.0</ele><time>2026-04-12T11:33:11.012Z</time></trkpt><trkpt lat="43.9711934" lon="12.1765724"><ele>464.0</ele><time>2026-04-12T11:33:12.012Z</time></trkpt><trkpt lat="43.9711151" lon="12.1765196"><ele>464.0</ele><time>2026-04-12T11:33:13.016Z</time></trkpt><trkpt lat="43.9710548" lon="12.1764167"><ele>464.0</ele><time>2026-04-12T11:33:14.012Z</time></trkpt><trkpt lat="43.9709971" lon="12.176314"><ele>464.0</ele><time>2026-04-12T11:33:15.011Z</time></trkpt><trkpt lat="43.9709739" lon="12.1761752"><ele>464.0</ele><time>2026-04-12T11:33:16.013Z</time></trkpt><trkpt lat="43.971" lon="12.1759818"><ele>464.0</ele><time>2026-04-12T11:33:17.011Z</time></trkpt><trkpt lat="43.9710409" lon="12.1758051"><ele>464.0</ele><time>2026-04-12T11:33:18.013Z</time></trkpt><trkpt lat="43.9710878" lon="12.1756742"><ele>464.0</ele><time>2026-04-12T11:33:19.012Z</time></trkpt><trkpt lat="43.9710998" lon="12.1755736"><ele>464.0</ele><time>2026-04-12T11:33:20.011Z</time></trkpt><trkpt lat="43.971043" lon="12.1754562"><ele>464.0</ele><time>2026-04-12T11:33:22.01Z</time></trkpt><trkpt lat="43.9709482" lon="12.1756"><ele>464.0</ele><time>2026-04-12T11:33:24.011Z</time></trkpt><trkpt lat="43.9708922" lon="12.1757132"><ele>464.0</ele><time>2026-04-12T11:33:25.013Z</time></trkpt><trkpt lat="43.9708181" lon="12.1758107"><ele>458.3333333333333</ele><time>2026-04-12T11:33:26.011Z</time></trkpt><trkpt lat="43.970748" lon="12.1759715"><ele>452.66666666666663</ele><time>2026-04-12T11:33:27.012Z</time></trkpt><trkpt lat="43.9706741" lon="12.1762486"><ele>447.0</ele><time>2026-04-12T11:33:28.014Z</time></trkpt><trkpt lat="43.9705842" lon="12.1765387"><ele>447.0</ele><time>2026-04-12T11:33:29.01Z</time></trkpt><trkpt lat="43.9704723" lon="12.1768125"><ele>447.0</ele><time>2026-04-12T11:33:30.014Z</time></trkpt><trkpt lat="43.9703536" lon="12.1770666"><ele>447.0</ele><time>2026-04-12T11:33:31.012Z</time></trkpt><trkpt lat="43.9702391" lon="12.1772993"><ele>442.66666666666663</ele><time>2026-04-12T11:33:32.016Z</time></trkpt><trkpt lat="43.9701384" lon="12.1775263"><ele>438.3333333333333</ele><time>2026-04-12T11:33:33.014Z</time></trkpt><trkpt lat="43.9700633" lon="12.1777639"><ele>434.0</ele><time>2026-04-12T11:33:34.011Z</time></trkpt><trkpt lat="43.9700163" lon="12.1780132"><ele>434.66666666666663</ele><time>2026-04-12T11:33:35.012Z</time></trkpt><trkpt lat="43.9699613" lon="12.1782621"><ele>435.33333333333337</ele><time>2026-04-12T11:33:36.012Z</time></trkpt><trkpt lat="43.9698749" lon="12.1784946"><ele>436.0</ele><time>2026-04-12T11:33:37.013Z</time></trkpt><trkpt lat="43.9697783" lon="12.1787195"><ele>436.0</ele><time>2026-04-12T11:33:38.014Z</time></trkpt><trkpt lat="43.9696693" lon="12.1789444"><ele>436.0</ele><time>2026-04-12T11:33:39.012Z</time></trkpt><trkpt lat="43.9695452" lon="12.1791736"><ele>436.0</ele><time>2026-04-12T11:33:40.013Z</time></trkpt><trkpt lat="43.9694096" lon="12.1793904"><ele>436.6666666666667</ele><time>2026-04-12T11:33:41.01Z</time></trkpt><trkpt lat="43.9692679" lon="12.1795973"><ele>437.33333333333337</ele><time>2026-04-12T11:33:42.012Z</time></trkpt><trkpt lat="43.9691515" lon="12.1798189"><ele>438.0</ele><time>2026-04-12T11:33:43.012Z</time></trkpt><trkpt lat="43.9690655" lon="12.1800549"><ele>438.0</ele><time>2026-04-12T11:33:44.011Z</time></trkpt><trkpt lat="43.9690053" lon="12.1802886"><ele>438.0</ele><time>2026-04-12T11:33:45.014Z</time></trkpt><trkpt lat="43.9689737" lon="12.1805159"><ele>438.0</ele><time>2026-04-12T11:33:46.011Z</time></trkpt><trkpt lat="43.9689739" lon="12.1807397"><ele>437.0</ele><time>2026-04-12T11:33:47.011Z</time></trkpt><trkpt lat="43.9690141" lon="12.1809562"><ele>436.0</ele><time>2026-04-12T11:33:48.011Z</time></trkpt><trkpt lat="43.9690777" lon="12.1811617"><ele>435.0</ele><time>2026-04-12T11:33:49.011Z</time></trkpt><trkpt lat="43.9691377" lon="12.1813549"><ele>434.75</ele><time>2026-04-12T11:33:50.013Z</time></trkpt><trkpt lat="43.9691692" lon="12.1815487"><ele>434.5</ele><time>2026-04-12T11:33:51.013Z</time></trkpt><trkpt lat="43.969168" lon="12.1817357"><ele>434.25</ele><time>2026-04-12T11:33:52.013Z</time></trkpt><trkpt lat="43.969137" lon="12.1819213"><ele>434.0</ele><time>2026-04-12T11:33:53.011Z</time></trkpt><trkpt lat="43.9690828" lon="12.1821128"><ele>434.0</ele><time>2026-04-12T11:33:54.011Z</time></trkpt><trkpt lat="43.9690119" lon="12.1823129"><ele>434.0</ele><time>2026-04-12T11:33:55.023Z</time></trkpt><trkpt lat="43.9689411" lon="12.1825248"><ele>434.0</ele><time>2026-04-12T11:33:56.012Z</time></trkpt><trkpt lat="43.9688712" lon="12.1827441"><ele>430.66666666666663</ele><time>2026-04-12T11:33:57.012Z</time></trkpt><trkpt lat="43.9687894" lon="12.1829475"><ele>427.33333333333337</ele><time>2026-04-12T11:33:58.011Z</time></trkpt><trkpt lat="43.9686913" lon="12.1831322"><ele>424.0</ele><time>2026-04-12T11:33:59.012Z</time></trkpt><trkpt lat="43.9685774" lon="12.1832944"><ele>422.6666666666667</ele><time>2026-04-12T11:34:00.012Z</time></trkpt><trkpt lat="43.9684513" lon="12.1834422"><ele>421.33333333333337</ele><time>2026-04-12T11:34:01.013Z</time></trkpt><trkpt lat="43.9683257" lon="12.1835821"><ele>420.0</ele><time>2026-04-12T11:34:02.012Z</time></trkpt><trkpt lat="43.9682091" lon="12.1837247"><ele>418.5</ele><time>2026-04-12T11:34:03.013Z</time></trkpt><trkpt lat="43.9681038" lon="12.1838704"><ele>417.0</ele><time>2026-04-12T11:34:04.011Z</time></trkpt><trkpt lat="43.9680084" lon="12.1840105"><ele>415.5</ele><time>2026-04-12T11:34:05.012Z</time></trkpt><trkpt lat="43.967895" lon="12.1841078"><ele>414.0</ele><time>2026-04-12T11:34:06.012Z</time></trkpt><trkpt lat="43.9677708" lon="12.1841723"><ele>414.0</ele><time>2026-04-12T11:34:07.016Z</time></trkpt><trkpt lat="43.9676439" lon="12.184226"><ele>414.0</ele><time>2026-04-12T11:34:08.012Z</time></trkpt><trkpt lat="43.967504" lon="12.1842546"><ele>414.0</ele><time>2026-04-12T11:34:09.013Z</time></trkpt><trkpt lat="43.9673521" lon="12.1842587"><ele>414.0</ele><time>2026-04-12T11:34:10.012Z</time></trkpt><trkpt lat="43.9671916" lon="12.1842237"><ele>414.0</ele><time>2026-04-12T11:34:11.013Z</time></trkpt><trkpt lat="43.9670235" lon="12.1841473"><ele>414.0</ele><time>2026-04-12T11:34:12.01Z</time></trkpt><trkpt lat="43.9668518" lon="12.1840348"><ele>414.0</ele><time>2026-04-12T11:34:13.012Z</time></trkpt><trkpt lat="43.966679" lon="12.183906"><ele>413.33333333333337</ele><time>2026-04-12T11:34:14.013Z</time></trkpt><trkpt lat="43.9665134" lon="12.183771"><ele>412.6666666666667</ele><time>2026-04-12T11:34:15.012Z</time></trkpt><trkpt lat="43.966359" lon="12.1836328"><ele>412.0</ele><time>2026-04-12T11:34:16.013Z</time></trkpt><trkpt lat="43.9662079" lon="12.1835089"><ele>412.0</ele><time>2026-04-12T11:34:17.011Z</time></trkpt><trkpt lat="43.9660563" lon="12.1833976"><ele>412.0</ele><time>2026-04-12T11:34:18.012Z</time></trkpt><trkpt lat="43.9658866" lon="12.1833257"><ele>412.0</ele><time>2026-04-12T11:34:19.012Z</time></trkpt><trkpt lat="43.9657035" lon="12.1832813"><ele>408.33333333333337</ele><time>2026-04-12T11:34:20.011Z</time></trkpt><trkpt lat="43.9655068" lon="12.183266"><ele>404.66666666666663</ele><time>2026-04-12T11:34:21.016Z</time></trkpt><trkpt lat="43.9653072" lon="12.1832648"><ele>401.0</ele><time>2026-04-12T11:34:22.011Z</time></trkpt><trkpt lat="43.9651043" lon="12.1832713"><ele>398.3333333333333</ele><time>2026-04-12T11:34:23.011Z</time></trkpt><trkpt lat="43.9649024" lon="12.183273"><ele>395.66666666666663</ele><time>2026-04-12T11:34:24.011Z</time></trkpt><trkpt lat="43.9646982" lon="12.183269"><ele>393.0</ele><time>2026-04-12T11:34:25.013Z</time></trkpt><trkpt lat="43.9644878" lon="12.1832627"><ele>393.0</ele><time>2026-04-12T11:34:26.012Z</time></trkpt><trkpt lat="43.9642756" lon="12.183256"><ele>393.0</ele><time>2026-04-12T11:34:27.013Z</time></trkpt><trkpt lat="43.9640647" lon="12.1832517"><ele>393.0</ele><time>2026-04-12T11:34:28.013Z</time></trkpt><trkpt lat="43.9638602" lon="12.1832545"><ele>391.66666666666663</ele><time>2026-04-12T11:34:29.011Z</time></trkpt><trkpt lat="43.9636641" lon="12.1832583"><ele>390.3333333333333</ele><time>2026-04-12T11:34:30.013Z</time></trkpt><trkpt lat="43.9634751" lon="12.1832605"><ele>389.0</ele><time>2026-04-12T11:34:31.011Z</time></trkpt><trkpt lat="43.9632925" lon="12.1832578"><ele>386.3333333333333</ele><time>2026-04-12T11:34:32.015Z</time></trkpt><trkpt lat="43.9631186" lon="12.183249"><ele>383.66666666666663</ele><time>2026-04-12T11:34:33.012Z</time></trkpt><trkpt lat="43.9629597" lon="12.1832363"><ele>381.0</ele><time>2026-04-12T11:34:34.012Z</time></trkpt><trkpt lat="43.9628185" lon="12.1832232"><ele>381.0</ele><time>2026-04-12T11:34:35.014Z</time></trkpt><trkpt lat="43.9626999" lon="12.1832021"><ele>381.0</ele><time>2026-04-12T11:34:36.013Z</time></trkpt><trkpt lat="43.9626007" lon="12.1832016"><ele>381.0</ele><time>2026-04-12T11:34:37.012Z</time></trkpt><trkpt lat="43.9625272" lon="12.18325"><ele>381.0</ele><time>2026-04-12T11:34:38.014Z</time></trkpt><trkpt lat="43.9624698" lon="12.1833335"><ele>381.0</ele><time>2026-04-12T11:34:39.012Z</time></trkpt><trkpt lat="43.9624614" lon="12.1834405"><ele>381.0</ele><time>2026-04-12T11:34:40.011Z</time></trkpt><trkpt lat="43.9625024" lon="12.183562"><ele>381.0</ele><time>2026-04-12T11:34:41.014Z</time></trkpt><trkpt lat="43.9625686" lon="12.1836812"><ele>381.0</ele><time>2026-04-12T11:34:42.013Z</time></trkpt><trkpt lat="43.962691" lon="12.1838136"><ele>381.0</ele><time>2026-04-12T11:34:43.016Z</time></trkpt><trkpt lat="43.9628324" lon="12.1839583"><ele>377.0</ele><time>2026-04-12T11:34:44.015Z</time></trkpt><trkpt lat="43.9629876" lon="12.1841166"><ele>373.0</ele><time>2026-04-12T11:34:45.012Z</time></trkpt><trkpt lat="43.9631461" lon="12.1842802"><ele>369.0</ele><time>2026-04-12T11:34:46.012Z</time></trkpt><trkpt lat="43.9633003" lon="12.1844454"><ele>368.3333333333333</ele><time>2026-04-12T11:34:47.011Z</time></trkpt><trkpt lat="43.9634346" lon="12.1846185"><ele>367.66666666666663</ele><time>2026-04-12T11:34:48.011Z</time></trkpt><trkpt lat="43.9635385" lon="12.1848079"><ele>367.0</ele><time>2026-04-12T11:34:49.013Z</time></trkpt><trkpt lat="43.9636047" lon="12.1850125"><ele>367.0</ele><time>2026-04-12T11:34:50.012Z</time></trkpt><trkpt lat="43.963625" lon="12.1852417"><ele>367.0</ele><time>2026-04-12T11:34:51.017Z</time></trkpt><trkpt lat="43.9636183" lon="12.1854783"><ele>367.0</ele><time>2026-04-12T11:34:52.015Z</time></trkpt><trkpt lat="43.9635883" lon="12.1857417"><ele>365.66666666666663</ele><time>2026-04-12T11:34:53.013Z</time></trkpt><trkpt lat="43.9635467" lon="12.1860233"><ele>364.3333333333333</ele><time>2026-04-12T11:34:54.012Z</time></trkpt><trkpt lat="43.9635017" lon="12.1863067"><ele>363.0</ele><time>2026-04-12T11:34:55.014Z</time></trkpt><trkpt lat="43.9634617" lon="12.1865817"><ele>361.6666666666667</ele><time>2026-04-12T11:34:56.013Z</time></trkpt><trkpt lat="43.9634267" lon="12.1868567"><ele>360.33333333333337</ele><time>2026-04-12T11:34:57.014Z</time></trkpt><trkpt lat="43.9634067" lon="12.1871233"><ele>359.0</ele><time>2026-04-12T11:34:58.015Z</time></trkpt><trkpt lat="43.96342" lon="12.1873967"><ele>357.0</ele><time>2026-04-12T11:34:59.013Z</time></trkpt><trkpt lat="43.9634467" lon="12.1876767"><ele>355.0</ele><time>2026-04-12T11:35:00.012Z</time></trkpt><trkpt lat="43.9634783" lon="12.187975"><ele>353.0</ele><time>2026-04-12T11:35:01.013Z</time></trkpt><trkpt lat="43.9635083" lon="12.1882717"><ele>352.0</ele><time>2026-04-12T11:35:02.013Z</time></trkpt><trkpt lat="43.9635433" lon="12.1885617"><ele>351.0</ele><time>2026-04-12T11:35:03.014Z</time></trkpt><trkpt lat="43.9635817" lon="12.18884"><ele>350.0</ele><time>2026-04-12T11:35:04.016Z</time></trkpt><trkpt lat="43.963615" lon="12.18911"><ele>349.33333333333337</ele><time>2026-04-12T11:35:05.012Z</time></trkpt><trkpt lat="43.9636417" lon="12.1893817"><ele>348.6666666666667</ele><time>2026-04-12T11:35:06.012Z</time></trkpt><trkpt lat="43.9636583" lon="12.1896417"><ele>348.0</ele><time>2026-04-12T11:35:07.014Z</time></trkpt><trkpt lat="43.9636717" lon="12.1898833"><ele>346.25</ele><time>2026-04-12T11:35:08.013Z</time></trkpt><trkpt lat="43.96369" lon="12.1901033"><ele>344.5</ele><time>2026-04-12T11:35:09.014Z</time></trkpt><trkpt lat="43.9637083" lon="12.1903033"><ele>342.75</ele><time>2026-04-12T11:35:10.01Z</time></trkpt><trkpt lat="43.963735" lon="12.1904767"><ele>341.0</ele><time>2026-04-12T11:35:11.021Z</time></trkpt><trkpt lat="43.9637783" lon="12.19062"><ele>336.25</ele><time>2026-04-12T11:35:12.011Z</time></trkpt><trkpt lat="43.9638567" lon="12.190725"><ele>331.5</ele><time>2026-04-12T11:35:13.012Z</time></trkpt><trkpt lat="43.9639633" lon="12.190805"><ele>326.75</ele><time>2026-04-12T11:35:14.012Z</time></trkpt><trkpt lat="43.96409" lon="12.1908467"><ele>322.0</ele><time>2026-04-12T11:35:15.012Z</time></trkpt><trkpt lat="43.96424" lon="12.1908417"><ele>320.66666666666663</ele><time>2026-04-12T11:35:16.013Z</time></trkpt><trkpt lat="43.9644" lon="12.1908033"><ele>319.3333333333333</ele><time>2026-04-12T11:35:17.015Z</time></trkpt><trkpt lat="43.964575" lon="12.1907433"><ele>318.0</ele><time>2026-04-12T11:35:18.012Z</time></trkpt><trkpt lat="43.96476" lon="12.1907"><ele>318.0</ele><time>2026-04-12T11:35:19.012Z</time></trkpt><trkpt lat="43.964945" lon="12.1906883"><ele>318.0</ele><time>2026-04-12T11:35:20.012Z</time></trkpt><trkpt lat="43.9651367" lon="12.1906833"><ele>318.0</ele><time>2026-04-12T11:35:21.011Z</time></trkpt><trkpt lat="43.9653317" lon="12.1907033"><ele>315.0</ele><time>2026-04-12T11:35:22.012Z</time></trkpt><trkpt lat="43.9655217" lon="12.1907083"><ele>312.0</ele><time>2026-04-12T11:35:23.01Z</time></trkpt><trkpt lat="43.9657017" lon="12.190725"><ele>309.0</ele><time>2026-04-12T11:35:24.014Z</time></trkpt><trkpt lat="43.9658633" lon="12.1907533"><ele>309.0</ele><time>2026-04-12T11:35:25.013Z</time></trkpt><trkpt lat="43.966005" lon="12.1907867"><ele>309.0</ele><time>2026-04-12T11:35:26.01Z</time></trkpt><trkpt lat="43.9661417" lon="12.1907417"><ele>309.0</ele><time>2026-04-12T11:35:27.012Z</time></trkpt><trkpt lat="43.96626" lon="12.1906483"><ele>309.0</ele><time>2026-04-12T11:35:28.012Z</time></trkpt><trkpt lat="43.9663667" lon="12.1905183"><ele>309.0</ele><time>2026-04-12T11:35:29.014Z</time></trkpt><trkpt lat="43.96646" lon="12.1904017"><ele>309.0</ele><time>2026-04-12T11:35:30.01Z</time></trkpt><trkpt lat="43.9665517" lon="12.190315"><ele>309.0</ele><time>2026-04-12T11:35:31.011Z</time></trkpt><trkpt lat="43.9666383" lon="12.1902717"><ele>309.0</ele><time>2026-04-12T11:35:32.01Z</time></trkpt><trkpt lat="43.96672" lon="12.1902417"><ele>309.0</ele><time>2026-04-12T11:35:33.013Z</time></trkpt><trkpt lat="43.9667933" lon="12.1902433"><ele>307.2</ele><time>2026-04-12T11:35:34.011Z</time></trkpt><trkpt lat="43.966845" lon="12.1902933"><ele>305.4</ele><time>2026-04-12T11:35:35.012Z</time></trkpt><trkpt lat="43.9668317" lon="12.1904133"><ele>303.6</ele><time>2026-04-12T11:35:36.011Z</time></trkpt><trkpt lat="43.9667833" lon="12.1905367"><ele>301.8</ele><time>2026-04-12T11:35:37.011Z</time></trkpt><trkpt lat="43.9666633" lon="12.19068"><ele>300.0</ele><time>2026-04-12T11:35:38.011Z</time></trkpt><trkpt lat="43.9665117" lon="12.1908117"><ele>296.6666666666667</ele><time>2026-04-12T11:35:39.015Z</time></trkpt><trkpt lat="43.9663567" lon="12.19092"><ele>293.33333333333337</ele><time>2026-04-12T11:35:40.012Z</time></trkpt><trkpt lat="43.9662033" lon="12.1910017"><ele>290.0</ele><time>2026-04-12T11:35:41.011Z</time></trkpt><trkpt lat="43.9660433" lon="12.1910583"><ele>290.0</ele><time>2026-04-12T11:35:42.012Z</time></trkpt><trkpt lat="43.965865" lon="12.1910867"><ele>290.0</ele><time>2026-04-12T11:35:43.012Z</time></trkpt><trkpt lat="43.9656833" lon="12.1911133"><ele>290.0</ele><time>2026-04-12T11:35:44.012Z</time></trkpt><trkpt lat="43.9655017" lon="12.191165"><ele>296.33333333333337</ele><time>2026-04-12T11:35:45.011Z</time></trkpt><trkpt lat="43.9653317" lon="12.19125"><ele>302.6666666666667</ele><time>2026-04-12T11:35:46.012Z</time></trkpt><trkpt lat="43.9651783" lon="12.1913683"><ele>309.0</ele><time>2026-04-12T11:35:47.011Z</time></trkpt><trkpt lat="43.9650383" lon="12.1914817"><ele>300.0</ele><time>2026-04-12T11:35:48.012Z</time></trkpt><trkpt lat="43.9648967" lon="12.19158"><ele>291.0</ele><time>2026-04-12T11:35:49.013Z</time></trkpt><trkpt lat="43.9647383" lon="12.1916483"><ele>282.0</ele><time>2026-04-12T11:35:50.012Z</time></trkpt><trkpt lat="43.9645617" lon="12.1916767"><ele>282.0</ele><time>2026-04-12T11:35:51.014Z</time></trkpt><trkpt lat="43.9643767" lon="12.1916833"><ele>282.0</ele><time>2026-04-12T11:35:52.013Z</time></trkpt><trkpt lat="43.9641817" lon="12.1916833"><ele>282.0</ele><time>2026-04-12T11:35:53.01Z</time></trkpt><trkpt lat="43.9639883" lon="12.1916667"><ele>283.0</ele><time>2026-04-12T11:35:54.012Z</time></trkpt><trkpt lat="43.9638017" lon="12.1916417"><ele>284.0</ele><time>2026-04-12T11:35:55.01Z</time></trkpt><trkpt lat="43.9636267" lon="12.1916067"><ele>285.0</ele><time>2026-04-12T11:35:56.015Z</time></trkpt><trkpt lat="43.963455" lon="12.1915667"><ele>280.6666666666667</ele><time>2026-04-12T11:35:57.012Z</time></trkpt><trkpt lat="43.9632933" lon="12.1915167"><ele>276.33333333333337</ele><time>2026-04-12T11:35:58.01Z</time></trkpt><trkpt lat="43.9631483" lon="12.1914567"><ele>272.0</ele><time>2026-04-12T11:35:59.014Z</time></trkpt><trkpt lat="43.963045" lon="12.1913233"><ele>278.2</ele><time>2026-04-12T11:36:00.015Z</time></trkpt><trkpt lat="43.96295" lon="12.1912133"><ele>284.4</ele><time>2026-04-12T11:36:01.014Z</time></trkpt><trkpt lat="43.9628567" lon="12.1911417"><ele>290.6</ele><time>2026-04-12T11:36:02.011Z</time></trkpt><trkpt lat="43.9627567" lon="12.1911217"><ele>296.8</ele><time>2026-04-12T11:36:03.011Z</time></trkpt><trkpt lat="43.9626617" lon="12.1911433"><ele>303.0</ele><time>2026-04-12T11:36:04.013Z</time></trkpt><trkpt lat="43.9625783" lon="12.1912133"><ele>300.25</ele><time>2026-04-12T11:36:05.01Z</time></trkpt><trkpt lat="43.9625217" lon="12.19135"><ele>297.5</ele><time>2026-04-12T11:36:06.014Z</time></trkpt><trkpt lat="43.96247" lon="12.19153"><ele>294.75</ele><time>2026-04-12T11:36:07.011Z</time></trkpt><trkpt lat="43.9624233" lon="12.1917083"><ele>292.0</ele><time>2026-04-12T11:36:08.011Z</time></trkpt><trkpt lat="43.9623783" lon="12.19188"><ele>286.25</ele><time>2026-04-12T11:36:09.012Z</time></trkpt><trkpt lat="43.9623183" lon="12.1920317"><ele>280.5</ele><time>2026-04-12T11:36:10.011Z</time></trkpt><trkpt lat="43.9622533" lon="12.1921467"><ele>274.75</ele><time>2026-04-12T11:36:11.014Z</time></trkpt><trkpt lat="43.962155" lon="12.1922367"><ele>269.0</ele><time>2026-04-12T11:36:12.012Z</time></trkpt><trkpt lat="43.96202" lon="12.1922967"><ele>264.33333333333337</ele><time>2026-04-12T11:36:13.01Z</time></trkpt><trkpt lat="43.9618617" lon="12.1923583"><ele>259.6666666666667</ele><time>2026-04-12T11:36:14.012Z</time></trkpt><trkpt lat="43.96169" lon="12.192425"><ele>255.0</ele><time>2026-04-12T11:36:15.013Z</time></trkpt><trkpt lat="43.9615183" lon="12.19249"><ele>255.0</ele><time>2026-04-12T11:36:16.011Z</time></trkpt><trkpt lat="43.961345" lon="12.1925467"><ele>255.0</ele><time>2026-04-12T11:36:17.012Z</time></trkpt><trkpt lat="43.9611667" lon="12.192595"><ele>255.0</ele><time>2026-04-12T11:36:18.012Z</time></trkpt><trkpt lat="43.9609833" lon="12.1926067"><ele>253.66666666666669</ele><time>2026-04-12T11:36:19.011Z</time></trkpt><trkpt lat="43.9608033" lon="12.1926083"><ele>252.33333333333334</ele><time>2026-04-12T11:36:20.01Z</time></trkpt><trkpt lat="43.9606267" lon="12.1926133"><ele>251.0</ele><time>2026-04-12T11:36:21.012Z</time></trkpt><trkpt lat="43.9604583" lon="12.1926217"><ele>251.0</ele><time>2026-04-12T11:36:22.01Z</time></trkpt><trkpt lat="43.9602983" lon="12.1926183"><ele>251.0</ele><time>2026-04-12T11:36:23.011Z</time></trkpt><trkpt lat="43.960145" lon="12.1926017"><ele>251.0</ele><time>2026-04-12T11:36:24.011Z</time></trkpt><trkpt lat="43.960005" lon="12.1925467"><ele>250.66666666666669</ele><time>2026-04-12T11:36:25.011Z</time></trkpt><trkpt lat="43.9598783" lon="12.192445"><ele>250.33333333333331</ele><time>2026-04-12T11:36:26.016Z</time></trkpt><trkpt lat="43.959755" lon="12.1923117"><ele>250.0</ele><time>2026-04-12T11:36:27.011Z</time></trkpt><trkpt lat="43.9596283" lon="12.19216"><ele>250.0</ele><time>2026-04-12T11:36:28.011Z</time></trkpt><trkpt lat="43.9594967" lon="12.19202"><ele>250.0</ele><time>2026-04-12T11:36:29.011Z</time></trkpt><trkpt lat="43.95937" lon="12.1918883"><ele>250.0</ele><time>2026-04-12T11:36:30.012Z</time></trkpt><trkpt lat="43.9592567" lon="12.191755"><ele>243.5</ele><time>2026-04-12T11:36:31.012Z</time></trkpt><trkpt lat="43.9591533" lon="12.191625"><ele>237.0</ele><time>2026-04-12T11:36:32.012Z</time></trkpt><trkpt lat="43.9590967" lon="12.1914517"><ele>230.5</ele><time>2026-04-12T11:36:33.012Z</time></trkpt><trkpt lat="43.9590717" lon="12.1912567"><ele>224.0</ele><time>2026-04-12T11:36:34.011Z</time></trkpt><trkpt lat="43.959075" lon="12.1910717"><ele>224.0</ele><time>2026-04-12T11:36:35.011Z</time></trkpt><trkpt lat="43.95908" lon="12.1909083"><ele>223.99999999999997</ele><time>2026-04-12T11:36:36.011Z</time></trkpt><trkpt lat="43.9590633" lon="12.1907767"><ele>223.99999999999997</ele><time>2026-04-12T11:36:37.015Z</time></trkpt><trkpt lat="43.9590133" lon="12.1906767"><ele>224.0</ele><time>2026-04-12T11:36:38.01Z</time></trkpt><trkpt lat="43.9589483" lon="12.1906083"><ele>224.0</ele><time>2026-04-12T11:36:39.012Z</time></trkpt><trkpt lat="43.958865" lon="12.1906267"><ele>224.0</ele><time>2026-04-12T11:36:40.012Z</time></trkpt><trkpt lat="43.9587967" lon="12.1907167"><ele>223.99999999999997</ele><time>2026-04-12T11:36:41.014Z</time></trkpt><trkpt lat="43.9587617" lon="12.190835"><ele>223.99999999999997</ele><time>2026-04-12T11:36:42.012Z</time></trkpt><trkpt lat="43.9587567" lon="12.1909817"><ele>224.0</ele><time>2026-04-12T11:36:43.011Z</time></trkpt><trkpt lat="43.9587717" lon="12.1911617"><ele>224.0</ele><time>2026-04-12T11:36:44.01Z</time></trkpt><trkpt lat="43.9588167" lon="12.1913833"><ele>223.66666666666669</ele><time>2026-04-12T11:36:45.011Z</time></trkpt><trkpt lat="43.9588117" lon="12.19162"><ele>223.33333333333331</ele><time>2026-04-12T11:36:46.012Z</time></trkpt><trkpt lat="43.9588033" lon="12.19184"><ele>223.0</ele><time>2026-04-12T11:36:47.015Z</time></trkpt><trkpt lat="43.9587717" lon="12.1920283"><ele>223.0</ele><time>2026-04-12T11:36:48.011Z</time></trkpt><trkpt lat="43.95872" lon="12.1922017"><ele>223.0</ele><time>2026-04-12T11:36:49.011Z</time></trkpt><trkpt lat="43.9586417" lon="12.19236"><ele>223.0</ele><time>2026-04-12T11:36:50.01Z</time></trkpt><trkpt lat="43.95855" lon="12.1925067"><ele>223.0</ele><time>2026-04-12T11:36:51.011Z</time></trkpt><trkpt lat="43.95846" lon="12.1926517"><ele>222.25</ele><time>2026-04-12T11:36:52.011Z</time></trkpt><trkpt lat="43.9583883" lon="12.1928017"><ele>221.5</ele><time>2026-04-12T11:36:53.011Z</time></trkpt><trkpt lat="43.9583467" lon="12.1929733"><ele>220.75</ele><time>2026-04-12T11:36:54.013Z</time></trkpt><trkpt lat="43.9583283" lon="12.193155"><ele>220.0</ele><time>2026-04-12T11:36:55.013Z</time></trkpt><trkpt lat="43.9583233" lon="12.19333"><ele>217.0</ele><time>2026-04-12T11:36:56.013Z</time></trkpt><trkpt lat="43.9583867" lon="12.1934883"><ele>214.0</ele><time>2026-04-12T11:36:57.013Z</time></trkpt><trkpt lat="43.9584817" lon="12.1936167"><ele>211.0</ele><time>2026-04-12T11:36:58.013Z</time></trkpt><trkpt lat="43.9586267" lon="12.1937167"><ele>208.0</ele><time>2026-04-12T11:36:59.013Z</time></trkpt><trkpt lat="43.958785" lon="12.1937833"><ele>208.0</ele><time>2026-04-12T11:37:00.013Z</time></trkpt><trkpt lat="43.9589233" lon="12.193855"><ele>208.0</ele><time>2026-04-12T11:37:01.012Z</time></trkpt><trkpt lat="43.9590567" lon="12.1939417"><ele>208.0</ele><time>2026-04-12T11:37:02.014Z</time></trkpt><trkpt lat="43.9591983" lon="12.1940183"><ele>208.0</ele><time>2026-04-12T11:37:03.014Z</time></trkpt><trkpt lat="43.95934" lon="12.194095"><ele>204.0</ele><time>2026-04-12T11:37:04.017Z</time></trkpt><trkpt lat="43.95948" lon="12.1941783"><ele>200.0</ele><time>2026-04-12T11:37:05.012Z</time></trkpt><trkpt lat="43.95961" lon="12.194265"><ele>196.0</ele><time>2026-04-12T11:37:06.012Z</time></trkpt><trkpt lat="43.9597412" lon="12.1943446"><ele>192.0</ele><time>2026-04-12T11:37:07.012Z</time></trkpt><trkpt lat="43.9598654" lon="12.1944275"><ele>192.0</ele><time>2026-04-12T11:37:08.013Z</time></trkpt><trkpt lat="43.9599853" lon="12.1945049"><ele>192.0</ele><time>2026-04-12T11:37:09.012Z</time></trkpt><trkpt lat="43.9601069" lon="12.1945818"><ele>192.0</ele><time>2026-04-12T11:37:10.011Z</time></trkpt><trkpt lat="43.960227" lon="12.1946606"><ele>192.0</ele><time>2026-04-12T11:37:11.01Z</time></trkpt><trkpt lat="43.9603427" lon="12.194728"><ele>193.0</ele><time>2026-04-12T11:37:12.012Z</time></trkpt><trkpt lat="43.9604514" lon="12.194787"><ele>194.0</ele><time>2026-04-12T11:37:13.015Z</time></trkpt><trkpt lat="43.9605556" lon="12.1948431"><ele>195.0</ele><time>2026-04-12T11:37:14.012Z</time></trkpt><trkpt lat="43.960658" lon="12.1948985"><ele>196.0</ele><time>2026-04-12T11:37:15.015Z</time></trkpt><trkpt lat="43.960754" lon="12.1949519"><ele>197.0</ele><time>2026-04-12T11:37:16.012Z</time></trkpt><trkpt lat="43.9608362" lon="12.1949979"><ele>194.8</ele><time>2026-04-12T11:37:17.011Z</time></trkpt><trkpt lat="43.9609028" lon="12.1950346"><ele>192.6</ele><time>2026-04-12T11:37:18.012Z</time></trkpt><trkpt lat="43.9609958" lon="12.1950836"><ele>190.4</ele><time>2026-04-12T11:37:20.013Z</time></trkpt><trkpt lat="43.9610635" lon="12.1951169"><ele>188.20000000000002</ele><time>2026-04-12T11:37:23.014Z</time></trkpt><trkpt lat="43.961125" lon="12.1951717"><ele>186.0</ele><time>2026-04-12T11:37:57.013Z</time></trkpt><trkpt lat="43.9612933" lon="12.1952833"><ele>186.0</ele><time>2026-04-12T11:37:59.015Z</time></trkpt><trkpt lat="43.9614017" lon="12.195355"><ele>186.0</ele><time>2026-04-12T11:38:00.016Z</time></trkpt><trkpt lat="43.9615067" lon="12.1954217"><ele>186.0</ele><time>2026-04-12T11:38:01.013Z</time></trkpt><trkpt lat="43.96161" lon="12.1954867"><ele>186.0</ele><time>2026-04-12T11:38:02.011Z</time></trkpt><trkpt lat="43.9617204" lon="12.1955631"><ele>185.20000000000002</ele><time>2026-04-12T11:38:03.013Z</time></trkpt><trkpt lat="43.9618425" lon="12.1956377"><ele>184.4</ele><time>2026-04-12T11:38:04.014Z</time></trkpt><trkpt lat="43.9619589" lon="12.1957057"><ele>183.6</ele><time>2026-04-12T11:38:05.012Z</time></trkpt><trkpt lat="43.9620476" lon="12.1957526"><ele>182.8</ele><time>2026-04-12T11:38:06.018Z</time></trkpt><trkpt lat="43.96211" lon="12.1957919"><ele>182.0</ele><time>2026-04-12T11:38:07.013Z</time></trkpt><trkpt lat="43.9621618" lon="12.1959403"><ele>181.5</ele><time>2026-04-12T11:38:09.011Z</time></trkpt><trkpt lat="43.9621504" lon="12.1960362"><ele>181.0</ele><time>2026-04-12T11:38:10.012Z</time></trkpt><trkpt lat="43.9621186" lon="12.1961357"><ele>180.5</ele><time>2026-04-12T11:38:11.013Z</time></trkpt><trkpt lat="43.9620709" lon="12.1962355"><ele>180.0</ele><time>2026-04-12T11:38:12.014Z</time></trkpt><trkpt lat="43.9620153" lon="12.1963307"><ele>179.5</ele><time>2026-04-12T11:38:13.01Z</time></trkpt><trkpt lat="43.9619534" lon="12.1964103"><ele>179.0</ele><time>2026-04-12T11:38:14.011Z</time></trkpt><trkpt lat="43.9618806" lon="12.1964774"><ele>178.6</ele><time>2026-04-12T11:38:15.011Z</time></trkpt><trkpt lat="43.9618029" lon="12.196528"><ele>178.2</ele><time>2026-04-12T11:38:16.012Z</time></trkpt><trkpt lat="43.9617008" lon="12.196556"><ele>177.79999999999998</ele><time>2026-04-12T11:38:17.011Z</time></trkpt><trkpt lat="43.9615748" lon="12.1965747"><ele>177.39999999999998</ele><time>2026-04-12T11:38:18.015Z</time></trkpt><trkpt lat="43.9614525" lon="12.1965966"><ele>177.0</ele><time>2026-04-12T11:38:19.012Z</time></trkpt><trkpt lat="43.9613385" lon="12.1966235"><ele>175.8</ele><time>2026-04-12T11:38:20.011Z</time></trkpt><trkpt lat="43.9612338" lon="12.1966433"><ele>174.6</ele><time>2026-04-12T11:38:21.012Z</time></trkpt><trkpt lat="43.9611306" lon="12.1966596"><ele>173.4</ele><time>2026-04-12T11:38:22.012Z</time></trkpt><trkpt lat="43.961027" lon="12.1966728"><ele>172.20000000000002</ele><time>2026-04-12T11:38:23.017Z</time></trkpt><trkpt lat="43.9609147" lon="12.1966849"><ele>171.0</ele><time>2026-04-12T11:38:24.013Z</time></trkpt><trkpt lat="43.9608015" lon="12.1967063"><ele>169.8</ele><time>2026-04-12T11:38:25.012Z</time></trkpt><trkpt lat="43.9606865" lon="12.1967237"><ele>168.60000000000002</ele><time>2026-04-12T11:38:26.011Z</time></trkpt><trkpt lat="43.9605765" lon="12.1967367"><ele>167.4</ele><time>2026-04-12T11:38:27.013Z</time></trkpt><trkpt lat="43.9604683" lon="12.196746"><ele>166.2</ele><time>2026-04-12T11:38:28.014Z</time></trkpt><trkpt lat="43.960365" lon="12.1967415"><ele>165.0</ele><time>2026-04-12T11:38:29.016Z</time></trkpt><trkpt lat="43.9602649" lon="12.196728"><ele>165.0</ele><time>2026-04-12T11:38:30.011Z</time></trkpt><trkpt lat="43.9601687" lon="12.1967108"><ele>165.0</ele><time>2026-04-12T11:38:31.013Z</time></trkpt><trkpt lat="43.9600666" lon="12.196693"><ele>165.0</ele><time>2026-04-12T11:38:32.011Z</time></trkpt><trkpt lat="43.9599618" lon="12.1966748"><ele>165.0</ele><time>2026-04-12T11:38:33.012Z</time></trkpt><trkpt lat="43.9598619" lon="12.1966581"><ele>165.0</ele><time>2026-04-12T11:38:34.01Z</time></trkpt><trkpt lat="43.9597738" lon="12.1966375"><ele>163.83333333333334</ele><time>2026-04-12T11:38:35.011Z</time></trkpt><trkpt lat="43.9596952" lon="12.1966187"><ele>162.66666666666666</ele><time>2026-04-12T11:38:36.012Z</time></trkpt><trkpt lat="43.9596185" lon="12.1966042"><ele>161.5</ele><time>2026-04-12T11:38:37.01Z</time></trkpt><trkpt lat="43.9595451" lon="12.1965904"><ele>160.33333333333331</ele><time>2026-04-12T11:38:38.013Z</time></trkpt><trkpt lat="43.9594754" lon="12.1965749"><ele>159.16666666666666</ele><time>2026-04-12T11:38:39.013Z</time></trkpt><trkpt lat="43.9594014" lon="12.1965599"><ele>158.0</ele><time>2026-04-12T11:38:40.012Z</time></trkpt><trkpt lat="43.959317" lon="12.1965329"><ele>158.0</ele><time>2026-04-12T11:38:41.014Z</time></trkpt><trkpt lat="43.9592216" lon="12.1964862"><ele>158.0</ele><time>2026-04-12T11:38:42.011Z</time></trkpt><trkpt lat="43.9591151" lon="12.1964253"><ele>158.0</ele><time>2026-04-12T11:38:43.012Z</time></trkpt><trkpt lat="43.9590006" lon="12.1963631"><ele>158.0</ele><time>2026-04-12T11:38:44.011Z</time></trkpt><trkpt lat="43.9588765" lon="12.1963019"><ele>158.0</ele><time>2026-04-12T11:38:45.011Z</time></trkpt><trkpt lat="43.958746" lon="12.1962424"><ele>158.0</ele><time>2026-04-12T11:38:46.013Z</time></trkpt><trkpt lat="43.9586095" lon="12.19619"><ele>158.0</ele><time>2026-04-12T11:38:47.012Z</time></trkpt><trkpt lat="43.9584691" lon="12.1961428"><ele>158.0</ele><time>2026-04-12T11:38:48.019Z</time></trkpt><trkpt lat="43.958335" lon="12.1960918"><ele>157.25</ele><time>2026-04-12T11:38:49.011Z</time></trkpt><trkpt lat="43.9582042" lon="12.1960427"><ele>156.5</ele><time>2026-04-12T11:38:50.012Z</time></trkpt><trkpt lat="43.9580837" lon="12.195994"><ele>155.75</ele><time>2026-04-12T11:38:51.012Z</time></trkpt><trkpt lat="43.9579768" lon="12.1959527"><ele>155.0</ele><time>2026-04-12T11:38:52.011Z</time></trkpt><trkpt lat="43.9578813" lon="12.1959239"><ele>155.0</ele><time>2026-04-12T11:38:53.013Z</time></trkpt><trkpt lat="43.9577886" lon="12.1959041"><ele>155.0</ele><time>2026-04-12T11:38:54.013Z</time></trkpt><trkpt lat="43.9577044" lon="12.195901"><ele>155.0</ele><time>2026-04-12T11:38:55.012Z</time></trkpt><trkpt lat="43.9576261" lon="12.1958961"><ele>155.0</ele><time>2026-04-12T11:38:56.012Z</time></trkpt><trkpt lat="43.9575511" lon="12.1958874"><ele>155.0</ele><time>2026-04-12T11:38:57.012Z</time></trkpt><trkpt lat="43.9574718" lon="12.1958707"><ele>155.0</ele><time>2026-04-12T11:38:58.014Z</time></trkpt><trkpt lat="43.9573936" lon="12.1958447"><ele>153.0</ele><time>2026-04-12T11:38:59.01Z</time></trkpt><trkpt lat="43.9573192" lon="12.1958101"><ele>151.0</ele><time>2026-04-12T11:39:00.011Z</time></trkpt><trkpt lat="43.9572421" lon="12.19577"><ele>149.0</ele><time>2026-04-12T11:39:01.011Z</time></trkpt><trkpt lat="43.9571608" lon="12.1957402"><ele>147.0</ele><time>2026-04-12T11:39:02.011Z</time></trkpt><trkpt lat="43.9570819" lon="12.195725"><ele>145.0</ele><time>2026-04-12T11:39:03.011Z</time></trkpt><trkpt lat="43.9570074" lon="12.1957203"><ele>143.0</ele><time>2026-04-12T11:39:04.013Z</time></trkpt><trkpt lat="43.9569083" lon="12.1957614"><ele>143.0</ele><time>2026-04-12T11:39:06.011Z</time></trkpt><trkpt lat="43.9568174" lon="12.1957651"><ele>143.0</ele><time>2026-04-12T11:39:08.015Z</time></trkpt><trkpt lat="43.956752" lon="12.1957622"><ele>143.0</ele><time>2026-04-12T11:39:10.015Z</time></trkpt><trkpt lat="43.9566766" lon="12.1957774"><ele>143.0</ele><time>2026-04-12T11:39:13.011Z</time></trkpt><trkpt lat="43.9565962" lon="12.1958047"><ele>143.0</ele><time>2026-04-12T11:39:16.01Z</time></trkpt><trkpt lat="43.9564933" lon="12.195865"><ele>143.0</ele><time>2026-04-12T11:46:39.013Z</time></trkpt><trkpt lat="43.9564133" lon="12.1958667"><ele>142.6</ele><time>2026-04-12T11:46:41.012Z</time></trkpt><trkpt lat="43.9563017" lon="12.1959183"><ele>142.20000000000002</ele><time>2026-04-12T11:46:43.014Z</time></trkpt><trkpt lat="43.9562333" lon="12.1959267"><ele>141.8</ele><time>2026-04-12T11:46:44.013Z</time></trkpt><trkpt lat="43.9561617" lon="12.1959333"><ele>141.4</ele><time>2026-04-12T11:46:45.013Z</time></trkpt><trkpt lat="43.9560667" lon="12.1959367"><ele>141.0</ele><time>2026-04-12T11:46:46.014Z</time></trkpt><trkpt lat="43.9559533" lon="12.1959067"><ele>141.0</ele><time>2026-04-12T11:46:48.014Z</time></trkpt><trkpt lat="43.9559008" lon="12.1958424"><ele>141.0</ele><time>2026-04-12T11:46:49.013Z</time></trkpt><trkpt lat="43.9558601" lon="12.1957671"><ele>141.0</ele><time>2026-04-12T11:46:50.013Z</time></trkpt><trkpt lat="43.9558312" lon="12.1956187"><ele>141.0</ele><time>2026-04-12T11:46:52.012Z</time></trkpt><trkpt lat="43.95584" lon="12.1955017"><ele>141.0</ele><time>2026-04-12T11:46:55.014Z</time></trkpt><trkpt lat="43.9557883" lon="12.1954517"><ele>141.0</ele><time>2026-04-12T11:46:57.013Z</time></trkpt><trkpt lat="43.9556883" lon="12.1954783"><ele>140.4</ele><time>2026-04-12T11:46:59.013Z</time></trkpt><trkpt lat="43.95557" lon="12.1955217"><ele>139.8</ele><time>2026-04-12T11:47:01.013Z</time></trkpt><trkpt lat="43.955495" lon="12.195545"><ele>139.20000000000002</ele><time>2026-04-12T11:47:02.013Z</time></trkpt><trkpt lat="43.9554117" lon="12.19559"><ele>138.6</ele><time>2026-04-12T11:47:03.014Z</time></trkpt><trkpt lat="43.955315" lon="12.1956367"><ele>138.0</ele><time>2026-04-12T11:47:04.014Z</time></trkpt><trkpt lat="43.9552033" lon="12.195675"><ele>138.0</ele><time>2026-04-12T11:47:05.014Z</time></trkpt><trkpt lat="43.9550933" lon="12.195705"><ele>138.0</ele><time>2026-04-12T11:47:06.012Z</time></trkpt><trkpt lat="43.95498" lon="12.1956917"><ele>138.0</ele><time>2026-04-12T11:47:07.016Z</time></trkpt><trkpt lat="43.9548617" lon="12.19563"><ele>138.0</ele><time>2026-04-12T11:47:08.013Z</time></trkpt><trkpt lat="43.9547417" lon="12.1955617"><ele>138.0</ele><time>2026-04-12T11:47:09.014Z</time></trkpt><trkpt lat="43.9546033" lon="12.1955033"><ele>138.0</ele><time>2026-04-12T11:47:10.013Z</time></trkpt><trkpt lat="43.95446" lon="12.1954483"><ele>138.0</ele><time>2026-04-12T11:47:11.013Z</time></trkpt><trkpt lat="43.9543233" lon="12.195385"><ele>138.0</ele><time>2026-04-12T11:47:12.013Z</time></trkpt><trkpt lat="43.9541983" lon="12.19532"><ele>142.0</ele><time>2026-04-12T11:47:13.012Z</time></trkpt><trkpt lat="43.9540883" lon="12.1952633"><ele>146.0</ele><time>2026-04-12T11:47:14.014Z</time></trkpt><trkpt lat="43.9539833" lon="12.1952317"><ele>150.0</ele><time>2026-04-12T11:47:15.014Z</time></trkpt><trkpt lat="43.9538917" lon="12.19525"><ele>154.0</ele><time>2026-04-12T11:47:16.013Z</time></trkpt><trkpt lat="43.9538183" lon="12.19528"><ele>158.0</ele><time>2026-04-12T11:47:17.013Z</time></trkpt><trkpt lat="43.9537517" lon="12.1953067"><ele>158.0</ele><time>2026-04-12T11:47:18.012Z</time></trkpt><trkpt lat="43.9536783" lon="12.1953183"><ele>158.0</ele><time>2026-04-12T11:47:19.012Z</time></trkpt><trkpt lat="43.953605" lon="12.1953133"><ele>158.0</ele><time>2026-04-12T11:47:20.013Z</time></trkpt><trkpt lat="43.95354" lon="12.1952633"><ele>158.0</ele><time>2026-04-12T11:47:21.014Z</time></trkpt><trkpt lat="43.9534733" lon="12.195185"><ele>158.0</ele><time>2026-04-12T11:47:22.015Z</time></trkpt><trkpt lat="43.9534383" lon="12.195105"><ele>158.0</ele><time>2026-04-12T11:47:23.015Z</time></trkpt><trkpt lat="43.953455" lon="12.195"><ele>158.00000000000003</ele><time>2026-04-12T11:47:24.013Z</time></trkpt><trkpt lat="43.9534833" lon="12.1949117"><ele>158.0</ele><time>2026-04-12T11:47:25.014Z</time></trkpt><trkpt lat="43.9535483" lon="12.1948583"><ele>158.0</ele><time>2026-04-12T11:47:26.012Z</time></trkpt><trkpt lat="43.9536183" lon="12.1948167"><ele>158.0</ele><time>2026-04-12T11:47:27.016Z</time></trkpt><trkpt lat="43.9536848" lon="12.1947675"><ele>158.0</ele><time>2026-04-12T11:47:28.012Z</time></trkpt><trkpt lat="43.9537591" lon="12.1947414"><ele>158.00000000000003</ele><time>2026-04-12T11:47:29.014Z</time></trkpt><trkpt lat="43.9538322" lon="12.1947131"><ele>158.0</ele><time>2026-04-12T11:47:30.014Z</time></trkpt><trkpt lat="43.9539013" lon="12.1946819"><ele>158.33333333333331</ele><time>2026-04-12T11:47:31.015Z</time></trkpt><trkpt lat="43.9539623" lon="12.1946471"><ele>158.66666666666666</ele><time>2026-04-12T11:47:32.013Z</time></trkpt><trkpt lat="43.9540361" lon="12.1945664"><ele>159.0</ele><time>2026-04-12T11:47:34.012Z</time></trkpt><trkpt lat="43.9539595" lon="12.1945063"><ele>159.33333333333334</ele><time>2026-04-12T11:47:37.012Z</time></trkpt><trkpt lat="43.9538621" lon="12.1945485"><ele>159.66666666666669</ele><time>2026-04-12T11:47:39.014Z</time></trkpt><trkpt lat="43.9537849" lon="12.1945807"><ele>160.0</ele><time>2026-04-12T11:47:40.014Z</time></trkpt><trkpt lat="43.9536976" lon="12.1946143"><ele>160.0</ele><time>2026-04-12T11:47:41.013Z</time></trkpt><trkpt lat="43.9536004" lon="12.1946523"><ele>160.0</ele><time>2026-04-12T11:47:42.014Z</time></trkpt><trkpt lat="43.9534844" lon="12.1947027"><ele>160.0</ele><time>2026-04-12T11:47:43.013Z</time></trkpt><trkpt lat="43.9533694" lon="12.194759"><ele>160.0</ele><time>2026-04-12T11:47:44.015Z</time></trkpt><trkpt lat="43.953253" lon="12.1948177"><ele>162.0</ele><time>2026-04-12T11:47:45.014Z</time></trkpt><trkpt lat="43.9531279" lon="12.194876"><ele>164.0</ele><time>2026-04-12T11:47:46.013Z</time></trkpt><trkpt lat="43.9530048" lon="12.1949521"><ele>166.0</ele><time>2026-04-12T11:47:47.013Z</time></trkpt><trkpt lat="43.9528719" lon="12.195041"><ele>168.0</ele><time>2026-04-12T11:47:48.012Z</time></trkpt><trkpt lat="43.9527479" lon="12.1951288"><ele>168.0</ele><time>2026-04-12T11:47:49.012Z</time></trkpt><trkpt lat="43.9526503" lon="12.1952059"><ele>168.0</ele><time>2026-04-12T11:47:50.014Z</time></trkpt><trkpt lat="43.9525616" lon="12.1952417"><ele>168.0</ele><time>2026-04-12T11:47:51.015Z</time></trkpt><trkpt lat="43.9524781" lon="12.1952156"><ele>168.0</ele><time>2026-04-12T11:47:52.014Z</time></trkpt><trkpt lat="43.9523974" lon="12.1951615"><ele>168.0</ele><time>2026-04-12T11:47:53.012Z</time></trkpt><trkpt lat="43.9523294" lon="12.1950787"><ele>171.0</ele><time>2026-04-12T11:47:54.014Z</time></trkpt><trkpt lat="43.9522765" lon="12.194967"><ele>174.0</ele><time>2026-04-12T11:47:55.014Z</time></trkpt><trkpt lat="43.9522332" lon="12.1948322"><ele>177.0</ele><time>2026-04-12T11:47:56.012Z</time></trkpt><trkpt lat="43.9521827" lon="12.1947107"><ele>180.0</ele><time>2026-04-12T11:47:57.014Z</time></trkpt><trkpt lat="43.9521228" lon="12.1945828"><ele>183.0</ele><time>2026-04-12T11:47:58.014Z</time></trkpt><trkpt lat="43.9520535" lon="12.1944502"><ele>182.75</ele><time>2026-04-12T11:47:59.013Z</time></trkpt><trkpt lat="43.9519798" lon="12.194307"><ele>182.5</ele><time>2026-04-12T11:48:00.013Z</time></trkpt><trkpt lat="43.9518957" lon="12.1941529"><ele>182.25</ele><time>2026-04-12T11:48:01.015Z</time></trkpt><trkpt lat="43.9518013" lon="12.193989"><ele>182.0</ele><time>2026-04-12T11:48:02.014Z</time></trkpt><trkpt lat="43.9516983" lon="12.1938078"><ele>184.33333333333331</ele><time>2026-04-12T11:48:03.012Z</time></trkpt><trkpt lat="43.9515883" lon="12.1936206"><ele>186.66666666666666</ele><time>2026-04-12T11:48:04.013Z</time></trkpt><trkpt lat="43.9514835" lon="12.1934381"><ele>189.0</ele><time>2026-04-12T11:48:05.015Z</time></trkpt><trkpt lat="43.951384" lon="12.1932662"><ele>188.5</ele><time>2026-04-12T11:48:06.013Z</time></trkpt><trkpt lat="43.9512917" lon="12.193104"><ele>188.0</ele><time>2026-04-12T11:48:07.014Z</time></trkpt><trkpt lat="43.9511993" lon="12.1929467"><ele>187.5</ele><time>2026-04-12T11:48:08.013Z</time></trkpt><trkpt lat="43.9511002" lon="12.1927878"><ele>187.0</ele><time>2026-04-12T11:48:09.014Z</time></trkpt><trkpt lat="43.9509851" lon="12.1926366"><ele>188.33333333333334</ele><time>2026-04-12T11:48:10.014Z</time></trkpt><trkpt lat="43.9508605" lon="12.1925045"><ele>189.66666666666666</ele><time>2026-04-12T11:48:11.014Z</time></trkpt><trkpt lat="43.9507347" lon="12.1923839"><ele>191.0</ele><time>2026-04-12T11:48:12.013Z</time></trkpt><trkpt lat="43.9506133" lon="12.1922686"><ele>191.0</ele><time>2026-04-12T11:48:13.015Z</time></trkpt><trkpt lat="43.9504916" lon="12.1921662"><ele>191.0</ele><time>2026-04-12T11:48:14.015Z</time></trkpt><trkpt lat="43.9503676" lon="12.1920862"><ele>191.0</ele><time>2026-04-12T11:48:15.015Z</time></trkpt><trkpt lat="43.9502348" lon="12.1920239"><ele>191.0</ele><time>2026-04-12T11:48:16.012Z</time></trkpt><trkpt lat="43.9500912" lon="12.1919695"><ele>191.66666666666666</ele><time>2026-04-12T11:48:17.014Z</time></trkpt><trkpt lat="43.9499413" lon="12.1919225"><ele>192.33333333333331</ele><time>2026-04-12T11:48:18.013Z</time></trkpt><trkpt lat="43.9497886" lon="12.1918775"><ele>193.0</ele><time>2026-04-12T11:48:19.014Z</time></trkpt><trkpt lat="43.9496334" lon="12.1918322"><ele>193.0</ele><time>2026-04-12T11:48:20.013Z</time></trkpt><trkpt lat="43.949474" lon="12.1917873"><ele>193.0</ele><time>2026-04-12T11:48:21.015Z</time></trkpt><trkpt lat="43.9493135" lon="12.1917437"><ele>193.0</ele><time>2026-04-12T11:48:22.013Z</time></trkpt><trkpt lat="43.949153" lon="12.1916984"><ele>195.0</ele><time>2026-04-12T11:48:23.013Z</time></trkpt><trkpt lat="43.9489971" lon="12.191648"><ele>197.0</ele><time>2026-04-12T11:48:24.013Z</time></trkpt><trkpt lat="43.948845" lon="12.1915892"><ele>199.0</ele><time>2026-04-12T11:48:25.012Z</time></trkpt><trkpt lat="43.9486945" lon="12.191526"><ele>198.33333333333331</ele><time>2026-04-12T11:48:26.014Z</time></trkpt><trkpt lat="43.948543" lon="12.1914561"><ele>197.66666666666669</ele><time>2026-04-12T11:48:27.011Z</time></trkpt><trkpt lat="43.9483905" lon="12.191377"><ele>197.0</ele><time>2026-04-12T11:48:28.013Z</time></trkpt><trkpt lat="43.9482504" lon="12.1912929"><ele>199.0</ele><time>2026-04-12T11:48:29.011Z</time></trkpt><trkpt lat="43.9481297" lon="12.1912147"><ele>201.0</ele><time>2026-04-12T11:48:30.015Z</time></trkpt><trkpt lat="43.9480336" lon="12.1911526"><ele>203.0</ele><time>2026-04-12T11:48:31.013Z</time></trkpt><trkpt lat="43.9479578" lon="12.1911165"><ele>205.0</ele><time>2026-04-12T11:48:32.013Z</time></trkpt><trkpt lat="43.9478888" lon="12.1911025"><ele>207.0</ele><time>2026-04-12T11:48:33.013Z</time></trkpt><trkpt lat="43.9478155" lon="12.1911594"><ele>207.0</ele><time>2026-04-12T11:48:35.013Z</time></trkpt><trkpt lat="43.9478318" lon="12.1913402"><ele>207.0</ele><time>2026-04-12T11:48:37.013Z</time></trkpt><trkpt lat="43.9478556" lon="12.1914571"><ele>207.0</ele><time>2026-04-12T11:48:38.013Z</time></trkpt><trkpt lat="43.9478943" lon="12.1915959"><ele>207.0</ele><time>2026-04-12T11:48:39.012Z</time></trkpt><trkpt lat="43.9479496" lon="12.1917736"><ele>208.25</ele><time>2026-04-12T11:48:40.011Z</time></trkpt><trkpt lat="43.948004" lon="12.1919619"><ele>209.5</ele><time>2026-04-12T11:48:41.012Z</time></trkpt><trkpt lat="43.9480585" lon="12.1921595"><ele>210.75</ele><time>2026-04-12T11:48:42.012Z</time></trkpt><trkpt lat="43.94811" lon="12.1923564"><ele>212.0</ele><time>2026-04-12T11:48:43.013Z</time></trkpt><trkpt lat="43.9481695" lon="12.192539"><ele>212.5</ele><time>2026-04-12T11:48:44.012Z</time></trkpt><trkpt lat="43.9482336" lon="12.192706"><ele>213.0</ele><time>2026-04-12T11:48:45.015Z</time></trkpt><trkpt lat="43.9482975" lon="12.1928742"><ele>213.5</ele><time>2026-04-12T11:48:46.013Z</time></trkpt><trkpt lat="43.948349" lon="12.193054"><ele>214.0</ele><time>2026-04-12T11:48:47.015Z</time></trkpt><trkpt lat="43.9483918" lon="12.1932486"><ele>214.0</ele><time>2026-04-12T11:48:48.012Z</time></trkpt><trkpt lat="43.9484304" lon="12.1934558"><ele>214.0</ele><time>2026-04-12T11:48:49.019Z</time></trkpt><trkpt lat="43.9484709" lon="12.1936559"><ele>214.0</ele><time>2026-04-12T11:48:50.013Z</time></trkpt><trkpt lat="43.9485229" lon="12.1938231"><ele>214.0</ele><time>2026-04-12T11:48:51.013Z</time></trkpt><trkpt lat="43.9485769" lon="12.1939533"><ele>215.33333333333331</ele><time>2026-04-12T11:48:52.013Z</time></trkpt><trkpt lat="43.9486292" lon="12.1940614"><ele>216.66666666666666</ele><time>2026-04-12T11:48:53.013Z</time></trkpt><trkpt lat="43.9486664" lon="12.1941629"><ele>218.0</ele><time>2026-04-12T11:48:54.019Z</time></trkpt><trkpt lat="43.9486905" lon="12.1942611"><ele>219.33333333333331</ele><time>2026-04-12T11:48:55.013Z</time></trkpt><trkpt lat="43.9486956" lon="12.1943611"><ele>220.66666666666666</ele><time>2026-04-12T11:48:56.013Z</time></trkpt><trkpt lat="43.9486899" lon="12.1944722"><ele>222.0</ele><time>2026-04-12T11:48:57.014Z</time></trkpt><trkpt lat="43.9486764" lon="12.1945971"><ele>222.0</ele><time>2026-04-12T11:48:58.012Z</time></trkpt><trkpt lat="43.9486425" lon="12.194747"><ele>222.0</ele><time>2026-04-12T11:48:59.014Z</time></trkpt><trkpt lat="43.9486009" lon="12.1949052"><ele>222.0</ele><time>2026-04-12T11:49:00.015Z</time></trkpt><trkpt lat="43.9485575" lon="12.1950654"><ele>222.0</ele><time>2026-04-12T11:49:01.016Z</time></trkpt><trkpt lat="43.9485209" lon="12.195224"><ele>224.8</ele><time>2026-04-12T11:49:02.013Z</time></trkpt><trkpt lat="43.948518" lon="12.1953729"><ele>227.6</ele><time>2026-04-12T11:49:03.015Z</time></trkpt><trkpt lat="43.9485357" lon="12.1955096"><ele>230.40000000000003</ele><time>2026-04-12T11:49:04.015Z</time></trkpt><trkpt lat="43.9485751" lon="12.1956217"><ele>233.20000000000002</ele><time>2026-04-12T11:49:05.018Z</time></trkpt><trkpt lat="43.9486317" lon="12.1957096"><ele>236.0</ele><time>2026-04-12T11:49:06.014Z</time></trkpt><trkpt lat="43.9486927" lon="12.1957855"><ele>238.83333333333334</ele><time>2026-04-12T11:49:07.014Z</time></trkpt><trkpt lat="43.9487576" lon="12.1958517"><ele>241.66666666666669</ele><time>2026-04-12T11:49:08.015Z</time></trkpt><trkpt lat="43.9488175" lon="12.1959112"><ele>244.5</ele><time>2026-04-12T11:49:09.013Z</time></trkpt><trkpt lat="43.9488965" lon="12.1959366"><ele>247.33333333333331</ele><time>2026-04-12T11:49:10.013Z</time></trkpt><trkpt lat="43.9489761" lon="12.1959064"><ele>250.16666666666666</ele><time>2026-04-12T11:49:11.014Z</time></trkpt><trkpt lat="43.9490399" lon="12.1958833"><ele>253.0</ele><time>2026-04-12T11:49:12.013Z</time></trkpt><trkpt lat="43.9491165" lon="12.1958867"><ele>253.0</ele><time>2026-04-12T11:49:14.013Z</time></trkpt><trkpt lat="43.9490854" lon="12.1959964"><ele>253.0</ele><time>2026-04-12T11:49:17.013Z</time></trkpt><trkpt lat="43.9490346" lon="12.1960783"><ele>253.0</ele><time>2026-04-12T11:49:18.023Z</time></trkpt><trkpt lat="43.948979" lon="12.1961802"><ele>253.0</ele><time>2026-04-12T11:49:19.015Z</time></trkpt><trkpt lat="43.948906" lon="12.1963017"><ele>253.0</ele><time>2026-04-12T11:49:20.013Z</time></trkpt><trkpt lat="43.9488239" lon="12.1964215"><ele>253.2</ele><time>2026-04-12T11:49:21.013Z</time></trkpt><trkpt lat="43.9487385" lon="12.1965194"><ele>253.4</ele><time>2026-04-12T11:49:22.014Z</time></trkpt><trkpt lat="43.9486479" lon="12.1965859"><ele>253.59999999999997</ele><time>2026-04-12T11:49:23.013Z</time></trkpt><trkpt lat="43.9485626" lon="12.1966224"><ele>253.79999999999998</ele><time>2026-04-12T11:49:24.014Z</time></trkpt><trkpt lat="43.94847" lon="12.1966259"><ele>254.0</ele><time>2026-04-12T11:49:25.013Z</time></trkpt><trkpt lat="43.9483622" lon="12.1965965"><ele>254.5</ele><time>2026-04-12T11:49:26.013Z</time></trkpt><trkpt lat="43.9482413" lon="12.1965466"><ele>255.0</ele><time>2026-04-12T11:49:27.013Z</time></trkpt><trkpt lat="43.9481114" lon="12.1964862"><ele>255.5</ele><time>2026-04-12T11:49:28.015Z</time></trkpt><trkpt lat="43.9479722" lon="12.1964142"><ele>256.0</ele><time>2026-04-12T11:49:29.014Z</time></trkpt><trkpt lat="43.9478292" lon="12.1963285"><ele>256.0</ele><time>2026-04-12T11:49:30.014Z</time></trkpt><trkpt lat="43.9476987" lon="12.1962271"><ele>256.0</ele><time>2026-04-12T11:49:31.014Z</time></trkpt><trkpt lat="43.9475891" lon="12.1961185"><ele>256.0</ele><time>2026-04-12T11:49:32.014Z</time></trkpt><trkpt lat="43.9474879" lon="12.1960076"><ele>256.0</ele><time>2026-04-12T11:49:33.013Z</time></trkpt><trkpt lat="43.9473865" lon="12.1959089"><ele>259.0</ele><time>2026-04-12T11:49:34.013Z</time></trkpt><trkpt lat="43.9472942" lon="12.1958294"><ele>262.0</ele><time>2026-04-12T11:49:35.013Z</time></trkpt><trkpt lat="43.9472182" lon="12.1957662"><ele>265.0</ele><time>2026-04-12T11:49:36.014Z</time></trkpt><trkpt lat="43.9471515" lon="12.1957206"><ele>268.0</ele><time>2026-04-12T11:49:37.013Z</time></trkpt><trkpt lat="43.9470426" lon="12.1957108"><ele>271.0</ele><time>2026-04-12T11:49:39.015Z</time></trkpt><trkpt lat="43.9470276" lon="12.1958153"><ele>271.0</ele><time>2026-04-12T11:49:41.013Z</time></trkpt><trkpt lat="43.9471044" lon="12.1959723"><ele>271.0</ele><time>2026-04-12T11:49:43.013Z</time></trkpt><trkpt lat="43.9471526" lon="12.1960755"><ele>271.0</ele><time>2026-04-12T11:49:44.015Z</time></trkpt><trkpt lat="43.9472012" lon="12.1961843"><ele>271.0</ele><time>2026-04-12T11:49:45.012Z</time></trkpt><trkpt lat="43.9472382" lon="12.1963237"><ele>271.0</ele><time>2026-04-12T11:49:46.017Z</time></trkpt><trkpt lat="43.9472632" lon="12.1964825"><ele>272.6</ele><time>2026-04-12T11:49:47.013Z</time></trkpt><trkpt lat="43.9472905" lon="12.1966337"><ele>274.20000000000005</ele><time>2026-04-12T11:49:48.012Z</time></trkpt><trkpt lat="43.9473135" lon="12.1967699"><ele>275.79999999999995</ele><time>2026-04-12T11:49:49.015Z</time></trkpt><trkpt lat="43.9473158" lon="12.1968998"><ele>277.4</ele><time>2026-04-12T11:49:50.012Z</time></trkpt><trkpt lat="43.9472988" lon="12.1970278"><ele>279.0</ele><time>2026-04-12T11:49:51.013Z</time></trkpt><trkpt lat="43.9472699" lon="12.1971526"><ele>279.0</ele><time>2026-04-12T11:49:52.015Z</time></trkpt><trkpt lat="43.9472349" lon="12.1972732"><ele>279.0</ele><time>2026-04-12T11:49:53.013Z</time></trkpt><trkpt lat="43.9471954" lon="12.1973855"><ele>279.0</ele><time>2026-04-12T11:49:54.017Z</time></trkpt><trkpt lat="43.9471475" lon="12.1974773"><ele>279.0</ele><time>2026-04-12T11:49:55.014Z</time></trkpt><trkpt lat="43.9470859" lon="12.1975476"><ele>279.0</ele><time>2026-04-12T11:49:56.012Z</time></trkpt><trkpt lat="43.9470035" lon="12.1976017"><ele>279.0</ele><time>2026-04-12T11:49:57.013Z</time></trkpt><trkpt lat="43.9469041" lon="12.19765"><ele>278.59999999999997</ele><time>2026-04-12T11:49:58.013Z</time></trkpt><trkpt lat="43.946797" lon="12.1976987"><ele>278.2</ele><time>2026-04-12T11:49:59.014Z</time></trkpt><trkpt lat="43.9467" lon="12.1977601"><ele>277.79999999999995</ele><time>2026-04-12T11:50:00.013Z</time></trkpt><trkpt lat="43.9466128" lon="12.1978309"><ele>277.4</ele><time>2026-04-12T11:50:01.015Z</time></trkpt><trkpt lat="43.9465428" lon="12.1978838"><ele>277.0</ele><time>2026-04-12T11:50:02.013Z</time></trkpt><trkpt lat="43.9464417" lon="12.1978927"><ele>282.16666666666663</ele><time>2026-04-12T11:50:04.016Z</time></trkpt><trkpt lat="43.9464017" lon="12.1978214"><ele>287.3333333333333</ele><time>2026-04-12T11:50:06.012Z</time></trkpt><trkpt lat="43.9464366" lon="12.1976802"><ele>292.5</ele><time>2026-04-12T11:50:08.014Z</time></trkpt><trkpt lat="43.9464782" lon="12.197593"><ele>297.6666666666667</ele><time>2026-04-12T11:50:09.014Z</time></trkpt><trkpt lat="43.9465273" lon="12.1974948"><ele>302.83333333333337</ele><time>2026-04-12T11:50:10.013Z</time></trkpt><trkpt lat="43.9465811" lon="12.1973845"><ele>308.0</ele><time>2026-04-12T11:50:11.013Z</time></trkpt><trkpt lat="43.9466389" lon="12.1972601"><ele>308.0</ele><time>2026-04-12T11:50:12.013Z</time></trkpt><trkpt lat="43.9466848" lon="12.1971309"><ele>308.0</ele><time>2026-04-12T11:50:13.016Z</time></trkpt><trkpt lat="43.9467162" lon="12.1970013"><ele>308.0</ele><time>2026-04-12T11:50:14.015Z</time></trkpt><trkpt lat="43.9467314" lon="12.1968722"><ele>308.0</ele><time>2026-04-12T11:50:15.014Z</time></trkpt><trkpt lat="43.9467333" lon="12.1967459"><ele>308.0</ele><time>2026-04-12T11:50:16.014Z</time></trkpt><trkpt lat="43.9467198" lon="12.1966348"><ele>308.0</ele><time>2026-04-12T11:50:17.012Z</time></trkpt><trkpt lat="43.9466935" lon="12.1965431"><ele>308.0</ele><time>2026-04-12T11:50:18.013Z</time></trkpt><trkpt lat="43.9466446" lon="12.1964774"><ele>308.0</ele><time>2026-04-12T11:50:19.013Z</time></trkpt><trkpt lat="43.9465842" lon="12.1964328"><ele>308.0</ele><time>2026-04-12T11:50:20.017Z</time></trkpt><trkpt lat="43.9465071" lon="12.1964173"><ele>308.0</ele><time>2026-04-12T11:50:21.014Z</time></trkpt><trkpt lat="43.9464337" lon="12.196427"><ele>308.0</ele><time>2026-04-12T11:50:22.016Z</time></trkpt><trkpt lat="43.9463711" lon="12.1964637"><ele>308.0</ele><time>2026-04-12T11:50:23.013Z</time></trkpt><trkpt lat="43.9462962" lon="12.1965459"><ele>308.0</ele><time>2026-04-12T11:50:24.013Z</time></trkpt><trkpt lat="43.9462153" lon="12.1966426"><ele>308.0</ele><time>2026-04-12T11:50:25.014Z</time></trkpt><trkpt lat="43.946116" lon="12.1967415"><ele>308.0</ele><time>2026-04-12T11:50:26.014Z</time></trkpt><trkpt lat="43.9460017" lon="12.1968242"><ele>308.0</ele><time>2026-04-12T11:50:27.013Z</time></trkpt><trkpt lat="43.9458782" lon="12.1968898"><ele>308.0</ele><time>2026-04-12T11:50:28.013Z</time></trkpt><trkpt lat="43.945748" lon="12.1969469"><ele>308.0</ele><time>2026-04-12T11:50:29.013Z</time></trkpt><trkpt lat="43.9456239" lon="12.1970002"><ele>308.0</ele><time>2026-04-12T11:50:30.014Z</time></trkpt><trkpt lat="43.9455083" lon="12.1970372"><ele>308.0</ele><time>2026-04-12T11:50:31.014Z</time></trkpt><trkpt lat="43.945398" lon="12.1970582"><ele>308.0</ele><time>2026-04-12T11:50:32.015Z</time></trkpt><trkpt lat="43.9452902" lon="12.1970297"><ele>308.0</ele><time>2026-04-12T11:50:33.013Z</time></trkpt><trkpt lat="43.9451746" lon="12.196951"><ele>308.0</ele><time>2026-04-12T11:50:34.014Z</time></trkpt><trkpt lat="43.9450615" lon="12.1968435"><ele>308.0</ele><time>2026-04-12T11:50:35.015Z</time></trkpt><trkpt lat="43.9449434" lon="12.1967309"><ele>308.25</ele><time>2026-04-12T11:50:36.014Z</time></trkpt><trkpt lat="43.9448173" lon="12.1966427"><ele>308.5</ele><time>2026-04-12T11:50:37.016Z</time></trkpt><trkpt lat="43.9446797" lon="12.1965776"><ele>308.75</ele><time>2026-04-12T11:50:38.015Z</time></trkpt><trkpt lat="43.9445386" lon="12.1965187"><ele>309.0</ele><time>2026-04-12T11:50:39.014Z</time></trkpt><trkpt lat="43.9443979" lon="12.1964544"><ele>309.0</ele><time>2026-04-12T11:50:40.013Z</time></trkpt><trkpt lat="43.9442658" lon="12.1963893"><ele>309.0</ele><time>2026-04-12T11:50:41.013Z</time></trkpt><trkpt lat="43.9441519" lon="12.1963177"><ele>309.0</ele><time>2026-04-12T11:50:42.013Z</time></trkpt><trkpt lat="43.9440557" lon="12.1962352"><ele>309.0</ele><time>2026-04-12T11:50:43.012Z</time></trkpt><trkpt lat="43.9439791" lon="12.196152"><ele>312.5</ele><time>2026-04-12T11:50:44.011Z</time></trkpt><trkpt lat="43.9439098" lon="12.1960912"><ele>316.0</ele><time>2026-04-12T11:50:45.013Z</time></trkpt><trkpt lat="43.9438383" lon="12.1960484"><ele>319.5</ele><time>2026-04-12T11:50:46.011Z</time></trkpt><trkpt lat="43.9437624" lon="12.1960285"><ele>323.0</ele><time>2026-04-12T11:50:47.012Z</time></trkpt><trkpt lat="43.9436943" lon="12.1960288"><ele>326.5</ele><time>2026-04-12T11:50:48.013Z</time></trkpt><trkpt lat="43.9436241" lon="12.1960449"><ele>330.0</ele><time>2026-04-12T11:50:49.012Z</time></trkpt><trkpt lat="43.9435145" lon="12.1962162"><ele>330.0</ele><time>2026-04-12T11:50:50.013Z</time></trkpt><trkpt lat="43.9434098" lon="12.1963695"><ele>330.0</ele><time>2026-04-12T11:50:51.013Z</time></trkpt><trkpt lat="43.9433064" lon="12.1965051"><ele>330.0</ele><time>2026-04-12T11:50:52.012Z</time></trkpt><trkpt lat="43.9432086" lon="12.1966283"><ele>330.0</ele><time>2026-04-12T11:50:53.012Z</time></trkpt><trkpt lat="43.9431085" lon="12.1967183"><ele>332.5</ele><time>2026-04-12T11:50:54.013Z</time></trkpt><trkpt lat="43.9429977" lon="12.196783"><ele>335.0</ele><time>2026-04-12T11:50:55.013Z</time></trkpt><trkpt lat="43.9428717" lon="12.1968345"><ele>337.5</ele><time>2026-04-12T11:50:56.013Z</time></trkpt><trkpt lat="43.9427308" lon="12.1968874"><ele>340.0</ele><time>2026-04-12T11:50:57.013Z</time></trkpt><trkpt lat="43.9425852" lon="12.1969532"><ele>340.0</ele><time>2026-04-12T11:50:58.011Z</time></trkpt><trkpt lat="43.9424457" lon="12.1970219"><ele>340.0</ele><time>2026-04-12T11:50:59.013Z</time></trkpt><trkpt lat="43.9423185" lon="12.1970827"><ele>340.0</ele><time>2026-04-12T11:51:00.013Z</time></trkpt><trkpt lat="43.9422017" lon="12.1971411"><ele>340.0</ele><time>2026-04-12T11:51:01.014Z</time></trkpt><trkpt lat="43.9421006" lon="12.1971756"><ele>340.0</ele><time>2026-04-12T11:51:02.012Z</time></trkpt><trkpt lat="43.942014" lon="12.1971785"><ele>340.0</ele><time>2026-04-12T11:51:03.014Z</time></trkpt><trkpt lat="43.9419331" lon="12.1971468"><ele>340.0</ele><time>2026-04-12T11:51:04.013Z</time></trkpt><trkpt lat="43.9418621" lon="12.1971138"><ele>340.0</ele><time>2026-04-12T11:51:05.011Z</time></trkpt><trkpt lat="43.9417525" lon="12.1970938"><ele>340.0</ele><time>2026-04-12T11:51:07.012Z</time></trkpt><trkpt lat="43.9416896" lon="12.197186"><ele>340.0</ele><time>2026-04-12T11:51:09.012Z</time></trkpt><trkpt lat="43.9417327" lon="12.1973665"><ele>342.3333333333333</ele><time>2026-04-12T11:51:11.014Z</time></trkpt><trkpt lat="43.9417888" lon="12.1974479"><ele>344.66666666666663</ele><time>2026-04-12T11:51:12.013Z</time></trkpt><trkpt lat="43.9418616" lon="12.1975162"><ele>347.0</ele><time>2026-04-12T11:51:13.013Z</time></trkpt><trkpt lat="43.9419373" lon="12.1975719"><ele>349.3333333333333</ele><time>2026-04-12T11:51:14.012Z</time></trkpt><trkpt lat="43.9419966" lon="12.1976269"><ele>351.6666666666667</ele><time>2026-04-12T11:51:15.012Z</time></trkpt><trkpt lat="43.9420611" lon="12.197755"><ele>354.0</ele><time>2026-04-12T11:51:17.013Z</time></trkpt><trkpt lat="43.942057" lon="12.197849"><ele>354.0</ele><time>2026-04-12T11:51:19.013Z</time></trkpt><trkpt lat="43.941934" lon="12.1978439"><ele>354.0</ele><time>2026-04-12T11:51:21.013Z</time></trkpt><trkpt lat="43.941825" lon="12.1978365"><ele>354.0</ele><time>2026-04-12T11:51:22.011Z</time></trkpt><trkpt lat="43.9417052" lon="12.1978423"><ele>354.0</ele><time>2026-04-12T11:51:23.012Z</time></trkpt><trkpt lat="43.9416067" lon="12.197868"><ele>354.79999999999995</ele><time>2026-04-12T11:51:24.012Z</time></trkpt><trkpt lat="43.9415237" lon="12.1979157"><ele>355.59999999999997</ele><time>2026-04-12T11:51:25.015Z</time></trkpt><trkpt lat="43.9414524" lon="12.1979942"><ele>356.4</ele><time>2026-04-12T11:51:26.012Z</time></trkpt><trkpt lat="43.9414029" lon="12.1981207"><ele>357.2</ele><time>2026-04-12T11:51:27.014Z</time></trkpt><trkpt lat="43.9413714" lon="12.1982661"><ele>358.0</ele><time>2026-04-12T11:51:28.013Z</time></trkpt><trkpt lat="43.9413756" lon="12.1984158"><ele>359.4</ele><time>2026-04-12T11:51:29.012Z</time></trkpt><trkpt lat="43.9413938" lon="12.1985574"><ele>360.79999999999995</ele><time>2026-04-12T11:51:30.014Z</time></trkpt><trkpt lat="43.9414107" lon="12.1986878"><ele>362.2</ele><time>2026-04-12T11:51:31.013Z</time></trkpt><trkpt lat="43.941414" lon="12.1988147"><ele>363.6</ele><time>2026-04-12T11:51:32.016Z</time></trkpt><trkpt lat="43.941396" lon="12.1989331"><ele>365.0</ele><time>2026-04-12T11:51:33.013Z</time></trkpt><trkpt lat="43.9413587" lon="12.1990484"><ele>367.6</ele><time>2026-04-12T11:51:34.012Z</time></trkpt><trkpt lat="43.9413164" lon="12.1991622"><ele>370.2</ele><time>2026-04-12T11:51:35.012Z</time></trkpt><trkpt lat="43.9412816" lon="12.1992635"><ele>372.79999999999995</ele><time>2026-04-12T11:51:36.013Z</time></trkpt><trkpt lat="43.9412445" lon="12.1993974"><ele>375.4</ele><time>2026-04-12T11:51:38.013Z</time></trkpt><trkpt lat="43.9412386" lon="12.199485"><ele>378.0</ele><time>2026-04-12T11:51:41.013Z</time></trkpt><trkpt lat="43.9412348" lon="12.199672"><ele>378.0</ele><time>2026-04-12T11:51:53.024Z</time></trkpt><trkpt lat="43.9412269" lon="12.199957"><ele>378.0</ele><time>2026-04-12T11:51:55.013Z</time></trkpt><trkpt lat="43.9412196" lon="12.200108"><ele>378.0</ele><time>2026-04-12T11:51:56.013Z</time></trkpt><trkpt lat="43.9412138" lon="12.2002384"><ele>378.0</ele><time>2026-04-12T11:51:57.014Z</time></trkpt><trkpt lat="43.9412113" lon="12.2003559"><ele>378.0</ele><time>2026-04-12T11:51:58.013Z</time></trkpt><trkpt lat="43.9412156" lon="12.2004631"><ele>378.0</ele><time>2026-04-12T11:51:59.011Z</time></trkpt><trkpt lat="43.941224" lon="12.2005652"><ele>378.0</ele><time>2026-04-12T11:52:00.013Z</time></trkpt><trkpt lat="43.9412371" lon="12.200661"><ele>378.0</ele><time>2026-04-12T11:52:01.013Z</time></trkpt><trkpt lat="43.9412496" lon="12.200756"><ele>378.0</ele><time>2026-04-12T11:52:02.012Z</time></trkpt><trkpt lat="43.941248" lon="12.2008471"><ele>378.0</ele><time>2026-04-12T11:52:03.013Z</time></trkpt><trkpt lat="43.9412031" lon="12.2010044"><ele>376.1666666666667</ele><time>2026-04-12T11:52:05.014Z</time></trkpt><trkpt lat="43.9411485" lon="12.2010688"><ele>374.3333333333333</ele><time>2026-04-12T11:52:06.013Z</time></trkpt><trkpt lat="43.9410792" lon="12.2011344"><ele>372.5</ele><time>2026-04-12T11:52:07.014Z</time></trkpt><trkpt lat="43.9410134" lon="12.2012132"><ele>370.66666666666663</ele><time>2026-04-12T11:52:08.013Z</time></trkpt><trkpt lat="43.9409636" lon="12.2013089"><ele>368.8333333333333</ele><time>2026-04-12T11:52:09.013Z</time></trkpt><trkpt lat="43.9409312" lon="12.2014282"><ele>367.0</ele><time>2026-04-12T11:52:10.014Z</time></trkpt><trkpt lat="43.9409261" lon="12.2015837"><ele>364.25</ele><time>2026-04-12T11:52:11.012Z</time></trkpt><trkpt lat="43.940931" lon="12.201757"><ele>361.5</ele><time>2026-04-12T11:52:12.016Z</time></trkpt><trkpt lat="43.9409354" lon="12.2019496"><ele>358.75</ele><time>2026-04-12T11:52:13.012Z</time></trkpt><trkpt lat="43.9409321" lon="12.2021585"><ele>356.0</ele><time>2026-04-12T11:52:14.013Z</time></trkpt><trkpt lat="43.9409218" lon="12.2023784"><ele>353.6666666666667</ele><time>2026-04-12T11:52:15.013Z</time></trkpt><trkpt lat="43.9409057" lon="12.2026048"><ele>351.3333333333333</ele><time>2026-04-12T11:52:16.011Z</time></trkpt><trkpt lat="43.9408854" lon="12.2028307"><ele>349.0</ele><time>2026-04-12T11:52:17.016Z</time></trkpt><trkpt lat="43.9408569" lon="12.2030505"><ele>348.3333333333333</ele><time>2026-04-12T11:52:18.012Z</time></trkpt><trkpt lat="43.9408194" lon="12.203274"><ele>347.6666666666667</ele><time>2026-04-12T11:52:19.015Z</time></trkpt><trkpt lat="43.9407733" lon="12.2034949"><ele>347.0</ele><time>2026-04-12T11:52:20.013Z</time></trkpt><trkpt lat="43.9407197" lon="12.2037098"><ele>347.0</ele><time>2026-04-12T11:52:21.012Z</time></trkpt><trkpt lat="43.9406639" lon="12.2039284"><ele>347.0</ele><time>2026-04-12T11:52:22.012Z</time></trkpt><trkpt lat="43.9406109" lon="12.2041466"><ele>347.0</ele><time>2026-04-12T11:52:23.013Z</time></trkpt><trkpt lat="43.9405591" lon="12.2043497"><ele>346.75</ele><time>2026-04-12T11:52:24.012Z</time></trkpt><trkpt lat="43.9405075" lon="12.2045356"><ele>346.5</ele><time>2026-04-12T11:52:25.013Z</time></trkpt><trkpt lat="43.9404514" lon="12.2047104"><ele>346.25</ele><time>2026-04-12T11:52:26.014Z</time></trkpt><trkpt lat="43.9403778" lon="12.2048759"><ele>346.0</ele><time>2026-04-12T11:52:27.015Z</time></trkpt><trkpt lat="43.9402923" lon="12.2050265"><ele>346.0</ele><time>2026-04-12T11:52:28.013Z</time></trkpt><trkpt lat="43.9402005" lon="12.2051664"><ele>346.0</ele><time>2026-04-12T11:52:29.012Z</time></trkpt><trkpt lat="43.9401154" lon="12.2052967"><ele>346.0</ele><time>2026-04-12T11:52:30.011Z</time></trkpt><trkpt lat="43.9400367" lon="12.2054129"><ele>346.0</ele><time>2026-04-12T11:52:31.013Z</time></trkpt><trkpt lat="43.9399599" lon="12.2055038"><ele>347.5</ele><time>2026-04-12T11:52:32.013Z</time></trkpt><trkpt lat="43.9398876" lon="12.2055811"><ele>349.0</ele><time>2026-04-12T11:52:33.013Z</time></trkpt><trkpt lat="43.9398277" lon="12.2056512"><ele>350.5</ele><time>2026-04-12T11:52:34.011Z</time></trkpt><trkpt lat="43.9397811" lon="12.2057278"><ele>352.0</ele><time>2026-04-12T11:52:35.013Z</time></trkpt><trkpt lat="43.9397517" lon="12.2058083"><ele>353.5</ele><time>2026-04-12T11:52:36.012Z</time></trkpt><trkpt lat="43.9397515" lon="12.2059708"><ele>355.0</ele><time>2026-04-12T11:52:38.014Z</time></trkpt><trkpt lat="43.9397901" lon="12.206054"><ele>355.8</ele><time>2026-04-12T11:52:39.013Z</time></trkpt><trkpt lat="43.939852" lon="12.2061175"><ele>356.6</ele><time>2026-04-12T11:52:40.012Z</time></trkpt><trkpt lat="43.9399365" lon="12.2061738"><ele>357.4</ele><time>2026-04-12T11:52:41.013Z</time></trkpt><trkpt lat="43.9400377" lon="12.2062281"><ele>358.2</ele><time>2026-04-12T11:52:42.012Z</time></trkpt><trkpt lat="43.9401394" lon="12.2062865"><ele>359.0</ele><time>2026-04-12T11:52:43.017Z</time></trkpt><trkpt lat="43.9402263" lon="12.2063592"><ele>359.4</ele><time>2026-04-12T11:52:44.012Z</time></trkpt><trkpt lat="43.9402993" lon="12.2064497"><ele>359.79999999999995</ele><time>2026-04-12T11:52:45.013Z</time></trkpt><trkpt lat="43.9403611" lon="12.2065632"><ele>360.20000000000005</ele><time>2026-04-12T11:52:46.012Z</time></trkpt><trkpt lat="43.9404143" lon="12.2066992"><ele>360.6</ele><time>2026-04-12T11:52:47.013Z</time></trkpt><trkpt lat="43.9404723" lon="12.2068532"><ele>361.0</ele><time>2026-04-12T11:52:48.011Z</time></trkpt><trkpt lat="43.9405365" lon="12.2070179"><ele>361.0</ele><time>2026-04-12T11:52:49.012Z</time></trkpt><trkpt lat="43.9406127" lon="12.2071797"><ele>361.0</ele><time>2026-04-12T11:52:50.013Z</time></trkpt><trkpt lat="43.9407027" lon="12.2073228"><ele>361.0</ele><time>2026-04-12T11:52:51.015Z</time></trkpt><trkpt lat="43.9408025" lon="12.2074432"><ele>361.0</ele><time>2026-04-12T11:52:52.012Z</time></trkpt><trkpt lat="43.9408937" lon="12.2075562"><ele>360.8</ele><time>2026-04-12T11:52:53.012Z</time></trkpt><trkpt lat="43.9409658" lon="12.2076603"><ele>360.6</ele><time>2026-04-12T11:52:54.012Z</time></trkpt><trkpt lat="43.9410178" lon="12.2077594"><ele>360.4</ele><time>2026-04-12T11:52:55.014Z</time></trkpt><trkpt lat="43.9410539" lon="12.2078493"><ele>360.2</ele><time>2026-04-12T11:52:56.013Z</time></trkpt><trkpt lat="43.9410744" lon="12.2080053"><ele>360.0</ele><time>2026-04-12T11:52:58.011Z</time></trkpt><trkpt lat="43.9409667" lon="12.2080931"><ele>360.0</ele><time>2026-04-12T11:53:00.014Z</time></trkpt><trkpt lat="43.9408888" lon="12.2081222"><ele>360.0</ele><time>2026-04-12T11:53:01.013Z</time></trkpt><trkpt lat="43.9407804" lon="12.2081499"><ele>360.0</ele><time>2026-04-12T11:53:02.013Z</time></trkpt><trkpt lat="43.9406647" lon="12.2081906"><ele>360.0</ele><time>2026-04-12T11:53:03.014Z</time></trkpt><trkpt lat="43.940558" lon="12.208238"><ele>360.0</ele><time>2026-04-12T11:53:04.011Z</time></trkpt><trkpt lat="43.9404694" lon="12.2082841"><ele>364.8</ele><time>2026-04-12T11:53:05.011Z</time></trkpt><trkpt lat="43.9404002" lon="12.20833"><ele>369.6</ele><time>2026-04-12T11:53:06.013Z</time></trkpt><trkpt lat="43.940312" lon="12.2084204"><ele>374.4</ele><time>2026-04-12T11:53:08.013Z</time></trkpt><trkpt lat="43.9402367" lon="12.208475"><ele>379.2</ele><time>2026-04-12T11:53:23.013Z</time></trkpt><trkpt lat="43.9401917" lon="12.2083767"><ele>384.0</ele><time>2026-04-12T11:53:26.013Z</time></trkpt><trkpt lat="43.9401717" lon="12.20824"><ele>384.0</ele><time>2026-04-12T11:53:28.011Z</time></trkpt><trkpt lat="43.9401317" lon="12.20816"><ele>384.0</ele><time>2026-04-12T11:53:30.013Z</time></trkpt><trkpt lat="43.9400667" lon="12.208155"><ele>384.0</ele><time>2026-04-12T11:53:32.013Z</time></trkpt><trkpt lat="43.939955" lon="12.2082667"><ele>384.0</ele><time>2026-04-12T11:53:34.014Z</time></trkpt><trkpt lat="43.939895" lon="12.2083683"><ele>384.0</ele><time>2026-04-12T11:53:35.012Z</time></trkpt><trkpt lat="43.9398467" lon="12.208485"><ele>386.6666666666667</ele><time>2026-04-12T11:53:36.012Z</time></trkpt><trkpt lat="43.9398017" lon="12.2086033"><ele>389.33333333333337</ele><time>2026-04-12T11:53:37.014Z</time></trkpt><trkpt lat="43.9397667" lon="12.2087167"><ele>392.0</ele><time>2026-04-12T11:53:38.011Z</time></trkpt><trkpt lat="43.939735" lon="12.208815"><ele>394.6666666666667</ele><time>2026-04-12T11:53:39.013Z</time></trkpt><trkpt lat="43.9397" lon="12.2088933"><ele>397.33333333333337</ele><time>2026-04-12T11:53:40.014Z</time></trkpt><trkpt lat="43.9396583" lon="12.2089617"><ele>400.0</ele><time>2026-04-12T11:53:41.013Z</time></trkpt><trkpt lat="43.9395493" lon="12.2090531"><ele>400.6</ele><time>2026-04-12T11:53:43.013Z</time></trkpt><trkpt lat="43.9394689" lon="12.2090727"><ele>401.2</ele><time>2026-04-12T11:53:44.014Z</time></trkpt><trkpt lat="43.9393631" lon="12.2090816"><ele>401.79999999999995</ele><time>2026-04-12T11:53:45.012Z</time></trkpt><trkpt lat="43.9392572" lon="12.2090994"><ele>402.4</ele><time>2026-04-12T11:53:46.013Z</time></trkpt><trkpt lat="43.9391608" lon="12.2091382"><ele>403.0</ele><time>2026-04-12T11:53:47.014Z</time></trkpt><trkpt lat="43.9390757" lon="12.2091973"><ele>407.59999999999997</ele><time>2026-04-12T11:53:48.014Z</time></trkpt><trkpt lat="43.9389981" lon="12.2092755"><ele>412.2</ele><time>2026-04-12T11:53:49.013Z</time></trkpt><trkpt lat="43.938924" lon="12.2093736"><ele>416.8</ele><time>2026-04-12T11:53:50.011Z</time></trkpt><trkpt lat="43.9388515" lon="12.2094685"><ele>421.4</ele><time>2026-04-12T11:53:51.012Z</time></trkpt><trkpt lat="43.9387861" lon="12.209565"><ele>426.0</ele><time>2026-04-12T11:53:52.013Z</time></trkpt><trkpt lat="43.938721" lon="12.2096575"><ele>426.0</ele><time>2026-04-12T11:53:53.013Z</time></trkpt><trkpt lat="43.9386482" lon="12.2097368"><ele>426.0</ele><time>2026-04-12T11:53:54.013Z</time></trkpt><trkpt lat="43.9385712" lon="12.2098007"><ele>426.0</ele><time>2026-04-12T11:53:55.012Z</time></trkpt><trkpt lat="43.9384873" lon="12.2098597"><ele>426.0</ele><time>2026-04-12T11:53:56.014Z</time></trkpt><trkpt lat="43.9384177" lon="12.2099335"><ele>426.0</ele><time>2026-04-12T11:53:57.017Z</time></trkpt><trkpt lat="43.9383564" lon="12.2100345"><ele>430.4</ele><time>2026-04-12T11:53:58.013Z</time></trkpt><trkpt lat="43.938303" lon="12.210155"><ele>434.8</ele><time>2026-04-12T11:53:59.011Z</time></trkpt><trkpt lat="43.9382704" lon="12.2102808"><ele>439.19999999999993</ele><time>2026-04-12T11:54:00.012Z</time></trkpt><trkpt lat="43.9382526" lon="12.2104173"><ele>443.59999999999997</ele><time>2026-04-12T11:54:01.012Z</time></trkpt><trkpt lat="43.9382495" lon="12.2105636"><ele>448.0</ele><time>2026-04-12T11:54:02.012Z</time></trkpt><trkpt lat="43.9382485" lon="12.2107206"><ele>450.2</ele><time>2026-04-12T11:54:03.015Z</time></trkpt><trkpt lat="43.9382281" lon="12.2108762"><ele>452.4</ele><time>2026-04-12T11:54:04.011Z</time></trkpt><trkpt lat="43.9381956" lon="12.2110129"><ele>454.59999999999997</ele><time>2026-04-12T11:54:05.011Z</time></trkpt><trkpt lat="43.9381554" lon="12.2111353"><ele>456.79999999999995</ele><time>2026-04-12T11:54:06.012Z</time></trkpt><trkpt lat="43.938107" lon="12.2112528"><ele>459.0</ele><time>2026-04-12T11:54:07.012Z</time></trkpt><trkpt lat="43.9380396" lon="12.211354"><ele>459.0</ele><time>2026-04-12T11:54:08.012Z</time></trkpt><trkpt lat="43.9379703" lon="12.2114505"><ele>459.0</ele><time>2026-04-12T11:54:09.014Z</time></trkpt><trkpt lat="43.937899" lon="12.2115463"><ele>459.0</ele><time>2026-04-12T11:54:10.01Z</time></trkpt><trkpt lat="43.9378197" lon="12.2116626"><ele>459.0</ele><time>2026-04-12T11:54:11.011Z</time></trkpt><trkpt lat="43.9377437" lon="12.2118083"><ele>459.0</ele><time>2026-04-12T11:54:12.011Z</time></trkpt><trkpt lat="43.9376774" lon="12.2119687"><ele>461.5</ele><time>2026-04-12T11:54:13.012Z</time></trkpt><trkpt lat="43.9376171" lon="12.2121294"><ele>464.0</ele><time>2026-04-12T11:54:14.01Z</time></trkpt><trkpt lat="43.9375777" lon="12.21228"><ele>466.5</ele><time>2026-04-12T11:54:15.013Z</time></trkpt><trkpt lat="43.937545" lon="12.2124306"><ele>469.0</ele><time>2026-04-12T11:54:16.012Z</time></trkpt><trkpt lat="43.9375156" lon="12.212577"><ele>474.25</ele><time>2026-04-12T11:54:17.013Z</time></trkpt><trkpt lat="43.9374809" lon="12.2127179"><ele>479.5</ele><time>2026-04-12T11:54:18.012Z</time></trkpt><trkpt lat="43.9374389" lon="12.2128568"><ele>484.75</ele><time>2026-04-12T11:54:19.011Z</time></trkpt><trkpt lat="43.9373947" lon="12.2130045"><ele>490.0</ele><time>2026-04-12T11:54:20.012Z</time></trkpt><trkpt lat="43.937337" lon="12.2131618"><ele>491.25</ele><time>2026-04-12T11:54:21.012Z</time></trkpt><trkpt lat="43.9372751" lon="12.2133372"><ele>492.5</ele><time>2026-04-12T11:54:22.013Z</time></trkpt><trkpt lat="43.937211" lon="12.2135185"><ele>493.75</ele><time>2026-04-12T11:54:23.012Z</time></trkpt><trkpt lat="43.9371485" lon="12.2136883"><ele>495.0</ele><time>2026-04-12T11:54:24.011Z</time></trkpt><trkpt lat="43.9370913" lon="12.2138378"><ele>495.0</ele><time>2026-04-12T11:54:25.014Z</time></trkpt><trkpt lat="43.9370309" lon="12.2139665"><ele>495.0</ele><time>2026-04-12T11:54:26.012Z</time></trkpt><trkpt lat="43.9369652" lon="12.2140777"><ele>495.0</ele><time>2026-04-12T11:54:27.013Z</time></trkpt><trkpt lat="43.9368919" lon="12.2141595"><ele>495.0</ele><time>2026-04-12T11:54:28.012Z</time></trkpt><trkpt lat="43.9368125" lon="12.2142134"><ele>495.0</ele><time>2026-04-12T11:54:29.013Z</time></trkpt><trkpt lat="43.9367273" lon="12.2142594"><ele>500.2</ele><time>2026-04-12T11:54:30.013Z</time></trkpt><trkpt lat="43.9366373" lon="12.2143092"><ele>505.4</ele><time>2026-04-12T11:54:31.011Z</time></trkpt><trkpt lat="43.9365477" lon="12.2143702"><ele>510.6</ele><time>2026-04-12T11:54:32.011Z</time></trkpt><trkpt lat="43.9364572" lon="12.2144445"><ele>515.8</ele><time>2026-04-12T11:54:33.012Z</time></trkpt><trkpt lat="43.9363694" lon="12.2145271"><ele>521.0</ele><time>2026-04-12T11:54:34.011Z</time></trkpt><trkpt lat="43.9362836" lon="12.2146174"><ele>521.0</ele><time>2026-04-12T11:54:35.012Z</time></trkpt><trkpt lat="43.9361906" lon="12.2147134"><ele>521.0</ele><time>2026-04-12T11:54:36.015Z</time></trkpt><trkpt lat="43.9361049" lon="12.214826"><ele>521.0</ele><time>2026-04-12T11:54:37.013Z</time></trkpt><trkpt lat="43.9360267" lon="12.2149475"><ele>521.0</ele><time>2026-04-12T11:54:38.012Z</time></trkpt><trkpt lat="43.9359564" lon="12.2150742"><ele>522.2</ele><time>2026-04-12T11:54:39.011Z</time></trkpt><trkpt lat="43.9358805" lon="12.2151883"><ele>523.4000000000001</ele><time>2026-04-12T11:54:40.011Z</time></trkpt><trkpt lat="43.9357991" lon="12.2152823"><ele>524.6</ele><time>2026-04-12T11:54:41.011Z</time></trkpt><trkpt lat="43.9357199" lon="12.2153571"><ele>525.8000000000001</ele><time>2026-04-12T11:54:42.011Z</time></trkpt><trkpt lat="43.9356496" lon="12.2154251"><ele>527.0</ele><time>2026-04-12T11:54:43.011Z</time></trkpt><trkpt lat="43.9355839" lon="12.2155004"><ele>527.0</ele><time>2026-04-12T11:54:44.011Z</time></trkpt><trkpt lat="43.9355235" lon="12.2156006"><ele>527.0</ele><time>2026-04-12T11:54:45.015Z</time></trkpt><trkpt lat="43.9354713" lon="12.2157229"><ele>527.0</ele><time>2026-04-12T11:54:46.01Z</time></trkpt><trkpt lat="43.9354312" lon="12.2158738"><ele>527.0</ele><time>2026-04-12T11:54:47.01Z</time></trkpt><trkpt lat="43.9353966" lon="12.2160236"><ele>527.0</ele><time>2026-04-12T11:54:48.014Z</time></trkpt><trkpt lat="43.9353692" lon="12.2161663"><ele>526.6666666666666</ele><time>2026-04-12T11:54:49.012Z</time></trkpt><trkpt lat="43.9353362" lon="12.2162831"><ele>526.3333333333333</ele><time>2026-04-12T11:54:50.012Z</time></trkpt><trkpt lat="43.9352954" lon="12.216369"><ele>526.0</ele><time>2026-04-12T11:54:51.013Z</time></trkpt><trkpt lat="43.9351919" lon="12.2164167"><ele>525.6666666666666</ele><time>2026-04-12T11:54:53.014Z</time></trkpt><trkpt lat="43.9351244" lon="12.2163956"><ele>525.3333333333334</ele><time>2026-04-12T11:54:54.011Z</time></trkpt><trkpt lat="43.9350485" lon="12.2163635"><ele>525.0</ele><time>2026-04-12T11:54:55.012Z</time></trkpt><trkpt lat="43.9349797" lon="12.2163849"><ele>525.0</ele><time>2026-04-12T11:54:56.011Z</time></trkpt><trkpt lat="43.9349151" lon="12.2164113"><ele>525.0</ele><time>2026-04-12T11:54:57.011Z</time></trkpt><trkpt lat="43.9348377" lon="12.2164751"><ele>525.0</ele><time>2026-04-12T11:54:59.01Z</time></trkpt><trkpt lat="43.9348479" lon="12.2165856"><ele>525.0</ele><time>2026-04-12T11:55:01.014Z</time></trkpt><trkpt lat="43.9349427" lon="12.2166671"><ele>525.0</ele><time>2026-04-12T11:55:03.013Z</time></trkpt><trkpt lat="43.9350195" lon="12.2167158"><ele>525.0</ele><time>2026-04-12T11:55:04.012Z</time></trkpt><trkpt lat="43.9350824" lon="12.2167757"><ele>528.1666666666666</ele><time>2026-04-12T11:55:05.01Z</time></trkpt><trkpt lat="43.9351306" lon="12.2168733"><ele>531.3333333333334</ele><time>2026-04-12T11:55:07.011Z</time></trkpt><trkpt lat="43.9350641" lon="12.2168956"><ele>534.5</ele><time>2026-04-12T11:55:10.011Z</time></trkpt><trkpt lat="43.934962" lon="12.2169777"><ele>537.6666666666667</ele><time>2026-04-12T11:55:12.011Z</time></trkpt><trkpt lat="43.9349037" lon="12.2170511"><ele>540.8333333333334</ele><time>2026-04-12T11:55:13.012Z</time></trkpt><trkpt lat="43.9348415" lon="12.2171463"><ele>544.0</ele><time>2026-04-12T11:55:14.012Z</time></trkpt><trkpt lat="43.9347809" lon="12.2172831"><ele>548.0</ele><time>2026-04-12T11:55:15.011Z</time></trkpt><trkpt lat="43.9347231" lon="12.2174619"><ele>552.0</ele><time>2026-04-12T11:55:16.013Z</time></trkpt><trkpt lat="43.9346706" lon="12.2176392"><ele>556.0</ele><time>2026-04-12T11:55:17.012Z</time></trkpt><trkpt lat="43.9346217" lon="12.2178112"><ele>560.0</ele><time>2026-04-12T11:55:18.014Z</time></trkpt><trkpt lat="43.9345907" lon="12.2179609"><ele>560.0</ele><time>2026-04-12T11:55:19.013Z</time></trkpt><trkpt lat="43.9345929" lon="12.2180987"><ele>560.0</ele><time>2026-04-12T11:55:20.012Z</time></trkpt><trkpt lat="43.934618" lon="12.2182365"><ele>560.0</ele><time>2026-04-12T11:55:21.013Z</time></trkpt><trkpt lat="43.9346475" lon="12.2183779"><ele>560.0</ele><time>2026-04-12T11:55:22.013Z</time></trkpt><trkpt lat="43.9346793" lon="12.2185318"><ele>560.0</ele><time>2026-04-12T11:55:23.014Z</time></trkpt><trkpt lat="43.9347132" lon="12.2186874"><ele>563.75</ele><time>2026-04-12T11:55:24.012Z</time></trkpt><trkpt lat="43.9347665" lon="12.2188376"><ele>567.5</ele><time>2026-04-12T11:55:25.012Z</time></trkpt><trkpt lat="43.9348308" lon="12.2189729"><ele>571.25</ele><time>2026-04-12T11:55:26.012Z</time></trkpt><trkpt lat="43.9348962" lon="12.2190958"><ele>575.0</ele><time>2026-04-12T11:55:27.012Z</time></trkpt><trkpt lat="43.9349518" lon="12.2192214"><ele>577.0</ele><time>2026-04-12T11:55:28.012Z</time></trkpt><trkpt lat="43.9349774" lon="12.2193464"><ele>579.0</ele><time>2026-04-12T11:55:29.012Z</time></trkpt><trkpt lat="43.9349883" lon="12.2194567"><ele>581.0</ele><time>2026-04-12T11:55:30.012Z</time></trkpt><trkpt lat="43.9350086" lon="12.2195928"><ele>583.0</ele><time>2026-04-12T11:55:32.014Z</time></trkpt><trkpt lat="43.9349359" lon="12.2196304"><ele>585.0</ele><time>2026-04-12T11:55:35.012Z</time></trkpt><trkpt lat="43.9348631" lon="12.21958"><ele>587.0</ele><time>2026-04-12T11:55:36.016Z</time></trkpt><trkpt lat="43.9347563" lon="12.2194982"><ele>587.0</ele><time>2026-04-12T11:55:37.012Z</time></trkpt><trkpt lat="43.9346399" lon="12.2194403"><ele>587.0</ele><time>2026-04-12T11:55:38.011Z</time></trkpt><trkpt lat="43.9345145" lon="12.2194342"><ele>587.0</ele><time>2026-04-12T11:55:39.013Z</time></trkpt><trkpt lat="43.9344009" lon="12.2194805"><ele>587.0</ele><time>2026-04-12T11:55:40.011Z</time></trkpt><trkpt lat="43.9343029" lon="12.2195689"><ele>587.0</ele><time>2026-04-12T11:55:41.012Z</time></trkpt><trkpt lat="43.9342249" lon="12.219705"><ele>587.0</ele><time>2026-04-12T11:55:42.011Z</time></trkpt><trkpt lat="43.9341583" lon="12.2198721"><ele>587.0</ele><time>2026-04-12T11:55:43.012Z</time></trkpt><trkpt lat="43.934098" lon="12.2200452"><ele>587.0</ele><time>2026-04-12T11:55:44.012Z</time></trkpt><trkpt lat="43.9340453" lon="12.2202128"><ele>587.75</ele><time>2026-04-12T11:55:45.012Z</time></trkpt><trkpt lat="43.934015" lon="12.220393"><ele>588.5</ele><time>2026-04-12T11:55:46.013Z</time></trkpt><trkpt lat="43.9340096" lon="12.220585"><ele>589.25</ele><time>2026-04-12T11:55:47.012Z</time></trkpt><trkpt lat="43.9340218" lon="12.2207723"><ele>590.0</ele><time>2026-04-12T11:55:48.014Z</time></trkpt><trkpt lat="43.9340131" lon="12.2209449"><ele>591.5</ele><time>2026-04-12T11:55:49.014Z</time></trkpt><trkpt lat="43.9339723" lon="12.2210889"><ele>593.0</ele><time>2026-04-12T11:55:50.012Z</time></trkpt><trkpt lat="43.9339079" lon="12.2212075"><ele>594.5</ele><time>2026-04-12T11:55:51.013Z</time></trkpt><trkpt lat="43.9338232" lon="12.2213076"><ele>596.0</ele><time>2026-04-12T11:55:52.013Z</time></trkpt><trkpt lat="43.933718" lon="12.2213902"><ele>596.0</ele><time>2026-04-12T11:55:53.013Z</time></trkpt><trkpt lat="43.9336087" lon="12.2214516"><ele>596.0</ele><time>2026-04-12T11:55:54.012Z</time></trkpt><trkpt lat="43.9334748" lon="12.2215357"><ele>596.0</ele><time>2026-04-12T11:55:55.013Z</time></trkpt><trkpt lat="43.9332967" lon="12.2216333"><ele>598.75</ele><time>2026-04-12T11:55:56.013Z</time></trkpt><trkpt lat="43.9331633" lon="12.22176"><ele>601.5</ele><time>2026-04-12T11:55:57.012Z</time></trkpt><trkpt lat="43.93307" lon="12.2219133"><ele>604.25</ele><time>2026-04-12T11:55:58.014Z</time></trkpt><trkpt lat="43.9329967" lon="12.2220717"><ele>607.0</ele><time>2026-04-12T11:55:59.011Z</time></trkpt><trkpt lat="43.9329133" lon="12.2222"><ele>607.0</ele><time>2026-04-12T11:56:00.016Z</time></trkpt><trkpt lat="43.932805" lon="12.222275"><ele>607.0</ele><time>2026-04-12T11:56:01.014Z</time></trkpt><trkpt lat="43.9326667" lon="12.2223067"><ele>607.0</ele><time>2026-04-12T11:56:02.013Z</time></trkpt><trkpt lat="43.9325117" lon="12.2223117"><ele>607.0</ele><time>2026-04-12T11:56:03.013Z</time></trkpt><trkpt lat="43.9323483" lon="12.2223267"><ele>604.6666666666667</ele><time>2026-04-12T11:56:04.012Z</time></trkpt><trkpt lat="43.932175" lon="12.2223467"><ele>602.3333333333334</ele><time>2026-04-12T11:56:05.015Z</time></trkpt><trkpt lat="43.9319967" lon="12.22237"><ele>600.0</ele><time>2026-04-12T11:56:06.011Z</time></trkpt><trkpt lat="43.9318317" lon="12.22242"><ele>602.5</ele><time>2026-04-12T11:56:07.014Z</time></trkpt><trkpt lat="43.9316817" lon="12.2224733"><ele>605.0</ele><time>2026-04-12T11:56:08.013Z</time></trkpt><trkpt lat="43.9315367" lon="12.2224967"><ele>607.5</ele><time>2026-04-12T11:56:09.012Z</time></trkpt><trkpt lat="43.93139" lon="12.2224717"><ele>610.0</ele><time>2026-04-12T11:56:10.015Z</time></trkpt><trkpt lat="43.93124" lon="12.2223933"><ele>611.0</ele><time>2026-04-12T11:56:11.012Z</time></trkpt><trkpt lat="43.93109" lon="12.2222767"><ele>612.0</ele><time>2026-04-12T11:56:12.014Z</time></trkpt><trkpt lat="43.9309467" lon="12.22213"><ele>613.0</ele><time>2026-04-12T11:56:13.013Z</time></trkpt><trkpt lat="43.9308067" lon="12.2219617"><ele>613.0</ele><time>2026-04-12T11:56:14.013Z</time></trkpt><trkpt lat="43.9306683" lon="12.2217683"><ele>613.0</ele><time>2026-04-12T11:56:15.015Z</time></trkpt><trkpt lat="43.9305433" lon="12.22154"><ele>613.0</ele><time>2026-04-12T11:56:16.013Z</time></trkpt><trkpt lat="43.9304133" lon="12.221315"><ele>611.3333333333334</ele><time>2026-04-12T11:56:17.013Z</time></trkpt><trkpt lat="43.9302817" lon="12.221115"><ele>609.6666666666666</ele><time>2026-04-12T11:56:18.011Z</time></trkpt><trkpt lat="43.930145" lon="12.2209333"><ele>608.0</ele><time>2026-04-12T11:56:19.012Z</time></trkpt><trkpt lat="43.929995" lon="12.2207867"><ele>607.3333333333333</ele><time>2026-04-12T11:56:20.013Z</time></trkpt><trkpt lat="43.9298717" lon="12.2206383"><ele>606.6666666666666</ele><time>2026-04-12T11:56:21.013Z</time></trkpt><trkpt lat="43.92975" lon="12.2205233"><ele>606.0</ele><time>2026-04-12T11:56:22.01Z</time></trkpt><trkpt lat="43.9296183" lon="12.2204533"><ele>606.0</ele><time>2026-04-12T11:56:23.011Z</time></trkpt><trkpt lat="43.9294833" lon="12.2204317"><ele>606.0</ele><time>2026-04-12T11:56:24.013Z</time></trkpt><trkpt lat="43.9293317" lon="12.2204667"><ele>606.0</ele><time>2026-04-12T11:56:25.012Z</time></trkpt><trkpt lat="43.9291717" lon="12.2205233"><ele>605.0</ele><time>2026-04-12T11:56:26.013Z</time></trkpt><trkpt lat="43.929" lon="12.2205767"><ele>604.0</ele><time>2026-04-12T11:56:27.017Z</time></trkpt><trkpt lat="43.9288317" lon="12.2206267"><ele>603.0</ele><time>2026-04-12T11:56:28.012Z</time></trkpt><trkpt lat="43.9286733" lon="12.2206833"><ele>603.3333333333334</ele><time>2026-04-12T11:56:29.011Z</time></trkpt><trkpt lat="43.9285333" lon="12.2207683"><ele>603.6666666666667</ele><time>2026-04-12T11:56:30.013Z</time></trkpt><trkpt lat="43.9283984" lon="12.2208734"><ele>604.0</ele><time>2026-04-12T11:56:31.012Z</time></trkpt><trkpt lat="43.9282709" lon="12.2210223"><ele>604.0</ele><time>2026-04-12T11:56:32.01Z</time></trkpt><trkpt lat="43.9281439" lon="12.2211878"><ele>604.0</ele><time>2026-04-12T11:56:33.011Z</time></trkpt><trkpt lat="43.9280103" lon="12.2213354"><ele>604.0</ele><time>2026-04-12T11:56:34.014Z</time></trkpt><trkpt lat="43.9278796" lon="12.2214638"><ele>605.6666666666667</ele><time>2026-04-12T11:56:35.012Z</time></trkpt><trkpt lat="43.9277522" lon="12.2215845"><ele>607.3333333333334</ele><time>2026-04-12T11:56:36.012Z</time></trkpt><trkpt lat="43.9276451" lon="12.2217397"><ele>609.0</ele><time>2026-04-12T11:56:37.012Z</time></trkpt><trkpt lat="43.9275598" lon="12.2219292"><ele>608.0</ele><time>2026-04-12T11:56:38.013Z</time></trkpt><trkpt lat="43.9274712" lon="12.2221163"><ele>607.0</ele><time>2026-04-12T11:56:39.013Z</time></trkpt><trkpt lat="43.9273681" lon="12.2222723"><ele>606.0</ele><time>2026-04-12T11:56:40.013Z</time></trkpt><trkpt lat="43.9272516" lon="12.2223911"><ele>606.0</ele><time>2026-04-12T11:56:41.013Z</time></trkpt><trkpt lat="43.9271181" lon="12.2224814"><ele>606.0</ele><time>2026-04-12T11:56:42.014Z</time></trkpt><trkpt lat="43.9269656" lon="12.2225363"><ele>606.0</ele><time>2026-04-12T11:56:43.012Z</time></trkpt><trkpt lat="43.9268056" lon="12.2225469"><ele>604.3333333333334</ele><time>2026-04-12T11:56:44.014Z</time></trkpt><trkpt lat="43.9266466" lon="12.2225156"><ele>602.6666666666667</ele><time>2026-04-12T11:56:45.011Z</time></trkpt><trkpt lat="43.9264915" lon="12.2224371"><ele>601.0</ele><time>2026-04-12T11:56:46.014Z</time></trkpt><trkpt lat="43.9263411" lon="12.2223193"><ele>594.0</ele><time>2026-04-12T11:56:47.01Z</time></trkpt><trkpt lat="43.9261976" lon="12.2221874"><ele>587.0</ele><time>2026-04-12T11:56:48.013Z</time></trkpt><trkpt lat="43.9260575" lon="12.2220646"><ele>580.0</ele><time>2026-04-12T11:56:49.011Z</time></trkpt><trkpt lat="43.9259087" lon="12.2219622"><ele>579.0</ele><time>2026-04-12T11:56:50.01Z</time></trkpt><trkpt lat="43.9257448" lon="12.2218963"><ele>578.0</ele><time>2026-04-12T11:56:51.011Z</time></trkpt><trkpt lat="43.9255724" lon="12.2218613"><ele>577.0</ele><time>2026-04-12T11:56:52.011Z</time></trkpt><trkpt lat="43.9254016" lon="12.2218156"><ele>577.0</ele><time>2026-04-12T11:56:53.014Z</time></trkpt><trkpt lat="43.9252422" lon="12.2217426"><ele>577.0</ele><time>2026-04-12T11:56:54.015Z</time></trkpt><trkpt lat="43.9251017" lon="12.2216573"><ele>577.0</ele><time>2026-04-12T11:56:55.012Z</time></trkpt><trkpt lat="43.9249763" lon="12.2215756"><ele>577.6</ele><time>2026-04-12T11:56:56.012Z</time></trkpt><trkpt lat="43.9248576" lon="12.221517"><ele>578.2</ele><time>2026-04-12T11:56:57.014Z</time></trkpt><trkpt lat="43.9247441" lon="12.22149"><ele>578.8</ele><time>2026-04-12T11:56:58.012Z</time></trkpt><trkpt lat="43.9246369" lon="12.2215022"><ele>579.4</ele><time>2026-04-12T11:56:59.011Z</time></trkpt><trkpt lat="43.9245466" lon="12.2215522"><ele>580.0</ele><time>2026-04-12T11:57:00.012Z</time></trkpt><trkpt lat="43.9244757" lon="12.2216234"><ele>580.0</ele><time>2026-04-12T11:57:01.011Z</time></trkpt><trkpt lat="43.924418" lon="12.2216929"><ele>580.0</ele><time>2026-04-12T11:57:02.012Z</time></trkpt><trkpt lat="43.9243615" lon="12.2217838"><ele>580.0</ele><time>2026-04-12T11:57:04.014Z</time></trkpt><trkpt lat="43.9243575" lon="12.2216862"><ele>580.0</ele><time>2026-04-12T11:57:06.011Z</time></trkpt><trkpt lat="43.9244055" lon="12.2215447"><ele>580.0</ele><time>2026-04-12T11:57:08.013Z</time></trkpt><trkpt lat="43.9244775" lon="12.2214706"><ele>580.0</ele><time>2026-04-12T11:57:09.013Z</time></trkpt><trkpt lat="43.9246188" lon="12.2213614"><ele>575.5</ele><time>2026-04-12T11:57:10.011Z</time></trkpt><trkpt lat="43.9247537" lon="12.2212614"><ele>571.0</ele><time>2026-04-12T11:57:11.011Z</time></trkpt><trkpt lat="43.9248941" lon="12.2211768"><ele>566.5</ele><time>2026-04-12T11:57:12.013Z</time></trkpt><trkpt lat="43.9250287" lon="12.2211301"><ele>562.0</ele><time>2026-04-12T11:57:13.011Z</time></trkpt><trkpt lat="43.9251567" lon="12.2211122"><ele>560.75</ele><time>2026-04-12T11:57:14.014Z</time></trkpt><trkpt lat="43.9252873" lon="12.2211562"><ele>559.5</ele><time>2026-04-12T11:57:15.014Z</time></trkpt><trkpt lat="43.9254066" lon="12.2212407"><ele>558.25</ele><time>2026-04-12T11:57:16.012Z</time></trkpt><trkpt lat="43.9255207" lon="12.221335"><ele>557.0</ele><time>2026-04-12T11:57:17.014Z</time></trkpt><trkpt lat="43.9256112" lon="12.2214163"><ele>557.0</ele><time>2026-04-12T11:57:18.013Z</time></trkpt><trkpt lat="43.925682" lon="12.2214836"><ele>557.0</ele><time>2026-04-12T11:57:19.014Z</time></trkpt><trkpt lat="43.925753" lon="12.2215357"><ele>557.0</ele><time>2026-04-12T11:57:20.01Z</time></trkpt><trkpt lat="43.9258277" lon="12.2215521"><ele>557.0</ele><time>2026-04-12T11:57:21.014Z</time></trkpt><trkpt lat="43.9258912" lon="12.2215189"><ele>557.0</ele><time>2026-04-12T11:57:22.011Z</time></trkpt><trkpt lat="43.925934" lon="12.2213565"><ele>557.0</ele><time>2026-04-12T11:57:24.013Z</time></trkpt><trkpt lat="43.9258904" lon="12.2212356"><ele>557.0</ele><time>2026-04-12T11:57:25.013Z</time></trkpt><trkpt lat="43.9258081" lon="12.2210978"><ele>557.0</ele><time>2026-04-12T11:57:26.013Z</time></trkpt><trkpt lat="43.925639" lon="12.2209319"><ele>557.0</ele><time>2026-04-12T11:57:27.014Z</time></trkpt><trkpt lat="43.9255065" lon="12.2207763"><ele>556.25</ele><time>2026-04-12T11:57:28.011Z</time></trkpt><trkpt lat="43.9253846" lon="12.2206382"><ele>555.5</ele><time>2026-04-12T11:57:29.011Z</time></trkpt><trkpt lat="43.9252664" lon="12.2205362"><ele>554.75</ele><time>2026-04-12T11:57:30.011Z</time></trkpt><trkpt lat="43.9251484" lon="12.2204691"><ele>554.0</ele><time>2026-04-12T11:57:31.012Z</time></trkpt><trkpt lat="43.9250323" lon="12.2204101"><ele>554.0</ele><time>2026-04-12T11:57:32.01Z</time></trkpt><trkpt lat="43.9249146" lon="12.2203599"><ele>554.0</ele><time>2026-04-12T11:57:33.013Z</time></trkpt><trkpt lat="43.9248023" lon="12.2203148"><ele>554.0</ele><time>2026-04-12T11:57:34.011Z</time></trkpt><trkpt lat="43.924693" lon="12.2202712"><ele>554.0</ele><time>2026-04-12T11:57:35.012Z</time></trkpt><trkpt lat="43.9245828" lon="12.2202214"><ele>554.0</ele><time>2026-04-12T11:57:36.012Z</time></trkpt><trkpt lat="43.9244516" lon="12.2202033"><ele>554.0</ele><time>2026-04-12T11:57:37.011Z</time></trkpt><trkpt lat="43.9243116" lon="12.2202344"><ele>554.0</ele><time>2026-04-12T11:57:38.012Z</time></trkpt><trkpt lat="43.9241593" lon="12.2203021"><ele>554.0</ele><time>2026-04-12T11:57:39.013Z</time></trkpt><trkpt lat="43.9240047" lon="12.2204083"><ele>553.6666666666666</ele><time>2026-04-12T11:57:40.011Z</time></trkpt><trkpt lat="43.923845" lon="12.2205859"><ele>553.3333333333334</ele><time>2026-04-12T11:57:41.012Z</time></trkpt><trkpt lat="43.9236741" lon="12.2207534"><ele>553.0</ele><time>2026-04-12T11:57:42.011Z</time></trkpt><trkpt lat="43.9235054" lon="12.2209189"><ele>546.3333333333334</ele><time>2026-04-12T11:57:43.01Z</time></trkpt><trkpt lat="43.9233382" lon="12.2210766"><ele>539.6666666666666</ele><time>2026-04-12T11:57:44.013Z</time></trkpt><trkpt lat="43.9231695" lon="12.2212342"><ele>533.0</ele><time>2026-04-12T11:57:45.011Z</time></trkpt><trkpt lat="43.9229991" lon="12.2213949"><ele>530.0</ele><time>2026-04-12T11:57:46.012Z</time></trkpt><trkpt lat="43.9228309" lon="12.2215587"><ele>527.0</ele><time>2026-04-12T11:57:47.013Z</time></trkpt><trkpt lat="43.9226615" lon="12.2217109"><ele>524.0</ele><time>2026-04-12T11:57:48.012Z</time></trkpt><trkpt lat="43.9224993" lon="12.2218578"><ele>524.0</ele><time>2026-04-12T11:57:49.013Z</time></trkpt><trkpt lat="43.9223462" lon="12.2219986"><ele>524.0</ele><time>2026-04-12T11:57:50.012Z</time></trkpt><trkpt lat="43.9222023" lon="12.2221316"><ele>524.0</ele><time>2026-04-12T11:57:51.011Z</time></trkpt><trkpt lat="43.9220629" lon="12.2222586"><ele>525.0</ele><time>2026-04-12T11:57:52.011Z</time></trkpt><trkpt lat="43.9219232" lon="12.2223694"><ele>526.0</ele><time>2026-04-12T11:57:53.012Z</time></trkpt><trkpt lat="43.921785" lon="12.2224463"><ele>527.0</ele><time>2026-04-12T11:57:54.013Z</time></trkpt><trkpt lat="43.9216575" lon="12.2224776"><ele>528.0</ele><time>2026-04-12T11:57:55.011Z</time></trkpt><trkpt lat="43.921546" lon="12.2224738"><ele>526.0</ele><time>2026-04-12T11:57:56.015Z</time></trkpt><trkpt lat="43.9214531" lon="12.2224304"><ele>524.0</ele><time>2026-04-12T11:57:57.013Z</time></trkpt><trkpt lat="43.9213816" lon="12.2223484"><ele>522.0</ele><time>2026-04-12T11:57:58.015Z</time></trkpt><trkpt lat="43.9213289" lon="12.2222372"><ele>520.0</ele><time>2026-04-12T11:57:59.012Z</time></trkpt><trkpt lat="43.9212928" lon="12.222093"><ele>518.0</ele><time>2026-04-12T11:58:00.012Z</time></trkpt><trkpt lat="43.9213024" lon="12.2219169"><ele>515.25</ele><time>2026-04-12T11:58:01.012Z</time></trkpt><trkpt lat="43.9213545" lon="12.2217489"><ele>512.5</ele><time>2026-04-12T11:58:02.011Z</time></trkpt><trkpt lat="43.9214197" lon="12.2216086"><ele>509.75</ele><time>2026-04-12T11:58:03.013Z</time></trkpt><trkpt lat="43.9215026" lon="12.2215097"><ele>507.0</ele><time>2026-04-12T11:58:04.012Z</time></trkpt><trkpt lat="43.9216032" lon="12.2214522"><ele>508.0</ele><time>2026-04-12T11:58:05.011Z</time></trkpt><trkpt lat="43.9217195" lon="12.2214231"><ele>509.0</ele><time>2026-04-12T11:58:06.01Z</time></trkpt><trkpt lat="43.921834" lon="12.2213872"><ele>510.0</ele><time>2026-04-12T11:58:07.011Z</time></trkpt><trkpt lat="43.9219502" lon="12.2213242"><ele>511.0</ele><time>2026-04-12T11:58:08.014Z</time></trkpt><trkpt lat="43.9220615" lon="12.2212433"><ele>511.0</ele><time>2026-04-12T11:58:09.013Z</time></trkpt><trkpt lat="43.9221549" lon="12.2211491"><ele>511.0</ele><time>2026-04-12T11:58:10.011Z</time></trkpt><trkpt lat="43.9222317" lon="12.2210412"><ele>511.0</ele><time>2026-04-12T11:58:11.011Z</time></trkpt><trkpt lat="43.9223078" lon="12.2209468"><ele>511.0</ele><time>2026-04-12T11:58:12.011Z</time></trkpt><trkpt lat="43.9223587" lon="12.2208428"><ele>511.0</ele><time>2026-04-12T11:58:13.013Z</time></trkpt><trkpt lat="43.9223907" lon="12.220737"><ele>509.6</ele><time>2026-04-12T11:58:14.012Z</time></trkpt><trkpt lat="43.9223944" lon="12.2206218"><ele>508.20000000000005</ele><time>2026-04-12T11:58:15.012Z</time></trkpt><trkpt lat="43.9223777" lon="12.2205111"><ele>506.79999999999995</ele><time>2026-04-12T11:58:16.011Z</time></trkpt><trkpt lat="43.922323" lon="12.2204171"><ele>505.4</ele><time>2026-04-12T11:58:17.014Z</time></trkpt><trkpt lat="43.9222433" lon="12.2203422"><ele>504.0</ele><time>2026-04-12T11:58:18.014Z</time></trkpt><trkpt lat="43.9221351" lon="12.2202843"><ele>504.0</ele><time>2026-04-12T11:58:19.013Z</time></trkpt><trkpt lat="43.9219133" lon="12.2203447"><ele>504.0</ele><time>2026-04-12T11:58:20.013Z</time></trkpt><trkpt lat="43.9217208" lon="12.2204265"><ele>504.0</ele><time>2026-04-12T11:58:21.011Z</time></trkpt><trkpt lat="43.9215492" lon="12.2204904"><ele>501.33333333333337</ele><time>2026-04-12T11:58:22.011Z</time></trkpt><trkpt lat="43.9213909" lon="12.2205516"><ele>498.6666666666667</ele><time>2026-04-12T11:58:23.01Z</time></trkpt><trkpt lat="43.9212366" lon="12.2206134"><ele>496.0</ele><time>2026-04-12T11:58:24.014Z</time></trkpt><trkpt lat="43.9210938" lon="12.2206739"><ele>496.0</ele><time>2026-04-12T11:58:25.011Z</time></trkpt><trkpt lat="43.9209708" lon="12.2207246"><ele>496.0</ele><time>2026-04-12T11:58:26.011Z</time></trkpt><trkpt lat="43.920864" lon="12.2207341"><ele>496.0</ele><time>2026-04-12T11:58:27.012Z</time></trkpt><trkpt lat="43.9207682" lon="12.2206928"><ele>496.0</ele><time>2026-04-12T11:58:28.013Z</time></trkpt><trkpt lat="43.9206916" lon="12.2206075"><ele>496.0</ele><time>2026-04-12T11:58:29.01Z</time></trkpt><trkpt lat="43.9206238" lon="12.2205205"><ele>490.75</ele><time>2026-04-12T11:58:30.011Z</time></trkpt><trkpt lat="43.9205942" lon="12.2203897"><ele>485.5</ele><time>2026-04-12T11:58:31.011Z</time></trkpt><trkpt lat="43.9205734" lon="12.2202018"><ele>480.25</ele><time>2026-04-12T11:58:32.013Z</time></trkpt><trkpt lat="43.9205446" lon="12.2200063"><ele>475.0</ele><time>2026-04-12T11:58:33.013Z</time></trkpt><trkpt lat="43.9205665" lon="12.2197697"><ele>473.33333333333337</ele><time>2026-04-12T11:58:34.011Z</time></trkpt><trkpt lat="43.9206086" lon="12.2195273"><ele>471.66666666666663</ele><time>2026-04-12T11:58:35.011Z</time></trkpt><trkpt lat="43.9206492" lon="12.2192981"><ele>470.0</ele><time>2026-04-12T11:58:36.011Z</time></trkpt><trkpt lat="43.9206821" lon="12.2190982"><ele>467.8</ele><time>2026-04-12T11:58:37.011Z</time></trkpt><trkpt lat="43.9206974" lon="12.2189302"><ele>465.6</ele><time>2026-04-12T11:58:38.012Z</time></trkpt><trkpt lat="43.9206908" lon="12.2187955"><ele>463.4</ele><time>2026-04-12T11:58:39.013Z</time></trkpt><trkpt lat="43.9206436" lon="12.2186947"><ele>461.2</ele><time>2026-04-12T11:58:40.012Z</time></trkpt><trkpt lat="43.9205635" lon="12.2186478"><ele>459.0</ele><time>2026-04-12T11:58:41.012Z</time></trkpt><trkpt lat="43.9204684" lon="12.218669"><ele>459.0</ele><time>2026-04-12T11:58:42.012Z</time></trkpt><trkpt lat="43.9203697" lon="12.2187505"><ele>459.0</ele><time>2026-04-12T11:58:43.012Z</time></trkpt><trkpt lat="43.9202713" lon="12.2188619"><ele>459.0</ele><time>2026-04-12T11:58:44.013Z</time></trkpt><trkpt lat="43.9201623" lon="12.21898"><ele>459.0</ele><time>2026-04-12T11:58:45.012Z</time></trkpt><trkpt lat="43.9200492" lon="12.2191087"><ele>458.66666666666663</ele><time>2026-04-12T11:58:46.017Z</time></trkpt><trkpt lat="43.9199358" lon="12.2192441"><ele>458.3333333333333</ele><time>2026-04-12T11:58:47.01Z</time></trkpt><trkpt lat="43.9198157" lon="12.2193794"><ele>458.0</ele><time>2026-04-12T11:58:48.013Z</time></trkpt><trkpt lat="43.9196939" lon="12.2195148"><ele>458.0</ele><time>2026-04-12T11:58:49.01Z</time></trkpt><trkpt lat="43.9195659" lon="12.2196388"><ele>458.0</ele><time>2026-04-12T11:58:50.013Z</time></trkpt><trkpt lat="43.9194244" lon="12.2197356"><ele>458.0</ele><time>2026-04-12T11:58:51.011Z</time></trkpt><trkpt lat="43.9192666" lon="12.2198041"><ele>454.66666666666663</ele><time>2026-04-12T11:58:52.013Z</time></trkpt><trkpt lat="43.9191046" lon="12.2198537"><ele>451.33333333333337</ele><time>2026-04-12T11:58:53.014Z</time></trkpt><trkpt lat="43.918947" lon="12.2199021"><ele>448.0</ele><time>2026-04-12T11:58:54.011Z</time></trkpt><trkpt lat="43.9188004" lon="12.2199586"><ele>448.0</ele><time>2026-04-12T11:58:55.013Z</time></trkpt><trkpt lat="43.918666" lon="12.2200227"><ele>448.0</ele><time>2026-04-12T11:58:56.011Z</time></trkpt><trkpt lat="43.9185423" lon="12.2200881"><ele>448.0</ele><time>2026-04-12T11:58:57.014Z</time></trkpt><trkpt lat="43.9184304" lon="12.2201547"><ele>448.0</ele><time>2026-04-12T11:58:58.013Z</time></trkpt><trkpt lat="43.9183319" lon="12.2202024"><ele>445.79999999999995</ele><time>2026-04-12T11:58:59.013Z</time></trkpt><trkpt lat="43.9182366" lon="12.2201992"><ele>443.59999999999997</ele><time>2026-04-12T11:59:00.014Z</time></trkpt><trkpt lat="43.9181536" lon="12.220153"><ele>441.40000000000003</ele><time>2026-04-12T11:59:01.012Z</time></trkpt><trkpt lat="43.9180964" lon="12.2200655"><ele>439.20000000000005</ele><time>2026-04-12T11:59:02.012Z</time></trkpt><trkpt lat="43.9180538" lon="12.2199556"><ele>437.0</ele><time>2026-04-12T11:59:03.011Z</time></trkpt><trkpt lat="43.9180421" lon="12.219808"><ele>434.66666666666663</ele><time>2026-04-12T11:59:04.011Z</time></trkpt><trkpt lat="43.9180753" lon="12.2196069"><ele>432.33333333333337</ele><time>2026-04-12T11:59:05.014Z</time></trkpt><trkpt lat="43.9181118" lon="12.2193823"><ele>430.0</ele><time>2026-04-12T11:59:06.011Z</time></trkpt><trkpt lat="43.9181534" lon="12.219144"><ele>428.0</ele><time>2026-04-12T11:59:07.014Z</time></trkpt><trkpt lat="43.9181895" lon="12.2188981"><ele>426.0</ele><time>2026-04-12T11:59:08.013Z</time></trkpt><trkpt lat="43.9182254" lon="12.218645"><ele>424.0</ele><time>2026-04-12T11:59:09.014Z</time></trkpt><trkpt lat="43.9182545" lon="12.2183972"><ele>424.0</ele><time>2026-04-12T11:59:10.012Z</time></trkpt><trkpt lat="43.9182809" lon="12.2181546"><ele>424.0</ele><time>2026-04-12T11:59:11.012Z</time></trkpt><trkpt lat="43.9183041" lon="12.2179246"><ele>424.0</ele><time>2026-04-12T11:59:12.011Z</time></trkpt><trkpt lat="43.9183299" lon="12.2177231"><ele>425.5</ele><time>2026-04-12T11:59:13.013Z</time></trkpt><trkpt lat="43.918372" lon="12.2175403"><ele>427.0</ele><time>2026-04-12T11:59:14.011Z</time></trkpt><trkpt lat="43.9184327" lon="12.2173857"><ele>428.5</ele><time>2026-04-12T11:59:15.013Z</time></trkpt><trkpt lat="43.9185076" lon="12.2172663"><ele>430.0</ele><time>2026-04-12T11:59:16.013Z</time></trkpt><trkpt lat="43.9186051" lon="12.21718"><ele>427.0</ele><time>2026-04-12T11:59:17.01Z</time></trkpt><trkpt lat="43.9187196" lon="12.2171159"><ele>424.0</ele><time>2026-04-12T11:59:18.013Z</time></trkpt><trkpt lat="43.9188357" lon="12.2170562"><ele>421.0</ele><time>2026-04-12T11:59:19.013Z</time></trkpt><trkpt lat="43.9189328" lon="12.2169843"><ele>418.0</ele><time>2026-04-12T11:59:20.012Z</time></trkpt><trkpt lat="43.9190058" lon="12.2168959"><ele>418.0</ele><time>2026-04-12T11:59:21.012Z</time></trkpt><trkpt lat="43.9190481" lon="12.2167806"><ele>418.0</ele><time>2026-04-12T11:59:22.016Z</time></trkpt><trkpt lat="43.9190621" lon="12.2166597"><ele>418.0</ele><time>2026-04-12T11:59:23.012Z</time></trkpt><trkpt lat="43.9190585" lon="12.2165285"><ele>418.0</ele><time>2026-04-12T11:59:24.013Z</time></trkpt><trkpt lat="43.9190464" lon="12.2163946"><ele>418.0</ele><time>2026-04-12T11:59:25.01Z</time></trkpt><trkpt lat="43.9189991" lon="12.2162565"><ele>416.25</ele><time>2026-04-12T11:59:26.012Z</time></trkpt><trkpt lat="43.9188906" lon="12.216143"><ele>414.5</ele><time>2026-04-12T11:59:27.013Z</time></trkpt><trkpt lat="43.918762" lon="12.2160518"><ele>412.75</ele><time>2026-04-12T11:59:28.016Z</time></trkpt><trkpt lat="43.9186199" lon="12.2159791"><ele>411.0</ele><time>2026-04-12T11:59:29.011Z</time></trkpt><trkpt lat="43.9184716" lon="12.2159125"><ele>406.33333333333337</ele><time>2026-04-12T11:59:30.011Z</time></trkpt><trkpt lat="43.9183252" lon="12.2158129"><ele>401.6666666666667</ele><time>2026-04-12T11:59:31.011Z</time></trkpt><trkpt lat="43.9181791" lon="12.2156747"><ele>397.0</ele><time>2026-04-12T11:59:32.013Z</time></trkpt><trkpt lat="43.9180307" lon="12.2155094"><ele>395.33333333333337</ele><time>2026-04-12T11:59:33.012Z</time></trkpt><trkpt lat="43.9178867" lon="12.2153347"><ele>393.66666666666663</ele><time>2026-04-12T11:59:34.012Z</time></trkpt><trkpt lat="43.9177389" lon="12.2151625"><ele>392.0</ele><time>2026-04-12T11:59:35.01Z</time></trkpt><trkpt lat="43.9175979" lon="12.2149907"><ele>390.66666666666663</ele><time>2026-04-12T11:59:36.013Z</time></trkpt><trkpt lat="43.9174683" lon="12.2148271"><ele>389.33333333333337</ele><time>2026-04-12T11:59:37.014Z</time></trkpt><trkpt lat="43.9173518" lon="12.2146771"><ele>388.0</ele><time>2026-04-12T11:59:38.013Z</time></trkpt><trkpt lat="43.9172422" lon="12.2145524"><ele>387.0</ele><time>2026-04-12T11:59:39.014Z</time></trkpt><trkpt lat="43.9171536" lon="12.2144471"><ele>386.0</ele><time>2026-04-12T11:59:40.011Z</time></trkpt><trkpt lat="43.9170942" lon="12.2143621"><ele>385.0</ele><time>2026-04-12T11:59:41.012Z</time></trkpt><trkpt lat="43.9170176" lon="12.2142672"><ele>384.0</ele><time>2026-04-12T11:59:43.014Z</time></trkpt><trkpt lat="43.9169527" lon="12.2142423"><ele>383.0</ele><time>2026-04-12T11:59:45.012Z</time></trkpt><trkpt lat="43.9168886" lon="12.2143034"><ele>383.0</ele><time>2026-04-12T11:59:47.015Z</time></trkpt><trkpt lat="43.9168463" lon="12.2144057"><ele>383.0</ele><time>2026-04-12T11:59:48.013Z</time></trkpt><trkpt lat="43.9167975" lon="12.2145147"><ele>383.0</ele><time>2026-04-12T11:59:49.012Z</time></trkpt><trkpt lat="43.9167334" lon="12.2146425"><ele>383.0</ele><time>2026-04-12T11:59:50.015Z</time></trkpt><trkpt lat="43.9166523" lon="12.2148277"><ele>383.0</ele><time>2026-04-12T11:59:51.012Z</time></trkpt><trkpt lat="43.916577" lon="12.2150085"><ele>381.25</ele><time>2026-04-12T11:59:52.012Z</time></trkpt><trkpt lat="43.916509" lon="12.2151642"><ele>379.5</ele><time>2026-04-12T11:59:53.011Z</time></trkpt><trkpt lat="43.9164402" lon="12.215295"><ele>377.75</ele><time>2026-04-12T11:59:54.01Z</time></trkpt><trkpt lat="43.9163762" lon="12.2154184"><ele>376.0</ele><time>2026-04-12T11:59:55.012Z</time></trkpt><trkpt lat="43.9163186" lon="12.2155294"><ele>376.0</ele><time>2026-04-12T11:59:56.01Z</time></trkpt><trkpt lat="43.9162656" lon="12.2156292"><ele>376.0</ele><time>2026-04-12T11:59:57.012Z</time></trkpt><trkpt lat="43.9162253" lon="12.215728"><ele>376.0</ele><time>2026-04-12T11:59:58.013Z</time></trkpt><trkpt lat="43.9161988" lon="12.215828"><ele>376.0</ele><time>2026-04-12T11:59:59.011Z</time></trkpt><trkpt lat="43.9161915" lon="12.2159368"><ele>376.0</ele><time>2026-04-12T12:00:00.016Z</time></trkpt><trkpt lat="43.9162088" lon="12.21606"><ele>376.0</ele><time>2026-04-12T12:00:01.013Z</time></trkpt><trkpt lat="43.9162344" lon="12.2161957"><ele>375.75</ele><time>2026-04-12T12:00:02.015Z</time></trkpt><trkpt lat="43.91628" lon="12.2163679"><ele>375.5</ele><time>2026-04-12T12:00:03.016Z</time></trkpt><trkpt lat="43.9163312" lon="12.2165497"><ele>375.25</ele><time>2026-04-12T12:00:04.012Z</time></trkpt><trkpt lat="43.9163735" lon="12.2167389"><ele>375.0</ele><time>2026-04-12T12:00:05.011Z</time></trkpt><trkpt lat="43.9164096" lon="12.2169251"><ele>376.5</ele><time>2026-04-12T12:00:06.011Z</time></trkpt><trkpt lat="43.9164318" lon="12.2170978"><ele>378.0</ele><time>2026-04-12T12:00:07.012Z</time></trkpt><trkpt lat="43.916446" lon="12.2172749"><ele>379.5</ele><time>2026-04-12T12:00:08.011Z</time></trkpt><trkpt lat="43.9164507" lon="12.2174528"><ele>381.0</ele><time>2026-04-12T12:00:09.012Z</time></trkpt><trkpt lat="43.9164564" lon="12.2176456"><ele>383.0</ele><time>2026-04-12T12:00:10.011Z</time></trkpt><trkpt lat="43.916457" lon="12.2178525"><ele>385.0</ele><time>2026-04-12T12:00:11.011Z</time></trkpt><trkpt lat="43.9164557" lon="12.2180699"><ele>387.0</ele><time>2026-04-12T12:00:12.012Z</time></trkpt><trkpt lat="43.9164561" lon="12.2183044"><ele>388.33333333333337</ele><time>2026-04-12T12:00:13.012Z</time></trkpt><trkpt lat="43.9164509" lon="12.2185448"><ele>389.6666666666667</ele><time>2026-04-12T12:00:14.014Z</time></trkpt><trkpt lat="43.9164517" lon="12.2187897"><ele>391.0</ele><time>2026-04-12T12:00:15.012Z</time></trkpt><trkpt lat="43.9164527" lon="12.2190324"><ele>392.6666666666667</ele><time>2026-04-12T12:00:16.015Z</time></trkpt><trkpt lat="43.9164507" lon="12.2192589"><ele>394.33333333333337</ele><time>2026-04-12T12:00:17.011Z</time></trkpt><trkpt lat="43.9164452" lon="12.2194688"><ele>396.0</ele><time>2026-04-12T12:00:18.011Z</time></trkpt><trkpt lat="43.9164344" lon="12.2196615"><ele>397.0</ele><time>2026-04-12T12:00:19.011Z</time></trkpt><trkpt lat="43.9164187" lon="12.2198394"><ele>398.0</ele><time>2026-04-12T12:00:20.012Z</time></trkpt><trkpt lat="43.9164051" lon="12.2200015"><ele>399.0</ele><time>2026-04-12T12:00:21.011Z</time></trkpt><trkpt lat="43.9163926" lon="12.2201613"><ele>400.0</ele><time>2026-04-12T12:00:22.011Z</time></trkpt><trkpt lat="43.9163919" lon="12.2203271"><ele>400.0</ele><time>2026-04-12T12:00:23.012Z</time></trkpt><trkpt lat="43.9163917" lon="12.220507"><ele>400.0</ele><time>2026-04-12T12:00:24.013Z</time></trkpt><trkpt lat="43.9163909" lon="12.2206908"><ele>400.0</ele><time>2026-04-12T12:00:25.012Z</time></trkpt><trkpt lat="43.916388" lon="12.2208738"><ele>400.0</ele><time>2026-04-12T12:00:26.013Z</time></trkpt><trkpt lat="43.9163767" lon="12.2210532"><ele>400.8</ele><time>2026-04-12T12:00:27.013Z</time></trkpt><trkpt lat="43.9163535" lon="12.2212202"><ele>401.6</ele><time>2026-04-12T12:00:28.012Z</time></trkpt><trkpt lat="43.9163235" lon="12.2213697"><ele>402.4</ele><time>2026-04-12T12:00:29.012Z</time></trkpt><trkpt lat="43.9162891" lon="12.2215022"><ele>403.2</ele><time>2026-04-12T12:00:30.013Z</time></trkpt><trkpt lat="43.9162524" lon="12.2216198"><ele>404.0</ele><time>2026-04-12T12:00:31.011Z</time></trkpt><trkpt lat="43.9161977" lon="12.2217145"><ele>403.49999999999994</ele><time>2026-04-12T12:00:32.011Z</time></trkpt><trkpt lat="43.9161326" lon="12.2217817"><ele>403.0</ele><time>2026-04-12T12:00:33.011Z</time></trkpt><trkpt lat="43.9160594" lon="12.2218215"><ele>402.5</ele><time>2026-04-12T12:00:34.01Z</time></trkpt><trkpt lat="43.9159817" lon="12.2218354"><ele>402.0</ele><time>2026-04-12T12:00:35.012Z</time></trkpt><trkpt lat="43.9158936" lon="12.2218137"><ele>401.49999999999994</ele><time>2026-04-12T12:00:36.012Z</time></trkpt><trkpt lat="43.9157992" lon="12.2217759"><ele>401.0</ele><time>2026-04-12T12:00:37.015Z</time></trkpt><trkpt lat="43.9156911" lon="12.2217203"><ele>401.0</ele><time>2026-04-12T12:00:38.012Z</time></trkpt><trkpt lat="43.9155725" lon="12.2216615"><ele>401.0</ele><time>2026-04-12T12:00:39.01Z</time></trkpt><trkpt lat="43.9154525" lon="12.2216117"><ele>401.0</ele><time>2026-04-12T12:00:40.013Z</time></trkpt><trkpt lat="43.9153338" lon="12.2215522"><ele>401.0</ele><time>2026-04-12T12:00:41.011Z</time></trkpt><trkpt lat="43.9152159" lon="12.2214671"><ele>402.3333333333333</ele><time>2026-04-12T12:00:42.011Z</time></trkpt><trkpt lat="43.9150977" lon="12.2213501"><ele>403.66666666666663</ele><time>2026-04-12T12:00:43.012Z</time></trkpt><trkpt lat="43.9149733" lon="12.221225"><ele>405.0</ele><time>2026-04-12T12:00:44.011Z</time></trkpt><trkpt lat="43.914843" lon="12.2210956"><ele>405.0</ele><time>2026-04-12T12:00:45.014Z</time></trkpt><trkpt lat="43.9147069" lon="12.2209704"><ele>405.0</ele><time>2026-04-12T12:00:46.011Z</time></trkpt><trkpt lat="43.9145769" lon="12.2208569"><ele>405.0</ele><time>2026-04-12T12:00:47.01Z</time></trkpt><trkpt lat="43.9144687" lon="12.220749"><ele>405.0</ele><time>2026-04-12T12:00:48.011Z</time></trkpt><trkpt lat="43.9143682" lon="12.2206553"><ele>405.0</ele><time>2026-04-12T12:00:49.01Z</time></trkpt><trkpt lat="43.9142759" lon="12.2205772"><ele>405.0</ele><time>2026-04-12T12:00:50.01Z</time></trkpt><trkpt lat="43.9141913" lon="12.2205251"><ele>405.0</ele><time>2026-04-12T12:00:51.012Z</time></trkpt><trkpt lat="43.9141171" lon="12.220495"><ele>405.0</ele><time>2026-04-12T12:00:52.012Z</time></trkpt><trkpt lat="43.9140448" lon="12.2204985"><ele>405.8333333333333</ele><time>2026-04-12T12:00:53.01Z</time></trkpt><trkpt lat="43.9139763" lon="12.2205298"><ele>406.66666666666663</ele><time>2026-04-12T12:00:54.012Z</time></trkpt><trkpt lat="43.9139168" lon="12.2205858"><ele>407.5</ele><time>2026-04-12T12:00:55.012Z</time></trkpt><trkpt lat="43.9138782" lon="12.2206552"><ele>408.3333333333333</ele><time>2026-04-12T12:00:56.014Z</time></trkpt><trkpt lat="43.9138577" lon="12.2207534"><ele>409.16666666666663</ele><time>2026-04-12T12:00:57.014Z</time></trkpt><trkpt lat="43.9138426" lon="12.2208726"><ele>410.0</ele><time>2026-04-12T12:00:58.012Z</time></trkpt><trkpt lat="43.9138303" lon="12.221002"><ele>411.75</ele><time>2026-04-12T12:00:59.014Z</time></trkpt><trkpt lat="43.9138295" lon="12.2211462"><ele>413.5</ele><time>2026-04-12T12:01:00.012Z</time></trkpt><trkpt lat="43.9138283" lon="12.2213006"><ele>415.25</ele><time>2026-04-12T12:01:01.014Z</time></trkpt><trkpt lat="43.9138205" lon="12.2214635"><ele>417.0</ele><time>2026-04-12T12:01:02.013Z</time></trkpt><trkpt lat="43.9138054" lon="12.2216385"><ele>418.5</ele><time>2026-04-12T12:01:03.013Z</time></trkpt><trkpt lat="43.9137884" lon="12.2218226"><ele>420.0</ele><time>2026-04-12T12:01:04.014Z</time></trkpt><trkpt lat="43.9137689" lon="12.2220092"><ele>421.5</ele><time>2026-04-12T12:01:05.012Z</time></trkpt><trkpt lat="43.9137501" lon="12.2221974"><ele>423.0</ele><time>2026-04-12T12:01:06.012Z</time></trkpt><trkpt lat="43.9137362" lon="12.2223796"><ele>424.25</ele><time>2026-04-12T12:01:07.011Z</time></trkpt><trkpt lat="43.9137218" lon="12.2225559"><ele>425.5</ele><time>2026-04-12T12:01:08.012Z</time></trkpt><trkpt lat="43.9137062" lon="12.2227297"><ele>426.75</ele><time>2026-04-12T12:01:09.015Z</time></trkpt><trkpt lat="43.9136852" lon="12.2229011"><ele>428.0</ele><time>2026-04-12T12:01:10.012Z</time></trkpt><trkpt lat="43.9136657" lon="12.2230691"><ele>429.0</ele><time>2026-04-12T12:01:11.013Z</time></trkpt><trkpt lat="43.9136434" lon="12.2232397"><ele>430.0</ele><time>2026-04-12T12:01:12.013Z</time></trkpt><trkpt lat="43.9136178" lon="12.2234097"><ele>431.0</ele><time>2026-04-12T12:01:13.012Z</time></trkpt><trkpt lat="43.9135924" lon="12.2235841"><ele>432.0</ele><time>2026-04-12T12:01:14.011Z</time></trkpt><trkpt lat="43.9135689" lon="12.2237658"><ele>432.0</ele><time>2026-04-12T12:01:15.014Z</time></trkpt><trkpt lat="43.9135454" lon="12.2239522"><ele>432.0</ele><time>2026-04-12T12:01:16.013Z</time></trkpt><trkpt lat="43.9135243" lon="12.2241429"><ele>432.0</ele><time>2026-04-12T12:01:17.011Z</time></trkpt><trkpt lat="43.9135029" lon="12.224345"><ele>432.0</ele><time>2026-04-12T12:01:18.013Z</time></trkpt><trkpt lat="43.9134774" lon="12.2245559"><ele>433.66666666666663</ele><time>2026-04-12T12:01:19.013Z</time></trkpt><trkpt lat="43.9134492" lon="12.2247707"><ele>435.3333333333333</ele><time>2026-04-12T12:01:20.012Z</time></trkpt><trkpt lat="43.9134223" lon="12.2249889"><ele>437.0</ele><time>2026-04-12T12:01:21.013Z</time></trkpt><trkpt lat="43.9133949" lon="12.2252177"><ele>441.66666666666663</ele><time>2026-04-12T12:01:22.013Z</time></trkpt><trkpt lat="43.9133683" lon="12.2254579"><ele>446.33333333333337</ele><time>2026-04-12T12:01:23.011Z</time></trkpt><trkpt lat="43.9133389" lon="12.2256903"><ele>451.0</ele><time>2026-04-12T12:01:24.012Z</time></trkpt><trkpt lat="43.9133126" lon="12.225908"><ele>453.0</ele><time>2026-04-12T12:01:25.013Z</time></trkpt><trkpt lat="43.9132866" lon="12.2261257"><ele>455.0</ele><time>2026-04-12T12:01:26.011Z</time></trkpt><trkpt lat="43.913257" lon="12.2263476"><ele>457.0</ele><time>2026-04-12T12:01:27.014Z</time></trkpt><trkpt lat="43.9132263" lon="12.2265669"><ele>459.0</ele><time>2026-04-12T12:01:28.013Z</time></trkpt><trkpt lat="43.9131916" lon="12.2267867"><ele>461.0</ele><time>2026-04-12T12:01:29.014Z</time></trkpt><trkpt lat="43.9131505" lon="12.2270025"><ele>463.0</ele><time>2026-04-12T12:01:30.015Z</time></trkpt><trkpt lat="43.9130983" lon="12.2272233"><ele>464.33333333333337</ele><time>2026-04-12T12:01:31.014Z</time></trkpt><trkpt lat="43.91304" lon="12.22745"><ele>465.66666666666663</ele><time>2026-04-12T12:01:32.014Z</time></trkpt><trkpt lat="43.91298" lon="12.22768"><ele>467.0</ele><time>2026-04-12T12:01:33.013Z</time></trkpt><trkpt lat="43.9129183" lon="12.2278967"><ele>467.0</ele><time>2026-04-12T12:01:34.012Z</time></trkpt><trkpt lat="43.912865" lon="12.2280983"><ele>467.0</ele><time>2026-04-12T12:01:35.014Z</time></trkpt><trkpt lat="43.91281" lon="12.2282917"><ele>467.0</ele><time>2026-04-12T12:01:36.014Z</time></trkpt><trkpt lat="43.9127583" lon="12.2284817"><ele>467.75</ele><time>2026-04-12T12:01:37.015Z</time></trkpt><trkpt lat="43.9127" lon="12.2286617"><ele>468.5</ele><time>2026-04-12T12:01:38.015Z</time></trkpt><trkpt lat="43.9126333" lon="12.2288217"><ele>469.25</ele><time>2026-04-12T12:01:39.012Z</time></trkpt><trkpt lat="43.9125583" lon="12.22896"><ele>470.0</ele><time>2026-04-12T12:01:40.014Z</time></trkpt><trkpt lat="43.9124817" lon="12.2290667"><ele>474.0</ele><time>2026-04-12T12:01:41.013Z</time></trkpt><trkpt lat="43.9123967" lon="12.2291467"><ele>478.0</ele><time>2026-04-12T12:01:42.013Z</time></trkpt><trkpt lat="43.9122983" lon="12.2291917"><ele>482.0</ele><time>2026-04-12T12:01:43.015Z</time></trkpt><trkpt lat="43.9121867" lon="12.2292167"><ele>486.0</ele><time>2026-04-12T12:01:44.012Z</time></trkpt><trkpt lat="43.9120583" lon="12.2292317"><ele>490.0</ele><time>2026-04-12T12:01:45.013Z</time></trkpt><trkpt lat="43.911915" lon="12.229245"><ele>490.0</ele><time>2026-04-12T12:01:46.014Z</time></trkpt><trkpt lat="43.9117467" lon="12.2292583"><ele>490.0</ele><time>2026-04-12T12:01:47.012Z</time></trkpt><trkpt lat="43.911565" lon="12.2292717"><ele>490.0</ele><time>2026-04-12T12:01:48.012Z</time></trkpt><trkpt lat="43.911375" lon="12.2292967"><ele>493.0</ele><time>2026-04-12T12:01:49.012Z</time></trkpt><trkpt lat="43.9111783" lon="12.229325"><ele>496.0</ele><time>2026-04-12T12:01:50.011Z</time></trkpt><trkpt lat="43.9109717" lon="12.2293567"><ele>499.0</ele><time>2026-04-12T12:01:51.014Z</time></trkpt><trkpt lat="43.9107717" lon="12.2293883"><ele>499.0</ele><time>2026-04-12T12:01:52.013Z</time></trkpt><trkpt lat="43.910585" lon="12.2294167"><ele>499.0</ele><time>2026-04-12T12:01:53.013Z</time></trkpt><trkpt lat="43.9104083" lon="12.229445"><ele>499.0</ele><time>2026-04-12T12:01:54.013Z</time></trkpt><trkpt lat="43.9102367" lon="12.2294717"><ele>500.6666666666667</ele><time>2026-04-12T12:01:55.013Z</time></trkpt><trkpt lat="43.9100583" lon="12.2294967"><ele>502.33333333333337</ele><time>2026-04-12T12:01:56.013Z</time></trkpt><trkpt lat="43.90988" lon="12.22952"><ele>504.0</ele><time>2026-04-12T12:01:57.012Z</time></trkpt><trkpt lat="43.9097033" lon="12.22954"><ele>504.0</ele><time>2026-04-12T12:01:58.013Z</time></trkpt><trkpt lat="43.9095267" lon="12.2295583"><ele>504.0</ele><time>2026-04-12T12:01:59.011Z</time></trkpt><trkpt lat="43.9093533" lon="12.22958"><ele>504.0</ele><time>2026-04-12T12:02:00.012Z</time></trkpt><trkpt lat="43.9091767" lon="12.2296"><ele>505.66666666666663</ele><time>2026-04-12T12:02:01.014Z</time></trkpt><trkpt lat="43.908995" lon="12.2296267"><ele>507.3333333333333</ele><time>2026-04-12T12:02:02.014Z</time></trkpt><trkpt lat="43.908805" lon="12.229655"><ele>509.0</ele><time>2026-04-12T12:02:03.015Z</time></trkpt><trkpt lat="43.908605" lon="12.229685"><ele>510.66666666666663</ele><time>2026-04-12T12:02:04.012Z</time></trkpt><trkpt lat="43.9084033" lon="12.2297117"><ele>512.3333333333334</ele><time>2026-04-12T12:02:05.015Z</time></trkpt><trkpt lat="43.9082025" lon="12.2297365"><ele>514.0</ele><time>2026-04-12T12:02:06.012Z</time></trkpt><trkpt lat="43.9080084" lon="12.2297652"><ele>514.0</ele><time>2026-04-12T12:02:07.017Z</time></trkpt><trkpt lat="43.907828" lon="12.2297943"><ele>514.0</ele><time>2026-04-12T12:02:08.013Z</time></trkpt><trkpt lat="43.9076624" lon="12.2298222"><ele>514.0</ele><time>2026-04-12T12:02:09.013Z</time></trkpt><trkpt lat="43.9075005" lon="12.2298523"><ele>518.0</ele><time>2026-04-12T12:02:10.012Z</time></trkpt><trkpt lat="43.9073355" lon="12.2298812"><ele>522.0</ele><time>2026-04-12T12:02:11.013Z</time></trkpt><trkpt lat="43.9071688" lon="12.2299076"><ele>526.0</ele><time>2026-04-12T12:02:12.012Z</time></trkpt><trkpt lat="43.9069978" lon="12.2299354"><ele>526.0</ele><time>2026-04-12T12:02:13.015Z</time></trkpt><trkpt lat="43.9068256" lon="12.2299603"><ele>526.0</ele><time>2026-04-12T12:02:14.011Z</time></trkpt><trkpt lat="43.9066489" lon="12.2299855"><ele>526.0</ele><time>2026-04-12T12:02:15.013Z</time></trkpt><trkpt lat="43.9064707" lon="12.2300105"><ele>527.3333333333334</ele><time>2026-04-12T12:02:16.016Z</time></trkpt><trkpt lat="43.9062886" lon="12.2300344"><ele>528.6666666666666</ele><time>2026-04-12T12:02:17.012Z</time></trkpt><trkpt lat="43.9060993" lon="12.2300592"><ele>530.0</ele><time>2026-04-12T12:02:18.014Z</time></trkpt><trkpt lat="43.9059124" lon="12.2300832"><ele>531.6666666666666</ele><time>2026-04-12T12:02:19.012Z</time></trkpt><trkpt lat="43.9057371" lon="12.2301062"><ele>533.3333333333334</ele><time>2026-04-12T12:02:20.012Z</time></trkpt><trkpt lat="43.9055798" lon="12.2301233"><ele>535.0</ele><time>2026-04-12T12:02:21.014Z</time></trkpt><trkpt lat="43.9054435" lon="12.2301368"><ele>535.0</ele><time>2026-04-12T12:02:22.014Z</time></trkpt><trkpt lat="43.9053207" lon="12.2301478"><ele>535.0</ele><time>2026-04-12T12:02:23.012Z</time></trkpt><trkpt lat="43.9051976" lon="12.230163"><ele>535.0</ele><time>2026-04-12T12:02:24.013Z</time></trkpt><trkpt lat="43.9050544" lon="12.2301802"><ele>535.0</ele><time>2026-04-12T12:02:25.012Z</time></trkpt><trkpt lat="43.9048968" lon="12.2302067"><ele>537.0</ele><time>2026-04-12T12:02:26.012Z</time></trkpt><trkpt lat="43.9047426" lon="12.2302403"><ele>539.0</ele><time>2026-04-12T12:02:27.012Z</time></trkpt><trkpt lat="43.9045946" lon="12.2302761"><ele>541.0</ele><time>2026-04-12T12:02:28.013Z</time></trkpt><trkpt lat="43.904448" lon="12.2303046"><ele>541.0</ele><time>2026-04-12T12:02:29.012Z</time></trkpt><trkpt lat="43.9043037" lon="12.230323"><ele>541.0</ele><time>2026-04-12T12:02:30.012Z</time></trkpt><trkpt lat="43.9041684" lon="12.2303335"><ele>541.0</ele><time>2026-04-12T12:02:31.014Z</time></trkpt><trkpt lat="43.9040434" lon="12.2303398"><ele>541.0</ele><time>2026-04-12T12:02:32.015Z</time></trkpt><trkpt lat="43.9039281" lon="12.2303406"><ele>541.4</ele><time>2026-04-12T12:02:33.012Z</time></trkpt><trkpt lat="43.9038101" lon="12.2303441"><ele>541.8</ele><time>2026-04-12T12:02:34.012Z</time></trkpt><trkpt lat="43.9036948" lon="12.2303474"><ele>542.1999999999999</ele><time>2026-04-12T12:02:35.012Z</time></trkpt><trkpt lat="43.9036039" lon="12.2303462"><ele>542.6</ele><time>2026-04-12T12:02:36.012Z</time></trkpt><trkpt lat="43.9035343" lon="12.2303439"><ele>543.0</ele><time>2026-04-12T12:02:37.012Z</time></trkpt><trkpt lat="43.9034548" lon="12.2303418"><ele>544.1999999999999</ele><time>2026-04-12T12:02:39.015Z</time></trkpt><trkpt lat="43.9033779" lon="12.2304057"><ele>545.4</ele><time>2026-04-12T12:02:41.012Z</time></trkpt><trkpt lat="43.9033312" lon="12.2304805"><ele>546.5999999999999</ele><time>2026-04-12T12:02:42.013Z</time></trkpt><trkpt lat="43.9032877" lon="12.2305767"><ele>547.8</ele><time>2026-04-12T12:02:43.012Z</time></trkpt><trkpt lat="43.903244" lon="12.2307489"><ele>549.0</ele><time>2026-04-12T12:02:44.014Z</time></trkpt><trkpt lat="43.9032182" lon="12.2309664"><ele>550.0</ele><time>2026-04-12T12:02:45.012Z</time></trkpt><trkpt lat="43.9032112" lon="12.2311984"><ele>551.0</ele><time>2026-04-12T12:02:46.015Z</time></trkpt><trkpt lat="43.9032268" lon="12.2314419"><ele>552.0</ele><time>2026-04-12T12:02:47.013Z</time></trkpt><trkpt lat="43.9032686" lon="12.231662"><ele>553.0</ele><time>2026-04-12T12:02:48.014Z</time></trkpt><trkpt lat="43.9033117" lon="12.2318501"><ele>554.0</ele><time>2026-04-12T12:02:49.013Z</time></trkpt><trkpt lat="43.903339" lon="12.2320148"><ele>555.0</ele><time>2026-04-12T12:02:50.014Z</time></trkpt><trkpt lat="43.9033457" lon="12.2321741"><ele>556.0</ele><time>2026-04-12T12:02:51.012Z</time></trkpt><trkpt lat="43.9033271" lon="12.2323371"><ele>557.25</ele><time>2026-04-12T12:02:52.012Z</time></trkpt><trkpt lat="43.9033085" lon="12.232509"><ele>558.5</ele><time>2026-04-12T12:02:53.011Z</time></trkpt><trkpt lat="43.9033" lon="12.2327005"><ele>559.75</ele><time>2026-04-12T12:02:54.014Z</time></trkpt><trkpt lat="43.9033038" lon="12.2329"><ele>561.0</ele><time>2026-04-12T12:02:55.013Z</time></trkpt><trkpt lat="43.903317" lon="12.233101"><ele>562.0</ele><time>2026-04-12T12:02:56.012Z</time></trkpt><trkpt lat="43.9033375" lon="12.2332995"><ele>563.0</ele><time>2026-04-12T12:02:57.011Z</time></trkpt><trkpt lat="43.9033608" lon="12.2334977"><ele>564.0</ele><time>2026-04-12T12:02:58.01Z</time></trkpt><trkpt lat="43.9033814" lon="12.2336947"><ele>565.0</ele><time>2026-04-12T12:02:59.011Z</time></trkpt><trkpt lat="43.9034016" lon="12.233893"><ele>567.6666666666667</ele><time>2026-04-12T12:03:00.009Z</time></trkpt><trkpt lat="43.9034218" lon="12.2340987"><ele>570.3333333333334</ele><time>2026-04-12T12:03:01.012Z</time></trkpt><trkpt lat="43.903442" lon="12.2343134"><ele>573.0</ele><time>2026-04-12T12:03:02.011Z</time></trkpt><trkpt lat="43.9034594" lon="12.2345404"><ele>573.0</ele><time>2026-04-12T12:03:03.015Z</time></trkpt><trkpt lat="43.903477" lon="12.234775"><ele>573.0</ele><time>2026-04-12T12:03:04.01Z</time></trkpt><trkpt lat="43.903497" lon="12.2350067"><ele>573.0</ele><time>2026-04-12T12:03:05.014Z</time></trkpt><trkpt lat="43.9035162" lon="12.2352158"><ele>574.75</ele><time>2026-04-12T12:03:06.013Z</time></trkpt><trkpt lat="43.9035317" lon="12.2354057"><ele>576.5</ele><time>2026-04-12T12:03:07.011Z</time></trkpt><trkpt lat="43.9035474" lon="12.2355932"><ele>578.25</ele><time>2026-04-12T12:03:08.012Z</time></trkpt><trkpt lat="43.9035654" lon="12.2357894"><ele>580.0</ele><time>2026-04-12T12:03:09.012Z</time></trkpt><trkpt lat="43.9035808" lon="12.2359949"><ele>582.3333333333334</ele><time>2026-04-12T12:03:10.011Z</time></trkpt><trkpt lat="43.9035987" lon="12.236212"><ele>584.6666666666666</ele><time>2026-04-12T12:03:11.011Z</time></trkpt><trkpt lat="43.9036134" lon="12.2364261"><ele>587.0</ele><time>2026-04-12T12:03:12.01Z</time></trkpt><trkpt lat="43.9036197" lon="12.2366266"><ele>587.6</ele><time>2026-04-12T12:03:13.013Z</time></trkpt><trkpt lat="43.9036088" lon="12.2368017"><ele>588.2</ele><time>2026-04-12T12:03:14.012Z</time></trkpt><trkpt lat="43.9035837" lon="12.2369483"><ele>588.8</ele><time>2026-04-12T12:03:15.012Z</time></trkpt><trkpt lat="43.9035387" lon="12.2370649"><ele>589.4</ele><time>2026-04-12T12:03:16.011Z</time></trkpt><trkpt lat="43.9034687" lon="12.2371628"><ele>590.0</ele><time>2026-04-12T12:03:17.012Z</time></trkpt><trkpt lat="43.903396" lon="12.237267"><ele>591.5</ele><time>2026-04-12T12:03:18.014Z</time></trkpt><trkpt lat="43.9033485" lon="12.2373958"><ele>593.0</ele><time>2026-04-12T12:03:19.016Z</time></trkpt><trkpt lat="43.903328" lon="12.237551"><ele>594.5</ele><time>2026-04-12T12:03:20.014Z</time></trkpt><trkpt lat="43.9033387" lon="12.2377264"><ele>596.0</ele><time>2026-04-12T12:03:21.012Z</time></trkpt><trkpt lat="43.903385" lon="12.2379144"><ele>601.0</ele><time>2026-04-12T12:03:22.014Z</time></trkpt><trkpt lat="43.9034553" lon="12.2381063"><ele>606.0</ele><time>2026-04-12T12:03:23.013Z</time></trkpt><trkpt lat="43.9035319" lon="12.2383048"><ele>611.0</ele><time>2026-04-12T12:03:24.012Z</time></trkpt><trkpt lat="43.9036163" lon="12.2385189"><ele>611.6666666666666</ele><time>2026-04-12T12:03:25.013Z</time></trkpt><trkpt lat="43.903703" lon="12.2387429"><ele>612.3333333333334</ele><time>2026-04-12T12:03:26.013Z</time></trkpt><trkpt lat="43.9037892" lon="12.2389733"><ele>613.0</ele><time>2026-04-12T12:03:27.013Z</time></trkpt><trkpt lat="43.9038767" lon="12.2392059"><ele>613.0</ele><time>2026-04-12T12:03:28.013Z</time></trkpt><trkpt lat="43.9039688" lon="12.2394416"><ele>613.0</ele><time>2026-04-12T12:03:29.011Z</time></trkpt><trkpt lat="43.9040611" lon="12.2396778"><ele>613.0</ele><time>2026-04-12T12:03:30.013Z</time></trkpt><trkpt lat="43.9041469" lon="12.2399101"><ele>612.6666666666667</ele><time>2026-04-12T12:03:31.012Z</time></trkpt><trkpt lat="43.9042324" lon="12.2401364"><ele>612.3333333333334</ele><time>2026-04-12T12:03:32.013Z</time></trkpt><trkpt lat="43.9043165" lon="12.2403542"><ele>612.0</ele><time>2026-04-12T12:03:33.013Z</time></trkpt><trkpt lat="43.9043917" lon="12.2405565"><ele>617.6666666666666</ele><time>2026-04-12T12:03:34.013Z</time></trkpt><trkpt lat="43.9044498" lon="12.2407536"><ele>623.3333333333333</ele><time>2026-04-12T12:03:35.014Z</time></trkpt><trkpt lat="43.904484" lon="12.2409634"><ele>629.0</ele><time>2026-04-12T12:03:36.014Z</time></trkpt><trkpt lat="43.904494" lon="12.241191"><ele>629.0</ele><time>2026-04-12T12:03:37.014Z</time></trkpt><trkpt lat="43.9044848" lon="12.2414205"><ele>629.0</ele><time>2026-04-12T12:03:38.012Z</time></trkpt><trkpt lat="43.9044598" lon="12.2416269"><ele>629.0</ele><time>2026-04-12T12:03:39.012Z</time></trkpt><trkpt lat="43.9044127" lon="12.2418058"><ele>629.0</ele><time>2026-04-12T12:03:40.012Z</time></trkpt><trkpt lat="43.9043384" lon="12.2419647"><ele>629.0</ele><time>2026-04-12T12:03:41.012Z</time></trkpt><trkpt lat="43.9042387" lon="12.242124"><ele>629.0</ele><time>2026-04-12T12:03:42.015Z</time></trkpt><trkpt lat="43.9041328" lon="12.2423141"><ele>629.0</ele><time>2026-04-12T12:03:43.01Z</time></trkpt><trkpt lat="43.9040347" lon="12.2425229"><ele>629.0</ele><time>2026-04-12T12:03:44.015Z</time></trkpt><trkpt lat="43.9039417" lon="12.2427411"><ele>629.0</ele><time>2026-04-12T12:03:45.013Z</time></trkpt><trkpt lat="43.9038383" lon="12.242965"><ele>633.0</ele><time>2026-04-12T12:03:46.011Z</time></trkpt><trkpt lat="43.9037317" lon="12.2431733"><ele>637.0</ele><time>2026-04-12T12:03:47.012Z</time></trkpt><trkpt lat="43.9036267" lon="12.2433467"><ele>641.0</ele><time>2026-04-12T12:03:48.011Z</time></trkpt><trkpt lat="43.9035117" lon="12.2434933"><ele>638.3333333333333</ele><time>2026-04-12T12:03:49.014Z</time></trkpt><trkpt lat="43.9033683" lon="12.2436067"><ele>635.6666666666666</ele><time>2026-04-12T12:03:50.013Z</time></trkpt><trkpt lat="43.903205" lon="12.2437067"><ele>633.0</ele><time>2026-04-12T12:03:51.016Z</time></trkpt><trkpt lat="43.903035" lon="12.2438067"><ele>633.0</ele><time>2026-04-12T12:03:52.012Z</time></trkpt><trkpt lat="43.9028617" lon="12.2439133"><ele>633.0</ele><time>2026-04-12T12:03:53.015Z</time></trkpt><trkpt lat="43.9026917" lon="12.2440183"><ele>633.0</ele><time>2026-04-12T12:03:54.012Z</time></trkpt><trkpt lat="43.9025233" lon="12.24412"><ele>637.6666666666666</ele><time>2026-04-12T12:03:55.013Z</time></trkpt><trkpt lat="43.90236" lon="12.244215"><ele>642.3333333333333</ele><time>2026-04-12T12:03:56.014Z</time></trkpt><trkpt lat="43.902205" lon="12.2442933"><ele>647.0</ele><time>2026-04-12T12:03:57.012Z</time></trkpt><trkpt lat="43.9020617" lon="12.244355"><ele>647.0</ele><time>2026-04-12T12:03:58.013Z</time></trkpt><trkpt lat="43.9019383" lon="12.2444117"><ele>647.0</ele><time>2026-04-12T12:03:59.013Z</time></trkpt><trkpt lat="43.9018383" lon="12.24449"><ele>647.0</ele><time>2026-04-12T12:04:00.012Z</time></trkpt><trkpt lat="43.9017583" lon="12.244605"><ele>647.0</ele><time>2026-04-12T12:04:01.013Z</time></trkpt><trkpt lat="43.9016917" lon="12.244765"><ele>650.3333333333333</ele><time>2026-04-12T12:04:02.012Z</time></trkpt><trkpt lat="43.9016233" lon="12.2449417"><ele>653.6666666666666</ele><time>2026-04-12T12:04:03.012Z</time></trkpt><trkpt lat="43.9015267" lon="12.2451133"><ele>657.0</ele><time>2026-04-12T12:04:04.014Z</time></trkpt><trkpt lat="43.9014083" lon="12.245275"><ele>657.0</ele><time>2026-04-12T12:04:05.012Z</time></trkpt><trkpt lat="43.9012967" lon="12.245445"><ele>657.0</ele><time>2026-04-12T12:04:06.013Z</time></trkpt><trkpt lat="43.9012" lon="12.2456083"><ele>657.0</ele><time>2026-04-12T12:04:07.012Z</time></trkpt><trkpt lat="43.901125" lon="12.2457433"><ele>657.0</ele><time>2026-04-12T12:04:08.012Z</time></trkpt><trkpt lat="43.9010683" lon="12.2458517"><ele>657.6</ele><time>2026-04-12T12:04:09.012Z</time></trkpt><trkpt lat="43.90102" lon="12.245945"><ele>658.2</ele><time>2026-04-12T12:04:10.012Z</time></trkpt><trkpt lat="43.9009617" lon="12.246045"><ele>658.8</ele><time>2026-04-12T12:04:11.013Z</time></trkpt><trkpt lat="43.9008817" lon="12.2461483"><ele>659.4</ele><time>2026-04-12T12:04:12.012Z</time></trkpt><trkpt lat="43.9007667" lon="12.2462467"><ele>660.0</ele><time>2026-04-12T12:04:13.012Z</time></trkpt><trkpt lat="43.90062" lon="12.24633"><ele>657.3333333333334</ele><time>2026-04-12T12:04:14.013Z</time></trkpt><trkpt lat="43.90046" lon="12.2464033"><ele>654.6666666666667</ele><time>2026-04-12T12:04:15.014Z</time></trkpt><trkpt lat="43.900285" lon="12.2464417"><ele>652.0</ele><time>2026-04-12T12:04:16.012Z</time></trkpt><trkpt lat="43.900105" lon="12.2464517"><ele>649.6666666666667</ele><time>2026-04-12T12:04:17.012Z</time></trkpt><trkpt lat="43.8999267" lon="12.2464317"><ele>647.3333333333334</ele><time>2026-04-12T12:04:18.012Z</time></trkpt><trkpt lat="43.899765" lon="12.246395"><ele>645.0</ele><time>2026-04-12T12:04:19.015Z</time></trkpt><trkpt lat="43.8996033" lon="12.2463767"><ele>645.0</ele><time>2026-04-12T12:04:20.013Z</time></trkpt><trkpt lat="43.899435" lon="12.246395"><ele>645.0</ele><time>2026-04-12T12:04:21.012Z</time></trkpt><trkpt lat="43.8992656" lon="12.246451"><ele>645.0</ele><time>2026-04-12T12:04:22.013Z</time></trkpt><trkpt lat="43.8991026" lon="12.2465231"><ele>649.0</ele><time>2026-04-12T12:04:23.011Z</time></trkpt><trkpt lat="43.8989479" lon="12.2465849"><ele>653.0</ele><time>2026-04-12T12:04:24.015Z</time></trkpt><trkpt lat="43.8988029" lon="12.2466344"><ele>657.0</ele><time>2026-04-12T12:04:25.016Z</time></trkpt><trkpt lat="43.898665" lon="12.2466835"><ele>657.0</ele><time>2026-04-12T12:04:26.014Z</time></trkpt><trkpt lat="43.8985277" lon="12.2467359"><ele>657.0</ele><time>2026-04-12T12:04:27.013Z</time></trkpt><trkpt lat="43.89839" lon="12.2467867"><ele>657.0</ele><time>2026-04-12T12:04:28.012Z</time></trkpt><trkpt lat="43.8982621" lon="12.2468296"><ele>657.0</ele><time>2026-04-12T12:04:29.013Z</time></trkpt><trkpt lat="43.898153" lon="12.2468623"><ele>656.8333333333334</ele><time>2026-04-12T12:04:30.013Z</time></trkpt><trkpt lat="43.8980622" lon="12.2468868"><ele>656.6666666666666</ele><time>2026-04-12T12:04:31.013Z</time></trkpt><trkpt lat="43.8979903" lon="12.246905"><ele>656.5</ele><time>2026-04-12T12:04:32.014Z</time></trkpt><trkpt lat="43.8979161" lon="12.2469096"><ele>656.3333333333333</ele><time>2026-04-12T12:04:33.013Z</time></trkpt><trkpt lat="43.8978351" lon="12.2468985"><ele>656.1666666666666</ele><time>2026-04-12T12:04:34.011Z</time></trkpt><trkpt lat="43.8977116" lon="12.2468549"><ele>656.0</ele><time>2026-04-12T12:04:35.012Z</time></trkpt><trkpt lat="43.8975648" lon="12.2467934"><ele>655.6666666666666</ele><time>2026-04-12T12:04:36.013Z</time></trkpt><trkpt lat="43.8974123" lon="12.2467229"><ele>655.3333333333334</ele><time>2026-04-12T12:04:37.013Z</time></trkpt><trkpt lat="43.8972518" lon="12.2466487"><ele>655.0</ele><time>2026-04-12T12:04:38.012Z</time></trkpt><trkpt lat="43.8970801" lon="12.2465706"><ele>655.0</ele><time>2026-04-12T12:04:39.013Z</time></trkpt><trkpt lat="43.8968969" lon="12.2464849"><ele>655.0</ele><time>2026-04-12T12:04:40.012Z</time></trkpt><trkpt lat="43.8967007" lon="12.2463916"><ele>655.0</ele><time>2026-04-12T12:04:41.013Z</time></trkpt><trkpt lat="43.896504" lon="12.2462865"><ele>656.6666666666667</ele><time>2026-04-12T12:04:42.012Z</time></trkpt><trkpt lat="43.8963182" lon="12.2461714"><ele>658.3333333333334</ele><time>2026-04-12T12:04:43.015Z</time></trkpt><trkpt lat="43.8961453" lon="12.2460593"><ele>660.0</ele><time>2026-04-12T12:04:44.014Z</time></trkpt><trkpt lat="43.8959795" lon="12.2459477"><ele>662.6666666666666</ele><time>2026-04-12T12:04:45.013Z</time></trkpt><trkpt lat="43.8958058" lon="12.2458415"><ele>665.3333333333333</ele><time>2026-04-12T12:04:46.014Z</time></trkpt><trkpt lat="43.8956208" lon="12.2457423"><ele>668.0</ele><time>2026-04-12T12:04:47.013Z</time></trkpt><trkpt lat="43.8954221" lon="12.2456487"><ele>666.6666666666666</ele><time>2026-04-12T12:04:48.014Z</time></trkpt><trkpt lat="43.8952138" lon="12.2455594"><ele>665.3333333333334</ele><time>2026-04-12T12:04:49.013Z</time></trkpt><trkpt lat="43.8949973" lon="12.2454741"><ele>664.0</ele><time>2026-04-12T12:04:50.014Z</time></trkpt><trkpt lat="43.8947781" lon="12.245391"><ele>670.3333333333334</ele><time>2026-04-12T12:04:51.014Z</time></trkpt><trkpt lat="43.8945665" lon="12.2453108"><ele>676.6666666666666</ele><time>2026-04-12T12:04:52.013Z</time></trkpt><trkpt lat="43.8943645" lon="12.2452505"><ele>683.0</ele><time>2026-04-12T12:04:53.015Z</time></trkpt><trkpt lat="43.894169" lon="12.2452328"><ele>685.0</ele><time>2026-04-12T12:04:54.012Z</time></trkpt><trkpt lat="43.8939723" lon="12.2452326"><ele>687.0</ele><time>2026-04-12T12:04:55.014Z</time></trkpt><trkpt lat="43.8937694" lon="12.2452598"><ele>689.0</ele><time>2026-04-12T12:04:56.013Z</time></trkpt><trkpt lat="43.8935688" lon="12.245297"><ele>691.0</ele><time>2026-04-12T12:04:57.013Z</time></trkpt><trkpt lat="43.8933782" lon="12.2453305"><ele>693.0</ele><time>2026-04-12T12:04:58.014Z</time></trkpt><trkpt lat="43.8931975" lon="12.2453448"><ele>695.0</ele><time>2026-04-12T12:04:59.012Z</time></trkpt><trkpt lat="43.8930186" lon="12.2453289"><ele>695.0</ele><time>2026-04-12T12:05:00.012Z</time></trkpt><trkpt lat="43.8928407" lon="12.2452816"><ele>695.0</ele><time>2026-04-12T12:05:01.013Z</time></trkpt><trkpt lat="43.8926688" lon="12.245251"><ele>695.0</ele><time>2026-04-12T12:05:02.013Z</time></trkpt><trkpt lat="43.8925011" lon="12.2452661"><ele>697.3333333333333</ele><time>2026-04-12T12:05:03.015Z</time></trkpt><trkpt lat="43.8923269" lon="12.2453258"><ele>699.6666666666666</ele><time>2026-04-12T12:05:04.014Z</time></trkpt><trkpt lat="43.8921449" lon="12.2453957"><ele>702.0</ele><time>2026-04-12T12:05:05.011Z</time></trkpt><trkpt lat="43.8919558" lon="12.2454499"><ele>702.0</ele><time>2026-04-12T12:05:06.014Z</time></trkpt><trkpt lat="43.8917735" lon="12.2454866"><ele>702.0</ele><time>2026-04-12T12:05:07.013Z</time></trkpt><trkpt lat="43.8916153" lon="12.2454914"><ele>702.0</ele><time>2026-04-12T12:05:08.012Z</time></trkpt><trkpt lat="43.8914714" lon="12.2454628"><ele>704.6666666666666</ele><time>2026-04-12T12:05:09.011Z</time></trkpt><trkpt lat="43.8913364" lon="12.2453832"><ele>707.3333333333333</ele><time>2026-04-12T12:05:10.013Z</time></trkpt><trkpt lat="43.8912044" lon="12.2452787"><ele>710.0</ele><time>2026-04-12T12:05:11.013Z</time></trkpt><trkpt lat="43.8910665" lon="12.2451887"><ele>710.75</ele><time>2026-04-12T12:05:12.012Z</time></trkpt><trkpt lat="43.8909228" lon="12.2451357"><ele>711.5</ele><time>2026-04-12T12:05:13.012Z</time></trkpt><trkpt lat="43.8907846" lon="12.245128"><ele>712.25</ele><time>2026-04-12T12:05:14.016Z</time></trkpt><trkpt lat="43.8906662" lon="12.2451722"><ele>713.0</ele><time>2026-04-12T12:05:15.012Z</time></trkpt><trkpt lat="43.8905593" lon="12.2452709"><ele>713.0</ele><time>2026-04-12T12:05:16.013Z</time></trkpt><trkpt lat="43.8904516" lon="12.2454213"><ele>713.0</ele><time>2026-04-12T12:05:17.012Z</time></trkpt><trkpt lat="43.8903366" lon="12.2455948"><ele>713.0</ele><time>2026-04-12T12:05:18.012Z</time></trkpt><trkpt lat="43.8902025" lon="12.2457683"><ele>713.6666666666666</ele><time>2026-04-12T12:05:19.012Z</time></trkpt><trkpt lat="43.890047" lon="12.2459316"><ele>714.3333333333334</ele><time>2026-04-12T12:05:20.011Z</time></trkpt><trkpt lat="43.8898715" lon="12.2460775"><ele>715.0</ele><time>2026-04-12T12:05:21.012Z</time></trkpt><trkpt lat="43.8896752" lon="12.2461968"><ele>715.0</ele><time>2026-04-12T12:05:22.012Z</time></trkpt><trkpt lat="43.8894861" lon="12.246319"><ele>715.0</ele><time>2026-04-12T12:05:23.014Z</time></trkpt><trkpt lat="43.8893041" lon="12.2464253"><ele>715.0</ele><time>2026-04-12T12:05:24.011Z</time></trkpt><trkpt lat="43.8891222" lon="12.2465222"><ele>716.6666666666667</ele><time>2026-04-12T12:05:25.012Z</time></trkpt><trkpt lat="43.8889301" lon="12.2466014"><ele>718.3333333333334</ele><time>2026-04-12T12:05:26.013Z</time></trkpt><trkpt lat="43.8887298" lon="12.2466534"><ele>720.0</ele><time>2026-04-12T12:05:27.013Z</time></trkpt><trkpt lat="43.8885268" lon="12.2467014"><ele>723.6666666666666</ele><time>2026-04-12T12:05:28.013Z</time></trkpt><trkpt lat="43.8883158" lon="12.2467367"><ele>727.3333333333333</ele><time>2026-04-12T12:05:29.013Z</time></trkpt><trkpt lat="43.8881007" lon="12.2467667"><ele>731.0</ele><time>2026-04-12T12:05:30.012Z</time></trkpt><trkpt lat="43.8878864" lon="12.2468102"><ele>731.0</ele><time>2026-04-12T12:05:31.013Z</time></trkpt><trkpt lat="43.8876595" lon="12.2468935"><ele>731.0</ele><time>2026-04-12T12:05:32.013Z</time></trkpt><trkpt lat="43.8874436" lon="12.2470155"><ele>728.5</ele><time>2026-04-12T12:05:33.011Z</time></trkpt><trkpt lat="43.8872295" lon="12.2471425"><ele>726.0</ele><time>2026-04-12T12:05:34.012Z</time></trkpt><trkpt lat="43.8870152" lon="12.2472624"><ele>725.6666666666666</ele><time>2026-04-12T12:05:35.011Z</time></trkpt><trkpt lat="43.8868026" lon="12.2473645"><ele>725.3333333333333</ele><time>2026-04-12T12:05:36.014Z</time></trkpt><trkpt lat="43.8865944" lon="12.2474429"><ele>725.0</ele><time>2026-04-12T12:05:37.011Z</time></trkpt><trkpt lat="43.8863904" lon="12.2474973"><ele>725.0</ele><time>2026-04-12T12:05:38.012Z</time></trkpt><trkpt lat="43.886196" lon="12.2475233"><ele>725.0</ele><time>2026-04-12T12:05:39.013Z</time></trkpt><trkpt lat="43.8860198" lon="12.2475587"><ele>725.0</ele><time>2026-04-12T12:05:40.012Z</time></trkpt><trkpt lat="43.8858663" lon="12.2476152"><ele>728.0</ele><time>2026-04-12T12:05:41.013Z</time></trkpt><trkpt lat="43.8857309" lon="12.2477269"><ele>731.0</ele><time>2026-04-12T12:05:42.013Z</time></trkpt><trkpt lat="43.8856047" lon="12.2478766"><ele>734.0</ele><time>2026-04-12T12:05:43.013Z</time></trkpt><trkpt lat="43.8854885" lon="12.248023"><ele>734.5</ele><time>2026-04-12T12:05:44.011Z</time></trkpt><trkpt lat="43.8853719" lon="12.2481329"><ele>735.0</ele><time>2026-04-12T12:05:45.012Z</time></trkpt><trkpt lat="43.8852458" lon="12.2482001"><ele>735.5</ele><time>2026-04-12T12:05:46.013Z</time></trkpt><trkpt lat="43.8851159" lon="12.2482152"><ele>736.0</ele><time>2026-04-12T12:05:47.012Z</time></trkpt><trkpt lat="43.8849881" lon="12.2481759"><ele>739.3333333333334</ele><time>2026-04-12T12:05:48.012Z</time></trkpt><trkpt lat="43.8848605" lon="12.2480863"><ele>742.6666666666666</ele><time>2026-04-12T12:05:49.013Z</time></trkpt><trkpt lat="43.8847405" lon="12.2479535"><ele>746.0</ele><time>2026-04-12T12:05:50.014Z</time></trkpt><trkpt lat="43.8846335" lon="12.2477884"><ele>746.0</ele><time>2026-04-12T12:05:51.015Z</time></trkpt><trkpt lat="43.8845395" lon="12.2476229"><ele>746.0</ele><time>2026-04-12T12:05:52.014Z</time></trkpt><trkpt lat="43.8844539" lon="12.2474782"><ele>746.0</ele><time>2026-04-12T12:05:53.012Z</time></trkpt><trkpt lat="43.8843788" lon="12.2473659"><ele>746.0</ele><time>2026-04-12T12:05:54.012Z</time></trkpt><trkpt lat="43.8843181" lon="12.2472851"><ele>747.0</ele><time>2026-04-12T12:05:55.015Z</time></trkpt><trkpt lat="43.8842227" lon="12.247217"><ele>748.0</ele><time>2026-04-12T12:05:57.013Z</time></trkpt><trkpt lat="43.8840933" lon="12.2472783"><ele>749.0</ele><time>2026-04-12T12:06:30.012Z</time></trkpt><trkpt lat="43.8840033" lon="12.24735"><ele>750.0</ele><time>2026-04-12T12:06:31.013Z</time></trkpt><trkpt lat="43.8838867" lon="12.2474717"><ele>751.3333333333334</ele><time>2026-04-12T12:06:32.013Z</time></trkpt><trkpt lat="43.8837333" lon="12.247595"><ele>752.6666666666667</ele><time>2026-04-12T12:06:33.013Z</time></trkpt><trkpt lat="43.8835933" lon="12.2476983"><ele>754.0</ele><time>2026-04-12T12:06:34.011Z</time></trkpt><trkpt lat="43.8834633" lon="12.2477783"><ele>756.4000000000001</ele><time>2026-04-12T12:06:35.012Z</time></trkpt><trkpt lat="43.883345" lon="12.2478367"><ele>758.8</ele><time>2026-04-12T12:06:36.016Z</time></trkpt><trkpt lat="43.883245" lon="12.247865"><ele>761.2</ele><time>2026-04-12T12:06:37.014Z</time></trkpt><trkpt lat="43.883155" lon="12.2478517"><ele>763.5999999999999</ele><time>2026-04-12T12:06:38.012Z</time></trkpt><trkpt lat="43.883065" lon="12.2478067"><ele>766.0</ele><time>2026-04-12T12:06:39.013Z</time></trkpt><trkpt lat="43.88298" lon="12.2476883"><ele>766.0</ele><time>2026-04-12T12:06:40.012Z</time></trkpt><trkpt lat="43.8829017" lon="12.2475383"><ele>766.0</ele><time>2026-04-12T12:06:41.011Z</time></trkpt><trkpt lat="43.882815" lon="12.2473517"><ele>766.0</ele><time>2026-04-12T12:06:42.013Z</time></trkpt><trkpt lat="43.8827217" lon="12.2471483"><ele>764.3333333333334</ele><time>2026-04-12T12:06:43.013Z</time></trkpt><trkpt lat="43.8826317" lon="12.2469583"><ele>762.6666666666666</ele><time>2026-04-12T12:06:44.013Z</time></trkpt><trkpt lat="43.8825283" lon="12.2467933"><ele>761.0</ele><time>2026-04-12T12:06:45.013Z</time></trkpt><trkpt lat="43.8824117" lon="12.2466617"><ele>761.0</ele><time>2026-04-12T12:06:46.012Z</time></trkpt><trkpt lat="43.88227" lon="12.246565"><ele>761.0</ele><time>2026-04-12T12:06:47.012Z</time></trkpt><trkpt lat="43.882095" lon="12.2465067"><ele>761.0</ele><time>2026-04-12T12:06:48.014Z</time></trkpt><trkpt lat="43.8819133" lon="12.2464767"><ele>759.0</ele><time>2026-04-12T12:06:49.013Z</time></trkpt><trkpt lat="43.8817267" lon="12.2464467"><ele>757.0</ele><time>2026-04-12T12:06:50.013Z</time></trkpt><trkpt lat="43.88154" lon="12.246405"><ele>755.0</ele><time>2026-04-12T12:06:51.011Z</time></trkpt><trkpt lat="43.8813517" lon="12.246335"><ele>755.0</ele><time>2026-04-12T12:06:52.013Z</time></trkpt><trkpt lat="43.8811583" lon="12.2462217"><ele>755.0</ele><time>2026-04-12T12:06:53.011Z</time></trkpt><trkpt lat="43.8809617" lon="12.246075"><ele>755.0</ele><time>2026-04-12T12:06:54.014Z</time></trkpt><trkpt lat="43.8807633" lon="12.24591"><ele>754.0</ele><time>2026-04-12T12:06:55.014Z</time></trkpt><trkpt lat="43.8805617" lon="12.24574"><ele>753.0</ele><time>2026-04-12T12:06:56.011Z</time></trkpt><trkpt lat="43.8803583" lon="12.2455667"><ele>752.5</ele><time>2026-04-12T12:06:57.014Z</time></trkpt><trkpt lat="43.8801633" lon="12.2453967"><ele>752.0</ele><time>2026-04-12T12:06:58.014Z</time></trkpt><trkpt lat="43.8799733" lon="12.24524"><ele>752.0</ele><time>2026-04-12T12:06:59.011Z</time></trkpt><trkpt lat="43.8797883" lon="12.2450883"><ele>752.0</ele><time>2026-04-12T12:07:00.013Z</time></trkpt><trkpt lat="43.8796067" lon="12.2449267"><ele>752.0</ele><time>2026-04-12T12:07:01.014Z</time></trkpt><trkpt lat="43.8794233" lon="12.2447617"><ele>751.0</ele><time>2026-04-12T12:07:02.013Z</time></trkpt><trkpt lat="43.87924" lon="12.2446017"><ele>750.0</ele><time>2026-04-12T12:07:03.012Z</time></trkpt><trkpt lat="43.879055" lon="12.2444533"><ele>749.0</ele><time>2026-04-12T12:07:04.013Z</time></trkpt><trkpt lat="43.8788817" lon="12.244305"><ele>749.0</ele><time>2026-04-12T12:07:05.011Z</time></trkpt><trkpt lat="43.8787217" lon="12.2441683"><ele>749.0</ele><time>2026-04-12T12:07:06.016Z</time></trkpt><trkpt lat="43.8785733" lon="12.2440383"><ele>749.0</ele><time>2026-04-12T12:07:07.013Z</time></trkpt><trkpt lat="43.878425" lon="12.2439233"><ele>747.3333333333333</ele><time>2026-04-12T12:07:08.012Z</time></trkpt><trkpt lat="43.878265" lon="12.2438433"><ele>745.6666666666666</ele><time>2026-04-12T12:07:09.012Z</time></trkpt><trkpt lat="43.8780983" lon="12.24379"><ele>744.0</ele><time>2026-04-12T12:07:10.012Z</time></trkpt><trkpt lat="43.8779183" lon="12.2437683"><ele>744.0</ele><time>2026-04-12T12:07:11.012Z</time></trkpt><trkpt lat="43.8777233" lon="12.2437817"><ele>744.0</ele><time>2026-04-12T12:07:12.011Z</time></trkpt><trkpt lat="43.8775233" lon="12.243805"><ele>744.0</ele><time>2026-04-12T12:07:13.012Z</time></trkpt><trkpt lat="43.8773167" lon="12.2438033"><ele>745.0</ele><time>2026-04-12T12:07:14.014Z</time></trkpt><trkpt lat="43.8771083" lon="12.243765"><ele>746.0</ele><time>2026-04-12T12:07:15.014Z</time></trkpt><trkpt lat="43.876915" lon="12.2437"><ele>747.0</ele><time>2026-04-12T12:07:16.011Z</time></trkpt><trkpt lat="43.8767433" lon="12.2435917"><ele>747.0</ele><time>2026-04-12T12:07:17.013Z</time></trkpt><trkpt lat="43.8765817" lon="12.24347"><ele>747.0</ele><time>2026-04-12T12:07:18.015Z</time></trkpt><trkpt lat="43.8764133" lon="12.2433433"><ele>747.0</ele><time>2026-04-12T12:07:19.014Z</time></trkpt><trkpt lat="43.87625" lon="12.2431917"><ele>748.0</ele><time>2026-04-12T12:07:20.013Z</time></trkpt><trkpt lat="43.8760983" lon="12.24301"><ele>749.0</ele><time>2026-04-12T12:07:21.013Z</time></trkpt><trkpt lat="43.8759617" lon="12.24282"><ele>750.0</ele><time>2026-04-12T12:07:22.015Z</time></trkpt><trkpt lat="43.8758383" lon="12.2426217"><ele>750.0</ele><time>2026-04-12T12:07:23.013Z</time></trkpt><trkpt lat="43.8757317" lon="12.2424067"><ele>750.0</ele><time>2026-04-12T12:07:24.012Z</time></trkpt><trkpt lat="43.8756367" lon="12.2421767"><ele>750.0</ele><time>2026-04-12T12:07:25.013Z</time></trkpt><trkpt lat="43.87555" lon="12.2419233"><ele>750.0</ele><time>2026-04-12T12:07:26.015Z</time></trkpt><trkpt lat="43.8754717" lon="12.24166"><ele>750.0</ele><time>2026-04-12T12:07:27.013Z</time></trkpt><trkpt lat="43.8753933" lon="12.2413833"><ele>750.0</ele><time>2026-04-12T12:07:28.011Z</time></trkpt><trkpt lat="43.8753217" lon="12.24111"><ele>749.6666666666666</ele><time>2026-04-12T12:07:29.012Z</time></trkpt><trkpt lat="43.8752417" lon="12.24085"><ele>749.3333333333333</ele><time>2026-04-12T12:07:30.012Z</time></trkpt><trkpt lat="43.8751717" lon="12.2405983"><ele>749.0</ele><time>2026-04-12T12:07:31.012Z</time></trkpt><trkpt lat="43.8750967" lon="12.240355"><ele>752.6666666666666</ele><time>2026-04-12T12:07:32.011Z</time></trkpt><trkpt lat="43.8750083" lon="12.2401167"><ele>756.3333333333334</ele><time>2026-04-12T12:07:33.017Z</time></trkpt><trkpt lat="43.8749017" lon="12.2398883"><ele>760.0</ele><time>2026-04-12T12:07:34.012Z</time></trkpt><trkpt lat="43.874785" lon="12.23966"><ele>760.0</ele><time>2026-04-12T12:07:35.011Z</time></trkpt><trkpt lat="43.8746683" lon="12.2394383"><ele>760.0</ele><time>2026-04-12T12:07:36.013Z</time></trkpt><trkpt lat="43.8745533" lon="12.2392233"><ele>760.0</ele><time>2026-04-12T12:07:37.012Z</time></trkpt><trkpt lat="43.8744367" lon="12.23902"><ele>762.6666666666667</ele><time>2026-04-12T12:07:38.012Z</time></trkpt><trkpt lat="43.87431" lon="12.2388283"><ele>765.3333333333334</ele><time>2026-04-12T12:07:39.011Z</time></trkpt><trkpt lat="43.8741717" lon="12.23864"><ele>768.0</ele><time>2026-04-12T12:07:40.014Z</time></trkpt><trkpt lat="43.87401" lon="12.2384767"><ele>768.0</ele><time>2026-04-12T12:07:41.013Z</time></trkpt><trkpt lat="43.87384" lon="12.2383117"><ele>768.0</ele><time>2026-04-12T12:07:42.012Z</time></trkpt><trkpt lat="43.8736642" lon="12.2381421"><ele>768.0</ele><time>2026-04-12T12:07:43.012Z</time></trkpt><trkpt lat="43.8734841" lon="12.2379633"><ele>770.3333333333333</ele><time>2026-04-12T12:07:44.013Z</time></trkpt><trkpt lat="43.8733092" lon="12.2377664"><ele>772.6666666666666</ele><time>2026-04-12T12:07:45.013Z</time></trkpt><trkpt lat="43.8731493" lon="12.237561"><ele>775.0</ele><time>2026-04-12T12:07:46.012Z</time></trkpt><trkpt lat="43.873001" lon="12.2373501"><ele>771.3333333333333</ele><time>2026-04-12T12:07:47.012Z</time></trkpt><trkpt lat="43.8728539" lon="12.2371442"><ele>767.6666666666666</ele><time>2026-04-12T12:07:48.013Z</time></trkpt><trkpt lat="43.8726958" lon="12.2369571"><ele>764.0</ele><time>2026-04-12T12:07:49.013Z</time></trkpt><trkpt lat="43.8725345" lon="12.2367949"><ele>771.3333333333333</ele><time>2026-04-12T12:07:50.013Z</time></trkpt><trkpt lat="43.8723775" lon="12.2366585"><ele>778.6666666666666</ele><time>2026-04-12T12:07:51.012Z</time></trkpt><trkpt lat="43.8722313" lon="12.2365332"><ele>786.0</ele><time>2026-04-12T12:07:52.012Z</time></trkpt><trkpt lat="43.8721062" lon="12.2364086"><ele>787.75</ele><time>2026-04-12T12:07:53.014Z</time></trkpt><trkpt lat="43.8720104" lon="12.2362862"><ele>789.5</ele><time>2026-04-12T12:07:54.013Z</time></trkpt><trkpt lat="43.8719521" lon="12.2361495"><ele>791.25</ele><time>2026-04-12T12:07:55.013Z</time></trkpt><trkpt lat="43.8719347" lon="12.2359834"><ele>793.0</ele><time>2026-04-12T12:07:56.013Z</time></trkpt><trkpt lat="43.8719278" lon="12.2357951"><ele>795.0</ele><time>2026-04-12T12:07:57.013Z</time></trkpt><trkpt lat="43.8719019" lon="12.2355944"><ele>797.0</ele><time>2026-04-12T12:07:58.012Z</time></trkpt><trkpt lat="43.8718399" lon="12.2353837"><ele>799.0</ele><time>2026-04-12T12:07:59.012Z</time></trkpt><trkpt lat="43.8717565" lon="12.2351608"><ele>799.0</ele><time>2026-04-12T12:08:00.015Z</time></trkpt><trkpt lat="43.8716707" lon="12.2349226"><ele>799.0</ele><time>2026-04-12T12:08:01.013Z</time></trkpt><trkpt lat="43.8715868" lon="12.2346704"><ele>799.0</ele><time>2026-04-12T12:08:02.013Z</time></trkpt><trkpt lat="43.871512" lon="12.2344133"><ele>799.0</ele><time>2026-04-12T12:08:03.013Z</time></trkpt><trkpt lat="43.8714497" lon="12.2341641"><ele>799.0</ele><time>2026-04-12T12:08:04.013Z</time></trkpt><trkpt lat="43.8714112" lon="12.2339243"><ele>799.0</ele><time>2026-04-12T12:08:05.013Z</time></trkpt><trkpt lat="43.8713661" lon="12.2336893"><ele>799.0</ele><time>2026-04-12T12:08:06.014Z</time></trkpt><trkpt lat="43.871298" lon="12.2334552"><ele>799.0</ele><time>2026-04-12T12:08:07.013Z</time></trkpt><trkpt lat="43.871199" lon="12.2332253"><ele>799.0</ele><time>2026-04-12T12:08:08.012Z</time></trkpt><trkpt lat="43.8710915" lon="12.2329939"><ele>797.6666666666666</ele><time>2026-04-12T12:08:09.016Z</time></trkpt><trkpt lat="43.8709849" lon="12.2327739"><ele>796.3333333333333</ele><time>2026-04-12T12:08:10.012Z</time></trkpt><trkpt lat="43.870898" lon="12.2325814"><ele>795.0</ele><time>2026-04-12T12:08:11.013Z</time></trkpt><trkpt lat="43.8708229" lon="12.232411"><ele>796.0</ele><time>2026-04-12T12:08:12.014Z</time></trkpt><trkpt lat="43.8707494" lon="12.2322563"><ele>797.0</ele><time>2026-04-12T12:08:13.013Z</time></trkpt><trkpt lat="43.8706786" lon="12.2321094"><ele>798.0</ele><time>2026-04-12T12:08:14.012Z</time></trkpt><trkpt lat="43.8706093" lon="12.2319702"><ele>799.0</ele><time>2026-04-12T12:08:15.013Z</time></trkpt><trkpt lat="43.8705531" lon="12.2318423"><ele>798.9999999999999</ele><time>2026-04-12T12:08:16.012Z</time></trkpt><trkpt lat="43.8704961" lon="12.2317289"><ele>799.0</ele><time>2026-04-12T12:08:17.011Z</time></trkpt><trkpt lat="43.8704411" lon="12.2316338"><ele>799.0</ele><time>2026-04-12T12:08:18.013Z</time></trkpt><trkpt lat="43.8703899" lon="12.23157"><ele>799.0</ele><time>2026-04-12T12:08:19.014Z</time></trkpt><trkpt lat="43.8702778" lon="12.2315294"><ele>798.9999999999999</ele><time>2026-04-12T12:08:21.013Z</time></trkpt><trkpt lat="43.8702047" lon="12.231537"><ele>799.0</ele><time>2026-04-12T12:08:22.013Z</time></trkpt><trkpt lat="43.8701165" lon="12.2315524"><ele>800.5</ele><time>2026-04-12T12:08:23.012Z</time></trkpt><trkpt lat="43.8700054" lon="12.2315604"><ele>802.0</ele><time>2026-04-12T12:08:24.011Z</time></trkpt><trkpt lat="43.8698772" lon="12.2315497"><ele>803.5</ele><time>2026-04-12T12:08:25.015Z</time></trkpt><trkpt lat="43.8697456" lon="12.2315031"><ele>805.0</ele><time>2026-04-12T12:08:26.013Z</time></trkpt><trkpt lat="43.8695997" lon="12.2314569"><ele>805.0</ele><time>2026-04-12T12:08:27.012Z</time></trkpt><trkpt lat="43.8694552" lon="12.2314015"><ele>805.0</ele><time>2026-04-12T12:08:28.013Z</time></trkpt><trkpt lat="43.8693186" lon="12.2313553"><ele>805.0</ele><time>2026-04-12T12:08:29.013Z</time></trkpt><trkpt lat="43.8691901" lon="12.2313108"><ele>805.0</ele><time>2026-04-12T12:08:30.014Z</time></trkpt><trkpt lat="43.8690685" lon="12.2312348"><ele>807.75</ele><time>2026-04-12T12:08:31.013Z</time></trkpt><trkpt lat="43.8689625" lon="12.2311165"><ele>810.5</ele><time>2026-04-12T12:08:32.012Z</time></trkpt><trkpt lat="43.8688715" lon="12.2309575"><ele>813.25</ele><time>2026-04-12T12:08:33.013Z</time></trkpt><trkpt lat="43.8687854" lon="12.2307817"><ele>816.0</ele><time>2026-04-12T12:08:34.014Z</time></trkpt><trkpt lat="43.8686954" lon="12.2305928"><ele>816.0</ele><time>2026-04-12T12:08:35.012Z</time></trkpt><trkpt lat="43.8686269" lon="12.2303838"><ele>816.0</ele><time>2026-04-12T12:08:36.014Z</time></trkpt><trkpt lat="43.868565" lon="12.2301558"><ele>816.0</ele><time>2026-04-12T12:08:37.012Z</time></trkpt><trkpt lat="43.8685027" lon="12.2299319"><ele>814.25</ele><time>2026-04-12T12:08:38.014Z</time></trkpt><trkpt lat="43.8684477" lon="12.2297345"><ele>812.5</ele><time>2026-04-12T12:08:39.011Z</time></trkpt><trkpt lat="43.8684" lon="12.2295635"><ele>810.75</ele><time>2026-04-12T12:08:40.012Z</time></trkpt><trkpt lat="43.8683477" lon="12.2294131"><ele>809.0</ele><time>2026-04-12T12:08:41.012Z</time></trkpt><trkpt lat="43.868293" lon="12.2292719"><ele>814.6</ele><time>2026-04-12T12:08:42.012Z</time></trkpt><trkpt lat="43.8682127" lon="12.2291583"><ele>820.2</ele><time>2026-04-12T12:08:43.013Z</time></trkpt><trkpt lat="43.8681225" lon="12.22908"><ele>825.8000000000001</ele><time>2026-04-12T12:08:44.013Z</time></trkpt><trkpt lat="43.8680287" lon="12.2290386"><ele>831.4000000000001</ele><time>2026-04-12T12:08:45.012Z</time></trkpt><trkpt lat="43.8679279" lon="12.2290422"><ele>837.0</ele><time>2026-04-12T12:08:46.012Z</time></trkpt><trkpt lat="43.8678334" lon="12.2290862"><ele>837.0</ele><time>2026-04-12T12:08:47.014Z</time></trkpt><trkpt lat="43.8677427" lon="12.2291629"><ele>837.0</ele><time>2026-04-12T12:08:48.014Z</time></trkpt><trkpt lat="43.8676686" lon="12.2292678"><ele>837.0</ele><time>2026-04-12T12:08:49.011Z</time></trkpt><trkpt lat="43.8676089" lon="12.2293922"><ele>837.0</ele><time>2026-04-12T12:08:50.013Z</time></trkpt><trkpt lat="43.8675718" lon="12.2295175"><ele>837.0</ele><time>2026-04-12T12:08:51.013Z</time></trkpt><trkpt lat="43.8675493" lon="12.2296214"><ele>837.2</ele><time>2026-04-12T12:08:52.011Z</time></trkpt><trkpt lat="43.867562" lon="12.2297904"><ele>837.4000000000001</ele><time>2026-04-12T12:08:54.012Z</time></trkpt><trkpt lat="43.867589" lon="12.2298808"><ele>837.5999999999999</ele><time>2026-04-12T12:08:55.015Z</time></trkpt><trkpt lat="43.867618" lon="12.229983"><ele>837.8</ele><time>2026-04-12T12:08:56.012Z</time></trkpt><trkpt lat="43.8676694" lon="12.2300965"><ele>838.0</ele><time>2026-04-12T12:08:57.012Z</time></trkpt><trkpt lat="43.8677242" lon="12.2302342"><ele>839.25</ele><time>2026-04-12T12:08:58.014Z</time></trkpt><trkpt lat="43.8677838" lon="12.2303771"><ele>840.5</ele><time>2026-04-12T12:08:59.014Z</time></trkpt><trkpt lat="43.8678521" lon="12.2305296"><ele>841.75</ele><time>2026-04-12T12:09:00.011Z</time></trkpt><trkpt lat="43.8679379" lon="12.2306746"><ele>843.0</ele><time>2026-04-12T12:09:01.015Z</time></trkpt><trkpt lat="43.8680303" lon="12.2308156"><ele>844.2</ele><time>2026-04-12T12:09:02.015Z</time></trkpt><trkpt lat="43.86813" lon="12.2309258"><ele>845.4</ele><time>2026-04-12T12:09:03.011Z</time></trkpt><trkpt lat="43.8682179" lon="12.2310331"><ele>846.6</ele><time>2026-04-12T12:09:04.014Z</time></trkpt><trkpt lat="43.8682925" lon="12.2311391"><ele>847.8000000000001</ele><time>2026-04-12T12:09:05.091Z</time></trkpt><trkpt lat="43.8683496" lon="12.2312403"><ele>849.0</ele><time>2026-04-12T12:09:06.012Z</time></trkpt><trkpt lat="43.8684101" lon="12.2313478"><ele>851.0</ele><time>2026-04-12T12:09:07.02Z</time></trkpt><trkpt lat="43.8684627" lon="12.2314374"><ele>853.0</ele><time>2026-04-12T12:09:08.012Z</time></trkpt><trkpt lat="43.8684896" lon="12.2315389"><ele>855.0000000000001</ele><time>2026-04-12T12:09:09.012Z</time></trkpt><trkpt lat="43.8685016" lon="12.2316427"><ele>857.0</ele><time>2026-04-12T12:09:10.011Z</time></trkpt><trkpt lat="43.8685489" lon="12.2317875"><ele>859.0</ele><time>2026-04-12T12:09:12.012Z</time></trkpt><trkpt lat="43.8684336" lon="12.2319368"><ele>859.0</ele><time>2026-04-12T12:09:14.013Z</time></trkpt><trkpt lat="43.8683305" lon="12.231992"><ele>859.0</ele><time>2026-04-12T12:09:15.014Z</time></trkpt><trkpt lat="43.8681851" lon="12.2320245"><ele>859.0</ele><time>2026-04-12T12:09:16.014Z</time></trkpt><trkpt lat="43.8680203" lon="12.2320232"><ele>859.0</ele><time>2026-04-12T12:09:17.012Z</time></trkpt><trkpt lat="43.8677915" lon="12.2319568"><ele>860.0</ele><time>2026-04-12T12:09:18.013Z</time></trkpt><trkpt lat="43.8676083" lon="12.231927"><ele>861.0</ele><time>2026-04-12T12:09:19.012Z</time></trkpt><trkpt lat="43.8674372" lon="12.2318905"><ele>862.0</ele><time>2026-04-12T12:09:20.012Z</time></trkpt><trkpt lat="43.8672763" lon="12.2318361"><ele>862.0</ele><time>2026-04-12T12:09:21.013Z</time></trkpt><trkpt lat="43.8671186" lon="12.2317817"><ele>862.0</ele><time>2026-04-12T12:09:22.012Z</time></trkpt><trkpt lat="43.8669657" lon="12.2317455"><ele>862.0</ele><time>2026-04-12T12:09:23.011Z</time></trkpt><trkpt lat="43.8668185" lon="12.231742"><ele>864.0</ele><time>2026-04-12T12:09:24.012Z</time></trkpt><trkpt lat="43.8666801" lon="12.2317385"><ele>866.0</ele><time>2026-04-12T12:09:25.012Z</time></trkpt><trkpt lat="43.8665466" lon="12.23173"><ele>868.0</ele><time>2026-04-12T12:09:26.013Z</time></trkpt><trkpt lat="43.8664237" lon="12.2316941"><ele>870.0</ele><time>2026-04-12T12:09:27.013Z</time></trkpt><trkpt lat="43.8663068" lon="12.2316184"><ele>870.0</ele><time>2026-04-12T12:09:28.013Z</time></trkpt><trkpt lat="43.8661946" lon="12.2315147"><ele>870.0</ele><time>2026-04-12T12:09:29.013Z</time></trkpt><trkpt lat="43.8660913" lon="12.2314107"><ele>870.0</ele><time>2026-04-12T12:09:30.013Z</time></trkpt><trkpt lat="43.8659927" lon="12.2313144"><ele>870.0</ele><time>2026-04-12T12:09:31.015Z</time></trkpt><trkpt lat="43.8658898" lon="12.231237"><ele>870.25</ele><time>2026-04-12T12:09:32.012Z</time></trkpt><trkpt lat="43.8657771" lon="12.231181"><ele>870.5</ele><time>2026-04-12T12:09:33.014Z</time></trkpt><trkpt lat="43.8656606" lon="12.2311464"><ele>870.75</ele><time>2026-04-12T12:09:34.013Z</time></trkpt><trkpt lat="43.8655329" lon="12.2311282"><ele>871.0</ele><time>2026-04-12T12:09:35.012Z</time></trkpt><trkpt lat="43.8653978" lon="12.231111"><ele>871.0</ele><time>2026-04-12T12:09:36.012Z</time></trkpt><trkpt lat="43.8652586" lon="12.2310926"><ele>871.0</ele><time>2026-04-12T12:09:37.016Z</time></trkpt><trkpt lat="43.8651116" lon="12.2310733"><ele>871.0</ele><time>2026-04-12T12:09:38.014Z</time></trkpt><trkpt lat="43.8649544" lon="12.2310532"><ele>871.0</ele><time>2026-04-12T12:09:39.013Z</time></trkpt><trkpt lat="43.8647986" lon="12.2310303"><ele>873.3333333333333</ele><time>2026-04-12T12:09:40.012Z</time></trkpt><trkpt lat="43.8646384" lon="12.2310081"><ele>875.6666666666667</ele><time>2026-04-12T12:09:41.013Z</time></trkpt><trkpt lat="43.8644827" lon="12.2309743"><ele>878.0</ele><time>2026-04-12T12:09:42.014Z</time></trkpt><trkpt lat="43.8643247" lon="12.2309404"><ele>878.6666666666667</ele><time>2026-04-12T12:09:43.012Z</time></trkpt><trkpt lat="43.8641674" lon="12.230915"><ele>879.3333333333333</ele><time>2026-04-12T12:09:44.011Z</time></trkpt><trkpt lat="43.8640089" lon="12.2308957"><ele>880.0</ele><time>2026-04-12T12:09:45.015Z</time></trkpt><trkpt lat="43.863848" lon="12.2308885"><ele>880.0</ele><time>2026-04-12T12:09:46.011Z</time></trkpt><trkpt lat="43.8636914" lon="12.2308787"><ele>880.0</ele><time>2026-04-12T12:09:47.014Z</time></trkpt><trkpt lat="43.8635438" lon="12.230861"><ele>880.0</ele><time>2026-04-12T12:09:48.016Z</time></trkpt><trkpt lat="43.8634004" lon="12.2308395"><ele>880.0</ele><time>2026-04-12T12:09:49.012Z</time></trkpt><trkpt lat="43.863261" lon="12.2308204"><ele>881.25</ele><time>2026-04-12T12:09:50.014Z</time></trkpt><trkpt lat="43.8631244" lon="12.2308074"><ele>882.5</ele><time>2026-04-12T12:09:51.013Z</time></trkpt><trkpt lat="43.8629846" lon="12.2307995"><ele>883.75</ele><time>2026-04-12T12:09:52.012Z</time></trkpt><trkpt lat="43.86285" lon="12.2307832"><ele>885.0</ele><time>2026-04-12T12:09:53.013Z</time></trkpt><trkpt lat="43.8627222" lon="12.2307511"><ele>886.0</ele><time>2026-04-12T12:09:54.013Z</time></trkpt><trkpt lat="43.8626083" lon="12.2307052"><ele>887.0</ele><time>2026-04-12T12:09:55.014Z</time></trkpt><trkpt lat="43.8625083" lon="12.2306471"><ele>888.0</ele><time>2026-04-12T12:09:56.013Z</time></trkpt><trkpt lat="43.8624303" lon="12.2305838"><ele>889.0</ele><time>2026-04-12T12:09:57.013Z</time></trkpt><trkpt lat="43.8623683" lon="12.2305233"><ele>890.0</ele><time>2026-04-12T12:09:58.011Z</time></trkpt><trkpt lat="43.862295" lon="12.23049"><ele>890.0000000000001</ele><time>2026-04-12T12:09:59.012Z</time></trkpt><trkpt lat="43.8622217" lon="12.23047"><ele>890.0</ele><time>2026-04-12T12:10:00.011Z</time></trkpt><trkpt lat="43.86216" lon="12.2304383"><ele>890.0</ele><time>2026-04-12T12:10:01.015Z</time></trkpt><trkpt lat="43.8621" lon="12.2304783"><ele>890.0</ele><time>2026-04-12T12:10:02.013Z</time></trkpt><trkpt lat="43.8620867" lon="12.2306633"><ele>890.0000000000001</ele><time>2026-04-12T12:10:03.013Z</time></trkpt><trkpt lat="43.8620767" lon="12.2307833"><ele>890.0</ele><time>2026-04-12T12:10:04.011Z</time></trkpt><trkpt lat="43.8620983" lon="12.2308983"><ele>890.6</ele><time>2026-04-12T12:10:05.013Z</time></trkpt><trkpt lat="43.8621217" lon="12.2309967"><ele>891.2</ele><time>2026-04-12T12:10:06.012Z</time></trkpt><trkpt lat="43.862175" lon="12.2310783"><ele>891.8</ele><time>2026-04-12T12:10:07.011Z</time></trkpt><trkpt lat="43.8622467" lon="12.23115"><ele>892.4</ele><time>2026-04-12T12:10:08.018Z</time></trkpt><trkpt lat="43.8623567" lon="12.2312067"><ele>893.0</ele><time>2026-04-12T12:10:09.013Z</time></trkpt><trkpt lat="43.8624683" lon="12.2312717"><ele>893.0</ele><time>2026-04-12T12:10:10.012Z</time></trkpt><trkpt lat="43.8626117" lon="12.2313533"><ele>893.0</ele><time>2026-04-12T12:10:11.013Z</time></trkpt><trkpt lat="43.8627617" lon="12.2314483"><ele>893.0</ele><time>2026-04-12T12:10:12.012Z</time></trkpt><trkpt lat="43.8629133" lon="12.2315433"><ele>894.0</ele><time>2026-04-12T12:10:13.014Z</time></trkpt><trkpt lat="43.86306" lon="12.2316517"><ele>895.0</ele><time>2026-04-12T12:10:14.012Z</time></trkpt><trkpt lat="43.8632083" lon="12.2317767"><ele>896.0</ele><time>2026-04-12T12:10:15.015Z</time></trkpt><trkpt lat="43.86334" lon="12.2319067"><ele>894.3333333333334</ele><time>2026-04-12T12:10:16.012Z</time></trkpt><trkpt lat="43.8634783" lon="12.2320417"><ele>892.6666666666667</ele><time>2026-04-12T12:10:17.012Z</time></trkpt><trkpt lat="43.863615" lon="12.2321767"><ele>891.0</ele><time>2026-04-12T12:10:18.013Z</time></trkpt><trkpt lat="43.8637533" lon="12.2323167"><ele>895.0</ele><time>2026-04-12T12:10:19.013Z</time></trkpt><trkpt lat="43.863885" lon="12.2324567"><ele>899.0</ele><time>2026-04-12T12:10:20.013Z</time></trkpt><trkpt lat="43.8640117" lon="12.2325867"><ele>903.0</ele><time>2026-04-12T12:10:21.013Z</time></trkpt><trkpt lat="43.86414" lon="12.2327283"><ele>903.0</ele><time>2026-04-12T12:10:22.011Z</time></trkpt><trkpt lat="43.8642733" lon="12.232875"><ele>903.0</ele><time>2026-04-12T12:10:23.013Z</time></trkpt><trkpt lat="43.864415" lon="12.2330267"><ele>903.0</ele><time>2026-04-12T12:10:24.013Z</time></trkpt><trkpt lat="43.8645617" lon="12.2331883"><ele>903.6666666666667</ele><time>2026-04-12T12:10:25.011Z</time></trkpt><trkpt lat="43.8647167" lon="12.23336"><ele>904.3333333333334</ele><time>2026-04-12T12:10:26.013Z</time></trkpt><trkpt lat="43.8648767" lon="12.23354"><ele>905.0</ele><time>2026-04-12T12:10:27.014Z</time></trkpt><trkpt lat="43.86503" lon="12.2337083"><ele>904.3333333333334</ele><time>2026-04-12T12:10:28.012Z</time></trkpt><trkpt lat="43.8651733" lon="12.2338567"><ele>903.6666666666667</ele><time>2026-04-12T12:10:29.012Z</time></trkpt><trkpt lat="43.8652967" lon="12.23398"><ele>903.0</ele><time>2026-04-12T12:10:30.014Z</time></trkpt><trkpt lat="43.8654083" lon="12.2340817"><ele>905.2</ele><time>2026-04-12T12:10:31.011Z</time></trkpt><trkpt lat="43.86551" lon="12.2341567"><ele>907.4</ele><time>2026-04-12T12:10:32.012Z</time></trkpt><trkpt lat="43.865595" lon="12.234225"><ele>909.6000000000001</ele><time>2026-04-12T12:10:33.012Z</time></trkpt><trkpt lat="43.8656683" lon="12.2342967"><ele>911.8000000000001</ele><time>2026-04-12T12:10:34.016Z</time></trkpt><trkpt lat="43.8657133" lon="12.2343833"><ele>914.0</ele><time>2026-04-12T12:10:35.013Z</time></trkpt><trkpt lat="43.86575" lon="12.2344717"><ele>914.0</ele><time>2026-04-12T12:10:36.013Z</time></trkpt><trkpt lat="43.8657483" lon="12.23462"><ele>914.0</ele><time>2026-04-12T12:10:38.012Z</time></trkpt><trkpt lat="43.8656567" lon="12.2346983"><ele>914.0</ele><time>2026-04-12T12:10:40.012Z</time></trkpt><trkpt lat="43.8655767" lon="12.2347017"><ele>914.0</ele><time>2026-04-12T12:10:41.013Z</time></trkpt><trkpt lat="43.8654233" lon="12.2346583"><ele>914.0</ele><time>2026-04-12T12:10:42.012Z</time></trkpt><trkpt lat="43.8652717" lon="12.2346317"><ele>914.0</ele><time>2026-04-12T12:10:43.012Z</time></trkpt><trkpt lat="43.8650867" lon="12.234605"><ele>914.0</ele><time>2026-04-12T12:10:44.013Z</time></trkpt><trkpt lat="43.8648917" lon="12.2345867"><ele>914.3333333333334</ele><time>2026-04-12T12:10:45.012Z</time></trkpt><trkpt lat="43.8647067" lon="12.234575"><ele>914.6666666666667</ele><time>2026-04-12T12:10:46.012Z</time></trkpt><trkpt lat="43.8645317" lon="12.234565"><ele>915.0</ele><time>2026-04-12T12:10:47.014Z</time></trkpt><trkpt lat="43.8643767" lon="12.2345583"><ele>915.0</ele><time>2026-04-12T12:10:48.014Z</time></trkpt><trkpt lat="43.864245" lon="12.2345417"><ele>915.0</ele><time>2026-04-12T12:10:49.016Z</time></trkpt><trkpt lat="43.8641167" lon="12.2345217"><ele>915.0</ele><time>2026-04-12T12:10:50.011Z</time></trkpt><trkpt lat="43.8639817" lon="12.23449"><ele>915.0</ele><time>2026-04-12T12:10:51.013Z</time></trkpt><trkpt lat="43.8638433" lon="12.2344417"><ele>915.0</ele><time>2026-04-12T12:10:52.012Z</time></trkpt><trkpt lat="43.8636917" lon="12.2343833"><ele>915.0</ele><time>2026-04-12T12:10:53.012Z</time></trkpt><trkpt lat="43.8635283" lon="12.2343133"><ele>915.0</ele><time>2026-04-12T12:10:54.014Z</time></trkpt><trkpt lat="43.86336" lon="12.234235"><ele>914.6666666666667</ele><time>2026-04-12T12:10:55.014Z</time></trkpt><trkpt lat="43.8631867" lon="12.2341567"><ele>914.3333333333334</ele><time>2026-04-12T12:10:56.013Z</time></trkpt><trkpt lat="43.8630133" lon="12.234075"><ele>914.0</ele><time>2026-04-12T12:10:57.013Z</time></trkpt><trkpt lat="43.862845" lon="12.2339917"><ele>914.3333333333334</ele><time>2026-04-12T12:10:58.012Z</time></trkpt><trkpt lat="43.8626933" lon="12.2339133"><ele>914.6666666666667</ele><time>2026-04-12T12:10:59.012Z</time></trkpt><trkpt lat="43.8625533" lon="12.2338417"><ele>915.0</ele><time>2026-04-12T12:11:00.012Z</time></trkpt><trkpt lat="43.8624217" lon="12.2337783"><ele>915.0</ele><time>2026-04-12T12:11:01.012Z</time></trkpt><trkpt lat="43.862305" lon="12.2337267"><ele>915.0</ele><time>2026-04-12T12:11:02.012Z</time></trkpt><trkpt lat="43.8621867" lon="12.2336783"><ele>915.0</ele><time>2026-04-12T12:11:03.013Z</time></trkpt><trkpt lat="43.86207" lon="12.233625"><ele>915.0</ele><time>2026-04-12T12:11:04.012Z</time></trkpt><trkpt lat="43.8619617" lon="12.2335583"><ele>915.0</ele><time>2026-04-12T12:11:05.012Z</time></trkpt><trkpt lat="43.8618667" lon="12.2334783"><ele>915.0</ele><time>2026-04-12T12:11:06.011Z</time></trkpt><trkpt lat="43.8617783" lon="12.2333767"><ele>915.0</ele><time>2026-04-12T12:11:07.012Z</time></trkpt><trkpt lat="43.8617017" lon="12.233255"><ele>915.0</ele><time>2026-04-12T12:11:08.014Z</time></trkpt><trkpt lat="43.861635" lon="12.2330983"><ele>914.5</ele><time>2026-04-12T12:11:09.013Z</time></trkpt><trkpt lat="43.8615717" lon="12.2329183"><ele>914.0</ele><time>2026-04-12T12:11:10.013Z</time></trkpt><trkpt lat="43.861505" lon="12.2327367"><ele>913.5</ele><time>2026-04-12T12:11:11.013Z</time></trkpt><trkpt lat="43.861435" lon="12.2325617"><ele>913.0</ele><time>2026-04-12T12:11:12.012Z</time></trkpt><trkpt lat="43.861375" lon="12.2324017"><ele>913.0</ele><time>2026-04-12T12:11:13.017Z</time></trkpt><trkpt lat="43.8613217" lon="12.23225"><ele>913.0</ele><time>2026-04-12T12:11:14.014Z</time></trkpt><trkpt lat="43.8612683" lon="12.2321017"><ele>913.0</ele><time>2026-04-12T12:11:15.013Z</time></trkpt><trkpt lat="43.8612167" lon="12.2319533"><ele>913.0</ele><time>2026-04-12T12:11:16.014Z</time></trkpt><trkpt lat="43.8611667" lon="12.2318083"><ele>913.0</ele><time>2026-04-12T12:11:17.013Z</time></trkpt><trkpt lat="43.8611133" lon="12.231675"><ele>913.0</ele><time>2026-04-12T12:11:18.014Z</time></trkpt><trkpt lat="43.861065" lon="12.231555"><ele>913.0</ele><time>2026-04-12T12:11:19.013Z</time></trkpt><trkpt lat="43.8610183" lon="12.2314417"><ele>913.0</ele><time>2026-04-12T12:11:20.013Z</time></trkpt><trkpt lat="43.8609733" lon="12.231345"><ele>913.0</ele><time>2026-04-12T12:11:21.013Z</time></trkpt><trkpt lat="43.860935" lon="12.231265"><ele>910.5999999999999</ele><time>2026-04-12T12:11:22.013Z</time></trkpt><trkpt lat="43.8608917" lon="12.2311367"><ele>908.1999999999999</ele><time>2026-04-12T12:11:24.014Z</time></trkpt><trkpt lat="43.86092" lon="12.23102"><ele>905.8</ele><time>2026-04-12T12:11:26.013Z</time></trkpt><trkpt lat="43.86099" lon="12.2309633"><ele>903.4</ele><time>2026-04-12T12:11:28.014Z</time></trkpt><trkpt lat="43.8611267" lon="12.2310417"><ele>901.0</ele><time>2026-04-12T12:11:30.012Z</time></trkpt><trkpt lat="43.8612083" lon="12.2311783"><ele>900.5999999999999</ele><time>2026-04-12T12:11:31.015Z</time></trkpt><trkpt lat="43.8612617" lon="12.2313317"><ele>900.1999999999999</ele><time>2026-04-12T12:11:32.013Z</time></trkpt><trkpt lat="43.8613" lon="12.2314467"><ele>899.8000000000001</ele><time>2026-04-12T12:11:33.013Z</time></trkpt><trkpt lat="43.8613417" lon="12.23156"><ele>899.4000000000001</ele><time>2026-04-12T12:11:34.017Z</time></trkpt><trkpt lat="43.8613767" lon="12.2316417"><ele>899.0</ele><time>2026-04-12T12:11:35.013Z</time></trkpt><trkpt lat="43.8614517" lon="12.2317583"><ele>899.0000000000001</ele><time>2026-04-12T12:11:37.016Z</time></trkpt><trkpt lat="43.8615333" lon="12.2317283"><ele>899.0</ele><time>2026-04-12T12:11:39.014Z</time></trkpt><trkpt lat="43.8615205" lon="12.2316197"><ele>899.0</ele><time>2026-04-12T12:11:41.013Z</time></trkpt><trkpt lat="43.8614332" lon="12.2314902"><ele>899.0</ele><time>2026-04-12T12:11:43.013Z</time></trkpt><trkpt lat="43.8613836" lon="12.2314114"><ele>899.0000000000001</ele><time>2026-04-12T12:11:44.014Z</time></trkpt><trkpt lat="43.8613488" lon="12.2313175"><ele>899.0</ele><time>2026-04-12T12:11:45.013Z</time></trkpt><trkpt lat="43.8613158" lon="12.2312193"><ele>899.0</ele><time>2026-04-12T12:11:46.013Z</time></trkpt><trkpt lat="43.8612758" lon="12.2311185"><ele>899.0000000000001</ele><time>2026-04-12T12:11:47.013Z</time></trkpt><trkpt lat="43.8612192" lon="12.2310261"><ele>899.0000000000001</ele><time>2026-04-12T12:11:48.014Z</time></trkpt><trkpt lat="43.8611399" lon="12.2309417"><ele>899.0</ele><time>2026-04-12T12:11:49.014Z</time></trkpt><trkpt lat="43.8610537" lon="12.2308651"><ele>899.0</ele><time>2026-04-12T12:11:50.012Z</time></trkpt><trkpt lat="43.8609735" lon="12.2307918"><ele>899.3333333333334</ele><time>2026-04-12T12:11:51.016Z</time></trkpt><trkpt lat="43.8609016" lon="12.2307214"><ele>899.6666666666667</ele><time>2026-04-12T12:11:52.012Z</time></trkpt><trkpt lat="43.8608435" lon="12.2306409"><ele>900.0</ele><time>2026-04-12T12:11:53.014Z</time></trkpt><trkpt lat="43.8607963" lon="12.2305574"><ele>900.3333333333333</ele><time>2026-04-12T12:11:54.012Z</time></trkpt><trkpt lat="43.860752" lon="12.2304763"><ele>900.6666666666666</ele><time>2026-04-12T12:11:55.014Z</time></trkpt><trkpt lat="43.8607058" lon="12.2304082"><ele>901.0</ele><time>2026-04-12T12:11:56.014Z</time></trkpt><trkpt lat="43.8605977" lon="12.2303487"><ele>900.9999999999999</ele><time>2026-04-12T12:11:58.016Z</time></trkpt><trkpt lat="43.8604877" lon="12.2303867"><ele>901.0</ele><time>2026-04-12T12:12:00.015Z</time></trkpt><trkpt lat="43.8604048" lon="12.2305092"><ele>901.0</ele><time>2026-04-12T12:12:02.013Z</time></trkpt><trkpt lat="43.8603791" lon="12.2305989"><ele>901.0</ele><time>2026-04-12T12:12:03.014Z</time></trkpt><trkpt lat="43.8603713" lon="12.2306966"><ele>900.9999999999999</ele><time>2026-04-12T12:12:04.011Z</time></trkpt><trkpt lat="43.8603825" lon="12.2307962"><ele>901.0</ele><time>2026-04-12T12:12:05.012Z</time></trkpt><trkpt lat="43.8604103" lon="12.2308922"><ele>900.9999999999999</ele><time>2026-04-12T12:12:06.014Z</time></trkpt><trkpt lat="43.8604497" lon="12.2309888"><ele>901.0</ele><time>2026-04-12T12:12:07.011Z</time></trkpt><trkpt lat="43.8604927" lon="12.231077"><ele>901.0</ele><time>2026-04-12T12:12:08.012Z</time></trkpt><trkpt lat="43.8605541" lon="12.2312123"><ele>901.0</ele><time>2026-04-12T12:12:10.013Z</time></trkpt><trkpt lat="43.8605503" lon="12.2313008"><ele>900.9999999999999</ele><time>2026-04-12T12:12:13.014Z</time></trkpt><trkpt lat="43.8604544" lon="12.2312301"><ele>901.0</ele><time>2026-04-12T12:12:16.012Z</time></trkpt><trkpt lat="43.8604077" lon="12.2311368"><ele>901.0</ele><time>2026-04-12T12:12:17.013Z</time></trkpt><trkpt lat="43.8603514" lon="12.2310144"><ele>901.0</ele><time>2026-04-12T12:12:18.013Z</time></trkpt><trkpt lat="43.8602879" lon="12.2308695"><ele>901.0</ele><time>2026-04-12T12:12:19.013Z</time></trkpt><trkpt lat="43.8602187" lon="12.230728"><ele>901.0</ele><time>2026-04-12T12:12:20.012Z</time></trkpt><trkpt lat="43.8601487" lon="12.2305972"><ele>895.5999999999999</ele><time>2026-04-12T12:12:21.014Z</time></trkpt><trkpt lat="43.8600858" lon="12.2304753"><ele>890.1999999999999</ele><time>2026-04-12T12:12:22.014Z</time></trkpt><trkpt lat="43.8600264" lon="12.2303666"><ele>884.8000000000001</ele><time>2026-04-12T12:12:23.013Z</time></trkpt><trkpt lat="43.8599611" lon="12.2302633"><ele>879.4000000000001</ele><time>2026-04-12T12:12:24.014Z</time></trkpt><trkpt lat="43.8598797" lon="12.2301689"><ele>874.0</ele><time>2026-04-12T12:12:25.014Z</time></trkpt><trkpt lat="43.8597684" lon="12.2300753"><ele>874.0</ele><time>2026-04-12T12:12:26.012Z</time></trkpt><trkpt lat="43.8596388" lon="12.2299837"><ele>874.0</ele><time>2026-04-12T12:12:27.012Z</time></trkpt><trkpt lat="43.8594932" lon="12.2298945"><ele>874.0</ele><time>2026-04-12T12:12:28.012Z</time></trkpt><trkpt lat="43.8593495" lon="12.2298083"><ele>870.75</ele><time>2026-04-12T12:12:29.012Z</time></trkpt><trkpt lat="43.8592126" lon="12.2297209"><ele>867.5</ele><time>2026-04-12T12:12:30.013Z</time></trkpt><trkpt lat="43.8590813" lon="12.2296278"><ele>864.25</ele><time>2026-04-12T12:12:31.012Z</time></trkpt><trkpt lat="43.8589594" lon="12.2295366"><ele>861.0</ele><time>2026-04-12T12:12:32.012Z</time></trkpt><trkpt lat="43.858848" lon="12.2294568"><ele>861.0</ele><time>2026-04-12T12:12:33.012Z</time></trkpt><trkpt lat="43.858746" lon="12.2293942"><ele>860.9999999999999</ele><time>2026-04-12T12:12:34.012Z</time></trkpt><trkpt lat="43.8586509" lon="12.2293584"><ele>860.9999999999999</ele><time>2026-04-12T12:12:35.012Z</time></trkpt><trkpt lat="43.8585558" lon="12.2293448"><ele>861.0</ele><time>2026-04-12T12:12:36.011Z</time></trkpt><trkpt lat="43.8584617" lon="12.2293498"><ele>861.0</ele><time>2026-04-12T12:12:37.012Z</time></trkpt><trkpt lat="43.8583703" lon="12.22937"><ele>864.5999999999999</ele><time>2026-04-12T12:12:38.013Z</time></trkpt><trkpt lat="43.8582845" lon="12.2293896"><ele>868.1999999999999</ele><time>2026-04-12T12:12:39.013Z</time></trkpt><trkpt lat="43.858203" lon="12.2294004"><ele>871.8000000000001</ele><time>2026-04-12T12:12:40.013Z</time></trkpt><trkpt lat="43.8581287" lon="12.2294006"><ele>875.4000000000001</ele><time>2026-04-12T12:12:41.011Z</time></trkpt><trkpt lat="43.8580101" lon="12.2293703"><ele>879.0</ele><time>2026-04-12T12:12:43.014Z</time></trkpt><trkpt lat="43.857929" lon="12.2293232"><ele>879.0</ele><time>2026-04-12T12:12:45.011Z</time></trkpt><trkpt lat="43.857845" lon="12.229315"><ele>879.0</ele><time>2026-04-12T12:12:47.011Z</time></trkpt><trkpt lat="43.8577583" lon="12.2294"><ele>879.0</ele><time>2026-04-12T12:12:49.011Z</time></trkpt><trkpt lat="43.8577467" lon="12.2295583"><ele>879.0</ele><time>2026-04-12T12:12:51.011Z</time></trkpt><trkpt lat="43.8577717" lon="12.22964"><ele>879.0</ele><time>2026-04-12T12:12:52.013Z</time></trkpt><trkpt lat="43.85783" lon="12.229705"><ele>879.0</ele><time>2026-04-12T12:12:53.011Z</time></trkpt><trkpt lat="43.857895" lon="12.229755"><ele>877.2</ele><time>2026-04-12T12:12:54.013Z</time></trkpt><trkpt lat="43.857995" lon="12.229835"><ele>875.4000000000001</ele><time>2026-04-12T12:12:56.013Z</time></trkpt><trkpt lat="43.8580483" lon="12.22994"><ele>873.6</ele><time>2026-04-12T12:12:58.013Z</time></trkpt><trkpt lat="43.858" lon="12.2300467"><ele>871.8</ele><time>2026-04-12T12:13:00.013Z</time></trkpt><trkpt lat="43.8579" lon="12.2300417"><ele>870.0</ele><time>2026-04-12T12:13:02.012Z</time></trkpt><trkpt lat="43.8578183" lon="12.2299683"><ele>870.0</ele><time>2026-04-12T12:13:03.014Z</time></trkpt><trkpt lat="43.8577333" lon="12.229895"><ele>870.0</ele><time>2026-04-12T12:13:04.012Z</time></trkpt><trkpt lat="43.8576342" lon="12.2298072"><ele>870.0</ele><time>2026-04-12T12:13:05.011Z</time></trkpt><trkpt lat="43.8575313" lon="12.2297036"><ele>870.0</ele><time>2026-04-12T12:13:06.012Z</time></trkpt><trkpt lat="43.8574331" lon="12.2296013"><ele>869.6</ele><time>2026-04-12T12:13:07.012Z</time></trkpt><trkpt lat="43.8573549" lon="12.229501"><ele>869.2</ele><time>2026-04-12T12:13:08.012Z</time></trkpt><trkpt lat="43.8572976" lon="12.2293903"><ele>868.8</ele><time>2026-04-12T12:13:09.014Z</time></trkpt><trkpt lat="43.8572477" lon="12.2292606"><ele>868.4</ele><time>2026-04-12T12:13:10.011Z</time></trkpt><trkpt lat="43.8572064" lon="12.2291133"><ele>868.0</ele><time>2026-04-12T12:13:11.012Z</time></trkpt><trkpt lat="43.8571683" lon="12.2289579"><ele>866.5999999999999</ele><time>2026-04-12T12:13:12.012Z</time></trkpt><trkpt lat="43.8571241" lon="12.2288046"><ele>865.1999999999999</ele><time>2026-04-12T12:13:13.012Z</time></trkpt><trkpt lat="43.8570818" lon="12.228664"><ele>863.8</ele><time>2026-04-12T12:13:14.011Z</time></trkpt><trkpt lat="43.8570445" lon="12.2285296"><ele>862.4</ele><time>2026-04-12T12:13:15.014Z</time></trkpt><trkpt lat="43.8570145" lon="12.2283981"><ele>861.0</ele><time>2026-04-12T12:13:16.014Z</time></trkpt><trkpt lat="43.8569992" lon="12.2282706"><ele>859.0</ele><time>2026-04-12T12:13:17.011Z</time></trkpt><trkpt lat="43.8569975" lon="12.228141"><ele>856.9999999999999</ele><time>2026-04-12T12:13:18.012Z</time></trkpt><trkpt lat="43.8570147" lon="12.2280117"><ele>855.0</ele><time>2026-04-12T12:13:19.013Z</time></trkpt><trkpt lat="43.8570423" lon="12.2278797"><ele>853.0</ele><time>2026-04-12T12:13:20.012Z</time></trkpt><trkpt lat="43.8570618" lon="12.2277558"><ele>851.0</ele><time>2026-04-12T12:13:21.012Z</time></trkpt><trkpt lat="43.8570716" lon="12.2276301"><ele>851.0000000000001</ele><time>2026-04-12T12:13:22.013Z</time></trkpt><trkpt lat="43.8570544" lon="12.2275137"><ele>851.0</ele><time>2026-04-12T12:13:23.013Z</time></trkpt><trkpt lat="43.8570259" lon="12.2274079"><ele>851.0</ele><time>2026-04-12T12:13:24.012Z</time></trkpt><trkpt lat="43.8569926" lon="12.2273097"><ele>851.0</ele><time>2026-04-12T12:13:25.012Z</time></trkpt><trkpt lat="43.8569573" lon="12.2272266"><ele>851.0000000000001</ele><time>2026-04-12T12:13:26.015Z</time></trkpt><trkpt lat="43.8568807" lon="12.2271091"><ele>851.0</ele><time>2026-04-12T12:13:28.012Z</time></trkpt><trkpt lat="43.8567847" lon="12.2270531"><ele>849.8</ele><time>2026-04-12T12:13:30.012Z</time></trkpt><trkpt lat="43.8566983" lon="12.2271417"><ele>848.5999999999999</ele><time>2026-04-12T12:14:27.012Z</time></trkpt><trkpt lat="43.8566067" lon="12.2271517"><ele>847.4</ele><time>2026-04-12T12:14:29.015Z</time></trkpt><trkpt lat="43.8565117" lon="12.2271833"><ele>846.2</ele><time>2026-04-12T12:14:30.012Z</time></trkpt><trkpt lat="43.856445" lon="12.2272533"><ele>845.0</ele><time>2026-04-12T12:14:31.013Z</time></trkpt><trkpt lat="43.85639" lon="12.2273433"><ele>845.0</ele><time>2026-04-12T12:14:32.014Z</time></trkpt><trkpt lat="43.8563417" lon="12.2274467"><ele>845.0</ele><time>2026-04-12T12:14:33.013Z</time></trkpt><trkpt lat="43.8562983" lon="12.2275767"><ele>845.0</ele><time>2026-04-12T12:14:34.011Z</time></trkpt><trkpt lat="43.8562367" lon="12.2277017"><ele>845.0</ele><time>2026-04-12T12:14:35.012Z</time></trkpt><trkpt lat="43.8561567" lon="12.227815"><ele>845.0</ele><time>2026-04-12T12:14:36.012Z</time></trkpt><trkpt lat="43.8560817" lon="12.2279383"><ele>845.0</ele><time>2026-04-12T12:14:37.011Z</time></trkpt><trkpt lat="43.8559833" lon="12.2280533"><ele>845.0</ele><time>2026-04-12T12:14:38.013Z</time></trkpt><trkpt lat="43.8558533" lon="12.2281417"><ele>845.0</ele><time>2026-04-12T12:14:39.012Z</time></trkpt><trkpt lat="43.85569" lon="12.2281817"><ele>845.0</ele><time>2026-04-12T12:14:40.012Z</time></trkpt><trkpt lat="43.85554" lon="12.2281967"><ele>840.0</ele><time>2026-04-12T12:14:41.013Z</time></trkpt><trkpt lat="43.8554067" lon="12.2282183"><ele>835.0</ele><time>2026-04-12T12:14:42.011Z</time></trkpt><trkpt lat="43.8552817" lon="12.228245"><ele>830.0</ele><time>2026-04-12T12:14:43.013Z</time></trkpt><trkpt lat="43.8551883" lon="12.2283033"><ele>825.0</ele><time>2026-04-12T12:14:44.012Z</time></trkpt><trkpt lat="43.85511" lon="12.22842"><ele>822.75</ele><time>2026-04-12T12:14:45.013Z</time></trkpt><trkpt lat="43.8550217" lon="12.2285283"><ele>820.5</ele><time>2026-04-12T12:14:46.013Z</time></trkpt><trkpt lat="43.85491" lon="12.2285733"><ele>818.25</ele><time>2026-04-12T12:14:47.013Z</time></trkpt><trkpt lat="43.85477" lon="12.22859"><ele>816.0</ele><time>2026-04-12T12:14:48.014Z</time></trkpt><trkpt lat="43.8546167" lon="12.2286217"><ele>816.0</ele><time>2026-04-12T12:14:49.012Z</time></trkpt><trkpt lat="43.85446" lon="12.2286733"><ele>816.0</ele><time>2026-04-12T12:14:50.012Z</time></trkpt><trkpt lat="43.8543133" lon="12.2287283"><ele>816.0</ele><time>2026-04-12T12:14:51.013Z</time></trkpt><trkpt lat="43.8541867" lon="12.2287767"><ele>816.0</ele><time>2026-04-12T12:14:52.012Z</time></trkpt><trkpt lat="43.85407" lon="12.2287917"><ele>815.5</ele><time>2026-04-12T12:14:53.012Z</time></trkpt><trkpt lat="43.8539517" lon="12.2287683"><ele>815.0</ele><time>2026-04-12T12:14:54.014Z</time></trkpt><trkpt lat="43.8538367" lon="12.2286817"><ele>814.5</ele><time>2026-04-12T12:14:55.015Z</time></trkpt><trkpt lat="43.853705" lon="12.228555"><ele>814.0</ele><time>2026-04-12T12:14:56.012Z</time></trkpt><trkpt lat="43.8535583" lon="12.2284317"><ele>812.6666666666666</ele><time>2026-04-12T12:14:57.014Z</time></trkpt><trkpt lat="43.8533967" lon="12.22832"><ele>811.3333333333333</ele><time>2026-04-12T12:14:58.014Z</time></trkpt><trkpt lat="43.8532483" lon="12.2281917"><ele>810.0</ele><time>2026-04-12T12:14:59.012Z</time></trkpt><trkpt lat="43.85312" lon="12.2280633"><ele>810.0</ele><time>2026-04-12T12:15:00.014Z</time></trkpt><trkpt lat="43.8529967" lon="12.2279567"><ele>810.0</ele><time>2026-04-12T12:15:01.012Z</time></trkpt><trkpt lat="43.85287" lon="12.2279067"><ele>810.0</ele><time>2026-04-12T12:15:02.014Z</time></trkpt><trkpt lat="43.852745" lon="12.2278867"><ele>810.0</ele><time>2026-04-12T12:15:03.012Z</time></trkpt><trkpt lat="43.85265" lon="12.227825"><ele>811.1428571428571</ele><time>2026-04-12T12:15:04.012Z</time></trkpt><trkpt lat="43.8525683" lon="12.22777"><ele>812.2857142857142</ele><time>2026-04-12T12:15:05.011Z</time></trkpt><trkpt lat="43.852525" lon="12.2276983"><ele>813.4285714285713</ele><time>2026-04-12T12:15:06.013Z</time></trkpt><trkpt lat="43.8525183" lon="12.2276017"><ele>814.5714285714286</ele><time>2026-04-12T12:15:07.013Z</time></trkpt><trkpt lat="43.8525417" lon="12.2275133"><ele>815.7142857142858</ele><time>2026-04-12T12:15:08.013Z</time></trkpt><trkpt lat="43.8525633" lon="12.22742"><ele>816.8571428571428</ele><time>2026-04-12T12:15:09.013Z</time></trkpt><trkpt lat="43.8525933" lon="12.2273133"><ele>818.0</ele><time>2026-04-12T12:15:10.011Z</time></trkpt><trkpt lat="43.8526367" lon="12.2271767"><ele>818.0</ele><time>2026-04-12T12:15:11.012Z</time></trkpt><trkpt lat="43.8526817" lon="12.2270033"><ele>818.0</ele><time>2026-04-12T12:15:12.014Z</time></trkpt><trkpt lat="43.8526767" lon="12.2268233"><ele>818.0</ele><time>2026-04-12T12:15:13.013Z</time></trkpt><trkpt lat="43.8526083" lon="12.226625"><ele>818.0</ele><time>2026-04-12T12:15:14.014Z</time></trkpt><trkpt lat="43.85254" lon="12.2264433"><ele>811.8</ele><time>2026-04-12T12:15:15.013Z</time></trkpt><trkpt lat="43.8525067" lon="12.22628"><ele>805.5999999999999</ele><time>2026-04-12T12:15:16.013Z</time></trkpt><trkpt lat="43.8524517" lon="12.2261717"><ele>799.4000000000001</ele><time>2026-04-12T12:15:17.013Z</time></trkpt><trkpt lat="43.8523983" lon="12.2260883"><ele>793.2</ele><time>2026-04-12T12:15:18.012Z</time></trkpt><trkpt lat="43.8523083" lon="12.22602"><ele>787.0</ele><time>2026-04-12T12:15:20.012Z</time></trkpt><trkpt lat="43.8522024" lon="12.2261018"><ele>787.0</ele><time>2026-04-12T12:15:22.013Z</time></trkpt><trkpt lat="43.8521383" lon="12.2261972"><ele>787.0</ele><time>2026-04-12T12:15:23.014Z</time></trkpt><trkpt lat="43.8520529" lon="12.226332"><ele>787.0</ele><time>2026-04-12T12:15:24.013Z</time></trkpt><trkpt lat="43.8519722" lon="12.2264547"><ele>787.0</ele><time>2026-04-12T12:15:25.014Z</time></trkpt><trkpt lat="43.8519126" lon="12.2266062"><ele>785.75</ele><time>2026-04-12T12:15:26.014Z</time></trkpt><trkpt lat="43.8518656" lon="12.2267837"><ele>784.5</ele><time>2026-04-12T12:15:27.017Z</time></trkpt><trkpt lat="43.8518192" lon="12.2269716"><ele>783.25</ele><time>2026-04-12T12:15:28.013Z</time></trkpt><trkpt lat="43.8517575" lon="12.2271545"><ele>782.0</ele><time>2026-04-12T12:15:29.013Z</time></trkpt><trkpt lat="43.8516918" lon="12.2273167"><ele>777.6</ele><time>2026-04-12T12:15:30.014Z</time></trkpt><trkpt lat="43.8516529" lon="12.2274535"><ele>773.2</ele><time>2026-04-12T12:15:31.016Z</time></trkpt><trkpt lat="43.8516447" lon="12.2275798"><ele>768.8</ele><time>2026-04-12T12:15:32.013Z</time></trkpt><trkpt lat="43.8516501" lon="12.2276994"><ele>764.4</ele><time>2026-04-12T12:15:33.015Z</time></trkpt><trkpt lat="43.8516614" lon="12.2278181"><ele>760.0</ele><time>2026-04-12T12:15:34.014Z</time></trkpt><trkpt lat="43.8516925" lon="12.2279215"><ele>760.0</ele><time>2026-04-12T12:15:35.012Z</time></trkpt><trkpt lat="43.8517328" lon="12.2280202"><ele>760.0</ele><time>2026-04-12T12:15:36.015Z</time></trkpt><trkpt lat="43.8518019" lon="12.2280961"><ele>760.0</ele><time>2026-04-12T12:15:37.012Z</time></trkpt><trkpt lat="43.8518887" lon="12.2281689"><ele>760.0</ele><time>2026-04-12T12:15:38.013Z</time></trkpt><trkpt lat="43.8519996" lon="12.2282555"><ele>760.0</ele><time>2026-04-12T12:15:39.014Z</time></trkpt><trkpt lat="43.852088" lon="12.2283711"><ele>762.8</ele><time>2026-04-12T12:15:40.014Z</time></trkpt><trkpt lat="43.8521493" lon="12.2285085"><ele>765.6</ele><time>2026-04-12T12:15:41.013Z</time></trkpt><trkpt lat="43.8522197" lon="12.2286274"><ele>768.4000000000001</ele><time>2026-04-12T12:15:42.012Z</time></trkpt><trkpt lat="43.8522976" lon="12.2287311"><ele>771.2</ele><time>2026-04-12T12:15:43.013Z</time></trkpt><trkpt lat="43.8523907" lon="12.228814"><ele>774.0</ele><time>2026-04-12T12:15:44.013Z</time></trkpt><trkpt lat="43.8524667" lon="12.228904"><ele>774.3333333333334</ele><time>2026-04-12T12:15:45.015Z</time></trkpt><trkpt lat="43.8525242" lon="12.2289965"><ele>774.6666666666667</ele><time>2026-04-12T12:15:46.013Z</time></trkpt><trkpt lat="43.8525726" lon="12.2290776"><ele>775.0</ele><time>2026-04-12T12:15:47.014Z</time></trkpt><trkpt lat="43.8526117" lon="12.2291501"><ele>775.3333333333334</ele><time>2026-04-12T12:15:48.013Z</time></trkpt><trkpt lat="43.85266" lon="12.2292544"><ele>775.6666666666667</ele><time>2026-04-12T12:15:50.012Z</time></trkpt><trkpt lat="43.8527266" lon="12.2293713"><ele>776.0</ele><time>2026-04-12T12:15:53.013Z</time></trkpt><trkpt lat="43.8527988" lon="12.2295373"><ele>776.0000000000001</ele><time>2026-04-12T12:15:55.014Z</time></trkpt><trkpt lat="43.8528355" lon="12.229632"><ele>776.0</ele><time>2026-04-12T12:15:56.014Z</time></trkpt><trkpt lat="43.8528692" lon="12.2297123"><ele>776.0</ele><time>2026-04-12T12:15:57.016Z</time></trkpt><trkpt lat="43.8529102" lon="12.2298369"><ele>776.0</ele><time>2026-04-12T12:15:59.012Z</time></trkpt><trkpt lat="43.8529502" lon="12.2299376"><ele>776.0000000000001</ele><time>2026-04-12T12:16:01.013Z</time></trkpt><trkpt lat="43.8529846" lon="12.2300433"><ele>776.0</ele><time>2026-04-12T12:16:03.013Z</time></trkpt><trkpt lat="43.8530284" lon="12.2301575"><ele>772.0</ele><time>2026-04-12T12:16:05.014Z</time></trkpt><trkpt lat="43.8530822" lon="12.2302785"><ele>768.0</ele><time>2026-04-12T12:16:07.013Z</time></trkpt><trkpt lat="43.8531443" lon="12.2304184"><ele>764.0</ele><time>2026-04-12T12:16:09.015Z</time></trkpt><trkpt lat="43.8531824" lon="12.2304992"><ele>760.0</ele><time>2026-04-12T12:16:10.013Z</time></trkpt><trkpt lat="43.8532218" lon="12.2305928"><ele>756.0</ele><time>2026-04-12T12:16:11.013Z</time></trkpt><trkpt lat="43.8532664" lon="12.230691"><ele>756.6666666666666</ele><time>2026-04-12T12:16:12.013Z</time></trkpt><trkpt lat="43.8533098" lon="12.2307828"><ele>757.3333333333334</ele><time>2026-04-12T12:16:13.013Z</time></trkpt><trkpt lat="43.853353" lon="12.2308838"><ele>758.0</ele><time>2026-04-12T12:16:14.013Z</time></trkpt><trkpt lat="43.8533965" lon="12.2309856"><ele>758.6666666666667</ele><time>2026-04-12T12:16:15.013Z</time></trkpt><trkpt lat="43.8534319" lon="12.2310836"><ele>759.3333333333334</ele><time>2026-04-12T12:16:16.015Z</time></trkpt><trkpt lat="43.8534675" lon="12.2311714"><ele>760.0</ele><time>2026-04-12T12:16:17.013Z</time></trkpt><trkpt lat="43.8535242" lon="12.2312983"><ele>760.0</ele><time>2026-04-12T12:16:19.015Z</time></trkpt><trkpt lat="43.8535623" lon="12.231384"><ele>760.0</ele><time>2026-04-12T12:16:21.015Z</time></trkpt><trkpt lat="43.8535986" lon="12.231458"><ele>760.0</ele><time>2026-04-12T12:16:23.013Z</time></trkpt><trkpt lat="43.853615" lon="12.2315433"><ele>760.0</ele><time>2026-04-12T12:16:31.014Z</time></trkpt><trkpt lat="43.85365" lon="12.2316233"><ele>760.0</ele><time>2026-04-12T12:16:33.018Z</time></trkpt><trkpt lat="43.853655" lon="12.2314783"><ele>760.0</ele><time>2026-04-12T12:16:43.013Z</time></trkpt><trkpt lat="43.85359" lon="12.23139"><ele>760.0</ele><time>2026-04-12T12:16:44.014Z</time></trkpt><trkpt lat="43.8535083" lon="12.23127"><ele>760.0</ele><time>2026-04-12T12:16:45.016Z</time></trkpt><trkpt lat="43.8534167" lon="12.2311167"><ele>760.0</ele><time>2026-04-12T12:16:46.013Z</time></trkpt><trkpt lat="43.8533383" lon="12.2309283"><ele>760.0</ele><time>2026-04-12T12:16:47.016Z</time></trkpt><trkpt lat="43.853255" lon="12.2307467"><ele>759.0</ele><time>2026-04-12T12:16:48.013Z</time></trkpt><trkpt lat="43.8531833" lon="12.2305767"><ele>758.0</ele><time>2026-04-12T12:16:49.015Z</time></trkpt><trkpt lat="43.8531183" lon="12.2304217"><ele>757.0</ele><time>2026-04-12T12:16:50.014Z</time></trkpt><trkpt lat="43.8530567" lon="12.230265"><ele>756.0</ele><time>2026-04-12T12:16:51.013Z</time></trkpt><trkpt lat="43.8529983" lon="12.2301033"><ele>756.0</ele><time>2026-04-12T12:16:52.014Z</time></trkpt><trkpt lat="43.8529417" lon="12.22996"><ele>756.0</ele><time>2026-04-12T12:16:53.014Z</time></trkpt><trkpt lat="43.8528833" lon="12.229825"><ele>756.0</ele><time>2026-04-12T12:16:54.014Z</time></trkpt><trkpt lat="43.852835" lon="12.2296967"><ele>756.0</ele><time>2026-04-12T12:16:55.012Z</time></trkpt><trkpt lat="43.8527917" lon="12.229575"><ele>756.0</ele><time>2026-04-12T12:16:56.012Z</time></trkpt><trkpt lat="43.8527517" lon="12.2294517"><ele>755.0</ele><time>2026-04-12T12:16:57.014Z</time></trkpt><trkpt lat="43.8526983" lon="12.229325"><ele>754.0</ele><time>2026-04-12T12:16:58.013Z</time></trkpt><trkpt lat="43.8526317" lon="12.2291917"><ele>753.0</ele><time>2026-04-12T12:16:59.014Z</time></trkpt><trkpt lat="43.8525617" lon="12.2290617"><ele>752.0</ele><time>2026-04-12T12:17:00.012Z</time></trkpt><trkpt lat="43.8525017" lon="12.2289433"><ele>751.0</ele><time>2026-04-12T12:17:01.013Z</time></trkpt><trkpt lat="43.8524417" lon="12.2288433"><ele>755.5999999999999</ele><time>2026-04-12T12:17:02.014Z</time></trkpt><trkpt lat="43.8523817" lon="12.2287483"><ele>760.2</ele><time>2026-04-12T12:17:03.014Z</time></trkpt><trkpt lat="43.8523133" lon="12.228655"><ele>764.8</ele><time>2026-04-12T12:17:04.014Z</time></trkpt><trkpt lat="43.8522567" lon="12.2285533"><ele>769.4000000000001</ele><time>2026-04-12T12:17:05.012Z</time></trkpt><trkpt lat="43.85222" lon="12.2284383"><ele>774.0</ele><time>2026-04-12T12:17:06.013Z</time></trkpt><trkpt lat="43.8522067" lon="12.2282967"><ele>774.0</ele><time>2026-04-12T12:17:07.013Z</time></trkpt><trkpt lat="43.8521517" lon="12.2281783"><ele>774.0</ele><time>2026-04-12T12:17:08.012Z</time></trkpt><trkpt lat="43.852075" lon="12.2280667"><ele>774.0</ele><time>2026-04-12T12:17:09.012Z</time></trkpt><trkpt lat="43.8519783" lon="12.227965"><ele>774.0</ele><time>2026-04-12T12:17:10.013Z</time></trkpt><trkpt lat="43.8518683" lon="12.2278917"><ele>771.2</ele><time>2026-04-12T12:17:11.015Z</time></trkpt><trkpt lat="43.8517667" lon="12.227815"><ele>768.4000000000001</ele><time>2026-04-12T12:17:12.013Z</time></trkpt><trkpt lat="43.8517017" lon="12.227705"><ele>765.6</ele><time>2026-04-12T12:17:13.013Z</time></trkpt><trkpt lat="43.85166" lon="12.2275967"><ele>762.8</ele><time>2026-04-12T12:17:14.013Z</time></trkpt><trkpt lat="43.8516233" lon="12.227505"><ele>760.0</ele><time>2026-04-12T12:17:15.015Z</time></trkpt><trkpt lat="43.8516133" lon="12.2273833"><ele>760.0</ele><time>2026-04-12T12:17:16.012Z</time></trkpt><trkpt lat="43.8516433" lon="12.2272633"><ele>760.0</ele><time>2026-04-12T12:17:17.012Z</time></trkpt><trkpt lat="43.8517183" lon="12.2271267"><ele>760.0</ele><time>2026-04-12T12:17:18.013Z</time></trkpt><trkpt lat="43.8517467" lon="12.2269983"><ele>760.0</ele><time>2026-04-12T12:17:19.013Z</time></trkpt><trkpt lat="43.85176" lon="12.2268817"><ele>760.0</ele><time>2026-04-12T12:17:20.013Z</time></trkpt><trkpt lat="43.8517917" lon="12.2267733"><ele>763.6666666666667</ele><time>2026-04-12T12:17:21.013Z</time></trkpt><trkpt lat="43.8518217" lon="12.2266617"><ele>767.3333333333334</ele><time>2026-04-12T12:17:22.012Z</time></trkpt><trkpt lat="43.85183" lon="12.22655"><ele>771.0</ele><time>2026-04-12T12:17:23.012Z</time></trkpt><trkpt lat="43.8518333" lon="12.2264467"><ele>774.6666666666667</ele><time>2026-04-12T12:17:24.014Z</time></trkpt><trkpt lat="43.851855" lon="12.22634"><ele>778.3333333333334</ele><time>2026-04-12T12:17:25.013Z</time></trkpt><trkpt lat="43.8519083" lon="12.2262417"><ele>782.0</ele><time>2026-04-12T12:17:26.013Z</time></trkpt><trkpt lat="43.8519583" lon="12.2261233"><ele>783.0</ele><time>2026-04-12T12:17:27.014Z</time></trkpt><trkpt lat="43.8519733" lon="12.22598"><ele>784.0</ele><time>2026-04-12T12:17:28.012Z</time></trkpt><trkpt lat="43.8519633" lon="12.225825"><ele>785.0</ele><time>2026-04-12T12:17:29.011Z</time></trkpt><trkpt lat="43.8519533" lon="12.2256717"><ele>786.0</ele><time>2026-04-12T12:17:30.013Z</time></trkpt><trkpt lat="43.851945" lon="12.2255367"><ele>787.0</ele><time>2026-04-12T12:17:31.013Z</time></trkpt><trkpt lat="43.8519267" lon="12.2254333"><ele>787.0</ele><time>2026-04-12T12:17:32.013Z</time></trkpt><trkpt lat="43.85191" lon="12.2252867"><ele>787.0</ele><time>2026-04-12T12:17:34.013Z</time></trkpt><trkpt lat="43.8518383" lon="12.2252333"><ele>787.0</ele><time>2026-04-12T12:17:36.013Z</time></trkpt><trkpt lat="43.8517492" lon="12.2253056"><ele>787.0</ele><time>2026-04-12T12:17:38.013Z</time></trkpt><trkpt lat="43.8517094" lon="12.2254399"><ele>787.0</ele><time>2026-04-12T12:17:39.016Z</time></trkpt><trkpt lat="43.851664" lon="12.2255759"><ele>781.4000000000001</ele><time>2026-04-12T12:17:40.012Z</time></trkpt><trkpt lat="43.8515847" lon="12.2256754"><ele>775.8000000000001</ele><time>2026-04-12T12:17:41.013Z</time></trkpt><trkpt lat="43.851498" lon="12.2257502"><ele>770.2</ele><time>2026-04-12T12:17:42.013Z</time></trkpt><trkpt lat="43.851438" lon="12.2258517"><ele>764.6</ele><time>2026-04-12T12:17:43.013Z</time></trkpt><trkpt lat="43.8514055" lon="12.2259702"><ele>759.0</ele><time>2026-04-12T12:17:44.014Z</time></trkpt><trkpt lat="43.8513758" lon="12.2260717"><ele>759.0</ele><time>2026-04-12T12:17:45.014Z</time></trkpt><trkpt lat="43.8513442" lon="12.2261582"><ele>759.0</ele><time>2026-04-12T12:17:46.013Z</time></trkpt><trkpt lat="43.8512957" lon="12.2262274"><ele>759.0</ele><time>2026-04-12T12:17:47.013Z</time></trkpt><trkpt lat="43.8511856" lon="12.2262424"><ele>759.0</ele><time>2026-04-12T12:17:49.014Z</time></trkpt><trkpt lat="43.8511287" lon="12.2262008"><ele>759.0</ele><time>2026-04-12T12:17:50.015Z</time></trkpt><trkpt lat="43.851075" lon="12.2261137"><ele>759.0</ele><time>2026-04-12T12:17:51.013Z</time></trkpt><trkpt lat="43.8510136" lon="12.2259793"><ele>754.0</ele><time>2026-04-12T12:17:52.015Z</time></trkpt><trkpt lat="43.8509399" lon="12.2258522"><ele>749.0</ele><time>2026-04-12T12:17:53.012Z</time></trkpt><trkpt lat="43.8508314" lon="12.2257012"><ele>744.0</ele><time>2026-04-12T12:17:54.012Z</time></trkpt><trkpt lat="43.8507234" lon="12.2255761"><ele>739.0</ele><time>2026-04-12T12:17:55.021Z</time></trkpt><trkpt lat="43.8506163" lon="12.2254748"><ele>739.0</ele><time>2026-04-12T12:17:56.011Z</time></trkpt><trkpt lat="43.8505066" lon="12.225419"><ele>739.0</ele><time>2026-04-12T12:17:57.015Z</time></trkpt><trkpt lat="43.850384" lon="12.2253769"><ele>739.0</ele><time>2026-04-12T12:17:58.013Z</time></trkpt><trkpt lat="43.8502411" lon="12.2253336"><ele>739.0</ele><time>2026-04-12T12:17:59.015Z</time></trkpt><trkpt lat="43.8500941" lon="12.2252736"><ele>736.0</ele><time>2026-04-12T12:18:00.014Z</time></trkpt><trkpt lat="43.8499504" lon="12.225202"><ele>733.0</ele><time>2026-04-12T12:18:01.016Z</time></trkpt><trkpt lat="43.849808" lon="12.2251394"><ele>730.0</ele><time>2026-04-12T12:18:02.014Z</time></trkpt><trkpt lat="43.8496662" lon="12.2250992"><ele>727.0</ele><time>2026-04-12T12:18:03.014Z</time></trkpt><trkpt lat="43.849528" lon="12.22507"><ele>727.0</ele><time>2026-04-12T12:18:04.014Z</time></trkpt><trkpt lat="43.8494006" lon="12.225017"><ele>727.0</ele><time>2026-04-12T12:18:05.014Z</time></trkpt><trkpt lat="43.8492881" lon="12.2249391"><ele>727.0</ele><time>2026-04-12T12:18:06.014Z</time></trkpt><trkpt lat="43.8491883" lon="12.2248297"><ele>727.0</ele><time>2026-04-12T12:18:07.013Z</time></trkpt><trkpt lat="43.8490955" lon="12.2247019"><ele>725.75</ele><time>2026-04-12T12:18:08.013Z</time></trkpt><trkpt lat="43.8490109" lon="12.2245656"><ele>724.5</ele><time>2026-04-12T12:18:09.014Z</time></trkpt><trkpt lat="43.8489372" lon="12.2244224"><ele>723.25</ele><time>2026-04-12T12:18:10.013Z</time></trkpt><trkpt lat="43.8488691" lon="12.2242948"><ele>722.0</ele><time>2026-04-12T12:18:11.012Z</time></trkpt><trkpt lat="43.8488097" lon="12.2241878"><ele>722.0</ele><time>2026-04-12T12:18:12.013Z</time></trkpt><trkpt lat="43.8487571" lon="12.2241048"><ele>722.0</ele><time>2026-04-12T12:18:13.013Z</time></trkpt><trkpt lat="43.8487124" lon="12.2240407"><ele>722.0</ele><time>2026-04-12T12:18:14.013Z</time></trkpt><trkpt lat="43.8486275" lon="12.2239314"><ele>722.0</ele><time>2026-04-12T12:18:16.013Z</time></trkpt><trkpt lat="43.8485198" lon="12.2238453"><ele>722.0</ele><time>2026-04-12T12:18:18.013Z</time></trkpt><trkpt lat="43.8484469" lon="12.2238272"><ele>718.8</ele><time>2026-04-12T12:18:19.013Z</time></trkpt><trkpt lat="43.8483644" lon="12.223826"><ele>715.6</ele><time>2026-04-12T12:18:20.015Z</time></trkpt><trkpt lat="43.848272" lon="12.2238489"><ele>712.4</ele><time>2026-04-12T12:18:21.013Z</time></trkpt><trkpt lat="43.8481732" lon="12.2238836"><ele>709.1999999999999</ele><time>2026-04-12T12:18:22.013Z</time></trkpt><trkpt lat="43.8480638" lon="12.22393"><ele>706.0</ele><time>2026-04-12T12:18:23.014Z</time></trkpt><trkpt lat="43.8479442" lon="12.2239829"><ele>706.0</ele><time>2026-04-12T12:18:24.016Z</time></trkpt><trkpt lat="43.8478163" lon="12.2240383"><ele>706.0</ele><time>2026-04-12T12:18:25.015Z</time></trkpt><trkpt lat="43.8476761" lon="12.2241165"><ele>706.0</ele><time>2026-04-12T12:18:26.013Z</time></trkpt><trkpt lat="43.8475371" lon="12.2242128"><ele>706.0</ele><time>2026-04-12T12:18:27.015Z</time></trkpt><trkpt lat="43.8474032" lon="12.224312"><ele>701.75</ele><time>2026-04-12T12:18:28.012Z</time></trkpt><trkpt lat="43.8472776" lon="12.2244083"><ele>697.5</ele><time>2026-04-12T12:18:29.013Z</time></trkpt><trkpt lat="43.8471574" lon="12.2244938"><ele>693.25</ele><time>2026-04-12T12:18:30.014Z</time></trkpt><trkpt lat="43.8470422" lon="12.2245793"><ele>689.0</ele><time>2026-04-12T12:18:31.019Z</time></trkpt><trkpt lat="43.8469363" lon="12.2246686"><ele>689.0</ele><time>2026-04-12T12:18:32.012Z</time></trkpt><trkpt lat="43.8468385" lon="12.2247783"><ele>689.0</ele><time>2026-04-12T12:18:33.014Z</time></trkpt><trkpt lat="43.846738" lon="12.2248856"><ele>689.0</ele><time>2026-04-12T12:18:34.012Z</time></trkpt><trkpt lat="43.8466477" lon="12.2249995"><ele>689.0</ele><time>2026-04-12T12:18:35.015Z</time></trkpt><trkpt lat="43.8465622" lon="12.2251097"><ele>686.5</ele><time>2026-04-12T12:18:36.013Z</time></trkpt><trkpt lat="43.8464627" lon="12.2251946"><ele>684.0</ele><time>2026-04-12T12:18:37.014Z</time></trkpt><trkpt lat="43.84636" lon="12.2252636"><ele>681.5</ele><time>2026-04-12T12:18:38.013Z</time></trkpt><trkpt lat="43.846243" lon="12.2253187"><ele>679.0</ele><time>2026-04-12T12:18:39.014Z</time></trkpt><trkpt lat="43.8461278" lon="12.2253582"><ele>679.0</ele><time>2026-04-12T12:18:40.014Z</time></trkpt><trkpt lat="43.8460069" lon="12.2253726"><ele>679.0</ele><time>2026-04-12T12:18:41.012Z</time></trkpt><trkpt lat="43.8458928" lon="12.2253897"><ele>679.0</ele><time>2026-04-12T12:18:42.012Z</time></trkpt><trkpt lat="43.8457838" lon="12.2254087"><ele>679.0</ele><time>2026-04-12T12:18:43.013Z</time></trkpt><trkpt lat="43.845679" lon="12.2254357"><ele>677.8000000000001</ele><time>2026-04-12T12:18:44.013Z</time></trkpt><trkpt lat="43.8455787" lon="12.2254856"><ele>676.6</ele><time>2026-04-12T12:18:45.013Z</time></trkpt><trkpt lat="43.8454842" lon="12.2255597"><ele>675.4</ele><time>2026-04-12T12:18:46.015Z</time></trkpt><trkpt lat="43.8453939" lon="12.2256571"><ele>674.2</ele><time>2026-04-12T12:18:47.014Z</time></trkpt><trkpt lat="43.8453009" lon="12.2257553"><ele>673.0</ele><time>2026-04-12T12:18:48.013Z</time></trkpt><trkpt lat="43.8452007" lon="12.2258414"><ele>671.5</ele><time>2026-04-12T12:18:49.013Z</time></trkpt><trkpt lat="43.8450987" lon="12.2259321"><ele>670.0</ele><time>2026-04-12T12:18:50.015Z</time></trkpt><trkpt lat="43.844987" lon="12.2260014"><ele>668.5</ele><time>2026-04-12T12:18:51.014Z</time></trkpt><trkpt lat="43.8448777" lon="12.2260817"><ele>667.0</ele><time>2026-04-12T12:18:52.013Z</time></trkpt><trkpt lat="43.8447637" lon="12.2261558"><ele>667.0</ele><time>2026-04-12T12:18:53.013Z</time></trkpt><trkpt lat="43.84464" lon="12.2262277"><ele>667.0</ele><time>2026-04-12T12:18:54.015Z</time></trkpt><trkpt lat="43.8445114" lon="12.2262814"><ele>667.0</ele><time>2026-04-12T12:18:55.015Z</time></trkpt><trkpt lat="43.8443884" lon="12.2263356"><ele>667.0</ele><time>2026-04-12T12:18:56.012Z</time></trkpt><trkpt lat="43.8442726" lon="12.2263949"><ele>664.75</ele><time>2026-04-12T12:18:57.014Z</time></trkpt><trkpt lat="43.8441642" lon="12.2264678"><ele>662.5</ele><time>2026-04-12T12:18:58.014Z</time></trkpt><trkpt lat="43.8440467" lon="12.2265503"><ele>660.25</ele><time>2026-04-12T12:18:59.015Z</time></trkpt><trkpt lat="43.8439334" lon="12.226646"><ele>658.0</ele><time>2026-04-12T12:19:00.014Z</time></trkpt><trkpt lat="43.8438335" lon="12.2267467"><ele>658.0</ele><time>2026-04-12T12:19:01.013Z</time></trkpt><trkpt lat="43.8437398" lon="12.2268516"><ele>658.0</ele><time>2026-04-12T12:19:02.013Z</time></trkpt><trkpt lat="43.8436453" lon="12.226965"><ele>658.0</ele><time>2026-04-12T12:19:03.016Z</time></trkpt><trkpt lat="43.8435496" lon="12.2270822"><ele>658.0</ele><time>2026-04-12T12:19:04.013Z</time></trkpt><trkpt lat="43.8434524" lon="12.2272104"><ele>656.5</ele><time>2026-04-12T12:19:05.013Z</time></trkpt><trkpt lat="43.8433556" lon="12.2273457"><ele>655.0</ele><time>2026-04-12T12:19:06.015Z</time></trkpt><trkpt lat="43.8432552" lon="12.227482"><ele>653.5</ele><time>2026-04-12T12:19:07.013Z</time></trkpt><trkpt lat="43.8431621" lon="12.2276158"><ele>652.0</ele><time>2026-04-12T12:19:08.015Z</time></trkpt><trkpt lat="43.8430787" lon="12.2277383"><ele>652.0</ele><time>2026-04-12T12:19:09.014Z</time></trkpt><trkpt lat="43.8430023" lon="12.2278538"><ele>652.0</ele><time>2026-04-12T12:19:10.012Z</time></trkpt><trkpt lat="43.8429273" lon="12.2279733"><ele>652.0</ele><time>2026-04-12T12:19:11.015Z</time></trkpt><trkpt lat="43.8428569" lon="12.2280871"><ele>652.0</ele><time>2026-04-12T12:19:12.017Z</time></trkpt><trkpt lat="43.8427862" lon="12.2281874"><ele>652.0</ele><time>2026-04-12T12:19:13.013Z</time></trkpt><trkpt lat="43.842719" lon="12.2282718"><ele>651.0</ele><time>2026-04-12T12:19:14.015Z</time></trkpt><trkpt lat="43.8426554" lon="12.2283475"><ele>650.0</ele><time>2026-04-12T12:19:15.011Z</time></trkpt><trkpt lat="43.8425924" lon="12.2284211"><ele>649.0</ele><time>2026-04-12T12:19:16.013Z</time></trkpt><trkpt lat="43.8425282" lon="12.228491"><ele>648.0</ele><time>2026-04-12T12:19:17.012Z</time></trkpt><trkpt lat="43.8424567" lon="12.2285517"><ele>647.0</ele><time>2026-04-12T12:19:18.014Z</time></trkpt><trkpt lat="43.842385" lon="12.2286117"><ele>646.0</ele><time>2026-04-12T12:19:19.011Z</time></trkpt><trkpt lat="43.84232" lon="12.2286717"><ele>645.5714285714287</ele><time>2026-04-12T12:19:20.012Z</time></trkpt><trkpt lat="43.8422583" lon="12.228735"><ele>645.1428571428571</ele><time>2026-04-12T12:19:21.014Z</time></trkpt><trkpt lat="43.8422033" lon="12.22879"><ele>644.7142857142858</ele><time>2026-04-12T12:19:22.013Z</time></trkpt><trkpt lat="43.8421433" lon="12.2288467"><ele>644.2857142857143</ele><time>2026-04-12T12:19:23.018Z</time></trkpt><trkpt lat="43.8420867" lon="12.2288967"><ele>643.8571428571429</ele><time>2026-04-12T12:19:24.013Z</time></trkpt><trkpt lat="43.8420183" lon="12.2289383"><ele>643.4285714285714</ele><time>2026-04-12T12:19:25.013Z</time></trkpt><trkpt lat="43.8419383" lon="12.2289633"><ele>643.0</ele><time>2026-04-12T12:19:26.012Z</time></trkpt><trkpt lat="43.8418517" lon="12.2289817"><ele>641.0</ele><time>2026-04-12T12:19:27.013Z</time></trkpt><trkpt lat="43.8417617" lon="12.2290017"><ele>639.0</ele><time>2026-04-12T12:19:28.011Z</time></trkpt><trkpt lat="43.8416617" lon="12.2290183"><ele>637.0</ele><time>2026-04-12T12:19:29.011Z</time></trkpt><trkpt lat="43.8415567" lon="12.229035"><ele>635.0</ele><time>2026-04-12T12:19:30.012Z</time></trkpt><trkpt lat="43.8414517" lon="12.229055"><ele>633.0</ele><time>2026-04-12T12:19:31.013Z</time></trkpt><trkpt lat="43.8413333" lon="12.2290783"><ele>633.0</ele><time>2026-04-12T12:19:32.012Z</time></trkpt><trkpt lat="43.8412167" lon="12.2290967"><ele>633.0</ele><time>2026-04-12T12:19:33.012Z</time></trkpt><trkpt lat="43.8411067" lon="12.2291167"><ele>633.0</ele><time>2026-04-12T12:19:34.013Z</time></trkpt><trkpt lat="43.841005" lon="12.22913"><ele>633.0</ele><time>2026-04-12T12:19:35.012Z</time></trkpt><trkpt lat="43.8409067" lon="12.229135"><ele>633.0</ele><time>2026-04-12T12:19:36.012Z</time></trkpt><trkpt lat="43.8408133" lon="12.2291267"><ele>632.0</ele><time>2026-04-12T12:19:37.012Z</time></trkpt><trkpt lat="43.8407267" lon="12.2291083"><ele>631.0</ele><time>2026-04-12T12:19:38.012Z</time></trkpt><trkpt lat="43.84064" lon="12.22908"><ele>630.0</ele><time>2026-04-12T12:19:39.013Z</time></trkpt><trkpt lat="43.840555" lon="12.2290517"><ele>629.0</ele><time>2026-04-12T12:19:40.012Z</time></trkpt><trkpt lat="43.840475" lon="12.2290383"><ele>628.0</ele><time>2026-04-12T12:19:41.012Z</time></trkpt><trkpt lat="43.8403967" lon="12.2290483"><ele>627.0</ele><time>2026-04-12T12:19:42.012Z</time></trkpt><trkpt lat="43.8403267" lon="12.2290783"><ele>627.0</ele><time>2026-04-12T12:19:43.011Z</time></trkpt><trkpt lat="43.84027" lon="12.229125"><ele>627.0</ele><time>2026-04-12T12:19:44.012Z</time></trkpt><trkpt lat="43.84022" lon="12.2291867"><ele>627.0</ele><time>2026-04-12T12:19:45.014Z</time></trkpt><trkpt lat="43.8401417" lon="12.2292983"><ele>627.0</ele><time>2026-04-12T12:19:47.011Z</time></trkpt><trkpt lat="43.8400567" lon="12.229335"><ele>627.0</ele><time>2026-04-12T12:19:49.014Z</time></trkpt><trkpt lat="43.83999" lon="12.22922"><ele>627.0</ele><time>2026-04-12T12:19:51.013Z</time></trkpt><trkpt lat="43.8399595" lon="12.2291342"><ele>624.6666666666666</ele><time>2026-04-12T12:19:52.013Z</time></trkpt><trkpt lat="43.839942" lon="12.2290094"><ele>622.3333333333334</ele><time>2026-04-12T12:19:53.013Z</time></trkpt><trkpt lat="43.8399296" lon="12.2288782"><ele>620.0</ele><time>2026-04-12T12:19:54.014Z</time></trkpt><trkpt lat="43.8399269" lon="12.2287538"><ele>617.6666666666667</ele><time>2026-04-12T12:19:55.01Z</time></trkpt><trkpt lat="43.8399301" lon="12.2286387"><ele>615.3333333333334</ele><time>2026-04-12T12:19:56.013Z</time></trkpt><trkpt lat="43.8399341" lon="12.2285366"><ele>613.0</ele><time>2026-04-12T12:19:57.013Z</time></trkpt><trkpt lat="43.8399322" lon="12.2284468"><ele>612.1999999999999</ele><time>2026-04-12T12:19:58.011Z</time></trkpt><trkpt lat="43.839888" lon="12.2283008"><ele>611.4</ele><time>2026-04-12T12:20:00.012Z</time></trkpt><trkpt lat="43.8397683" lon="12.2282426"><ele>610.5999999999999</ele><time>2026-04-12T12:20:02.013Z</time></trkpt><trkpt lat="43.8396955" lon="12.2282424"><ele>609.8</ele><time>2026-04-12T12:20:03.013Z</time></trkpt><trkpt lat="43.8396188" lon="12.2282981"><ele>609.0</ele><time>2026-04-12T12:20:04.014Z</time></trkpt><trkpt lat="43.8395446" lon="12.2283424"><ele>609.0</ele><time>2026-04-12T12:20:05.012Z</time></trkpt><trkpt lat="43.8394727" lon="12.2283546"><ele>609.0</ele><time>2026-04-12T12:20:06.013Z</time></trkpt><trkpt lat="43.8394027" lon="12.2283354"><ele>609.0</ele><time>2026-04-12T12:20:07.011Z</time></trkpt><trkpt lat="43.8393344" lon="12.2283005"><ele>609.0</ele><time>2026-04-12T12:20:08.012Z</time></trkpt><trkpt lat="43.8392565" lon="12.2282491"><ele>609.0</ele><time>2026-04-12T12:20:09.017Z</time></trkpt><trkpt lat="43.8391692" lon="12.2281831"><ele>609.0</ele><time>2026-04-12T12:20:10.013Z</time></trkpt><trkpt lat="43.8390806" lon="12.2281135"><ele>603.8</ele><time>2026-04-12T12:20:11.012Z</time></trkpt><trkpt lat="43.8389957" lon="12.2280486"><ele>598.5999999999999</ele><time>2026-04-12T12:20:12.014Z</time></trkpt><trkpt lat="43.8389113" lon="12.227991"><ele>593.4</ele><time>2026-04-12T12:20:13.014Z</time></trkpt><trkpt lat="43.8388293" lon="12.2279481"><ele>588.1999999999999</ele><time>2026-04-12T12:20:14.012Z</time></trkpt><trkpt lat="43.8387469" lon="12.2279242"><ele>583.0</ele><time>2026-04-12T12:20:15.012Z</time></trkpt><trkpt lat="43.8386575" lon="12.2279259"><ele>583.0</ele><time>2026-04-12T12:20:16.012Z</time></trkpt><trkpt lat="43.838558" lon="12.2279467"><ele>583.0</ele><time>2026-04-12T12:20:17.01Z</time></trkpt><trkpt lat="43.8384473" lon="12.2279945"><ele>583.0</ele><time>2026-04-12T12:20:18.016Z</time></trkpt><trkpt lat="43.8383239" lon="12.228066"><ele>583.0</ele><time>2026-04-12T12:20:19.012Z</time></trkpt><trkpt lat="43.8381905" lon="12.2281526"><ele>583.75</ele><time>2026-04-12T12:20:20.014Z</time></trkpt><trkpt lat="43.838058" lon="12.2282456"><ele>584.5</ele><time>2026-04-12T12:20:21.014Z</time></trkpt><trkpt lat="43.8379265" lon="12.2283348"><ele>585.25</ele><time>2026-04-12T12:20:22.013Z</time></trkpt><trkpt lat="43.8377968" lon="12.2284134"><ele>586.0</ele><time>2026-04-12T12:20:23.011Z</time></trkpt><trkpt lat="43.8376719" lon="12.2284778"><ele>583.0</ele><time>2026-04-12T12:20:24.013Z</time></trkpt><trkpt lat="43.8375567" lon="12.2285314"><ele>580.0</ele><time>2026-04-12T12:20:25.012Z</time></trkpt><trkpt lat="43.837446" lon="12.2285738"><ele>577.0</ele><time>2026-04-12T12:20:26.012Z</time></trkpt><trkpt lat="43.8373352" lon="12.2285873"><ele>574.0</ele><time>2026-04-12T12:20:27.014Z</time></trkpt><trkpt lat="43.8372261" lon="12.2285763"><ele>574.0</ele><time>2026-04-12T12:20:28.012Z</time></trkpt><trkpt lat="43.8371247" lon="12.2285388"><ele>574.0</ele><time>2026-04-12T12:20:29.012Z</time></trkpt><trkpt lat="43.8370362" lon="12.2284762"><ele>574.0</ele><time>2026-04-12T12:20:30.012Z</time></trkpt><trkpt lat="43.8369632" lon="12.2284065"><ele>574.0</ele><time>2026-04-12T12:20:31.013Z</time></trkpt><trkpt lat="43.8368954" lon="12.2283456"><ele>574.0</ele><time>2026-04-12T12:20:32.014Z</time></trkpt><trkpt lat="43.8368258" lon="12.2283074"><ele>574.0</ele><time>2026-04-12T12:20:33.012Z</time></trkpt><trkpt lat="43.8367516" lon="12.2282956"><ele>572.0</ele><time>2026-04-12T12:20:34.013Z</time></trkpt><trkpt lat="43.8366773" lon="12.2283071"><ele>570.0</ele><time>2026-04-12T12:20:35.012Z</time></trkpt><trkpt lat="43.8366109" lon="12.2283387"><ele>568.0</ele><time>2026-04-12T12:20:36.011Z</time></trkpt><trkpt lat="43.8365536" lon="12.2283802"><ele>566.0</ele><time>2026-04-12T12:20:37.014Z</time></trkpt><trkpt lat="43.8365154" lon="12.2285056"><ele>564.0</ele><time>2026-04-12T12:20:39.013Z</time></trkpt><trkpt lat="43.8365629" lon="12.2286664"><ele>562.0</ele><time>2026-04-12T12:20:41.012Z</time></trkpt><trkpt lat="43.8366101" lon="12.2288116"><ele>562.0</ele><time>2026-04-12T12:20:43.013Z</time></trkpt><trkpt lat="43.8366027" lon="12.22893"><ele>562.0</ele><time>2026-04-12T12:20:45.011Z</time></trkpt><trkpt lat="43.836544" lon="12.2289948"><ele>562.0</ele><time>2026-04-12T12:20:47.012Z</time></trkpt><trkpt lat="43.8364455" lon="12.2289602"><ele>562.0</ele><time>2026-04-12T12:20:49.014Z</time></trkpt><trkpt lat="43.8363853" lon="12.2288881"><ele>562.0</ele><time>2026-04-12T12:20:50.013Z</time></trkpt><trkpt lat="43.8363313" lon="12.2288139"><ele>562.0</ele><time>2026-04-12T12:20:51.014Z</time></trkpt><trkpt lat="43.8362858" lon="12.2287304"><ele>562.0</ele><time>2026-04-12T12:20:52.014Z</time></trkpt><trkpt lat="43.8362459" lon="12.2286538"><ele>562.0</ele><time>2026-04-12T12:20:53.011Z</time></trkpt><trkpt lat="43.8362032" lon="12.2285859"><ele>562.0</ele><time>2026-04-12T12:20:54.011Z</time></trkpt><trkpt lat="43.8361068" lon="12.2285114"><ele>562.0</ele><time>2026-04-12T12:20:56.012Z</time></trkpt><trkpt lat="43.8360105" lon="12.2285655"><ele>562.0</ele><time>2026-04-12T12:20:58.011Z</time></trkpt><trkpt lat="43.8359884" lon="12.2286599"><ele>562.0</ele><time>2026-04-12T12:20:59.012Z</time></trkpt><trkpt lat="43.8359735" lon="12.2287686"><ele>562.2</ele><time>2026-04-12T12:21:00.012Z</time></trkpt><trkpt lat="43.8359682" lon="12.2288821"><ele>562.4000000000001</ele><time>2026-04-12T12:21:01.013Z</time></trkpt><trkpt lat="43.8359663" lon="12.2289933"><ele>562.5999999999999</ele><time>2026-04-12T12:21:02.012Z</time></trkpt><trkpt lat="43.8359789" lon="12.2291127"><ele>562.8</ele><time>2026-04-12T12:21:03.013Z</time></trkpt><trkpt lat="43.8360029" lon="12.2292532"><ele>563.0</ele><time>2026-04-12T12:21:04.012Z</time></trkpt><trkpt lat="43.8360385" lon="12.2294114"><ele>563.0</ele><time>2026-04-12T12:21:05.011Z</time></trkpt><trkpt lat="43.8360672" lon="12.2295711"><ele>563.0</ele><time>2026-04-12T12:21:06.012Z</time></trkpt><trkpt lat="43.8360846" lon="12.2297268"><ele>563.0</ele><time>2026-04-12T12:21:07.012Z</time></trkpt><trkpt lat="43.8360931" lon="12.2298749"><ele>563.0</ele><time>2026-04-12T12:21:08.012Z</time></trkpt><trkpt lat="43.8360972" lon="12.2300119"><ele>563.0</ele><time>2026-04-12T12:21:09.012Z</time></trkpt><trkpt lat="43.8361026" lon="12.230133"><ele>560.5714285714286</ele><time>2026-04-12T12:21:10.012Z</time></trkpt><trkpt lat="43.8361071" lon="12.2302375"><ele>558.1428571428571</ele><time>2026-04-12T12:21:11.012Z</time></trkpt><trkpt lat="43.8361111" lon="12.2303421"><ele>555.7142857142858</ele><time>2026-04-12T12:21:12.01Z</time></trkpt><trkpt lat="43.8361091" lon="12.2304441"><ele>553.2857142857142</ele><time>2026-04-12T12:21:13.01Z</time></trkpt><trkpt lat="43.8360894" lon="12.2305391"><ele>550.8571428571429</ele><time>2026-04-12T12:21:14.011Z</time></trkpt><trkpt lat="43.8360583" lon="12.2306274"><ele>548.4285714285714</ele><time>2026-04-12T12:21:15.011Z</time></trkpt><trkpt lat="43.836014" lon="12.230709"><ele>546.0</ele><time>2026-04-12T12:21:16.011Z</time></trkpt><trkpt lat="43.8359643" lon="12.230771"><ele>544.8333333333334</ele><time>2026-04-12T12:21:17.013Z</time></trkpt><trkpt lat="43.8358542" lon="12.2308099"><ele>543.6666666666666</ele><time>2026-04-12T12:21:19.013Z</time></trkpt><trkpt lat="43.835793" lon="12.2307868"><ele>542.5</ele><time>2026-04-12T12:21:20.016Z</time></trkpt><trkpt lat="43.8357299" lon="12.2307433"><ele>541.3333333333333</ele><time>2026-04-12T12:21:21.014Z</time></trkpt><trkpt lat="43.8356696" lon="12.2306856"><ele>540.1666666666666</ele><time>2026-04-12T12:21:22.014Z</time></trkpt><trkpt lat="43.8356147" lon="12.2306209"><ele>539.0</ele><time>2026-04-12T12:21:23.013Z</time></trkpt><trkpt lat="43.8355634" lon="12.2305491"><ele>539.0</ele><time>2026-04-12T12:21:24.013Z</time></trkpt><trkpt lat="43.8355112" lon="12.2304764"><ele>539.0</ele><time>2026-04-12T12:21:25.013Z</time></trkpt><trkpt lat="43.8354559" lon="12.2304002"><ele>539.0</ele><time>2026-04-12T12:21:26.012Z</time></trkpt><trkpt lat="43.8354006" lon="12.2303328"><ele>539.0</ele><time>2026-04-12T12:21:27.014Z</time></trkpt><trkpt lat="43.8353401" lon="12.2302809"><ele>539.0</ele><time>2026-04-12T12:21:28.013Z</time></trkpt><trkpt lat="43.8352807" lon="12.2302456"><ele>539.0</ele><time>2026-04-12T12:21:29.012Z</time></trkpt><trkpt lat="43.8352156" lon="12.2302282"><ele>539.0</ele><time>2026-04-12T12:21:30.013Z</time></trkpt><trkpt lat="43.8351453" lon="12.2302353"><ele>536.2</ele><time>2026-04-12T12:21:31.013Z</time></trkpt><trkpt lat="43.8350646" lon="12.2302726"><ele>533.4</ele><time>2026-04-12T12:21:32.013Z</time></trkpt><trkpt lat="43.8349785" lon="12.2303363"><ele>530.6</ele><time>2026-04-12T12:21:33.013Z</time></trkpt><trkpt lat="43.8348834" lon="12.2304085"><ele>527.8</ele><time>2026-04-12T12:21:34.013Z</time></trkpt><trkpt lat="43.8347837" lon="12.2304688"><ele>525.0</ele><time>2026-04-12T12:21:35.013Z</time></trkpt><trkpt lat="43.8346814" lon="12.2305115"><ele>525.0</ele><time>2026-04-12T12:21:36.013Z</time></trkpt><trkpt lat="43.8345785" lon="12.230542"><ele>525.0</ele><time>2026-04-12T12:21:37.013Z</time></trkpt><trkpt lat="43.8344718" lon="12.2305602"><ele>525.0</ele><time>2026-04-12T12:21:38.016Z</time></trkpt><trkpt lat="43.8343648" lon="12.2305745"><ele>525.0</ele><time>2026-04-12T12:21:39.013Z</time></trkpt><trkpt lat="43.8342654" lon="12.2305859"><ele>525.0</ele><time>2026-04-12T12:21:40.012Z</time></trkpt><trkpt lat="43.8341671" lon="12.2305958"><ele>521.6</ele><time>2026-04-12T12:21:41.012Z</time></trkpt><trkpt lat="43.8340677" lon="12.2306089"><ele>518.2</ele><time>2026-04-12T12:21:42.012Z</time></trkpt><trkpt lat="43.833973" lon="12.2306159"><ele>514.8</ele><time>2026-04-12T12:21:43.014Z</time></trkpt><trkpt lat="43.8338745" lon="12.2306232"><ele>511.4</ele><time>2026-04-12T12:21:44.013Z</time></trkpt><trkpt lat="43.8337693" lon="12.2306411"><ele>508.0</ele><time>2026-04-12T12:21:45.013Z</time></trkpt><trkpt lat="43.8336675" lon="12.2306595"><ele>507.79999999999995</ele><time>2026-04-12T12:21:46.012Z</time></trkpt><trkpt lat="43.8335657" lon="12.2306761"><ele>507.59999999999997</ele><time>2026-04-12T12:21:47.011Z</time></trkpt><trkpt lat="43.8334665" lon="12.2306842"><ele>507.40000000000003</ele><time>2026-04-12T12:21:48.013Z</time></trkpt><trkpt lat="43.8333683" lon="12.2306946"><ele>507.20000000000005</ele><time>2026-04-12T12:21:49.011Z</time></trkpt><trkpt lat="43.8332729" lon="12.2307175"><ele>507.0</ele><time>2026-04-12T12:21:50.014Z</time></trkpt><trkpt lat="43.8331799" lon="12.2307589"><ele>504.6666666666667</ele><time>2026-04-12T12:21:51.015Z</time></trkpt><trkpt lat="43.8330926" lon="12.2308152"><ele>502.33333333333337</ele><time>2026-04-12T12:21:52.011Z</time></trkpt><trkpt lat="43.8330077" lon="12.2308672"><ele>500.0</ele><time>2026-04-12T12:21:53.013Z</time></trkpt><trkpt lat="43.8329243" lon="12.2309023"><ele>497.6666666666667</ele><time>2026-04-12T12:21:54.013Z</time></trkpt><trkpt lat="43.832845" lon="12.2309188"><ele>495.33333333333337</ele><time>2026-04-12T12:21:55.012Z</time></trkpt><trkpt lat="43.8327681" lon="12.2309197"><ele>493.0</ele><time>2026-04-12T12:21:56.012Z</time></trkpt><trkpt lat="43.8326999" lon="12.2309143"><ele>491.0</ele><time>2026-04-12T12:21:57.012Z</time></trkpt><trkpt lat="43.8325931" lon="12.2309395"><ele>488.99999999999994</ele><time>2026-04-12T12:21:59.012Z</time></trkpt><trkpt lat="43.832532" lon="12.2310472"><ele>486.99999999999994</ele><time>2026-04-12T12:22:01.013Z</time></trkpt><trkpt lat="43.8325265" lon="12.2311409"><ele>485.0</ele><time>2026-04-12T12:22:02.011Z</time></trkpt><trkpt lat="43.8325382" lon="12.231259"><ele>483.0</ele><time>2026-04-12T12:22:03.013Z</time></trkpt><trkpt lat="43.8325597" lon="12.2314008"><ele>482.59999999999997</ele><time>2026-04-12T12:22:04.012Z</time></trkpt><trkpt lat="43.832581" lon="12.231543"><ele>482.19999999999993</ele><time>2026-04-12T12:22:05.012Z</time></trkpt><trkpt lat="43.8325998" lon="12.2316763"><ele>481.8</ele><time>2026-04-12T12:22:06.012Z</time></trkpt><trkpt lat="43.8326135" lon="12.231793"><ele>481.4</ele><time>2026-04-12T12:22:07.012Z</time></trkpt><trkpt lat="43.8326178" lon="12.2318898"><ele>481.0</ele><time>2026-04-12T12:22:08.015Z</time></trkpt><trkpt lat="43.8325828" lon="12.2320367"><ele>481.0</ele><time>2026-04-12T12:22:10.012Z</time></trkpt><trkpt lat="43.8325143" lon="12.2320949"><ele>481.0</ele><time>2026-04-12T12:22:12.012Z</time></trkpt><trkpt lat="43.832428" lon="12.2320435"><ele>481.0</ele><time>2026-04-12T12:22:13.017Z</time></trkpt><trkpt lat="43.8323301" lon="12.2319941"><ele>481.0</ele><time>2026-04-12T12:22:14.014Z</time></trkpt><trkpt lat="43.8322291" lon="12.2319649"><ele>481.0</ele><time>2026-04-12T12:22:15.012Z</time></trkpt><trkpt lat="43.8321385" lon="12.231972"><ele>481.0</ele><time>2026-04-12T12:22:16.013Z</time></trkpt><trkpt lat="43.8320727" lon="12.2320441"><ele>481.0</ele><time>2026-04-12T12:22:17.011Z</time></trkpt><trkpt lat="43.8320283" lon="12.2321764"><ele>481.0</ele><time>2026-04-12T12:22:18.014Z</time></trkpt><trkpt lat="43.832007" lon="12.2323444"><ele>481.0</ele><time>2026-04-12T12:22:19.014Z</time></trkpt><trkpt lat="43.8319973" lon="12.2325474"><ele>479.5</ele><time>2026-04-12T12:22:20.012Z</time></trkpt><trkpt lat="43.8319937" lon="12.2327472"><ele>478.0</ele><time>2026-04-12T12:22:21.011Z</time></trkpt><trkpt lat="43.8319928" lon="12.2329301"><ele>476.5</ele><time>2026-04-12T12:22:22.013Z</time></trkpt><trkpt lat="43.8319899" lon="12.2330988"><ele>475.0</ele><time>2026-04-12T12:22:23.012Z</time></trkpt><trkpt lat="43.8319786" lon="12.2332465"><ele>472.0</ele><time>2026-04-12T12:22:24.014Z</time></trkpt><trkpt lat="43.8319421" lon="12.2333771"><ele>469.0</ele><time>2026-04-12T12:22:25.013Z</time></trkpt><trkpt lat="43.8318766" lon="12.2334937"><ele>466.0</ele><time>2026-04-12T12:22:26.013Z</time></trkpt><trkpt lat="43.8317771" lon="12.2335953"><ele>463.0</ele><time>2026-04-12T12:22:27.013Z</time></trkpt><trkpt lat="43.8316491" lon="12.23368"><ele>463.0</ele><time>2026-04-12T12:22:28.012Z</time></trkpt><trkpt lat="43.8315107" lon="12.2337588"><ele>463.0</ele><time>2026-04-12T12:22:29.012Z</time></trkpt><trkpt lat="43.8313767" lon="12.2338349"><ele>463.0</ele><time>2026-04-12T12:22:30.012Z</time></trkpt><trkpt lat="43.8312511" lon="12.2339251"><ele>463.0</ele><time>2026-04-12T12:22:31.012Z</time></trkpt><trkpt lat="43.8311323" lon="12.2340161"><ele>460.25</ele><time>2026-04-12T12:22:32.012Z</time></trkpt><trkpt lat="43.8310257" lon="12.2341105"><ele>457.5</ele><time>2026-04-12T12:22:33.012Z</time></trkpt><trkpt lat="43.8309222" lon="12.2342043"><ele>454.75</ele><time>2026-04-12T12:22:34.014Z</time></trkpt><trkpt lat="43.8308232" lon="12.234307"><ele>452.0</ele><time>2026-04-12T12:22:35.012Z</time></trkpt><trkpt lat="43.8307177" lon="12.2344094"><ele>451.5</ele><time>2026-04-12T12:22:36.015Z</time></trkpt><trkpt lat="43.830608" lon="12.2345208"><ele>451.0</ele><time>2026-04-12T12:22:37.012Z</time></trkpt><trkpt lat="43.8304911" lon="12.2346364"><ele>450.5</ele><time>2026-04-12T12:22:38.012Z</time></trkpt><trkpt lat="43.8303778" lon="12.2347523"><ele>450.0</ele><time>2026-04-12T12:22:39.015Z</time></trkpt><trkpt lat="43.8302664" lon="12.234864"><ele>447.75</ele><time>2026-04-12T12:22:40.011Z</time></trkpt><trkpt lat="43.8301558" lon="12.2349672"><ele>445.5</ele><time>2026-04-12T12:22:41.014Z</time></trkpt><trkpt lat="43.8300459" lon="12.2350632"><ele>443.25</ele><time>2026-04-12T12:22:42.012Z</time></trkpt><trkpt lat="43.8299336" lon="12.2351528"><ele>441.0</ele><time>2026-04-12T12:22:43.011Z</time></trkpt><trkpt lat="43.8298185" lon="12.2352475"><ele>440.0</ele><time>2026-04-12T12:22:44.012Z</time></trkpt><trkpt lat="43.8296959" lon="12.2353445"><ele>439.0</ele><time>2026-04-12T12:22:45.014Z</time></trkpt><trkpt lat="43.8295757" lon="12.2354418"><ele>438.0</ele><time>2026-04-12T12:22:46.013Z</time></trkpt><trkpt lat="43.8294637" lon="12.2355341"><ele>437.0</ele><time>2026-04-12T12:22:47.013Z</time></trkpt><trkpt lat="43.8293608" lon="12.2356059"><ele>434.6</ele><time>2026-04-12T12:22:48.013Z</time></trkpt><trkpt lat="43.8292707" lon="12.2356501"><ele>432.20000000000005</ele><time>2026-04-12T12:22:49.012Z</time></trkpt><trkpt lat="43.8291829" lon="12.2356555"><ele>429.8</ele><time>2026-04-12T12:22:50.013Z</time></trkpt><trkpt lat="43.829092" lon="12.2356257"><ele>427.4</ele><time>2026-04-12T12:22:51.013Z</time></trkpt><trkpt lat="43.8290226" lon="12.2355385"><ele>425.0</ele><time>2026-04-12T12:22:52.013Z</time></trkpt><trkpt lat="43.828974" lon="12.2353984"><ele>425.0</ele><time>2026-04-12T12:22:53.014Z</time></trkpt><trkpt lat="43.8289366" lon="12.2352216"><ele>425.0</ele><time>2026-04-12T12:22:54.013Z</time></trkpt><trkpt lat="43.8289017" lon="12.2350177"><ele>425.0</ele><time>2026-04-12T12:22:55.013Z</time></trkpt><trkpt lat="43.8288581" lon="12.2347978"><ele>425.0</ele><time>2026-04-12T12:22:56.013Z</time></trkpt><trkpt lat="43.8288146" lon="12.2345843"><ele>425.25</ele><time>2026-04-12T12:22:57.013Z</time></trkpt><trkpt lat="43.8287765" lon="12.2343818"><ele>425.5</ele><time>2026-04-12T12:22:58.012Z</time></trkpt><trkpt lat="43.8287294" lon="12.2341864"><ele>425.75</ele><time>2026-04-12T12:22:59.01Z</time></trkpt><trkpt lat="43.8286719" lon="12.2340143"><ele>426.0</ele><time>2026-04-12T12:23:00.013Z</time></trkpt><trkpt lat="43.8286014" lon="12.2338631"><ele>426.0</ele><time>2026-04-12T12:23:01.014Z</time></trkpt><trkpt lat="43.8285085" lon="12.2337307"><ele>426.0</ele><time>2026-04-12T12:23:02.013Z</time></trkpt><trkpt lat="43.8283968" lon="12.2336304"><ele>426.0</ele><time>2026-04-12T12:23:03.013Z</time></trkpt><trkpt lat="43.8282646" lon="12.233547"><ele>426.0</ele><time>2026-04-12T12:23:04.012Z</time></trkpt><trkpt lat="43.8281187" lon="12.2334819"><ele>422.0</ele><time>2026-04-12T12:23:05.014Z</time></trkpt><trkpt lat="43.8279608" lon="12.2334443"><ele>418.0</ele><time>2026-04-12T12:23:06.013Z</time></trkpt><trkpt lat="43.8277949" lon="12.2334274"><ele>414.0</ele><time>2026-04-12T12:23:07.013Z</time></trkpt><trkpt lat="43.827629" lon="12.2334291"><ele>411.66666666666663</ele><time>2026-04-12T12:23:08.014Z</time></trkpt><trkpt lat="43.8274574" lon="12.2334481"><ele>409.3333333333333</ele><time>2026-04-12T12:23:09.013Z</time></trkpt><trkpt lat="43.8272864" lon="12.2334716"><ele>407.0</ele><time>2026-04-12T12:23:10.012Z</time></trkpt><trkpt lat="43.8271212" lon="12.2334947"><ele>407.0</ele><time>2026-04-12T12:23:11.012Z</time></trkpt><trkpt lat="43.8269626" lon="12.2335182"><ele>407.0</ele><time>2026-04-12T12:23:12.014Z</time></trkpt><trkpt lat="43.8268031" lon="12.2335474"><ele>407.0</ele><time>2026-04-12T12:23:13.012Z</time></trkpt><trkpt lat="43.8266458" lon="12.2335907"><ele>404.66666666666663</ele><time>2026-04-12T12:23:14.013Z</time></trkpt><trkpt lat="43.8264949" lon="12.2336471"><ele>402.33333333333337</ele><time>2026-04-12T12:23:15.013Z</time></trkpt><trkpt lat="43.8263507" lon="12.2337112"><ele>400.0</ele><time>2026-04-12T12:23:16.014Z</time></trkpt><trkpt lat="43.8262082" lon="12.2337651"><ele>400.0</ele><time>2026-04-12T12:23:17.012Z</time></trkpt><trkpt lat="43.8260631" lon="12.2337812"><ele>400.0</ele><time>2026-04-12T12:23:18.015Z</time></trkpt><trkpt lat="43.8259287" lon="12.2337557"><ele>400.0</ele><time>2026-04-12T12:23:19.014Z</time></trkpt><trkpt lat="43.8258041" lon="12.233713"><ele>400.0</ele><time>2026-04-12T12:23:20.013Z</time></trkpt><trkpt lat="43.8256776" lon="12.2336794"><ele>398.0</ele><time>2026-04-12T12:23:21.013Z</time></trkpt><trkpt lat="43.8255492" lon="12.2336456"><ele>396.0</ele><time>2026-04-12T12:23:22.013Z</time></trkpt><trkpt lat="43.8254276" lon="12.2335848"><ele>394.0</ele><time>2026-04-12T12:23:23.012Z</time></trkpt><trkpt lat="43.8253191" lon="12.2335121"><ele>392.0</ele><time>2026-04-12T12:23:24.013Z</time></trkpt><trkpt lat="43.8252187" lon="12.2334439"><ele>390.6</ele><time>2026-04-12T12:23:25.013Z</time></trkpt><trkpt lat="43.8251185" lon="12.233394"><ele>389.20000000000005</ele><time>2026-04-12T12:23:26.012Z</time></trkpt><trkpt lat="43.8250167" lon="12.2333749"><ele>387.8</ele><time>2026-04-12T12:23:27.013Z</time></trkpt><trkpt lat="43.8249142" lon="12.2333915"><ele>386.4</ele><time>2026-04-12T12:23:28.012Z</time></trkpt><trkpt lat="43.8248041" lon="12.233433"><ele>385.0</ele><time>2026-04-12T12:23:29.012Z</time></trkpt><trkpt lat="43.8246857" lon="12.2334811"><ele>385.0</ele><time>2026-04-12T12:23:30.015Z</time></trkpt><trkpt lat="43.82457" lon="12.2335368"><ele>385.0</ele><time>2026-04-12T12:23:31.013Z</time></trkpt><trkpt lat="43.8244688" lon="12.2336066"><ele>385.0</ele><time>2026-04-12T12:23:32.013Z</time></trkpt><trkpt lat="43.8243911" lon="12.2336973"><ele>385.0</ele><time>2026-04-12T12:23:33.012Z</time></trkpt><trkpt lat="43.8243263" lon="12.2338123"><ele>385.0</ele><time>2026-04-12T12:23:34.011Z</time></trkpt><trkpt lat="43.8242657" lon="12.2339261"><ele>383.33333333333337</ele><time>2026-04-12T12:23:35.013Z</time></trkpt><trkpt lat="43.8242026" lon="12.2340145"><ele>381.6666666666667</ele><time>2026-04-12T12:23:36.013Z</time></trkpt><trkpt lat="43.8241349" lon="12.2340648"><ele>380.0</ele><time>2026-04-12T12:23:37.013Z</time></trkpt><trkpt lat="43.8240634" lon="12.2340788"><ele>378.33333333333337</ele><time>2026-04-12T12:23:38.014Z</time></trkpt><trkpt lat="43.8239716" lon="12.2340552"><ele>376.6666666666667</ele><time>2026-04-12T12:23:39.017Z</time></trkpt><trkpt lat="43.8238876" lon="12.2340165"><ele>375.0</ele><time>2026-04-12T12:23:40.014Z</time></trkpt><trkpt lat="43.8238172" lon="12.2339584"><ele>374.6666666666667</ele><time>2026-04-12T12:23:41.012Z</time></trkpt><trkpt lat="43.8237602" lon="12.2338885"><ele>374.3333333333333</ele><time>2026-04-12T12:23:42.014Z</time></trkpt><trkpt lat="43.8237188" lon="12.2338044"><ele>374.0</ele><time>2026-04-12T12:23:43.013Z</time></trkpt><trkpt lat="43.8236946" lon="12.2337041"><ele>373.66666666666663</ele><time>2026-04-12T12:23:44.012Z</time></trkpt><trkpt lat="43.8236581" lon="12.2335981"><ele>373.3333333333333</ele><time>2026-04-12T12:23:45.013Z</time></trkpt><trkpt lat="43.8236015" lon="12.2335043"><ele>373.0</ele><time>2026-04-12T12:23:46.012Z</time></trkpt><trkpt lat="43.8235428" lon="12.233424"><ele>371.4</ele><time>2026-04-12T12:23:47.017Z</time></trkpt><trkpt lat="43.8234695" lon="12.2333691"><ele>369.79999999999995</ele><time>2026-04-12T12:23:48.013Z</time></trkpt><trkpt lat="43.8233786" lon="12.2333395"><ele>368.2</ele><time>2026-04-12T12:23:49.015Z</time></trkpt><trkpt lat="43.823289" lon="12.2333307"><ele>366.6</ele><time>2026-04-12T12:23:50.012Z</time></trkpt><trkpt lat="43.8232104" lon="12.2333621"><ele>365.0</ele><time>2026-04-12T12:23:51.013Z</time></trkpt><trkpt lat="43.8231363" lon="12.23354"><ele>365.0</ele><time>2026-04-12T12:23:52.012Z</time></trkpt><trkpt lat="43.823072" lon="12.2337002"><ele>365.0</ele><time>2026-04-12T12:23:53.012Z</time></trkpt><trkpt lat="43.8229945" lon="12.2338218"><ele>365.0</ele><time>2026-04-12T12:23:54.012Z</time></trkpt><trkpt lat="43.8229015" lon="12.2338911"><ele>365.0</ele><time>2026-04-12T12:23:55.013Z</time></trkpt><trkpt lat="43.8227883" lon="12.2339002"><ele>365.0</ele><time>2026-04-12T12:23:56.013Z</time></trkpt><trkpt lat="43.8226684" lon="12.2338585"><ele>365.0</ele><time>2026-04-12T12:23:57.013Z</time></trkpt><trkpt lat="43.822552" lon="12.2337871"><ele>365.0</ele><time>2026-04-12T12:23:58.013Z</time></trkpt><trkpt lat="43.8224429" lon="12.2337007"><ele>365.0</ele><time>2026-04-12T12:23:59.011Z</time></trkpt><trkpt lat="43.822339" lon="12.2336051"><ele>362.25</ele><time>2026-04-12T12:24:00.016Z</time></trkpt><trkpt lat="43.8222423" lon="12.2335007"><ele>359.5</ele><time>2026-04-12T12:24:01.013Z</time></trkpt><trkpt lat="43.8221524" lon="12.2333941"><ele>356.75</ele><time>2026-04-12T12:24:02.013Z</time></trkpt><trkpt lat="43.8220691" lon="12.2332936"><ele>354.0</ele><time>2026-04-12T12:24:03.014Z</time></trkpt><trkpt lat="43.8219881" lon="12.233196"><ele>355.0</ele><time>2026-04-12T12:24:04.013Z</time></trkpt><trkpt lat="43.8219056" lon="12.2330952"><ele>356.0</ele><time>2026-04-12T12:24:05.011Z</time></trkpt><trkpt lat="43.8218209" lon="12.2329885"><ele>357.0</ele><time>2026-04-12T12:24:06.012Z</time></trkpt><trkpt lat="43.8217323" lon="12.2328835"><ele>358.0</ele><time>2026-04-12T12:24:07.012Z</time></trkpt><trkpt lat="43.8216453" lon="12.2327844"><ele>358.0</ele><time>2026-04-12T12:24:08.014Z</time></trkpt><trkpt lat="43.8215684" lon="12.2326951"><ele>358.0</ele><time>2026-04-12T12:24:09.013Z</time></trkpt><trkpt lat="43.8215074" lon="12.2326184"><ele>358.0</ele><time>2026-04-12T12:24:10.013Z</time></trkpt><trkpt lat="43.8214228" lon="12.2325015"><ele>358.0</ele><time>2026-04-12T12:24:12.012Z</time></trkpt><trkpt lat="43.8213361" lon="12.2323803"><ele>358.0</ele><time>2026-04-12T12:24:14.013Z</time></trkpt><trkpt lat="43.8212906" lon="12.2323058"><ele>359.0</ele><time>2026-04-12T12:24:15.014Z</time></trkpt><trkpt lat="43.8212435" lon="12.2322218"><ele>360.0</ele><time>2026-04-12T12:24:16.013Z</time></trkpt><trkpt lat="43.8211893" lon="12.232129"><ele>361.0</ele><time>2026-04-12T12:24:17.015Z</time></trkpt><trkpt lat="43.8211254" lon="12.2320273"><ele>362.0</ele><time>2026-04-12T12:24:18.012Z</time></trkpt><trkpt lat="43.8210524" lon="12.2319145"><ele>363.0</ele><time>2026-04-12T12:24:19.013Z</time></trkpt><trkpt lat="43.8209699" lon="12.231795"><ele>361.75</ele><time>2026-04-12T12:24:20.013Z</time></trkpt><trkpt lat="43.8208784" lon="12.23166"><ele>360.5</ele><time>2026-04-12T12:24:21.012Z</time></trkpt><trkpt lat="43.8207743" lon="12.2315134"><ele>359.25</ele><time>2026-04-12T12:24:22.014Z</time></trkpt><trkpt lat="43.8206653" lon="12.2313632"><ele>358.0</ele><time>2026-04-12T12:24:23.012Z</time></trkpt><trkpt lat="43.8205579" lon="12.2312128"><ele>358.0</ele><time>2026-04-12T12:24:24.013Z</time></trkpt><trkpt lat="43.8204622" lon="12.231072"><ele>358.0</ele><time>2026-04-12T12:24:25.013Z</time></trkpt><trkpt lat="43.8203738" lon="12.2309454"><ele>358.0</ele><time>2026-04-12T12:24:26.013Z</time></trkpt><trkpt lat="43.8202945" lon="12.2308288"><ele>358.0</ele><time>2026-04-12T12:24:27.013Z</time></trkpt><trkpt lat="43.8202176" lon="12.230719"><ele>357.4</ele><time>2026-04-12T12:24:28.012Z</time></trkpt><trkpt lat="43.8201407" lon="12.2306098"><ele>356.79999999999995</ele><time>2026-04-12T12:24:29.013Z</time></trkpt><trkpt lat="43.8200618" lon="12.2304962"><ele>356.2</ele><time>2026-04-12T12:24:30.012Z</time></trkpt><trkpt lat="43.819982" lon="12.2303803"><ele>355.6</ele><time>2026-04-12T12:24:31.012Z</time></trkpt><trkpt lat="43.819909" lon="12.2302695"><ele>355.0</ele><time>2026-04-12T12:24:32.011Z</time></trkpt><trkpt lat="43.8198448" lon="12.230165"><ele>355.0</ele><time>2026-04-12T12:24:33.013Z</time></trkpt><trkpt lat="43.8197957" lon="12.23007"><ele>355.0</ele><time>2026-04-12T12:24:34.012Z</time></trkpt><trkpt lat="43.8197567" lon="12.2299996"><ele>355.0</ele><time>2026-04-12T12:24:35.013Z</time></trkpt><trkpt lat="43.8197069" lon="12.2299312"><ele>355.0</ele><time>2026-04-12T12:24:37.013Z</time></trkpt><trkpt lat="43.8196367" lon="12.2299367"><ele>355.0</ele><time>2026-04-12T12:29:56.012Z</time></trkpt><trkpt lat="43.8195817" lon="12.2298533"><ele>355.0</ele><time>2026-04-12T12:29:57.012Z</time></trkpt><trkpt lat="43.8195067" lon="12.2297433"><ele>355.0</ele><time>2026-04-12T12:29:58.015Z</time></trkpt><trkpt lat="43.8194183" lon="12.2296367"><ele>355.0</ele><time>2026-04-12T12:29:59.014Z</time></trkpt><trkpt lat="43.8193233" lon="12.229525"><ele>355.0</ele><time>2026-04-12T12:30:00.014Z</time></trkpt><trkpt lat="43.8192267" lon="12.2294167"><ele>355.0</ele><time>2026-04-12T12:30:01.014Z</time></trkpt><trkpt lat="43.8191233" lon="12.2293167"><ele>355.0</ele><time>2026-04-12T12:30:02.014Z</time></trkpt><trkpt lat="43.8190083" lon="12.2292183"><ele>355.0</ele><time>2026-04-12T12:30:03.014Z</time></trkpt><trkpt lat="43.81888" lon="12.22912"><ele>355.0</ele><time>2026-04-12T12:30:04.014Z</time></trkpt><trkpt lat="43.8187417" lon="12.229025"><ele>355.0</ele><time>2026-04-12T12:30:05.013Z</time></trkpt><trkpt lat="43.818595" lon="12.2289183"><ele>355.66666666666663</ele><time>2026-04-12T12:30:06.013Z</time></trkpt><trkpt lat="43.8184483" lon="12.2288"><ele>356.3333333333333</ele><time>2026-04-12T12:30:07.013Z</time></trkpt><trkpt lat="43.818295" lon="12.2286867"><ele>357.0</ele><time>2026-04-12T12:30:08.013Z</time></trkpt><trkpt lat="43.8181317" lon="12.22857"><ele>357.0</ele><time>2026-04-12T12:30:09.013Z</time></trkpt><trkpt lat="43.8179667" lon="12.2284467"><ele>357.0</ele><time>2026-04-12T12:30:10.013Z</time></trkpt><trkpt lat="43.8177983" lon="12.2283283"><ele>357.0</ele><time>2026-04-12T12:30:11.014Z</time></trkpt><trkpt lat="43.8176267" lon="12.2282083"><ele>359.6666666666667</ele><time>2026-04-12T12:30:12.012Z</time></trkpt><trkpt lat="43.8174533" lon="12.22808"><ele>362.33333333333337</ele><time>2026-04-12T12:30:13.014Z</time></trkpt><trkpt lat="43.8172667" lon="12.2279517"><ele>365.0</ele><time>2026-04-12T12:30:14.013Z</time></trkpt><trkpt lat="43.8170783" lon="12.22782"><ele>365.0</ele><time>2026-04-12T12:30:15.015Z</time></trkpt><trkpt lat="43.81689" lon="12.2276917"><ele>365.0</ele><time>2026-04-12T12:30:16.014Z</time></trkpt><trkpt lat="43.8167" lon="12.227555"><ele>365.0</ele><time>2026-04-12T12:30:17.013Z</time></trkpt><trkpt lat="43.81651" lon="12.2274183"><ele>365.33333333333337</ele><time>2026-04-12T12:30:18.014Z</time></trkpt><trkpt lat="43.8163267" lon="12.2272883"><ele>365.6666666666667</ele><time>2026-04-12T12:30:19.014Z</time></trkpt><trkpt lat="43.816145" lon="12.2271583"><ele>366.0</ele><time>2026-04-12T12:30:20.016Z</time></trkpt><trkpt lat="43.8159683" lon="12.2270283"><ele>363.6666666666667</ele><time>2026-04-12T12:30:21.014Z</time></trkpt><trkpt lat="43.815785" lon="12.226895"><ele>361.33333333333337</ele><time>2026-04-12T12:30:22.013Z</time></trkpt><trkpt lat="43.8156017" lon="12.2267633"><ele>359.0</ele><time>2026-04-12T12:30:23.014Z</time></trkpt><trkpt lat="43.8154183" lon="12.2266367"><ele>359.0</ele><time>2026-04-12T12:30:24.014Z</time></trkpt><trkpt lat="43.8152417" lon="12.22651"><ele>359.0</ele><time>2026-04-12T12:30:25.013Z</time></trkpt><trkpt lat="43.815065" lon="12.2263833"><ele>359.0</ele><time>2026-04-12T12:30:26.013Z</time></trkpt><trkpt lat="43.8148867" lon="12.22626"><ele>360.0</ele><time>2026-04-12T12:30:27.014Z</time></trkpt><trkpt lat="43.8147017" lon="12.22613"><ele>361.0</ele><time>2026-04-12T12:30:28.013Z</time></trkpt><trkpt lat="43.8145167" lon="12.2260033"><ele>362.0</ele><time>2026-04-12T12:30:29.012Z</time></trkpt><trkpt lat="43.814335" lon="12.2258783"><ele>362.33333333333337</ele><time>2026-04-12T12:30:30.013Z</time></trkpt><trkpt lat="43.8141583" lon="12.2257567"><ele>362.6666666666667</ele><time>2026-04-12T12:30:31.014Z</time></trkpt><trkpt lat="43.813985" lon="12.225635"><ele>363.0</ele><time>2026-04-12T12:30:32.013Z</time></trkpt><trkpt lat="43.8138167" lon="12.2255067"><ele>363.0</ele><time>2026-04-12T12:30:33.013Z</time></trkpt><trkpt lat="43.813645" lon="12.225375"><ele>363.0</ele><time>2026-04-12T12:30:34.013Z</time></trkpt><trkpt lat="43.8134717" lon="12.2252417"><ele>363.0</ele><time>2026-04-12T12:30:35.01Z</time></trkpt><trkpt lat="43.8133" lon="12.2251167"><ele>363.0</ele><time>2026-04-12T12:30:36.015Z</time></trkpt><trkpt lat="43.813125" lon="12.2249917"><ele>363.0</ele><time>2026-04-12T12:30:37.012Z</time></trkpt><trkpt lat="43.8129483" lon="12.224865"><ele>363.0</ele><time>2026-04-12T12:30:38.012Z</time></trkpt><trkpt lat="43.81277" lon="12.2247383"><ele>366.6666666666667</ele><time>2026-04-12T12:30:39.013Z</time></trkpt><trkpt lat="43.8125933" lon="12.2246133"><ele>370.33333333333337</ele><time>2026-04-12T12:30:40.013Z</time></trkpt><trkpt lat="43.8124183" lon="12.2244917"><ele>374.0</ele><time>2026-04-12T12:30:41.013Z</time></trkpt><trkpt lat="43.8122417" lon="12.22437"><ele>374.0</ele><time>2026-04-12T12:30:42.013Z</time></trkpt><trkpt lat="43.8120683" lon="12.2242517"><ele>374.0</ele><time>2026-04-12T12:30:43.013Z</time></trkpt><trkpt lat="43.8118983" lon="12.224125"><ele>374.0</ele><time>2026-04-12T12:30:44.014Z</time></trkpt><trkpt lat="43.8117233" lon="12.2239967"><ele>378.6666666666667</ele><time>2026-04-12T12:30:45.014Z</time></trkpt><trkpt lat="43.8115483" lon="12.2238533"><ele>383.33333333333337</ele><time>2026-04-12T12:30:46.012Z</time></trkpt><trkpt lat="43.811375" lon="12.2237"><ele>388.0</ele><time>2026-04-12T12:30:47.014Z</time></trkpt><trkpt lat="43.8112033" lon="12.2235367"><ele>388.0</ele><time>2026-04-12T12:30:48.013Z</time></trkpt><trkpt lat="43.8110267" lon="12.22337"><ele>388.0</ele><time>2026-04-12T12:30:49.012Z</time></trkpt><trkpt lat="43.81085" lon="12.2232067"><ele>388.0</ele><time>2026-04-12T12:30:50.013Z</time></trkpt><trkpt lat="43.8106667" lon="12.223035"><ele>388.6666666666667</ele><time>2026-04-12T12:30:51.012Z</time></trkpt><trkpt lat="43.81048" lon="12.2228583"><ele>389.33333333333337</ele><time>2026-04-12T12:30:52.012Z</time></trkpt><trkpt lat="43.8102983" lon="12.2226817"><ele>390.0</ele><time>2026-04-12T12:30:53.013Z</time></trkpt><trkpt lat="43.8101217" lon="12.222505"><ele>390.66666666666663</ele><time>2026-04-12T12:30:54.014Z</time></trkpt><trkpt lat="43.8099383" lon="12.2223317"><ele>391.3333333333333</ele><time>2026-04-12T12:30:55.015Z</time></trkpt><trkpt lat="43.8097583" lon="12.2221483"><ele>392.0</ele><time>2026-04-12T12:30:56.013Z</time></trkpt><trkpt lat="43.8095767" lon="12.221965"><ele>392.0</ele><time>2026-04-12T12:30:57.012Z</time></trkpt><trkpt lat="43.8093917" lon="12.2217817"><ele>392.0</ele><time>2026-04-12T12:30:58.013Z</time></trkpt><trkpt lat="43.8092067" lon="12.2215983"><ele>390.0</ele><time>2026-04-12T12:30:59.013Z</time></trkpt><trkpt lat="43.8090233" lon="12.2214117"><ele>388.0</ele><time>2026-04-12T12:31:00.013Z</time></trkpt><trkpt lat="43.8088383" lon="12.221225"><ele>388.0</ele><time>2026-04-12T12:31:01.012Z</time></trkpt><trkpt lat="43.8086517" lon="12.22104"><ele>388.0</ele><time>2026-04-12T12:31:02.014Z</time></trkpt><trkpt lat="43.8084717" lon="12.2208633"><ele>383.6666666666667</ele><time>2026-04-12T12:31:03.013Z</time></trkpt><trkpt lat="43.80829" lon="12.2206967"><ele>379.33333333333337</ele><time>2026-04-12T12:31:04.012Z</time></trkpt><trkpt lat="43.8081017" lon="12.2205617"><ele>375.0</ele><time>2026-04-12T12:31:05.013Z</time></trkpt><trkpt lat="43.8079" lon="12.2204367"><ele>373.3333333333333</ele><time>2026-04-12T12:31:06.011Z</time></trkpt><trkpt lat="43.807695" lon="12.2203283"><ele>371.66666666666663</ele><time>2026-04-12T12:31:07.012Z</time></trkpt><trkpt lat="43.807485" lon="12.22022"><ele>370.0</ele><time>2026-04-12T12:31:08.013Z</time></trkpt><trkpt lat="43.8072733" lon="12.2201067"><ele>370.0</ele><time>2026-04-12T12:31:09.012Z</time></trkpt><trkpt lat="43.8070633" lon="12.219985"><ele>370.0</ele><time>2026-04-12T12:31:10.013Z</time></trkpt><trkpt lat="43.8068533" lon="12.2198617"><ele>374.5</ele><time>2026-04-12T12:31:11.012Z</time></trkpt><trkpt lat="43.8066383" lon="12.2197383"><ele>379.0</ele><time>2026-04-12T12:31:12.011Z</time></trkpt><trkpt lat="43.80642" lon="12.219615"><ele>379.0</ele><time>2026-04-12T12:31:13.011Z</time></trkpt><trkpt lat="43.8062017" lon="12.2194933"><ele>379.0</ele><time>2026-04-12T12:31:14.011Z</time></trkpt><trkpt lat="43.8059833" lon="12.2193717"><ele>379.0</ele><time>2026-04-12T12:31:15.013Z</time></trkpt><trkpt lat="43.8057667" lon="12.2192517"><ele>379.0</ele><time>2026-04-12T12:31:16.012Z</time></trkpt><trkpt lat="43.8055483" lon="12.219135"><ele>379.0</ele><time>2026-04-12T12:31:17.012Z</time></trkpt><trkpt lat="43.80533" lon="12.2190217"><ele>379.0</ele><time>2026-04-12T12:31:18.011Z</time></trkpt><trkpt lat="43.80511" lon="12.2189133"><ele>385.3333333333333</ele><time>2026-04-12T12:31:19.013Z</time></trkpt><trkpt lat="43.804905" lon="12.2188067"><ele>391.66666666666663</ele><time>2026-04-12T12:31:20.011Z</time></trkpt><trkpt lat="43.8047133" lon="12.2187033"><ele>398.0</ele><time>2026-04-12T12:31:21.012Z</time></trkpt><trkpt lat="43.8045383" lon="12.21861"><ele>398.0</ele><time>2026-04-12T12:31:22.011Z</time></trkpt><trkpt lat="43.8043767" lon="12.2185183"><ele>398.0</ele><time>2026-04-12T12:31:23.013Z</time></trkpt><trkpt lat="43.8042283" lon="12.2184133"><ele>398.0</ele><time>2026-04-12T12:31:24.011Z</time></trkpt><trkpt lat="43.8041017" lon="12.2182867"><ele>395.25</ele><time>2026-04-12T12:31:25.014Z</time></trkpt><trkpt lat="43.8039883" lon="12.218135"><ele>392.5</ele><time>2026-04-12T12:31:26.012Z</time></trkpt><trkpt lat="43.803905" lon="12.2179717"><ele>389.75</ele><time>2026-04-12T12:31:27.013Z</time></trkpt><trkpt lat="43.8038417" lon="12.2178"><ele>387.0</ele><time>2026-04-12T12:31:28.013Z</time></trkpt><trkpt lat="43.8038017" lon="12.21761"><ele>387.0</ele><time>2026-04-12T12:31:29.012Z</time></trkpt><trkpt lat="43.8037917" lon="12.217405"><ele>387.0</ele><time>2026-04-12T12:31:30.012Z</time></trkpt><trkpt lat="43.8038017" lon="12.2171783"><ele>387.0</ele><time>2026-04-12T12:31:31.013Z</time></trkpt><trkpt lat="43.8038217" lon="12.2169283"><ele>387.66666666666663</ele><time>2026-04-12T12:31:32.013Z</time></trkpt><trkpt lat="43.8038483" lon="12.21667"><ele>388.3333333333333</ele><time>2026-04-12T12:31:33.013Z</time></trkpt><trkpt lat="43.8038867" lon="12.2164"><ele>389.0</ele><time>2026-04-12T12:31:34.012Z</time></trkpt><trkpt lat="43.8039267" lon="12.2161183"><ele>389.0</ele><time>2026-04-12T12:31:35.015Z</time></trkpt><trkpt lat="43.80397" lon="12.2158417"><ele>389.0</ele><time>2026-04-12T12:31:36.013Z</time></trkpt><trkpt lat="43.8040017" lon="12.21557"><ele>389.0</ele><time>2026-04-12T12:31:37.013Z</time></trkpt><trkpt lat="43.8040233" lon="12.21529"><ele>389.0</ele><time>2026-04-12T12:31:38.015Z</time></trkpt><trkpt lat="43.8040367" lon="12.215015"><ele>389.0</ele><time>2026-04-12T12:31:39.011Z</time></trkpt><trkpt lat="43.8040467" lon="12.2147433"><ele>389.0</ele><time>2026-04-12T12:31:40.013Z</time></trkpt><trkpt lat="43.80405" lon="12.2144767"><ele>389.0</ele><time>2026-04-12T12:31:41.012Z</time></trkpt><trkpt lat="43.8040517" lon="12.2142167"><ele>389.0</ele><time>2026-04-12T12:31:42.011Z</time></trkpt><trkpt lat="43.80406" lon="12.2139733"><ele>389.0</ele><time>2026-04-12T12:31:43.015Z</time></trkpt><trkpt lat="43.8040883" lon="12.2137533"><ele>388.0</ele><time>2026-04-12T12:31:44.011Z</time></trkpt><trkpt lat="43.8041417" lon="12.21353"><ele>387.0</ele><time>2026-04-12T12:31:45.013Z</time></trkpt><trkpt lat="43.804225" lon="12.2133167"><ele>386.0</ele><time>2026-04-12T12:31:46.012Z</time></trkpt><trkpt lat="43.804325" lon="12.2131117"><ele>390.66666666666663</ele><time>2026-04-12T12:31:47.011Z</time></trkpt><trkpt lat="43.80443" lon="12.2128967"><ele>395.33333333333337</ele><time>2026-04-12T12:31:48.018Z</time></trkpt><trkpt lat="43.804535" lon="12.212685"><ele>400.0</ele><time>2026-04-12T12:31:49.013Z</time></trkpt><trkpt lat="43.8046317" lon="12.21247"><ele>398.0</ele><time>2026-04-12T12:31:50.01Z</time></trkpt><trkpt lat="43.8047333" lon="12.21226"><ele>396.0</ele><time>2026-04-12T12:31:51.013Z</time></trkpt><trkpt lat="43.8048383" lon="12.21204"><ele>394.0</ele><time>2026-04-12T12:31:52.012Z</time></trkpt><trkpt lat="43.8049483" lon="12.2118183"><ele>394.0</ele><time>2026-04-12T12:31:53.012Z</time></trkpt><trkpt lat="43.80506" lon="12.2115933"><ele>394.0</ele><time>2026-04-12T12:31:54.014Z</time></trkpt><trkpt lat="43.8051733" lon="12.2113733"><ele>394.0</ele><time>2026-04-12T12:31:55.012Z</time></trkpt><trkpt lat="43.8052917" lon="12.2111483"><ele>396.0</ele><time>2026-04-12T12:31:56.011Z</time></trkpt><trkpt lat="43.80541" lon="12.210925"><ele>398.0</ele><time>2026-04-12T12:31:57.016Z</time></trkpt><trkpt lat="43.80553" lon="12.2106983"><ele>400.0</ele><time>2026-04-12T12:31:58.012Z</time></trkpt><trkpt lat="43.805645" lon="12.210465"><ele>400.0</ele><time>2026-04-12T12:31:59.011Z</time></trkpt><trkpt lat="43.80575" lon="12.2102317"><ele>400.0</ele><time>2026-04-12T12:32:00.01Z</time></trkpt><trkpt lat="43.8058383" lon="12.2099817"><ele>400.0</ele><time>2026-04-12T12:32:01.012Z</time></trkpt><trkpt lat="43.80591" lon="12.2097183"><ele>397.6666666666667</ele><time>2026-04-12T12:32:02.012Z</time></trkpt><trkpt lat="43.805975" lon="12.20946"><ele>395.33333333333337</ele><time>2026-04-12T12:32:03.014Z</time></trkpt><trkpt lat="43.8060367" lon="12.209205"><ele>393.0</ele><time>2026-04-12T12:32:04.012Z</time></trkpt><trkpt lat="43.8060883" lon="12.2089433"><ele>399.66666666666663</ele><time>2026-04-12T12:32:05.012Z</time></trkpt><trkpt lat="43.80613" lon="12.2086717"><ele>406.3333333333333</ele><time>2026-04-12T12:32:06.013Z</time></trkpt><trkpt lat="43.8061517" lon="12.2084033"><ele>413.0</ele><time>2026-04-12T12:32:07.012Z</time></trkpt><trkpt lat="43.8061467" lon="12.20814"><ele>414.0</ele><time>2026-04-12T12:32:08.013Z</time></trkpt><trkpt lat="43.8061317" lon="12.2078767"><ele>415.0</ele><time>2026-04-12T12:32:09.011Z</time></trkpt><trkpt lat="43.8061217" lon="12.2076133"><ele>416.0</ele><time>2026-04-12T12:32:10.012Z</time></trkpt><trkpt lat="43.8061117" lon="12.2073383"><ele>415.0</ele><time>2026-04-12T12:32:11.011Z</time></trkpt><trkpt lat="43.806115" lon="12.207065"><ele>414.0</ele><time>2026-04-12T12:32:12.013Z</time></trkpt><trkpt lat="43.806125" lon="12.2067933"><ele>413.0</ele><time>2026-04-12T12:32:13.013Z</time></trkpt><trkpt lat="43.8061617" lon="12.2065117"><ele>412.3333333333333</ele><time>2026-04-12T12:32:14.014Z</time></trkpt><trkpt lat="43.80621" lon="12.2062317"><ele>411.66666666666663</ele><time>2026-04-12T12:32:15.011Z</time></trkpt><trkpt lat="43.80627" lon="12.2059583"><ele>411.0</ele><time>2026-04-12T12:32:16.013Z</time></trkpt><trkpt lat="43.806335" lon="12.2056867"><ele>409.33333333333337</ele><time>2026-04-12T12:32:17.012Z</time></trkpt><trkpt lat="43.8064" lon="12.2054167"><ele>407.6666666666667</ele><time>2026-04-12T12:32:18.013Z</time></trkpt><trkpt lat="43.8064583" lon="12.2051483"><ele>406.0</ele><time>2026-04-12T12:32:19.013Z</time></trkpt><trkpt lat="43.80652" lon="12.2048867"><ele>406.6666666666667</ele><time>2026-04-12T12:32:20.013Z</time></trkpt><trkpt lat="43.8065833" lon="12.2046333"><ele>407.33333333333337</ele><time>2026-04-12T12:32:21.012Z</time></trkpt><trkpt lat="43.8066433" lon="12.2043967"><ele>408.0</ele><time>2026-04-12T12:32:22.014Z</time></trkpt><trkpt lat="43.8066867" lon="12.20417"><ele>408.66666666666663</ele><time>2026-04-12T12:32:23.014Z</time></trkpt><trkpt lat="43.8067067" lon="12.2039533"><ele>409.3333333333333</ele><time>2026-04-12T12:32:24.013Z</time></trkpt><trkpt lat="43.8067067" lon="12.2037333"><ele>410.0</ele><time>2026-04-12T12:32:25.013Z</time></trkpt><trkpt lat="43.80669" lon="12.20351"><ele>410.0</ele><time>2026-04-12T12:32:26.012Z</time></trkpt><trkpt lat="43.8066633" lon="12.2032783"><ele>410.0</ele><time>2026-04-12T12:32:27.012Z</time></trkpt><trkpt lat="43.8066433" lon="12.2030367"><ele>410.0</ele><time>2026-04-12T12:32:28.012Z</time></trkpt><trkpt lat="43.8066367" lon="12.2027817"><ele>413.3333333333333</ele><time>2026-04-12T12:32:29.012Z</time></trkpt><trkpt lat="43.806655" lon="12.2025183"><ele>416.66666666666663</ele><time>2026-04-12T12:32:30.012Z</time></trkpt><trkpt lat="43.8066833" lon="12.2022533"><ele>420.0</ele><time>2026-04-12T12:32:31.013Z</time></trkpt><trkpt lat="43.8067133" lon="12.201985"><ele>420.0</ele><time>2026-04-12T12:32:32.012Z</time></trkpt><trkpt lat="43.80675" lon="12.20172"><ele>420.0</ele><time>2026-04-12T12:32:33.013Z</time></trkpt><trkpt lat="43.8067833" lon="12.2014517"><ele>420.0</ele><time>2026-04-12T12:32:34.011Z</time></trkpt><trkpt lat="43.8068133" lon="12.201175"><ele>426.0</ele><time>2026-04-12T12:32:35.012Z</time></trkpt><trkpt lat="43.8068317" lon="12.200885"><ele>432.0</ele><time>2026-04-12T12:32:36.012Z</time></trkpt><trkpt lat="43.8068483" lon="12.20059"><ele>438.0</ele><time>2026-04-12T12:32:37.013Z</time></trkpt><trkpt lat="43.8068583" lon="12.2002883"><ele>438.0</ele><time>2026-04-12T12:32:38.011Z</time></trkpt><trkpt lat="43.80688" lon="12.1999867"><ele>438.0</ele><time>2026-04-12T12:32:39.014Z</time></trkpt><trkpt lat="43.8069067" lon="12.1996767"><ele>438.0</ele><time>2026-04-12T12:32:40.014Z</time></trkpt><trkpt lat="43.80693" lon="12.19937"><ele>429.5</ele><time>2026-04-12T12:32:41.011Z</time></trkpt><trkpt lat="43.8069483" lon="12.1990533"><ele>421.0</ele><time>2026-04-12T12:32:42.013Z</time></trkpt><trkpt lat="43.80697" lon="12.19874"><ele>419.33333333333337</ele><time>2026-04-12T12:32:43.013Z</time></trkpt><trkpt lat="43.80699" lon="12.1984283"><ele>417.66666666666663</ele><time>2026-04-12T12:32:44.015Z</time></trkpt><trkpt lat="43.8070133" lon="12.1981283"><ele>416.0</ele><time>2026-04-12T12:32:45.012Z</time></trkpt><trkpt lat="43.8070317" lon="12.1978267"><ele>415.66666666666663</ele><time>2026-04-12T12:32:46.014Z</time></trkpt><trkpt lat="43.8070267" lon="12.19754"><ele>415.33333333333337</ele><time>2026-04-12T12:32:47.012Z</time></trkpt><trkpt lat="43.8069983" lon="12.197265"><ele>415.0</ele><time>2026-04-12T12:32:48.012Z</time></trkpt><trkpt lat="43.8069467" lon="12.1969883"><ele>418.33333333333337</ele><time>2026-04-12T12:32:49.012Z</time></trkpt><trkpt lat="43.8068883" lon="12.19671"><ele>421.66666666666663</ele><time>2026-04-12T12:32:50.012Z</time></trkpt><trkpt lat="43.8068233" lon="12.1964233"><ele>425.0</ele><time>2026-04-12T12:32:51.013Z</time></trkpt><trkpt lat="43.80676" lon="12.19613"><ele>425.0</ele><time>2026-04-12T12:32:52.013Z</time></trkpt><trkpt lat="43.8066967" lon="12.19584"><ele>425.0</ele><time>2026-04-12T12:32:53.011Z</time></trkpt><trkpt lat="43.806635" lon="12.1955433"><ele>425.0</ele><time>2026-04-12T12:32:54.012Z</time></trkpt><trkpt lat="43.8065717" lon="12.195245"><ele>426.66666666666663</ele><time>2026-04-12T12:32:55.012Z</time></trkpt><trkpt lat="43.806505" lon="12.1949483"><ele>428.33333333333337</ele><time>2026-04-12T12:32:56.014Z</time></trkpt><trkpt lat="43.8064383" lon="12.19466"><ele>430.0</ele><time>2026-04-12T12:32:57.014Z</time></trkpt><trkpt lat="43.8063783" lon="12.1944033"><ele>434.0</ele><time>2026-04-12T12:32:58.013Z</time></trkpt><trkpt lat="43.8063217" lon="12.1941533"><ele>438.0</ele><time>2026-04-12T12:32:59.013Z</time></trkpt><trkpt lat="43.8062783" lon="12.1939133"><ele>442.0</ele><time>2026-04-12T12:33:00.015Z</time></trkpt><trkpt lat="43.8062617" lon="12.19367"><ele>442.0</ele><time>2026-04-12T12:33:01.013Z</time></trkpt><trkpt lat="43.8062717" lon="12.1934217"><ele>442.0</ele><time>2026-04-12T12:33:02.012Z</time></trkpt><trkpt lat="43.8062917" lon="12.1931767"><ele>442.0</ele><time>2026-04-12T12:33:03.011Z</time></trkpt><trkpt lat="43.8063" lon="12.192935"><ele>442.0</ele><time>2026-04-12T12:33:04.012Z</time></trkpt><trkpt lat="43.8062817" lon="12.1926933"><ele>442.0</ele><time>2026-04-12T12:33:05.012Z</time></trkpt><trkpt lat="43.8062233" lon="12.192455"><ele>442.0</ele><time>2026-04-12T12:33:06.012Z</time></trkpt><trkpt lat="43.8061517" lon="12.1922167"><ele>442.0</ele><time>2026-04-12T12:33:07.012Z</time></trkpt><trkpt lat="43.8060817" lon="12.1919783"><ele>442.0</ele><time>2026-04-12T12:33:08.012Z</time></trkpt><trkpt lat="43.8060133" lon="12.191735"><ele>442.0</ele><time>2026-04-12T12:33:09.013Z</time></trkpt><trkpt lat="43.8059483" lon="12.1914883"><ele>438.6666666666667</ele><time>2026-04-12T12:33:10.013Z</time></trkpt><trkpt lat="43.8058783" lon="12.1912417"><ele>435.33333333333337</ele><time>2026-04-12T12:33:11.011Z</time></trkpt><trkpt lat="43.80581" lon="12.1909933"><ele>432.0</ele><time>2026-04-12T12:33:12.012Z</time></trkpt><trkpt lat="43.8057383" lon="12.1907433"><ele>433.0</ele><time>2026-04-12T12:33:13.012Z</time></trkpt><trkpt lat="43.805665" lon="12.1904917"><ele>434.0</ele><time>2026-04-12T12:33:14.012Z</time></trkpt><trkpt lat="43.8055933" lon="12.190235"><ele>435.0</ele><time>2026-04-12T12:33:15.013Z</time></trkpt><trkpt lat="43.8055183" lon="12.1899767"><ele>439.66666666666663</ele><time>2026-04-12T12:33:16.014Z</time></trkpt><trkpt lat="43.8054483" lon="12.18972"><ele>444.3333333333333</ele><time>2026-04-12T12:33:17.011Z</time></trkpt><trkpt lat="43.8053767" lon="12.1894683"><ele>449.0</ele><time>2026-04-12T12:33:18.013Z</time></trkpt><trkpt lat="43.8053083" lon="12.18922"><ele>444.3333333333333</ele><time>2026-04-12T12:33:19.013Z</time></trkpt><trkpt lat="43.8052367" lon="12.1889733"><ele>439.66666666666663</ele><time>2026-04-12T12:33:20.012Z</time></trkpt><trkpt lat="43.8051617" lon="12.1887267"><ele>435.0</ele><time>2026-04-12T12:33:21.012Z</time></trkpt><trkpt lat="43.80509" lon="12.18848"><ele>435.0</ele><time>2026-04-12T12:33:22.013Z</time></trkpt><trkpt lat="43.80502" lon="12.1882317"><ele>435.0</ele><time>2026-04-12T12:33:23.011Z</time></trkpt><trkpt lat="43.8049467" lon="12.18798"><ele>435.0</ele><time>2026-04-12T12:33:24.012Z</time></trkpt><trkpt lat="43.804875" lon="12.1877233"><ele>439.0</ele><time>2026-04-12T12:33:25.012Z</time></trkpt><trkpt lat="43.8048017" lon="12.1874667"><ele>443.0</ele><time>2026-04-12T12:33:26.011Z</time></trkpt><trkpt lat="43.8047262" lon="12.1872048"><ele>447.0</ele><time>2026-04-12T12:33:27.018Z</time></trkpt><trkpt lat="43.8046512" lon="12.1869411"><ele>452.33333333333337</ele><time>2026-04-12T12:33:28.011Z</time></trkpt><trkpt lat="43.804577" lon="12.1866755"><ele>457.6666666666667</ele><time>2026-04-12T12:33:29.014Z</time></trkpt><trkpt lat="43.8045021" lon="12.1864089"><ele>463.0</ele><time>2026-04-12T12:33:30.012Z</time></trkpt><trkpt lat="43.8044283" lon="12.1861432"><ele>467.0</ele><time>2026-04-12T12:33:31.013Z</time></trkpt><trkpt lat="43.8043537" lon="12.1858758"><ele>471.0</ele><time>2026-04-12T12:33:32.013Z</time></trkpt><trkpt lat="43.8042763" lon="12.1856043"><ele>475.0</ele><time>2026-04-12T12:33:33.015Z</time></trkpt><trkpt lat="43.804198" lon="12.1853323"><ele>468.0</ele><time>2026-04-12T12:33:34.015Z</time></trkpt><trkpt lat="43.8041207" lon="12.185059"><ele>461.0</ele><time>2026-04-12T12:33:35.013Z</time></trkpt><trkpt lat="43.8040426" lon="12.1847869"><ele>454.0</ele><time>2026-04-12T12:33:36.011Z</time></trkpt><trkpt lat="43.8039634" lon="12.1845139"><ele>454.0</ele><time>2026-04-12T12:33:37.012Z</time></trkpt><trkpt lat="43.8038857" lon="12.1842392"><ele>454.0</ele><time>2026-04-12T12:33:38.012Z</time></trkpt><trkpt lat="43.8038089" lon="12.1839643"><ele>454.0</ele><time>2026-04-12T12:33:39.011Z</time></trkpt><trkpt lat="43.8037329" lon="12.1836887"><ele>454.33333333333337</ele><time>2026-04-12T12:33:40.012Z</time></trkpt><trkpt lat="43.8036535" lon="12.1834163"><ele>454.66666666666663</ele><time>2026-04-12T12:33:41.011Z</time></trkpt><trkpt lat="43.8035746" lon="12.1831455"><ele>455.0</ele><time>2026-04-12T12:33:42.017Z</time></trkpt><trkpt lat="43.8034976" lon="12.1828746"><ele>454.0</ele><time>2026-04-12T12:33:43.013Z</time></trkpt><trkpt lat="43.80342" lon="12.1825997"><ele>453.0</ele><time>2026-04-12T12:33:44.011Z</time></trkpt><trkpt lat="43.8033467" lon="12.1823218"><ele>452.0</ele><time>2026-04-12T12:33:45.014Z</time></trkpt><trkpt lat="43.80327" lon="12.1820533"><ele>452.0</ele><time>2026-04-12T12:33:46.014Z</time></trkpt><trkpt lat="43.803192" lon="12.1817971"><ele>452.0</ele><time>2026-04-12T12:33:47.013Z</time></trkpt><trkpt lat="43.8031081" lon="12.1815587"><ele>452.0</ele><time>2026-04-12T12:33:48.013Z</time></trkpt><trkpt lat="43.8029914" lon="12.1813444"><ele>450.66666666666663</ele><time>2026-04-12T12:33:49.015Z</time></trkpt><trkpt lat="43.8028523" lon="12.1811455"><ele>449.33333333333337</ele><time>2026-04-12T12:33:50.011Z</time></trkpt><trkpt lat="43.8026954" lon="12.180949"><ele>448.0</ele><time>2026-04-12T12:33:51.013Z</time></trkpt><trkpt lat="43.8025324" lon="12.1807512"><ele>455.0</ele><time>2026-04-12T12:33:52.013Z</time></trkpt><trkpt lat="43.8023611" lon="12.1805462"><ele>462.0</ele><time>2026-04-12T12:33:53.012Z</time></trkpt><trkpt lat="43.8021884" lon="12.1803332"><ele>462.0</ele><time>2026-04-12T12:33:54.012Z</time></trkpt><trkpt lat="43.8020148" lon="12.180109"><ele>462.0</ele><time>2026-04-12T12:33:55.016Z</time></trkpt><trkpt lat="43.801838" lon="12.1798842"><ele>460.5</ele><time>2026-04-12T12:33:56.011Z</time></trkpt><trkpt lat="43.801665" lon="12.1796573"><ele>459.0</ele><time>2026-04-12T12:33:57.011Z</time></trkpt><trkpt lat="43.8014919" lon="12.17944"><ele>459.0</ele><time>2026-04-12T12:33:58.012Z</time></trkpt><trkpt lat="43.8013213" lon="12.179227"><ele>459.0</ele><time>2026-04-12T12:33:59.012Z</time></trkpt><trkpt lat="43.8011508" lon="12.179012"><ele>459.66666666666663</ele><time>2026-04-12T12:34:00.012Z</time></trkpt><trkpt lat="43.8009843" lon="12.1787973"><ele>460.3333333333333</ele><time>2026-04-12T12:34:01.013Z</time></trkpt><trkpt lat="43.8008237" lon="12.1786001"><ele>461.0</ele><time>2026-04-12T12:34:02.012Z</time></trkpt><trkpt lat="43.8006748" lon="12.1784224"><ele>461.0</ele><time>2026-04-12T12:34:03.012Z</time></trkpt><trkpt lat="43.8005539" lon="12.1782505"><ele>461.0</ele><time>2026-04-12T12:34:04.013Z</time></trkpt><trkpt lat="43.8004697" lon="12.1780661"><ele>461.0</ele><time>2026-04-12T12:34:05.012Z</time></trkpt><trkpt lat="43.8004314" lon="12.1778678"><ele>463.66666666666663</ele><time>2026-04-12T12:34:06.012Z</time></trkpt><trkpt lat="43.8004133" lon="12.1776504"><ele>466.33333333333337</ele><time>2026-04-12T12:34:07.012Z</time></trkpt><trkpt lat="43.8003889" lon="12.1774185"><ele>469.0</ele><time>2026-04-12T12:34:08.012Z</time></trkpt><trkpt lat="43.8003448" lon="12.1771792"><ele>471.6666666666667</ele><time>2026-04-12T12:34:09.015Z</time></trkpt><trkpt lat="43.8002797" lon="12.1769365"><ele>474.33333333333337</ele><time>2026-04-12T12:34:10.013Z</time></trkpt><trkpt lat="43.800199" lon="12.1766887"><ele>477.0</ele><time>2026-04-12T12:34:11.01Z</time></trkpt><trkpt lat="43.8001116" lon="12.176432"><ele>478.66666666666663</ele><time>2026-04-12T12:34:12.01Z</time></trkpt><trkpt lat="43.8000208" lon="12.176167"><ele>480.3333333333333</ele><time>2026-04-12T12:34:13.013Z</time></trkpt><trkpt lat="43.7999309" lon="12.1758954"><ele>482.0</ele><time>2026-04-12T12:34:14.011Z</time></trkpt><trkpt lat="43.7998365" lon="12.175618"><ele>489.0</ele><time>2026-04-12T12:34:15.012Z</time></trkpt><trkpt lat="43.7997388" lon="12.1753356"><ele>496.0</ele><time>2026-04-12T12:34:16.011Z</time></trkpt><trkpt lat="43.799638" lon="12.175048"><ele>499.5</ele><time>2026-04-12T12:34:17.012Z</time></trkpt><trkpt lat="43.7995385" lon="12.1747563"><ele>503.0</ele><time>2026-04-12T12:34:18.014Z</time></trkpt><trkpt lat="43.7994431" lon="12.1744649"><ele>503.0</ele><time>2026-04-12T12:34:19.011Z</time></trkpt><trkpt lat="43.7993448" lon="12.1741757"><ele>503.0</ele><time>2026-04-12T12:34:20.014Z</time></trkpt><trkpt lat="43.7992376" lon="12.1738934"><ele>493.0</ele><time>2026-04-12T12:34:21.012Z</time></trkpt><trkpt lat="43.7991159" lon="12.1736207"><ele>483.0</ele><time>2026-04-12T12:34:22.014Z</time></trkpt><trkpt lat="43.7989781" lon="12.1733596"><ele>494.5</ele><time>2026-04-12T12:34:23.013Z</time></trkpt><trkpt lat="43.7988318" lon="12.1731028"><ele>506.0</ele><time>2026-04-12T12:34:24.012Z</time></trkpt><trkpt lat="43.7986876" lon="12.1728443"><ele>506.0</ele><time>2026-04-12T12:34:25.012Z</time></trkpt><trkpt lat="43.7985399" lon="12.1725852"><ele>506.0</ele><time>2026-04-12T12:34:26.012Z</time></trkpt><trkpt lat="43.7983934" lon="12.1723217"><ele>496.0</ele><time>2026-04-12T12:34:27.013Z</time></trkpt><trkpt lat="43.7982428" lon="12.1720618"><ele>486.0</ele><time>2026-04-12T12:34:28.013Z</time></trkpt><trkpt lat="43.7980961" lon="12.1718018"><ele>486.0</ele><time>2026-04-12T12:34:29.013Z</time></trkpt><trkpt lat="43.7979521" lon="12.1715485"><ele>486.0</ele><time>2026-04-12T12:34:30.016Z</time></trkpt><trkpt lat="43.79781" lon="12.1713042"><ele>484.33333333333337</ele><time>2026-04-12T12:34:31.014Z</time></trkpt><trkpt lat="43.7976741" lon="12.1710696"><ele>482.6666666666667</ele><time>2026-04-12T12:34:32.011Z</time></trkpt><trkpt lat="43.797543" lon="12.1708484"><ele>481.0</ele><time>2026-04-12T12:34:33.012Z</time></trkpt><trkpt lat="43.7974225" lon="12.1706407"><ele>492.6666666666667</ele><time>2026-04-12T12:34:34.011Z</time></trkpt><trkpt lat="43.7973174" lon="12.1704463"><ele>504.33333333333337</ele><time>2026-04-12T12:34:35.013Z</time></trkpt><trkpt lat="43.7972251" lon="12.170249"><ele>516.0</ele><time>2026-04-12T12:34:36.011Z</time></trkpt><trkpt lat="43.7971438" lon="12.1700431"><ele>520.5</ele><time>2026-04-12T12:34:37.012Z</time></trkpt><trkpt lat="43.7970737" lon="12.1698446"><ele>525.0</ele><time>2026-04-12T12:34:38.012Z</time></trkpt><trkpt lat="43.7970173" lon="12.1696693"><ele>529.5</ele><time>2026-04-12T12:34:39.013Z</time></trkpt><trkpt lat="43.7969664" lon="12.1695241"><ele>534.0</ele><time>2026-04-12T12:34:40.011Z</time></trkpt><trkpt lat="43.79692" lon="12.1694083"><ele>534.0</ele><time>2026-04-12T12:34:41.013Z</time></trkpt><trkpt lat="43.7968707" lon="12.1693196"><ele>534.0</ele><time>2026-04-12T12:34:42.016Z</time></trkpt><trkpt lat="43.7968102" lon="12.1692595"><ele>534.0</ele><time>2026-04-12T12:34:43.01Z</time></trkpt><trkpt lat="43.796739" lon="12.1692269"><ele>534.0</ele><time>2026-04-12T12:34:44.011Z</time></trkpt><trkpt lat="43.7966537" lon="12.1692168"><ele>534.0</ele><time>2026-04-12T12:34:45.013Z</time></trkpt><trkpt lat="43.7965472" lon="12.1692335"><ele>534.0</ele><time>2026-04-12T12:34:46.013Z</time></trkpt><trkpt lat="43.7963973" lon="12.1692724"><ele>519.3333333333334</ele><time>2026-04-12T12:34:47.014Z</time></trkpt><trkpt lat="43.7962291" lon="12.1693118"><ele>504.6666666666667</ele><time>2026-04-12T12:34:48.012Z</time></trkpt><trkpt lat="43.7960413" lon="12.1693476"><ele>490.0</ele><time>2026-04-12T12:34:49.012Z</time></trkpt><trkpt lat="43.7958428" lon="12.1693805"><ele>488.0</ele><time>2026-04-12T12:34:50.014Z</time></trkpt><trkpt lat="43.7956406" lon="12.1694147"><ele>486.0</ele><time>2026-04-12T12:34:51.014Z</time></trkpt><trkpt lat="43.7954473" lon="12.1694482"><ele>484.0</ele><time>2026-04-12T12:34:52.012Z</time></trkpt><trkpt lat="43.7952736" lon="12.1694808"><ele>486.75</ele><time>2026-04-12T12:34:53.012Z</time></trkpt><trkpt lat="43.7951172" lon="12.169508"><ele>489.5</ele><time>2026-04-12T12:34:54.013Z</time></trkpt><trkpt lat="43.7949788" lon="12.1695199"><ele>492.25</ele><time>2026-04-12T12:34:55.013Z</time></trkpt><trkpt lat="43.7948613" lon="12.1695028"><ele>495.0</ele><time>2026-04-12T12:34:56.013Z</time></trkpt><trkpt lat="43.7947705" lon="12.1694411"><ele>495.0</ele><time>2026-04-12T12:34:57.014Z</time></trkpt><trkpt lat="43.7947079" lon="12.1693455"><ele>495.0</ele><time>2026-04-12T12:34:58.013Z</time></trkpt><trkpt lat="43.7946818" lon="12.1692129"><ele>495.0</ele><time>2026-04-12T12:34:59.014Z</time></trkpt><trkpt lat="43.7947022" lon="12.1690655"><ele>495.0</ele><time>2026-04-12T12:35:00.014Z</time></trkpt><trkpt lat="43.7947535" lon="12.1689187"><ele>495.0</ele><time>2026-04-12T12:35:01.014Z</time></trkpt><trkpt lat="43.7948221" lon="12.1687589"><ele>494.5</ele><time>2026-04-12T12:35:02.012Z</time></trkpt><trkpt lat="43.7948788" lon="12.1685849"><ele>494.0</ele><time>2026-04-12T12:35:03.014Z</time></trkpt><trkpt lat="43.7949106" lon="12.1684072"><ele>493.5</ele><time>2026-04-12T12:35:04.013Z</time></trkpt><trkpt lat="43.7948956" lon="12.1682477"><ele>493.0</ele><time>2026-04-12T12:35:05.014Z</time></trkpt><trkpt lat="43.7948363" lon="12.1681177"><ele>493.0</ele><time>2026-04-12T12:35:06.012Z</time></trkpt><trkpt lat="43.7947449" lon="12.1680136"><ele>493.0</ele><time>2026-04-12T12:35:07.014Z</time></trkpt><trkpt lat="43.7946339" lon="12.1679223"><ele>493.0</ele><time>2026-04-12T12:35:08.013Z</time></trkpt><trkpt lat="43.7945196" lon="12.1677919"><ele>493.0</ele><time>2026-04-12T12:35:09.014Z</time></trkpt><trkpt lat="43.7944138" lon="12.1676295"><ele>496.33333333333337</ele><time>2026-04-12T12:35:10.012Z</time></trkpt><trkpt lat="43.7943183" lon="12.1674375"><ele>499.66666666666663</ele><time>2026-04-12T12:35:11.014Z</time></trkpt><trkpt lat="43.7942357" lon="12.1672444"><ele>503.0</ele><time>2026-04-12T12:35:12.01Z</time></trkpt><trkpt lat="43.7941523" lon="12.1670756"><ele>503.0</ele><time>2026-04-12T12:35:13.012Z</time></trkpt><trkpt lat="43.7940514" lon="12.1669477"><ele>503.0</ele><time>2026-04-12T12:35:14.012Z</time></trkpt><trkpt lat="43.7939337" lon="12.1668651"><ele>503.0</ele><time>2026-04-12T12:35:15.012Z</time></trkpt><trkpt lat="43.7938028" lon="12.1668196"><ele>503.0</ele><time>2026-04-12T12:35:16.015Z</time></trkpt><trkpt lat="43.7936663" lon="12.1668049"><ele>503.0</ele><time>2026-04-12T12:35:17.012Z</time></trkpt><trkpt lat="43.793532" lon="12.1667846"><ele>503.0</ele><time>2026-04-12T12:35:18.012Z</time></trkpt><trkpt lat="43.7934066" lon="12.166754"><ele>503.0</ele><time>2026-04-12T12:35:19.014Z</time></trkpt><trkpt lat="43.7933003" lon="12.1667105"><ele>503.0</ele><time>2026-04-12T12:35:20.012Z</time></trkpt><trkpt lat="43.7932235" lon="12.1666672"><ele>504.0</ele><time>2026-04-12T12:35:21.017Z</time></trkpt><trkpt lat="43.7931435" lon="12.1666103"><ele>504.99999999999994</ele><time>2026-04-12T12:35:23.012Z</time></trkpt><trkpt lat="43.7930572" lon="12.1665383"><ele>505.99999999999994</ele><time>2026-04-12T12:35:26.013Z</time></trkpt><trkpt lat="43.792999" lon="12.1664917"><ele>507.0</ele><time>2026-04-12T12:35:27.014Z</time></trkpt><trkpt lat="43.7929232" lon="12.16643"><ele>508.0</ele><time>2026-04-12T12:35:28.014Z</time></trkpt><trkpt lat="43.7928268" lon="12.1663507"><ele>508.0</ele><time>2026-04-12T12:35:29.011Z</time></trkpt><trkpt lat="43.7927286" lon="12.166261"><ele>507.99999999999994</ele><time>2026-04-12T12:35:30.012Z</time></trkpt><trkpt lat="43.7926434" lon="12.1661658"><ele>507.99999999999994</ele><time>2026-04-12T12:35:31.012Z</time></trkpt><trkpt lat="43.7925714" lon="12.1660804"><ele>508.0</ele><time>2026-04-12T12:35:32.013Z</time></trkpt><trkpt lat="43.792518" lon="12.1660065"><ele>508.0</ele><time>2026-04-12T12:35:33.013Z</time></trkpt><trkpt lat="43.7924508" lon="12.1659369"><ele>510.57142857142856</ele><time>2026-04-12T12:35:35.012Z</time></trkpt><trkpt lat="43.7924054" lon="12.1660016"><ele>513.1428571428571</ele><time>2026-04-12T12:35:37.012Z</time></trkpt><trkpt lat="43.7923752" lon="12.1661367"><ele>515.7142857142857</ele><time>2026-04-12T12:35:39.012Z</time></trkpt><trkpt lat="43.7923689" lon="12.166231"><ele>518.2857142857142</ele><time>2026-04-12T12:35:40.016Z</time></trkpt><trkpt lat="43.7923648" lon="12.1663324"><ele>520.8571428571428</ele><time>2026-04-12T12:35:41.01Z</time></trkpt><trkpt lat="43.792352" lon="12.1664302"><ele>523.4285714285714</ele><time>2026-04-12T12:35:42.015Z</time></trkpt><trkpt lat="43.7923378" lon="12.1665189"><ele>526.0</ele><time>2026-04-12T12:35:43.013Z</time></trkpt><trkpt lat="43.792317" lon="12.1666578"><ele>526.6</ele><time>2026-04-12T12:35:45.012Z</time></trkpt><trkpt lat="43.792325" lon="12.1667679"><ele>527.2</ele><time>2026-04-12T12:35:47.012Z</time></trkpt><trkpt lat="43.7923484" lon="12.1668638"><ele>527.8</ele><time>2026-04-12T12:35:49.012Z</time></trkpt><trkpt lat="43.7923842" lon="12.1669834"><ele>528.4</ele><time>2026-04-12T12:35:51.013Z</time></trkpt><trkpt lat="43.7924304" lon="12.1671101"><ele>529.0</ele><time>2026-04-12T12:35:53.013Z</time></trkpt><trkpt lat="43.7924637" lon="12.1672453"><ele>531.2</ele><time>2026-04-12T12:35:55.014Z</time></trkpt><trkpt lat="43.7924975" lon="12.1673956"><ele>533.4</ele><time>2026-04-12T12:35:57.013Z</time></trkpt><trkpt lat="43.7925359" lon="12.1675241"><ele>535.6</ele><time>2026-04-12T12:35:59.011Z</time></trkpt><trkpt lat="43.7925803" lon="12.167625"><ele>537.8</ele><time>2026-04-12T12:36:01.013Z</time></trkpt><trkpt lat="43.7926202" lon="12.1676967"><ele>540.0</ele><time>2026-04-12T12:36:04.012Z</time></trkpt><trkpt lat="43.79259" lon="12.1675583"><ele>540.0</ele><time>2026-04-12T12:36:31.012Z</time></trkpt><trkpt lat="43.7925583" lon="12.16748"><ele>540.0</ele><time>2026-04-12T12:36:32.013Z</time></trkpt><trkpt lat="43.79251" lon="12.1673267"><ele>540.0</ele><time>2026-04-12T12:36:34.012Z</time></trkpt><trkpt lat="43.7924917" lon="12.1672383"><ele>540.0</ele><time>2026-04-12T12:36:35.013Z</time></trkpt><trkpt lat="43.79248" lon="12.1671433"><ele>540.0</ele><time>2026-04-12T12:36:36.013Z</time></trkpt><trkpt lat="43.792455" lon="12.16705"><ele>540.0</ele><time>2026-04-12T12:36:37.011Z</time></trkpt><trkpt lat="43.7924267" lon="12.1669467"><ele>538.1666666666666</ele><time>2026-04-12T12:36:38.011Z</time></trkpt><trkpt lat="43.7923917" lon="12.1668533"><ele>536.3333333333334</ele><time>2026-04-12T12:36:39.011Z</time></trkpt><trkpt lat="43.79237" lon="12.1667567"><ele>534.5</ele><time>2026-04-12T12:36:40.012Z</time></trkpt><trkpt lat="43.792355" lon="12.16666"><ele>532.6666666666667</ele><time>2026-04-12T12:36:41.013Z</time></trkpt><trkpt lat="43.7923583" lon="12.1665567"><ele>530.8333333333334</ele><time>2026-04-12T12:36:42.012Z</time></trkpt><trkpt lat="43.7923817" lon="12.1664433"><ele>529.0</ele><time>2026-04-12T12:36:43.013Z</time></trkpt><trkpt lat="43.7923933" lon="12.1663383"><ele>528.5</ele><time>2026-04-12T12:36:44.012Z</time></trkpt><trkpt lat="43.7924" lon="12.1662467"><ele>528.0</ele><time>2026-04-12T12:36:45.012Z</time></trkpt><trkpt lat="43.792405" lon="12.16609"><ele>527.5</ele><time>2026-04-12T12:36:47.012Z</time></trkpt><trkpt lat="43.79242" lon="12.1659867"><ele>527.0</ele><time>2026-04-12T12:36:49.012Z</time></trkpt><trkpt lat="43.792485" lon="12.1659583"><ele>526.5</ele><time>2026-04-12T12:36:52.012Z</time></trkpt><trkpt lat="43.7925717" lon="12.16605"><ele>526.0</ele><time>2026-04-12T12:36:53.013Z</time></trkpt><trkpt lat="43.7926433" lon="12.1661917"><ele>523.0</ele><time>2026-04-12T12:36:54.013Z</time></trkpt><trkpt lat="43.7927433" lon="12.1663"><ele>520.0</ele><time>2026-04-12T12:36:55.012Z</time></trkpt><trkpt lat="43.7928549" lon="12.1663936"><ele>517.0</ele><time>2026-04-12T12:36:56.013Z</time></trkpt><trkpt lat="43.7929615" lon="12.1664881"><ele>514.0</ele><time>2026-04-12T12:36:57.012Z</time></trkpt><trkpt lat="43.7930435" lon="12.1665617"><ele>514.0</ele><time>2026-04-12T12:36:58.012Z</time></trkpt><trkpt lat="43.7930986" lon="12.1666291"><ele>514.0</ele><time>2026-04-12T12:36:59.017Z</time></trkpt><trkpt lat="43.7931341" lon="12.1667071"><ele>514.0</ele><time>2026-04-12T12:37:00.012Z</time></trkpt><trkpt lat="43.7931777" lon="12.1667895"><ele>514.0</ele><time>2026-04-12T12:37:01.012Z</time></trkpt><trkpt lat="43.7932206" lon="12.1668783"><ele>514.0</ele><time>2026-04-12T12:37:02.013Z</time></trkpt><trkpt lat="43.7932424" lon="12.1669999"><ele>514.0</ele><time>2026-04-12T12:37:03.013Z</time></trkpt><trkpt lat="43.793268" lon="12.1671433"><ele>514.0</ele><time>2026-04-12T12:37:04.011Z</time></trkpt><trkpt lat="43.7933028" lon="12.1672951"><ele>514.0</ele><time>2026-04-12T12:37:05.011Z</time></trkpt><trkpt lat="43.7933474" lon="12.167448"><ele>514.0</ele><time>2026-04-12T12:37:06.012Z</time></trkpt><trkpt lat="43.7933983" lon="12.167605"><ele>514.0</ele><time>2026-04-12T12:37:07.012Z</time></trkpt><trkpt lat="43.7934492" lon="12.167756"><ele>513.8</ele><time>2026-04-12T12:37:08.011Z</time></trkpt><trkpt lat="43.7934968" lon="12.1678982"><ele>513.5999999999999</ele><time>2026-04-12T12:37:09.012Z</time></trkpt><trkpt lat="43.7935448" lon="12.1680246"><ele>513.4</ele><time>2026-04-12T12:37:10.012Z</time></trkpt><trkpt lat="43.7935769" lon="12.1681552"><ele>513.1999999999999</ele><time>2026-04-12T12:37:11.016Z</time></trkpt><trkpt lat="43.7936132" lon="12.1682834"><ele>513.0</ele><time>2026-04-12T12:37:12.011Z</time></trkpt><trkpt lat="43.7936564" lon="12.1684216"><ele>513.0</ele><time>2026-04-12T12:37:13.012Z</time></trkpt><trkpt lat="43.7937082" lon="12.168557"><ele>513.0</ele><time>2026-04-12T12:37:14.016Z</time></trkpt><trkpt lat="43.793766" lon="12.1686838"><ele>513.0</ele><time>2026-04-12T12:37:15.012Z</time></trkpt><trkpt lat="43.7938213" lon="12.1688106"><ele>513.0</ele><time>2026-04-12T12:37:16.014Z</time></trkpt><trkpt lat="43.7938678" lon="12.1689372"><ele>513.0</ele><time>2026-04-12T12:37:17.012Z</time></trkpt><trkpt lat="43.7939029" lon="12.1690665"><ele>512.6666666666666</ele><time>2026-04-12T12:37:18.013Z</time></trkpt><trkpt lat="43.7939202" lon="12.1691959"><ele>512.3333333333334</ele><time>2026-04-12T12:37:19.014Z</time></trkpt><trkpt lat="43.7939192" lon="12.1693186"><ele>512.0</ele><time>2026-04-12T12:37:20.011Z</time></trkpt><trkpt lat="43.7939038" lon="12.1694376"><ele>511.6666666666667</ele><time>2026-04-12T12:37:21.012Z</time></trkpt><trkpt lat="43.7938698" lon="12.1695444"><ele>511.33333333333337</ele><time>2026-04-12T12:37:22.016Z</time></trkpt><trkpt lat="43.7938152" lon="12.1696424"><ele>511.0</ele><time>2026-04-12T12:37:23.013Z</time></trkpt><trkpt lat="43.793733" lon="12.1697503"><ele>510.5</ele><time>2026-04-12T12:37:24.011Z</time></trkpt><trkpt lat="43.7936479" lon="12.1698687"><ele>510.0</ele><time>2026-04-12T12:37:25.012Z</time></trkpt><trkpt lat="43.7935659" lon="12.1699817"><ele>509.5</ele><time>2026-04-12T12:37:26.015Z</time></trkpt><trkpt lat="43.7934772" lon="12.1700874"><ele>509.0</ele><time>2026-04-12T12:37:27.013Z</time></trkpt><trkpt lat="43.793377" lon="12.1701893"><ele>510.0</ele><time>2026-04-12T12:37:28.014Z</time></trkpt><trkpt lat="43.7932716" lon="12.1702862"><ele>511.0</ele><time>2026-04-12T12:37:29.012Z</time></trkpt><trkpt lat="43.7931733" lon="12.1703779"><ele>512.0</ele><time>2026-04-12T12:37:30.011Z</time></trkpt><trkpt lat="43.7930749" lon="12.1704684"><ele>513.0</ele><time>2026-04-12T12:37:31.012Z</time></trkpt><trkpt lat="43.7929788" lon="12.1705553"><ele>513.0</ele><time>2026-04-12T12:37:32.012Z</time></trkpt><trkpt lat="43.7928863" lon="12.1706445"><ele>513.0</ele><time>2026-04-12T12:37:33.013Z</time></trkpt><trkpt lat="43.7927989" lon="12.1707374"><ele>513.0</ele><time>2026-04-12T12:37:34.018Z</time></trkpt><trkpt lat="43.7927155" lon="12.170825"><ele>513.0</ele><time>2026-04-12T12:37:35.012Z</time></trkpt><trkpt lat="43.7926284" lon="12.1709103"><ele>513.0</ele><time>2026-04-12T12:37:36.012Z</time></trkpt><trkpt lat="43.7925367" lon="12.1709924"><ele>515.1999999999999</ele><time>2026-04-12T12:37:37.012Z</time></trkpt><trkpt lat="43.7924529" lon="12.1710655"><ele>517.4</ele><time>2026-04-12T12:37:38.011Z</time></trkpt><trkpt lat="43.7923821" lon="12.1711321"><ele>519.5999999999999</ele><time>2026-04-12T12:37:39.013Z</time></trkpt><trkpt lat="43.7923292" lon="12.1711952"><ele>521.8</ele><time>2026-04-12T12:37:40.012Z</time></trkpt><trkpt lat="43.7922644" lon="12.1713268"><ele>524.0</ele><time>2026-04-12T12:37:42.011Z</time></trkpt><trkpt lat="43.7922531" lon="12.1714532"><ele>525.2</ele><time>2026-04-12T12:37:44.012Z</time></trkpt><trkpt lat="43.7922849" lon="12.1715545"><ele>526.4</ele><time>2026-04-12T12:37:46.012Z</time></trkpt><trkpt lat="43.7923665" lon="12.1716224"><ele>527.6</ele><time>2026-04-12T12:37:48.012Z</time></trkpt><trkpt lat="43.792503" lon="12.1716373"><ele>528.8</ele><time>2026-04-12T12:37:50.013Z</time></trkpt><trkpt lat="43.7925915" lon="12.1716269"><ele>530.0</ele><time>2026-04-12T12:37:51.012Z</time></trkpt><trkpt lat="43.792691" lon="12.1715979"><ele>531.8</ele><time>2026-04-12T12:37:52.012Z</time></trkpt><trkpt lat="43.7927923" lon="12.1715443"><ele>533.6</ele><time>2026-04-12T12:37:53.017Z</time></trkpt><trkpt lat="43.7928871" lon="12.1714832"><ele>535.4</ele><time>2026-04-12T12:37:54.012Z</time></trkpt><trkpt lat="43.7929766" lon="12.1714239"><ele>537.2</ele><time>2026-04-12T12:37:55.013Z</time></trkpt><trkpt lat="43.7930592" lon="12.1713677"><ele>539.0</ele><time>2026-04-12T12:37:56.012Z</time></trkpt><trkpt lat="43.7931363" lon="12.1713165"><ele>536.0</ele><time>2026-04-12T12:37:57.013Z</time></trkpt><trkpt lat="43.7932138" lon="12.1712638"><ele>533.0</ele><time>2026-04-12T12:37:58.012Z</time></trkpt><trkpt lat="43.7932969" lon="12.1712159"><ele>530.0</ele><time>2026-04-12T12:37:59.012Z</time></trkpt><trkpt lat="43.7933847" lon="12.1711765"><ele>527.0</ele><time>2026-04-12T12:38:00.012Z</time></trkpt><trkpt lat="43.7934716" lon="12.1711452"><ele>524.0</ele><time>2026-04-12T12:38:01.014Z</time></trkpt><trkpt lat="43.7935528" lon="12.1711145"><ele>521.0</ele><time>2026-04-12T12:38:02.014Z</time></trkpt><trkpt lat="43.7936309" lon="12.1710858"><ele>520.6666666666666</ele><time>2026-04-12T12:38:03.012Z</time></trkpt><trkpt lat="43.7937025" lon="12.1710638"><ele>520.3333333333333</ele><time>2026-04-12T12:38:04.013Z</time></trkpt><trkpt lat="43.7937668" lon="12.1710553"><ele>520.0</ele><time>2026-04-12T12:38:05.011Z</time></trkpt><trkpt lat="43.7938707" lon="12.1710829"><ele>519.6666666666666</ele><time>2026-04-12T12:38:07.012Z</time></trkpt><trkpt lat="43.7939186" lon="12.1711826"><ele>519.3333333333334</ele><time>2026-04-12T12:38:09.012Z</time></trkpt><trkpt lat="43.7939099" lon="12.17131"><ele>519.0</ele><time>2026-04-12T12:38:11.012Z</time></trkpt><trkpt lat="43.7938471" lon="12.1714348"><ele>519.0</ele><time>2026-04-12T12:38:13.014Z</time></trkpt><trkpt lat="43.7938008" lon="12.1715043"><ele>519.0</ele><time>2026-04-12T12:38:14.012Z</time></trkpt><trkpt lat="43.7937408" lon="12.1715876"><ele>519.0</ele><time>2026-04-12T12:38:15.013Z</time></trkpt><trkpt lat="43.7936743" lon="12.1716826"><ele>519.0</ele><time>2026-04-12T12:38:16.013Z</time></trkpt><trkpt lat="43.7936059" lon="12.1717733"><ele>519.0</ele><time>2026-04-12T12:38:17.012Z</time></trkpt><trkpt lat="43.7935371" lon="12.1718521"><ele>519.0</ele><time>2026-04-12T12:38:18.012Z</time></trkpt><trkpt lat="43.7934764" lon="12.1719238"><ele>522.3333333333334</ele><time>2026-04-12T12:38:19.012Z</time></trkpt><trkpt lat="43.7934208" lon="12.1719877"><ele>525.6666666666666</ele><time>2026-04-12T12:38:20.014Z</time></trkpt><trkpt lat="43.7933657" lon="12.1720484"><ele>529.0</ele><time>2026-04-12T12:38:21.012Z</time></trkpt><trkpt lat="43.7933069" lon="12.1721121"><ele>532.3333333333333</ele><time>2026-04-12T12:38:22.013Z</time></trkpt><trkpt lat="43.7932437" lon="12.1721816"><ele>535.6666666666666</ele><time>2026-04-12T12:38:23.013Z</time></trkpt><trkpt lat="43.793175" lon="12.1722517"><ele>539.0</ele><time>2026-04-12T12:38:24.013Z</time></trkpt><trkpt lat="43.79311" lon="12.1723067"><ele>539.0</ele><time>2026-04-12T12:38:25.014Z</time></trkpt><trkpt lat="43.7930533" lon="12.1723517"><ele>539.0</ele><time>2026-04-12T12:38:26.01Z</time></trkpt><trkpt lat="43.7929833" lon="12.1724367"><ele>539.0</ele><time>2026-04-12T12:38:28.011Z</time></trkpt><trkpt lat="43.7929867" lon="12.1725317"><ele>539.0</ele><time>2026-04-12T12:38:30.013Z</time></trkpt><trkpt lat="43.793065" lon="12.1725733"><ele>539.0</ele><time>2026-04-12T12:38:32.012Z</time></trkpt><trkpt lat="43.7931283" lon="12.17256"><ele>539.0</ele><time>2026-04-12T12:38:33.013Z</time></trkpt><trkpt lat="43.7932862" lon="12.1725383"><ele>543.75</ele><time>2026-04-12T12:38:35.012Z</time></trkpt><trkpt lat="43.7933912" lon="12.1725195"><ele>548.5</ele><time>2026-04-12T12:38:36.013Z</time></trkpt><trkpt lat="43.7935057" lon="12.1725071"><ele>553.25</ele><time>2026-04-12T12:38:37.012Z</time></trkpt><trkpt lat="43.7936252" lon="12.1725043"><ele>558.0</ele><time>2026-04-12T12:38:38.012Z</time></trkpt><trkpt lat="43.7937428" lon="12.1725068"><ele>558.0</ele><time>2026-04-12T12:38:39.013Z</time></trkpt><trkpt lat="43.7938473" lon="12.172519"><ele>558.0</ele><time>2026-04-12T12:38:40.013Z</time></trkpt><trkpt lat="43.7939346" lon="12.1725423"><ele>558.0</ele><time>2026-04-12T12:38:41.012Z</time></trkpt><trkpt lat="43.7940056" lon="12.1725669"><ele>558.0</ele><time>2026-04-12T12:38:42.012Z</time></trkpt><trkpt lat="43.7940641" lon="12.1726014"><ele>558.0</ele><time>2026-04-12T12:38:43.012Z</time></trkpt><trkpt lat="43.7941337" lon="12.1726968"><ele>558.0</ele><time>2026-04-12T12:38:45.016Z</time></trkpt><trkpt lat="43.7941592" lon="12.1727989"><ele>558.0</ele><time>2026-04-12T12:38:47.012Z</time></trkpt><trkpt lat="43.7941194" lon="12.1729163"><ele>558.0</ele><time>2026-04-12T12:38:49.012Z</time></trkpt><trkpt lat="43.7940649" lon="12.1729715"><ele>558.0</ele><time>2026-04-12T12:38:50.011Z</time></trkpt><trkpt lat="43.7939878" lon="12.1730256"><ele>558.0</ele><time>2026-04-12T12:38:51.014Z</time></trkpt><trkpt lat="43.7939191" lon="12.1730819"><ele>558.0</ele><time>2026-04-12T12:38:52.012Z</time></trkpt><trkpt lat="43.7938629" lon="12.173141"><ele>558.0</ele><time>2026-04-12T12:38:53.012Z</time></trkpt><trkpt lat="43.7937971" lon="12.1732606"><ele>558.5</ele><time>2026-04-12T12:38:55.012Z</time></trkpt><trkpt lat="43.7937501" lon="12.1734039"><ele>559.0</ele><time>2026-04-12T12:38:57.013Z</time></trkpt><trkpt lat="43.7937192" lon="12.1734993"><ele>559.5</ele><time>2026-04-12T12:38:58.011Z</time></trkpt><trkpt lat="43.7936919" lon="12.1736027"><ele>560.0</ele><time>2026-04-12T12:38:59.014Z</time></trkpt><trkpt lat="43.7936647" lon="12.1737144"><ele>560.5</ele><time>2026-04-12T12:39:00.011Z</time></trkpt><trkpt lat="43.7936453" lon="12.1738244"><ele>561.0</ele><time>2026-04-12T12:39:01.014Z</time></trkpt><trkpt lat="43.7936243" lon="12.1739414"><ele>556.8</ele><time>2026-04-12T12:39:02.013Z</time></trkpt><trkpt lat="43.7935967" lon="12.1740761"><ele>552.6</ele><time>2026-04-12T12:39:03.012Z</time></trkpt><trkpt lat="43.7935556" lon="12.174223"><ele>548.4</ele><time>2026-04-12T12:39:04.014Z</time></trkpt><trkpt lat="43.7935155" lon="12.1743656"><ele>544.2</ele><time>2026-04-12T12:39:05.012Z</time></trkpt><trkpt lat="43.7934886" lon="12.174495"><ele>540.0</ele><time>2026-04-12T12:39:06.012Z</time></trkpt><trkpt lat="43.7934733" lon="12.1746"><ele>545.8</ele><time>2026-04-12T12:39:07.012Z</time></trkpt><trkpt lat="43.7934633" lon="12.1746867"><ele>551.6</ele><time>2026-04-12T12:39:08.013Z</time></trkpt><trkpt lat="43.7934583" lon="12.1748333"><ele>557.4</ele><time>2026-04-12T12:39:10.011Z</time></trkpt><trkpt lat="43.7934133" lon="12.1749833"><ele>563.2</ele><time>2026-04-12T12:39:12.013Z</time></trkpt><trkpt lat="43.793335" lon="12.1751283"><ele>569.0</ele><time>2026-04-12T12:39:14.012Z</time></trkpt><trkpt lat="43.7932767" lon="12.17521"><ele>569.0</ele><time>2026-04-12T12:39:15.017Z</time></trkpt><trkpt lat="43.7932133" lon="12.1752983"><ele>569.0</ele><time>2026-04-12T12:39:16.011Z</time></trkpt><trkpt lat="43.7931517" lon="12.1754033"><ele>569.0</ele><time>2026-04-12T12:39:17.012Z</time></trkpt><trkpt lat="43.7930933" lon="12.1755267"><ele>569.0</ele><time>2026-04-12T12:39:18.013Z</time></trkpt><trkpt lat="43.79304" lon="12.17565"><ele>569.0</ele><time>2026-04-12T12:39:19.012Z</time></trkpt><trkpt lat="43.792985" lon="12.1757717"><ele>567.5</ele><time>2026-04-12T12:39:20.012Z</time></trkpt><trkpt lat="43.79294" lon="12.1758867"><ele>566.0</ele><time>2026-04-12T12:39:21.013Z</time></trkpt><trkpt lat="43.7929067" lon="12.1759867"><ele>564.5</ele><time>2026-04-12T12:39:22.012Z</time></trkpt><trkpt lat="43.79289" lon="12.1760733"><ele>563.0</ele><time>2026-04-12T12:39:23.014Z</time></trkpt><trkpt lat="43.7928917" lon="12.176165"><ele>561.5</ele><time>2026-04-12T12:39:24.013Z</time></trkpt><trkpt lat="43.7928967" lon="12.176265"><ele>560.0</ele><time>2026-04-12T12:39:25.012Z</time></trkpt><trkpt lat="43.7929" lon="12.17637"><ele>560.0</ele><time>2026-04-12T12:39:26.013Z</time></trkpt><trkpt lat="43.792905" lon="12.176465"><ele>560.0</ele><time>2026-04-12T12:39:27.013Z</time></trkpt><trkpt lat="43.7929317" lon="12.1766183"><ele>560.0</ele><time>2026-04-12T12:39:29.012Z</time></trkpt><trkpt lat="43.7930217" lon="12.1767267"><ele>560.0</ele><time>2026-04-12T12:39:31.013Z</time></trkpt><trkpt lat="43.7930967" lon="12.1767783"><ele>560.0</ele><time>2026-04-12T12:39:32.016Z</time></trkpt><trkpt lat="43.79317" lon="12.1768183"><ele>561.5</ele><time>2026-04-12T12:39:33.013Z</time></trkpt><trkpt lat="43.7932483" lon="12.176835"><ele>563.0</ele><time>2026-04-12T12:39:34.011Z</time></trkpt><trkpt lat="43.7933233" lon="12.1768417"><ele>564.5</ele><time>2026-04-12T12:39:35.011Z</time></trkpt><trkpt lat="43.7934017" lon="12.1768133"><ele>566.0</ele><time>2026-04-12T12:39:36.012Z</time></trkpt><trkpt lat="43.7934767" lon="12.17679"><ele>567.5</ele><time>2026-04-12T12:39:37.011Z</time></trkpt><trkpt lat="43.793555" lon="12.176765"><ele>569.0</ele><time>2026-04-12T12:39:38.014Z</time></trkpt><trkpt lat="43.793635" lon="12.176725"><ele>569.5714285714287</ele><time>2026-04-12T12:39:39.014Z</time></trkpt><trkpt lat="43.7937117" lon="12.176695"><ele>570.1428571428571</ele><time>2026-04-12T12:39:40.011Z</time></trkpt><trkpt lat="43.7937767" lon="12.17667"><ele>570.7142857142858</ele><time>2026-04-12T12:39:41.014Z</time></trkpt><trkpt lat="43.793843" lon="12.1766556"><ele>571.2857142857143</ele><time>2026-04-12T12:39:42.011Z</time></trkpt><trkpt lat="43.7939122" lon="12.1766524"><ele>571.8571428571429</ele><time>2026-04-12T12:39:43.011Z</time></trkpt><trkpt lat="43.7939912" lon="12.1766635"><ele>572.4285714285714</ele><time>2026-04-12T12:39:44.013Z</time></trkpt><trkpt lat="43.7940747" lon="12.1766898"><ele>573.0</ele><time>2026-04-12T12:39:45.013Z</time></trkpt><trkpt lat="43.794168" lon="12.1767461"><ele>573.0</ele><time>2026-04-12T12:39:46.015Z</time></trkpt><trkpt lat="43.7942748" lon="12.1768167"><ele>573.0</ele><time>2026-04-12T12:39:47.012Z</time></trkpt><trkpt lat="43.7943803" lon="12.1768838"><ele>573.0</ele><time>2026-04-12T12:39:48.012Z</time></trkpt><trkpt lat="43.7944918" lon="12.1769409"><ele>573.0</ele><time>2026-04-12T12:39:49.012Z</time></trkpt><trkpt lat="43.7945962" lon="12.1769904"><ele>572.0</ele><time>2026-04-12T12:39:50.013Z</time></trkpt><trkpt lat="43.7946911" lon="12.1770345"><ele>571.0</ele><time>2026-04-12T12:39:51.012Z</time></trkpt><trkpt lat="43.7947855" lon="12.177067"><ele>570.0</ele><time>2026-04-12T12:39:52.018Z</time></trkpt><trkpt lat="43.7948776" lon="12.1770912"><ele>569.0</ele><time>2026-04-12T12:39:53.011Z</time></trkpt><trkpt lat="43.7949758" lon="12.1771004"><ele>568.0</ele><time>2026-04-12T12:39:54.012Z</time></trkpt><trkpt lat="43.7950706" lon="12.1770969"><ele>568.0</ele><time>2026-04-12T12:39:55.013Z</time></trkpt><trkpt lat="43.7951597" lon="12.1770861"><ele>568.0</ele><time>2026-04-12T12:39:56.013Z</time></trkpt><trkpt lat="43.7952501" lon="12.1770717"><ele>568.0</ele><time>2026-04-12T12:39:57.013Z</time></trkpt><trkpt lat="43.7953393" lon="12.1770607"><ele>568.0</ele><time>2026-04-12T12:39:58.012Z</time></trkpt><trkpt lat="43.795426" lon="12.1770563"><ele>568.0</ele><time>2026-04-12T12:39:59.011Z</time></trkpt><trkpt lat="43.795508" lon="12.1770564"><ele>568.0</ele><time>2026-04-12T12:40:00.011Z</time></trkpt><trkpt lat="43.7955876" lon="12.1770587"><ele>568.2857142857142</ele><time>2026-04-12T12:40:01.013Z</time></trkpt><trkpt lat="43.7956644" lon="12.1770632"><ele>568.5714285714286</ele><time>2026-04-12T12:40:02.014Z</time></trkpt><trkpt lat="43.7957377" lon="12.1770694"><ele>568.8571428571429</ele><time>2026-04-12T12:40:03.016Z</time></trkpt><trkpt lat="43.795806" lon="12.1770691"><ele>569.1428571428571</ele><time>2026-04-12T12:40:04.012Z</time></trkpt><trkpt lat="43.7958734" lon="12.1770614"><ele>569.4285714285714</ele><time>2026-04-12T12:40:05.012Z</time></trkpt><trkpt lat="43.7959424" lon="12.177047"><ele>569.7142857142857</ele><time>2026-04-12T12:40:06.013Z</time></trkpt><trkpt lat="43.7960046" lon="12.1770285"><ele>570.0</ele><time>2026-04-12T12:40:07.012Z</time></trkpt><trkpt lat="43.79611" lon="12.1769679"><ele>567.2</ele><time>2026-04-12T12:40:09.013Z</time></trkpt><trkpt lat="43.7962099" lon="12.176905"><ele>564.4</ele><time>2026-04-12T12:40:11.013Z</time></trkpt><trkpt lat="43.796313" lon="12.1769105"><ele>561.6</ele><time>2026-04-12T12:40:13.014Z</time></trkpt><trkpt lat="43.7963867" lon="12.177015"><ele>558.8</ele><time>2026-04-12T12:40:15.015Z</time></trkpt><trkpt lat="43.7964233" lon="12.1771517"><ele>556.0</ele><time>2026-04-12T12:40:17.012Z</time></trkpt><trkpt lat="43.7964767" lon="12.17731"><ele>557.0</ele><time>2026-04-12T12:40:19.012Z</time></trkpt><trkpt lat="43.7965267" lon="12.17747"><ele>558.0</ele><time>2026-04-12T12:40:21.012Z</time></trkpt><trkpt lat="43.7965717" lon="12.1775367"><ele>559.0</ele><time>2026-04-12T12:40:22.012Z</time></trkpt><trkpt lat="43.7966717" lon="12.17765"><ele>560.0</ele><time>2026-04-12T12:40:24.012Z</time></trkpt><trkpt lat="43.7967367" lon="12.1776883"><ele>561.0</ele><time>2026-04-12T12:40:25.018Z</time></trkpt><trkpt lat="43.796805" lon="12.1777283"><ele>556.0</ele><time>2026-04-12T12:40:26.011Z</time></trkpt><trkpt lat="43.7968683" lon="12.1777733"><ele>551.0</ele><time>2026-04-12T12:40:27.011Z</time></trkpt><trkpt lat="43.796935" lon="12.177835"><ele>546.0</ele><time>2026-04-12T12:40:28.012Z</time></trkpt><trkpt lat="43.7970067" lon="12.1779167"><ele>541.0</ele><time>2026-04-12T12:40:29.015Z</time></trkpt><trkpt lat="43.7970467" lon="12.178015"><ele>536.0</ele><time>2026-04-12T12:40:30.012Z</time></trkpt><trkpt lat="43.7971117" lon="12.1780983"><ele>531.0</ele><time>2026-04-12T12:40:31.012Z</time></trkpt><trkpt lat="43.7971617" lon="12.1781833"><ele>533.0</ele><time>2026-04-12T12:40:32.011Z</time></trkpt><trkpt lat="43.797215" lon="12.1782617"><ele>535.0</ele><time>2026-04-12T12:40:33.012Z</time></trkpt><trkpt lat="43.79727" lon="12.1783283"><ele>537.0</ele><time>2026-04-12T12:40:34.011Z</time></trkpt><trkpt lat="43.79732" lon="12.178395"><ele>539.0</ele><time>2026-04-12T12:40:35.012Z</time></trkpt><trkpt lat="43.7973717" lon="12.1784533"><ele>541.0</ele><time>2026-04-12T12:40:36.011Z</time></trkpt><trkpt lat="43.79742" lon="12.17851"><ele>543.0</ele><time>2026-04-12T12:40:37.012Z</time></trkpt><trkpt lat="43.7975" lon="12.17864"><ele>543.0</ele><time>2026-04-12T12:40:39.014Z</time></trkpt><trkpt lat="43.7975383" lon="12.1787167"><ele>543.0</ele><time>2026-04-12T12:40:40.012Z</time></trkpt><trkpt lat="43.7975817" lon="12.178855"><ele>543.0</ele><time>2026-04-12T12:40:42.016Z</time></trkpt><trkpt lat="43.79759" lon="12.1789817"><ele>543.0</ele><time>2026-04-12T12:40:44.012Z</time></trkpt><trkpt lat="43.7975383" lon="12.179085"><ele>543.0</ele><time>2026-04-12T12:40:46.013Z</time></trkpt><trkpt lat="43.7974567" lon="12.17922"><ele>543.0</ele><time>2026-04-12T12:40:48.014Z</time></trkpt><trkpt lat="43.7974083" lon="12.1793317"><ele>543.0</ele><time>2026-04-12T12:40:49.015Z</time></trkpt><trkpt lat="43.79737" lon="12.1794533"><ele>543.0</ele><time>2026-04-12T12:40:50.012Z</time></trkpt><trkpt lat="43.7973483" lon="12.179575"><ele>543.0</ele><time>2026-04-12T12:40:51.013Z</time></trkpt><trkpt lat="43.7973217" lon="12.1796933"><ele>543.0</ele><time>2026-04-12T12:40:52.013Z</time></trkpt><trkpt lat="43.7972867" lon="12.1798133"><ele>540.8</ele><time>2026-04-12T12:40:53.011Z</time></trkpt><trkpt lat="43.79726" lon="12.1799483"><ele>538.5999999999999</ele><time>2026-04-12T12:40:54.015Z</time></trkpt><trkpt lat="43.7972567" lon="12.18009"><ele>536.4000000000001</ele><time>2026-04-12T12:40:55.013Z</time></trkpt><trkpt lat="43.79727" lon="12.18023"><ele>534.2</ele><time>2026-04-12T12:40:56.012Z</time></trkpt><trkpt lat="43.7972933" lon="12.180345"><ele>532.0</ele><time>2026-04-12T12:40:57.013Z</time></trkpt><trkpt lat="43.79732" lon="12.1804333"><ele>532.0</ele><time>2026-04-12T12:40:58.014Z</time></trkpt><trkpt lat="43.7974" lon="12.1805683"><ele>532.0</ele><time>2026-04-12T12:41:00.013Z</time></trkpt><trkpt lat="43.79744" lon="12.1806517"><ele>532.0</ele><time>2026-04-12T12:41:01.013Z</time></trkpt><trkpt lat="43.79747" lon="12.1807467"><ele>532.0</ele><time>2026-04-12T12:41:02.011Z</time></trkpt><trkpt lat="43.79749" lon="12.180845"><ele>532.0</ele><time>2026-04-12T12:41:03.013Z</time></trkpt><trkpt lat="43.7974867" lon="12.1809467"><ele>532.0</ele><time>2026-04-12T12:41:04.012Z</time></trkpt><trkpt lat="43.7974867" lon="12.181045"><ele>531.6666666666667</ele><time>2026-04-12T12:41:05.013Z</time></trkpt><trkpt lat="43.797485" lon="12.1811433"><ele>531.3333333333334</ele><time>2026-04-12T12:41:06.013Z</time></trkpt><trkpt lat="43.7974883" lon="12.1812367"><ele>531.0</ele><time>2026-04-12T12:41:07.012Z</time></trkpt><trkpt lat="43.79753" lon="12.1813883"><ele>530.6666666666666</ele><time>2026-04-12T12:41:09.011Z</time></trkpt><trkpt lat="43.7975817" lon="12.1814517"><ele>530.3333333333333</ele><time>2026-04-12T12:41:10.012Z</time></trkpt><trkpt lat="43.7976567" lon="12.1814967"><ele>530.0</ele><time>2026-04-12T12:41:11.013Z</time></trkpt><trkpt lat="43.7977267" lon="12.18154"><ele>531.8</ele><time>2026-04-12T12:41:12.011Z</time></trkpt><trkpt lat="43.797805" lon="12.18158"><ele>533.6</ele><time>2026-04-12T12:41:13.013Z</time></trkpt><trkpt lat="43.7978933" lon="12.1816217"><ele>535.4</ele><time>2026-04-12T12:41:14.01Z</time></trkpt><trkpt lat="43.79799" lon="12.1816583"><ele>537.2</ele><time>2026-04-12T12:41:15.013Z</time></trkpt><trkpt lat="43.7980933" lon="12.181695"><ele>539.0</ele><time>2026-04-12T12:41:16.011Z</time></trkpt><trkpt lat="43.7981867" lon="12.1817267"><ele>539.0</ele><time>2026-04-12T12:41:17.012Z</time></trkpt><trkpt lat="43.7982733" lon="12.181755"><ele>539.0</ele><time>2026-04-12T12:41:18.012Z</time></trkpt><trkpt lat="43.798345" lon="12.1817867"><ele>539.0</ele><time>2026-04-12T12:41:19.012Z</time></trkpt><trkpt lat="43.7984117" lon="12.1818183"><ele>539.0</ele><time>2026-04-12T12:41:20.013Z</time></trkpt><trkpt lat="43.7984733" lon="12.181845"><ele>539.0</ele><time>2026-04-12T12:41:21.013Z</time></trkpt><trkpt lat="43.79858" lon="12.181885"><ele>539.0</ele><time>2026-04-12T12:41:23.013Z</time></trkpt><trkpt lat="43.7986633" lon="12.181975"><ele>538.0</ele><time>2026-04-12T12:41:25.013Z</time></trkpt><trkpt lat="43.7987317" lon="12.1821217"><ele>537.0</ele><time>2026-04-12T12:41:27.013Z</time></trkpt><trkpt lat="43.79876" lon="12.1822183"><ele>536.0</ele><time>2026-04-12T12:41:28.012Z</time></trkpt><trkpt lat="43.7987867" lon="12.1823217"><ele>535.0</ele><time>2026-04-12T12:41:29.011Z</time></trkpt><trkpt lat="43.7988183" lon="12.18243"><ele>534.0</ele><time>2026-04-12T12:41:30.013Z</time></trkpt><trkpt lat="43.7988417" lon="12.1825508"><ele>534.0</ele><time>2026-04-12T12:41:31.013Z</time></trkpt><trkpt lat="43.7988599" lon="12.1826873"><ele>534.0</ele><time>2026-04-12T12:41:32.013Z</time></trkpt><trkpt lat="43.7988622" lon="12.1828295"><ele>534.0</ele><time>2026-04-12T12:41:33.012Z</time></trkpt><trkpt lat="43.7988561" lon="12.1829543"><ele>534.0</ele><time>2026-04-12T12:41:34.02Z</time></trkpt><trkpt lat="43.7988411" lon="12.1830648"><ele>534.0</ele><time>2026-04-12T12:41:35.013Z</time></trkpt><trkpt lat="43.7988228" lon="12.1831765"><ele>534.4</ele><time>2026-04-12T12:41:36.013Z</time></trkpt><trkpt lat="43.7988004" lon="12.1832964"><ele>534.8</ele><time>2026-04-12T12:41:37.012Z</time></trkpt><trkpt lat="43.7987747" lon="12.1834258"><ele>535.2</ele><time>2026-04-12T12:41:38.012Z</time></trkpt><trkpt lat="43.7987499" lon="12.1835541"><ele>535.6</ele><time>2026-04-12T12:41:39.012Z</time></trkpt><trkpt lat="43.7987321" lon="12.1836738"><ele>536.0</ele><time>2026-04-12T12:41:40.012Z</time></trkpt><trkpt lat="43.7987195" lon="12.1837892"><ele>536.0</ele><time>2026-04-12T12:41:41.012Z</time></trkpt><trkpt lat="43.7986978" lon="12.1839066"><ele>536.0</ele><time>2026-04-12T12:41:42.011Z</time></trkpt><trkpt lat="43.7986825" lon="12.184025"><ele>536.0</ele><time>2026-04-12T12:41:43.015Z</time></trkpt><trkpt lat="43.7986667" lon="12.1841431"><ele>536.0</ele><time>2026-04-12T12:41:44.012Z</time></trkpt><trkpt lat="43.7986442" lon="12.1842601"><ele>536.0</ele><time>2026-04-12T12:41:45.012Z</time></trkpt><trkpt lat="43.7986239" lon="12.184375"><ele>536.0</ele><time>2026-04-12T12:41:46.014Z</time></trkpt><trkpt lat="43.7986051" lon="12.1844746"><ele>536.0</ele><time>2026-04-12T12:41:47.012Z</time></trkpt><trkpt lat="43.7985851" lon="12.184612"><ele>536.0</ele><time>2026-04-12T12:41:49.013Z</time></trkpt><trkpt lat="43.7985736" lon="12.1847"><ele>536.0</ele><time>2026-04-12T12:41:51.013Z</time></trkpt><trkpt lat="43.798555" lon="12.18489"><ele>536.0</ele><time>2026-04-12T12:45:11.011Z</time></trkpt><trkpt lat="43.7985367" lon="12.1850633"><ele>536.0</ele><time>2026-04-12T12:45:13.013Z</time></trkpt><trkpt lat="43.7985133" lon="12.18516"><ele>540.5</ele><time>2026-04-12T12:45:14.014Z</time></trkpt><trkpt lat="43.798495" lon="12.1852717"><ele>545.0</ele><time>2026-04-12T12:45:15.013Z</time></trkpt><trkpt lat="43.798475" lon="12.1853883"><ele>549.5</ele><time>2026-04-12T12:45:16.013Z</time></trkpt><trkpt lat="43.798455" lon="12.1855017"><ele>554.0</ele><time>2026-04-12T12:45:17.012Z</time></trkpt><trkpt lat="43.79844" lon="12.1856"><ele>558.5</ele><time>2026-04-12T12:45:18.013Z</time></trkpt><trkpt lat="43.7984383" lon="12.185695"><ele>563.0</ele><time>2026-04-12T12:45:19.012Z</time></trkpt><trkpt lat="43.7984433" lon="12.1858017"><ele>563.0</ele><time>2026-04-12T12:45:20.012Z</time></trkpt><trkpt lat="43.7984583" lon="12.1859217"><ele>563.0</ele><time>2026-04-12T12:45:21.013Z</time></trkpt><trkpt lat="43.798475" lon="12.18605"><ele>563.0</ele><time>2026-04-12T12:45:22.013Z</time></trkpt><trkpt lat="43.7984917" lon="12.186185"><ele>563.0</ele><time>2026-04-12T12:45:23.016Z</time></trkpt><trkpt lat="43.7985083" lon="12.1863167"><ele>563.0</ele><time>2026-04-12T12:45:24.013Z</time></trkpt><trkpt lat="43.7985283" lon="12.18644"><ele>558.6666666666666</ele><time>2026-04-12T12:45:25.012Z</time></trkpt><trkpt lat="43.798545" lon="12.1865583"><ele>554.3333333333333</ele><time>2026-04-12T12:45:26.011Z</time></trkpt><trkpt lat="43.7985583" lon="12.1866767"><ele>550.0</ele><time>2026-04-12T12:45:27.012Z</time></trkpt><trkpt lat="43.7985767" lon="12.1867867"><ele>545.6666666666666</ele><time>2026-04-12T12:45:28.013Z</time></trkpt><trkpt lat="43.7985933" lon="12.18689"><ele>541.3333333333334</ele><time>2026-04-12T12:45:29.013Z</time></trkpt><trkpt lat="43.798625" lon="12.1869833"><ele>537.0</ele><time>2026-04-12T12:45:30.017Z</time></trkpt><trkpt lat="43.7986667" lon="12.1870617"><ele>537.0</ele><time>2026-04-12T12:45:31.012Z</time></trkpt><trkpt lat="43.7987233" lon="12.1871233"><ele>537.0</ele><time>2026-04-12T12:45:32.012Z</time></trkpt><trkpt lat="43.7987933" lon="12.18717"><ele>537.0</ele><time>2026-04-12T12:45:33.013Z</time></trkpt><trkpt lat="43.79887" lon="12.18721"><ele>537.0</ele><time>2026-04-12T12:45:34.012Z</time></trkpt><trkpt lat="43.79895" lon="12.18726"><ele>537.0</ele><time>2026-04-12T12:45:35.014Z</time></trkpt><trkpt lat="43.7990233" lon="12.1873383"><ele>537.0</ele><time>2026-04-12T12:45:36.013Z</time></trkpt><trkpt lat="43.7990933" lon="12.187435"><ele>534.4</ele><time>2026-04-12T12:45:37.013Z</time></trkpt><trkpt lat="43.7991567" lon="12.18755"><ele>531.8000000000001</ele><time>2026-04-12T12:45:38.012Z</time></trkpt><trkpt lat="43.7992233" lon="12.1876633"><ele>529.2</ele><time>2026-04-12T12:45:39.015Z</time></trkpt><trkpt lat="43.7992783" lon="12.1877817"><ele>526.6</ele><time>2026-04-12T12:45:40.011Z</time></trkpt><trkpt lat="43.799325" lon="12.1878967"><ele>524.0</ele><time>2026-04-12T12:45:41.012Z</time></trkpt><trkpt lat="43.7993633" lon="12.1880167"><ele>524.0</ele><time>2026-04-12T12:45:42.013Z</time></trkpt><trkpt lat="43.799385" lon="12.18815"><ele>524.0</ele><time>2026-04-12T12:45:43.012Z</time></trkpt><trkpt lat="43.7993733" lon="12.1883"><ele>524.0</ele><time>2026-04-12T12:45:44.014Z</time></trkpt><trkpt lat="43.7993517" lon="12.1884533"><ele>524.0</ele><time>2026-04-12T12:45:45.012Z</time></trkpt><trkpt lat="43.7993256" lon="12.1886032"><ele>524.0</ele><time>2026-04-12T12:45:46.014Z</time></trkpt><trkpt lat="43.7993019" lon="12.1887456"><ele>527.6</ele><time>2026-04-12T12:45:47.011Z</time></trkpt><trkpt lat="43.7992896" lon="12.188884"><ele>531.2</ele><time>2026-04-12T12:45:48.011Z</time></trkpt><trkpt lat="43.7992952" lon="12.1890159"><ele>534.8000000000001</ele><time>2026-04-12T12:45:49.015Z</time></trkpt><trkpt lat="43.7993238" lon="12.1891391"><ele>538.4</ele><time>2026-04-12T12:45:50.012Z</time></trkpt><trkpt lat="43.799374" lon="12.1892491"><ele>542.0</ele><time>2026-04-12T12:45:51.012Z</time></trkpt><trkpt lat="43.799448" lon="12.1893363"><ele>542.0</ele><time>2026-04-12T12:45:52.01Z</time></trkpt><trkpt lat="43.7995378" lon="12.1893964"><ele>542.0</ele><time>2026-04-12T12:45:53.011Z</time></trkpt><trkpt lat="43.7996449" lon="12.1894295"><ele>542.0</ele><time>2026-04-12T12:45:54.013Z</time></trkpt><trkpt lat="43.799772" lon="12.1894441"><ele>542.0</ele><time>2026-04-12T12:45:55.013Z</time></trkpt><trkpt lat="43.7999211" lon="12.1894631"><ele>542.0</ele><time>2026-04-12T12:45:56.011Z</time></trkpt><trkpt lat="43.8000743" lon="12.1894751"><ele>542.0</ele><time>2026-04-12T12:45:57.012Z</time></trkpt><trkpt lat="43.8002176" lon="12.1894979"><ele>542.0</ele><time>2026-04-12T12:45:58.012Z</time></trkpt><trkpt lat="43.8003522" lon="12.1895227"><ele>542.0</ele><time>2026-04-12T12:45:59.012Z</time></trkpt><trkpt lat="43.8004764" lon="12.1895459"><ele>541.2</ele><time>2026-04-12T12:46:00.02Z</time></trkpt><trkpt lat="43.8005836" lon="12.1895699"><ele>540.4000000000001</ele><time>2026-04-12T12:46:01.014Z</time></trkpt><trkpt lat="43.8006763" lon="12.189611"><ele>539.5999999999999</ele><time>2026-04-12T12:46:02.013Z</time></trkpt><trkpt lat="43.8007497" lon="12.1896735"><ele>538.8</ele><time>2026-04-12T12:46:03.012Z</time></trkpt><trkpt lat="43.8008084" lon="12.1897562"><ele>538.0</ele><time>2026-04-12T12:46:04.013Z</time></trkpt><trkpt lat="43.8008494" lon="12.1898519"><ele>540.0</ele><time>2026-04-12T12:46:05.012Z</time></trkpt><trkpt lat="43.8008703" lon="12.1899694"><ele>542.0</ele><time>2026-04-12T12:46:06.011Z</time></trkpt><trkpt lat="43.8008754" lon="12.1901116"><ele>544.0</ele><time>2026-04-12T12:46:07.018Z</time></trkpt><trkpt lat="43.800854" lon="12.1903018"><ele>546.0</ele><time>2026-04-12T12:46:08.012Z</time></trkpt><trkpt lat="43.8008242" lon="12.1905083"><ele>546.0</ele><time>2026-04-12T12:46:09.013Z</time></trkpt><trkpt lat="43.8007872" lon="12.1907049"><ele>546.0</ele><time>2026-04-12T12:46:10.012Z</time></trkpt><trkpt lat="43.8007456" lon="12.1908931"><ele>546.0</ele><time>2026-04-12T12:46:11.012Z</time></trkpt><trkpt lat="43.8006819" lon="12.1910738"><ele>546.0</ele><time>2026-04-12T12:46:12.013Z</time></trkpt><trkpt lat="43.8006005" lon="12.1912573"><ele>546.0</ele><time>2026-04-12T12:46:13.013Z</time></trkpt><trkpt lat="43.8005193" lon="12.1914365"><ele>546.0</ele><time>2026-04-12T12:46:14.013Z</time></trkpt><trkpt lat="43.8004458" lon="12.1915999"><ele>546.0</ele><time>2026-04-12T12:46:15.018Z</time></trkpt><trkpt lat="43.8003808" lon="12.1917408"><ele>546.0</ele><time>2026-04-12T12:46:16.013Z</time></trkpt><trkpt lat="43.8003381" lon="12.1918745"><ele>545.6</ele><time>2026-04-12T12:46:17.01Z</time></trkpt><trkpt lat="43.80034" lon="12.19201"><ele>545.2</ele><time>2026-04-12T12:46:18.013Z</time></trkpt><trkpt lat="43.80035" lon="12.1921367"><ele>544.8</ele><time>2026-04-12T12:46:19.013Z</time></trkpt><trkpt lat="43.800405" lon="12.192265"><ele>544.4</ele><time>2026-04-12T12:46:20.012Z</time></trkpt><trkpt lat="43.8004817" lon="12.1923967"><ele>544.0</ele><time>2026-04-12T12:46:21.014Z</time></trkpt><trkpt lat="43.8005683" lon="12.1925367"><ele>544.0</ele><time>2026-04-12T12:46:22.012Z</time></trkpt><trkpt lat="43.8006533" lon="12.1926817"><ele>544.0</ele><time>2026-04-12T12:46:23.012Z</time></trkpt><trkpt lat="43.8007333" lon="12.19282"><ele>544.0</ele><time>2026-04-12T12:46:24.011Z</time></trkpt><trkpt lat="43.8008133" lon="12.1929233"><ele>544.0</ele><time>2026-04-12T12:46:25.011Z</time></trkpt><trkpt lat="43.800915" lon="12.1929817"><ele>540.5</ele><time>2026-04-12T12:46:26.012Z</time></trkpt><trkpt lat="43.8010233" lon="12.19302"><ele>537.0</ele><time>2026-04-12T12:46:27.012Z</time></trkpt><trkpt lat="43.8011467" lon="12.193025"><ele>533.5</ele><time>2026-04-12T12:46:28.011Z</time></trkpt><trkpt lat="43.80127" lon="12.1930533"><ele>530.0</ele><time>2026-04-12T12:46:29.011Z</time></trkpt><trkpt lat="43.8013917" lon="12.1930833"><ele>530.0</ele><time>2026-04-12T12:46:30.012Z</time></trkpt><trkpt lat="43.8014983" lon="12.19314"><ele>530.0</ele><time>2026-04-12T12:46:31.014Z</time></trkpt><trkpt lat="43.80159" lon="12.19321"><ele>530.0</ele><time>2026-04-12T12:46:32.011Z</time></trkpt><trkpt lat="43.80166" lon="12.1932967"><ele>530.0</ele><time>2026-04-12T12:46:33.013Z</time></trkpt><trkpt lat="43.8017117" lon="12.1933817"><ele>530.0</ele><time>2026-04-12T12:46:34.012Z</time></trkpt><trkpt lat="43.8017467" lon="12.19347"><ele>533.25</ele><time>2026-04-12T12:46:35.014Z</time></trkpt><trkpt lat="43.801765" lon="12.193645"><ele>536.5</ele><time>2026-04-12T12:46:37.011Z</time></trkpt><trkpt lat="43.8016617" lon="12.1937833"><ele>539.75</ele><time>2026-04-12T12:46:38.011Z</time></trkpt><trkpt lat="43.80156" lon="12.1939083"><ele>543.0</ele><time>2026-04-12T12:46:39.012Z</time></trkpt><trkpt lat="43.8014567" lon="12.19405"><ele>543.0</ele><time>2026-04-12T12:46:40.012Z</time></trkpt><trkpt lat="43.801385" lon="12.1942017"><ele>543.0</ele><time>2026-04-12T12:46:41.013Z</time></trkpt><trkpt lat="43.8013467" lon="12.1943417"><ele>543.0</ele><time>2026-04-12T12:46:42.015Z</time></trkpt><trkpt lat="43.8013" lon="12.19446"><ele>543.0</ele><time>2026-04-12T12:46:43.013Z</time></trkpt><trkpt lat="43.801245" lon="12.1945433"><ele>543.0</ele><time>2026-04-12T12:46:44.012Z</time></trkpt><trkpt lat="43.8011867" lon="12.19461"><ele>543.0</ele><time>2026-04-12T12:46:45.014Z</time></trkpt><trkpt lat="43.80112" lon="12.1946533"><ele>543.0</ele><time>2026-04-12T12:46:46.011Z</time></trkpt><trkpt lat="43.8010267" lon="12.1946467"><ele>543.0</ele><time>2026-04-12T12:46:47.013Z</time></trkpt><trkpt lat="43.8008667" lon="12.1946017"><ele>543.0</ele><time>2026-04-12T12:46:48.011Z</time></trkpt><trkpt lat="43.8007133" lon="12.1945633"><ele>550.75</ele><time>2026-04-12T12:46:49.012Z</time></trkpt><trkpt lat="43.8005667" lon="12.1945883"><ele>558.5</ele><time>2026-04-12T12:46:50.011Z</time></trkpt><trkpt lat="43.800415" lon="12.19462"><ele>566.25</ele><time>2026-04-12T12:46:51.013Z</time></trkpt><trkpt lat="43.8002717" lon="12.1946483"><ele>574.0</ele><time>2026-04-12T12:46:52.011Z</time></trkpt><trkpt lat="43.8001461" lon="12.1947004"><ele>576.75</ele><time>2026-04-12T12:46:53.011Z</time></trkpt><trkpt lat="43.8000199" lon="12.1947295"><ele>579.5</ele><time>2026-04-12T12:46:54.013Z</time></trkpt><trkpt lat="43.7998891" lon="12.1947388"><ele>582.25</ele><time>2026-04-12T12:46:55.012Z</time></trkpt><trkpt lat="43.7997586" lon="12.1947037"><ele>585.0</ele><time>2026-04-12T12:46:56.012Z</time></trkpt><trkpt lat="43.7996351" lon="12.1946401"><ele>585.0</ele><time>2026-04-12T12:46:57.014Z</time></trkpt><trkpt lat="43.7995112" lon="12.1945769"><ele>585.0</ele><time>2026-04-12T12:46:58.012Z</time></trkpt><trkpt lat="43.7993929" lon="12.1945533"><ele>585.0</ele><time>2026-04-12T12:46:59.014Z</time></trkpt><trkpt lat="43.7992845" lon="12.1945557"><ele>585.0</ele><time>2026-04-12T12:47:00.014Z</time></trkpt><trkpt lat="43.7991773" lon="12.1945956"><ele>585.6</ele><time>2026-04-12T12:47:01.013Z</time></trkpt><trkpt lat="43.7990824" lon="12.1946649"><ele>586.2</ele><time>2026-04-12T12:47:02.016Z</time></trkpt><trkpt lat="43.798998" lon="12.1947594"><ele>586.8</ele><time>2026-04-12T12:47:03.011Z</time></trkpt><trkpt lat="43.7989296" lon="12.1948888"><ele>587.4</ele><time>2026-04-12T12:47:04.012Z</time></trkpt><trkpt lat="43.7988885" lon="12.1950219"><ele>588.0</ele><time>2026-04-12T12:47:05.012Z</time></trkpt><trkpt lat="43.7988769" lon="12.195179"><ele>582.5</ele><time>2026-04-12T12:47:06.011Z</time></trkpt><trkpt lat="43.7988778" lon="12.1953514"><ele>577.0</ele><time>2026-04-12T12:47:07.013Z</time></trkpt><trkpt lat="43.7989071" lon="12.1955353"><ele>571.5</ele><time>2026-04-12T12:47:08.012Z</time></trkpt><trkpt lat="43.7989761" lon="12.1957339"><ele>566.0</ele><time>2026-04-12T12:47:09.013Z</time></trkpt><trkpt lat="43.7990363" lon="12.1959235"><ele>564.8</ele><time>2026-04-12T12:47:10.014Z</time></trkpt><trkpt lat="43.799072" lon="12.1960935"><ele>563.6</ele><time>2026-04-12T12:47:11.015Z</time></trkpt><trkpt lat="43.7990836" lon="12.1962421"><ele>562.4</ele><time>2026-04-12T12:47:12.011Z</time></trkpt><trkpt lat="43.7990422" lon="12.196373"><ele>561.2</ele><time>2026-04-12T12:47:13.011Z</time></trkpt><trkpt lat="43.7989705" lon="12.1964846"><ele>560.0</ele><time>2026-04-12T12:47:14.012Z</time></trkpt><trkpt lat="43.7988836" lon="12.1965891"><ele>558.25</ele><time>2026-04-12T12:47:15.011Z</time></trkpt><trkpt lat="43.7987828" lon="12.1966938"><ele>556.5</ele><time>2026-04-12T12:47:16.013Z</time></trkpt><trkpt lat="43.7986708" lon="12.1968007"><ele>554.75</ele><time>2026-04-12T12:47:17.013Z</time></trkpt><trkpt lat="43.7985627" lon="12.1969049"><ele>553.0</ele><time>2026-04-12T12:47:18.013Z</time></trkpt><trkpt lat="43.7984567" lon="12.1969891"><ele>560.0</ele><time>2026-04-12T12:47:19.011Z</time></trkpt><trkpt lat="43.7983479" lon="12.1970494"><ele>567.0</ele><time>2026-04-12T12:47:20.013Z</time></trkpt><trkpt lat="43.7982331" lon="12.1970741"><ele>574.0</ele><time>2026-04-12T12:47:21.013Z</time></trkpt><trkpt lat="43.7981116" lon="12.1970648"><ele>581.0</ele><time>2026-04-12T12:47:22.012Z</time></trkpt><trkpt lat="43.797983" lon="12.1970281"><ele>581.0</ele><time>2026-04-12T12:47:23.012Z</time></trkpt><trkpt lat="43.7978459" lon="12.1969759"><ele>581.0</ele><time>2026-04-12T12:47:24.013Z</time></trkpt><trkpt lat="43.7977048" lon="12.1969087"><ele>581.0</ele><time>2026-04-12T12:47:25.013Z</time></trkpt><trkpt lat="43.7975649" lon="12.1968282"><ele>581.0</ele><time>2026-04-12T12:47:26.012Z</time></trkpt><trkpt lat="43.7974288" lon="12.1967436"><ele>582.25</ele><time>2026-04-12T12:47:27.013Z</time></trkpt><trkpt lat="43.7972977" lon="12.1966587"><ele>583.5</ele><time>2026-04-12T12:47:28.012Z</time></trkpt><trkpt lat="43.7971713" lon="12.196569"><ele>584.75</ele><time>2026-04-12T12:47:29.011Z</time></trkpt><trkpt lat="43.7970488" lon="12.1964741"><ele>586.0</ele><time>2026-04-12T12:47:30.011Z</time></trkpt><trkpt lat="43.7969337" lon="12.1963455"><ele>589.5</ele><time>2026-04-12T12:47:31.012Z</time></trkpt><trkpt lat="43.7968205" lon="12.1962121"><ele>593.0</ele><time>2026-04-12T12:47:32.013Z</time></trkpt><trkpt lat="43.7967159" lon="12.1960798"><ele>596.5</ele><time>2026-04-12T12:47:33.013Z</time></trkpt><trkpt lat="43.7966137" lon="12.195966"><ele>600.0</ele><time>2026-04-12T12:47:34.012Z</time></trkpt><trkpt lat="43.7965108" lon="12.1958743"><ele>600.0</ele><time>2026-04-12T12:47:35.014Z</time></trkpt><trkpt lat="43.7963981" lon="12.195825"><ele>600.0</ele><time>2026-04-12T12:47:36.013Z</time></trkpt><trkpt lat="43.7962858" lon="12.1958013"><ele>600.0</ele><time>2026-04-12T12:47:37.011Z</time></trkpt><trkpt lat="43.7961788" lon="12.1958056"><ele>600.0</ele><time>2026-04-12T12:47:38.017Z</time></trkpt><trkpt lat="43.7960701" lon="12.1958411"><ele>598.0</ele><time>2026-04-12T12:47:39.014Z</time></trkpt><trkpt lat="43.7959602" lon="12.1959102"><ele>596.0</ele><time>2026-04-12T12:47:40.011Z</time></trkpt><trkpt lat="43.7958504" lon="12.1960023"><ele>594.0</ele><time>2026-04-12T12:47:41.01Z</time></trkpt><trkpt lat="43.7957423" lon="12.1960918"><ele>592.0</ele><time>2026-04-12T12:47:42.011Z</time></trkpt><trkpt lat="43.7956392" lon="12.1961669"><ele>592.0</ele><time>2026-04-12T12:47:43.011Z</time></trkpt><trkpt lat="43.7955363" lon="12.1962235"><ele>592.0</ele><time>2026-04-12T12:47:44.012Z</time></trkpt><trkpt lat="43.7954314" lon="12.1962491"><ele>592.0</ele><time>2026-04-12T12:47:45.013Z</time></trkpt><trkpt lat="43.7953314" lon="12.1962423"><ele>592.0</ele><time>2026-04-12T12:47:46.013Z</time></trkpt><trkpt lat="43.7952235" lon="12.1961999"><ele>592.0</ele><time>2026-04-12T12:47:47.012Z</time></trkpt><trkpt lat="43.7951068" lon="12.1961197"><ele>592.0</ele><time>2026-04-12T12:47:48.016Z</time></trkpt><trkpt lat="43.7949719" lon="12.1960227"><ele>592.0</ele><time>2026-04-12T12:47:49.011Z</time></trkpt><trkpt lat="43.7948122" lon="12.1959092"><ele>592.0</ele><time>2026-04-12T12:47:50.012Z</time></trkpt><trkpt lat="43.7946485" lon="12.1957757"><ele>592.3333333333334</ele><time>2026-04-12T12:47:51.012Z</time></trkpt><trkpt lat="43.7944899" lon="12.1956467"><ele>592.6666666666666</ele><time>2026-04-12T12:47:52.014Z</time></trkpt><trkpt lat="43.7943384" lon="12.1955311"><ele>593.0</ele><time>2026-04-12T12:47:53.012Z</time></trkpt><trkpt lat="43.7941914" lon="12.1954165"><ele>593.0</ele><time>2026-04-12T12:47:54.013Z</time></trkpt><trkpt lat="43.7940464" lon="12.1952874"><ele>593.0</ele><time>2026-04-12T12:47:55.013Z</time></trkpt><trkpt lat="43.7938986" lon="12.1951529"><ele>593.0</ele><time>2026-04-12T12:47:56.011Z</time></trkpt><trkpt lat="43.793752" lon="12.1950249"><ele>593.0</ele><time>2026-04-12T12:47:57.017Z</time></trkpt><trkpt lat="43.7936104" lon="12.1949047"><ele>593.0</ele><time>2026-04-12T12:47:58.012Z</time></trkpt><trkpt lat="43.7934792" lon="12.1947862"><ele>593.0</ele><time>2026-04-12T12:47:59.013Z</time></trkpt><trkpt lat="43.7933572" lon="12.1946829"><ele>594.5</ele><time>2026-04-12T12:48:00.013Z</time></trkpt><trkpt lat="43.7932366" lon="12.1945881"><ele>596.0</ele><time>2026-04-12T12:48:01.014Z</time></trkpt><trkpt lat="43.7931206" lon="12.1945107"><ele>597.5</ele><time>2026-04-12T12:48:02.012Z</time></trkpt><trkpt lat="43.7930053" lon="12.1944732"><ele>599.0</ele><time>2026-04-12T12:48:03.014Z</time></trkpt><trkpt lat="43.7928991" lon="12.1944961"><ele>599.0</ele><time>2026-04-12T12:48:04.011Z</time></trkpt><trkpt lat="43.7927961" lon="12.1945756"><ele>599.0</ele><time>2026-04-12T12:48:05.014Z</time></trkpt><trkpt lat="43.7926925" lon="12.1946943"><ele>599.0</ele><time>2026-04-12T12:48:06.011Z</time></trkpt><trkpt lat="43.7925811" lon="12.1948322"><ele>599.0</ele><time>2026-04-12T12:48:07.012Z</time></trkpt><trkpt lat="43.7924582" lon="12.1949709"><ele>593.0</ele><time>2026-04-12T12:48:08.012Z</time></trkpt><trkpt lat="43.7923342" lon="12.1951007"><ele>587.0</ele><time>2026-04-12T12:48:09.013Z</time></trkpt><trkpt lat="43.7922112" lon="12.1952207"><ele>581.0</ele><time>2026-04-12T12:48:10.014Z</time></trkpt><trkpt lat="43.7920861" lon="12.1953374"><ele>581.0</ele><time>2026-04-12T12:48:11.013Z</time></trkpt><trkpt lat="43.7919569" lon="12.1954619"><ele>581.0</ele><time>2026-04-12T12:48:12.01Z</time></trkpt><trkpt lat="43.7918248" lon="12.1955959"><ele>581.0</ele><time>2026-04-12T12:48:13.015Z</time></trkpt><trkpt lat="43.7916977" lon="12.1957409"><ele>578.6666666666666</ele><time>2026-04-12T12:48:14.012Z</time></trkpt><trkpt lat="43.7915699" lon="12.1958907"><ele>576.3333333333334</ele><time>2026-04-12T12:48:15.013Z</time></trkpt><trkpt lat="43.7914504" lon="12.1960474"><ele>574.0</ele><time>2026-04-12T12:48:16.015Z</time></trkpt><trkpt lat="43.7913395" lon="12.1962092"><ele>574.0</ele><time>2026-04-12T12:48:17.011Z</time></trkpt><trkpt lat="43.7912323" lon="12.1963576"><ele>574.0</ele><time>2026-04-12T12:48:18.017Z</time></trkpt><trkpt lat="43.7911288" lon="12.1964821"><ele>574.0</ele><time>2026-04-12T12:48:19.014Z</time></trkpt><trkpt lat="43.7910152" lon="12.1965776"><ele>574.0</ele><time>2026-04-12T12:48:20.013Z</time></trkpt><trkpt lat="43.7908814" lon="12.1966337"><ele>571.3333333333334</ele><time>2026-04-12T12:48:21.014Z</time></trkpt><trkpt lat="43.7907295" lon="12.1966545"><ele>568.6666666666666</ele><time>2026-04-12T12:48:22.015Z</time></trkpt><trkpt lat="43.7905625" lon="12.1966502"><ele>566.0</ele><time>2026-04-12T12:48:23.013Z</time></trkpt><trkpt lat="43.7903922" lon="12.1966302"><ele>566.0</ele><time>2026-04-12T12:48:24.014Z</time></trkpt><trkpt lat="43.790231" lon="12.1966161"><ele>566.0</ele><time>2026-04-12T12:48:25.015Z</time></trkpt><trkpt lat="43.7900839" lon="12.196597"><ele>566.0</ele><time>2026-04-12T12:48:26.012Z</time></trkpt><trkpt lat="43.7899524" lon="12.1965633"><ele>566.0</ele><time>2026-04-12T12:48:27.013Z</time></trkpt><trkpt lat="43.7898356" lon="12.1964982"><ele>566.75</ele><time>2026-04-12T12:48:28.013Z</time></trkpt><trkpt lat="43.7897312" lon="12.1963916"><ele>567.5</ele><time>2026-04-12T12:48:29.013Z</time></trkpt><trkpt lat="43.7896307" lon="12.1962431"><ele>568.25</ele><time>2026-04-12T12:48:30.014Z</time></trkpt><trkpt lat="43.7895229" lon="12.1960785"><ele>569.0</ele><time>2026-04-12T12:48:31.013Z</time></trkpt><trkpt lat="43.7893952" lon="12.1959312"><ele>571.6666666666666</ele><time>2026-04-12T12:48:32.014Z</time></trkpt><trkpt lat="43.7892524" lon="12.1958128"><ele>574.3333333333334</ele><time>2026-04-12T12:48:33.014Z</time></trkpt><trkpt lat="43.7891027" lon="12.1957196"><ele>577.0</ele><time>2026-04-12T12:48:34.012Z</time></trkpt><trkpt lat="43.7889618" lon="12.1956439"><ele>577.0</ele><time>2026-04-12T12:48:35.013Z</time></trkpt><trkpt lat="43.7888381" lon="12.1955832"><ele>577.0</ele><time>2026-04-12T12:48:36.012Z</time></trkpt><trkpt lat="43.7887307" lon="12.1955408"><ele>577.0</ele><time>2026-04-12T12:48:37.013Z</time></trkpt><trkpt lat="43.7886368" lon="12.1955355"><ele>577.0</ele><time>2026-04-12T12:48:38.013Z</time></trkpt><trkpt lat="43.7885546" lon="12.1955677"><ele>577.0</ele><time>2026-04-12T12:48:39.012Z</time></trkpt><trkpt lat="43.7885018" lon="12.195642"><ele>572.0</ele><time>2026-04-12T12:48:40.012Z</time></trkpt><trkpt lat="43.7884734" lon="12.1957367"><ele>567.0</ele><time>2026-04-12T12:48:41.012Z</time></trkpt><trkpt lat="43.7885021" lon="12.1958696"><ele>562.0</ele><time>2026-04-12T12:48:42.012Z</time></trkpt><trkpt lat="43.7885662" lon="12.1960212"><ele>557.0</ele><time>2026-04-12T12:48:43.012Z</time></trkpt><trkpt lat="43.7886633" lon="12.1961997"><ele>557.0</ele><time>2026-04-12T12:48:44.014Z</time></trkpt><trkpt lat="43.7887519" lon="12.1963931"><ele>557.0</ele><time>2026-04-12T12:48:45.017Z</time></trkpt><trkpt lat="43.7888296" lon="12.1965938"><ele>557.0</ele><time>2026-04-12T12:48:46.012Z</time></trkpt><trkpt lat="43.7888993" lon="12.1967969"><ele>554.0</ele><time>2026-04-12T12:48:47.012Z</time></trkpt><trkpt lat="43.7889583" lon="12.1970058"><ele>551.0</ele><time>2026-04-12T12:48:48.013Z</time></trkpt><trkpt lat="43.789006" lon="12.1972231"><ele>548.0</ele><time>2026-04-12T12:48:49.013Z</time></trkpt><trkpt lat="43.7890605" lon="12.1974285"><ele>544.75</ele><time>2026-04-12T12:48:50.013Z</time></trkpt><trkpt lat="43.7891085" lon="12.1976179"><ele>541.5</ele><time>2026-04-12T12:48:51.013Z</time></trkpt><trkpt lat="43.7891431" lon="12.1978019"><ele>538.25</ele><time>2026-04-12T12:48:52.012Z</time></trkpt><trkpt lat="43.7891436" lon="12.1979849"><ele>535.0</ele><time>2026-04-12T12:48:53.012Z</time></trkpt><trkpt lat="43.789113" lon="12.1981773"><ele>532.25</ele><time>2026-04-12T12:48:54.012Z</time></trkpt><trkpt lat="43.7890606" lon="12.1983735"><ele>529.5</ele><time>2026-04-12T12:48:55.012Z</time></trkpt><trkpt lat="43.7889972" lon="12.1985672"><ele>526.75</ele><time>2026-04-12T12:48:56.012Z</time></trkpt><trkpt lat="43.7889396" lon="12.1987447"><ele>524.0</ele><time>2026-04-12T12:48:57.013Z</time></trkpt><trkpt lat="43.7888862" lon="12.1988995"><ele>523.8</ele><time>2026-04-12T12:48:58.015Z</time></trkpt><trkpt lat="43.7888221" lon="12.1990294"><ele>523.5999999999999</ele><time>2026-04-12T12:48:59.012Z</time></trkpt><trkpt lat="43.7887527" lon="12.199123"><ele>523.4</ele><time>2026-04-12T12:49:00.011Z</time></trkpt><trkpt lat="43.7886618" lon="12.1991541"><ele>523.1999999999999</ele><time>2026-04-12T12:49:01.013Z</time></trkpt><trkpt lat="43.788562" lon="12.1991315"><ele>523.0</ele><time>2026-04-12T12:49:02.011Z</time></trkpt><trkpt lat="43.7884626" lon="12.1990504"><ele>521.75</ele><time>2026-04-12T12:49:03.016Z</time></trkpt><trkpt lat="43.7883678" lon="12.1989138"><ele>520.5</ele><time>2026-04-12T12:49:04.014Z</time></trkpt><trkpt lat="43.7882792" lon="12.1987496"><ele>519.25</ele><time>2026-04-12T12:49:05.013Z</time></trkpt><trkpt lat="43.7881952" lon="12.1985846"><ele>518.0</ele><time>2026-04-12T12:49:06.013Z</time></trkpt><trkpt lat="43.7881135" lon="12.1984229"><ele>518.0</ele><time>2026-04-12T12:49:07.012Z</time></trkpt><trkpt lat="43.7880357" lon="12.1982705"><ele>518.0</ele><time>2026-04-12T12:49:08.014Z</time></trkpt><trkpt lat="43.7879589" lon="12.1981322"><ele>518.0</ele><time>2026-04-12T12:49:09.013Z</time></trkpt><trkpt lat="43.7878762" lon="12.1980206"><ele>518.0</ele><time>2026-04-12T12:49:10.011Z</time></trkpt><trkpt lat="43.7877832" lon="12.1979502"><ele>518.6</ele><time>2026-04-12T12:49:11.012Z</time></trkpt><trkpt lat="43.7876835" lon="12.1979317"><ele>519.1999999999999</ele><time>2026-04-12T12:49:12.012Z</time></trkpt><trkpt lat="43.7875891" lon="12.1979608"><ele>519.8</ele><time>2026-04-12T12:49:13.014Z</time></trkpt><trkpt lat="43.787503" lon="12.1980414"><ele>520.4</ele><time>2026-04-12T12:49:14.013Z</time></trkpt><trkpt lat="43.7874187" lon="12.1981699"><ele>521.0</ele><time>2026-04-12T12:49:15.011Z</time></trkpt><trkpt lat="43.7873232" lon="12.1983233"><ele>516.6666666666666</ele><time>2026-04-12T12:49:16.012Z</time></trkpt><trkpt lat="43.7872197" lon="12.1984849"><ele>512.3333333333334</ele><time>2026-04-12T12:49:17.013Z</time></trkpt><trkpt lat="43.7871181" lon="12.198645"><ele>508.0</ele><time>2026-04-12T12:49:18.012Z</time></trkpt><trkpt lat="43.7870236" lon="12.1988039"><ele>508.0</ele><time>2026-04-12T12:49:19.013Z</time></trkpt><trkpt lat="43.7869437" lon="12.1989685"><ele>508.0</ele><time>2026-04-12T12:49:20.013Z</time></trkpt><trkpt lat="43.7868739" lon="12.199137"><ele>508.0</ele><time>2026-04-12T12:49:21.014Z</time></trkpt><trkpt lat="43.7868351" lon="12.1993088"><ele>508.0</ele><time>2026-04-12T12:49:22.012Z</time></trkpt><trkpt lat="43.7868344" lon="12.1994758"><ele>507.5</ele><time>2026-04-12T12:49:23.012Z</time></trkpt><trkpt lat="43.7868638" lon="12.1996409"><ele>507.0</ele><time>2026-04-12T12:49:24.018Z</time></trkpt><trkpt lat="43.7869135" lon="12.1998087"><ele>506.5</ele><time>2026-04-12T12:49:25.014Z</time></trkpt><trkpt lat="43.7869672" lon="12.1999836"><ele>506.0</ele><time>2026-04-12T12:49:26.012Z</time></trkpt><trkpt lat="43.7870214" lon="12.2001586"><ele>504.0</ele><time>2026-04-12T12:49:27.014Z</time></trkpt><trkpt lat="43.7870825" lon="12.2003163"><ele>502.0</ele><time>2026-04-12T12:49:28.013Z</time></trkpt><trkpt lat="43.7871541" lon="12.2004505"><ele>500.0</ele><time>2026-04-12T12:49:29.014Z</time></trkpt><trkpt lat="43.7872434" lon="12.2005524"><ele>498.0</ele><time>2026-04-12T12:49:30.012Z</time></trkpt><trkpt lat="43.7873572" lon="12.2006292"><ele>496.0</ele><time>2026-04-12T12:49:31.013Z</time></trkpt><trkpt lat="43.787488" lon="12.2006882"><ele>494.0</ele><time>2026-04-12T12:49:32.013Z</time></trkpt><trkpt lat="43.7876239" lon="12.2007403"><ele>492.0</ele><time>2026-04-12T12:49:33.013Z</time></trkpt><trkpt lat="43.7877582" lon="12.2008002"><ele>490.0</ele><time>2026-04-12T12:49:34.012Z</time></trkpt><trkpt lat="43.7878872" lon="12.2008738"><ele>490.0</ele><time>2026-04-12T12:49:35.011Z</time></trkpt><trkpt lat="43.7880009" lon="12.2009577"><ele>490.0</ele><time>2026-04-12T12:49:36.014Z</time></trkpt><trkpt lat="43.7880899" lon="12.2010534"><ele>490.0</ele><time>2026-04-12T12:49:37.014Z</time></trkpt><trkpt lat="43.7881506" lon="12.201153"><ele>490.0</ele><time>2026-04-12T12:49:38.013Z</time></trkpt><trkpt lat="43.7881905" lon="12.2012624"><ele>490.0</ele><time>2026-04-12T12:49:39.014Z</time></trkpt><trkpt lat="43.7881862" lon="12.2013708"><ele>490.0</ele><time>2026-04-12T12:49:40.012Z</time></trkpt><trkpt lat="43.7881479" lon="12.2014676"><ele>490.0</ele><time>2026-04-12T12:49:41.011Z</time></trkpt><trkpt lat="43.7880945" lon="12.2015456"><ele>490.0</ele><time>2026-04-12T12:49:42.013Z</time></trkpt><trkpt lat="43.7880188" lon="12.2015981"><ele>490.0</ele><time>2026-04-12T12:49:43.013Z</time></trkpt><trkpt lat="43.7879137" lon="12.2016154"><ele>490.0</ele><time>2026-04-12T12:49:44.013Z</time></trkpt><trkpt lat="43.7877827" lon="12.2016087"><ele>485.0</ele><time>2026-04-12T12:49:45.011Z</time></trkpt><trkpt lat="43.7875268" lon="12.2015244"><ele>480.0</ele><time>2026-04-12T12:49:46.012Z</time></trkpt><trkpt lat="43.7872911" lon="12.2014508"><ele>480.0</ele><time>2026-04-12T12:49:47.013Z</time></trkpt><trkpt lat="43.7870741" lon="12.2013878"><ele>480.0</ele><time>2026-04-12T12:49:48.013Z</time></trkpt><trkpt lat="43.7868762" lon="12.2013448"><ele>480.0</ele><time>2026-04-12T12:49:49.015Z</time></trkpt><trkpt lat="43.7866804" lon="12.2013041"><ele>477.66666666666663</ele><time>2026-04-12T12:49:50.013Z</time></trkpt><trkpt lat="43.7864954" lon="12.2012826"><ele>475.3333333333333</ele><time>2026-04-12T12:49:51.017Z</time></trkpt><trkpt lat="43.7863236" lon="12.2012932"><ele>473.0</ele><time>2026-04-12T12:49:52.013Z</time></trkpt><trkpt lat="43.7861605" lon="12.2013585"><ele>469.66666666666663</ele><time>2026-04-12T12:49:53.013Z</time></trkpt><trkpt lat="43.7860048" lon="12.2014701"><ele>466.33333333333337</ele><time>2026-04-12T12:49:54.012Z</time></trkpt><trkpt lat="43.7858578" lon="12.2015787"><ele>463.0</ele><time>2026-04-12T12:49:55.013Z</time></trkpt><trkpt lat="43.7857227" lon="12.2016622"><ele>463.0</ele><time>2026-04-12T12:49:56.013Z</time></trkpt><trkpt lat="43.7855966" lon="12.2017087"><ele>462.99999999999994</ele><time>2026-04-12T12:49:57.016Z</time></trkpt><trkpt lat="43.7854926" lon="12.2017053"><ele>462.99999999999994</ele><time>2026-04-12T12:49:58.013Z</time></trkpt><trkpt lat="43.7853974" lon="12.2016519"><ele>463.0</ele><time>2026-04-12T12:49:59.011Z</time></trkpt><trkpt lat="43.7853106" lon="12.201557"><ele>463.0</ele><time>2026-04-12T12:50:00.013Z</time></trkpt><trkpt lat="43.7852411" lon="12.2014161"><ele>463.0</ele><time>2026-04-12T12:50:01.013Z</time></trkpt><trkpt lat="43.7851923" lon="12.2012349"><ele>463.0</ele><time>2026-04-12T12:50:02.011Z</time></trkpt><trkpt lat="43.7851483" lon="12.2010412"><ele>463.0</ele><time>2026-04-12T12:50:03.012Z</time></trkpt><trkpt lat="43.7851058" lon="12.2008636"><ele>463.0</ele><time>2026-04-12T12:50:04.012Z</time></trkpt><trkpt lat="43.7850651" lon="12.2007176"><ele>460.00000000000006</ele><time>2026-04-12T12:50:05.012Z</time></trkpt><trkpt lat="43.7850175" lon="12.2006029"><ele>457.0</ele><time>2026-04-12T12:50:06.012Z</time></trkpt><trkpt lat="43.784962" lon="12.2005192"><ele>454.0</ele><time>2026-04-12T12:50:07.012Z</time></trkpt><trkpt lat="43.7848959" lon="12.2004718"><ele>451.0</ele><time>2026-04-12T12:50:08.014Z</time></trkpt><trkpt lat="43.7848289" lon="12.2004523"><ele>448.00000000000006</ele><time>2026-04-12T12:50:09.012Z</time></trkpt><trkpt lat="43.7847629" lon="12.2004778"><ele>445.0</ele><time>2026-04-12T12:50:10.017Z</time></trkpt><trkpt lat="43.7846861" lon="12.2005575"><ele>445.6666666666667</ele><time>2026-04-12T12:50:11.012Z</time></trkpt><trkpt lat="43.7845887" lon="12.2007566"><ele>446.33333333333337</ele><time>2026-04-12T12:50:12.01Z</time></trkpt><trkpt lat="43.7844864" lon="12.2009361"><ele>447.0</ele><time>2026-04-12T12:50:13.013Z</time></trkpt><trkpt lat="43.7843721" lon="12.201084"><ele>441.66666666666663</ele><time>2026-04-12T12:50:14.013Z</time></trkpt><trkpt lat="43.7842448" lon="12.2011939"><ele>436.3333333333333</ele><time>2026-04-12T12:50:15.014Z</time></trkpt><trkpt lat="43.7841086" lon="12.2012825"><ele>431.0</ele><time>2026-04-12T12:50:16.016Z</time></trkpt><trkpt lat="43.7839691" lon="12.2013619"><ele>431.0</ele><time>2026-04-12T12:50:17.012Z</time></trkpt><trkpt lat="43.7838353" lon="12.2014389"><ele>431.0</ele><time>2026-04-12T12:50:18.011Z</time></trkpt><trkpt lat="43.7837194" lon="12.2015156"><ele>431.0</ele><time>2026-04-12T12:50:19.011Z</time></trkpt><trkpt lat="43.783626" lon="12.2015958"><ele>431.0</ele><time>2026-04-12T12:50:20.013Z</time></trkpt><trkpt lat="43.7835767" lon="12.2017089"><ele>430.3333333333333</ele><time>2026-04-12T12:50:21.014Z</time></trkpt><trkpt lat="43.7835635" lon="12.2018382"><ele>429.66666666666663</ele><time>2026-04-12T12:50:22.013Z</time></trkpt><trkpt lat="43.7835753" lon="12.2019635"><ele>429.0</ele><time>2026-04-12T12:50:23.011Z</time></trkpt><trkpt lat="43.7835931" lon="12.2020846"><ele>428.33333333333337</ele><time>2026-04-12T12:50:24.015Z</time></trkpt><trkpt lat="43.7835965" lon="12.2022039"><ele>427.6666666666667</ele><time>2026-04-12T12:50:25.013Z</time></trkpt><trkpt lat="43.7835795" lon="12.2023124"><ele>427.0</ele><time>2026-04-12T12:50:26.013Z</time></trkpt><trkpt lat="43.7835404" lon="12.2024033"><ele>425.8</ele><time>2026-04-12T12:50:27.012Z</time></trkpt><trkpt lat="43.7834785" lon="12.2024496"><ele>424.6</ele><time>2026-04-12T12:50:28.012Z</time></trkpt><trkpt lat="43.7833846" lon="12.2023713"><ele>423.40000000000003</ele><time>2026-04-12T12:50:29.015Z</time></trkpt><trkpt lat="43.7832998" lon="12.2022491"><ele>422.20000000000005</ele><time>2026-04-12T12:50:30.013Z</time></trkpt><trkpt lat="43.7832271" lon="12.2021228"><ele>421.0</ele><time>2026-04-12T12:50:31.012Z</time></trkpt><trkpt lat="43.7831331" lon="12.2020361"><ele>421.0</ele><time>2026-04-12T12:50:32.013Z</time></trkpt><trkpt lat="43.7830282" lon="12.2019795"><ele>421.0</ele><time>2026-04-12T12:50:33.014Z</time></trkpt><trkpt lat="43.7829157" lon="12.2019676"><ele>421.0</ele><time>2026-04-12T12:50:34.015Z</time></trkpt><trkpt lat="43.782803" lon="12.2020058"><ele>421.0</ele><time>2026-04-12T12:50:35.011Z</time></trkpt><trkpt lat="43.7826807" lon="12.2020905"><ele>420.6666666666667</ele><time>2026-04-12T12:50:36.012Z</time></trkpt><trkpt lat="43.7825385" lon="12.20219"><ele>420.33333333333337</ele><time>2026-04-12T12:50:37.013Z</time></trkpt><trkpt lat="43.7823839" lon="12.2023037"><ele>420.0</ele><time>2026-04-12T12:50:38.012Z</time></trkpt><trkpt lat="43.7822154" lon="12.2024269"><ele>416.66666666666663</ele><time>2026-04-12T12:50:39.011Z</time></trkpt><trkpt lat="43.7820278" lon="12.2025578"><ele>413.3333333333333</ele><time>2026-04-12T12:50:40.012Z</time></trkpt><trkpt lat="43.7818223" lon="12.2026928"><ele>410.0</ele><time>2026-04-12T12:50:41.011Z</time></trkpt><trkpt lat="43.7816187" lon="12.2028341"><ele>410.0</ele><time>2026-04-12T12:50:42.014Z</time></trkpt><trkpt lat="43.7814287" lon="12.2029688"><ele>410.0</ele><time>2026-04-12T12:50:43.013Z</time></trkpt><trkpt lat="43.7812559" lon="12.2030901"><ele>410.0</ele><time>2026-04-12T12:50:44.012Z</time></trkpt><trkpt lat="43.7810973" lon="12.2031979"><ele>408.75</ele><time>2026-04-12T12:50:45.013Z</time></trkpt><trkpt lat="43.7809558" lon="12.2033025"><ele>407.5</ele><time>2026-04-12T12:50:46.013Z</time></trkpt><trkpt lat="43.7808282" lon="12.2033945"><ele>406.25</ele><time>2026-04-12T12:50:47.013Z</time></trkpt><trkpt lat="43.7807106" lon="12.2034848"><ele>405.0</ele><time>2026-04-12T12:50:48.013Z</time></trkpt><trkpt lat="43.7806025" lon="12.2035786"><ele>405.0</ele><time>2026-04-12T12:50:49.012Z</time></trkpt><trkpt lat="43.7804972" lon="12.2036932"><ele>405.0</ele><time>2026-04-12T12:50:50.012Z</time></trkpt><trkpt lat="43.7803984" lon="12.2038266"><ele>405.0</ele><time>2026-04-12T12:50:51.014Z</time></trkpt><trkpt lat="43.7803187" lon="12.2039765"><ele>405.0</ele><time>2026-04-12T12:50:52.012Z</time></trkpt><trkpt lat="43.7802581" lon="12.2041369"><ele>405.33333333333337</ele><time>2026-04-12T12:50:53.014Z</time></trkpt><trkpt lat="43.7802226" lon="12.2043293"><ele>405.6666666666667</ele><time>2026-04-12T12:50:54.011Z</time></trkpt><trkpt lat="43.7802008" lon="12.2045518"><ele>406.0</ele><time>2026-04-12T12:50:55.012Z</time></trkpt><trkpt lat="43.7802027" lon="12.2047976"><ele>406.33333333333337</ele><time>2026-04-12T12:50:56.014Z</time></trkpt><trkpt lat="43.7802293" lon="12.2050547"><ele>406.66666666666663</ele><time>2026-04-12T12:50:57.013Z</time></trkpt><trkpt lat="43.7802615" lon="12.2053132"><ele>407.0</ele><time>2026-04-12T12:50:58.015Z</time></trkpt><trkpt lat="43.7802688" lon="12.2055608"><ele>408.0</ele><time>2026-04-12T12:50:59.015Z</time></trkpt><trkpt lat="43.7802584" lon="12.2057882"><ele>409.0</ele><time>2026-04-12T12:51:00.013Z</time></trkpt><trkpt lat="43.7802686" lon="12.2059858"><ele>410.0</ele><time>2026-04-12T12:51:01.013Z</time></trkpt><trkpt lat="43.7803033" lon="12.2061436"><ele>411.0</ele><time>2026-04-12T12:51:02.012Z</time></trkpt><trkpt lat="43.7803445" lon="12.2062701"><ele>411.0</ele><time>2026-04-12T12:51:03.012Z</time></trkpt><trkpt lat="43.780382" lon="12.2063678"><ele>411.0</ele><time>2026-04-12T12:51:04.012Z</time></trkpt><trkpt lat="43.7804132" lon="12.2065018"><ele>411.0</ele><time>2026-04-12T12:51:06.011Z</time></trkpt><trkpt lat="43.7803096" lon="12.2063763"><ele>411.0</ele><time>2026-04-12T12:51:10.012Z</time></trkpt><trkpt lat="43.7802599" lon="12.2062252"><ele>411.0</ele><time>2026-04-12T12:51:11.013Z</time></trkpt><trkpt lat="43.7801968" lon="12.2060706"><ele>413.33333333333337</ele><time>2026-04-12T12:51:12.012Z</time></trkpt><trkpt lat="43.7801412" lon="12.2058835"><ele>415.6666666666667</ele><time>2026-04-12T12:51:13.012Z</time></trkpt><trkpt lat="43.7801026" lon="12.2056652"><ele>418.0</ele><time>2026-04-12T12:51:14.011Z</time></trkpt><trkpt lat="43.7800551" lon="12.2054653"><ele>418.0</ele><time>2026-04-12T12:51:15.013Z</time></trkpt><trkpt lat="43.7799888" lon="12.2053157"><ele>418.0</ele><time>2026-04-12T12:51:16.015Z</time></trkpt><trkpt lat="43.7798904" lon="12.2052048"><ele>418.0</ele><time>2026-04-12T12:51:17.011Z</time></trkpt><trkpt lat="43.7797561" lon="12.2051226"><ele>418.0</ele><time>2026-04-12T12:51:18.014Z</time></trkpt><trkpt lat="43.7796079" lon="12.2050507"><ele>418.0</ele><time>2026-04-12T12:51:19.01Z</time></trkpt><trkpt lat="43.7794584" lon="12.2049793"><ele>418.0</ele><time>2026-04-12T12:51:20.011Z</time></trkpt><trkpt lat="43.779303" lon="12.2049311"><ele>418.0</ele><time>2026-04-12T12:51:21.014Z</time></trkpt><trkpt lat="43.779139" lon="12.2049309"><ele>422.33333333333337</ele><time>2026-04-12T12:51:22.013Z</time></trkpt><trkpt lat="43.778967" lon="12.2049655"><ele>426.66666666666663</ele><time>2026-04-12T12:51:23.012Z</time></trkpt><trkpt lat="43.7788031" lon="12.205014"><ele>431.0</ele><time>2026-04-12T12:51:24.012Z</time></trkpt><trkpt lat="43.7786485" lon="12.2050438"><ele>432.0</ele><time>2026-04-12T12:51:25.013Z</time></trkpt><trkpt lat="43.7785074" lon="12.2050353"><ele>433.0</ele><time>2026-04-12T12:51:26.012Z</time></trkpt><trkpt lat="43.778376" lon="12.2049717"><ele>434.0</ele><time>2026-04-12T12:51:27.013Z</time></trkpt><trkpt lat="43.7782461" lon="12.2048955"><ele>435.0</ele><time>2026-04-12T12:51:28.012Z</time></trkpt><trkpt lat="43.7781164" lon="12.2048109"><ele>433.75</ele><time>2026-04-12T12:51:29.012Z</time></trkpt><trkpt lat="43.7779816" lon="12.2047224"><ele>432.5</ele><time>2026-04-12T12:51:30.011Z</time></trkpt><trkpt lat="43.7778491" lon="12.204628"><ele>431.25</ele><time>2026-04-12T12:51:31.013Z</time></trkpt><trkpt lat="43.7777244" lon="12.2045372"><ele>430.0</ele><time>2026-04-12T12:51:32.011Z</time></trkpt><trkpt lat="43.7776063" lon="12.2044453"><ele>430.0</ele><time>2026-04-12T12:51:33.01Z</time></trkpt><trkpt lat="43.7774886" lon="12.2043609"><ele>430.0</ele><time>2026-04-12T12:51:34.013Z</time></trkpt><trkpt lat="43.7773673" lon="12.2042784"><ele>430.0</ele><time>2026-04-12T12:51:35.012Z</time></trkpt><trkpt lat="43.777248" lon="12.2041815"><ele>430.0</ele><time>2026-04-12T12:51:36.011Z</time></trkpt><trkpt lat="43.7771278" lon="12.2040881"><ele>430.0</ele><time>2026-04-12T12:51:37.013Z</time></trkpt><trkpt lat="43.7770053" lon="12.2040007"><ele>430.0</ele><time>2026-04-12T12:51:38.013Z</time></trkpt><trkpt lat="43.7768819" lon="12.2039077"><ele>430.0</ele><time>2026-04-12T12:51:39.012Z</time></trkpt><trkpt lat="43.7767583" lon="12.2038115"><ele>430.0</ele><time>2026-04-12T12:51:40.012Z</time></trkpt><trkpt lat="43.7766377" lon="12.2037165"><ele>429.25</ele><time>2026-04-12T12:51:41.014Z</time></trkpt><trkpt lat="43.7765235" lon="12.2036316"><ele>428.5</ele><time>2026-04-12T12:51:42.015Z</time></trkpt><trkpt lat="43.7764204" lon="12.2035581"><ele>427.75</ele><time>2026-04-12T12:51:43.013Z</time></trkpt><trkpt lat="43.7763238" lon="12.2034882"><ele>427.0</ele><time>2026-04-12T12:51:44.013Z</time></trkpt><trkpt lat="43.7762305" lon="12.2034134"><ele>427.0</ele><time>2026-04-12T12:51:45.013Z</time></trkpt><trkpt lat="43.7761323" lon="12.2033346"><ele>427.0</ele><time>2026-04-12T12:51:46.011Z</time></trkpt><trkpt lat="43.7760268" lon="12.2032492"><ele>427.0</ele><time>2026-04-12T12:51:47.018Z</time></trkpt><trkpt lat="43.7759124" lon="12.2031617"><ele>427.0</ele><time>2026-04-12T12:51:48.013Z</time></trkpt><trkpt lat="43.775791" lon="12.2030698"><ele>426.0</ele><time>2026-04-12T12:51:49.012Z</time></trkpt><trkpt lat="43.7756681" lon="12.2029734"><ele>425.0</ele><time>2026-04-12T12:51:50.012Z</time></trkpt><trkpt lat="43.7755403" lon="12.2028716"><ele>424.0</ele><time>2026-04-12T12:51:51.015Z</time></trkpt><trkpt lat="43.7754145" lon="12.2027629"><ele>423.0</ele><time>2026-04-12T12:51:52.015Z</time></trkpt><trkpt lat="43.7752975" lon="12.2026413"><ele>424.25</ele><time>2026-04-12T12:51:53.013Z</time></trkpt><trkpt lat="43.7751866" lon="12.2025105"><ele>425.5</ele><time>2026-04-12T12:51:54.012Z</time></trkpt><trkpt lat="43.7750767" lon="12.2023807"><ele>426.75</ele><time>2026-04-12T12:51:55.011Z</time></trkpt><trkpt lat="43.774964" lon="12.2022606"><ele>428.0</ele><time>2026-04-12T12:51:56.011Z</time></trkpt><trkpt lat="43.7748434" lon="12.202162"><ele>428.0</ele><time>2026-04-12T12:51:57.013Z</time></trkpt><trkpt lat="43.7747097" lon="12.2020908"><ele>428.0</ele><time>2026-04-12T12:51:58.012Z</time></trkpt><trkpt lat="43.7745672" lon="12.2020473"><ele>428.0</ele><time>2026-04-12T12:51:59.012Z</time></trkpt><trkpt lat="43.7744203" lon="12.2020173"><ele>428.0</ele><time>2026-04-12T12:52:00.014Z</time></trkpt><trkpt lat="43.7742728" lon="12.2019797"><ele>428.66666666666663</ele><time>2026-04-12T12:52:01.012Z</time></trkpt><trkpt lat="43.7741293" lon="12.2019199"><ele>429.33333333333337</ele><time>2026-04-12T12:52:02.012Z</time></trkpt><trkpt lat="43.7739869" lon="12.2018372"><ele>430.0</ele><time>2026-04-12T12:52:03.014Z</time></trkpt><trkpt lat="43.7738422" lon="12.2017441"><ele>430.0</ele><time>2026-04-12T12:52:04.012Z</time></trkpt><trkpt lat="43.7736951" lon="12.2016422"><ele>430.0</ele><time>2026-04-12T12:52:05.014Z</time></trkpt><trkpt lat="43.7735428" lon="12.201548"><ele>430.0</ele><time>2026-04-12T12:52:06.013Z</time></trkpt><trkpt lat="43.7733874" lon="12.2014671"><ele>427.33333333333337</ele><time>2026-04-12T12:52:07.01Z</time></trkpt><trkpt lat="43.7732264" lon="12.2014081"><ele>424.66666666666663</ele><time>2026-04-12T12:52:08.015Z</time></trkpt><trkpt lat="43.7730689" lon="12.2013572"><ele>422.0</ele><time>2026-04-12T12:52:09.013Z</time></trkpt><trkpt lat="43.772917" lon="12.2013168"><ele>422.0</ele><time>2026-04-12T12:52:10.013Z</time></trkpt><trkpt lat="43.7727651" lon="12.2012975"><ele>422.0</ele><time>2026-04-12T12:52:11.013Z</time></trkpt><trkpt lat="43.7726044" lon="12.2012977"><ele>422.0</ele><time>2026-04-12T12:52:12.01Z</time></trkpt><trkpt lat="43.7724409" lon="12.2013195"><ele>423.3333333333333</ele><time>2026-04-12T12:52:13.013Z</time></trkpt><trkpt lat="43.7722737" lon="12.2013451"><ele>424.66666666666663</ele><time>2026-04-12T12:52:14.012Z</time></trkpt><trkpt lat="43.7721062" lon="12.201363"><ele>426.0</ele><time>2026-04-12T12:52:15.016Z</time></trkpt><trkpt lat="43.7719432" lon="12.2013482"><ele>426.0</ele><time>2026-04-12T12:52:16.012Z</time></trkpt><trkpt lat="43.7717825" lon="12.2012876"><ele>426.0</ele><time>2026-04-12T12:52:17.012Z</time></trkpt><trkpt lat="43.7716321" lon="12.2012061"><ele>426.0</ele><time>2026-04-12T12:52:18.012Z</time></trkpt><trkpt lat="43.7714844" lon="12.2011098"><ele>426.0</ele><time>2026-04-12T12:52:19.013Z</time></trkpt><trkpt lat="43.7713439" lon="12.2010058"><ele>426.0</ele><time>2026-04-12T12:52:20.016Z</time></trkpt><trkpt lat="43.7712135" lon="12.2008977"><ele>426.0</ele><time>2026-04-12T12:52:21.013Z</time></trkpt><trkpt lat="43.7710871" lon="12.2007922"><ele>424.75</ele><time>2026-04-12T12:52:22.012Z</time></trkpt><trkpt lat="43.7709544" lon="12.2007031"><ele>423.5</ele><time>2026-04-12T12:52:23.013Z</time></trkpt><trkpt lat="43.7708108" lon="12.2006444"><ele>422.25</ele><time>2026-04-12T12:52:24.01Z</time></trkpt><trkpt lat="43.7706592" lon="12.2006248"><ele>421.0</ele><time>2026-04-12T12:52:25.014Z</time></trkpt><trkpt lat="43.7705045" lon="12.2006187"><ele>421.0</ele><time>2026-04-12T12:52:26.011Z</time></trkpt><trkpt lat="43.7703482" lon="12.2006254"><ele>421.0</ele><time>2026-04-12T12:52:27.016Z</time></trkpt><trkpt lat="43.7701897" lon="12.2006401"><ele>421.0</ele><time>2026-04-12T12:52:28.011Z</time></trkpt><trkpt lat="43.7700349" lon="12.200663"><ele>425.0</ele><time>2026-04-12T12:52:29.011Z</time></trkpt><trkpt lat="43.7698876" lon="12.2006888"><ele>429.0</ele><time>2026-04-12T12:52:30.012Z</time></trkpt><trkpt lat="43.7697488" lon="12.200717"><ele>433.0</ele><time>2026-04-12T12:52:31.01Z</time></trkpt><trkpt lat="43.769615" lon="12.2007336"><ele>437.0</ele><time>2026-04-12T12:52:32.014Z</time></trkpt><trkpt lat="43.7694819" lon="12.2007274"><ele>434.5</ele><time>2026-04-12T12:52:33.014Z</time></trkpt><trkpt lat="43.7693498" lon="12.2006888"><ele>432.0</ele><time>2026-04-12T12:52:34.012Z</time></trkpt><trkpt lat="43.7692184" lon="12.2006211"><ele>429.5</ele><time>2026-04-12T12:52:35.014Z</time></trkpt><trkpt lat="43.7690862" lon="12.2005336"><ele>427.0</ele><time>2026-04-12T12:52:36.01Z</time></trkpt><trkpt lat="43.7689486" lon="12.2004446"><ele>427.0</ele><time>2026-04-12T12:52:37.011Z</time></trkpt><trkpt lat="43.7688061" lon="12.2003553"><ele>427.0</ele><time>2026-04-12T12:52:38.011Z</time></trkpt><trkpt lat="43.768658" lon="12.2002834"><ele>427.0</ele><time>2026-04-12T12:52:39.011Z</time></trkpt><trkpt lat="43.7685025" lon="12.200224"><ele>429.33333333333337</ele><time>2026-04-12T12:52:40.014Z</time></trkpt><trkpt lat="43.7683397" lon="12.2001956"><ele>431.66666666666663</ele><time>2026-04-12T12:52:41.011Z</time></trkpt><trkpt lat="43.7681843" lon="12.2001626"><ele>434.0</ele><time>2026-04-12T12:52:42.011Z</time></trkpt><trkpt lat="43.76803" lon="12.2001575"><ele>434.0</ele><time>2026-04-12T12:52:43.013Z</time></trkpt><trkpt lat="43.7678798" lon="12.200184"><ele>434.0</ele><time>2026-04-12T12:52:44.012Z</time></trkpt><trkpt lat="43.7677323" lon="12.2002435"><ele>434.0</ele><time>2026-04-12T12:52:45.017Z</time></trkpt><trkpt lat="43.7675896" lon="12.2003229"><ele>433.3333333333333</ele><time>2026-04-12T12:52:46.011Z</time></trkpt><trkpt lat="43.7674428" lon="12.2003938"><ele>432.66666666666663</ele><time>2026-04-12T12:52:47.013Z</time></trkpt><trkpt lat="43.7672933" lon="12.2004492"><ele>432.0</ele><time>2026-04-12T12:52:48.012Z</time></trkpt><trkpt lat="43.7671348" lon="12.2004834"><ele>432.0</ele><time>2026-04-12T12:52:49.013Z</time></trkpt><trkpt lat="43.7669737" lon="12.2004939"><ele>432.0</ele><time>2026-04-12T12:52:50.011Z</time></trkpt><trkpt lat="43.7668151" lon="12.2004806"><ele>432.0</ele><time>2026-04-12T12:52:51.013Z</time></trkpt><trkpt lat="43.766665" lon="12.2004555"><ele>431.75</ele><time>2026-04-12T12:52:52.012Z</time></trkpt><trkpt lat="43.7665228" lon="12.2004227"><ele>431.5</ele><time>2026-04-12T12:52:53.011Z</time></trkpt><trkpt lat="43.7663883" lon="12.2003832"><ele>431.25</ele><time>2026-04-12T12:52:54.011Z</time></trkpt><trkpt lat="43.7662632" lon="12.2003233"><ele>431.0</ele><time>2026-04-12T12:52:55.011Z</time></trkpt><trkpt lat="43.7661501" lon="12.2002304"><ele>431.0</ele><time>2026-04-12T12:52:56.011Z</time></trkpt><trkpt lat="43.7660625" lon="12.2000931"><ele>431.0</ele><time>2026-04-12T12:52:57.011Z</time></trkpt><trkpt lat="43.7659865" lon="12.1999434"><ele>431.0</ele><time>2026-04-12T12:52:58.011Z</time></trkpt><trkpt lat="43.7659135" lon="12.1997922"><ele>431.0</ele><time>2026-04-12T12:52:59.01Z</time></trkpt><trkpt lat="43.7658395" lon="12.1996421"><ele>431.25</ele><time>2026-04-12T12:53:00.011Z</time></trkpt><trkpt lat="43.7657662" lon="12.1994914"><ele>431.5</ele><time>2026-04-12T12:53:01.014Z</time></trkpt><trkpt lat="43.7656932" lon="12.1993401"><ele>431.75</ele><time>2026-04-12T12:53:02.012Z</time></trkpt><trkpt lat="43.7656201" lon="12.1991991"><ele>432.0</ele><time>2026-04-12T12:53:03.013Z</time></trkpt><trkpt lat="43.7655488" lon="12.1990713"><ele>431.40000000000003</ele><time>2026-04-12T12:53:04.013Z</time></trkpt><trkpt lat="43.7654679" lon="12.1989711"><ele>430.80000000000007</ele><time>2026-04-12T12:53:05.011Z</time></trkpt><trkpt lat="43.7653793" lon="12.1988883"><ele>430.2</ele><time>2026-04-12T12:53:06.011Z</time></trkpt><trkpt lat="43.7652807" lon="12.1988262"><ele>429.6</ele><time>2026-04-12T12:53:07.01Z</time></trkpt><trkpt lat="43.7651685" lon="12.1987832"><ele>429.0</ele><time>2026-04-12T12:53:08.012Z</time></trkpt><trkpt lat="43.7650523" lon="12.1987402"><ele>431.0</ele><time>2026-04-12T12:53:09.011Z</time></trkpt><trkpt lat="43.7649296" lon="12.1986897"><ele>433.0</ele><time>2026-04-12T12:53:10.011Z</time></trkpt><trkpt lat="43.7648019" lon="12.1986326"><ele>435.0</ele><time>2026-04-12T12:53:11.013Z</time></trkpt><trkpt lat="43.7646751" lon="12.1985705"><ele>437.0</ele><time>2026-04-12T12:53:12.012Z</time></trkpt><trkpt lat="43.7645574" lon="12.198509"><ele>437.0</ele><time>2026-04-12T12:53:13.011Z</time></trkpt><trkpt lat="43.7644604" lon="12.1984531"><ele>437.00000000000006</ele><time>2026-04-12T12:53:14.01Z</time></trkpt><trkpt lat="43.7643931" lon="12.1983841"><ele>437.00000000000006</ele><time>2026-04-12T12:53:15.013Z</time></trkpt><trkpt lat="43.7643404" lon="12.1982991"><ele>437.0</ele><time>2026-04-12T12:53:16.015Z</time></trkpt><trkpt lat="43.7643112" lon="12.1981753"><ele>437.0</ele><time>2026-04-12T12:53:17.012Z</time></trkpt><trkpt lat="43.7642932" lon="12.1980122"><ele>436.5</ele><time>2026-04-12T12:53:18.014Z</time></trkpt><trkpt lat="43.7642625" lon="12.1978305"><ele>436.0</ele><time>2026-04-12T12:53:19.018Z</time></trkpt><trkpt lat="43.7642213" lon="12.1976273"><ele>435.5</ele><time>2026-04-12T12:53:20.011Z</time></trkpt><trkpt lat="43.764179" lon="12.1974204"><ele>435.0</ele><time>2026-04-12T12:53:21.012Z</time></trkpt><trkpt lat="43.7641363" lon="12.1972247"><ele>435.0</ele><time>2026-04-12T12:53:22.013Z</time></trkpt><trkpt lat="43.7640966" lon="12.1970465"><ele>435.0</ele><time>2026-04-12T12:53:23.011Z</time></trkpt><trkpt lat="43.764059" lon="12.1968805"><ele>435.0</ele><time>2026-04-12T12:53:24.014Z</time></trkpt><trkpt lat="43.7640295" lon="12.1967243"><ele>435.0</ele><time>2026-04-12T12:53:25.011Z</time></trkpt><trkpt lat="43.7640069" lon="12.1965652"><ele>436.75</ele><time>2026-04-12T12:53:26.011Z</time></trkpt><trkpt lat="43.764016" lon="12.196392"><ele>438.5</ele><time>2026-04-12T12:53:27.013Z</time></trkpt><trkpt lat="43.7640576" lon="12.19621"><ele>440.25</ele><time>2026-04-12T12:53:28.011Z</time></trkpt><trkpt lat="43.7641195" lon="12.1960215"><ele>442.0</ele><time>2026-04-12T12:53:29.013Z</time></trkpt><trkpt lat="43.7641729" lon="12.1958203"><ele>450.0</ele><time>2026-04-12T12:53:30.012Z</time></trkpt><trkpt lat="43.764233" lon="12.1956195"><ele>458.0</ele><time>2026-04-12T12:53:31.012Z</time></trkpt><trkpt lat="43.7642912" lon="12.1954123"><ele>466.0</ele><time>2026-04-12T12:53:32.013Z</time></trkpt><trkpt lat="43.7643573" lon="12.1952141"><ele>465.5</ele><time>2026-04-12T12:53:33.015Z</time></trkpt><trkpt lat="43.7644348" lon="12.1950319"><ele>465.0</ele><time>2026-04-12T12:53:34.012Z</time></trkpt><trkpt lat="43.764522" lon="12.194883"><ele>464.5</ele><time>2026-04-12T12:53:35.011Z</time></trkpt><trkpt lat="43.7645987" lon="12.1947641"><ele>464.0</ele><time>2026-04-12T12:53:36.012Z</time></trkpt><trkpt lat="43.7646534" lon="12.1946663"><ele>464.79999999999995</ele><time>2026-04-12T12:53:37.011Z</time></trkpt><trkpt lat="43.76471" lon="12.1945367"><ele>465.59999999999997</ele><time>2026-04-12T12:53:39.012Z</time></trkpt><trkpt lat="43.76464" lon="12.1945267"><ele>466.4</ele><time>2026-04-12T12:53:41.012Z</time></trkpt><trkpt lat="43.7645767" lon="12.1946"><ele>467.2</ele><time>2026-04-12T12:53:42.011Z</time></trkpt><trkpt lat="43.7645133" lon="12.194705"><ele>468.0</ele><time>2026-04-12T12:53:43.011Z</time></trkpt><trkpt lat="43.7644533" lon="12.1948067"><ele>467.59999999999997</ele><time>2026-04-12T12:53:44.012Z</time></trkpt><trkpt lat="43.7643867" lon="12.194895"><ele>467.19999999999993</ele><time>2026-04-12T12:53:45.01Z</time></trkpt><trkpt lat="43.764305" lon="12.19499"><ele>466.8</ele><time>2026-04-12T12:53:46.012Z</time></trkpt><trkpt lat="43.7642167" lon="12.1950883"><ele>466.4</ele><time>2026-04-12T12:53:47.01Z</time></trkpt><trkpt lat="43.76412" lon="12.1951717"><ele>466.0</ele><time>2026-04-12T12:53:48.012Z</time></trkpt><trkpt lat="43.764" lon="12.1952333"><ele>466.0</ele><time>2026-04-12T12:53:49.012Z</time></trkpt><trkpt lat="43.7638683" lon="12.1953133"><ele>466.0</ele><time>2026-04-12T12:53:50.011Z</time></trkpt><trkpt lat="43.76374" lon="12.19541"><ele>466.0</ele><time>2026-04-12T12:53:51.014Z</time></trkpt><trkpt lat="43.7636117" lon="12.1955167"><ele>466.0</ele><time>2026-04-12T12:53:52.013Z</time></trkpt><trkpt lat="43.763475" lon="12.19562"><ele>468.5</ele><time>2026-04-12T12:53:53.012Z</time></trkpt><trkpt lat="43.763345" lon="12.1957133"><ele>471.0</ele><time>2026-04-12T12:53:54.012Z</time></trkpt><trkpt lat="43.76321" lon="12.195805"><ele>473.5</ele><time>2026-04-12T12:53:55.011Z</time></trkpt><trkpt lat="43.7630717" lon="12.1958817"><ele>476.0</ele><time>2026-04-12T12:53:56.011Z</time></trkpt><trkpt lat="43.76293" lon="12.1959267"><ele>476.0</ele><time>2026-04-12T12:53:57.011Z</time></trkpt><trkpt lat="43.7627967" lon="12.196025"><ele>476.0</ele><time>2026-04-12T12:53:58.015Z</time></trkpt><trkpt lat="43.7626717" lon="12.1961767"><ele>476.0</ele><time>2026-04-12T12:53:59.01Z</time></trkpt><trkpt lat="43.76255" lon="12.19633"><ele>475.0</ele><time>2026-04-12T12:54:00.015Z</time></trkpt><trkpt lat="43.7624367" lon="12.1964633"><ele>474.0</ele><time>2026-04-12T12:54:01.011Z</time></trkpt><trkpt lat="43.7623467" lon="12.1965783"><ele>473.0</ele><time>2026-04-12T12:54:02.012Z</time></trkpt><trkpt lat="43.7622717" lon="12.1966667"><ele>472.0</ele><time>2026-04-12T12:54:03.011Z</time></trkpt><trkpt lat="43.7622083" lon="12.1967083"><ele>471.0</ele><time>2026-04-12T12:54:04.01Z</time></trkpt><trkpt lat="43.7621317" lon="12.1966883"><ele>471.0</ele><time>2026-04-12T12:54:06.013Z</time></trkpt><trkpt lat="43.7621733" lon="12.19656"><ele>471.0</ele><time>2026-04-12T12:54:08.012Z</time></trkpt><trkpt lat="43.7622217" lon="12.19649"><ele>471.0</ele><time>2026-04-12T12:54:09.011Z</time></trkpt><trkpt lat="43.762285" lon="12.1964067"><ele>471.0</ele><time>2026-04-12T12:54:10.012Z</time></trkpt><trkpt lat="43.7623533" lon="12.1962983"><ele>471.0</ele><time>2026-04-12T12:54:11.011Z</time></trkpt><trkpt lat="43.7624367" lon="12.1961467"><ele>472.25</ele><time>2026-04-12T12:54:12.012Z</time></trkpt><trkpt lat="43.7625333" lon="12.1959917"><ele>473.5</ele><time>2026-04-12T12:54:13.012Z</time></trkpt><trkpt lat="43.7626433" lon="12.1958483"><ele>474.75</ele><time>2026-04-12T12:54:14.012Z</time></trkpt><trkpt lat="43.76276" lon="12.1957233"><ele>476.0</ele><time>2026-04-12T12:54:15.012Z</time></trkpt><trkpt lat="43.7628917" lon="12.1956433"><ele>482.0</ele><time>2026-04-12T12:54:16.012Z</time></trkpt><trkpt lat="43.7630067" lon="12.1955633"><ele>488.0</ele><time>2026-04-12T12:54:17.011Z</time></trkpt><trkpt lat="43.76308" lon="12.1954367"><ele>494.0</ele><time>2026-04-12T12:54:18.013Z</time></trkpt><trkpt lat="43.763135" lon="12.1952617"><ele>500.0</ele><time>2026-04-12T12:54:19.013Z</time></trkpt><trkpt lat="43.7631983" lon="12.19509"><ele>500.0</ele><time>2026-04-12T12:54:20.012Z</time></trkpt><trkpt lat="43.7633017" lon="12.19494"><ele>500.0</ele><time>2026-04-12T12:54:21.011Z</time></trkpt><trkpt lat="43.763425" lon="12.1948083"><ele>500.0</ele><time>2026-04-12T12:54:22.012Z</time></trkpt><trkpt lat="43.7635517" lon="12.1947"><ele>497.8</ele><time>2026-04-12T12:54:23.011Z</time></trkpt><trkpt lat="43.7636483" lon="12.1945917"><ele>495.6</ele><time>2026-04-12T12:54:24.011Z</time></trkpt><trkpt lat="43.7637367" lon="12.1945117"><ele>493.4</ele><time>2026-04-12T12:54:25.01Z</time></trkpt><trkpt lat="43.763805" lon="12.1944183"><ele>491.2</ele><time>2026-04-12T12:54:26.012Z</time></trkpt><trkpt lat="43.76386" lon="12.1942967"><ele>489.0</ele><time>2026-04-12T12:54:27.012Z</time></trkpt><trkpt lat="43.7638883" lon="12.1941433"><ele>493.0</ele><time>2026-04-12T12:54:28.012Z</time></trkpt><trkpt lat="43.76391" lon="12.1939733"><ele>497.0</ele><time>2026-04-12T12:54:29.012Z</time></trkpt><trkpt lat="43.7639433" lon="12.1938017"><ele>501.0</ele><time>2026-04-12T12:54:30.011Z</time></trkpt><trkpt lat="43.7639983" lon="12.19362"><ele>505.0</ele><time>2026-04-12T12:54:31.012Z</time></trkpt><trkpt lat="43.76404" lon="12.1934267"><ele>505.0</ele><time>2026-04-12T12:54:32.011Z</time></trkpt><trkpt lat="43.7640867" lon="12.1932417"><ele>505.0</ele><time>2026-04-12T12:54:33.011Z</time></trkpt><trkpt lat="43.76416" lon="12.193105"><ele>505.0</ele><time>2026-04-12T12:54:34.011Z</time></trkpt><trkpt lat="43.7642383" lon="12.1930117"><ele>505.0</ele><time>2026-04-12T12:54:35.013Z</time></trkpt><trkpt lat="43.764285" lon="12.1929133"><ele>506.0</ele><time>2026-04-12T12:54:36.015Z</time></trkpt><trkpt lat="43.7642933" lon="12.1928167"><ele>506.99999999999994</ele><time>2026-04-12T12:54:37.012Z</time></trkpt><trkpt lat="43.7642717" lon="12.1927317"><ele>508.0</ele><time>2026-04-12T12:54:38.011Z</time></trkpt><trkpt lat="43.76424" lon="12.1926533"><ele>509.0</ele><time>2026-04-12T12:54:39.012Z</time></trkpt><trkpt lat="43.7641867" lon="12.192605"><ele>509.99999999999994</ele><time>2026-04-12T12:54:40.013Z</time></trkpt><trkpt lat="43.7641267" lon="12.1925767"><ele>511.0</ele><time>2026-04-12T12:54:41.012Z</time></trkpt><trkpt lat="43.76405" lon="12.1925867"><ele>512.0</ele><time>2026-04-12T12:54:42.012Z</time></trkpt><trkpt lat="43.763955" lon="12.1926533"><ele>512.0</ele><time>2026-04-12T12:54:43.012Z</time></trkpt><trkpt lat="43.7638583" lon="12.1927883"><ele>512.0</ele><time>2026-04-12T12:54:44.013Z</time></trkpt><trkpt lat="43.7638" lon="12.19298"><ele>512.0</ele><time>2026-04-12T12:54:45.012Z</time></trkpt><trkpt lat="43.7637467" lon="12.1931133"><ele>512.0</ele><time>2026-04-12T12:54:46.011Z</time></trkpt><trkpt lat="43.7636645" lon="12.1931804"><ele>510.6</ele><time>2026-04-12T12:54:47.01Z</time></trkpt><trkpt lat="43.7635858" lon="12.193203"><ele>509.20000000000005</ele><time>2026-04-12T12:54:48.012Z</time></trkpt><trkpt lat="43.7635163" lon="12.1931972"><ele>507.8</ele><time>2026-04-12T12:54:49.011Z</time></trkpt><trkpt lat="43.7634835" lon="12.1931149"><ele>506.4</ele><time>2026-04-12T12:54:50.01Z</time></trkpt><trkpt lat="43.7634904" lon="12.1929599"><ele>505.0</ele><time>2026-04-12T12:54:51.011Z</time></trkpt><trkpt lat="43.7635106" lon="12.1927881"><ele>511.0</ele><time>2026-04-12T12:54:52.011Z</time></trkpt><trkpt lat="43.763506" lon="12.1926106"><ele>517.0</ele><time>2026-04-12T12:54:53.013Z</time></trkpt><trkpt lat="43.7634606" lon="12.1924312"><ele>523.0</ele><time>2026-04-12T12:54:54.013Z</time></trkpt><trkpt lat="43.7633803" lon="12.1922581"><ele>529.0</ele><time>2026-04-12T12:54:55.013Z</time></trkpt><trkpt lat="43.7632779" lon="12.1920939"><ele>529.0</ele><time>2026-04-12T12:54:56.01Z</time></trkpt><trkpt lat="43.7631982" lon="12.1919103"><ele>529.0</ele><time>2026-04-12T12:54:57.012Z</time></trkpt><trkpt lat="43.763154" lon="12.1916975"><ele>529.0</ele><time>2026-04-12T12:54:58.012Z</time></trkpt><trkpt lat="43.7631274" lon="12.1914757"><ele>528.25</ele><time>2026-04-12T12:54:59.011Z</time></trkpt><trkpt lat="43.7630869" lon="12.1912784"><ele>527.5</ele><time>2026-04-12T12:55:00.012Z</time></trkpt><trkpt lat="43.7630269" lon="12.1911272"><ele>526.75</ele><time>2026-04-12T12:55:01.012Z</time></trkpt><trkpt lat="43.7629554" lon="12.1910216"><ele>526.0</ele><time>2026-04-12T12:55:02.018Z</time></trkpt><trkpt lat="43.7628812" lon="12.1909471"><ele>526.0</ele><time>2026-04-12T12:55:03.011Z</time></trkpt><trkpt lat="43.7627737" lon="12.1909007"><ele>526.0</ele><time>2026-04-12T12:55:04.013Z</time></trkpt><trkpt lat="43.7626509" lon="12.1908619"><ele>526.0</ele><time>2026-04-12T12:55:05.012Z</time></trkpt><trkpt lat="43.7625277" lon="12.1908298"><ele>526.0</ele><time>2026-04-12T12:55:06.011Z</time></trkpt><trkpt lat="43.7624185" lon="12.1908362"><ele>529.2</ele><time>2026-04-12T12:55:07.016Z</time></trkpt><trkpt lat="43.7623371" lon="12.1909013"><ele>532.4000000000001</ele><time>2026-04-12T12:55:08.013Z</time></trkpt><trkpt lat="43.7622647" lon="12.1910001"><ele>535.6</ele><time>2026-04-12T12:55:09.012Z</time></trkpt><trkpt lat="43.7622245" lon="12.1911233"><ele>538.8000000000001</ele><time>2026-04-12T12:55:10.012Z</time></trkpt><trkpt lat="43.76222" lon="12.191291"><ele>542.0</ele><time>2026-04-12T12:55:11.01Z</time></trkpt><trkpt lat="43.7622084" lon="12.1914717"><ele>543.0</ele><time>2026-04-12T12:55:12.013Z</time></trkpt><trkpt lat="43.7621539" lon="12.1916399"><ele>544.0</ele><time>2026-04-12T12:55:13.012Z</time></trkpt><trkpt lat="43.7620827" lon="12.1918087"><ele>545.0</ele><time>2026-04-12T12:55:14.014Z</time></trkpt><trkpt lat="43.7619826" lon="12.191966"><ele>546.0</ele><time>2026-04-12T12:55:15.014Z</time></trkpt><trkpt lat="43.7618829" lon="12.1921316"><ele>548.5</ele><time>2026-04-12T12:55:16.011Z</time></trkpt><trkpt lat="43.7617805" lon="12.1923042"><ele>551.0</ele><time>2026-04-12T12:55:17.012Z</time></trkpt><trkpt lat="43.761706" lon="12.1924794"><ele>553.5</ele><time>2026-04-12T12:55:18.012Z</time></trkpt><trkpt lat="43.7616607" lon="12.1926442"><ele>556.0</ele><time>2026-04-12T12:55:19.012Z</time></trkpt><trkpt lat="43.7616316" lon="12.1927807"><ele>556.0</ele><time>2026-04-12T12:55:20.013Z</time></trkpt><trkpt lat="43.7616084" lon="12.1928903"><ele>556.0</ele><time>2026-04-12T12:55:21.012Z</time></trkpt><trkpt lat="43.7615814" lon="12.1929728"><ele>556.0</ele><time>2026-04-12T12:55:22.014Z</time></trkpt><trkpt lat="43.7615348" lon="12.1930914"><ele>556.0</ele><time>2026-04-12T12:55:24.011Z</time></trkpt><trkpt lat="43.7614816" lon="12.193154"><ele>556.0</ele><time>2026-04-12T12:55:26.012Z</time></trkpt><trkpt lat="43.7613668" lon="12.1931355"><ele>556.0</ele><time>2026-04-12T12:55:55.081Z</time></trkpt><trkpt lat="43.7612616" lon="12.1930233"><ele>556.0</ele><time>2026-04-12T12:55:57.013Z</time></trkpt><trkpt lat="43.7611623" lon="12.1929327"><ele>556.0</ele><time>2026-04-12T12:55:58.013Z</time></trkpt><trkpt lat="43.7610734" lon="12.1928496"><ele>556.0</ele><time>2026-04-12T12:55:59.012Z</time></trkpt><trkpt lat="43.7609729" lon="12.192756"><ele>556.0</ele><time>2026-04-12T12:56:00.016Z</time></trkpt><trkpt lat="43.7608648" lon="12.1926503"><ele>559.5</ele><time>2026-04-12T12:56:01.012Z</time></trkpt><trkpt lat="43.7607546" lon="12.1925431"><ele>563.0</ele><time>2026-04-12T12:56:02.013Z</time></trkpt><trkpt lat="43.7606398" lon="12.1924495"><ele>566.5</ele><time>2026-04-12T12:56:03.012Z</time></trkpt><trkpt lat="43.7605389" lon="12.1923655"><ele>570.0</ele><time>2026-04-12T12:56:04.013Z</time></trkpt><trkpt lat="43.76045" lon="12.1922912"><ele>570.0</ele><time>2026-04-12T12:56:05.012Z</time></trkpt><trkpt lat="43.7603752" lon="12.1922026"><ele>570.0</ele><time>2026-04-12T12:56:06.012Z</time></trkpt><trkpt lat="43.7603091" lon="12.1921093"><ele>570.0</ele><time>2026-04-12T12:56:07.011Z</time></trkpt><trkpt lat="43.760251" lon="12.1920051"><ele>570.0</ele><time>2026-04-12T12:56:08.01Z</time></trkpt><trkpt lat="43.7602068" lon="12.1918799"><ele>570.0</ele><time>2026-04-12T12:56:09.012Z</time></trkpt><trkpt lat="43.7601636" lon="12.191743"><ele>570.0</ele><time>2026-04-12T12:56:10.012Z</time></trkpt><trkpt lat="43.7601159" lon="12.1915997"><ele>570.0</ele><time>2026-04-12T12:56:11.011Z</time></trkpt><trkpt lat="43.7600552" lon="12.1914691"><ele>570.0</ele><time>2026-04-12T12:56:12.013Z</time></trkpt><trkpt lat="43.76" lon="12.1913469"><ele>570.0</ele><time>2026-04-12T12:56:13.012Z</time></trkpt><trkpt lat="43.7599448" lon="12.1912306"><ele>570.0</ele><time>2026-04-12T12:56:14.012Z</time></trkpt><trkpt lat="43.7598786" lon="12.1911226"><ele>573.0</ele><time>2026-04-12T12:56:15.012Z</time></trkpt><trkpt lat="43.7598021" lon="12.1910195"><ele>576.0</ele><time>2026-04-12T12:56:16.012Z</time></trkpt><trkpt lat="43.7597121" lon="12.1909302"><ele>579.0</ele><time>2026-04-12T12:56:17.012Z</time></trkpt><trkpt lat="43.7596123" lon="12.1908542"><ele>582.0</ele><time>2026-04-12T12:56:18.012Z</time></trkpt><trkpt lat="43.7595147" lon="12.1907776"><ele>585.0</ele><time>2026-04-12T12:56:19.012Z</time></trkpt><trkpt lat="43.759424" lon="12.1906959"><ele>581.6</ele><time>2026-04-12T12:56:20.011Z</time></trkpt><trkpt lat="43.7593452" lon="12.1906047"><ele>578.2</ele><time>2026-04-12T12:56:21.011Z</time></trkpt><trkpt lat="43.7592746" lon="12.1905033"><ele>574.8</ele><time>2026-04-12T12:56:22.011Z</time></trkpt><trkpt lat="43.7592207" lon="12.1903728"><ele>571.4</ele><time>2026-04-12T12:56:23.011Z</time></trkpt><trkpt lat="43.759176" lon="12.1902229"><ele>568.0</ele><time>2026-04-12T12:56:24.011Z</time></trkpt><trkpt lat="43.7591464" lon="12.1900636"><ele>568.0</ele><time>2026-04-12T12:56:25.014Z</time></trkpt><trkpt lat="43.7591157" lon="12.1899124"><ele>568.0</ele><time>2026-04-12T12:56:26.011Z</time></trkpt><trkpt lat="43.7590813" lon="12.1897634"><ele>568.0</ele><time>2026-04-12T12:56:27.011Z</time></trkpt><trkpt lat="43.7590497" lon="12.1896185"><ele>568.0</ele><time>2026-04-12T12:56:28.012Z</time></trkpt><trkpt lat="43.759013" lon="12.189479"><ele>568.0</ele><time>2026-04-12T12:56:29.013Z</time></trkpt><trkpt lat="43.7589588" lon="12.1893569"><ele>566.1999999999999</ele><time>2026-04-12T12:56:30.012Z</time></trkpt><trkpt lat="43.7588867" lon="12.189257"><ele>564.4</ele><time>2026-04-12T12:56:31.013Z</time></trkpt><trkpt lat="43.7587986" lon="12.1891907"><ele>562.5999999999999</ele><time>2026-04-12T12:56:32.011Z</time></trkpt><trkpt lat="43.7587025" lon="12.1891663"><ele>560.8</ele><time>2026-04-12T12:56:33.011Z</time></trkpt><trkpt lat="43.7586036" lon="12.1891679"><ele>559.0</ele><time>2026-04-12T12:56:34.013Z</time></trkpt><trkpt lat="43.7585103" lon="12.1891616"><ele>559.0</ele><time>2026-04-12T12:56:35.012Z</time></trkpt><trkpt lat="43.7584204" lon="12.1891256"><ele>559.0</ele><time>2026-04-12T12:56:36.012Z</time></trkpt><trkpt lat="43.7583341" lon="12.1890517"><ele>559.0</ele><time>2026-04-12T12:56:37.011Z</time></trkpt><trkpt lat="43.7582516" lon="12.1889545"><ele>559.0</ele><time>2026-04-12T12:56:38.011Z</time></trkpt><trkpt lat="43.7581634" lon="12.1888573"><ele>559.0</ele><time>2026-04-12T12:56:39.011Z</time></trkpt><trkpt lat="43.7580652" lon="12.1887737"><ele>563.0</ele><time>2026-04-12T12:56:40.012Z</time></trkpt><trkpt lat="43.757958" lon="12.1887126"><ele>567.0</ele><time>2026-04-12T12:56:41.011Z</time></trkpt><trkpt lat="43.7578462" lon="12.1886776"><ele>571.0</ele><time>2026-04-12T12:56:42.012Z</time></trkpt><trkpt lat="43.7577349" lon="12.1886764"><ele>575.0</ele><time>2026-04-12T12:56:43.013Z</time></trkpt><trkpt lat="43.7576314" lon="12.1887116"><ele>579.0</ele><time>2026-04-12T12:56:44.01Z</time></trkpt><trkpt lat="43.7575427" lon="12.1887742"><ele>579.0</ele><time>2026-04-12T12:56:45.017Z</time></trkpt><trkpt lat="43.7574735" lon="12.1888616"><ele>579.0</ele><time>2026-04-12T12:56:46.012Z</time></trkpt><trkpt lat="43.7574204" lon="12.1889692"><ele>579.0</ele><time>2026-04-12T12:56:47.014Z</time></trkpt><trkpt lat="43.7573843" lon="12.1891005"><ele>579.0</ele><time>2026-04-12T12:56:48.014Z</time></trkpt><trkpt lat="43.7573547" lon="12.1892449"><ele>579.0</ele><time>2026-04-12T12:56:49.012Z</time></trkpt><trkpt lat="43.7573134" lon="12.1893907"><ele>572.75</ele><time>2026-04-12T12:56:50.013Z</time></trkpt><trkpt lat="43.7572667" lon="12.1895421"><ele>566.5</ele><time>2026-04-12T12:56:51.011Z</time></trkpt><trkpt lat="43.7572227" lon="12.1896971"><ele>560.25</ele><time>2026-04-12T12:56:52.013Z</time></trkpt><trkpt lat="43.7571838" lon="12.1898599"><ele>554.0</ele><time>2026-04-12T12:56:53.011Z</time></trkpt><trkpt lat="43.7571541" lon="12.1900259"><ele>551.2</ele><time>2026-04-12T12:56:54.01Z</time></trkpt><trkpt lat="43.7571302" lon="12.1901837"><ele>548.4</ele><time>2026-04-12T12:56:55.012Z</time></trkpt><trkpt lat="43.7571067" lon="12.190332"><ele>545.6</ele><time>2026-04-12T12:56:56.011Z</time></trkpt><trkpt lat="43.7570855" lon="12.1904686"><ele>542.8</ele><time>2026-04-12T12:56:57.012Z</time></trkpt><trkpt lat="43.7570631" lon="12.190592"><ele>540.0</ele><time>2026-04-12T12:56:58.012Z</time></trkpt><trkpt lat="43.7570404" lon="12.1906979"><ele>539.8333333333334</ele><time>2026-04-12T12:56:59.014Z</time></trkpt><trkpt lat="43.7570046" lon="12.190783"><ele>539.6666666666666</ele><time>2026-04-12T12:57:00.012Z</time></trkpt><trkpt lat="43.7569155" lon="12.1908779"><ele>539.5</ele><time>2026-04-12T12:57:02.011Z</time></trkpt><trkpt lat="43.7568174" lon="12.1908341"><ele>539.3333333333333</ele><time>2026-04-12T12:57:04.012Z</time></trkpt><trkpt lat="43.7567671" lon="12.190769"><ele>539.1666666666666</ele><time>2026-04-12T12:57:05.012Z</time></trkpt><trkpt lat="43.7567073" lon="12.1906752"><ele>539.0</ele><time>2026-04-12T12:57:06.013Z</time></trkpt><trkpt lat="43.7566291" lon="12.1905792"><ele>543.0</ele><time>2026-04-12T12:57:07.014Z</time></trkpt><trkpt lat="43.7565309" lon="12.1904982"><ele>547.0</ele><time>2026-04-12T12:57:08.011Z</time></trkpt><trkpt lat="43.7564378" lon="12.1904325"><ele>551.0</ele><time>2026-04-12T12:57:09.014Z</time></trkpt><trkpt lat="43.7563479" lon="12.1903716"><ele>555.0</ele><time>2026-04-12T12:57:10.012Z</time></trkpt><trkpt lat="43.7562758" lon="12.190302"><ele>559.0</ele><time>2026-04-12T12:57:11.012Z</time></trkpt><trkpt lat="43.7562224" lon="12.1902182"><ele>559.0</ele><time>2026-04-12T12:57:12.012Z</time></trkpt><trkpt lat="43.7561829" lon="12.1901206"><ele>559.0</ele><time>2026-04-12T12:57:13.011Z</time></trkpt><trkpt lat="43.7561597" lon="12.190007"><ele>559.0</ele><time>2026-04-12T12:57:14.012Z</time></trkpt><trkpt lat="43.7561459" lon="12.1898838"><ele>559.0</ele><time>2026-04-12T12:57:15.011Z</time></trkpt><trkpt lat="43.756127" lon="12.1897661"><ele>559.0</ele><time>2026-04-12T12:57:16.014Z</time></trkpt><trkpt lat="43.7560976" lon="12.1896549"><ele>559.0</ele><time>2026-04-12T12:57:17.011Z</time></trkpt><trkpt lat="43.7560558" lon="12.1895478"><ele>557.1666666666667</ele><time>2026-04-12T12:57:18.012Z</time></trkpt><trkpt lat="43.755999" lon="12.1894517"><ele>555.3333333333334</ele><time>2026-04-12T12:57:19.01Z</time></trkpt><trkpt lat="43.7559319" lon="12.1893636"><ele>553.5</ele><time>2026-04-12T12:57:20.01Z</time></trkpt><trkpt lat="43.7558645" lon="12.1892818"><ele>551.6666666666666</ele><time>2026-04-12T12:57:21.011Z</time></trkpt><trkpt lat="43.7558028" lon="12.1892049"><ele>549.8333333333333</ele><time>2026-04-12T12:57:22.012Z</time></trkpt><trkpt lat="43.7557471" lon="12.1891418"><ele>548.0</ele><time>2026-04-12T12:57:23.011Z</time></trkpt><trkpt lat="43.7556886" lon="12.1890949"><ele>548.0</ele><time>2026-04-12T12:57:24.014Z</time></trkpt><trkpt lat="43.7556276" lon="12.1890695"><ele>548.0</ele><time>2026-04-12T12:57:25.011Z</time></trkpt><trkpt lat="43.7555628" lon="12.1890612"><ele>548.0</ele><time>2026-04-12T12:57:26.012Z</time></trkpt><trkpt lat="43.7554937" lon="12.1891071"><ele>548.0</ele><time>2026-04-12T12:57:27.011Z</time></trkpt><trkpt lat="43.7554245" lon="12.1891948"><ele>548.0</ele><time>2026-04-12T12:57:28.01Z</time></trkpt><trkpt lat="43.7553581" lon="12.1892913"><ele>548.0</ele><time>2026-04-12T12:57:29.012Z</time></trkpt><trkpt lat="43.7552804" lon="12.1893738"><ele>548.0</ele><time>2026-04-12T12:57:30.013Z</time></trkpt><trkpt lat="43.7552049" lon="12.189463"><ele>548.0</ele><time>2026-04-12T12:57:31.011Z</time></trkpt><trkpt lat="43.7551362" lon="12.1895767"><ele>548.0</ele><time>2026-04-12T12:57:32.011Z</time></trkpt><trkpt lat="43.7550776" lon="12.1897167"><ele>548.0</ele><time>2026-04-12T12:57:33.016Z</time></trkpt><trkpt lat="43.7550302" lon="12.1898767"><ele>548.0</ele><time>2026-04-12T12:57:34.009Z</time></trkpt><trkpt lat="43.7549954" lon="12.1900434"><ele>545.1999999999999</ele><time>2026-04-12T12:57:35.011Z</time></trkpt><trkpt lat="43.754968" lon="12.1902063"><ele>542.4</ele><time>2026-04-12T12:57:36.01Z</time></trkpt><trkpt lat="43.7549411" lon="12.190363"><ele>539.5999999999999</ele><time>2026-04-12T12:57:37.01Z</time></trkpt><trkpt lat="43.7549204" lon="12.1905111"><ele>536.8</ele><time>2026-04-12T12:57:38.011Z</time></trkpt><trkpt lat="43.7549132" lon="12.190649"><ele>534.0</ele><time>2026-04-12T12:57:39.01Z</time></trkpt><trkpt lat="43.7549202" lon="12.190783"><ele>531.8333333333334</ele><time>2026-04-12T12:57:40.011Z</time></trkpt><trkpt lat="43.7549382" lon="12.1909059"><ele>529.6666666666666</ele><time>2026-04-12T12:57:41.01Z</time></trkpt><trkpt lat="43.7549582" lon="12.1910201"><ele>527.5</ele><time>2026-04-12T12:57:42.01Z</time></trkpt><trkpt lat="43.7549708" lon="12.1911317"><ele>525.3333333333333</ele><time>2026-04-12T12:57:43.011Z</time></trkpt><trkpt lat="43.754977" lon="12.191236"><ele>523.1666666666666</ele><time>2026-04-12T12:57:44.011Z</time></trkpt><trkpt lat="43.7549665" lon="12.1913335"><ele>521.0</ele><time>2026-04-12T12:57:45.016Z</time></trkpt><trkpt lat="43.7549419" lon="12.191424"><ele>521.0</ele><time>2026-04-12T12:57:46.011Z</time></trkpt><trkpt lat="43.7549129" lon="12.1915042"><ele>521.0</ele><time>2026-04-12T12:57:47.011Z</time></trkpt><trkpt lat="43.7548718" lon="12.1915716"><ele>521.0</ele><time>2026-04-12T12:57:48.011Z</time></trkpt><trkpt lat="43.754795" lon="12.1916216"><ele>521.0</ele><time>2026-04-12T12:57:49.012Z</time></trkpt><trkpt lat="43.7546941" lon="12.191668"><ele>521.0</ele><time>2026-04-12T12:57:50.013Z</time></trkpt><trkpt lat="43.7546125" lon="12.1917316"><ele>521.0</ele><time>2026-04-12T12:57:51.011Z</time></trkpt><trkpt lat="43.7545427" lon="12.191808"><ele>517.6666666666666</ele><time>2026-04-12T12:57:52.01Z</time></trkpt><trkpt lat="43.7545166" lon="12.1919051"><ele>514.3333333333333</ele><time>2026-04-12T12:57:53.012Z</time></trkpt><trkpt lat="43.7545071" lon="12.1920189"><ele>511.0</ele><time>2026-04-12T12:57:54.009Z</time></trkpt><trkpt lat="43.7545067" lon="12.1921343"><ele>507.66666666666663</ele><time>2026-04-12T12:57:55.011Z</time></trkpt><trkpt lat="43.7544992" lon="12.1922507"><ele>504.3333333333333</ele><time>2026-04-12T12:57:56.011Z</time></trkpt><trkpt lat="43.7544691" lon="12.1923685"><ele>501.0</ele><time>2026-04-12T12:57:57.013Z</time></trkpt><trkpt lat="43.7544159" lon="12.1924801"><ele>504.0</ele><time>2026-04-12T12:57:58.017Z</time></trkpt><trkpt lat="43.7543499" lon="12.1925781"><ele>507.0</ele><time>2026-04-12T12:57:59.011Z</time></trkpt><trkpt lat="43.7542828" lon="12.1926676"><ele>510.0</ele><time>2026-04-12T12:58:00.012Z</time></trkpt><trkpt lat="43.7542254" lon="12.1927537"><ele>513.0</ele><time>2026-04-12T12:58:01.011Z</time></trkpt><trkpt lat="43.7541774" lon="12.192834"><ele>516.0</ele><time>2026-04-12T12:58:02.011Z</time></trkpt><trkpt lat="43.7541309" lon="12.192909"><ele>519.0</ele><time>2026-04-12T12:58:03.013Z</time></trkpt><trkpt lat="43.7540832" lon="12.1929757"><ele>519.0</ele><time>2026-04-12T12:58:04.013Z</time></trkpt><trkpt lat="43.7540287" lon="12.193025"><ele>519.0</ele><time>2026-04-12T12:58:05.011Z</time></trkpt><trkpt lat="43.7539666" lon="12.19306"><ele>519.0</ele><time>2026-04-12T12:58:06.014Z</time></trkpt><trkpt lat="43.7538908" lon="12.1930777"><ele>519.0</ele><time>2026-04-12T12:58:07.013Z</time></trkpt><trkpt lat="43.7538091" lon="12.1930724"><ele>519.0</ele><time>2026-04-12T12:58:08.011Z</time></trkpt><trkpt lat="43.7537278" lon="12.1930588"><ele>519.0</ele><time>2026-04-12T12:58:09.013Z</time></trkpt><trkpt lat="43.7536483" lon="12.1930467"><ele>519.0</ele><time>2026-04-12T12:58:10.01Z</time></trkpt><trkpt lat="43.7535693" lon="12.1930531"><ele>519.0</ele><time>2026-04-12T12:58:11.012Z</time></trkpt><trkpt lat="43.7534967" lon="12.1930875"><ele>519.0</ele><time>2026-04-12T12:58:12.012Z</time></trkpt><trkpt lat="43.7534262" lon="12.1931318"><ele>519.0</ele><time>2026-04-12T12:58:13.015Z</time></trkpt><trkpt lat="43.7533536" lon="12.1931768"><ele>519.0</ele><time>2026-04-12T12:58:14.011Z</time></trkpt><trkpt lat="43.7532735" lon="12.1932083"><ele>519.0</ele><time>2026-04-12T12:58:15.012Z</time></trkpt><trkpt lat="43.7531867" lon="12.1932241"><ele>520.2</ele><time>2026-04-12T12:58:16.01Z</time></trkpt><trkpt lat="43.7530835" lon="12.1932172"><ele>521.4</ele><time>2026-04-12T12:58:17.011Z</time></trkpt><trkpt lat="43.7529738" lon="12.1931892"><ele>522.6</ele><time>2026-04-12T12:58:18.012Z</time></trkpt><trkpt lat="43.752864" lon="12.1931491"><ele>523.8</ele><time>2026-04-12T12:58:19.014Z</time></trkpt><trkpt lat="43.7527585" lon="12.1931149"><ele>525.0</ele><time>2026-04-12T12:58:20.013Z</time></trkpt><trkpt lat="43.7526535" lon="12.1931013"><ele>521.0</ele><time>2026-04-12T12:58:21.012Z</time></trkpt><trkpt lat="43.7525511" lon="12.1930967"><ele>517.0</ele><time>2026-04-12T12:58:22.012Z</time></trkpt><trkpt lat="43.7524522" lon="12.1931001"><ele>513.0</ele><time>2026-04-12T12:58:23.011Z</time></trkpt><trkpt lat="43.7523517" lon="12.1931072"><ele>509.0</ele><time>2026-04-12T12:58:24.012Z</time></trkpt><trkpt lat="43.7522432" lon="12.1931156"><ele>505.0</ele><time>2026-04-12T12:58:25.011Z</time></trkpt><trkpt lat="43.7521284" lon="12.1931202"><ele>505.0</ele><time>2026-04-12T12:58:26.011Z</time></trkpt><trkpt lat="43.7520081" lon="12.1931247"><ele>505.0</ele><time>2026-04-12T12:58:27.017Z</time></trkpt><trkpt lat="43.7518821" lon="12.1931296"><ele>505.0</ele><time>2026-04-12T12:58:28.013Z</time></trkpt><trkpt lat="43.7517502" lon="12.1931439"><ele>505.0</ele><time>2026-04-12T12:58:29.01Z</time></trkpt><trkpt lat="43.7516121" lon="12.193167"><ele>498.0</ele><time>2026-04-12T12:58:30.012Z</time></trkpt><trkpt lat="43.7514675" lon="12.1932044"><ele>491.0</ele><time>2026-04-12T12:58:31.012Z</time></trkpt><trkpt lat="43.7513288" lon="12.1932476"><ele>484.0</ele><time>2026-04-12T12:58:32.013Z</time></trkpt><trkpt lat="43.7512004" lon="12.193291"><ele>477.0</ele><time>2026-04-12T12:58:33.011Z</time></trkpt><trkpt lat="43.7510916" lon="12.1933117"><ele>479.0</ele><time>2026-04-12T12:58:34.011Z</time></trkpt><trkpt lat="43.7509979" lon="12.1933068"><ele>481.0</ele><time>2026-04-12T12:58:35.013Z</time></trkpt><trkpt lat="43.7509173" lon="12.1932793"><ele>483.0</ele><time>2026-04-12T12:58:36.012Z</time></trkpt><trkpt lat="43.7508474" lon="12.1932335"><ele>485.0</ele><time>2026-04-12T12:58:37.014Z</time></trkpt><trkpt lat="43.7507983" lon="12.1931696"><ele>487.0</ele><time>2026-04-12T12:58:38.012Z</time></trkpt><trkpt lat="43.7507547" lon="12.1931065"><ele>489.0</ele><time>2026-04-12T12:58:39.013Z</time></trkpt><trkpt lat="43.7506838" lon="12.1930406"><ele>489.0</ele><time>2026-04-12T12:58:41.012Z</time></trkpt><trkpt lat="43.7506184" lon="12.1930666"><ele>489.00000000000006</ele><time>2026-04-12T12:58:43.011Z</time></trkpt><trkpt lat="43.7506275" lon="12.1931769"><ele>489.0</ele><time>2026-04-12T12:58:45.012Z</time></trkpt><trkpt lat="43.7506635" lon="12.1932496"><ele>489.0</ele><time>2026-04-12T12:58:46.015Z</time></trkpt><trkpt lat="43.7507167" lon="12.1933211"><ele>489.00000000000006</ele><time>2026-04-12T12:58:47.012Z</time></trkpt><trkpt lat="43.750776" lon="12.1933948"><ele>489.0</ele><time>2026-04-12T12:58:48.013Z</time></trkpt><trkpt lat="43.7508344" lon="12.1934724"><ele>489.0</ele><time>2026-04-12T12:58:49.012Z</time></trkpt><trkpt lat="43.7508733" lon="12.19356"><ele>489.0</ele><time>2026-04-12T12:58:50.012Z</time></trkpt><trkpt lat="43.7508767" lon="12.1936833"><ele>489.0</ele><time>2026-04-12T12:58:52.012Z</time></trkpt><trkpt lat="43.7507933" lon="12.1937417"><ele>489.0</ele><time>2026-04-12T12:58:54.011Z</time></trkpt><trkpt lat="43.7506567" lon="12.19371"><ele>489.0</ele><time>2026-04-12T12:58:56.011Z</time></trkpt><trkpt lat="43.750555" lon="12.193675"><ele>489.0</ele><time>2026-04-12T12:58:57.011Z</time></trkpt><trkpt lat="43.75044" lon="12.19365"><ele>489.0</ele><time>2026-04-12T12:58:58.011Z</time></trkpt><trkpt lat="43.7503167" lon="12.1936483"><ele>489.0</ele><time>2026-04-12T12:58:59.011Z</time></trkpt><trkpt lat="43.7501933" lon="12.1936667"><ele>489.0</ele><time>2026-04-12T12:59:00.013Z</time></trkpt><trkpt lat="43.7500833" lon="12.19371"><ele>489.0</ele><time>2026-04-12T12:59:01.012Z</time></trkpt><trkpt lat="43.749985" lon="12.1937717"><ele>489.4</ele><time>2026-04-12T12:59:02.012Z</time></trkpt><trkpt lat="43.7498883" lon="12.193835"><ele>489.79999999999995</ele><time>2026-04-12T12:59:03.013Z</time></trkpt><trkpt lat="43.7497917" lon="12.1939033"><ele>490.20000000000005</ele><time>2026-04-12T12:59:04.012Z</time></trkpt><trkpt lat="43.7496983" lon="12.1939767"><ele>490.6</ele><time>2026-04-12T12:59:05.013Z</time></trkpt><trkpt lat="43.7496033" lon="12.1940533"><ele>491.0</ele><time>2026-04-12T12:59:06.012Z</time></trkpt><trkpt lat="43.7495083" lon="12.194125"><ele>491.0</ele><time>2026-04-12T12:59:07.011Z</time></trkpt><trkpt lat="43.7494217" lon="12.1941983"><ele>491.0</ele><time>2026-04-12T12:59:08.014Z</time></trkpt><trkpt lat="43.749345" lon="12.194275"><ele>491.0</ele><time>2026-04-12T12:59:09.01Z</time></trkpt><trkpt lat="43.7492667" lon="12.1943517"><ele>491.0</ele><time>2026-04-12T12:59:10.01Z</time></trkpt><trkpt lat="43.7491983" lon="12.1944317"><ele>491.0</ele><time>2026-04-12T12:59:11.01Z</time></trkpt><trkpt lat="43.7491183" lon="12.1945133"><ele>501.25</ele><time>2026-04-12T12:59:12.012Z</time></trkpt><trkpt lat="43.7490283" lon="12.1945783"><ele>511.5</ele><time>2026-04-12T12:59:13.01Z</time></trkpt><trkpt lat="43.7489267" lon="12.194635"><ele>521.75</ele><time>2026-04-12T12:59:14.018Z</time></trkpt><trkpt lat="43.748805" lon="12.1946767"><ele>532.0</ele><time>2026-04-12T12:59:15.011Z</time></trkpt><trkpt lat="43.7487017" lon="12.1947433"><ele>532.0</ele><time>2026-04-12T12:59:16.011Z</time></trkpt><trkpt lat="43.7485967" lon="12.1947983"><ele>532.0</ele><time>2026-04-12T12:59:17.012Z</time></trkpt><trkpt lat="43.7484933" lon="12.1948433"><ele>532.0</ele><time>2026-04-12T12:59:18.012Z</time></trkpt><trkpt lat="43.7483983" lon="12.1948767"><ele>532.0</ele><time>2026-04-12T12:59:19.01Z</time></trkpt><trkpt lat="43.7483183" lon="12.1948967"><ele>532.0</ele><time>2026-04-12T12:59:20.011Z</time></trkpt><trkpt lat="43.7482383" lon="12.19489"><ele>530.8333333333334</ele><time>2026-04-12T12:59:21.012Z</time></trkpt><trkpt lat="43.7481567" lon="12.1948783"><ele>529.6666666666667</ele><time>2026-04-12T12:59:22.014Z</time></trkpt><trkpt lat="43.748075" lon="12.1948483"><ele>528.5</ele><time>2026-04-12T12:59:23.015Z</time></trkpt><trkpt lat="43.74799" lon="12.1948067"><ele>527.3333333333334</ele><time>2026-04-12T12:59:24.012Z</time></trkpt><trkpt lat="43.7479083" lon="12.1947667"><ele>526.1666666666666</ele><time>2026-04-12T12:59:25.011Z</time></trkpt><trkpt lat="43.7478283" lon="12.194735"><ele>525.0</ele><time>2026-04-12T12:59:26.012Z</time></trkpt><trkpt lat="43.7477467" lon="12.194725"><ele>534.0</ele><time>2026-04-12T12:59:27.012Z</time></trkpt><trkpt lat="43.7476567" lon="12.1947233"><ele>543.0</ele><time>2026-04-12T12:59:28.012Z</time></trkpt><trkpt lat="43.747565" lon="12.194715"><ele>552.0</ele><time>2026-04-12T12:59:29.012Z</time></trkpt><trkpt lat="43.747465" lon="12.1946933"><ele>561.0</ele><time>2026-04-12T12:59:30.011Z</time></trkpt><trkpt lat="43.7473583" lon="12.1946533"><ele>570.0</ele><time>2026-04-12T12:59:31.011Z</time></trkpt><trkpt lat="43.7472517" lon="12.1946017"><ele>570.0</ele><time>2026-04-12T12:59:32.011Z</time></trkpt><trkpt lat="43.7471467" lon="12.1945483"><ele>570.0</ele><time>2026-04-12T12:59:33.013Z</time></trkpt><trkpt lat="43.74705" lon="12.1944917"><ele>570.0</ele><time>2026-04-12T12:59:34.012Z</time></trkpt><trkpt lat="43.746955" lon="12.19442"><ele>570.0</ele><time>2026-04-12T12:59:35.01Z</time></trkpt><trkpt lat="43.746855" lon="12.1943383"><ele>570.0</ele><time>2026-04-12T12:59:36.01Z</time></trkpt><trkpt lat="43.7467533" lon="12.194245"><ele>570.75</ele><time>2026-04-12T12:59:37.013Z</time></trkpt><trkpt lat="43.7466533" lon="12.1941383"><ele>571.5</ele><time>2026-04-12T12:59:38.011Z</time></trkpt><trkpt lat="43.7465583" lon="12.194025"><ele>572.25</ele><time>2026-04-12T12:59:39.011Z</time></trkpt><trkpt lat="43.7464583" lon="12.193915"><ele>573.0</ele><time>2026-04-12T12:59:40.011Z</time></trkpt><trkpt lat="43.7463517" lon="12.1938117"><ele>573.0</ele><time>2026-04-12T12:59:41.009Z</time></trkpt><trkpt lat="43.746245" lon="12.193725"><ele>573.0</ele><time>2026-04-12T12:59:42.012Z</time></trkpt><trkpt lat="43.7461283" lon="12.1936483"><ele>573.0</ele><time>2026-04-12T12:59:43.012Z</time></trkpt><trkpt lat="43.7459983" lon="12.1935933"><ele>573.0</ele><time>2026-04-12T12:59:44.014Z</time></trkpt><trkpt lat="43.745865" lon="12.1935583"><ele>571.0</ele><time>2026-04-12T12:59:45.012Z</time></trkpt><trkpt lat="43.745735" lon="12.1935333"><ele>569.0</ele><time>2026-04-12T12:59:46.011Z</time></trkpt><trkpt lat="43.745605" lon="12.1935133"><ele>567.0</ele><time>2026-04-12T12:59:47.012Z</time></trkpt><trkpt lat="43.745475" lon="12.1934983"><ele>565.0</ele><time>2026-04-12T12:59:48.011Z</time></trkpt><trkpt lat="43.7453433" lon="12.1934783"><ele>566.25</ele><time>2026-04-12T12:59:49.01Z</time></trkpt><trkpt lat="43.7452067" lon="12.1934633"><ele>567.5</ele><time>2026-04-12T12:59:50.014Z</time></trkpt><trkpt lat="43.74507" lon="12.1934567"><ele>568.75</ele><time>2026-04-12T12:59:51.014Z</time></trkpt><trkpt lat="43.744935" lon="12.1934567"><ele>570.0</ele><time>2026-04-12T12:59:52.01Z</time></trkpt><trkpt lat="43.7448067" lon="12.1934583"><ele>570.0</ele><time>2026-04-12T12:59:53.01Z</time></trkpt><trkpt lat="43.7446883" lon="12.1934583"><ele>570.0</ele><time>2026-04-12T12:59:54.01Z</time></trkpt><trkpt lat="43.744575" lon="12.1934533"><ele>570.0</ele><time>2026-04-12T12:59:55.011Z</time></trkpt><trkpt lat="43.7444633" lon="12.1934433"><ele>570.0</ele><time>2026-04-12T12:59:56.012Z</time></trkpt><trkpt lat="43.744355" lon="12.1934217"><ele>571.25</ele><time>2026-04-12T12:59:57.014Z</time></trkpt><trkpt lat="43.744245" lon="12.1934017"><ele>572.5</ele><time>2026-04-12T12:59:58.011Z</time></trkpt><trkpt lat="43.7441333" lon="12.1933717"><ele>573.75</ele><time>2026-04-12T12:59:59.012Z</time></trkpt><trkpt lat="43.7440117" lon="12.19334"><ele>575.0</ele><time>2026-04-12T13:00:00.015Z</time></trkpt><trkpt lat="43.7438933" lon="12.19331"><ele>575.0</ele><time>2026-04-12T13:00:01.011Z</time></trkpt><trkpt lat="43.7437867" lon="12.1932867"><ele>575.0</ele><time>2026-04-12T13:00:02.011Z</time></trkpt><trkpt lat="43.7436917" lon="12.1932767"><ele>575.0</ele><time>2026-04-12T13:00:03.011Z</time></trkpt><trkpt lat="43.7436133" lon="12.193305"><ele>575.0</ele><time>2026-04-12T13:00:04.013Z</time></trkpt><trkpt lat="43.7435467" lon="12.1933533"><ele>575.0</ele><time>2026-04-12T13:00:05.012Z</time></trkpt><trkpt lat="43.743485" lon="12.1934233"><ele>575.0</ele><time>2026-04-12T13:00:06.013Z</time></trkpt><trkpt lat="43.7434283" lon="12.19351"><ele>576.5</ele><time>2026-04-12T13:00:07.011Z</time></trkpt><trkpt lat="43.74338" lon="12.193625"><ele>578.0</ele><time>2026-04-12T13:00:08.012Z</time></trkpt><trkpt lat="43.743325" lon="12.193775"><ele>579.5</ele><time>2026-04-12T13:00:09.012Z</time></trkpt><trkpt lat="43.7432717" lon="12.1939283"><ele>581.0</ele><time>2026-04-12T13:00:10.011Z</time></trkpt><trkpt lat="43.7432067" lon="12.1940817"><ele>581.0</ele><time>2026-04-12T13:00:11.015Z</time></trkpt><trkpt lat="43.743145" lon="12.1942133"><ele>581.0</ele><time>2026-04-12T13:00:12.01Z</time></trkpt><trkpt lat="43.7430817" lon="12.1943183"><ele>581.0</ele><time>2026-04-12T13:00:13.011Z</time></trkpt><trkpt lat="43.7430167" lon="12.19441"><ele>581.0</ele><time>2026-04-12T13:00:14.011Z</time></trkpt><trkpt lat="43.7429433" lon="12.194475"><ele>581.0</ele><time>2026-04-12T13:00:15.013Z</time></trkpt><trkpt lat="43.742855" lon="12.1945217"><ele>581.0</ele><time>2026-04-12T13:00:16.013Z</time></trkpt><trkpt lat="43.742755" lon="12.1945567"><ele>581.0</ele><time>2026-04-12T13:00:17.012Z</time></trkpt><trkpt lat="43.74265" lon="12.1945983"><ele>581.0</ele><time>2026-04-12T13:00:18.018Z</time></trkpt><trkpt lat="43.7425333" lon="12.19465"><ele>581.0</ele><time>2026-04-12T13:00:19.012Z</time></trkpt><trkpt lat="43.7424083" lon="12.1947067"><ele>582.5</ele><time>2026-04-12T13:00:20.011Z</time></trkpt><trkpt lat="43.742275" lon="12.1947717"><ele>584.0</ele><time>2026-04-12T13:00:21.013Z</time></trkpt><trkpt lat="43.7421383" lon="12.1948433"><ele>585.5</ele><time>2026-04-12T13:00:22.012Z</time></trkpt><trkpt lat="43.742" lon="12.1949183"><ele>587.0</ele><time>2026-04-12T13:00:23.012Z</time></trkpt><trkpt lat="43.7418617" lon="12.1949967"><ele>591.25</ele><time>2026-04-12T13:00:24.013Z</time></trkpt><trkpt lat="43.7417333" lon="12.1950883"><ele>595.5</ele><time>2026-04-12T13:00:25.012Z</time></trkpt><trkpt lat="43.74161" lon="12.1951817"><ele>599.75</ele><time>2026-04-12T13:00:26.012Z</time></trkpt><trkpt lat="43.7415017" lon="12.19527"><ele>604.0</ele><time>2026-04-12T13:00:27.012Z</time></trkpt><trkpt lat="43.7414167" lon="12.1953483"><ele>604.0</ele><time>2026-04-12T13:00:28.012Z</time></trkpt><trkpt lat="43.741335" lon="12.1953967"><ele>604.0</ele><time>2026-04-12T13:00:29.012Z</time></trkpt><trkpt lat="43.7412567" lon="12.1954233"><ele>604.0</ele><time>2026-04-12T13:00:30.012Z</time></trkpt><trkpt lat="43.74119" lon="12.195415"><ele>604.0</ele><time>2026-04-12T13:00:31.011Z</time></trkpt><trkpt lat="43.7411317" lon="12.1953802"><ele>604.0</ele><time>2026-04-12T13:00:32.011Z</time></trkpt><trkpt lat="43.7410813" lon="12.1953079"><ele>604.0</ele><time>2026-04-12T13:00:33.012Z</time></trkpt><trkpt lat="43.7410386" lon="12.1952008"><ele>602.75</ele><time>2026-04-12T13:00:34.014Z</time></trkpt><trkpt lat="43.7410056" lon="12.1950448"><ele>601.5</ele><time>2026-04-12T13:00:35.013Z</time></trkpt><trkpt lat="43.7409645" lon="12.1948338"><ele>600.25</ele><time>2026-04-12T13:00:36.011Z</time></trkpt><trkpt lat="43.7409228" lon="12.194625"><ele>599.0</ele><time>2026-04-12T13:00:37.012Z</time></trkpt><trkpt lat="43.7408862" lon="12.1944288"><ele>599.0</ele><time>2026-04-12T13:00:38.012Z</time></trkpt><trkpt lat="43.7408644" lon="12.194238"><ele>599.0</ele><time>2026-04-12T13:00:39.011Z</time></trkpt><trkpt lat="43.7408575" lon="12.1940509"><ele>599.0</ele><time>2026-04-12T13:00:40.011Z</time></trkpt><trkpt lat="43.7408664" lon="12.1938626"><ele>599.0</ele><time>2026-04-12T13:00:41.01Z</time></trkpt><trkpt lat="43.7408799" lon="12.1936729"><ele>600.0</ele><time>2026-04-12T13:00:42.016Z</time></trkpt><trkpt lat="43.7408932" lon="12.1934851"><ele>601.0</ele><time>2026-04-12T13:00:43.011Z</time></trkpt><trkpt lat="43.7409037" lon="12.1933015"><ele>602.0</ele><time>2026-04-12T13:00:44.012Z</time></trkpt><trkpt lat="43.7409045" lon="12.1931311"><ele>603.0</ele><time>2026-04-12T13:00:45.011Z</time></trkpt><trkpt lat="43.7408979" lon="12.192979"><ele>605.3333333333334</ele><time>2026-04-12T13:00:46.012Z</time></trkpt><trkpt lat="43.7408857" lon="12.1928444"><ele>607.6666666666666</ele><time>2026-04-12T13:00:47.013Z</time></trkpt><trkpt lat="43.740864" lon="12.1927248"><ele>610.0</ele><time>2026-04-12T13:00:48.011Z</time></trkpt><trkpt lat="43.7408325" lon="12.192622"><ele>612.3333333333333</ele><time>2026-04-12T13:00:49.011Z</time></trkpt><trkpt lat="43.7407879" lon="12.1925269"><ele>614.6666666666666</ele><time>2026-04-12T13:00:50.011Z</time></trkpt><trkpt lat="43.7407326" lon="12.1924361"><ele>617.0</ele><time>2026-04-12T13:00:51.012Z</time></trkpt><trkpt lat="43.7406636" lon="12.1923489"><ele>621.2</ele><time>2026-04-12T13:00:52.012Z</time></trkpt><trkpt lat="43.7405873" lon="12.1922701"><ele>625.4000000000001</ele><time>2026-04-12T13:00:53.011Z</time></trkpt><trkpt lat="43.7405129" lon="12.1922072"><ele>629.5999999999999</ele><time>2026-04-12T13:00:54.013Z</time></trkpt><trkpt lat="43.7404408" lon="12.192173"><ele>633.8</ele><time>2026-04-12T13:00:55.011Z</time></trkpt><trkpt lat="43.7403702" lon="12.1921621"><ele>638.0</ele><time>2026-04-12T13:00:56.015Z</time></trkpt><trkpt lat="43.7402508" lon="12.1922544"><ele>633.8</ele><time>2026-04-12T13:00:58.01Z</time></trkpt><trkpt lat="43.7401838" lon="12.1923475"><ele>629.5999999999999</ele><time>2026-04-12T13:00:59.009Z</time></trkpt><trkpt lat="43.7401011" lon="12.1924431"><ele>625.4000000000001</ele><time>2026-04-12T13:01:00.01Z</time></trkpt><trkpt lat="43.7400053" lon="12.1925346"><ele>621.2</ele><time>2026-04-12T13:01:01.017Z</time></trkpt><trkpt lat="43.7399028" lon="12.19262"><ele>617.0</ele><time>2026-04-12T13:01:02.012Z</time></trkpt><trkpt lat="43.7397899" lon="12.1927166"><ele>617.0</ele><time>2026-04-12T13:01:03.013Z</time></trkpt><trkpt lat="43.7396733" lon="12.1928318"><ele>617.0</ele><time>2026-04-12T13:01:04.011Z</time></trkpt><trkpt lat="43.7395517" lon="12.1929633"><ele>617.0</ele><time>2026-04-12T13:01:05.012Z</time></trkpt><trkpt lat="43.7394333" lon="12.1930783"><ele>617.0</ele><time>2026-04-12T13:01:06.013Z</time></trkpt><trkpt lat="43.7393367" lon="12.1931917"><ele>614.1666666666666</ele><time>2026-04-12T13:01:07.011Z</time></trkpt><trkpt lat="43.739245" lon="12.19329"><ele>611.3333333333333</ele><time>2026-04-12T13:01:08.013Z</time></trkpt><trkpt lat="43.7391667" lon="12.1933717"><ele>608.5</ele><time>2026-04-12T13:01:09.012Z</time></trkpt><trkpt lat="43.7390967" lon="12.1934283"><ele>605.6666666666666</ele><time>2026-04-12T13:01:10.013Z</time></trkpt><trkpt lat="43.739025" lon="12.1934617"><ele>602.8333333333334</ele><time>2026-04-12T13:01:11.012Z</time></trkpt><trkpt lat="43.7389583" lon="12.1934633"><ele>600.0</ele><time>2026-04-12T13:01:12.011Z</time></trkpt><trkpt lat="43.738865" lon="12.193395"><ele>600.0</ele><time>2026-04-12T13:01:14.011Z</time></trkpt><trkpt lat="43.73885" lon="12.193265"><ele>600.0</ele><time>2026-04-12T13:01:15.013Z</time></trkpt><trkpt lat="43.7388317" lon="12.1931317"><ele>600.0</ele><time>2026-04-12T13:01:16.011Z</time></trkpt><trkpt lat="43.73882" lon="12.1929683"><ele>600.0</ele><time>2026-04-12T13:01:17.012Z</time></trkpt><trkpt lat="43.7387883" lon="12.1928"><ele>600.0</ele><time>2026-04-12T13:01:18.011Z</time></trkpt><trkpt lat="43.73875" lon="12.192635"><ele>605.2</ele><time>2026-04-12T13:01:19.011Z</time></trkpt><trkpt lat="43.7387" lon="12.1924867"><ele>610.4</ele><time>2026-04-12T13:01:20.012Z</time></trkpt><trkpt lat="43.7386567" lon="12.1923567"><ele>615.6</ele><time>2026-04-12T13:01:21.012Z</time></trkpt><trkpt lat="43.7386217" lon="12.1922333"><ele>620.8</ele><time>2026-04-12T13:01:22.011Z</time></trkpt><trkpt lat="43.7385917" lon="12.1921283"><ele>626.0</ele><time>2026-04-12T13:01:23.019Z</time></trkpt><trkpt lat="43.7385567" lon="12.19205"><ele>625.5</ele><time>2026-04-12T13:01:24.011Z</time></trkpt><trkpt lat="43.7384683" lon="12.1919717"><ele>625.0</ele><time>2026-04-12T13:01:26.012Z</time></trkpt><trkpt lat="43.73837" lon="12.191985"><ele>624.5</ele><time>2026-04-12T13:01:28.013Z</time></trkpt><trkpt lat="43.7383" lon="12.1920217"><ele>624.0</ele><time>2026-04-12T13:01:29.01Z</time></trkpt><trkpt lat="43.7382183" lon="12.192065"><ele>623.5</ele><time>2026-04-12T13:01:30.012Z</time></trkpt><trkpt lat="43.7381417" lon="12.1920967"><ele>623.0</ele><time>2026-04-12T13:01:31.011Z</time></trkpt><trkpt lat="43.738065" lon="12.1921217"><ele>623.0</ele><time>2026-04-12T13:01:32.012Z</time></trkpt><trkpt lat="43.7379867" lon="12.19215"><ele>623.0</ele><time>2026-04-12T13:01:33.012Z</time></trkpt><trkpt lat="43.7378983" lon="12.192175"><ele>623.0</ele><time>2026-04-12T13:01:34.011Z</time></trkpt><trkpt lat="43.7377967" lon="12.1921933"><ele>623.0</ele><time>2026-04-12T13:01:35.011Z</time></trkpt><trkpt lat="43.7376917" lon="12.1922167"><ele>623.0</ele><time>2026-04-12T13:01:36.01Z</time></trkpt><trkpt lat="43.7375683" lon="12.1922533"><ele>623.5</ele><time>2026-04-12T13:01:37.01Z</time></trkpt><trkpt lat="43.7374383" lon="12.1922933"><ele>624.0</ele><time>2026-04-12T13:01:38.011Z</time></trkpt><trkpt lat="43.7373067" lon="12.1923483"><ele>624.5</ele><time>2026-04-12T13:01:39.011Z</time></trkpt><trkpt lat="43.7371777" lon="12.192407"><ele>625.0</ele><time>2026-04-12T13:01:40.015Z</time></trkpt><trkpt lat="43.7370465" lon="12.1924652"><ele>624.5</ele><time>2026-04-12T13:01:41.012Z</time></trkpt><trkpt lat="43.7369145" lon="12.1925234"><ele>624.0</ele><time>2026-04-12T13:01:42.012Z</time></trkpt><trkpt lat="43.736782" lon="12.1925835"><ele>623.5</ele><time>2026-04-12T13:01:43.013Z</time></trkpt><trkpt lat="43.7366527" lon="12.1926429"><ele>623.0</ele><time>2026-04-12T13:01:44.012Z</time></trkpt><trkpt lat="43.736531" lon="12.1927037"><ele>623.0</ele><time>2026-04-12T13:01:45.013Z</time></trkpt><trkpt lat="43.7364134" lon="12.1927646"><ele>623.0</ele><time>2026-04-12T13:01:46.014Z</time></trkpt><trkpt lat="43.7362948" lon="12.1928237"><ele>623.0</ele><time>2026-04-12T13:01:47.017Z</time></trkpt><trkpt lat="43.7361719" lon="12.192878"><ele>623.0</ele><time>2026-04-12T13:01:48.01Z</time></trkpt><trkpt lat="43.7360532" lon="12.1929325"><ele>623.6</ele><time>2026-04-12T13:01:49.012Z</time></trkpt><trkpt lat="43.7359356" lon="12.1929851"><ele>624.1999999999999</ele><time>2026-04-12T13:01:50.011Z</time></trkpt><trkpt lat="43.735826" lon="12.1930364"><ele>624.8</ele><time>2026-04-12T13:01:51.012Z</time></trkpt><trkpt lat="43.7357271" lon="12.1930845"><ele>625.4</ele><time>2026-04-12T13:01:52.01Z</time></trkpt><trkpt lat="43.7356562" lon="12.1931306"><ele>626.0</ele><time>2026-04-12T13:01:53.011Z</time></trkpt><trkpt lat="43.7355971" lon="12.1931757"><ele>626.0</ele><time>2026-04-12T13:01:54.012Z</time></trkpt><trkpt lat="43.7355387" lon="12.193214"><ele>626.0</ele><time>2026-04-12T13:01:55.012Z</time></trkpt><trkpt lat="43.7354265" lon="12.1932143"><ele>626.0</ele><time>2026-04-12T13:01:57.013Z</time></trkpt><trkpt lat="43.7353544" lon="12.1931324"><ele>626.0</ele><time>2026-04-12T13:01:59.012Z</time></trkpt><trkpt lat="43.7353517" lon="12.1930034"><ele>626.0</ele><time>2026-04-12T13:02:01.011Z</time></trkpt><trkpt lat="43.7353779" lon="12.192924"><ele>626.0</ele><time>2026-04-12T13:02:02.012Z</time></trkpt><trkpt lat="43.735412" lon="12.1928331"><ele>628.5</ele><time>2026-04-12T13:02:03.012Z</time></trkpt><trkpt lat="43.7354464" lon="12.1927323"><ele>631.0</ele><time>2026-04-12T13:02:04.011Z</time></trkpt><trkpt lat="43.7354748" lon="12.1926193"><ele>633.5</ele><time>2026-04-12T13:02:05.013Z</time></trkpt><trkpt lat="43.7355009" lon="12.1925008"><ele>636.0</ele><time>2026-04-12T13:02:06.013Z</time></trkpt><trkpt lat="43.7355304" lon="12.1923786"><ele>638.5</ele><time>2026-04-12T13:02:07.011Z</time></trkpt><trkpt lat="43.7355637" lon="12.1922616"><ele>641.0</ele><time>2026-04-12T13:02:08.011Z</time></trkpt><trkpt lat="43.735598" lon="12.1921559"><ele>644.8333333333333</ele><time>2026-04-12T13:02:09.013Z</time></trkpt><trkpt lat="43.7356398" lon="12.1920605"><ele>648.6666666666666</ele><time>2026-04-12T13:02:10.012Z</time></trkpt><trkpt lat="43.7356947" lon="12.1919746"><ele>652.5</ele><time>2026-04-12T13:02:11.011Z</time></trkpt><trkpt lat="43.7357636" lon="12.191899"><ele>656.3333333333334</ele><time>2026-04-12T13:02:12.012Z</time></trkpt><trkpt lat="43.7358378" lon="12.1918276"><ele>660.1666666666667</ele><time>2026-04-12T13:02:13.011Z</time></trkpt><trkpt lat="43.7359064" lon="12.1917641"><ele>664.0</ele><time>2026-04-12T13:02:14.013Z</time></trkpt><trkpt lat="43.7359628" lon="12.1917013"><ele>664.0</ele><time>2026-04-12T13:02:15.013Z</time></trkpt><trkpt lat="43.7360218" lon="12.1915909"><ele>664.0</ele><time>2026-04-12T13:02:17.011Z</time></trkpt><trkpt lat="43.735967" lon="12.1915314"><ele>664.0</ele><time>2026-04-12T13:02:19.013Z</time></trkpt><trkpt lat="43.7358504" lon="12.1916222"><ele>664.0</ele><time>2026-04-12T13:02:21.013Z</time></trkpt><trkpt lat="43.7357831" lon="12.1916815"><ele>664.0</ele><time>2026-04-12T13:02:22.012Z</time></trkpt><trkpt lat="43.7357091" lon="12.1917282"><ele>664.0</ele><time>2026-04-12T13:02:23.01Z</time></trkpt><trkpt lat="43.7356209" lon="12.1917651"><ele>664.0</ele><time>2026-04-12T13:02:24.016Z</time></trkpt><trkpt lat="43.7355222" lon="12.1917898"><ele>664.0</ele><time>2026-04-12T13:02:25.011Z</time></trkpt><trkpt lat="43.7354262" lon="12.1918104"><ele>664.0</ele><time>2026-04-12T13:02:26.011Z</time></trkpt><trkpt lat="43.7353269" lon="12.1918226"><ele>664.0</ele><time>2026-04-12T13:02:27.014Z</time></trkpt><trkpt lat="43.7352416" lon="12.1918234"><ele>664.4000000000001</ele><time>2026-04-12T13:02:28.011Z</time></trkpt><trkpt lat="43.7351752" lon="12.1918018"><ele>664.8</ele><time>2026-04-12T13:02:29.013Z</time></trkpt><trkpt lat="43.7351058" lon="12.1916813"><ele>665.2</ele><time>2026-04-12T13:02:31.014Z</time></trkpt><trkpt lat="43.7351157" lon="12.1915461"><ele>665.5999999999999</ele><time>2026-04-12T13:02:33.013Z</time></trkpt><trkpt lat="43.7351816" lon="12.1914416"><ele>666.0</ele><time>2026-04-12T13:02:35.012Z</time></trkpt><trkpt lat="43.7352126" lon="12.1913227"><ele>666.1999999999999</ele><time>2026-04-12T13:02:37.012Z</time></trkpt><trkpt lat="43.7352223" lon="12.1911764"><ele>666.4</ele><time>2026-04-12T13:02:39.014Z</time></trkpt><trkpt lat="43.7352337" lon="12.191003"><ele>666.6</ele><time>2026-04-12T13:02:41.012Z</time></trkpt><trkpt lat="43.7352332" lon="12.1909002"><ele>666.8</ele><time>2026-04-12T13:02:42.014Z</time></trkpt><trkpt lat="43.7352273" lon="12.1907899"><ele>667.0</ele><time>2026-04-12T13:02:43.012Z</time></trkpt><trkpt lat="43.7352148" lon="12.1906782"><ele>669.3333333333334</ele><time>2026-04-12T13:02:44.012Z</time></trkpt><trkpt lat="43.7351955" lon="12.190573"><ele>671.6666666666667</ele><time>2026-04-12T13:02:45.012Z</time></trkpt><trkpt lat="43.7351705" lon="12.1904685"><ele>674.0</ele><time>2026-04-12T13:02:46.012Z</time></trkpt><trkpt lat="43.7351378" lon="12.1903748"><ele>676.3333333333334</ele><time>2026-04-12T13:02:47.012Z</time></trkpt><trkpt lat="43.7350912" lon="12.1902893"><ele>678.6666666666666</ele><time>2026-04-12T13:02:48.013Z</time></trkpt><trkpt lat="43.7350322" lon="12.1902132"><ele>681.0</ele><time>2026-04-12T13:02:49.015Z</time></trkpt><trkpt lat="43.7349628" lon="12.1901477"><ele>681.0</ele><time>2026-04-12T13:02:50.012Z</time></trkpt><trkpt lat="43.7348798" lon="12.1900969"><ele>681.0</ele><time>2026-04-12T13:02:51.013Z</time></trkpt><trkpt lat="43.7347943" lon="12.1900574"><ele>681.0</ele><time>2026-04-12T13:02:52.012Z</time></trkpt><trkpt lat="43.7347105" lon="12.1900191"><ele>681.0</ele><time>2026-04-12T13:02:53.012Z</time></trkpt><trkpt lat="43.7346265" lon="12.1899798"><ele>681.0</ele><time>2026-04-12T13:02:54.012Z</time></trkpt><trkpt lat="43.7345408" lon="12.1899362"><ele>681.0</ele><time>2026-04-12T13:02:55.012Z</time></trkpt><trkpt lat="43.7344525" lon="12.1898915"><ele>680.3333333333334</ele><time>2026-04-12T13:02:56.012Z</time></trkpt><trkpt lat="43.7343642" lon="12.1898533"><ele>679.6666666666666</ele><time>2026-04-12T13:02:57.012Z</time></trkpt><trkpt lat="43.7342782" lon="12.1898158"><ele>679.0</ele><time>2026-04-12T13:02:58.012Z</time></trkpt><trkpt lat="43.7341921" lon="12.1897821"><ele>678.3333333333333</ele><time>2026-04-12T13:02:59.013Z</time></trkpt><trkpt lat="43.7341125" lon="12.1897505"><ele>677.6666666666666</ele><time>2026-04-12T13:03:00.012Z</time></trkpt><trkpt lat="43.7340435" lon="12.1897035"><ele>677.0</ele><time>2026-04-12T13:03:01.016Z</time></trkpt><trkpt lat="43.7339866" lon="12.1896385"><ele>677.0</ele><time>2026-04-12T13:03:02.013Z</time></trkpt><trkpt lat="43.7339395" lon="12.1895515"><ele>677.0</ele><time>2026-04-12T13:03:03.012Z</time></trkpt><trkpt lat="43.733903" lon="12.1894467"><ele>677.0</ele><time>2026-04-12T13:03:04.011Z</time></trkpt><trkpt lat="43.7338822" lon="12.1893145"><ele>677.0</ele><time>2026-04-12T13:03:05.014Z</time></trkpt><trkpt lat="43.7338793" lon="12.1891736"><ele>677.0</ele><time>2026-04-12T13:03:06.012Z</time></trkpt><trkpt lat="43.7338735" lon="12.1890452"><ele>677.4000000000001</ele><time>2026-04-12T13:03:07.013Z</time></trkpt><trkpt lat="43.7338536" lon="12.1889318"><ele>677.8000000000001</ele><time>2026-04-12T13:03:08.012Z</time></trkpt><trkpt lat="43.7338153" lon="12.188833"><ele>678.2</ele><time>2026-04-12T13:03:09.012Z</time></trkpt><trkpt lat="43.7337423" lon="12.1887402"><ele>678.6</ele><time>2026-04-12T13:03:10.011Z</time></trkpt><trkpt lat="43.7336491" lon="12.1886653"><ele>679.0</ele><time>2026-04-12T13:03:11.011Z</time></trkpt><trkpt lat="43.7335492" lon="12.1886017"><ele>679.0</ele><time>2026-04-12T13:03:12.011Z</time></trkpt><trkpt lat="43.7334442" lon="12.1885495"><ele>679.0</ele><time>2026-04-12T13:03:13.012Z</time></trkpt><trkpt lat="43.7333437" lon="12.1885162"><ele>679.0</ele><time>2026-04-12T13:03:14.013Z</time></trkpt><trkpt lat="43.733248" lon="12.1884905"><ele>679.0</ele><time>2026-04-12T13:03:15.013Z</time></trkpt><trkpt lat="43.7331542" lon="12.1884626"><ele>679.0</ele><time>2026-04-12T13:03:16.01Z</time></trkpt><trkpt lat="43.7330618" lon="12.1884305"><ele>679.0</ele><time>2026-04-12T13:03:17.012Z</time></trkpt><trkpt lat="43.732966" lon="12.1883893"><ele>679.0</ele><time>2026-04-12T13:03:18.014Z</time></trkpt><trkpt lat="43.7328735" lon="12.1883524"><ele>679.0</ele><time>2026-04-12T13:03:19.012Z</time></trkpt><trkpt lat="43.7327845" lon="12.1883274"><ele>679.0</ele><time>2026-04-12T13:03:20.011Z</time></trkpt><trkpt lat="43.7326921" lon="12.1883234"><ele>679.0</ele><time>2026-04-12T13:03:21.011Z</time></trkpt><trkpt lat="43.7325947" lon="12.1883415"><ele>678.6666666666667</ele><time>2026-04-12T13:03:22.013Z</time></trkpt><trkpt lat="43.7325089" lon="12.1883783"><ele>678.3333333333334</ele><time>2026-04-12T13:03:23.015Z</time></trkpt><trkpt lat="43.7324327" lon="12.188411"><ele>678.0</ele><time>2026-04-12T13:03:24.012Z</time></trkpt><trkpt lat="43.7323581" lon="12.1884264"><ele>677.6666666666666</ele><time>2026-04-12T13:03:25.012Z</time></trkpt><trkpt lat="43.7322854" lon="12.1884178"><ele>677.3333333333333</ele><time>2026-04-12T13:03:26.011Z</time></trkpt><trkpt lat="43.7322167" lon="12.1883788"><ele>677.0</ele><time>2026-04-12T13:03:27.012Z</time></trkpt><trkpt lat="43.7321437" lon="12.1883092"><ele>677.0</ele><time>2026-04-12T13:03:28.013Z</time></trkpt><trkpt lat="43.7320713" lon="12.1882233"><ele>677.0</ele><time>2026-04-12T13:03:29.014Z</time></trkpt><trkpt lat="43.732001" lon="12.1881284"><ele>677.0</ele><time>2026-04-12T13:03:30.013Z</time></trkpt><trkpt lat="43.731934" lon="12.1880203"><ele>677.0</ele><time>2026-04-12T13:03:31.012Z</time></trkpt><trkpt lat="43.731877" lon="12.1879051"><ele>677.0</ele><time>2026-04-12T13:03:32.013Z</time></trkpt><trkpt lat="43.7318392" lon="12.1877837"><ele>675.4000000000001</ele><time>2026-04-12T13:03:33.012Z</time></trkpt><trkpt lat="43.7318213" lon="12.1876554"><ele>673.8000000000001</ele><time>2026-04-12T13:03:34.012Z</time></trkpt><trkpt lat="43.7318183" lon="12.18753"><ele>672.2</ele><time>2026-04-12T13:03:35.011Z</time></trkpt><trkpt lat="43.7318233" lon="12.1874105"><ele>670.6</ele><time>2026-04-12T13:03:36.012Z</time></trkpt><trkpt lat="43.7318343" lon="12.1872907"><ele>669.0</ele><time>2026-04-12T13:03:37.013Z</time></trkpt><trkpt lat="43.7318538" lon="12.1871587"><ele>669.0</ele><time>2026-04-12T13:03:38.014Z</time></trkpt><trkpt lat="43.7318819" lon="12.1870125"><ele>669.0</ele><time>2026-04-12T13:03:39.013Z</time></trkpt><trkpt lat="43.7319108" lon="12.1868561"><ele>669.0</ele><time>2026-04-12T13:03:40.013Z</time></trkpt><trkpt lat="43.7319507" lon="12.1867038"><ele>669.0</ele><time>2026-04-12T13:03:41.014Z</time></trkpt><trkpt lat="43.7319905" lon="12.1865701"><ele>669.0</ele><time>2026-04-12T13:03:42.012Z</time></trkpt><trkpt lat="43.7320314" lon="12.1864445"><ele>671.0</ele><time>2026-04-12T13:03:43.011Z</time></trkpt><trkpt lat="43.7320771" lon="12.1863161"><ele>673.0</ele><time>2026-04-12T13:03:44.012Z</time></trkpt><trkpt lat="43.7321128" lon="12.1861878"><ele>675.0</ele><time>2026-04-12T13:03:45.011Z</time></trkpt><trkpt lat="43.7321445" lon="12.1860652"><ele>677.0</ele><time>2026-04-12T13:03:46.013Z</time></trkpt><trkpt lat="43.7321875" lon="12.1859629"><ele>679.0</ele><time>2026-04-12T13:03:47.011Z</time></trkpt><trkpt lat="43.7322356" lon="12.1858762"><ele>679.0</ele><time>2026-04-12T13:03:48.012Z</time></trkpt><trkpt lat="43.7323081" lon="12.1857882"><ele>679.0</ele><time>2026-04-12T13:03:49.015Z</time></trkpt><trkpt lat="43.7323917" lon="12.185695"><ele>679.0</ele><time>2026-04-12T13:03:50.01Z</time></trkpt><trkpt lat="43.7324608" lon="12.1855951"><ele>679.0</ele><time>2026-04-12T13:03:51.015Z</time></trkpt><trkpt lat="43.7325132" lon="12.1854773"><ele>679.0</ele><time>2026-04-12T13:03:52.009Z</time></trkpt><trkpt lat="43.7325583" lon="12.1853423"><ele>681.2</ele><time>2026-04-12T13:03:53.012Z</time></trkpt><trkpt lat="43.7326106" lon="12.1852044"><ele>683.4000000000001</ele><time>2026-04-12T13:03:54.012Z</time></trkpt><trkpt lat="43.732665" lon="12.185065"><ele>685.6</ele><time>2026-04-12T13:03:55.01Z</time></trkpt><trkpt lat="43.7327233" lon="12.1849433"><ele>687.8</ele><time>2026-04-12T13:03:56.017Z</time></trkpt><trkpt lat="43.7327733" lon="12.184825"><ele>690.0</ele><time>2026-04-12T13:03:57.013Z</time></trkpt><trkpt lat="43.7328433" lon="12.1847217"><ele>685.0</ele><time>2026-04-12T13:03:58.012Z</time></trkpt><trkpt lat="43.7329083" lon="12.1846067"><ele>680.0</ele><time>2026-04-12T13:03:59.011Z</time></trkpt><trkpt lat="43.7329717" lon="12.1845"><ele>675.0</ele><time>2026-04-12T13:04:00.013Z</time></trkpt><trkpt lat="43.7330467" lon="12.1843917"><ele>670.0</ele><time>2026-04-12T13:04:01.013Z</time></trkpt><trkpt lat="43.73313" lon="12.1842817"><ele>665.0</ele><time>2026-04-12T13:04:02.01Z</time></trkpt><trkpt lat="43.73321" lon="12.1841733"><ele>665.0</ele><time>2026-04-12T13:04:03.015Z</time></trkpt><trkpt lat="43.7332983" lon="12.18409"><ele>665.0</ele><time>2026-04-12T13:04:04.011Z</time></trkpt><trkpt lat="43.7333817" lon="12.1840233"><ele>665.0</ele><time>2026-04-12T13:04:05.012Z</time></trkpt><trkpt lat="43.7334567" lon="12.18395"><ele>665.0</ele><time>2026-04-12T13:04:06.011Z</time></trkpt><trkpt lat="43.73352" lon="12.1838717"><ele>665.0</ele><time>2026-04-12T13:04:07.013Z</time></trkpt><trkpt lat="43.7335717" lon="12.18379"><ele>665.8</ele><time>2026-04-12T13:04:08.011Z</time></trkpt><trkpt lat="43.73361" lon="12.183695"><ele>666.6</ele><time>2026-04-12T13:04:09.011Z</time></trkpt><trkpt lat="43.7336383" lon="12.1835833"><ele>667.4000000000001</ele><time>2026-04-12T13:04:10.011Z</time></trkpt><trkpt lat="43.733645" lon="12.1834467"><ele>668.2</ele><time>2026-04-12T13:04:11.012Z</time></trkpt><trkpt lat="43.733665" lon="12.1833017"><ele>669.0</ele><time>2026-04-12T13:04:12.012Z</time></trkpt><trkpt lat="43.7336933" lon="12.1831533"><ele>669.0</ele><time>2026-04-12T13:04:13.014Z</time></trkpt><trkpt lat="43.73371" lon="12.18299"><ele>669.0</ele><time>2026-04-12T13:04:14.011Z</time></trkpt><trkpt lat="43.7337267" lon="12.1828283"><ele>669.0</ele><time>2026-04-12T13:04:15.013Z</time></trkpt><trkpt lat="43.7337467" lon="12.1826717"><ele>669.0</ele><time>2026-04-12T13:04:16.012Z</time></trkpt><trkpt lat="43.7337683" lon="12.182515"><ele>669.0</ele><time>2026-04-12T13:04:17.014Z</time></trkpt><trkpt lat="43.7337917" lon="12.18237"><ele>669.0</ele><time>2026-04-12T13:04:18.011Z</time></trkpt><trkpt lat="43.733815" lon="12.1822433"><ele>669.0</ele><time>2026-04-12T13:04:19.016Z</time></trkpt><trkpt lat="43.7338283" lon="12.1821283"><ele>669.0</ele><time>2026-04-12T13:04:20.013Z</time></trkpt><trkpt lat="43.7338417" lon="12.18201"><ele>669.0</ele><time>2026-04-12T13:04:21.011Z</time></trkpt><trkpt lat="43.7338517" lon="12.1818983"><ele>667.5</ele><time>2026-04-12T13:04:22.012Z</time></trkpt><trkpt lat="43.7338617" lon="12.18178"><ele>666.0</ele><time>2026-04-12T13:04:23.011Z</time></trkpt><trkpt lat="43.7338783" lon="12.18166"><ele>664.5</ele><time>2026-04-12T13:04:24.011Z</time></trkpt><trkpt lat="43.733905" lon="12.1815383"><ele>663.0</ele><time>2026-04-12T13:04:25.014Z</time></trkpt><trkpt lat="43.7339383" lon="12.1814283"><ele>661.5</ele><time>2026-04-12T13:04:26.013Z</time></trkpt><trkpt lat="43.733975" lon="12.1813233"><ele>660.0</ele><time>2026-04-12T13:04:27.015Z</time></trkpt><trkpt lat="43.7340217" lon="12.18122"><ele>657.5</ele><time>2026-04-12T13:04:28.012Z</time></trkpt><trkpt lat="43.7340767" lon="12.181125"><ele>655.0</ele><time>2026-04-12T13:04:29.012Z</time></trkpt><trkpt lat="43.7341367" lon="12.1810417"><ele>652.5</ele><time>2026-04-12T13:04:30.013Z</time></trkpt><trkpt lat="43.7341983" lon="12.1809633"><ele>650.0</ele><time>2026-04-12T13:04:31.012Z</time></trkpt><trkpt lat="43.7342567" lon="12.180875"><ele>647.5</ele><time>2026-04-12T13:04:32.012Z</time></trkpt><trkpt lat="43.7342983" lon="12.1807867"><ele>645.0</ele><time>2026-04-12T13:04:33.012Z</time></trkpt><trkpt lat="43.734315" lon="12.1806933"><ele>643.8571428571429</ele><time>2026-04-12T13:04:34.016Z</time></trkpt><trkpt lat="43.73431" lon="12.1805983"><ele>642.7142857142857</ele><time>2026-04-12T13:04:35.011Z</time></trkpt><trkpt lat="43.7342933" lon="12.18051"><ele>641.5714285714286</ele><time>2026-04-12T13:04:36.012Z</time></trkpt><trkpt lat="43.7342617" lon="12.1804183"><ele>640.4285714285714</ele><time>2026-04-12T13:04:37.012Z</time></trkpt><trkpt lat="43.73424" lon="12.1803217"><ele>639.2857142857142</ele><time>2026-04-12T13:04:38.013Z</time></trkpt><trkpt lat="43.7342317" lon="12.18022"><ele>638.1428571428571</ele><time>2026-04-12T13:04:39.013Z</time></trkpt><trkpt lat="43.7342367" lon="12.180115"><ele>637.0</ele><time>2026-04-12T13:04:40.012Z</time></trkpt><trkpt lat="43.73425" lon="12.180005"><ele>637.0</ele><time>2026-04-12T13:04:41.013Z</time></trkpt><trkpt lat="43.7342717" lon="12.179895"><ele>637.0</ele><time>2026-04-12T13:04:42.01Z</time></trkpt><trkpt lat="43.7342967" lon="12.17979"><ele>637.0</ele><time>2026-04-12T13:04:43.013Z</time></trkpt><trkpt lat="43.734325" lon="12.1796817"><ele>637.0</ele><time>2026-04-12T13:04:44.013Z</time></trkpt><trkpt lat="43.73435" lon="12.1795767"><ele>637.0</ele><time>2026-04-12T13:04:45.013Z</time></trkpt><trkpt lat="43.73437" lon="12.179475"><ele>637.0</ele><time>2026-04-12T13:04:46.011Z</time></trkpt><trkpt lat="43.7343767" lon="12.179375"><ele>637.7142857142857</ele><time>2026-04-12T13:04:47.011Z</time></trkpt><trkpt lat="43.7343767" lon="12.1792783"><ele>638.4285714285714</ele><time>2026-04-12T13:04:48.012Z</time></trkpt><trkpt lat="43.7343817" lon="12.1791817"><ele>639.1428571428571</ele><time>2026-04-12T13:04:49.012Z</time></trkpt><trkpt lat="43.73439" lon="12.1790883"><ele>639.8571428571429</ele><time>2026-04-12T13:04:50.012Z</time></trkpt><trkpt lat="43.7344117" lon="12.179"><ele>640.5714285714286</ele><time>2026-04-12T13:04:51.013Z</time></trkpt><trkpt lat="43.7344417" lon="12.1789217"><ele>641.2857142857142</ele><time>2026-04-12T13:04:52.012Z</time></trkpt><trkpt lat="43.73448" lon="12.17884"><ele>642.0</ele><time>2026-04-12T13:04:53.012Z</time></trkpt><trkpt lat="43.7345233" lon="12.1787567"><ele>639.8571428571428</ele><time>2026-04-12T13:04:54.012Z</time></trkpt><trkpt lat="43.7345633" lon="12.1786733"><ele>637.7142857142857</ele><time>2026-04-12T13:04:55.012Z</time></trkpt><trkpt lat="43.7346083" lon="12.1785867"><ele>635.5714285714286</ele><time>2026-04-12T13:04:56.012Z</time></trkpt><trkpt lat="43.73465" lon="12.1785"><ele>633.4285714285713</ele><time>2026-04-12T13:04:57.013Z</time></trkpt><trkpt lat="43.7346983" lon="12.1784233"><ele>631.2857142857142</ele><time>2026-04-12T13:04:58.011Z</time></trkpt><trkpt lat="43.7347433" lon="12.178355"><ele>629.1428571428571</ele><time>2026-04-12T13:04:59.011Z</time></trkpt><trkpt lat="43.7347983" lon="12.1783067"><ele>627.0</ele><time>2026-04-12T13:05:00.013Z</time></trkpt><trkpt lat="43.7348667" lon="12.17827"><ele>627.0</ele><time>2026-04-12T13:05:01.011Z</time></trkpt><trkpt lat="43.7349417" lon="12.178235"><ele>627.0</ele><time>2026-04-12T13:05:02.012Z</time></trkpt><trkpt lat="43.7350017" lon="12.1782"><ele>627.0</ele><time>2026-04-12T13:05:03.01Z</time></trkpt><trkpt lat="43.73506" lon="12.1781383"><ele>627.0</ele><time>2026-04-12T13:05:04.012Z</time></trkpt><trkpt lat="43.7351117" lon="12.1780633"><ele>627.0</ele><time>2026-04-12T13:05:05.012Z</time></trkpt><trkpt lat="43.7351367" lon="12.177965"><ele>627.0</ele><time>2026-04-12T13:05:06.012Z</time></trkpt><trkpt lat="43.735155" lon="12.1778717"><ele>627.0</ele><time>2026-04-12T13:05:07.012Z</time></trkpt><trkpt lat="43.7351283" lon="12.17777"><ele>628.2</ele><time>2026-04-12T13:05:08.013Z</time></trkpt><trkpt lat="43.7350917" lon="12.17769"><ele>629.4000000000001</ele><time>2026-04-12T13:05:09.01Z</time></trkpt><trkpt lat="43.734955" lon="12.1775983"><ele>630.5999999999999</ele><time>2026-04-12T13:05:11.011Z</time></trkpt><trkpt lat="43.7348717" lon="12.1775683"><ele>631.8</ele><time>2026-04-12T13:05:12.013Z</time></trkpt><trkpt lat="43.7347867" lon="12.17753"><ele>633.0</ele><time>2026-04-12T13:05:13.012Z</time></trkpt><trkpt lat="43.7347133" lon="12.1774767"><ele>633.0</ele><time>2026-04-12T13:05:14.012Z</time></trkpt><trkpt lat="43.7346367" lon="12.1774067"><ele>633.0</ele><time>2026-04-12T13:05:15.012Z</time></trkpt><trkpt lat="43.7345717" lon="12.177315"><ele>633.0</ele><time>2026-04-12T13:05:16.012Z</time></trkpt><trkpt lat="43.73449" lon="12.177185"><ele>633.0</ele><time>2026-04-12T13:05:17.013Z</time></trkpt><trkpt lat="43.7343933" lon="12.177055"><ele>633.0</ele><time>2026-04-12T13:05:18.011Z</time></trkpt><trkpt lat="43.7342983" lon="12.1769283"><ele>632.6</ele><time>2026-04-12T13:05:19.013Z</time></trkpt><trkpt lat="43.7342017" lon="12.1768083"><ele>632.1999999999999</ele><time>2026-04-12T13:05:20.013Z</time></trkpt><trkpt lat="43.7341133" lon="12.17671"><ele>631.8</ele><time>2026-04-12T13:05:21.01Z</time></trkpt><trkpt lat="43.73403" lon="12.1766467"><ele>631.4</ele><time>2026-04-12T13:05:22.01Z</time></trkpt><trkpt lat="43.7339533" lon="12.1765883"><ele>631.0</ele><time>2026-04-12T13:05:23.012Z</time></trkpt><trkpt lat="43.7338833" lon="12.1765433"><ele>631.6</ele><time>2026-04-12T13:05:24.011Z</time></trkpt><trkpt lat="43.733825" lon="12.1764983"><ele>632.2</ele><time>2026-04-12T13:05:25.011Z</time></trkpt><trkpt lat="43.7337433" lon="12.17638"><ele>632.8</ele><time>2026-04-12T13:05:27.012Z</time></trkpt><trkpt lat="43.7337267" lon="12.1762167"><ele>633.4</ele><time>2026-04-12T13:05:29.012Z</time></trkpt><trkpt lat="43.7337733" lon="12.17609"><ele>634.0</ele><time>2026-04-12T13:05:31.017Z</time></trkpt><trkpt lat="43.7338517" lon="12.1760467"><ele>634.0</ele><time>2026-04-12T13:05:32.013Z</time></trkpt><trkpt lat="43.733925" lon="12.175985"><ele>634.0</ele><time>2026-04-12T13:05:33.012Z</time></trkpt><trkpt lat="43.733985" lon="12.175915"><ele>634.0</ele><time>2026-04-12T13:05:34.012Z</time></trkpt><trkpt lat="43.7340333" lon="12.1758483"><ele>634.0</ele><time>2026-04-12T13:05:35.012Z</time></trkpt><trkpt lat="43.7340788" lon="12.1757616"><ele>634.0</ele><time>2026-04-12T13:05:37.018Z</time></trkpt><trkpt lat="43.7341526" lon="12.1756718"><ele>634.0</ele><time>2026-04-12T13:15:24.012Z</time></trkpt><trkpt lat="43.7341936" lon="12.1755608"><ele>634.0</ele><time>2026-04-12T13:15:25.016Z</time></trkpt><trkpt lat="43.7343006" lon="12.1753403"><ele>634.0</ele><time>2026-04-12T13:15:27.013Z</time></trkpt><trkpt lat="43.7343639" lon="12.1751806"><ele>634.0</ele><time>2026-04-12T13:15:28.012Z</time></trkpt><trkpt lat="43.7343959" lon="12.1750531"><ele>634.0</ele><time>2026-04-12T13:15:29.011Z</time></trkpt><trkpt lat="43.7344034" lon="12.1749297"><ele>635.0</ele><time>2026-04-12T13:15:30.011Z</time></trkpt><trkpt lat="43.7343943" lon="12.174799"><ele>636.0</ele><time>2026-04-12T13:15:31.013Z</time></trkpt><trkpt lat="43.7343693" lon="12.1746754"><ele>637.0</ele><time>2026-04-12T13:15:32.012Z</time></trkpt><trkpt lat="43.7343475" lon="12.1745785"><ele>638.0</ele><time>2026-04-12T13:15:33.013Z</time></trkpt><trkpt lat="43.7342857" lon="12.1744484"><ele>639.0</ele><time>2026-04-12T13:15:35.012Z</time></trkpt><trkpt lat="43.7342174" lon="12.1744409"><ele>640.0</ele><time>2026-04-12T13:15:36.01Z</time></trkpt><trkpt lat="43.7341218" lon="12.1744566"><ele>640.0</ele><time>2026-04-12T13:15:37.011Z</time></trkpt><trkpt lat="43.7340034" lon="12.1744739"><ele>640.0</ele><time>2026-04-12T13:15:38.014Z</time></trkpt><trkpt lat="43.733875" lon="12.1744896"><ele>640.0</ele><time>2026-04-12T13:15:39.012Z</time></trkpt><trkpt lat="43.7337508" lon="12.1745076"><ele>640.0</ele><time>2026-04-12T13:15:40.011Z</time></trkpt><trkpt lat="43.7336377" lon="12.1745268"><ele>638.2</ele><time>2026-04-12T13:15:41.012Z</time></trkpt><trkpt lat="43.7335296" lon="12.1745469"><ele>636.4</ele><time>2026-04-12T13:15:42.013Z</time></trkpt><trkpt lat="43.7334232" lon="12.1745669"><ele>634.6</ele><time>2026-04-12T13:15:43.012Z</time></trkpt><trkpt lat="43.7333154" lon="12.1745882"><ele>632.8</ele><time>2026-04-12T13:15:44.012Z</time></trkpt><trkpt lat="43.7332022" lon="12.1746104"><ele>631.0</ele><time>2026-04-12T13:15:45.012Z</time></trkpt><trkpt lat="43.7330869" lon="12.1746262"><ele>631.0</ele><time>2026-04-12T13:15:46.013Z</time></trkpt><trkpt lat="43.7329767" lon="12.174615"><ele>631.0</ele><time>2026-04-12T13:15:47.014Z</time></trkpt><trkpt lat="43.7328583" lon="12.17457"><ele>631.0</ele><time>2026-04-12T13:15:48.013Z</time></trkpt><trkpt lat="43.7327367" lon="12.1744983"><ele>631.0</ele><time>2026-04-12T13:15:49.014Z</time></trkpt><trkpt lat="43.7326133" lon="12.1744167"><ele>629.25</ele><time>2026-04-12T13:15:50.012Z</time></trkpt><trkpt lat="43.7325" lon="12.1743383"><ele>627.5</ele><time>2026-04-12T13:15:51.017Z</time></trkpt><trkpt lat="43.7323867" lon="12.1742717"><ele>625.75</ele><time>2026-04-12T13:15:52.016Z</time></trkpt><trkpt lat="43.732275" lon="12.1742267"><ele>624.0</ele><time>2026-04-12T13:15:53.013Z</time></trkpt><trkpt lat="43.7321583" lon="12.1742233"><ele>624.0</ele><time>2026-04-12T13:15:54.013Z</time></trkpt><trkpt lat="43.73203" lon="12.1742617"><ele>624.0</ele><time>2026-04-12T13:15:55.016Z</time></trkpt><trkpt lat="43.7319067" lon="12.1743083"><ele>624.0</ele><time>2026-04-12T13:15:56.013Z</time></trkpt><trkpt lat="43.73179" lon="12.1743667"><ele>624.0</ele><time>2026-04-12T13:15:57.013Z</time></trkpt><trkpt lat="43.7316833" lon="12.1744233"><ele>622.2</ele><time>2026-04-12T13:15:58.014Z</time></trkpt><trkpt lat="43.7315933" lon="12.1744867"><ele>620.4</ele><time>2026-04-12T13:15:59.013Z</time></trkpt><trkpt lat="43.7315133" lon="12.1745783"><ele>618.6</ele><time>2026-04-12T13:16:00.014Z</time></trkpt><trkpt lat="43.7314517" lon="12.17469"><ele>616.8</ele><time>2026-04-12T13:16:01.013Z</time></trkpt><trkpt lat="43.7314117" lon="12.1748267"><ele>615.0</ele><time>2026-04-12T13:16:02.013Z</time></trkpt><trkpt lat="43.7314017" lon="12.17498"><ele>613.75</ele><time>2026-04-12T13:16:03.017Z</time></trkpt><trkpt lat="43.7313933" lon="12.17513"><ele>612.5</ele><time>2026-04-12T13:16:04.013Z</time></trkpt><trkpt lat="43.7313667" lon="12.1752767"><ele>611.25</ele><time>2026-04-12T13:16:05.013Z</time></trkpt><trkpt lat="43.7313067" lon="12.17542"><ele>610.0</ele><time>2026-04-12T13:16:06.017Z</time></trkpt><trkpt lat="43.731215" lon="12.1755433"><ele>610.0</ele><time>2026-04-12T13:16:07.013Z</time></trkpt><trkpt lat="43.7310867" lon="12.1756633"><ele>610.0</ele><time>2026-04-12T13:16:08.013Z</time></trkpt><trkpt lat="43.7309433" lon="12.1757867"><ele>610.0</ele><time>2026-04-12T13:16:09.013Z</time></trkpt><trkpt lat="43.7308" lon="12.175905"><ele>607.0</ele><time>2026-04-12T13:16:10.014Z</time></trkpt><trkpt lat="43.7306683" lon="12.1760183"><ele>604.0</ele><time>2026-04-12T13:16:11.014Z</time></trkpt><trkpt lat="43.7305383" lon="12.1761217"><ele>601.0</ele><time>2026-04-12T13:16:12.012Z</time></trkpt><trkpt lat="43.730415" lon="12.1762217"><ele>598.0</ele><time>2026-04-12T13:16:13.013Z</time></trkpt><trkpt lat="43.7302983" lon="12.1763283"><ele>595.3333333333334</ele><time>2026-04-12T13:16:14.014Z</time></trkpt><trkpt lat="43.7301883" lon="12.1764683"><ele>592.6666666666666</ele><time>2026-04-12T13:16:15.013Z</time></trkpt><trkpt lat="43.7300933" lon="12.1766467"><ele>590.0</ele><time>2026-04-12T13:16:16.014Z</time></trkpt><trkpt lat="43.73001" lon="12.17685"><ele>590.0</ele><time>2026-04-12T13:16:17.013Z</time></trkpt><trkpt lat="43.7299333" lon="12.177055"><ele>590.0</ele><time>2026-04-12T13:16:18.012Z</time></trkpt><trkpt lat="43.7298567" lon="12.1772467"><ele>590.0</ele><time>2026-04-12T13:16:19.012Z</time></trkpt><trkpt lat="43.729775" lon="12.177415"><ele>588.0</ele><time>2026-04-12T13:16:20.014Z</time></trkpt><trkpt lat="43.7296883" lon="12.1775483"><ele>586.0</ele><time>2026-04-12T13:16:21.013Z</time></trkpt><trkpt lat="43.7295809" lon="12.1776497"><ele>584.0</ele><time>2026-04-12T13:16:22.013Z</time></trkpt><trkpt lat="43.7294496" lon="12.1777186"><ele>582.0</ele><time>2026-04-12T13:16:23.013Z</time></trkpt><trkpt lat="43.7293033" lon="12.1777735"><ele>581.5</ele><time>2026-04-12T13:16:24.013Z</time></trkpt><trkpt lat="43.7291566" lon="12.1778248"><ele>581.0</ele><time>2026-04-12T13:16:25.013Z</time></trkpt><trkpt lat="43.7290144" lon="12.1778829"><ele>580.5</ele><time>2026-04-12T13:16:26.013Z</time></trkpt><trkpt lat="43.7288784" lon="12.1779436"><ele>580.0</ele><time>2026-04-12T13:16:27.013Z</time></trkpt><trkpt lat="43.7287507" lon="12.1780052"><ele>580.0</ele><time>2026-04-12T13:16:28.013Z</time></trkpt><trkpt lat="43.7286288" lon="12.1780554"><ele>580.0</ele><time>2026-04-12T13:16:29.012Z</time></trkpt><trkpt lat="43.7285106" lon="12.1780712"><ele>580.0</ele><time>2026-04-12T13:16:30.013Z</time></trkpt><trkpt lat="43.7284009" lon="12.1780411"><ele>580.0</ele><time>2026-04-12T13:16:31.013Z</time></trkpt><trkpt lat="43.7283069" lon="12.1779539"><ele>577.5</ele><time>2026-04-12T13:16:32.013Z</time></trkpt><trkpt lat="43.7282295" lon="12.1778182"><ele>575.0</ele><time>2026-04-12T13:16:33.013Z</time></trkpt><trkpt lat="43.7281718" lon="12.1776479"><ele>572.5</ele><time>2026-04-12T13:16:34.013Z</time></trkpt><trkpt lat="43.7281327" lon="12.1774626"><ele>570.0</ele><time>2026-04-12T13:16:35.015Z</time></trkpt><trkpt lat="43.7280968" lon="12.1772809"><ele>569.75</ele><time>2026-04-12T13:16:36.013Z</time></trkpt><trkpt lat="43.7280577" lon="12.1771045"><ele>569.5</ele><time>2026-04-12T13:16:37.014Z</time></trkpt><trkpt lat="43.7280178" lon="12.1769301"><ele>569.25</ele><time>2026-04-12T13:16:38.013Z</time></trkpt><trkpt lat="43.7279994" lon="12.1767529"><ele>569.0</ele><time>2026-04-12T13:16:39.013Z</time></trkpt><trkpt lat="43.7280165" lon="12.1765691"><ele>566.75</ele><time>2026-04-12T13:16:40.013Z</time></trkpt><trkpt lat="43.7280693" lon="12.1763851"><ele>564.5</ele><time>2026-04-12T13:16:41.013Z</time></trkpt><trkpt lat="43.7281379" lon="12.1761978"><ele>562.25</ele><time>2026-04-12T13:16:42.015Z</time></trkpt><trkpt lat="43.7282077" lon="12.1760083"><ele>560.0</ele><time>2026-04-12T13:16:43.013Z</time></trkpt><trkpt lat="43.7282712" lon="12.1758154"><ele>559.0</ele><time>2026-04-12T13:16:44.013Z</time></trkpt><trkpt lat="43.7283295" lon="12.1756209"><ele>558.0</ele><time>2026-04-12T13:16:45.017Z</time></trkpt><trkpt lat="43.72839" lon="12.1754313"><ele>557.0</ele><time>2026-04-12T13:16:46.012Z</time></trkpt><trkpt lat="43.7284487" lon="12.1752529"><ele>556.0</ele><time>2026-04-12T13:16:47.013Z</time></trkpt><trkpt lat="43.7285037" lon="12.1750888"><ele>556.0</ele><time>2026-04-12T13:16:48.013Z</time></trkpt><trkpt lat="43.7285485" lon="12.1749351"><ele>556.0</ele><time>2026-04-12T13:16:49.015Z</time></trkpt><trkpt lat="43.7285659" lon="12.1747861"><ele>556.0</ele><time>2026-04-12T13:16:50.014Z</time></trkpt><trkpt lat="43.7285529" lon="12.1746551"><ele>556.0</ele><time>2026-04-12T13:16:51.013Z</time></trkpt><trkpt lat="43.7285253" lon="12.1745396"><ele>556.0</ele><time>2026-04-12T13:16:52.015Z</time></trkpt><trkpt lat="43.7284487" lon="12.1744869"><ele>555.25</ele><time>2026-04-12T13:16:53.013Z</time></trkpt><trkpt lat="43.7283584" lon="12.1744686"><ele>554.5</ele><time>2026-04-12T13:16:54.015Z</time></trkpt><trkpt lat="43.7282512" lon="12.1745225"><ele>553.75</ele><time>2026-04-12T13:16:55.013Z</time></trkpt><trkpt lat="43.7281497" lon="12.1746419"><ele>553.0</ele><time>2026-04-12T13:16:56.013Z</time></trkpt><trkpt lat="43.728054" lon="12.1747989"><ele>553.75</ele><time>2026-04-12T13:16:57.014Z</time></trkpt><trkpt lat="43.7279588" lon="12.17495"><ele>554.5</ele><time>2026-04-12T13:16:58.016Z</time></trkpt><trkpt lat="43.7278541" lon="12.1750689"><ele>555.25</ele><time>2026-04-12T13:16:59.016Z</time></trkpt><trkpt lat="43.7277336" lon="12.1751443"><ele>556.0</ele><time>2026-04-12T13:17:00.013Z</time></trkpt><trkpt lat="43.7276109" lon="12.1751904"><ele>552.25</ele><time>2026-04-12T13:17:01.015Z</time></trkpt><trkpt lat="43.7274972" lon="12.1752452"><ele>548.5</ele><time>2026-04-12T13:17:02.015Z</time></trkpt><trkpt lat="43.7273972" lon="12.1753309"><ele>544.75</ele><time>2026-04-12T13:17:03.013Z</time></trkpt><trkpt lat="43.7273127" lon="12.1754443"><ele>541.0</ele><time>2026-04-12T13:17:04.015Z</time></trkpt><trkpt lat="43.7272454" lon="12.1755631"><ele>541.0</ele><time>2026-04-12T13:17:05.011Z</time></trkpt><trkpt lat="43.7271843" lon="12.1756798"><ele>541.0</ele><time>2026-04-12T13:17:06.014Z</time></trkpt><trkpt lat="43.7271248" lon="12.1757924"><ele>541.0</ele><time>2026-04-12T13:17:07.012Z</time></trkpt><trkpt lat="43.72707" lon="12.1758994"><ele>541.0</ele><time>2026-04-12T13:17:08.012Z</time></trkpt><trkpt lat="43.7270106" lon="12.1760065"><ele>541.0</ele><time>2026-04-12T13:17:09.013Z</time></trkpt><trkpt lat="43.7269496" lon="12.1761162"><ele>539.8</ele><time>2026-04-12T13:17:10.014Z</time></trkpt><trkpt lat="43.7268917" lon="12.1762292"><ele>538.6</ele><time>2026-04-12T13:17:11.014Z</time></trkpt><trkpt lat="43.7268341" lon="12.1763387"><ele>537.4</ele><time>2026-04-12T13:17:12.013Z</time></trkpt><trkpt lat="43.7267667" lon="12.1764311"><ele>536.2</ele><time>2026-04-12T13:17:13.012Z</time></trkpt><trkpt lat="43.7266849" lon="12.1764882"><ele>535.0</ele><time>2026-04-12T13:17:14.012Z</time></trkpt><trkpt lat="43.7266003" lon="12.1765167"><ele>535.0</ele><time>2026-04-12T13:17:15.013Z</time></trkpt><trkpt lat="43.7265202" lon="12.1765206"><ele>535.0</ele><time>2026-04-12T13:17:16.014Z</time></trkpt><trkpt lat="43.7264355" lon="12.1764826"><ele>535.0</ele><time>2026-04-12T13:17:17.013Z</time></trkpt><trkpt lat="43.7263538" lon="12.1764194"><ele>535.0</ele><time>2026-04-12T13:17:18.013Z</time></trkpt><trkpt lat="43.7262832" lon="12.1763378"><ele>535.0</ele><time>2026-04-12T13:17:19.012Z</time></trkpt><trkpt lat="43.7262411" lon="12.1762176"><ele>535.0</ele><time>2026-04-12T13:17:20.016Z</time></trkpt><trkpt lat="43.7262191" lon="12.1760756"><ele>535.0</ele><time>2026-04-12T13:17:21.013Z</time></trkpt><trkpt lat="43.7262019" lon="12.1759214"><ele>535.0</ele><time>2026-04-12T13:17:22.012Z</time></trkpt><trkpt lat="43.7261813" lon="12.1757545"><ele>535.0</ele><time>2026-04-12T13:17:23.013Z</time></trkpt><trkpt lat="43.7261662" lon="12.175575"><ele>535.25</ele><time>2026-04-12T13:17:24.012Z</time></trkpt><trkpt lat="43.7261602" lon="12.175391"><ele>535.5</ele><time>2026-04-12T13:17:25.013Z</time></trkpt><trkpt lat="43.7261636" lon="12.1752148"><ele>535.75</ele><time>2026-04-12T13:17:26.012Z</time></trkpt><trkpt lat="43.7261673" lon="12.1750637"><ele>536.0</ele><time>2026-04-12T13:17:27.012Z</time></trkpt><trkpt lat="43.7261632" lon="12.1749322"><ele>537.0</ele><time>2026-04-12T13:17:28.019Z</time></trkpt><trkpt lat="43.7261586" lon="12.1748118"><ele>538.0</ele><time>2026-04-12T13:17:29.013Z</time></trkpt><trkpt lat="43.7261442" lon="12.1746992"><ele>539.0</ele><time>2026-04-12T13:17:30.014Z</time></trkpt><trkpt lat="43.7261163" lon="12.1746"><ele>540.0</ele><time>2026-04-12T13:17:31.013Z</time></trkpt><trkpt lat="43.7260754" lon="12.1745293"><ele>541.0</ele><time>2026-04-12T13:17:32.013Z</time></trkpt><trkpt lat="43.7259438" lon="12.1745841"><ele>542.6</ele><time>2026-04-12T13:17:34.014Z</time></trkpt><trkpt lat="43.7258969" lon="12.1746836"><ele>544.2</ele><time>2026-04-12T13:17:35.015Z</time></trkpt><trkpt lat="43.7258616" lon="12.1748068"><ele>545.8</ele><time>2026-04-12T13:17:36.014Z</time></trkpt><trkpt lat="43.7258621" lon="12.1749681"><ele>547.4</ele><time>2026-04-12T13:17:37.013Z</time></trkpt><trkpt lat="43.7258785" lon="12.1751549"><ele>549.0</ele><time>2026-04-12T13:17:38.013Z</time></trkpt><trkpt lat="43.725903" lon="12.1753608"><ele>550.25</ele><time>2026-04-12T13:17:39.015Z</time></trkpt><trkpt lat="43.7259332" lon="12.1755679"><ele>551.5</ele><time>2026-04-12T13:17:40.014Z</time></trkpt><trkpt lat="43.7259662" lon="12.1757606"><ele>552.75</ele><time>2026-04-12T13:17:41.014Z</time></trkpt><trkpt lat="43.726001" lon="12.1759381"><ele>554.0</ele><time>2026-04-12T13:17:42.014Z</time></trkpt><trkpt lat="43.7260253" lon="12.1761064"><ele>554.5</ele><time>2026-04-12T13:17:43.013Z</time></trkpt><trkpt lat="43.726028" lon="12.1762715"><ele>555.0</ele><time>2026-04-12T13:17:44.014Z</time></trkpt><trkpt lat="43.7259987" lon="12.1764388"><ele>555.5</ele><time>2026-04-12T13:17:45.014Z</time></trkpt><trkpt lat="43.7259377" lon="12.1766113"><ele>556.0</ele><time>2026-04-12T13:17:46.013Z</time></trkpt><trkpt lat="43.7258566" lon="12.1767912"><ele>556.0</ele><time>2026-04-12T13:17:47.013Z</time></trkpt><trkpt lat="43.7257626" lon="12.1769672"><ele>556.0</ele><time>2026-04-12T13:17:48.012Z</time></trkpt><trkpt lat="43.7256591" lon="12.1771246"><ele>556.0</ele><time>2026-04-12T13:17:49.013Z</time></trkpt><trkpt lat="43.7255541" lon="12.1772489"><ele>556.0</ele><time>2026-04-12T13:17:50.012Z</time></trkpt><trkpt lat="43.72545" lon="12.1773256"><ele>556.0</ele><time>2026-04-12T13:17:51.014Z</time></trkpt><trkpt lat="43.7253495" lon="12.1773505"><ele>556.0</ele><time>2026-04-12T13:17:52.014Z</time></trkpt><trkpt lat="43.7252606" lon="12.1773183"><ele>556.0</ele><time>2026-04-12T13:17:53.012Z</time></trkpt><trkpt lat="43.7251798" lon="12.1772436"><ele>556.0</ele><time>2026-04-12T13:17:54.013Z</time></trkpt><trkpt lat="43.7251202" lon="12.1771271"><ele>559.8</ele><time>2026-04-12T13:17:55.014Z</time></trkpt><trkpt lat="43.7250594" lon="12.1769894"><ele>563.6</ele><time>2026-04-12T13:17:56.013Z</time></trkpt><trkpt lat="43.724996" lon="12.1768609"><ele>567.4</ele><time>2026-04-12T13:17:57.014Z</time></trkpt><trkpt lat="43.7249262" lon="12.1767795"><ele>571.2</ele><time>2026-04-12T13:17:58.019Z</time></trkpt><trkpt lat="43.7248555" lon="12.1767306"><ele>575.0</ele><time>2026-04-12T13:17:59.013Z</time></trkpt><trkpt lat="43.7247857" lon="12.1767331"><ele>575.0</ele><time>2026-04-12T13:18:00.011Z</time></trkpt><trkpt lat="43.7247164" lon="12.1767815"><ele>575.0</ele><time>2026-04-12T13:18:01.015Z</time></trkpt><trkpt lat="43.7246601" lon="12.1768995"><ele>575.0</ele><time>2026-04-12T13:18:02.012Z</time></trkpt><trkpt lat="43.7246138" lon="12.1770593"><ele>575.0</ele><time>2026-04-12T13:18:03.015Z</time></trkpt><trkpt lat="43.7245623" lon="12.177233"><ele>575.0</ele><time>2026-04-12T13:18:04.012Z</time></trkpt><trkpt lat="43.7244956" lon="12.1774141"><ele>574.5</ele><time>2026-04-12T13:18:05.012Z</time></trkpt><trkpt lat="43.7244282" lon="12.1775889"><ele>574.0</ele><time>2026-04-12T13:18:06.012Z</time></trkpt><trkpt lat="43.7243872" lon="12.1777565"><ele>573.5</ele><time>2026-04-12T13:18:07.014Z</time></trkpt><trkpt lat="43.7243816" lon="12.1779169"><ele>573.0</ele><time>2026-04-12T13:18:08.012Z</time></trkpt><trkpt lat="43.7244107" lon="12.1780749"><ele>575.0</ele><time>2026-04-12T13:18:09.012Z</time></trkpt><trkpt lat="43.7244642" lon="12.1782248"><ele>577.0</ele><time>2026-04-12T13:18:10.012Z</time></trkpt><trkpt lat="43.7245344" lon="12.1783694"><ele>579.0</ele><time>2026-04-12T13:18:11.013Z</time></trkpt><trkpt lat="43.724615" lon="12.1785276"><ele>581.0</ele><time>2026-04-12T13:18:12.013Z</time></trkpt><trkpt lat="43.7246996" lon="12.1786941"><ele>581.0</ele><time>2026-04-12T13:18:13.012Z</time></trkpt><trkpt lat="43.7247751" lon="12.1788522"><ele>581.0</ele><time>2026-04-12T13:18:14.013Z</time></trkpt><trkpt lat="43.724829" lon="12.1790022"><ele>581.0</ele><time>2026-04-12T13:18:15.014Z</time></trkpt><trkpt lat="43.7248582" lon="12.1791615"><ele>581.0</ele><time>2026-04-12T13:18:16.013Z</time></trkpt><trkpt lat="43.7248628" lon="12.1793431"><ele>580.6666666666666</ele><time>2026-04-12T13:18:17.012Z</time></trkpt><trkpt lat="43.7248545" lon="12.1795555"><ele>580.3333333333334</ele><time>2026-04-12T13:18:18.013Z</time></trkpt><trkpt lat="43.7248469" lon="12.17979"><ele>580.0</ele><time>2026-04-12T13:18:19.014Z</time></trkpt><trkpt lat="43.724855" lon="12.1800197"><ele>579.25</ele><time>2026-04-12T13:18:20.013Z</time></trkpt><trkpt lat="43.7248736" lon="12.1802358"><ele>578.5</ele><time>2026-04-12T13:18:21.014Z</time></trkpt><trkpt lat="43.7248809" lon="12.180437"><ele>577.75</ele><time>2026-04-12T13:18:22.013Z</time></trkpt><trkpt lat="43.7248614" lon="12.180629"><ele>577.0</ele><time>2026-04-12T13:18:23.014Z</time></trkpt><trkpt lat="43.7248149" lon="12.1808185"><ele>576.5</ele><time>2026-04-12T13:18:24.012Z</time></trkpt><trkpt lat="43.7247432" lon="12.1809987"><ele>576.0</ele><time>2026-04-12T13:18:25.014Z</time></trkpt><trkpt lat="43.7246593" lon="12.1811626"><ele>575.5</ele><time>2026-04-12T13:18:26.012Z</time></trkpt><trkpt lat="43.7245813" lon="12.1813182"><ele>575.0</ele><time>2026-04-12T13:18:27.014Z</time></trkpt><trkpt lat="43.7245342" lon="12.1814899"><ele>573.75</ele><time>2026-04-12T13:18:28.011Z</time></trkpt><trkpt lat="43.7245107" lon="12.1816782"><ele>572.5</ele><time>2026-04-12T13:18:29.012Z</time></trkpt><trkpt lat="43.7245011" lon="12.1818706"><ele>571.25</ele><time>2026-04-12T13:18:30.012Z</time></trkpt><trkpt lat="43.724516" lon="12.1820667"><ele>570.0</ele><time>2026-04-12T13:18:31.014Z</time></trkpt><trkpt lat="43.7245419" lon="12.182261"><ele>570.25</ele><time>2026-04-12T13:18:32.012Z</time></trkpt><trkpt lat="43.7245372" lon="12.1824566"><ele>570.5</ele><time>2026-04-12T13:18:33.013Z</time></trkpt><trkpt lat="43.7245004" lon="12.1826551"><ele>570.75</ele><time>2026-04-12T13:18:34.012Z</time></trkpt><trkpt lat="43.7244594" lon="12.1828559"><ele>571.0</ele><time>2026-04-12T13:18:35.01Z</time></trkpt><trkpt lat="43.7244392" lon="12.1830628"><ele>570.6666666666667</ele><time>2026-04-12T13:18:36.013Z</time></trkpt><trkpt lat="43.7244397" lon="12.1832747"><ele>570.3333333333334</ele><time>2026-04-12T13:18:37.011Z</time></trkpt><trkpt lat="43.7244206" lon="12.1834831"><ele>570.0</ele><time>2026-04-12T13:18:38.011Z</time></trkpt><trkpt lat="43.7243802" lon="12.1836938"><ele>581.6666666666666</ele><time>2026-04-12T13:18:39.011Z</time></trkpt><trkpt lat="43.7243382" lon="12.183907"><ele>593.3333333333333</ele><time>2026-04-12T13:18:40.013Z</time></trkpt><trkpt lat="43.7243204" lon="12.1841235"><ele>605.0</ele><time>2026-04-12T13:18:41.012Z</time></trkpt><trkpt lat="43.7243051" lon="12.1843391"><ele>605.0</ele><time>2026-04-12T13:18:42.011Z</time></trkpt><trkpt lat="43.7242737" lon="12.1845478"><ele>605.0</ele><time>2026-04-12T13:18:43.013Z</time></trkpt><trkpt lat="43.7242167" lon="12.1847487"><ele>605.0</ele><time>2026-04-12T13:18:44.013Z</time></trkpt><trkpt lat="43.7241514" lon="12.1849493"><ele>604.0</ele><time>2026-04-12T13:18:45.012Z</time></trkpt><trkpt lat="43.7240919" lon="12.1851589"><ele>603.0</ele><time>2026-04-12T13:18:46.012Z</time></trkpt><trkpt lat="43.7240483" lon="12.1853721"><ele>602.0</ele><time>2026-04-12T13:18:47.011Z</time></trkpt><trkpt lat="43.7240276" lon="12.1855813"><ele>602.75</ele><time>2026-04-12T13:18:48.013Z</time></trkpt><trkpt lat="43.724015" lon="12.1857784"><ele>603.5</ele><time>2026-04-12T13:18:49.012Z</time></trkpt><trkpt lat="43.723996" lon="12.1859646"><ele>604.25</ele><time>2026-04-12T13:18:50.012Z</time></trkpt><trkpt lat="43.72395" lon="12.1861365"><ele>605.0</ele><time>2026-04-12T13:18:51.012Z</time></trkpt><trkpt lat="43.7238829" lon="12.1862778"><ele>605.0</ele><time>2026-04-12T13:18:52.013Z</time></trkpt><trkpt lat="43.7238107" lon="12.1863705"><ele>605.0</ele><time>2026-04-12T13:18:53.013Z</time></trkpt><trkpt lat="43.723725" lon="12.1864001"><ele>605.0</ele><time>2026-04-12T13:18:54.013Z</time></trkpt><trkpt lat="43.7236208" lon="12.186369"><ele>605.0</ele><time>2026-04-12T13:18:55.012Z</time></trkpt><trkpt lat="43.7235192" lon="12.1863054"><ele>605.0</ele><time>2026-04-12T13:18:56.011Z</time></trkpt><trkpt lat="43.7234593" lon="12.1861916"><ele>604.4</ele><time>2026-04-12T13:18:57.012Z</time></trkpt><trkpt lat="43.7234181" lon="12.1860645"><ele>603.8</ele><time>2026-04-12T13:18:58.011Z</time></trkpt><trkpt lat="43.7234129" lon="12.1859186"><ele>603.2</ele><time>2026-04-12T13:18:59.011Z</time></trkpt><trkpt lat="43.723452" lon="12.185794"><ele>602.6</ele><time>2026-04-12T13:19:00.012Z</time></trkpt><trkpt lat="43.7235246" lon="12.1856953"><ele>602.0</ele><time>2026-04-12T13:19:01.016Z</time></trkpt><trkpt lat="43.7235859" lon="12.185598"><ele>602.0</ele><time>2026-04-12T13:19:02.012Z</time></trkpt><trkpt lat="43.7236494" lon="12.1854957"><ele>602.0</ele><time>2026-04-12T13:19:03.012Z</time></trkpt><trkpt lat="43.7236876" lon="12.1853894"><ele>602.0</ele><time>2026-04-12T13:19:04.015Z</time></trkpt><trkpt lat="43.7236969" lon="12.185262"><ele>602.0</ele><time>2026-04-12T13:19:05.012Z</time></trkpt><trkpt lat="43.7236691" lon="12.1851255"><ele>602.0</ele><time>2026-04-12T13:19:06.011Z</time></trkpt><trkpt lat="43.7236088" lon="12.184997"><ele>608.0</ele><time>2026-04-12T13:19:07.013Z</time></trkpt><trkpt lat="43.7235364" lon="12.1848925"><ele>614.0</ele><time>2026-04-12T13:19:08.013Z</time></trkpt><trkpt lat="43.7234449" lon="12.1848276"><ele>620.0</ele><time>2026-04-12T13:19:09.014Z</time></trkpt><trkpt lat="43.7233367" lon="12.1847733"><ele>626.0</ele><time>2026-04-12T13:19:10.013Z</time></trkpt><trkpt lat="43.7232483" lon="12.184705"><ele>632.0</ele><time>2026-04-12T13:19:11.013Z</time></trkpt><trkpt lat="43.7231833" lon="12.1846217"><ele>633.0</ele><time>2026-04-12T13:19:12.015Z</time></trkpt><trkpt lat="43.7231483" lon="12.1845283"><ele>634.0</ele><time>2026-04-12T13:19:13.012Z</time></trkpt><trkpt lat="43.7231483" lon="12.184415"><ele>635.0</ele><time>2026-04-12T13:19:14.012Z</time></trkpt><trkpt lat="43.7231633" lon="12.1842733"><ele>636.0</ele><time>2026-04-12T13:19:15.015Z</time></trkpt><trkpt lat="43.723185" lon="12.184115"><ele>637.0</ele><time>2026-04-12T13:19:16.012Z</time></trkpt><trkpt lat="43.7232267" lon="12.183925"><ele>638.5</ele><time>2026-04-12T13:19:17.014Z</time></trkpt><trkpt lat="43.7232217" lon="12.18374"><ele>640.0</ele><time>2026-04-12T13:19:18.01Z</time></trkpt><trkpt lat="43.7232017" lon="12.183565"><ele>641.5</ele><time>2026-04-12T13:19:19.013Z</time></trkpt><trkpt lat="43.7231483" lon="12.183415"><ele>643.0</ele><time>2026-04-12T13:19:20.014Z</time></trkpt><trkpt lat="43.7231017" lon="12.1832817"><ele>643.0</ele><time>2026-04-12T13:19:21.013Z</time></trkpt><trkpt lat="43.72306" lon="12.1831833"><ele>643.0</ele><time>2026-04-12T13:19:22.013Z</time></trkpt><trkpt lat="43.7230033" lon="12.1831067"><ele>643.0</ele><time>2026-04-12T13:19:23.013Z</time></trkpt><trkpt lat="43.7229433" lon="12.183045"><ele>643.0</ele><time>2026-04-12T13:19:24.013Z</time></trkpt><trkpt lat="43.7228583" lon="12.1830217"><ele>643.0</ele><time>2026-04-12T13:19:25.014Z</time></trkpt><trkpt lat="43.7227633" lon="12.18308"><ele>643.0</ele><time>2026-04-12T13:19:26.014Z</time></trkpt><trkpt lat="43.7226867" lon="12.1831667"><ele>645.5</ele><time>2026-04-12T13:19:27.012Z</time></trkpt><trkpt lat="43.722625" lon="12.1832867"><ele>648.0</ele><time>2026-04-12T13:19:28.013Z</time></trkpt><trkpt lat="43.7225717" lon="12.1834217"><ele>650.5</ele><time>2026-04-12T13:19:29.014Z</time></trkpt><trkpt lat="43.7225783" lon="12.1836083"><ele>653.0</ele><time>2026-04-12T13:19:30.012Z</time></trkpt><trkpt lat="43.7225983" lon="12.183805"><ele>653.0</ele><time>2026-04-12T13:19:31.011Z</time></trkpt><trkpt lat="43.7226217" lon="12.18401"><ele>653.0</ele><time>2026-04-12T13:19:32.011Z</time></trkpt><trkpt lat="43.7226367" lon="12.1842233"><ele>653.0</ele><time>2026-04-12T13:19:33.012Z</time></trkpt><trkpt lat="43.7226683" lon="12.1844467"><ele>655.6666666666666</ele><time>2026-04-12T13:19:34.01Z</time></trkpt><trkpt lat="43.7226933" lon="12.184675"><ele>658.3333333333334</ele><time>2026-04-12T13:19:35.012Z</time></trkpt><trkpt lat="43.7227233" lon="12.1848933"><ele>661.0</ele><time>2026-04-12T13:19:36.013Z</time></trkpt><trkpt lat="43.7227583" lon="12.1850917"><ele>658.4</ele><time>2026-04-12T13:19:37.013Z</time></trkpt><trkpt lat="43.722785" lon="12.1852717"><ele>655.8</ele><time>2026-04-12T13:19:38.013Z</time></trkpt><trkpt lat="43.7228067" lon="12.1854283"><ele>653.1999999999999</ele><time>2026-04-12T13:19:39.014Z</time></trkpt><trkpt lat="43.7227967" lon="12.1855667"><ele>650.5999999999999</ele><time>2026-04-12T13:19:40.012Z</time></trkpt><trkpt lat="43.7227583" lon="12.1856783"><ele>648.0</ele><time>2026-04-12T13:19:41.013Z</time></trkpt><trkpt lat="43.7227067" lon="12.1857717"><ele>648.0</ele><time>2026-04-12T13:19:42.014Z</time></trkpt><trkpt lat="43.7226483" lon="12.1858417"><ele>648.0</ele><time>2026-04-12T13:19:43.012Z</time></trkpt><trkpt lat="43.7225433" lon="12.185875"><ele>648.0</ele><time>2026-04-12T13:19:44.011Z</time></trkpt><trkpt lat="43.722405" lon="12.1858333"><ele>648.0</ele><time>2026-04-12T13:19:45.013Z</time></trkpt><trkpt lat="43.7222233" lon="12.185625"><ele>653.0</ele><time>2026-04-12T13:19:46.014Z</time></trkpt><trkpt lat="43.722085" lon="12.1854833"><ele>658.0</ele><time>2026-04-12T13:19:47.016Z</time></trkpt><trkpt lat="43.7219417" lon="12.1853433"><ele>663.0</ele><time>2026-04-12T13:19:48.013Z</time></trkpt><trkpt lat="43.721795" lon="12.1852067"><ele>663.0</ele><time>2026-04-12T13:19:49.012Z</time></trkpt><trkpt lat="43.7216483" lon="12.18508"><ele>663.0</ele><time>2026-04-12T13:19:50.013Z</time></trkpt><trkpt lat="43.7214933" lon="12.1849817"><ele>663.0</ele><time>2026-04-12T13:19:51.011Z</time></trkpt><trkpt lat="43.7213433" lon="12.184915"><ele>663.0</ele><time>2026-04-12T13:19:52.011Z</time></trkpt><trkpt lat="43.7212" lon="12.1848733"><ele>663.0</ele><time>2026-04-12T13:19:53.01Z</time></trkpt><trkpt lat="43.7210717" lon="12.1848217"><ele>663.0</ele><time>2026-04-12T13:19:54.011Z</time></trkpt><trkpt lat="43.72097" lon="12.1847417"><ele>663.0</ele><time>2026-04-12T13:19:55.011Z</time></trkpt><trkpt lat="43.7208983" lon="12.1846267"><ele>663.25</ele><time>2026-04-12T13:19:56.011Z</time></trkpt><trkpt lat="43.720825" lon="12.1844933"><ele>663.5</ele><time>2026-04-12T13:19:57.01Z</time></trkpt><trkpt lat="43.7207383" lon="12.18434"><ele>663.75</ele><time>2026-04-12T13:19:58.011Z</time></trkpt><trkpt lat="43.72063" lon="12.1841883"><ele>664.0</ele><time>2026-04-12T13:19:59.011Z</time></trkpt><trkpt lat="43.7205017" lon="12.1840783"><ele>670.0</ele><time>2026-04-12T13:20:00.012Z</time></trkpt><trkpt lat="43.720365" lon="12.184005"><ele>676.0</ele><time>2026-04-12T13:20:01.01Z</time></trkpt><trkpt lat="43.72021" lon="12.1839967"><ele>682.0</ele><time>2026-04-12T13:20:02.011Z</time></trkpt><trkpt lat="43.7200417" lon="12.1840133"><ele>673.0</ele><time>2026-04-12T13:20:03.011Z</time></trkpt><trkpt lat="43.7198733" lon="12.1840317"><ele>664.0</ele><time>2026-04-12T13:20:04.011Z</time></trkpt><trkpt lat="43.7197117" lon="12.18407"><ele>655.0</ele><time>2026-04-12T13:20:05.01Z</time></trkpt><trkpt lat="43.7195633" lon="12.1841117"><ele>655.0</ele><time>2026-04-12T13:20:06.01Z</time></trkpt><trkpt lat="43.7194217" lon="12.1841733"><ele>655.0</ele><time>2026-04-12T13:20:07.014Z</time></trkpt><trkpt lat="43.7192833" lon="12.1842183"><ele>655.0</ele><time>2026-04-12T13:20:08.011Z</time></trkpt><trkpt lat="43.7191483" lon="12.18423"><ele>655.0</ele><time>2026-04-12T13:20:09.013Z</time></trkpt><trkpt lat="43.719015" lon="12.1841933"><ele>654.3333333333334</ele><time>2026-04-12T13:20:10.011Z</time></trkpt><trkpt lat="43.718875" lon="12.18412"><ele>653.6666666666666</ele><time>2026-04-12T13:20:11.01Z</time></trkpt><trkpt lat="43.7187267" lon="12.1840317"><ele>653.0</ele><time>2026-04-12T13:20:12.013Z</time></trkpt><trkpt lat="43.7185683" lon="12.1839583"><ele>659.6666666666666</ele><time>2026-04-12T13:20:13.013Z</time></trkpt><trkpt lat="43.7183967" lon="12.1839033"><ele>666.3333333333334</ele><time>2026-04-12T13:20:14.01Z</time></trkpt><trkpt lat="43.7182233" lon="12.1838533"><ele>673.0</ele><time>2026-04-12T13:20:15.011Z</time></trkpt><trkpt lat="43.7180367" lon="12.1837917"><ele>673.0</ele><time>2026-04-12T13:20:16.011Z</time></trkpt><trkpt lat="43.7178517" lon="12.1837217"><ele>673.0</ele><time>2026-04-12T13:20:17.01Z</time></trkpt><trkpt lat="43.7176817" lon="12.1836517"><ele>673.0</ele><time>2026-04-12T13:20:18.013Z</time></trkpt><trkpt lat="43.717525" lon="12.1835933"><ele>670.75</ele><time>2026-04-12T13:20:19.01Z</time></trkpt><trkpt lat="43.717375" lon="12.1835717"><ele>668.5</ele><time>2026-04-12T13:20:20.013Z</time></trkpt><trkpt lat="43.71723" lon="12.1836167"><ele>666.25</ele><time>2026-04-12T13:20:21.013Z</time></trkpt><trkpt lat="43.717095" lon="12.1837017"><ele>664.0</ele><time>2026-04-12T13:20:22.012Z</time></trkpt><trkpt lat="43.7169633" lon="12.1837983"><ele>664.0</ele><time>2026-04-12T13:20:23.012Z</time></trkpt><trkpt lat="43.7168217" lon="12.1838683"><ele>664.0</ele><time>2026-04-12T13:20:24.011Z</time></trkpt><trkpt lat="43.7166667" lon="12.1839083"><ele>664.0</ele><time>2026-04-12T13:20:25.012Z</time></trkpt><trkpt lat="43.7165083" lon="12.18393"><ele>664.0</ele><time>2026-04-12T13:20:26.012Z</time></trkpt><trkpt lat="43.7163417" lon="12.18395"><ele>664.0</ele><time>2026-04-12T13:20:27.012Z</time></trkpt><trkpt lat="43.71617" lon="12.1839683"><ele>664.0</ele><time>2026-04-12T13:20:28.011Z</time></trkpt><trkpt lat="43.715995" lon="12.1839917"><ele>663.3333333333334</ele><time>2026-04-12T13:20:29.01Z</time></trkpt><trkpt lat="43.7158167" lon="12.1840033"><ele>662.6666666666666</ele><time>2026-04-12T13:20:30.013Z</time></trkpt><trkpt lat="43.7156383" lon="12.18402"><ele>662.0</ele><time>2026-04-12T13:20:31.01Z</time></trkpt><trkpt lat="43.7154633" lon="12.1840417"><ele>662.0</ele><time>2026-04-12T13:20:32.01Z</time></trkpt><trkpt lat="43.7152883" lon="12.18407"><ele>662.0</ele><time>2026-04-12T13:20:33.012Z</time></trkpt><trkpt lat="43.7151167" lon="12.1841033"><ele>662.0</ele><time>2026-04-12T13:20:34.012Z</time></trkpt><trkpt lat="43.7149483" lon="12.1841517"><ele>665.0</ele><time>2026-04-12T13:20:35.012Z</time></trkpt><trkpt lat="43.714785" lon="12.1841983"><ele>668.0</ele><time>2026-04-12T13:20:36.011Z</time></trkpt><trkpt lat="43.71463" lon="12.1842283"><ele>671.0</ele><time>2026-04-12T13:20:37.013Z</time></trkpt><trkpt lat="43.71448" lon="12.1842283"><ele>673.0</ele><time>2026-04-12T13:20:38.012Z</time></trkpt><trkpt lat="43.71432" lon="12.18419"><ele>675.0</ele><time>2026-04-12T13:20:39.013Z</time></trkpt><trkpt lat="43.7141567" lon="12.1841183"><ele>677.0</ele><time>2026-04-12T13:20:40.011Z</time></trkpt><trkpt lat="43.714" lon="12.1840317"><ele>681.0</ele><time>2026-04-12T13:20:41.011Z</time></trkpt><trkpt lat="43.7138467" lon="12.1839467"><ele>685.0</ele><time>2026-04-12T13:20:42.011Z</time></trkpt><trkpt lat="43.7137" lon="12.1838667"><ele>689.0</ele><time>2026-04-12T13:20:43.011Z</time></trkpt><trkpt lat="43.713565" lon="12.1837867"><ele>689.0</ele><time>2026-04-12T13:20:44.012Z</time></trkpt><trkpt lat="43.7134367" lon="12.183715"><ele>689.0</ele><time>2026-04-12T13:20:45.012Z</time></trkpt><trkpt lat="43.713315" lon="12.1836567"><ele>689.0</ele><time>2026-04-12T13:20:46.01Z</time></trkpt><trkpt lat="43.7131983" lon="12.1836167"><ele>689.0</ele><time>2026-04-12T13:20:47.012Z</time></trkpt><trkpt lat="43.7130833" lon="12.18357"><ele>689.0</ele><time>2026-04-12T13:20:48.011Z</time></trkpt><trkpt lat="43.712975" lon="12.1835033"><ele>689.0</ele><time>2026-04-12T13:20:49.011Z</time></trkpt><trkpt lat="43.71289" lon="12.1834067"><ele>689.0</ele><time>2026-04-12T13:20:50.012Z</time></trkpt><trkpt lat="43.7128017" lon="12.1832983"><ele>689.0</ele><time>2026-04-12T13:20:51.01Z</time></trkpt><trkpt lat="43.7127117" lon="12.1831917"><ele>689.0</ele><time>2026-04-12T13:20:52.012Z</time></trkpt><trkpt lat="43.71262" lon="12.1830867"><ele>689.0</ele><time>2026-04-12T13:20:53.013Z</time></trkpt><trkpt lat="43.7125317" lon="12.1829817"><ele>689.0</ele><time>2026-04-12T13:20:54.012Z</time></trkpt><trkpt lat="43.7124383" lon="12.182875"><ele>689.0</ele><time>2026-04-12T13:20:55.012Z</time></trkpt><trkpt lat="43.7123533" lon="12.18277"><ele>689.0</ele><time>2026-04-12T13:20:56.013Z</time></trkpt><trkpt lat="43.712265" lon="12.1826633"><ele>689.0</ele><time>2026-04-12T13:20:57.011Z</time></trkpt><trkpt lat="43.712175" lon="12.1825583"><ele>689.0</ele><time>2026-04-12T13:20:58.012Z</time></trkpt><trkpt lat="43.7120833" lon="12.18245"><ele>689.0</ele><time>2026-04-12T13:20:59.011Z</time></trkpt><trkpt lat="43.7119883" lon="12.1823417"><ele>690.75</ele><time>2026-04-12T13:21:00.012Z</time></trkpt><trkpt lat="43.71189" lon="12.1822317"><ele>692.5</ele><time>2026-04-12T13:21:01.012Z</time></trkpt><trkpt lat="43.7117967" lon="12.1821233"><ele>694.25</ele><time>2026-04-12T13:21:02.012Z</time></trkpt><trkpt lat="43.7116967" lon="12.1820267"><ele>696.0</ele><time>2026-04-12T13:21:03.013Z</time></trkpt><trkpt lat="43.7115883" lon="12.1819483"><ele>696.0</ele><time>2026-04-12T13:21:04.012Z</time></trkpt><trkpt lat="43.7114683" lon="12.1819033"><ele>696.0</ele><time>2026-04-12T13:21:05.011Z</time></trkpt><trkpt lat="43.71134" lon="12.1818967"><ele>696.0</ele><time>2026-04-12T13:21:06.012Z</time></trkpt><trkpt lat="43.71121" lon="12.181925"><ele>696.0</ele><time>2026-04-12T13:21:07.012Z</time></trkpt><trkpt lat="43.7110833" lon="12.1819833"><ele>696.5</ele><time>2026-04-12T13:21:08.013Z</time></trkpt><trkpt lat="43.7109683" lon="12.1820683"><ele>697.0</ele><time>2026-04-12T13:21:09.014Z</time></trkpt><trkpt lat="43.710865" lon="12.1821667"><ele>697.5</ele><time>2026-04-12T13:21:10.014Z</time></trkpt><trkpt lat="43.7107767" lon="12.1822617"><ele>698.0</ele><time>2026-04-12T13:21:11.011Z</time></trkpt><trkpt lat="43.7106967" lon="12.1823583"><ele>698.0</ele><time>2026-04-12T13:21:12.011Z</time></trkpt><trkpt lat="43.71062" lon="12.1824617"><ele>698.0</ele><time>2026-04-12T13:21:13.012Z</time></trkpt><trkpt lat="43.7105483" lon="12.1825683"><ele>698.0</ele><time>2026-04-12T13:21:14.011Z</time></trkpt><trkpt lat="43.7104817" lon="12.1826767"><ele>698.0</ele><time>2026-04-12T13:21:15.016Z</time></trkpt><trkpt lat="43.7104133" lon="12.18278"><ele>698.0</ele><time>2026-04-12T13:21:16.013Z</time></trkpt><trkpt lat="43.71034" lon="12.1828633"><ele>698.0</ele><time>2026-04-12T13:21:17.012Z</time></trkpt><trkpt lat="43.71026" lon="12.1829233"><ele>698.0</ele><time>2026-04-12T13:21:18.014Z</time></trkpt><trkpt lat="43.710175" lon="12.1829633"><ele>698.0</ele><time>2026-04-12T13:21:19.011Z</time></trkpt><trkpt lat="43.710085" lon="12.1829917"><ele>698.0</ele><time>2026-04-12T13:21:20.014Z</time></trkpt><trkpt lat="43.71" lon="12.1830117"><ele>698.0</ele><time>2026-04-12T13:21:21.012Z</time></trkpt><trkpt lat="43.709915" lon="12.183035"><ele>698.0</ele><time>2026-04-12T13:21:22.011Z</time></trkpt><trkpt lat="43.70983" lon="12.18307"><ele>699.0</ele><time>2026-04-12T13:21:23.011Z</time></trkpt><trkpt lat="43.7097483" lon="12.1831133"><ele>700.0</ele><time>2026-04-12T13:21:24.011Z</time></trkpt><trkpt lat="43.7096733" lon="12.183145"><ele>701.0</ele><time>2026-04-12T13:21:25.012Z</time></trkpt><trkpt lat="43.7096104" lon="12.1831633"><ele>702.0</ele><time>2026-04-12T13:21:26.011Z</time></trkpt><trkpt lat="43.7095479" lon="12.1831511"><ele>703.0</ele><time>2026-04-12T13:21:30.012Z</time></trkpt><trkpt lat="43.70957" lon="12.18306"><ele>704.0</ele><time>2026-04-12T13:23:10.011Z</time></trkpt><trkpt lat="43.7096033" lon="12.1829433"><ele>704.0</ele><time>2026-04-12T13:23:12.012Z</time></trkpt><trkpt lat="43.7096533" lon="12.1828583"><ele>704.0</ele><time>2026-04-12T13:23:13.012Z</time></trkpt><trkpt lat="43.7097133" lon="12.1827517"><ele>704.0</ele><time>2026-04-12T13:23:14.011Z</time></trkpt><trkpt lat="43.70977" lon="12.182635"><ele>704.0</ele><time>2026-04-12T13:23:15.013Z</time></trkpt><trkpt lat="43.7098117" lon="12.1825183"><ele>704.0</ele><time>2026-04-12T13:23:16.012Z</time></trkpt><trkpt lat="43.7098317" lon="12.182395"><ele>704.8000000000001</ele><time>2026-04-12T13:23:17.011Z</time></trkpt><trkpt lat="43.7098533" lon="12.1822667"><ele>705.6</ele><time>2026-04-12T13:23:18.012Z</time></trkpt><trkpt lat="43.7098733" lon="12.182135"><ele>706.4</ele><time>2026-04-12T13:23:19.012Z</time></trkpt><trkpt lat="43.7098817" lon="12.1820033"><ele>707.2</ele><time>2026-04-12T13:23:20.013Z</time></trkpt><trkpt lat="43.7098867" lon="12.1818767"><ele>708.0</ele><time>2026-04-12T13:23:21.012Z</time></trkpt><trkpt lat="43.7098933" lon="12.18176"><ele>708.0</ele><time>2026-04-12T13:23:22.013Z</time></trkpt><trkpt lat="43.7098983" lon="12.181655"><ele>708.0</ele><time>2026-04-12T13:23:23.012Z</time></trkpt><trkpt lat="43.7098983" lon="12.1815617"><ele>708.0</ele><time>2026-04-12T13:23:24.012Z</time></trkpt><trkpt lat="43.7099" lon="12.1814117"><ele>708.0</ele><time>2026-04-12T13:23:26.011Z</time></trkpt><trkpt lat="43.709925" lon="12.1812967"><ele>708.0</ele><time>2026-04-12T13:23:28.011Z</time></trkpt><trkpt lat="43.7099333" lon="12.1812083"><ele>708.0</ele><time>2026-04-12T13:23:30.01Z</time></trkpt><trkpt lat="43.7098213" lon="12.181245"><ele>708.0</ele><time>2026-04-12T13:23:46.078Z</time></trkpt><trkpt lat="43.7097376" lon="12.1814456"><ele>708.0</ele><time>2026-04-12T13:23:48.015Z</time></trkpt><trkpt lat="43.7096819" lon="12.1816036"><ele>708.0</ele><time>2026-04-12T13:23:49.011Z</time></trkpt><trkpt lat="43.7096335" lon="12.1817451"><ele>708.0</ele><time>2026-04-12T13:23:50.012Z</time></trkpt><trkpt lat="43.709587" lon="12.1818826"><ele>708.0</ele><time>2026-04-12T13:23:51.013Z</time></trkpt><trkpt lat="43.7095447" lon="12.1820224"><ele>708.0</ele><time>2026-04-12T13:23:52.013Z</time></trkpt><trkpt lat="43.7095017" lon="12.1821619"><ele>708.0</ele><time>2026-04-12T13:23:53.014Z</time></trkpt><trkpt lat="43.7094565" lon="12.1822981"><ele>708.0</ele><time>2026-04-12T13:23:54.012Z</time></trkpt><trkpt lat="43.709409" lon="12.1824252"><ele>708.0</ele><time>2026-04-12T13:23:55.012Z</time></trkpt><trkpt lat="43.7093614" lon="12.1825479"><ele>705.8</ele><time>2026-04-12T13:23:56.012Z</time></trkpt><trkpt lat="43.7093105" lon="12.1826697"><ele>703.5999999999999</ele><time>2026-04-12T13:23:57.012Z</time></trkpt><trkpt lat="43.7092573" lon="12.1827969"><ele>701.4000000000001</ele><time>2026-04-12T13:23:58.013Z</time></trkpt><trkpt lat="43.7092004" lon="12.1829293"><ele>699.2</ele><time>2026-04-12T13:23:59.013Z</time></trkpt><trkpt lat="43.7091358" lon="12.183059"><ele>697.0</ele><time>2026-04-12T13:24:00.012Z</time></trkpt><trkpt lat="43.7090699" lon="12.1831876"><ele>697.0</ele><time>2026-04-12T13:24:01.014Z</time></trkpt><trkpt lat="43.7090059" lon="12.1833127"><ele>697.0</ele><time>2026-04-12T13:24:02.014Z</time></trkpt><trkpt lat="43.7089452" lon="12.183433"><ele>697.0</ele><time>2026-04-12T13:24:03.015Z</time></trkpt><trkpt lat="43.708888" lon="12.1835483"><ele>697.0</ele><time>2026-04-12T13:24:04.011Z</time></trkpt><trkpt lat="43.7088298" lon="12.1836628"><ele>697.0</ele><time>2026-04-12T13:24:05.013Z</time></trkpt><trkpt lat="43.7087686" lon="12.1837715"><ele>697.0</ele><time>2026-04-12T13:24:06.014Z</time></trkpt><trkpt lat="43.7087067" lon="12.1838733"><ele>697.0</ele><time>2026-04-12T13:24:07.011Z</time></trkpt><trkpt lat="43.7086422" lon="12.1839648"><ele>697.0</ele><time>2026-04-12T13:24:08.016Z</time></trkpt><trkpt lat="43.708576" lon="12.1840439"><ele>697.0</ele><time>2026-04-12T13:24:09.013Z</time></trkpt><trkpt lat="43.7085045" lon="12.1841119"><ele>697.0</ele><time>2026-04-12T13:24:10.014Z</time></trkpt><trkpt lat="43.7084257" lon="12.184169"><ele>696.1666666666667</ele><time>2026-04-12T13:24:11.013Z</time></trkpt><trkpt lat="43.708343" lon="12.1842186"><ele>695.3333333333334</ele><time>2026-04-12T13:24:12.012Z</time></trkpt><trkpt lat="43.7082672" lon="12.1842584"><ele>694.5</ele><time>2026-04-12T13:24:13.017Z</time></trkpt><trkpt lat="43.7081982" lon="12.1842823"><ele>693.6666666666666</ele><time>2026-04-12T13:24:14.011Z</time></trkpt><trkpt lat="43.7080973" lon="12.1843044"><ele>692.8333333333333</ele><time>2026-04-12T13:24:16.011Z</time></trkpt><trkpt lat="43.7080419" lon="12.1843633"><ele>692.0</ele><time>2026-04-12T13:24:18.011Z</time></trkpt><trkpt lat="43.7079954" lon="12.1844804"><ele>692.0</ele><time>2026-04-12T13:24:20.013Z</time></trkpt><trkpt lat="43.7079557" lon="12.184644"><ele>692.0</ele><time>2026-04-12T13:24:22.012Z</time></trkpt><trkpt lat="43.7079524" lon="12.1847998"><ele>692.0</ele><time>2026-04-12T13:24:24.012Z</time></trkpt><trkpt lat="43.7079583" lon="12.1848931"><ele>692.0</ele><time>2026-04-12T13:24:27.014Z</time></trkpt><trkpt lat="43.7080116" lon="12.1849584"><ele>692.0</ele><time>2026-04-12T13:24:30.011Z</time></trkpt><trkpt lat="43.7080907" lon="12.1849421"><ele>692.0</ele><time>2026-04-12T13:24:33.012Z</time></trkpt><trkpt lat="43.7081442" lon="12.1848581"><ele>692.0</ele><time>2026-04-12T13:25:29.012Z</time></trkpt><trkpt lat="43.7081516" lon="12.1847715"><ele>692.0</ele><time>2026-04-12T13:25:30.012Z</time></trkpt><trkpt lat="43.7081501" lon="12.1846683"><ele>692.0</ele><time>2026-04-12T13:25:31.012Z</time></trkpt><trkpt lat="43.7081436" lon="12.1845717"><ele>692.0</ele><time>2026-04-12T13:25:32.011Z</time></trkpt><trkpt lat="43.7081128" lon="12.1844236"><ele>692.0</ele><time>2026-04-12T13:25:34.011Z</time></trkpt><trkpt lat="43.7080205" lon="12.1843262"><ele>692.0</ele><time>2026-04-12T13:25:36.012Z</time></trkpt><trkpt lat="43.7079542" lon="12.1842879"><ele>692.0</ele><time>2026-04-12T13:25:37.011Z</time></trkpt><trkpt lat="43.7078617" lon="12.184255"><ele>692.0</ele><time>2026-04-12T13:25:38.016Z</time></trkpt><trkpt lat="43.7077517" lon="12.1842333"><ele>692.0</ele><time>2026-04-12T13:25:39.014Z</time></trkpt><trkpt lat="43.7076333" lon="12.1842133"><ele>692.0</ele><time>2026-04-12T13:25:40.011Z</time></trkpt><trkpt lat="43.70752" lon="12.184195"><ele>691.8333333333333</ele><time>2026-04-12T13:25:41.014Z</time></trkpt><trkpt lat="43.707415" lon="12.1841867"><ele>691.6666666666666</ele><time>2026-04-12T13:25:42.012Z</time></trkpt><trkpt lat="43.7073317" lon="12.1841767"><ele>691.5</ele><time>2026-04-12T13:25:43.016Z</time></trkpt><trkpt lat="43.7072633" lon="12.1841633"><ele>691.3333333333334</ele><time>2026-04-12T13:25:44.013Z</time></trkpt><trkpt lat="43.7071983" lon="12.18415"><ele>691.1666666666667</ele><time>2026-04-12T13:25:45.014Z</time></trkpt><trkpt lat="43.7070733" lon="12.18415"><ele>691.0</ele><time>2026-04-12T13:25:47.012Z</time></trkpt><trkpt lat="43.70701" lon="12.1841633"><ele>691.0</ele><time>2026-04-12T13:25:48.014Z</time></trkpt><trkpt lat="43.7069433" lon="12.1841867"><ele>691.0</ele><time>2026-04-12T13:25:49.011Z</time></trkpt><trkpt lat="43.7068683" lon="12.1842233"><ele>691.0</ele><time>2026-04-12T13:25:50.013Z</time></trkpt><trkpt lat="43.7067867" lon="12.1842767"><ele>691.0</ele><time>2026-04-12T13:25:51.012Z</time></trkpt><trkpt lat="43.7067033" lon="12.18435"><ele>691.0</ele><time>2026-04-12T13:25:52.014Z</time></trkpt><trkpt lat="43.7066167" lon="12.1844433"><ele>691.0</ele><time>2026-04-12T13:25:53.015Z</time></trkpt><trkpt lat="43.7065317" lon="12.1845483"><ele>691.4</ele><time>2026-04-12T13:25:54.013Z</time></trkpt><trkpt lat="43.7064483" lon="12.1846583"><ele>691.8</ele><time>2026-04-12T13:25:55.013Z</time></trkpt><trkpt lat="43.7063717" lon="12.184765"><ele>692.1999999999999</ele><time>2026-04-12T13:25:56.012Z</time></trkpt><trkpt lat="43.7063033" lon="12.1848667"><ele>692.5999999999999</ele><time>2026-04-12T13:25:57.013Z</time></trkpt><trkpt lat="43.70624" lon="12.1849617"><ele>693.0</ele><time>2026-04-12T13:25:58.014Z</time></trkpt><trkpt lat="43.7061717" lon="12.1850533"><ele>692.8</ele><time>2026-04-12T13:25:59.012Z</time></trkpt><trkpt lat="43.7061017" lon="12.1851567"><ele>692.5999999999999</ele><time>2026-04-12T13:26:00.012Z</time></trkpt><trkpt lat="43.7060283" lon="12.1852617"><ele>692.4000000000001</ele><time>2026-04-12T13:26:01.012Z</time></trkpt><trkpt lat="43.705955" lon="12.1853683"><ele>692.2</ele><time>2026-04-12T13:26:02.012Z</time></trkpt><trkpt lat="43.7058733" lon="12.1854767"><ele>692.0</ele><time>2026-04-12T13:26:03.011Z</time></trkpt><trkpt lat="43.7057933" lon="12.1855867"><ele>693.75</ele><time>2026-04-12T13:26:04.012Z</time></trkpt><trkpt lat="43.70571" lon="12.1857"><ele>695.5</ele><time>2026-04-12T13:26:05.017Z</time></trkpt><trkpt lat="43.7056267" lon="12.1858233"><ele>697.25</ele><time>2026-04-12T13:26:06.011Z</time></trkpt><trkpt lat="43.7055383" lon="12.1859483"><ele>699.0</ele><time>2026-04-12T13:26:07.011Z</time></trkpt><trkpt lat="43.7054433" lon="12.18607"><ele>699.0</ele><time>2026-04-12T13:26:08.012Z</time></trkpt><trkpt lat="43.7053483" lon="12.186195"><ele>699.0</ele><time>2026-04-12T13:26:09.014Z</time></trkpt><trkpt lat="43.7052483" lon="12.1863267"><ele>699.0</ele><time>2026-04-12T13:26:10.014Z</time></trkpt><trkpt lat="43.7051467" lon="12.1864567"><ele>699.0</ele><time>2026-04-12T13:26:11.012Z</time></trkpt><trkpt lat="43.70504" lon="12.1865767"><ele>697.25</ele><time>2026-04-12T13:26:12.014Z</time></trkpt><trkpt lat="43.7049296" lon="12.1866901"><ele>695.5</ele><time>2026-04-12T13:26:13.013Z</time></trkpt><trkpt lat="43.7048306" lon="12.1867925"><ele>693.75</ele><time>2026-04-12T13:26:14.013Z</time></trkpt><trkpt lat="43.7047411" lon="12.1868832"><ele>692.0</ele><time>2026-04-12T13:26:15.011Z</time></trkpt><trkpt lat="43.7046552" lon="12.1869686"><ele>692.0</ele><time>2026-04-12T13:26:16.013Z</time></trkpt><trkpt lat="43.7045741" lon="12.187048"><ele>692.0</ele><time>2026-04-12T13:26:17.012Z</time></trkpt><trkpt lat="43.7044961" lon="12.1871213"><ele>692.0</ele><time>2026-04-12T13:26:18.013Z</time></trkpt><trkpt lat="43.7044238" lon="12.1871919"><ele>692.0</ele><time>2026-04-12T13:26:19.011Z</time></trkpt><trkpt lat="43.7043554" lon="12.1872539"><ele>692.0</ele><time>2026-04-12T13:26:20.012Z</time></trkpt><trkpt lat="43.704291" lon="12.1873026"><ele>692.0</ele><time>2026-04-12T13:26:21.012Z</time></trkpt><trkpt lat="43.7042243" lon="12.1873142"><ele>692.0</ele><time>2026-04-12T13:26:22.013Z</time></trkpt><trkpt lat="43.7041269" lon="12.1872588"><ele>692.0</ele><time>2026-04-12T13:26:24.012Z</time></trkpt><trkpt lat="43.7040598" lon="12.1872207"><ele>692.0</ele><time>2026-04-12T13:26:27.012Z</time></trkpt><trkpt lat="43.7040333" lon="12.187365"><ele>692.0</ele><time>2026-04-12T13:29:14.014Z</time></trkpt><trkpt lat="43.704015" lon="12.187525"><ele>692.0</ele><time>2026-04-12T13:29:16.012Z</time></trkpt><trkpt lat="43.7039983" lon="12.1876117"><ele>692.0</ele><time>2026-04-12T13:29:17.015Z</time></trkpt><trkpt lat="43.7039683" lon="12.1877017"><ele>692.0</ele><time>2026-04-12T13:29:18.014Z</time></trkpt><trkpt lat="43.703925" lon="12.1877817"><ele>692.0</ele><time>2026-04-12T13:29:19.018Z</time></trkpt><trkpt lat="43.7038683" lon="12.1878717"><ele>692.0</ele><time>2026-04-12T13:29:20.011Z</time></trkpt><trkpt lat="43.7037917" lon="12.187975"><ele>692.0</ele><time>2026-04-12T13:29:21.014Z</time></trkpt><trkpt lat="43.7036617" lon="12.188095"><ele>691.0</ele><time>2026-04-12T13:29:22.011Z</time></trkpt><trkpt lat="43.70349" lon="12.18823"><ele>690.0</ele><time>2026-04-12T13:29:23.013Z</time></trkpt><trkpt lat="43.7033533" lon="12.1883567"><ele>689.0</ele><time>2026-04-12T13:29:24.012Z</time></trkpt><trkpt lat="43.7032333" lon="12.1884767"><ele>689.0</ele><time>2026-04-12T13:29:25.016Z</time></trkpt><trkpt lat="43.7031183" lon="12.1886067"><ele>689.0</ele><time>2026-04-12T13:29:26.011Z</time></trkpt><trkpt lat="43.7030083" lon="12.1887383"><ele>689.0</ele><time>2026-04-12T13:29:27.011Z</time></trkpt><trkpt lat="43.7029233" lon="12.1889033"><ele>689.0</ele><time>2026-04-12T13:29:28.014Z</time></trkpt><trkpt lat="43.7028683" lon="12.189085"><ele>688.25</ele><time>2026-04-12T13:29:29.012Z</time></trkpt><trkpt lat="43.7028483" lon="12.18928"><ele>687.5</ele><time>2026-04-12T13:29:30.013Z</time></trkpt><trkpt lat="43.7028467" lon="12.1894817"><ele>686.75</ele><time>2026-04-12T13:29:31.012Z</time></trkpt><trkpt lat="43.70286" lon="12.18967"><ele>686.0</ele><time>2026-04-12T13:29:32.015Z</time></trkpt><trkpt lat="43.7029083" lon="12.18985"><ele>686.0</ele><time>2026-04-12T13:29:33.014Z</time></trkpt><trkpt lat="43.702985" lon="12.1900117"><ele>686.0</ele><time>2026-04-12T13:29:34.011Z</time></trkpt><trkpt lat="43.7030717" lon="12.190155"><ele>686.0</ele><time>2026-04-12T13:29:35.015Z</time></trkpt><trkpt lat="43.7031733" lon="12.19028"><ele>686.0</ele><time>2026-04-12T13:29:36.013Z</time></trkpt><trkpt lat="43.7032833" lon="12.1903783"><ele>686.0</ele><time>2026-04-12T13:29:37.012Z</time></trkpt><trkpt lat="43.7034033" lon="12.1904533"><ele>686.0</ele><time>2026-04-12T13:29:38.013Z</time></trkpt><trkpt lat="43.70352" lon="12.1905183"><ele>686.0</ele><time>2026-04-12T13:29:39.012Z</time></trkpt><trkpt lat="43.70364" lon="12.1905783"><ele>686.0</ele><time>2026-04-12T13:29:40.011Z</time></trkpt><trkpt lat="43.7037583" lon="12.1906433"><ele>683.25</ele><time>2026-04-12T13:29:41.013Z</time></trkpt><trkpt lat="43.7038733" lon="12.1907167"><ele>680.5</ele><time>2026-04-12T13:29:42.012Z</time></trkpt><trkpt lat="43.7039883" lon="12.1907717"><ele>677.75</ele><time>2026-04-12T13:29:43.013Z</time></trkpt><trkpt lat="43.704085" lon="12.1908317"><ele>675.0</ele><time>2026-04-12T13:29:44.011Z</time></trkpt><trkpt lat="43.7041833" lon="12.1908867"><ele>675.0</ele><time>2026-04-12T13:29:45.012Z</time></trkpt><trkpt lat="43.704285" lon="12.1909267"><ele>675.0</ele><time>2026-04-12T13:29:46.012Z</time></trkpt><trkpt lat="43.7043917" lon="12.1909633"><ele>675.0</ele><time>2026-04-12T13:29:47.014Z</time></trkpt><trkpt lat="43.7045033" lon="12.1909983"><ele>675.0</ele><time>2026-04-12T13:29:48.012Z</time></trkpt><trkpt lat="43.7046183" lon="12.191015"><ele>675.0</ele><time>2026-04-12T13:29:49.014Z</time></trkpt><trkpt lat="43.7047367" lon="12.19102"><ele>675.25</ele><time>2026-04-12T13:29:50.013Z</time></trkpt><trkpt lat="43.7048583" lon="12.191005"><ele>675.5</ele><time>2026-04-12T13:29:51.013Z</time></trkpt><trkpt lat="43.7049867" lon="12.1909817"><ele>675.75</ele><time>2026-04-12T13:29:52.013Z</time></trkpt><trkpt lat="43.7051117" lon="12.19097"><ele>676.0</ele><time>2026-04-12T13:29:53.013Z</time></trkpt><trkpt lat="43.7052367" lon="12.190975"><ele>676.0</ele><time>2026-04-12T13:29:54.013Z</time></trkpt><trkpt lat="43.705355" lon="12.19097"><ele>676.0</ele><time>2026-04-12T13:29:55.011Z</time></trkpt><trkpt lat="43.70547" lon="12.19097"><ele>676.0</ele><time>2026-04-12T13:29:56.013Z</time></trkpt><trkpt lat="43.7055783" lon="12.19098"><ele>676.0</ele><time>2026-04-12T13:29:57.013Z</time></trkpt><trkpt lat="43.7056817" lon="12.19101"><ele>676.0</ele><time>2026-04-12T13:29:58.012Z</time></trkpt><trkpt lat="43.7057717" lon="12.191085"><ele>676.0</ele><time>2026-04-12T13:29:59.014Z</time></trkpt><trkpt lat="43.705845" lon="12.1911917"><ele>676.0</ele><time>2026-04-12T13:30:00.013Z</time></trkpt><trkpt lat="43.7059083" lon="12.1913067"><ele>676.0</ele><time>2026-04-12T13:30:01.013Z</time></trkpt><trkpt lat="43.7059417" lon="12.191435"><ele>676.0</ele><time>2026-04-12T13:30:02.011Z</time></trkpt><trkpt lat="43.7059317" lon="12.1915833"><ele>676.0</ele><time>2026-04-12T13:30:03.015Z</time></trkpt><trkpt lat="43.7058783" lon="12.1917217"><ele>673.0</ele><time>2026-04-12T13:30:04.012Z</time></trkpt><trkpt lat="43.7057867" lon="12.1918217"><ele>670.0</ele><time>2026-04-12T13:30:05.011Z</time></trkpt><trkpt lat="43.705685" lon="12.1918883"><ele>667.0</ele><time>2026-04-12T13:30:06.012Z</time></trkpt><trkpt lat="43.705585" lon="12.1919417"><ele>664.0</ele><time>2026-04-12T13:30:07.011Z</time></trkpt><trkpt lat="43.7054767" lon="12.19197"><ele>661.0</ele><time>2026-04-12T13:30:08.013Z</time></trkpt><trkpt lat="43.70537" lon="12.192"><ele>661.0</ele><time>2026-04-12T13:30:09.014Z</time></trkpt><trkpt lat="43.70527" lon="12.1920383"><ele>661.0</ele><time>2026-04-12T13:30:10.014Z</time></trkpt><trkpt lat="43.7051683" lon="12.192075"><ele>661.0</ele><time>2026-04-12T13:30:11.012Z</time></trkpt><trkpt lat="43.7050683" lon="12.1921167"><ele>661.0</ele><time>2026-04-12T13:30:12.013Z</time></trkpt><trkpt lat="43.7049683" lon="12.1921683"><ele>661.0</ele><time>2026-04-12T13:30:13.012Z</time></trkpt><trkpt lat="43.7048717" lon="12.1922033"><ele>661.8</ele><time>2026-04-12T13:30:14.013Z</time></trkpt><trkpt lat="43.70478" lon="12.1922283"><ele>662.5999999999999</ele><time>2026-04-12T13:30:15.013Z</time></trkpt><trkpt lat="43.704685" lon="12.1922567"><ele>663.4</ele><time>2026-04-12T13:30:16.012Z</time></trkpt><trkpt lat="43.7045967" lon="12.1923"><ele>664.2</ele><time>2026-04-12T13:30:17.019Z</time></trkpt><trkpt lat="43.70451" lon="12.1923467"><ele>665.0</ele><time>2026-04-12T13:30:18.015Z</time></trkpt><trkpt lat="43.7044317" lon="12.1924183"><ele>662.2</ele><time>2026-04-12T13:30:19.016Z</time></trkpt><trkpt lat="43.70436" lon="12.19251"><ele>659.4</ele><time>2026-04-12T13:30:20.013Z</time></trkpt><trkpt lat="43.7043067" lon="12.192625"><ele>656.5999999999999</ele><time>2026-04-12T13:30:21.014Z</time></trkpt><trkpt lat="43.7042633" lon="12.1927567"><ele>653.8</ele><time>2026-04-12T13:30:22.012Z</time></trkpt><trkpt lat="43.7042467" lon="12.1928917"><ele>651.0</ele><time>2026-04-12T13:30:23.012Z</time></trkpt><trkpt lat="43.70426" lon="12.1930267"><ele>651.0</ele><time>2026-04-12T13:30:24.013Z</time></trkpt><trkpt lat="43.704295" lon="12.1931483"><ele>651.0</ele><time>2026-04-12T13:30:25.015Z</time></trkpt><trkpt lat="43.7043483" lon="12.193255"><ele>651.0</ele><time>2026-04-12T13:30:26.013Z</time></trkpt><trkpt lat="43.7044267" lon="12.19334"><ele>651.0</ele><time>2026-04-12T13:30:27.012Z</time></trkpt><trkpt lat="43.7045248" lon="12.193405"><ele>651.0</ele><time>2026-04-12T13:30:28.014Z</time></trkpt><trkpt lat="43.7046376" lon="12.1934388"><ele>649.5</ele><time>2026-04-12T13:30:29.013Z</time></trkpt><trkpt lat="43.7047545" lon="12.1934492"><ele>648.0</ele><time>2026-04-12T13:30:30.013Z</time></trkpt><trkpt lat="43.7048693" lon="12.1934537"><ele>646.5</ele><time>2026-04-12T13:30:31.012Z</time></trkpt><trkpt lat="43.7049834" lon="12.1934635"><ele>645.0</ele><time>2026-04-12T13:30:32.013Z</time></trkpt><trkpt lat="43.7051027" lon="12.1934771"><ele>645.0</ele><time>2026-04-12T13:30:33.015Z</time></trkpt><trkpt lat="43.7052246" lon="12.1934909"><ele>645.0</ele><time>2026-04-12T13:30:34.012Z</time></trkpt><trkpt lat="43.705347" lon="12.1935065"><ele>645.0</ele><time>2026-04-12T13:30:35.015Z</time></trkpt><trkpt lat="43.7054755" lon="12.1935261"><ele>645.0</ele><time>2026-04-12T13:30:36.013Z</time></trkpt><trkpt lat="43.7056066" lon="12.1935427"><ele>644.25</ele><time>2026-04-12T13:30:37.012Z</time></trkpt><trkpt lat="43.7057387" lon="12.1935789"><ele>643.5</ele><time>2026-04-12T13:30:38.014Z</time></trkpt><trkpt lat="43.7058669" lon="12.1936413"><ele>642.75</ele><time>2026-04-12T13:30:39.014Z</time></trkpt><trkpt lat="43.7059914" lon="12.1937416"><ele>642.0</ele><time>2026-04-12T13:30:40.014Z</time></trkpt><trkpt lat="43.7061124" lon="12.1938486"><ele>642.0</ele><time>2026-04-12T13:30:41.012Z</time></trkpt><trkpt lat="43.7062266" lon="12.1939631"><ele>642.0</ele><time>2026-04-12T13:30:42.014Z</time></trkpt><trkpt lat="43.7063355" lon="12.1940768"><ele>642.0</ele><time>2026-04-12T13:30:43.018Z</time></trkpt><trkpt lat="43.7064427" lon="12.1941865"><ele>642.0</ele><time>2026-04-12T13:30:44.013Z</time></trkpt><trkpt lat="43.7065488" lon="12.1942877"><ele>642.0</ele><time>2026-04-12T13:30:45.012Z</time></trkpt><trkpt lat="43.706652" lon="12.1943873"><ele>642.0</ele><time>2026-04-12T13:30:46.012Z</time></trkpt><trkpt lat="43.7067499" lon="12.1944906"><ele>642.0</ele><time>2026-04-12T13:30:47.013Z</time></trkpt><trkpt lat="43.7068466" lon="12.1945861"><ele>642.0</ele><time>2026-04-12T13:30:48.012Z</time></trkpt><trkpt lat="43.7069411" lon="12.1946819"><ele>642.0</ele><time>2026-04-12T13:30:49.013Z</time></trkpt><trkpt lat="43.7070346" lon="12.1947723"><ele>642.0</ele><time>2026-04-12T13:30:50.013Z</time></trkpt><trkpt lat="43.7071258" lon="12.1948636"><ele>642.0</ele><time>2026-04-12T13:30:51.011Z</time></trkpt><trkpt lat="43.7072184" lon="12.1949539"><ele>642.0</ele><time>2026-04-12T13:30:52.011Z</time></trkpt><trkpt lat="43.7073135" lon="12.1950409"><ele>638.4</ele><time>2026-04-12T13:30:53.012Z</time></trkpt><trkpt lat="43.7074089" lon="12.1951268"><ele>634.8000000000001</ele><time>2026-04-12T13:30:54.011Z</time></trkpt><trkpt lat="43.7074983" lon="12.1952146"><ele>631.2</ele><time>2026-04-12T13:30:55.011Z</time></trkpt><trkpt lat="43.7075817" lon="12.1953"><ele>627.6</ele><time>2026-04-12T13:30:56.012Z</time></trkpt><trkpt lat="43.7076612" lon="12.1953779"><ele>624.0</ele><time>2026-04-12T13:30:57.013Z</time></trkpt><trkpt lat="43.707742" lon="12.1954615"><ele>622.5</ele><time>2026-04-12T13:30:58.011Z</time></trkpt><trkpt lat="43.7078322" lon="12.1955509"><ele>621.0</ele><time>2026-04-12T13:30:59.013Z</time></trkpt><trkpt lat="43.7079329" lon="12.1956399"><ele>619.5</ele><time>2026-04-12T13:31:00.01Z</time></trkpt><trkpt lat="43.7080461" lon="12.1957119"><ele>618.0</ele><time>2026-04-12T13:31:01.011Z</time></trkpt><trkpt lat="43.708178" lon="12.1957613"><ele>613.6666666666666</ele><time>2026-04-12T13:31:02.013Z</time></trkpt><trkpt lat="43.7083264" lon="12.1957879"><ele>609.3333333333333</ele><time>2026-04-12T13:31:03.013Z</time></trkpt><trkpt lat="43.7084825" lon="12.1957951"><ele>605.0</ele><time>2026-04-12T13:31:04.012Z</time></trkpt><trkpt lat="43.708633" lon="12.1957903"><ele>604.25</ele><time>2026-04-12T13:31:05.013Z</time></trkpt><trkpt lat="43.7087749" lon="12.1957738"><ele>603.5</ele><time>2026-04-12T13:31:06.013Z</time></trkpt><trkpt lat="43.7089102" lon="12.1957458"><ele>602.75</ele><time>2026-04-12T13:31:07.012Z</time></trkpt><trkpt lat="43.7090457" lon="12.1957278"><ele>602.0</ele><time>2026-04-12T13:31:08.016Z</time></trkpt><trkpt lat="43.7092011" lon="12.1957047"><ele>602.0</ele><time>2026-04-12T13:31:09.011Z</time></trkpt><trkpt lat="43.7093653" lon="12.1956813"><ele>602.0</ele><time>2026-04-12T13:31:10.012Z</time></trkpt><trkpt lat="43.7095242" lon="12.1956475"><ele>602.0</ele><time>2026-04-12T13:31:11.012Z</time></trkpt><trkpt lat="43.7096725" lon="12.1956152"><ele>598.75</ele><time>2026-04-12T13:31:12.015Z</time></trkpt><trkpt lat="43.709806" lon="12.1955798"><ele>595.5</ele><time>2026-04-12T13:31:13.011Z</time></trkpt><trkpt lat="43.7099236" lon="12.1955981"><ele>592.25</ele><time>2026-04-12T13:31:14.013Z</time></trkpt><trkpt lat="43.7100192" lon="12.1956738"><ele>589.0</ele><time>2026-04-12T13:31:15.011Z</time></trkpt><trkpt lat="43.7100926" lon="12.1957825"><ele>589.0</ele><time>2026-04-12T13:31:16.013Z</time></trkpt><trkpt lat="43.7101552" lon="12.1959187"><ele>589.0</ele><time>2026-04-12T13:31:17.011Z</time></trkpt><trkpt lat="43.7102141" lon="12.1960863"><ele>589.0</ele><time>2026-04-12T13:31:18.01Z</time></trkpt><trkpt lat="43.7102645" lon="12.1962829"><ele>589.0</ele><time>2026-04-12T13:31:19.014Z</time></trkpt><trkpt lat="43.710308" lon="12.1964853"><ele>587.25</ele><time>2026-04-12T13:31:20.012Z</time></trkpt><trkpt lat="43.7103544" lon="12.1966753"><ele>585.5</ele><time>2026-04-12T13:31:21.013Z</time></trkpt><trkpt lat="43.7104005" lon="12.1968434"><ele>583.75</ele><time>2026-04-12T13:31:22.012Z</time></trkpt><trkpt lat="43.7104304" lon="12.197003"><ele>582.0</ele><time>2026-04-12T13:31:23.011Z</time></trkpt><trkpt lat="43.7104332" lon="12.1971614"><ele>582.0</ele><time>2026-04-12T13:31:24.016Z</time></trkpt><trkpt lat="43.7104054" lon="12.1973169"><ele>582.0</ele><time>2026-04-12T13:31:25.013Z</time></trkpt><trkpt lat="43.7103542" lon="12.1974613"><ele>582.0</ele><time>2026-04-12T13:31:26.014Z</time></trkpt><trkpt lat="43.7103164" lon="12.1976091"><ele>582.0</ele><time>2026-04-12T13:31:27.013Z</time></trkpt><trkpt lat="43.7103038" lon="12.1977612"><ele>582.25</ele><time>2026-04-12T13:31:28.012Z</time></trkpt><trkpt lat="43.7103305" lon="12.1979181"><ele>582.5</ele><time>2026-04-12T13:31:29.01Z</time></trkpt><trkpt lat="43.7103763" lon="12.1980709"><ele>582.75</ele><time>2026-04-12T13:31:30.012Z</time></trkpt><trkpt lat="43.7104491" lon="12.1981889"><ele>583.0</ele><time>2026-04-12T13:31:31.01Z</time></trkpt><trkpt lat="43.7105361" lon="12.1982616"><ele>581.1999999999999</ele><time>2026-04-12T13:31:32.013Z</time></trkpt><trkpt lat="43.7106279" lon="12.1982914"><ele>579.4</ele><time>2026-04-12T13:31:33.012Z</time></trkpt><trkpt lat="43.7107187" lon="12.1983157"><ele>577.5999999999999</ele><time>2026-04-12T13:31:34.01Z</time></trkpt><trkpt lat="43.7107905" lon="12.1983797"><ele>575.8</ele><time>2026-04-12T13:31:35.012Z</time></trkpt><trkpt lat="43.7108461" lon="12.1984729"><ele>574.0</ele><time>2026-04-12T13:31:36.012Z</time></trkpt><trkpt lat="43.7108874" lon="12.1986104"><ele>574.0</ele><time>2026-04-12T13:31:37.011Z</time></trkpt><trkpt lat="43.7108636" lon="12.1987854"><ele>574.0</ele><time>2026-04-12T13:31:38.011Z</time></trkpt><trkpt lat="43.7108089" lon="12.1989446"><ele>574.0</ele><time>2026-04-12T13:31:39.011Z</time></trkpt><trkpt lat="43.7107294" lon="12.1990848"><ele>574.0</ele><time>2026-04-12T13:31:40.012Z</time></trkpt><trkpt lat="43.710661" lon="12.1992065"><ele>571.0</ele><time>2026-04-12T13:31:41.01Z</time></trkpt><trkpt lat="43.7106394" lon="12.1993192"><ele>568.0</ele><time>2026-04-12T13:31:42.012Z</time></trkpt><trkpt lat="43.7106584" lon="12.1994288"><ele>565.0</ele><time>2026-04-12T13:31:43.012Z</time></trkpt><trkpt lat="43.7107056" lon="12.1995307"><ele>562.0</ele><time>2026-04-12T13:31:44.01Z</time></trkpt><trkpt lat="43.7107696" lon="12.1996261"><ele>559.0</ele><time>2026-04-12T13:31:45.01Z</time></trkpt><trkpt lat="43.71085" lon="12.1997173"><ele>559.0</ele><time>2026-04-12T13:31:46.009Z</time></trkpt><trkpt lat="43.7109819" lon="12.1997759"><ele>559.0</ele><time>2026-04-12T13:31:47.013Z</time></trkpt><trkpt lat="43.7111155" lon="12.1997874"><ele>559.0</ele><time>2026-04-12T13:31:48.012Z</time></trkpt><trkpt lat="43.7112562" lon="12.1997484"><ele>559.0</ele><time>2026-04-12T13:31:49.011Z</time></trkpt><trkpt lat="43.7113962" lon="12.1996685"><ele>557.25</ele><time>2026-04-12T13:31:50.01Z</time></trkpt><trkpt lat="43.7115334" lon="12.1995707"><ele>555.5</ele><time>2026-04-12T13:31:51.011Z</time></trkpt><trkpt lat="43.7116656" lon="12.1994859"><ele>553.75</ele><time>2026-04-12T13:31:52.012Z</time></trkpt><trkpt lat="43.7117824" lon="12.1994016"><ele>552.0</ele><time>2026-04-12T13:31:53.01Z</time></trkpt><trkpt lat="43.7119001" lon="12.1993363"><ele>547.8000000000001</ele><time>2026-04-12T13:31:54.017Z</time></trkpt><trkpt lat="43.7120135" lon="12.1993236"><ele>543.6</ele><time>2026-04-12T13:31:55.01Z</time></trkpt><trkpt lat="43.7121141" lon="12.199364"><ele>539.4000000000001</ele><time>2026-04-12T13:31:56.011Z</time></trkpt><trkpt lat="43.7122027" lon="12.1994491"><ele>535.2</ele><time>2026-04-12T13:31:57.011Z</time></trkpt><trkpt lat="43.7122849" lon="12.1995501"><ele>531.0</ele><time>2026-04-12T13:31:58.01Z</time></trkpt><trkpt lat="43.7123575" lon="12.1996519"><ele>531.0</ele><time>2026-04-12T13:31:59.012Z</time></trkpt><trkpt lat="43.7124228" lon="12.1997449"><ele>531.0</ele><time>2026-04-12T13:32:00.011Z</time></trkpt><trkpt lat="43.7124777" lon="12.1998294"><ele>531.0</ele><time>2026-04-12T13:32:01.014Z</time></trkpt><trkpt lat="43.7125217" lon="12.1999198"><ele>531.0</ele><time>2026-04-12T13:32:02.012Z</time></trkpt><trkpt lat="43.7125455" lon="12.2000309"><ele>531.0</ele><time>2026-04-12T13:32:03.012Z</time></trkpt><trkpt lat="43.7125457" lon="12.2001558"><ele>531.0</ele><time>2026-04-12T13:32:04.011Z</time></trkpt><trkpt lat="43.7125173" lon="12.2002842"><ele>533.0</ele><time>2026-04-12T13:32:05.012Z</time></trkpt><trkpt lat="43.712463" lon="12.2004224"><ele>535.0</ele><time>2026-04-12T13:32:06.014Z</time></trkpt><trkpt lat="43.7123992" lon="12.200569"><ele>537.0</ele><time>2026-04-12T13:32:07.011Z</time></trkpt><trkpt lat="43.7123313" lon="12.200719"><ele>539.0</ele><time>2026-04-12T13:32:08.012Z</time></trkpt><trkpt lat="43.7122614" lon="12.2008608"><ele>540.0</ele><time>2026-04-12T13:32:09.012Z</time></trkpt><trkpt lat="43.7122024" lon="12.2009947"><ele>541.0</ele><time>2026-04-12T13:32:10.011Z</time></trkpt><trkpt lat="43.7121795" lon="12.2011314"><ele>542.0</ele><time>2026-04-12T13:32:11.012Z</time></trkpt><trkpt lat="43.712193" lon="12.2012736"><ele>543.0</ele><time>2026-04-12T13:32:12.012Z</time></trkpt><trkpt lat="43.7122505" lon="12.2014042"><ele>544.0</ele><time>2026-04-12T13:32:13.011Z</time></trkpt><trkpt lat="43.7123465" lon="12.2015073"><ele>544.0</ele><time>2026-04-12T13:32:14.01Z</time></trkpt><trkpt lat="43.7124702" lon="12.2015855"><ele>544.0</ele><time>2026-04-12T13:32:15.011Z</time></trkpt><trkpt lat="43.7126126" lon="12.2016423"><ele>544.0</ele><time>2026-04-12T13:32:16.011Z</time></trkpt><trkpt lat="43.7127492" lon="12.2017285"><ele>544.0</ele><time>2026-04-12T13:32:17.012Z</time></trkpt><trkpt lat="43.7128647" lon="12.2018596"><ele>545.5</ele><time>2026-04-12T13:32:18.012Z</time></trkpt><trkpt lat="43.7129568" lon="12.2020192"><ele>547.0</ele><time>2026-04-12T13:32:19.016Z</time></trkpt><trkpt lat="43.7130151" lon="12.2021836"><ele>548.5</ele><time>2026-04-12T13:32:20.015Z</time></trkpt><trkpt lat="43.7130286" lon="12.2023457"><ele>550.0</ele><time>2026-04-12T13:32:21.013Z</time></trkpt><trkpt lat="43.7129974" lon="12.2024748"><ele>550.0</ele><time>2026-04-12T13:32:22.011Z</time></trkpt><trkpt lat="43.7129364" lon="12.2025685"><ele>550.0</ele><time>2026-04-12T13:32:23.01Z</time></trkpt><trkpt lat="43.712857" lon="12.2026326"><ele>550.0</ele><time>2026-04-12T13:32:24.013Z</time></trkpt><trkpt lat="43.7127488" lon="12.202663"><ele>550.0</ele><time>2026-04-12T13:32:25.012Z</time></trkpt><trkpt lat="43.7125982" lon="12.2026064"><ele>549.25</ele><time>2026-04-12T13:32:26.012Z</time></trkpt><trkpt lat="43.7124604" lon="12.2025365"><ele>548.5</ele><time>2026-04-12T13:32:27.012Z</time></trkpt><trkpt lat="43.7123233" lon="12.2025057"><ele>547.75</ele><time>2026-04-12T13:32:28.012Z</time></trkpt><trkpt lat="43.7121951" lon="12.2025337"><ele>547.0</ele><time>2026-04-12T13:32:29.012Z</time></trkpt><trkpt lat="43.7120786" lon="12.2026112"><ele>547.0</ele><time>2026-04-12T13:32:30.012Z</time></trkpt><trkpt lat="43.7119716" lon="12.2027404"><ele>547.0</ele><time>2026-04-12T13:32:31.011Z</time></trkpt><trkpt lat="43.7118742" lon="12.2029025"><ele>547.0</ele><time>2026-04-12T13:32:32.013Z</time></trkpt><trkpt lat="43.7117796" lon="12.2030742"><ele>548.6666666666667</ele><time>2026-04-12T13:32:33.013Z</time></trkpt><trkpt lat="43.7116879" lon="12.2032425"><ele>550.3333333333334</ele><time>2026-04-12T13:32:34.011Z</time></trkpt><trkpt lat="43.7116069" lon="12.2034173"><ele>552.0</ele><time>2026-04-12T13:32:35.012Z</time></trkpt><trkpt lat="43.7115512" lon="12.2036114"><ele>552.0</ele><time>2026-04-12T13:32:36.012Z</time></trkpt><trkpt lat="43.7115306" lon="12.2038263"><ele>552.0</ele><time>2026-04-12T13:32:37.011Z</time></trkpt><trkpt lat="43.7115151" lon="12.2040481"><ele>552.0</ele><time>2026-04-12T13:32:38.015Z</time></trkpt><trkpt lat="43.7114974" lon="12.2042691"><ele>553.3333333333334</ele><time>2026-04-12T13:32:39.012Z</time></trkpt><trkpt lat="43.7114795" lon="12.2044952"><ele>554.6666666666667</ele><time>2026-04-12T13:32:40.011Z</time></trkpt><trkpt lat="43.7114641" lon="12.2047239"><ele>556.0</ele><time>2026-04-12T13:32:41.011Z</time></trkpt><trkpt lat="43.7114438" lon="12.2049457"><ele>557.75</ele><time>2026-04-12T13:32:42.011Z</time></trkpt><trkpt lat="43.7114083" lon="12.2051433"><ele>559.5</ele><time>2026-04-12T13:32:43.011Z</time></trkpt><trkpt lat="43.7113576" lon="12.205321"><ele>561.25</ele><time>2026-04-12T13:32:44.011Z</time></trkpt><trkpt lat="43.7112903" lon="12.2054916"><ele>563.0</ele><time>2026-04-12T13:32:45.011Z</time></trkpt><trkpt lat="43.7111835" lon="12.2056272"><ele>564.25</ele><time>2026-04-12T13:32:46.013Z</time></trkpt><trkpt lat="43.7110747" lon="12.205748"><ele>565.5</ele><time>2026-04-12T13:32:47.013Z</time></trkpt><trkpt lat="43.7109674" lon="12.2058432"><ele>566.75</ele><time>2026-04-12T13:32:48.011Z</time></trkpt><trkpt lat="43.710864" lon="12.2058998"><ele>568.0</ele><time>2026-04-12T13:32:49.013Z</time></trkpt><trkpt lat="43.7107697" lon="12.2058887"><ele>568.0</ele><time>2026-04-12T13:32:50.012Z</time></trkpt><trkpt lat="43.7106708" lon="12.2058433"><ele>568.0</ele><time>2026-04-12T13:32:51.012Z</time></trkpt><trkpt lat="43.710561" lon="12.2057641"><ele>568.0</ele><time>2026-04-12T13:32:52.011Z</time></trkpt><trkpt lat="43.7104446" lon="12.2056692"><ele>568.0</ele><time>2026-04-12T13:32:53.012Z</time></trkpt><trkpt lat="43.7103327" lon="12.2055575"><ele>565.75</ele><time>2026-04-12T13:32:54.012Z</time></trkpt><trkpt lat="43.7102318" lon="12.2054545"><ele>563.5</ele><time>2026-04-12T13:32:55.011Z</time></trkpt><trkpt lat="43.7101521" lon="12.2053333"><ele>561.25</ele><time>2026-04-12T13:32:56.011Z</time></trkpt><trkpt lat="43.7101009" lon="12.205194"><ele>559.0</ele><time>2026-04-12T13:32:57.011Z</time></trkpt><trkpt lat="43.7100757" lon="12.2050349"><ele>559.0</ele><time>2026-04-12T13:32:58.01Z</time></trkpt><trkpt lat="43.7100621" lon="12.2048713"><ele>559.0</ele><time>2026-04-12T13:32:59.018Z</time></trkpt><trkpt lat="43.7100536" lon="12.2047169"><ele>559.0</ele><time>2026-04-12T13:33:00.011Z</time></trkpt><trkpt lat="43.7100095" lon="12.2045733"><ele>559.0</ele><time>2026-04-12T13:33:01.013Z</time></trkpt><trkpt lat="43.7099665" lon="12.2044473"><ele>559.0</ele><time>2026-04-12T13:33:02.011Z</time></trkpt><trkpt lat="43.7099241" lon="12.2043618"><ele>557.25</ele><time>2026-04-12T13:33:03.012Z</time></trkpt><trkpt lat="43.7098522" lon="12.2043004"><ele>555.5</ele><time>2026-04-12T13:33:04.015Z</time></trkpt><trkpt lat="43.7097167" lon="12.2042546"><ele>553.75</ele><time>2026-04-12T13:33:05.011Z</time></trkpt><trkpt lat="43.7095433" lon="12.204217"><ele>552.0</ele><time>2026-04-12T13:33:06.012Z</time></trkpt><trkpt lat="43.7093614" lon="12.2041714"><ele>551.6666666666666</ele><time>2026-04-12T13:33:07.011Z</time></trkpt><trkpt lat="43.709186" lon="12.204122"><ele>551.3333333333333</ele><time>2026-04-12T13:33:08.014Z</time></trkpt><trkpt lat="43.7090146" lon="12.204068"><ele>551.0</ele><time>2026-04-12T13:33:09.012Z</time></trkpt><trkpt lat="43.7088543" lon="12.2040058"><ele>549.6666666666666</ele><time>2026-04-12T13:33:10.014Z</time></trkpt><trkpt lat="43.7087032" lon="12.2039413"><ele>548.3333333333334</ele><time>2026-04-12T13:33:11.014Z</time></trkpt><trkpt lat="43.7085602" lon="12.2038774"><ele>547.0</ele><time>2026-04-12T13:33:12.013Z</time></trkpt><trkpt lat="43.7084242" lon="12.2038133"><ele>546.0</ele><time>2026-04-12T13:33:13.014Z</time></trkpt><trkpt lat="43.708294" lon="12.2037645"><ele>545.0</ele><time>2026-04-12T13:33:14.011Z</time></trkpt><trkpt lat="43.7081742" lon="12.2037286"><ele>544.0</ele><time>2026-04-12T13:33:15.012Z</time></trkpt><trkpt lat="43.7080601" lon="12.2037163"><ele>543.0</ele><time>2026-04-12T13:33:16.011Z</time></trkpt><trkpt lat="43.7079549" lon="12.2037541"><ele>543.0</ele><time>2026-04-12T13:33:17.014Z</time></trkpt><trkpt lat="43.7078601" lon="12.2038525"><ele>543.0</ele><time>2026-04-12T13:33:18.014Z</time></trkpt><trkpt lat="43.707772" lon="12.2039943"><ele>543.0</ele><time>2026-04-12T13:33:19.012Z</time></trkpt><trkpt lat="43.7076711" lon="12.2041231"><ele>543.0</ele><time>2026-04-12T13:33:20.012Z</time></trkpt><trkpt lat="43.7075573" lon="12.2042017"><ele>542.6</ele><time>2026-04-12T13:33:21.012Z</time></trkpt><trkpt lat="43.7074355" lon="12.2042193"><ele>542.1999999999999</ele><time>2026-04-12T13:33:22.012Z</time></trkpt><trkpt lat="43.7073211" lon="12.204197"><ele>541.8</ele><time>2026-04-12T13:33:23.011Z</time></trkpt><trkpt lat="43.7072236" lon="12.2041546"><ele>541.4</ele><time>2026-04-12T13:33:24.012Z</time></trkpt><trkpt lat="43.7071463" lon="12.204092"><ele>541.0</ele><time>2026-04-12T13:33:25.013Z</time></trkpt><trkpt lat="43.7070898" lon="12.2040184"><ele>540.8</ele><time>2026-04-12T13:33:26.014Z</time></trkpt><trkpt lat="43.7070755" lon="12.2039266"><ele>540.6</ele><time>2026-04-12T13:33:27.014Z</time></trkpt><trkpt lat="43.707108" lon="12.2038133"><ele>540.4</ele><time>2026-04-12T13:33:28.013Z</time></trkpt><trkpt lat="43.7071357" lon="12.2036836"><ele>540.2</ele><time>2026-04-12T13:33:29.011Z</time></trkpt><trkpt lat="43.7071402" lon="12.2035445"><ele>540.0</ele><time>2026-04-12T13:33:30.015Z</time></trkpt><trkpt lat="43.7071354" lon="12.2033973"><ele>540.0</ele><time>2026-04-12T13:33:31.013Z</time></trkpt><trkpt lat="43.7071068" lon="12.203241"><ele>540.0</ele><time>2026-04-12T13:33:32.013Z</time></trkpt><trkpt lat="43.7070428" lon="12.2030887"><ele>540.0</ele><time>2026-04-12T13:33:33.013Z</time></trkpt><trkpt lat="43.7069755" lon="12.2029232"><ele>540.0</ele><time>2026-04-12T13:33:34.012Z</time></trkpt><trkpt lat="43.7069064" lon="12.2027466"><ele>541.6666666666666</ele><time>2026-04-12T13:33:35.011Z</time></trkpt><trkpt lat="43.7068414" lon="12.2025533"><ele>543.3333333333333</ele><time>2026-04-12T13:33:36.013Z</time></trkpt><trkpt lat="43.7067736" lon="12.2023486"><ele>545.0</ele><time>2026-04-12T13:33:37.012Z</time></trkpt><trkpt lat="43.7067051" lon="12.2021369"><ele>545.0</ele><time>2026-04-12T13:33:38.011Z</time></trkpt><trkpt lat="43.7066305" lon="12.2019153"><ele>545.0</ele><time>2026-04-12T13:33:39.013Z</time></trkpt><trkpt lat="43.7065511" lon="12.201688"><ele>545.0</ele><time>2026-04-12T13:33:40.012Z</time></trkpt><trkpt lat="43.7064794" lon="12.2014613"><ele>543.75</ele><time>2026-04-12T13:33:41.011Z</time></trkpt><trkpt lat="43.7064139" lon="12.2012595"><ele>542.5</ele><time>2026-04-12T13:33:42.012Z</time></trkpt><trkpt lat="43.7063541" lon="12.2010891"><ele>541.25</ele><time>2026-04-12T13:33:43.011Z</time></trkpt><trkpt lat="43.7062903" lon="12.2009505"><ele>540.0</ele><time>2026-04-12T13:33:44.01Z</time></trkpt><trkpt lat="43.7062041" lon="12.2008421"><ele>540.0</ele><time>2026-04-12T13:33:45.012Z</time></trkpt><trkpt lat="43.7060934" lon="12.20076"><ele>540.0</ele><time>2026-04-12T13:33:46.013Z</time></trkpt><trkpt lat="43.7059623" lon="12.2006984"><ele>540.0</ele><time>2026-04-12T13:33:47.011Z</time></trkpt><trkpt lat="43.7058258" lon="12.2006302"><ele>540.0</ele><time>2026-04-12T13:33:48.012Z</time></trkpt><trkpt lat="43.7056986" lon="12.2005334"><ele>541.75</ele><time>2026-04-12T13:33:49.012Z</time></trkpt><trkpt lat="43.7055708" lon="12.2004317"><ele>543.5</ele><time>2026-04-12T13:33:50.012Z</time></trkpt><trkpt lat="43.7054446" lon="12.2003424"><ele>545.25</ele><time>2026-04-12T13:33:51.012Z</time></trkpt><trkpt lat="43.7053182" lon="12.2002733"><ele>547.0</ele><time>2026-04-12T13:33:52.011Z</time></trkpt><trkpt lat="43.7052044" lon="12.2002238"><ele>547.5</ele><time>2026-04-12T13:33:53.013Z</time></trkpt><trkpt lat="43.7051015" lon="12.2002029"><ele>548.0</ele><time>2026-04-12T13:33:54.011Z</time></trkpt><trkpt lat="43.704999" lon="12.2002076"><ele>548.5</ele><time>2026-04-12T13:33:55.011Z</time></trkpt><trkpt lat="43.7048853" lon="12.2002296"><ele>549.0</ele><time>2026-04-12T13:33:56.011Z</time></trkpt><trkpt lat="43.7047568" lon="12.2002693"><ele>549.0</ele><time>2026-04-12T13:33:57.012Z</time></trkpt><trkpt lat="43.7046159" lon="12.2003164"><ele>549.0</ele><time>2026-04-12T13:33:58.013Z</time></trkpt><trkpt lat="43.7044766" lon="12.2003665"><ele>549.0</ele><time>2026-04-12T13:33:59.012Z</time></trkpt><trkpt lat="43.7043512" lon="12.2004162"><ele>549.0</ele><time>2026-04-12T13:34:00.013Z</time></trkpt><trkpt lat="43.704233" lon="12.20046"><ele>550.5</ele><time>2026-04-12T13:34:01.015Z</time></trkpt><trkpt lat="43.7041155" lon="12.2005006"><ele>552.0</ele><time>2026-04-12T13:34:02.011Z</time></trkpt><trkpt lat="43.7039916" lon="12.200526"><ele>553.5</ele><time>2026-04-12T13:34:03.013Z</time></trkpt><trkpt lat="43.7038524" lon="12.2005304"><ele>555.0</ele><time>2026-04-12T13:34:04.01Z</time></trkpt><trkpt lat="43.7037109" lon="12.2005115"><ele>557.0</ele><time>2026-04-12T13:34:05.011Z</time></trkpt><trkpt lat="43.7035685" lon="12.2004731"><ele>559.0</ele><time>2026-04-12T13:34:06.012Z</time></trkpt><trkpt lat="43.7034236" lon="12.2004285"><ele>561.0</ele><time>2026-04-12T13:34:07.01Z</time></trkpt><trkpt lat="43.7032764" lon="12.2003822"><ele>563.0</ele><time>2026-04-12T13:34:08.01Z</time></trkpt><trkpt lat="43.7031264" lon="12.2003373"><ele>563.0</ele><time>2026-04-12T13:34:09.01Z</time></trkpt><trkpt lat="43.702973" lon="12.2002946"><ele>563.0</ele><time>2026-04-12T13:34:10.013Z</time></trkpt><trkpt lat="43.7028211" lon="12.2002522"><ele>563.0</ele><time>2026-04-12T13:34:11.011Z</time></trkpt><trkpt lat="43.7026789" lon="12.2001986"><ele>563.25</ele><time>2026-04-12T13:34:12.013Z</time></trkpt><trkpt lat="43.70255" lon="12.2001144"><ele>563.5</ele><time>2026-04-12T13:34:13.014Z</time></trkpt><trkpt lat="43.7024302" lon="12.2000032"><ele>563.75</ele><time>2026-04-12T13:34:14.016Z</time></trkpt><trkpt lat="43.7023236" lon="12.1998689"><ele>564.0</ele><time>2026-04-12T13:34:15.013Z</time></trkpt><trkpt lat="43.7022303" lon="12.199725"><ele>564.0</ele><time>2026-04-12T13:34:16.011Z</time></trkpt><trkpt lat="43.7021413" lon="12.1995976"><ele>564.0</ele><time>2026-04-12T13:34:17.009Z</time></trkpt><trkpt lat="43.7020474" lon="12.1994955"><ele>564.0</ele><time>2026-04-12T13:34:18.012Z</time></trkpt><trkpt lat="43.7019512" lon="12.1994167"><ele>564.0</ele><time>2026-04-12T13:34:19.011Z</time></trkpt><trkpt lat="43.7018493" lon="12.1993581"><ele>566.0</ele><time>2026-04-12T13:34:20.012Z</time></trkpt><trkpt lat="43.7017435" lon="12.1993193"><ele>568.0</ele><time>2026-04-12T13:34:21.013Z</time></trkpt><trkpt lat="43.7016445" lon="12.1993053"><ele>570.0</ele><time>2026-04-12T13:34:22.013Z</time></trkpt><trkpt lat="43.7015484" lon="12.199325"><ele>572.0</ele><time>2026-04-12T13:34:23.009Z</time></trkpt><trkpt lat="43.7014562" lon="12.1993836"><ele>574.0</ele><time>2026-04-12T13:34:24.012Z</time></trkpt><trkpt lat="43.701381" lon="12.1994758"><ele>574.0</ele><time>2026-04-12T13:34:25.011Z</time></trkpt><trkpt lat="43.7013153" lon="12.1995902"><ele>574.0</ele><time>2026-04-12T13:34:26.011Z</time></trkpt><trkpt lat="43.7012689" lon="12.1997442"><ele>574.0</ele><time>2026-04-12T13:34:27.012Z</time></trkpt><trkpt lat="43.7012462" lon="12.1999384"><ele>574.0</ele><time>2026-04-12T13:34:28.012Z</time></trkpt><trkpt lat="43.7012265" lon="12.2001172"><ele>578.25</ele><time>2026-04-12T13:34:29.01Z</time></trkpt><trkpt lat="43.7011988" lon="12.2002856"><ele>582.5</ele><time>2026-04-12T13:34:30.012Z</time></trkpt><trkpt lat="43.7011607" lon="12.2004524"><ele>586.75</ele><time>2026-04-12T13:34:31.011Z</time></trkpt><trkpt lat="43.7011062" lon="12.2006098"><ele>591.0</ele><time>2026-04-12T13:34:32.012Z</time></trkpt><trkpt lat="43.7010345" lon="12.2007472"><ele>592.5</ele><time>2026-04-12T13:34:33.012Z</time></trkpt><trkpt lat="43.7009382" lon="12.2008562"><ele>594.0</ele><time>2026-04-12T13:34:34.014Z</time></trkpt><trkpt lat="43.7008215" lon="12.2009329"><ele>595.5</ele><time>2026-04-12T13:34:35.013Z</time></trkpt><trkpt lat="43.7006941" lon="12.2010033"><ele>597.0</ele><time>2026-04-12T13:34:36.012Z</time></trkpt><trkpt lat="43.700569" lon="12.2010966"><ele>597.0</ele><time>2026-04-12T13:34:37.012Z</time></trkpt><trkpt lat="43.7004465" lon="12.2012096"><ele>597.0</ele><time>2026-04-12T13:34:38.011Z</time></trkpt><trkpt lat="43.7003221" lon="12.2013301"><ele>597.0</ele><time>2026-04-12T13:34:39.017Z</time></trkpt><trkpt lat="43.7001971" lon="12.2014455"><ele>597.0</ele><time>2026-04-12T13:34:40.014Z</time></trkpt><trkpt lat="43.700076" lon="12.2015467"><ele>600.75</ele><time>2026-04-12T13:34:41.012Z</time></trkpt><trkpt lat="43.6999542" lon="12.2016342"><ele>604.5</ele><time>2026-04-12T13:34:42.01Z</time></trkpt><trkpt lat="43.6998285" lon="12.201689"><ele>608.25</ele><time>2026-04-12T13:34:43.013Z</time></trkpt><trkpt lat="43.6997067" lon="12.2017036"><ele>612.0</ele><time>2026-04-12T13:34:44.014Z</time></trkpt><trkpt lat="43.6995793" lon="12.2016917"><ele>612.0</ele><time>2026-04-12T13:34:45.012Z</time></trkpt><trkpt lat="43.6994451" lon="12.2016659"><ele>612.0</ele><time>2026-04-12T13:34:46.01Z</time></trkpt><trkpt lat="43.6993127" lon="12.2016402"><ele>612.0</ele><time>2026-04-12T13:34:47.01Z</time></trkpt><trkpt lat="43.6991859" lon="12.2016166"><ele>612.0</ele><time>2026-04-12T13:34:48.015Z</time></trkpt><trkpt lat="43.6990716" lon="12.201607"><ele>612.4</ele><time>2026-04-12T13:34:49.011Z</time></trkpt><trkpt lat="43.6989711" lon="12.2016115"><ele>612.8000000000001</ele><time>2026-04-12T13:34:50.011Z</time></trkpt><trkpt lat="43.6988808" lon="12.2016348"><ele>613.2</ele><time>2026-04-12T13:34:51.01Z</time></trkpt><trkpt lat="43.6987936" lon="12.2016786"><ele>613.6</ele><time>2026-04-12T13:34:52.011Z</time></trkpt><trkpt lat="43.6987109" lon="12.2017535"><ele>614.0</ele><time>2026-04-12T13:34:53.012Z</time></trkpt><trkpt lat="43.6986361" lon="12.2018614"><ele>613.0</ele><time>2026-04-12T13:34:54.012Z</time></trkpt><trkpt lat="43.6985702" lon="12.2019993"><ele>612.0</ele><time>2026-04-12T13:34:55.011Z</time></trkpt><trkpt lat="43.6985115" lon="12.202154"><ele>611.0</ele><time>2026-04-12T13:34:56.012Z</time></trkpt><trkpt lat="43.698455" lon="12.2023283"><ele>610.0</ele><time>2026-04-12T13:34:57.01Z</time></trkpt><trkpt lat="43.6983967" lon="12.202495"><ele>612.5</ele><time>2026-04-12T13:34:58.013Z</time></trkpt><trkpt lat="43.6983333" lon="12.2026617"><ele>615.0</ele><time>2026-04-12T13:34:59.011Z</time></trkpt><trkpt lat="43.6982667" lon="12.20283"><ele>617.5</ele><time>2026-04-12T13:35:00.011Z</time></trkpt><trkpt lat="43.698195" lon="12.2029967"><ele>620.0</ele><time>2026-04-12T13:35:01.012Z</time></trkpt><trkpt lat="43.6981267" lon="12.203165"><ele>622.25</ele><time>2026-04-12T13:35:02.012Z</time></trkpt><trkpt lat="43.6980517" lon="12.2033333"><ele>624.5</ele><time>2026-04-12T13:35:03.011Z</time></trkpt><trkpt lat="43.6979717" lon="12.2035033"><ele>626.75</ele><time>2026-04-12T13:35:04.013Z</time></trkpt><trkpt lat="43.6978883" lon="12.2036717"><ele>629.0</ele><time>2026-04-12T13:35:05.01Z</time></trkpt><trkpt lat="43.6978" lon="12.2038333"><ele>630.0</ele><time>2026-04-12T13:35:06.013Z</time></trkpt><trkpt lat="43.697715" lon="12.2039983"><ele>631.0</ele><time>2026-04-12T13:35:07.01Z</time></trkpt><trkpt lat="43.6976267" lon="12.2041667"><ele>632.0</ele><time>2026-04-12T13:35:08.013Z</time></trkpt><trkpt lat="43.6975367" lon="12.20434"><ele>632.0</ele><time>2026-04-12T13:35:09.011Z</time></trkpt><trkpt lat="43.69744" lon="12.2045217"><ele>632.0</ele><time>2026-04-12T13:35:10.013Z</time></trkpt><trkpt lat="43.6973433" lon="12.2047117"><ele>632.0</ele><time>2026-04-12T13:35:11.011Z</time></trkpt><trkpt lat="43.6972433" lon="12.204905"><ele>635.6666666666666</ele><time>2026-04-12T13:35:12.017Z</time></trkpt><trkpt lat="43.697145" lon="12.2050983"><ele>639.3333333333334</ele><time>2026-04-12T13:35:13.015Z</time></trkpt><trkpt lat="43.69705" lon="12.2052817"><ele>643.0</ele><time>2026-04-12T13:35:14.013Z</time></trkpt><trkpt lat="43.6969667" lon="12.2054617"><ele>641.3333333333334</ele><time>2026-04-12T13:35:15.011Z</time></trkpt><trkpt lat="43.6968983" lon="12.2056583"><ele>639.6666666666666</ele><time>2026-04-12T13:35:16.011Z</time></trkpt><trkpt lat="43.69684" lon="12.2058717"><ele>638.0</ele><time>2026-04-12T13:35:17.013Z</time></trkpt><trkpt lat="43.6967917" lon="12.2061017"><ele>638.0</ele><time>2026-04-12T13:35:18.011Z</time></trkpt><trkpt lat="43.696755" lon="12.2063417"><ele>638.0</ele><time>2026-04-12T13:35:19.014Z</time></trkpt><trkpt lat="43.6967083" lon="12.2065867"><ele>638.0</ele><time>2026-04-12T13:35:20.015Z</time></trkpt><trkpt lat="43.6966683" lon="12.20683"><ele>640.6666666666666</ele><time>2026-04-12T13:35:21.013Z</time></trkpt><trkpt lat="43.69663" lon="12.2070767"><ele>643.3333333333334</ele><time>2026-04-12T13:35:22.013Z</time></trkpt><trkpt lat="43.696605" lon="12.207335"><ele>646.0</ele><time>2026-04-12T13:35:23.011Z</time></trkpt><trkpt lat="43.6965883" lon="12.2075917"><ele>649.0</ele><time>2026-04-12T13:35:24.012Z</time></trkpt><trkpt lat="43.6965517" lon="12.2078283"><ele>652.0</ele><time>2026-04-12T13:35:25.013Z</time></trkpt><trkpt lat="43.6964967" lon="12.2080517"><ele>655.0</ele><time>2026-04-12T13:35:26.012Z</time></trkpt><trkpt lat="43.6964233" lon="12.2082767"><ele>659.3333333333334</ele><time>2026-04-12T13:35:27.012Z</time></trkpt><trkpt lat="43.6963367" lon="12.2084967"><ele>663.6666666666666</ele><time>2026-04-12T13:35:28.011Z</time></trkpt><trkpt lat="43.6962483" lon="12.20871"><ele>668.0</ele><time>2026-04-12T13:35:29.011Z</time></trkpt><trkpt lat="43.696165" lon="12.208925"><ele>663.3333333333333</ele><time>2026-04-12T13:35:30.01Z</time></trkpt><trkpt lat="43.6961" lon="12.2091467"><ele>658.6666666666666</ele><time>2026-04-12T13:35:31.012Z</time></trkpt><trkpt lat="43.6960617" lon="12.2093817"><ele>654.0</ele><time>2026-04-12T13:35:32.011Z</time></trkpt><trkpt lat="43.696045" lon="12.2096267"><ele>657.6666666666666</ele><time>2026-04-12T13:35:33.013Z</time></trkpt><trkpt lat="43.6960333" lon="12.2098583"><ele>661.3333333333333</ele><time>2026-04-12T13:35:34.011Z</time></trkpt><trkpt lat="43.6960167" lon="12.2100783"><ele>665.0</ele><time>2026-04-12T13:35:35.01Z</time></trkpt><trkpt lat="43.6959833" lon="12.210275"><ele>665.0</ele><time>2026-04-12T13:35:36.013Z</time></trkpt><trkpt lat="43.695935" lon="12.2104467"><ele>665.0</ele><time>2026-04-12T13:35:37.012Z</time></trkpt><trkpt lat="43.6958583" lon="12.21059"><ele>665.0</ele><time>2026-04-12T13:35:38.011Z</time></trkpt><trkpt lat="43.6957633" lon="12.2107133"><ele>665.0</ele><time>2026-04-12T13:35:39.017Z</time></trkpt><trkpt lat="43.6956717" lon="12.2108283"><ele>668.2</ele><time>2026-04-12T13:35:40.012Z</time></trkpt><trkpt lat="43.6955883" lon="12.2109317"><ele>671.4</ele><time>2026-04-12T13:35:41.012Z</time></trkpt><trkpt lat="43.6955267" lon="12.2110417"><ele>674.5999999999999</ele><time>2026-04-12T13:35:42.011Z</time></trkpt><trkpt lat="43.6954983" lon="12.2111733"><ele>677.8</ele><time>2026-04-12T13:35:43.011Z</time></trkpt><trkpt lat="43.6954917" lon="12.2113233"><ele>681.0</ele><time>2026-04-12T13:35:44.014Z</time></trkpt><trkpt lat="43.6954817" lon="12.2114783"><ele>685.25</ele><time>2026-04-12T13:35:45.014Z</time></trkpt><trkpt lat="43.6954583" lon="12.2116383"><ele>689.5</ele><time>2026-04-12T13:35:46.011Z</time></trkpt><trkpt lat="43.6954083" lon="12.2117933"><ele>693.75</ele><time>2026-04-12T13:35:47.012Z</time></trkpt><trkpt lat="43.6953383" lon="12.21194"><ele>698.0</ele><time>2026-04-12T13:35:48.012Z</time></trkpt><trkpt lat="43.695265" lon="12.2120733"><ele>694.8</ele><time>2026-04-12T13:35:49.011Z</time></trkpt><trkpt lat="43.695195" lon="12.21219"><ele>691.5999999999999</ele><time>2026-04-12T13:35:50.012Z</time></trkpt><trkpt lat="43.6951317" lon="12.2122917"><ele>688.4000000000001</ele><time>2026-04-12T13:35:51.012Z</time></trkpt><trkpt lat="43.695075" lon="12.212395"><ele>685.2</ele><time>2026-04-12T13:35:52.01Z</time></trkpt><trkpt lat="43.6950267" lon="12.21251"><ele>682.0</ele><time>2026-04-12T13:35:53.015Z</time></trkpt><trkpt lat="43.694985" lon="12.2126433"><ele>682.0</ele><time>2026-04-12T13:35:54.011Z</time></trkpt><trkpt lat="43.694955" lon="12.21279"><ele>682.0</ele><time>2026-04-12T13:35:55.012Z</time></trkpt><trkpt lat="43.694935" lon="12.212945"><ele>682.0</ele><time>2026-04-12T13:35:56.012Z</time></trkpt><trkpt lat="43.694945" lon="12.2131167"><ele>682.0</ele><time>2026-04-12T13:35:57.01Z</time></trkpt><trkpt lat="43.6949633" lon="12.2133017"><ele>684.0</ele><time>2026-04-12T13:35:58.012Z</time></trkpt><trkpt lat="43.694965" lon="12.213495"><ele>686.0</ele><time>2026-04-12T13:35:59.011Z</time></trkpt><trkpt lat="43.694935" lon="12.213695"><ele>688.0</ele><time>2026-04-12T13:36:00.014Z</time></trkpt><trkpt lat="43.6948867" lon="12.2138933"><ele>690.0</ele><time>2026-04-12T13:36:01.011Z</time></trkpt><trkpt lat="43.6948367" lon="12.2140983"><ele>692.25</ele><time>2026-04-12T13:36:02.011Z</time></trkpt><trkpt lat="43.6947933" lon="12.214305"><ele>694.5</ele><time>2026-04-12T13:36:03.013Z</time></trkpt><trkpt lat="43.69477" lon="12.21449"><ele>696.75</ele><time>2026-04-12T13:36:04.011Z</time></trkpt><trkpt lat="43.6947667" lon="12.21467"><ele>699.0</ele><time>2026-04-12T13:36:05.01Z</time></trkpt><trkpt lat="43.6947674" lon="12.2148529"><ele>702.0</ele><time>2026-04-12T13:36:06.011Z</time></trkpt><trkpt lat="43.6947695" lon="12.2150406"><ele>705.0</ele><time>2026-04-12T13:36:07.015Z</time></trkpt><trkpt lat="43.6947662" lon="12.2152321"><ele>708.0</ele><time>2026-04-12T13:36:08.01Z</time></trkpt><trkpt lat="43.6947555" lon="12.2154247"><ele>711.0</ele><time>2026-04-12T13:36:09.01Z</time></trkpt><trkpt lat="43.6947345" lon="12.2156064"><ele>712.75</ele><time>2026-04-12T13:36:10.012Z</time></trkpt><trkpt lat="43.6946913" lon="12.2157634"><ele>714.5</ele><time>2026-04-12T13:36:11.01Z</time></trkpt><trkpt lat="43.6946204" lon="12.2158935"><ele>716.25</ele><time>2026-04-12T13:36:12.011Z</time></trkpt><trkpt lat="43.6945286" lon="12.2160012"><ele>718.0</ele><time>2026-04-12T13:36:13.014Z</time></trkpt><trkpt lat="43.6944267" lon="12.2160935"><ele>714.5</ele><time>2026-04-12T13:36:14.013Z</time></trkpt><trkpt lat="43.6943353" lon="12.2161977"><ele>711.0</ele><time>2026-04-12T13:36:15.011Z</time></trkpt><trkpt lat="43.69426" lon="12.2163229"><ele>707.5</ele><time>2026-04-12T13:36:16.01Z</time></trkpt><trkpt lat="43.694204" lon="12.2164651"><ele>704.0</ele><time>2026-04-12T13:36:17.014Z</time></trkpt><trkpt lat="43.6941647" lon="12.2166254"><ele>704.0</ele><time>2026-04-12T13:36:18.01Z</time></trkpt><trkpt lat="43.6941316" lon="12.2167984"><ele>704.0</ele><time>2026-04-12T13:36:19.012Z</time></trkpt><trkpt lat="43.6940945" lon="12.2169877"><ele>704.0</ele><time>2026-04-12T13:36:20.012Z</time></trkpt><trkpt lat="43.6940548" lon="12.2171998"><ele>704.0</ele><time>2026-04-12T13:36:21.012Z</time></trkpt><trkpt lat="43.6940072" lon="12.2174214"><ele>704.6666666666666</ele><time>2026-04-12T13:36:22.012Z</time></trkpt><trkpt lat="43.6939583" lon="12.2176525"><ele>705.3333333333334</ele><time>2026-04-12T13:36:23.01Z</time></trkpt><trkpt lat="43.6939046" lon="12.2178981"><ele>706.0</ele><time>2026-04-12T13:36:24.013Z</time></trkpt><trkpt lat="43.6938503" lon="12.2181394"><ele>706.3333333333334</ele><time>2026-04-12T13:36:25.014Z</time></trkpt><trkpt lat="43.6937951" lon="12.21837"><ele>706.6666666666666</ele><time>2026-04-12T13:36:26.013Z</time></trkpt><trkpt lat="43.6937388" lon="12.2185901"><ele>707.0</ele><time>2026-04-12T13:36:27.011Z</time></trkpt><trkpt lat="43.6936831" lon="12.2188022"><ele>703.6666666666666</ele><time>2026-04-12T13:36:28.011Z</time></trkpt><trkpt lat="43.6936286" lon="12.2190085"><ele>700.3333333333334</ele><time>2026-04-12T13:36:29.011Z</time></trkpt><trkpt lat="43.6935758" lon="12.2192091"><ele>697.0</ele><time>2026-04-12T13:36:30.013Z</time></trkpt><trkpt lat="43.6935294" lon="12.2194082"><ele>697.0</ele><time>2026-04-12T13:36:31.011Z</time></trkpt><trkpt lat="43.6934923" lon="12.219612"><ele>697.0</ele><time>2026-04-12T13:36:32.013Z</time></trkpt><trkpt lat="43.6934645" lon="12.2198265"><ele>697.0</ele><time>2026-04-12T13:36:33.01Z</time></trkpt><trkpt lat="43.6934337" lon="12.2200448"><ele>701.3333333333334</ele><time>2026-04-12T13:36:34.011Z</time></trkpt><trkpt lat="43.6933904" lon="12.2202572"><ele>705.6666666666666</ele><time>2026-04-12T13:36:35.014Z</time></trkpt><trkpt lat="43.6933356" lon="12.2204527"><ele>710.0</ele><time>2026-04-12T13:36:36.012Z</time></trkpt><trkpt lat="43.6932629" lon="12.2206188"><ele>712.75</ele><time>2026-04-12T13:36:37.012Z</time></trkpt><trkpt lat="43.6931728" lon="12.2207508"><ele>715.5</ele><time>2026-04-12T13:36:38.012Z</time></trkpt><trkpt lat="43.6930736" lon="12.2208667"><ele>718.25</ele><time>2026-04-12T13:36:39.014Z</time></trkpt><trkpt lat="43.6929885" lon="12.220987"><ele>721.0</ele><time>2026-04-12T13:36:40.015Z</time></trkpt><trkpt lat="43.6929169" lon="12.2211174"><ele>721.0</ele><time>2026-04-12T13:36:41.012Z</time></trkpt><trkpt lat="43.6928543" lon="12.2212629"><ele>721.0</ele><time>2026-04-12T13:36:42.012Z</time></trkpt><trkpt lat="43.6927866" lon="12.2214212"><ele>721.0</ele><time>2026-04-12T13:36:43.013Z</time></trkpt><trkpt lat="43.6927187" lon="12.2215957"><ele>721.0</ele><time>2026-04-12T13:36:44.012Z</time></trkpt><trkpt lat="43.6926492" lon="12.2217806"><ele>719.3333333333334</ele><time>2026-04-12T13:36:45.012Z</time></trkpt><trkpt lat="43.6925791" lon="12.2219732"><ele>717.6666666666666</ele><time>2026-04-12T13:36:46.013Z</time></trkpt><trkpt lat="43.6925052" lon="12.2221689"><ele>716.0</ele><time>2026-04-12T13:36:47.01Z</time></trkpt><trkpt lat="43.6924351" lon="12.2223656"><ele>721.0</ele><time>2026-04-12T13:36:48.011Z</time></trkpt><trkpt lat="43.6923637" lon="12.2225649"><ele>726.0</ele><time>2026-04-12T13:36:49.011Z</time></trkpt><trkpt lat="43.6922905" lon="12.222764"><ele>731.0</ele><time>2026-04-12T13:36:50.012Z</time></trkpt><trkpt lat="43.6922153" lon="12.2229565"><ele>731.0</ele><time>2026-04-12T13:36:51.013Z</time></trkpt><trkpt lat="43.6921372" lon="12.2231397"><ele>731.0</ele><time>2026-04-12T13:36:52.012Z</time></trkpt><trkpt lat="43.6920646" lon="12.2233236"><ele>731.0</ele><time>2026-04-12T13:36:53.012Z</time></trkpt><trkpt lat="43.6920034" lon="12.2235094"><ele>729.0</ele><time>2026-04-12T13:36:54.011Z</time></trkpt><trkpt lat="43.6919551" lon="12.2237012"><ele>727.0</ele><time>2026-04-12T13:36:55.012Z</time></trkpt><trkpt lat="43.6919222" lon="12.2238932"><ele>725.0</ele><time>2026-04-12T13:36:56.009Z</time></trkpt><trkpt lat="43.6919037" lon="12.2240892"><ele>723.0</ele><time>2026-04-12T13:36:57.011Z</time></trkpt><trkpt lat="43.6918976" lon="12.2242848"><ele>723.0</ele><time>2026-04-12T13:36:58.011Z</time></trkpt><trkpt lat="43.6919024" lon="12.2244802"><ele>723.0</ele><time>2026-04-12T13:36:59.012Z</time></trkpt><trkpt lat="43.6919132" lon="12.2246765"><ele>723.0</ele><time>2026-04-12T13:37:00.011Z</time></trkpt><trkpt lat="43.691928" lon="12.2248729"><ele>723.0</ele><time>2026-04-12T13:37:01.012Z</time></trkpt><trkpt lat="43.6919408" lon="12.2250707"><ele>729.25</ele><time>2026-04-12T13:37:02.012Z</time></trkpt><trkpt lat="43.6919503" lon="12.2252705"><ele>735.5</ele><time>2026-04-12T13:37:03.011Z</time></trkpt><trkpt lat="43.6919641" lon="12.2254744"><ele>741.75</ele><time>2026-04-12T13:37:04.013Z</time></trkpt><trkpt lat="43.6919781" lon="12.2256758"><ele>748.0</ele><time>2026-04-12T13:37:05.015Z</time></trkpt><trkpt lat="43.6920062" lon="12.2258787"><ele>748.0</ele><time>2026-04-12T13:37:06.011Z</time></trkpt><trkpt lat="43.6920415" lon="12.2260854"><ele>748.0</ele><time>2026-04-12T13:37:07.014Z</time></trkpt><trkpt lat="43.692083" lon="12.2262933"><ele>748.0</ele><time>2026-04-12T13:37:08.012Z</time></trkpt><trkpt lat="43.6921295" lon="12.226502"><ele>748.3333333333334</ele><time>2026-04-12T13:37:09.014Z</time></trkpt><trkpt lat="43.692179" lon="12.2267133"><ele>748.6666666666666</ele><time>2026-04-12T13:37:10.012Z</time></trkpt><trkpt lat="43.6922313" lon="12.2269309"><ele>749.0</ele><time>2026-04-12T13:37:11.011Z</time></trkpt><trkpt lat="43.6922783" lon="12.2271494"><ele>748.75</ele><time>2026-04-12T13:37:12.012Z</time></trkpt><trkpt lat="43.6923127" lon="12.2273642"><ele>748.5</ele><time>2026-04-12T13:37:13.01Z</time></trkpt><trkpt lat="43.6923381" lon="12.227563"><ele>748.25</ele><time>2026-04-12T13:37:14.013Z</time></trkpt><trkpt lat="43.6923559" lon="12.2277326"><ele>748.0</ele><time>2026-04-12T13:37:15.01Z</time></trkpt><trkpt lat="43.6923521" lon="12.2278798"><ele>748.0</ele><time>2026-04-12T13:37:16.015Z</time></trkpt><trkpt lat="43.6923378" lon="12.2280135"><ele>748.0</ele><time>2026-04-12T13:37:17.011Z</time></trkpt><trkpt lat="43.6922948" lon="12.2281441"><ele>748.0</ele><time>2026-04-12T13:37:18.011Z</time></trkpt><trkpt lat="43.6922284" lon="12.2282794"><ele>748.0</ele><time>2026-04-12T13:37:19.012Z</time></trkpt><trkpt lat="43.6921551" lon="12.2284298"><ele>748.0</ele><time>2026-04-12T13:37:20.012Z</time></trkpt><trkpt lat="43.6920868" lon="12.228598"><ele>748.0</ele><time>2026-04-12T13:37:21.012Z</time></trkpt><trkpt lat="43.6920224" lon="12.2287682"><ele>748.0</ele><time>2026-04-12T13:37:22.011Z</time></trkpt><trkpt lat="43.6919597" lon="12.2289353"><ele>748.0</ele><time>2026-04-12T13:37:23.012Z</time></trkpt><trkpt lat="43.6918975" lon="12.2291064"><ele>747.0</ele><time>2026-04-12T13:37:24.011Z</time></trkpt><trkpt lat="43.6918266" lon="12.2292686"><ele>746.0</ele><time>2026-04-12T13:37:25.013Z</time></trkpt><trkpt lat="43.6917623" lon="12.229431"><ele>745.0</ele><time>2026-04-12T13:37:26.013Z</time></trkpt><trkpt lat="43.691695" lon="12.2295819"><ele>744.0</ele><time>2026-04-12T13:37:27.011Z</time></trkpt><trkpt lat="43.691633" lon="12.2297327"><ele>746.0</ele><time>2026-04-12T13:37:28.015Z</time></trkpt><trkpt lat="43.6915721" lon="12.2298848"><ele>748.0</ele><time>2026-04-12T13:37:29.012Z</time></trkpt><trkpt lat="43.6915263" lon="12.2300515"><ele>750.0</ele><time>2026-04-12T13:37:30.013Z</time></trkpt><trkpt lat="43.6914959" lon="12.2302257"><ele>752.0</ele><time>2026-04-12T13:37:31.011Z</time></trkpt><trkpt lat="43.6914861" lon="12.2304111"><ele>752.0</ele><time>2026-04-12T13:37:32.012Z</time></trkpt><trkpt lat="43.6914946" lon="12.2306096"><ele>752.0</ele><time>2026-04-12T13:37:33.011Z</time></trkpt><trkpt lat="43.6915063" lon="12.2308198"><ele>752.0</ele><time>2026-04-12T13:37:34.015Z</time></trkpt><trkpt lat="43.6915171" lon="12.2310402"><ele>753.25</ele><time>2026-04-12T13:37:35.01Z</time></trkpt><trkpt lat="43.6915277" lon="12.2312628"><ele>754.5</ele><time>2026-04-12T13:37:36.012Z</time></trkpt><trkpt lat="43.6915398" lon="12.2314681"><ele>755.75</ele><time>2026-04-12T13:37:37.011Z</time></trkpt><trkpt lat="43.6915468" lon="12.2316574"><ele>757.0</ele><time>2026-04-12T13:37:38.01Z</time></trkpt><trkpt lat="43.6915376" lon="12.2318331"><ele>757.25</ele><time>2026-04-12T13:37:39.016Z</time></trkpt><trkpt lat="43.6915174" lon="12.2320018"><ele>757.5</ele><time>2026-04-12T13:37:40.012Z</time></trkpt><trkpt lat="43.6914786" lon="12.2321739"><ele>757.75</ele><time>2026-04-12T13:37:41.012Z</time></trkpt><trkpt lat="43.6914349" lon="12.2323538"><ele>758.0</ele><time>2026-04-12T13:37:42.011Z</time></trkpt><trkpt lat="43.691382" lon="12.2325441"><ele>759.25</ele><time>2026-04-12T13:37:43.011Z</time></trkpt><trkpt lat="43.6913304" lon="12.2327344"><ele>760.5</ele><time>2026-04-12T13:37:44.013Z</time></trkpt><trkpt lat="43.6912608" lon="12.2329081"><ele>761.75</ele><time>2026-04-12T13:37:45.013Z</time></trkpt><trkpt lat="43.6911733" lon="12.233055"><ele>763.0</ele><time>2026-04-12T13:37:46.013Z</time></trkpt><trkpt lat="43.69108" lon="12.233185"><ele>764.25</ele><time>2026-04-12T13:37:47.01Z</time></trkpt><trkpt lat="43.69098" lon="12.233295"><ele>765.5</ele><time>2026-04-12T13:37:48.01Z</time></trkpt><trkpt lat="43.6908767" lon="12.2333817"><ele>766.75</ele><time>2026-04-12T13:37:49.012Z</time></trkpt><trkpt lat="43.690765" lon="12.2334433"><ele>768.0</ele><time>2026-04-12T13:37:50.011Z</time></trkpt><trkpt lat="43.6906417" lon="12.233475"><ele>768.0</ele><time>2026-04-12T13:37:51.012Z</time></trkpt><trkpt lat="43.690525" lon="12.2334783"><ele>768.0</ele><time>2026-04-12T13:37:52.013Z</time></trkpt><trkpt lat="43.6904083" lon="12.2334617"><ele>768.0</ele><time>2026-04-12T13:37:53.011Z</time></trkpt><trkpt lat="43.6902867" lon="12.2334333"><ele>768.0</ele><time>2026-04-12T13:37:54.012Z</time></trkpt><trkpt lat="43.69017" lon="12.2334117"><ele>770.0</ele><time>2026-04-12T13:37:55.012Z</time></trkpt><trkpt lat="43.6900483" lon="12.233405"><ele>772.0</ele><time>2026-04-12T13:37:56.015Z</time></trkpt><trkpt lat="43.6899267" lon="12.233395"><ele>774.0</ele><time>2026-04-12T13:37:57.011Z</time></trkpt><trkpt lat="43.6898067" lon="12.233365"><ele>776.0</ele><time>2026-04-12T13:37:58.012Z</time></trkpt><trkpt lat="43.68968" lon="12.2333483"><ele>776.0</ele><time>2026-04-12T13:37:59.011Z</time></trkpt><trkpt lat="43.6895617" lon="12.233305"><ele>776.0</ele><time>2026-04-12T13:38:00.012Z</time></trkpt><trkpt lat="43.6894467" lon="12.2332733"><ele>776.0</ele><time>2026-04-12T13:38:01.012Z</time></trkpt><trkpt lat="43.6893417" lon="12.23322"><ele>776.0</ele><time>2026-04-12T13:38:02.014Z</time></trkpt><trkpt lat="43.6892617" lon="12.2331383"><ele>779.4</ele><time>2026-04-12T13:38:03.011Z</time></trkpt><trkpt lat="43.6891933" lon="12.2330317"><ele>782.8</ele><time>2026-04-12T13:38:04.011Z</time></trkpt><trkpt lat="43.689145" lon="12.23291"><ele>786.1999999999999</ele><time>2026-04-12T13:38:05.013Z</time></trkpt><trkpt lat="43.6891133" lon="12.23277"><ele>789.5999999999999</ele><time>2026-04-12T13:38:06.011Z</time></trkpt><trkpt lat="43.6891017" lon="12.232625"><ele>793.0</ele><time>2026-04-12T13:38:07.013Z</time></trkpt><trkpt lat="43.6891133" lon="12.2324733"><ele>793.0</ele><time>2026-04-12T13:38:08.01Z</time></trkpt><trkpt lat="43.68914" lon="12.2323217"><ele>793.0</ele><time>2026-04-12T13:38:09.012Z</time></trkpt><trkpt lat="43.6891767" lon="12.2321667"><ele>793.0</ele><time>2026-04-12T13:38:10.012Z</time></trkpt><trkpt lat="43.6892217" lon="12.2320133"><ele>793.0</ele><time>2026-04-12T13:38:11.011Z</time></trkpt><trkpt lat="43.689265" lon="12.2318533"><ele>792.0</ele><time>2026-04-12T13:38:12.012Z</time></trkpt><trkpt lat="43.68931" lon="12.2316933"><ele>791.0</ele><time>2026-04-12T13:38:13.011Z</time></trkpt><trkpt lat="43.6893567" lon="12.231545"><ele>790.0</ele><time>2026-04-12T13:38:14.011Z</time></trkpt><trkpt lat="43.68941" lon="12.2313983"><ele>789.0</ele><time>2026-04-12T13:38:15.01Z</time></trkpt><trkpt lat="43.6894567" lon="12.2312533"><ele>789.0</ele><time>2026-04-12T13:38:16.011Z</time></trkpt><trkpt lat="43.6894967" lon="12.2311117"><ele>789.0</ele><time>2026-04-12T13:38:17.015Z</time></trkpt><trkpt lat="43.6895283" lon="12.23096"><ele>789.0</ele><time>2026-04-12T13:38:18.013Z</time></trkpt><trkpt lat="43.6895483" lon="12.230805"><ele>789.0</ele><time>2026-04-12T13:38:19.012Z</time></trkpt><trkpt lat="43.68955" lon="12.2306517"><ele>789.0</ele><time>2026-04-12T13:38:20.012Z</time></trkpt><trkpt lat="43.6895367" lon="12.2305067"><ele>786.4000000000001</ele><time>2026-04-12T13:38:21.015Z</time></trkpt><trkpt lat="43.6895017" lon="12.2303667"><ele>783.8</ele><time>2026-04-12T13:38:22.013Z</time></trkpt><trkpt lat="43.689455" lon="12.2302233"><ele>781.2</ele><time>2026-04-12T13:38:23.011Z</time></trkpt><trkpt lat="43.6894017" lon="12.2300867"><ele>778.5999999999999</ele><time>2026-04-12T13:38:24.01Z</time></trkpt><trkpt lat="43.6893383" lon="12.22996"><ele>776.0</ele><time>2026-04-12T13:38:25.011Z</time></trkpt><trkpt lat="43.6892717" lon="12.2298567"><ele>783.1999999999999</ele><time>2026-04-12T13:38:26.012Z</time></trkpt><trkpt lat="43.6891883" lon="12.22976"><ele>790.4</ele><time>2026-04-12T13:38:27.014Z</time></trkpt><trkpt lat="43.6890983" lon="12.2296783"><ele>797.6</ele><time>2026-04-12T13:38:28.01Z</time></trkpt><trkpt lat="43.6890267" lon="12.2295967"><ele>804.8</ele><time>2026-04-12T13:38:29.011Z</time></trkpt><trkpt lat="43.688975" lon="12.2295033"><ele>812.0</ele><time>2026-04-12T13:38:30.01Z</time></trkpt><trkpt lat="43.688945" lon="12.2293917"><ele>812.0</ele><time>2026-04-12T13:38:31.011Z</time></trkpt><trkpt lat="43.68893" lon="12.22927"><ele>812.0</ele><time>2026-04-12T13:38:32.015Z</time></trkpt><trkpt lat="43.688925" lon="12.2291533"><ele>812.0</ele><time>2026-04-12T13:38:33.012Z</time></trkpt><trkpt lat="43.688915" lon="12.2290517"><ele>812.0</ele><time>2026-04-12T13:38:34.013Z</time></trkpt><trkpt lat="43.6888483" lon="12.22892"><ele>812.0</ele><time>2026-04-12T13:38:36.011Z</time></trkpt><trkpt lat="43.6887117" lon="12.2289133"><ele>812.0</ele><time>2026-04-12T13:38:38.013Z</time></trkpt><trkpt lat="43.68862" lon="12.2289333"><ele>812.0</ele><time>2026-04-12T13:38:39.011Z</time></trkpt><trkpt lat="43.6885183" lon="12.2289517"><ele>812.0</ele><time>2026-04-12T13:38:40.012Z</time></trkpt><trkpt lat="43.688405" lon="12.2289433"><ele>812.0</ele><time>2026-04-12T13:38:41.012Z</time></trkpt><trkpt lat="43.688285" lon="12.22892"><ele>812.0</ele><time>2026-04-12T13:38:42.011Z</time></trkpt><trkpt lat="43.688165" lon="12.2288817"><ele>812.0</ele><time>2026-04-12T13:38:43.011Z</time></trkpt><trkpt lat="43.6880483" lon="12.2288333"><ele>812.0</ele><time>2026-04-12T13:38:44.009Z</time></trkpt><trkpt lat="43.6879433" lon="12.22877"><ele>812.0</ele><time>2026-04-12T13:38:45.012Z</time></trkpt><trkpt lat="43.68784" lon="12.22869"><ele>812.0</ele><time>2026-04-12T13:38:46.012Z</time></trkpt><trkpt lat="43.6877317" lon="12.2286017"><ele>817.5</ele><time>2026-04-12T13:38:47.011Z</time></trkpt><trkpt lat="43.6876383" lon="12.228495"><ele>823.0</ele><time>2026-04-12T13:38:48.011Z</time></trkpt><trkpt lat="43.6875533" lon="12.2283767"><ele>828.5</ele><time>2026-04-12T13:38:49.016Z</time></trkpt><trkpt lat="43.68747" lon="12.2282583"><ele>834.0</ele><time>2026-04-12T13:38:50.012Z</time></trkpt><trkpt lat="43.687395" lon="12.2281383"><ele>834.0</ele><time>2026-04-12T13:38:51.011Z</time></trkpt><trkpt lat="43.6873383" lon="12.2280167"><ele>834.0</ele><time>2026-04-12T13:38:52.011Z</time></trkpt><trkpt lat="43.6872967" lon="12.2278933"><ele>834.0</ele><time>2026-04-12T13:38:53.01Z</time></trkpt><trkpt lat="43.6872883" lon="12.2277667"><ele>834.0</ele><time>2026-04-12T13:38:54.012Z</time></trkpt><trkpt lat="43.6872933" lon="12.2276383"><ele>834.0</ele><time>2026-04-12T13:38:55.014Z</time></trkpt><trkpt lat="43.6873217" lon="12.2275117"><ele>834.0</ele><time>2026-04-12T13:38:56.011Z</time></trkpt><trkpt lat="43.6873417" lon="12.22739"><ele>834.0</ele><time>2026-04-12T13:38:57.011Z</time></trkpt><trkpt lat="43.6873467" lon="12.227275"><ele>834.0</ele><time>2026-04-12T13:38:58.012Z</time></trkpt><trkpt lat="43.6873383" lon="12.227165"><ele>834.0</ele><time>2026-04-12T13:38:59.012Z</time></trkpt><trkpt lat="43.68731" lon="12.227075"><ele>834.0</ele><time>2026-04-12T13:39:00.013Z</time></trkpt><trkpt lat="43.6872533" lon="12.2269917"><ele>834.0</ele><time>2026-04-12T13:39:01.012Z</time></trkpt><trkpt lat="43.6871783" lon="12.2269267"><ele>831.2</ele><time>2026-04-12T13:39:02.012Z</time></trkpt><trkpt lat="43.6870767" lon="12.226885"><ele>828.4000000000001</ele><time>2026-04-12T13:39:03.013Z</time></trkpt><trkpt lat="43.6869633" lon="12.2268633"><ele>825.6</ele><time>2026-04-12T13:39:04.01Z</time></trkpt><trkpt lat="43.6868533" lon="12.2268767"><ele>822.8</ele><time>2026-04-12T13:39:05.014Z</time></trkpt><trkpt lat="43.6867467" lon="12.2269033"><ele>820.0</ele><time>2026-04-12T13:39:06.012Z</time></trkpt><trkpt lat="43.68665" lon="12.2269133"><ele>825.6</ele><time>2026-04-12T13:39:07.014Z</time></trkpt><trkpt lat="43.686555" lon="12.226885"><ele>831.2</ele><time>2026-04-12T13:39:08.011Z</time></trkpt><trkpt lat="43.686465" lon="12.226825"><ele>836.8</ele><time>2026-04-12T13:39:09.012Z</time></trkpt><trkpt lat="43.686375" lon="12.2267333"><ele>842.4</ele><time>2026-04-12T13:39:10.014Z</time></trkpt><trkpt lat="43.686285" lon="12.2266183"><ele>848.0</ele><time>2026-04-12T13:39:11.01Z</time></trkpt><trkpt lat="43.6862" lon="12.226495"><ele>850.75</ele><time>2026-04-12T13:39:12.012Z</time></trkpt><trkpt lat="43.68611" lon="12.2263717"><ele>853.5</ele><time>2026-04-12T13:39:13.011Z</time></trkpt><trkpt lat="43.6860267" lon="12.2262517"><ele>856.25</ele><time>2026-04-12T13:39:14.011Z</time></trkpt><trkpt lat="43.6859467" lon="12.2261467"><ele>859.0</ele><time>2026-04-12T13:39:15.013Z</time></trkpt><trkpt lat="43.68586" lon="12.22606"><ele>859.0</ele><time>2026-04-12T13:39:16.014Z</time></trkpt><trkpt lat="43.685765" lon="12.226"><ele>859.0000000000001</ele><time>2026-04-12T13:39:17.012Z</time></trkpt><trkpt lat="43.685655" lon="12.22596"><ele>859.0000000000001</ele><time>2026-04-12T13:39:18.011Z</time></trkpt><trkpt lat="43.68555" lon="12.2259267"><ele>859.0</ele><time>2026-04-12T13:39:19.012Z</time></trkpt><trkpt lat="43.68545" lon="12.2258783"><ele>859.0</ele><time>2026-04-12T13:39:20.011Z</time></trkpt><trkpt lat="43.6853667" lon="12.2258033"><ele>858.9999999999999</ele><time>2026-04-12T13:39:21.013Z</time></trkpt><trkpt lat="43.6853033" lon="12.2257183"><ele>859.0</ele><time>2026-04-12T13:39:22.012Z</time></trkpt><trkpt lat="43.685265" lon="12.225625"><ele>859.0</ele><time>2026-04-12T13:39:23.015Z</time></trkpt><trkpt lat="43.68524" lon="12.2255267"><ele>859.0</ele><time>2026-04-12T13:39:24.011Z</time></trkpt><trkpt lat="43.6852433" lon="12.225415"><ele>858.9999999999999</ele><time>2026-04-12T13:39:25.011Z</time></trkpt><trkpt lat="43.6852567" lon="12.2252967"><ele>859.0</ele><time>2026-04-12T13:39:26.012Z</time></trkpt><trkpt lat="43.6852967" lon="12.225175"><ele>859.0</ele><time>2026-04-12T13:39:27.013Z</time></trkpt><trkpt lat="43.6853567" lon="12.2250567"><ele>859.0000000000001</ele><time>2026-04-12T13:39:28.011Z</time></trkpt><trkpt lat="43.6854233" lon="12.22495"><ele>859.0000000000001</ele><time>2026-04-12T13:39:29.015Z</time></trkpt><trkpt lat="43.68549" lon="12.2248617"><ele>859.0</ele><time>2026-04-12T13:39:30.012Z</time></trkpt><trkpt lat="43.6854733" lon="12.2247633"><ele>859.0</ele><time>2026-04-12T13:39:31.012Z</time></trkpt><trkpt lat="43.6855183" lon="12.2246417"><ele>863.2</ele><time>2026-04-12T13:39:32.012Z</time></trkpt><trkpt lat="43.685555" lon="12.224515"><ele>867.4000000000001</ele><time>2026-04-12T13:39:33.012Z</time></trkpt><trkpt lat="43.6855933" lon="12.2243767"><ele>871.6</ele><time>2026-04-12T13:39:34.013Z</time></trkpt><trkpt lat="43.6856317" lon="12.2242333"><ele>875.8</ele><time>2026-04-12T13:39:35.01Z</time></trkpt><trkpt lat="43.6856683" lon="12.224085"><ele>880.0</ele><time>2026-04-12T13:39:36.012Z</time></trkpt><trkpt lat="43.6857117" lon="12.2239467"><ele>890.0</ele><time>2026-04-12T13:39:37.012Z</time></trkpt><trkpt lat="43.685765" lon="12.2238183"><ele>900.0</ele><time>2026-04-12T13:39:38.011Z</time></trkpt><trkpt lat="43.685835" lon="12.223705"><ele>910.0</ele><time>2026-04-12T13:39:39.012Z</time></trkpt><trkpt lat="43.685925" lon="12.223595"><ele>920.0</ele><time>2026-04-12T13:39:40.011Z</time></trkpt><trkpt lat="43.6860283" lon="12.2234767"><ele>919.25</ele><time>2026-04-12T13:39:41.011Z</time></trkpt><trkpt lat="43.686135" lon="12.2233567"><ele>918.5</ele><time>2026-04-12T13:39:42.012Z</time></trkpt><trkpt lat="43.6862467" lon="12.2232367"><ele>917.75</ele><time>2026-04-12T13:39:43.012Z</time></trkpt><trkpt lat="43.6863517" lon="12.2231167"><ele>917.0</ele><time>2026-04-12T13:39:44.01Z</time></trkpt><trkpt lat="43.6864533" lon="12.2230233"><ele>917.0</ele><time>2026-04-12T13:39:45.013Z</time></trkpt><trkpt lat="43.686565" lon="12.2229567"><ele>917.0</ele><time>2026-04-12T13:39:46.012Z</time></trkpt><trkpt lat="43.6866817" lon="12.2229067"><ele>917.0</ele><time>2026-04-12T13:39:47.012Z</time></trkpt><trkpt lat="43.686795" lon="12.2228483"><ele>917.0</ele><time>2026-04-12T13:39:48.01Z</time></trkpt><trkpt lat="43.6869083" lon="12.2227667"><ele>912.4000000000001</ele><time>2026-04-12T13:39:49.011Z</time></trkpt><trkpt lat="43.6870183" lon="12.2226833"><ele>907.8000000000001</ele><time>2026-04-12T13:39:50.018Z</time></trkpt><trkpt lat="43.687115" lon="12.2226117"><ele>903.2</ele><time>2026-04-12T13:39:51.012Z</time></trkpt><trkpt lat="43.68721" lon="12.2225417"><ele>898.6</ele><time>2026-04-12T13:39:52.014Z</time></trkpt><trkpt lat="43.687295" lon="12.2224667"><ele>894.0</ele><time>2026-04-12T13:39:53.012Z</time></trkpt><trkpt lat="43.68737" lon="12.222375"><ele>896.6</ele><time>2026-04-12T13:39:54.012Z</time></trkpt><trkpt lat="43.6874333" lon="12.22227"><ele>899.2</ele><time>2026-04-12T13:39:55.013Z</time></trkpt><trkpt lat="43.6874867" lon="12.2221583"><ele>901.8000000000001</ele><time>2026-04-12T13:39:56.013Z</time></trkpt><trkpt lat="43.68753" lon="12.2220417"><ele>904.4000000000001</ele><time>2026-04-12T13:39:57.012Z</time></trkpt><trkpt lat="43.6875583" lon="12.221925"><ele>907.0</ele><time>2026-04-12T13:39:58.011Z</time></trkpt><trkpt lat="43.68757" lon="12.221805"><ele>906.9999999999999</ele><time>2026-04-12T13:39:59.014Z</time></trkpt><trkpt lat="43.6875667" lon="12.221685"><ele>907.0</ele><time>2026-04-12T13:40:00.017Z</time></trkpt><trkpt lat="43.6875517" lon="12.2215783"><ele>907.0</ele><time>2026-04-12T13:40:01.011Z</time></trkpt><trkpt lat="43.6875083" lon="12.2214783"><ele>907.0</ele><time>2026-04-12T13:40:02.012Z</time></trkpt><trkpt lat="43.687445" lon="12.2213817"><ele>906.9999999999999</ele><time>2026-04-12T13:40:03.011Z</time></trkpt><trkpt lat="43.6873617" lon="12.221305"><ele>907.0</ele><time>2026-04-12T13:40:04.013Z</time></trkpt><trkpt lat="43.6872767" lon="12.2212583"><ele>905.25</ele><time>2026-04-12T13:40:05.012Z</time></trkpt><trkpt lat="43.6871717" lon="12.2212433"><ele>903.5</ele><time>2026-04-12T13:40:06.013Z</time></trkpt><trkpt lat="43.687015" lon="12.2212767"><ele>901.75</ele><time>2026-04-12T13:40:07.013Z</time></trkpt><trkpt lat="43.6868517" lon="12.221325"><ele>900.0</ele><time>2026-04-12T13:40:08.012Z</time></trkpt><trkpt lat="43.686695" lon="12.2213767"><ele>899.6666666666667</ele><time>2026-04-12T13:40:09.016Z</time></trkpt><trkpt lat="43.686535" lon="12.2214217"><ele>899.3333333333334</ele><time>2026-04-12T13:40:10.012Z</time></trkpt><trkpt lat="43.6863883" lon="12.2214517"><ele>899.0</ele><time>2026-04-12T13:40:11.011Z</time></trkpt><trkpt lat="43.6862483" lon="12.2214567"><ele>899.0</ele><time>2026-04-12T13:40:12.012Z</time></trkpt><trkpt lat="43.686115" lon="12.2214317"><ele>899.0</ele><time>2026-04-12T13:40:13.013Z</time></trkpt><trkpt lat="43.6859933" lon="12.2213783"><ele>899.0</ele><time>2026-04-12T13:40:14.011Z</time></trkpt><trkpt lat="43.68588" lon="12.2212983"><ele>899.0</ele><time>2026-04-12T13:40:15.013Z</time></trkpt><trkpt lat="43.6857783" lon="12.2211817"><ele>900.5</ele><time>2026-04-12T13:40:16.013Z</time></trkpt><trkpt lat="43.6856917" lon="12.2210467"><ele>902.0</ele><time>2026-04-12T13:40:17.012Z</time></trkpt><trkpt lat="43.6856233" lon="12.2209083"><ele>903.5</ele><time>2026-04-12T13:40:18.01Z</time></trkpt><trkpt lat="43.6855533" lon="12.2207833"><ele>905.0</ele><time>2026-04-12T13:40:19.013Z</time></trkpt><trkpt lat="43.685475" lon="12.2206883"><ele>905.4</ele><time>2026-04-12T13:40:20.011Z</time></trkpt><trkpt lat="43.685385" lon="12.2206233"><ele>905.8</ele><time>2026-04-12T13:40:21.014Z</time></trkpt><trkpt lat="43.6852783" lon="12.2206067"><ele>906.2</ele><time>2026-04-12T13:40:22.012Z</time></trkpt><trkpt lat="43.6851617" lon="12.220615"><ele>906.6</ele><time>2026-04-12T13:40:23.012Z</time></trkpt><trkpt lat="43.6850417" lon="12.22065"><ele>907.0</ele><time>2026-04-12T13:40:24.011Z</time></trkpt><trkpt lat="43.6849317" lon="12.2206917"><ele>909.8</ele><time>2026-04-12T13:40:25.012Z</time></trkpt><trkpt lat="43.6848317" lon="12.2207367"><ele>912.6</ele><time>2026-04-12T13:40:26.014Z</time></trkpt><trkpt lat="43.68473" lon="12.22079"><ele>915.3999999999999</ele><time>2026-04-12T13:40:27.011Z</time></trkpt><trkpt lat="43.6846267" lon="12.220845"><ele>918.1999999999999</ele><time>2026-04-12T13:40:28.012Z</time></trkpt><trkpt lat="43.6845233" lon="12.22091"><ele>921.0</ele><time>2026-04-12T13:40:29.012Z</time></trkpt><trkpt lat="43.6844267" lon="12.22099"><ele>921.0</ele><time>2026-04-12T13:40:30.011Z</time></trkpt><trkpt lat="43.6843367" lon="12.221085"><ele>920.9999999999999</ele><time>2026-04-12T13:40:31.013Z</time></trkpt><trkpt lat="43.6842583" lon="12.2211833"><ele>920.9999999999999</ele><time>2026-04-12T13:40:32.015Z</time></trkpt><trkpt lat="43.6841917" lon="12.221265"><ele>921.0</ele><time>2026-04-12T13:40:33.013Z</time></trkpt><trkpt lat="43.6841267" lon="12.22133"><ele>921.0</ele><time>2026-04-12T13:40:34.015Z</time></trkpt><trkpt lat="43.6840633" lon="12.2213867"><ele>921.0000000000001</ele><time>2026-04-12T13:40:35.012Z</time></trkpt><trkpt lat="43.6840007" lon="12.221437"><ele>921.0</ele><time>2026-04-12T13:40:36.013Z</time></trkpt><trkpt lat="43.6839436" lon="12.2214849"><ele>921.0000000000001</ele><time>2026-04-12T13:40:37.012Z</time></trkpt><trkpt lat="43.6838869" lon="12.2215366"><ele>921.0000000000001</ele><time>2026-04-12T13:40:38.012Z</time></trkpt><trkpt lat="43.683829" lon="12.2215946"><ele>921.0</ele><time>2026-04-12T13:40:39.014Z</time></trkpt><trkpt lat="43.6837692" lon="12.2216518"><ele>921.0000000000001</ele><time>2026-04-12T13:40:40.013Z</time></trkpt><trkpt lat="43.6837082" lon="12.221708"><ele>921.0000000000001</ele><time>2026-04-12T13:40:41.012Z</time></trkpt><trkpt lat="43.6836479" lon="12.2217658"><ele>917.1999999999999</ele><time>2026-04-12T13:40:42.013Z</time></trkpt><trkpt lat="43.6835853" lon="12.2218362"><ele>913.3999999999999</ele><time>2026-04-12T13:40:43.013Z</time></trkpt><trkpt lat="43.683516" lon="12.2219181"><ele>909.6</ele><time>2026-04-12T13:40:44.013Z</time></trkpt><trkpt lat="43.6834459" lon="12.222017"><ele>905.8</ele><time>2026-04-12T13:40:45.012Z</time></trkpt><trkpt lat="43.683384" lon="12.2221429"><ele>902.0</ele><time>2026-04-12T13:40:46.016Z</time></trkpt><trkpt lat="43.6833345" lon="12.2222974"><ele>903.5</ele><time>2026-04-12T13:40:47.012Z</time></trkpt><trkpt lat="43.6832958" lon="12.2224791"><ele>905.0</ele><time>2026-04-12T13:40:48.013Z</time></trkpt><trkpt lat="43.6832696" lon="12.2226733"><ele>906.5</ele><time>2026-04-12T13:40:49.013Z</time></trkpt><trkpt lat="43.6832423" lon="12.2228569"><ele>908.0</ele><time>2026-04-12T13:40:50.011Z</time></trkpt><trkpt lat="43.6832165" lon="12.223028"><ele>909.2</ele><time>2026-04-12T13:40:51.012Z</time></trkpt><trkpt lat="43.683182" lon="12.2231847"><ele>910.4</ele><time>2026-04-12T13:40:52.012Z</time></trkpt><trkpt lat="43.6831316" lon="12.2233232"><ele>911.6000000000001</ele><time>2026-04-12T13:40:53.012Z</time></trkpt><trkpt lat="43.6830716" lon="12.2234457"><ele>912.8000000000001</ele><time>2026-04-12T13:40:54.011Z</time></trkpt><trkpt lat="43.6829918" lon="12.2235499"><ele>914.0</ele><time>2026-04-12T13:40:55.012Z</time></trkpt><trkpt lat="43.682887" lon="12.2236411"><ele>904.0</ele><time>2026-04-12T13:40:56.011Z</time></trkpt><trkpt lat="43.6827521" lon="12.2237281"><ele>894.0</ele><time>2026-04-12T13:40:57.012Z</time></trkpt><trkpt lat="43.6826052" lon="12.2238125"><ele>884.0</ele><time>2026-04-12T13:40:58.012Z</time></trkpt><trkpt lat="43.6824669" lon="12.2238973"><ele>887.75</ele><time>2026-04-12T13:40:59.011Z</time></trkpt><trkpt lat="43.6823366" lon="12.2239826"><ele>891.5</ele><time>2026-04-12T13:41:00.014Z</time></trkpt><trkpt lat="43.6822116" lon="12.2240618"><ele>895.25</ele><time>2026-04-12T13:41:01.013Z</time></trkpt><trkpt lat="43.6820942" lon="12.2241294"><ele>899.0</ele><time>2026-04-12T13:41:02.014Z</time></trkpt><trkpt lat="43.6819879" lon="12.2241983"><ele>894.2</ele><time>2026-04-12T13:41:03.015Z</time></trkpt><trkpt lat="43.681894" lon="12.2242807"><ele>889.4000000000001</ele><time>2026-04-12T13:41:04.012Z</time></trkpt><trkpt lat="43.6818131" lon="12.2243741"><ele>884.6</ele><time>2026-04-12T13:41:05.012Z</time></trkpt><trkpt lat="43.6817465" lon="12.2244801"><ele>879.8</ele><time>2026-04-12T13:41:06.011Z</time></trkpt><trkpt lat="43.6816984" lon="12.2245986"><ele>875.0</ele><time>2026-04-12T13:41:07.013Z</time></trkpt><trkpt lat="43.6816704" lon="12.2247255"><ele>875.0</ele><time>2026-04-12T13:41:08.011Z</time></trkpt><trkpt lat="43.6816502" lon="12.2248462"><ele>875.0</ele><time>2026-04-12T13:41:09.014Z</time></trkpt><trkpt lat="43.6816218" lon="12.2249477"><ele>875.0</ele><time>2026-04-12T13:41:10.011Z</time></trkpt><trkpt lat="43.6815143" lon="12.224975"><ele>875.0</ele><time>2026-04-12T13:41:12.012Z</time></trkpt><trkpt lat="43.6814272" lon="12.2248348"><ele>875.0</ele><time>2026-04-12T13:41:14.014Z</time></trkpt><trkpt lat="43.6814073" lon="12.2246903"><ele>875.0</ele><time>2026-04-12T13:41:15.017Z</time></trkpt><trkpt lat="43.6813994" lon="12.2245327"><ele>875.0</ele><time>2026-04-12T13:41:16.012Z</time></trkpt><trkpt lat="43.6814054" lon="12.224381"><ele>875.0</ele><time>2026-04-12T13:41:17.011Z</time></trkpt><trkpt lat="43.6814324" lon="12.2242398"><ele>875.0</ele><time>2026-04-12T13:41:18.012Z</time></trkpt><trkpt lat="43.6814825" lon="12.2241169"><ele>875.0</ele><time>2026-04-12T13:41:19.012Z</time></trkpt><trkpt lat="43.6815586" lon="12.2240121"><ele>871.25</ele><time>2026-04-12T13:41:20.014Z</time></trkpt><trkpt lat="43.6816513" lon="12.2239137"><ele>867.5</ele><time>2026-04-12T13:41:21.012Z</time></trkpt><trkpt lat="43.6817463" lon="12.2238178"><ele>863.75</ele><time>2026-04-12T13:41:22.012Z</time></trkpt><trkpt lat="43.6818378" lon="12.2237246"><ele>860.0</ele><time>2026-04-12T13:41:23.013Z</time></trkpt><trkpt lat="43.681918" lon="12.2236237"><ele>864.6</ele><time>2026-04-12T13:41:24.011Z</time></trkpt><trkpt lat="43.6819818" lon="12.2235112"><ele>869.2</ele><time>2026-04-12T13:41:25.013Z</time></trkpt><trkpt lat="43.6820201" lon="12.223387"><ele>873.8</ele><time>2026-04-12T13:41:26.012Z</time></trkpt><trkpt lat="43.6820279" lon="12.2232634"><ele>878.4</ele><time>2026-04-12T13:41:27.014Z</time></trkpt><trkpt lat="43.6820133" lon="12.2231413"><ele>883.0</ele><time>2026-04-12T13:41:28.014Z</time></trkpt><trkpt lat="43.681981" lon="12.2230357"><ele>882.9999999999999</ele><time>2026-04-12T13:41:29.012Z</time></trkpt><trkpt lat="43.6819439" lon="12.2229505"><ele>883.0</ele><time>2026-04-12T13:41:30.013Z</time></trkpt><trkpt lat="43.6818914" lon="12.2228864"><ele>883.0</ele><time>2026-04-12T13:41:31.011Z</time></trkpt><trkpt lat="43.6818053" lon="12.2228556"><ele>883.0</ele><time>2026-04-12T13:41:32.012Z</time></trkpt><trkpt lat="43.6817065" lon="12.2228182"><ele>882.9999999999999</ele><time>2026-04-12T13:41:33.012Z</time></trkpt><trkpt lat="43.681622" lon="12.2227612"><ele>883.0</ele><time>2026-04-12T13:41:34.012Z</time></trkpt><trkpt lat="43.68155" lon="12.2226831"><ele>878.0</ele><time>2026-04-12T13:41:35.013Z</time></trkpt><trkpt lat="43.6814993" lon="12.2225841"><ele>873.0</ele><time>2026-04-12T13:41:36.017Z</time></trkpt><trkpt lat="43.6814546" lon="12.2224728"><ele>868.0</ele><time>2026-04-12T13:41:37.014Z</time></trkpt><trkpt lat="43.6814214" lon="12.2223534"><ele>863.0</ele><time>2026-04-12T13:41:38.014Z</time></trkpt><trkpt lat="43.6813991" lon="12.2222327"><ele>858.0</ele><time>2026-04-12T13:41:39.014Z</time></trkpt><trkpt lat="43.6813922" lon="12.2221073"><ele>858.0</ele><time>2026-04-12T13:41:40.017Z</time></trkpt><trkpt lat="43.6813997" lon="12.2219775"><ele>858.0</ele><time>2026-04-12T13:41:41.011Z</time></trkpt><trkpt lat="43.6814182" lon="12.22184"><ele>858.0</ele><time>2026-04-12T13:41:42.011Z</time></trkpt><trkpt lat="43.6814348" lon="12.2217063"><ele>858.0</ele><time>2026-04-12T13:41:43.012Z</time></trkpt><trkpt lat="43.6814621" lon="12.2215767"><ele>858.0</ele><time>2026-04-12T13:41:44.01Z</time></trkpt><trkpt lat="43.6814992" lon="12.2214539"><ele>857.1666666666666</ele><time>2026-04-12T13:41:45.013Z</time></trkpt><trkpt lat="43.6815347" lon="12.2213409"><ele>856.3333333333333</ele><time>2026-04-12T13:41:46.011Z</time></trkpt><trkpt lat="43.6815629" lon="12.2212383"><ele>855.5</ele><time>2026-04-12T13:41:47.011Z</time></trkpt><trkpt lat="43.6815798" lon="12.2211378"><ele>854.6666666666666</ele><time>2026-04-12T13:41:48.011Z</time></trkpt><trkpt lat="43.6815792" lon="12.2210445"><ele>853.8333333333333</ele><time>2026-04-12T13:41:49.014Z</time></trkpt><trkpt lat="43.6815522" lon="12.220964"><ele>853.0</ele><time>2026-04-12T13:41:50.014Z</time></trkpt><trkpt lat="43.6814218" lon="12.2210262"><ele>853.0</ele><time>2026-04-12T13:41:52.922Z</time></trkpt><trkpt lat="43.6812734" lon="12.2211681"><ele>853.0</ele><time>2026-04-12T13:41:55.016Z</time></trkpt><trkpt lat="43.6811877" lon="12.2212776"><ele>853.0</ele><time>2026-04-12T13:41:56.011Z</time></trkpt><trkpt lat="43.6811109" lon="12.2213814"><ele>853.0</ele><time>2026-04-12T13:41:57.012Z</time></trkpt><trkpt lat="43.681027" lon="12.221483"><ele>849.4</ele><time>2026-04-12T13:41:58.01Z</time></trkpt><trkpt lat="43.680941" lon="12.221583"><ele>845.8</ele><time>2026-04-12T13:41:59.015Z</time></trkpt><trkpt lat="43.6808673" lon="12.2216827"><ele>842.2</ele><time>2026-04-12T13:42:00.013Z</time></trkpt><trkpt lat="43.6807889" lon="12.2217874"><ele>838.6</ele><time>2026-04-12T13:42:01.015Z</time></trkpt><trkpt lat="43.6807309" lon="12.2218917"><ele>835.0</ele><time>2026-04-12T13:42:02.012Z</time></trkpt><trkpt lat="43.6806885" lon="12.222007"><ele>835.0</ele><time>2026-04-12T13:42:03.013Z</time></trkpt><trkpt lat="43.6806604" lon="12.2221204"><ele>835.0</ele><time>2026-04-12T13:42:04.012Z</time></trkpt><trkpt lat="43.6806619" lon="12.2222531"><ele>835.0</ele><time>2026-04-12T13:42:05.012Z</time></trkpt><trkpt lat="43.680684" lon="12.2223865"><ele>835.0</ele><time>2026-04-12T13:42:06.011Z</time></trkpt><trkpt lat="43.6807054" lon="12.2225154"><ele>835.0</ele><time>2026-04-12T13:42:07.012Z</time></trkpt><trkpt lat="43.6807173" lon="12.2226392"><ele>835.1666666666666</ele><time>2026-04-12T13:42:08.014Z</time></trkpt><trkpt lat="43.6807092" lon="12.2227565"><ele>835.3333333333333</ele><time>2026-04-12T13:42:09.012Z</time></trkpt><trkpt lat="43.6806819" lon="12.2228668"><ele>835.5</ele><time>2026-04-12T13:42:10.013Z</time></trkpt><trkpt lat="43.6806353" lon="12.2229578"><ele>835.6666666666667</ele><time>2026-04-12T13:42:11.011Z</time></trkpt><trkpt lat="43.6805716" lon="12.2230203"><ele>835.8333333333334</ele><time>2026-04-12T13:42:12.012Z</time></trkpt><trkpt lat="43.6804967" lon="12.2230685"><ele>836.0</ele><time>2026-04-12T13:42:13.013Z</time></trkpt><trkpt lat="43.6804236" lon="12.2231246"><ele>836.8</ele><time>2026-04-12T13:42:14.013Z</time></trkpt><trkpt lat="43.6803575" lon="12.223204"><ele>837.5999999999999</ele><time>2026-04-12T13:42:15.013Z</time></trkpt><trkpt lat="43.6803029" lon="12.2233119"><ele>838.4</ele><time>2026-04-12T13:42:16.013Z</time></trkpt><trkpt lat="43.6802675" lon="12.2234456"><ele>839.2</ele><time>2026-04-12T13:42:17.013Z</time></trkpt><trkpt lat="43.6802606" lon="12.2236116"><ele>840.0</ele><time>2026-04-12T13:42:18.012Z</time></trkpt><trkpt lat="43.6802517" lon="12.2237873"><ele>834.75</ele><time>2026-04-12T13:42:19.011Z</time></trkpt><trkpt lat="43.6802272" lon="12.2239585"><ele>829.5</ele><time>2026-04-12T13:42:20.013Z</time></trkpt><trkpt lat="43.680191" lon="12.2241246"><ele>824.25</ele><time>2026-04-12T13:42:21.015Z</time></trkpt><trkpt lat="43.6801516" lon="12.2242809"><ele>819.0</ele><time>2026-04-12T13:42:22.011Z</time></trkpt><trkpt lat="43.6801175" lon="12.2244366"><ele>819.0</ele><time>2026-04-12T13:42:23.012Z</time></trkpt><trkpt lat="43.680089" lon="12.224591"><ele>819.0</ele><time>2026-04-12T13:42:24.012Z</time></trkpt><trkpt lat="43.6800642" lon="12.2247401"><ele>819.0</ele><time>2026-04-12T13:42:25.013Z</time></trkpt><trkpt lat="43.6800398" lon="12.2248842"><ele>819.0</ele><time>2026-04-12T13:42:26.012Z</time></trkpt><trkpt lat="43.680016" lon="12.225022"><ele>819.0</ele><time>2026-04-12T13:42:27.013Z</time></trkpt><trkpt lat="43.6799955" lon="12.2251527"><ele>819.6</ele><time>2026-04-12T13:42:28.011Z</time></trkpt><trkpt lat="43.6799869" lon="12.2252843"><ele>820.2</ele><time>2026-04-12T13:42:29.012Z</time></trkpt><trkpt lat="43.680003" lon="12.2254274"><ele>820.8000000000001</ele><time>2026-04-12T13:42:30.013Z</time></trkpt><trkpt lat="43.6800447" lon="12.2255809"><ele>821.4000000000001</ele><time>2026-04-12T13:42:31.012Z</time></trkpt><trkpt lat="43.6800991" lon="12.2257289"><ele>822.0</ele><time>2026-04-12T13:42:32.013Z</time></trkpt><trkpt lat="43.680154" lon="12.2258658"><ele>821.1666666666666</ele><time>2026-04-12T13:42:33.017Z</time></trkpt><trkpt lat="43.680199" lon="12.2259809"><ele>820.3333333333333</ele><time>2026-04-12T13:42:34.014Z</time></trkpt><trkpt lat="43.6802334" lon="12.2260777"><ele>819.5</ele><time>2026-04-12T13:42:35.012Z</time></trkpt><trkpt lat="43.6802582" lon="12.2261733"><ele>818.6666666666666</ele><time>2026-04-12T13:42:36.013Z</time></trkpt><trkpt lat="43.6802702" lon="12.2262642"><ele>817.8333333333333</ele><time>2026-04-12T13:42:37.017Z</time></trkpt><trkpt lat="43.6802624" lon="12.2263522"><ele>817.0</ele><time>2026-04-12T13:42:38.012Z</time></trkpt><trkpt lat="43.6802035" lon="12.2264876"><ele>817.0</ele><time>2026-04-12T13:42:40.014Z</time></trkpt><trkpt lat="43.6800615" lon="12.2264834"><ele>817.0</ele><time>2026-04-12T13:42:42.013Z</time></trkpt><trkpt lat="43.6799749" lon="12.2264365"><ele>817.0</ele><time>2026-04-12T13:42:43.014Z</time></trkpt><trkpt lat="43.6798816" lon="12.226352"><ele>817.0</ele><time>2026-04-12T13:42:44.012Z</time></trkpt><trkpt lat="43.6797722" lon="12.2262358"><ele>816.75</ele><time>2026-04-12T13:42:45.014Z</time></trkpt><trkpt lat="43.6796512" lon="12.2261318"><ele>816.5</ele><time>2026-04-12T13:42:46.014Z</time></trkpt><trkpt lat="43.6795217" lon="12.2260577"><ele>816.25</ele><time>2026-04-12T13:42:47.014Z</time></trkpt><trkpt lat="43.6793964" lon="12.2259982"><ele>816.0</ele><time>2026-04-12T13:42:48.013Z</time></trkpt><trkpt lat="43.6792822" lon="12.2259292"><ele>815.75</ele><time>2026-04-12T13:42:49.012Z</time></trkpt><trkpt lat="43.6791722" lon="12.2258342"><ele>815.5</ele><time>2026-04-12T13:42:50.012Z</time></trkpt><trkpt lat="43.679065" lon="12.225713"><ele>815.25</ele><time>2026-04-12T13:42:51.014Z</time></trkpt><trkpt lat="43.6789626" lon="12.2255727"><ele>815.0</ele><time>2026-04-12T13:42:52.014Z</time></trkpt><trkpt lat="43.6788589" lon="12.2254192"><ele>814.0</ele><time>2026-04-12T13:42:53.012Z</time></trkpt><trkpt lat="43.6787431" lon="12.2252545"><ele>813.0</ele><time>2026-04-12T13:42:54.013Z</time></trkpt><trkpt lat="43.6786237" lon="12.2250747"><ele>812.0</ele><time>2026-04-12T13:42:55.012Z</time></trkpt><trkpt lat="43.6785135" lon="12.2248828"><ele>810.3333333333334</ele><time>2026-04-12T13:42:56.013Z</time></trkpt><trkpt lat="43.6784006" lon="12.2246757"><ele>808.6666666666667</ele><time>2026-04-12T13:42:57.012Z</time></trkpt><trkpt lat="43.6782946" lon="12.2244566"><ele>807.0</ele><time>2026-04-12T13:42:58.014Z</time></trkpt><trkpt lat="43.6781966" lon="12.2242503"><ele>807.0</ele><time>2026-04-12T13:42:59.012Z</time></trkpt><trkpt lat="43.6781137" lon="12.2240756"><ele>807.0</ele><time>2026-04-12T13:43:00.013Z</time></trkpt><trkpt lat="43.6780466" lon="12.223931"><ele>807.0</ele><time>2026-04-12T13:43:01.012Z</time></trkpt><trkpt lat="43.6779815" lon="12.2238148"><ele>807.0</ele><time>2026-04-12T13:43:02.012Z</time></trkpt><trkpt lat="43.677912" lon="12.2237293"><ele>805.8</ele><time>2026-04-12T13:43:03.014Z</time></trkpt><trkpt lat="43.6778355" lon="12.2236664"><ele>804.6</ele><time>2026-04-12T13:43:04.01Z</time></trkpt><trkpt lat="43.6777424" lon="12.2236256"><ele>803.4</ele><time>2026-04-12T13:43:05.011Z</time></trkpt><trkpt lat="43.6776442" lon="12.2235986"><ele>802.1999999999999</ele><time>2026-04-12T13:43:06.012Z</time></trkpt><trkpt lat="43.6775438" lon="12.2235603"><ele>801.0</ele><time>2026-04-12T13:43:07.012Z</time></trkpt><trkpt lat="43.6774484" lon="12.2234923"><ele>804.1999999999999</ele><time>2026-04-12T13:43:08.014Z</time></trkpt><trkpt lat="43.6773561" lon="12.2234003"><ele>807.4</ele><time>2026-04-12T13:43:09.016Z</time></trkpt><trkpt lat="43.6772834" lon="12.2232846"><ele>810.6</ele><time>2026-04-12T13:43:10.012Z</time></trkpt><trkpt lat="43.6772236" lon="12.2231678"><ele>813.8</ele><time>2026-04-12T13:43:11.014Z</time></trkpt><trkpt lat="43.6771616" lon="12.2230559"><ele>817.0</ele><time>2026-04-12T13:43:12.013Z</time></trkpt><trkpt lat="43.6770925" lon="12.2229426"><ele>817.0</ele><time>2026-04-12T13:43:13.013Z</time></trkpt><trkpt lat="43.6770215" lon="12.2228186"><ele>817.0</ele><time>2026-04-12T13:43:14.011Z</time></trkpt><trkpt lat="43.6769616" lon="12.2226814"><ele>817.0</ele><time>2026-04-12T13:43:15.013Z</time></trkpt><trkpt lat="43.6769205" lon="12.2225378"><ele>817.0</ele><time>2026-04-12T13:43:16.013Z</time></trkpt><trkpt lat="43.6769021" lon="12.2223917"><ele>817.0</ele><time>2026-04-12T13:43:17.013Z</time></trkpt><trkpt lat="43.6769002" lon="12.2222469"><ele>816.4000000000001</ele><time>2026-04-12T13:43:18.014Z</time></trkpt><trkpt lat="43.6769101" lon="12.2221106"><ele>815.8000000000001</ele><time>2026-04-12T13:43:19.014Z</time></trkpt><trkpt lat="43.676932" lon="12.2219664"><ele>815.2</ele><time>2026-04-12T13:43:20.012Z</time></trkpt><trkpt lat="43.6769623" lon="12.2218285"><ele>814.6</ele><time>2026-04-12T13:43:21.014Z</time></trkpt><trkpt lat="43.6769911" lon="12.2217052"><ele>814.0</ele><time>2026-04-12T13:43:22.013Z</time></trkpt><trkpt lat="43.6770143" lon="12.2215892"><ele>814.0</ele><time>2026-04-12T13:43:23.013Z</time></trkpt><trkpt lat="43.6770226" lon="12.2214748"><ele>814.0</ele><time>2026-04-12T13:43:24.011Z</time></trkpt><trkpt lat="43.6770185" lon="12.2213572"><ele>814.0</ele><time>2026-04-12T13:43:25.014Z</time></trkpt><trkpt lat="43.6770025" lon="12.2212326"><ele>814.0</ele><time>2026-04-12T13:43:26.013Z</time></trkpt><trkpt lat="43.6769682" lon="12.2211059"><ele>814.0</ele><time>2026-04-12T13:43:27.012Z</time></trkpt><trkpt lat="43.6769189" lon="12.2209836"><ele>814.0</ele><time>2026-04-12T13:43:28.011Z</time></trkpt><trkpt lat="43.6768545" lon="12.220873"><ele>814.0</ele><time>2026-04-12T13:43:29.013Z</time></trkpt><trkpt lat="43.6767821" lon="12.2207694"><ele>814.0</ele><time>2026-04-12T13:43:30.012Z</time></trkpt><trkpt lat="43.6767125" lon="12.2206682"><ele>814.0</ele><time>2026-04-12T13:43:31.013Z</time></trkpt><trkpt lat="43.676646" lon="12.2205692"><ele>814.0</ele><time>2026-04-12T13:43:32.012Z</time></trkpt><trkpt lat="43.6765829" lon="12.2204785"><ele>811.3333333333333</ele><time>2026-04-12T13:43:33.014Z</time></trkpt><trkpt lat="43.6765191" lon="12.2204088"><ele>808.6666666666666</ele><time>2026-04-12T13:43:34.012Z</time></trkpt><trkpt lat="43.6764488" lon="12.2203579"><ele>806.0</ele><time>2026-04-12T13:43:35.014Z</time></trkpt><trkpt lat="43.6763705" lon="12.2203263"><ele>803.3333333333333</ele><time>2026-04-12T13:43:36.016Z</time></trkpt><trkpt lat="43.6762825" lon="12.220312"><ele>800.6666666666666</ele><time>2026-04-12T13:43:37.015Z</time></trkpt><trkpt lat="43.6761724" lon="12.2203361"><ele>798.0</ele><time>2026-04-12T13:43:38.013Z</time></trkpt><trkpt lat="43.6760548" lon="12.2203734"><ele>797.75</ele><time>2026-04-12T13:43:39.014Z</time></trkpt><trkpt lat="43.675939" lon="12.2204104"><ele>797.5</ele><time>2026-04-12T13:43:40.013Z</time></trkpt><trkpt lat="43.6758284" lon="12.2204224"><ele>797.25</ele><time>2026-04-12T13:43:41.013Z</time></trkpt><trkpt lat="43.6757222" lon="12.220402"><ele>797.0</ele><time>2026-04-12T13:43:42.015Z</time></trkpt><trkpt lat="43.6756157" lon="12.2203518"><ele>797.0</ele><time>2026-04-12T13:43:43.014Z</time></trkpt><trkpt lat="43.6755101" lon="12.2202595"><ele>797.0</ele><time>2026-04-12T13:43:44.014Z</time></trkpt><trkpt lat="43.675411" lon="12.2201421"><ele>797.0</ele><time>2026-04-12T13:43:45.014Z</time></trkpt><trkpt lat="43.675303" lon="12.2200278"><ele>797.0</ele><time>2026-04-12T13:43:46.012Z</time></trkpt><trkpt lat="43.6751981" lon="12.2199258"><ele>797.8</ele><time>2026-04-12T13:43:47.014Z</time></trkpt><trkpt lat="43.6750957" lon="12.2198331"><ele>798.6</ele><time>2026-04-12T13:43:48.014Z</time></trkpt><trkpt lat="43.6750049" lon="12.2197396"><ele>799.4</ele><time>2026-04-12T13:43:49.014Z</time></trkpt><trkpt lat="43.6749291" lon="12.2196402"><ele>800.1999999999999</ele><time>2026-04-12T13:43:50.014Z</time></trkpt><trkpt lat="43.6748596" lon="12.2195332"><ele>801.0</ele><time>2026-04-12T13:43:51.013Z</time></trkpt><trkpt lat="43.6747987" lon="12.2194277"><ele>798.1666666666666</ele><time>2026-04-12T13:43:52.013Z</time></trkpt><trkpt lat="43.6747327" lon="12.2193394"><ele>795.3333333333333</ele><time>2026-04-12T13:43:53.012Z</time></trkpt><trkpt lat="43.6746584" lon="12.2192702"><ele>792.5</ele><time>2026-04-12T13:43:54.013Z</time></trkpt><trkpt lat="43.6745817" lon="12.2192173"><ele>789.6666666666666</ele><time>2026-04-12T13:43:55.015Z</time></trkpt><trkpt lat="43.6745007" lon="12.2191824"><ele>786.8333333333333</ele><time>2026-04-12T13:43:56.014Z</time></trkpt><trkpt lat="43.6744117" lon="12.2191663"><ele>784.0</ele><time>2026-04-12T13:43:57.013Z</time></trkpt><trkpt lat="43.6743112" lon="12.2191683"><ele>783.75</ele><time>2026-04-12T13:43:58.012Z</time></trkpt><trkpt lat="43.6741972" lon="12.2191911"><ele>783.5</ele><time>2026-04-12T13:43:59.014Z</time></trkpt><trkpt lat="43.6740676" lon="12.2192245"><ele>783.25</ele><time>2026-04-12T13:44:00.012Z</time></trkpt><trkpt lat="43.6739257" lon="12.2192662"><ele>783.0</ele><time>2026-04-12T13:44:01.013Z</time></trkpt><trkpt lat="43.6737816" lon="12.2193103"><ele>783.0</ele><time>2026-04-12T13:44:02.014Z</time></trkpt><trkpt lat="43.6736373" lon="12.2193519"><ele>783.0</ele><time>2026-04-12T13:44:03.014Z</time></trkpt><trkpt lat="43.6734925" lon="12.219391"><ele>783.0</ele><time>2026-04-12T13:44:04.012Z</time></trkpt><trkpt lat="43.6733445" lon="12.2194264"><ele>783.0</ele><time>2026-04-12T13:44:05.013Z</time></trkpt><trkpt lat="43.6731902" lon="12.2194552"><ele>780.25</ele><time>2026-04-12T13:44:06.013Z</time></trkpt><trkpt lat="43.673039" lon="12.2194793"><ele>777.5</ele><time>2026-04-12T13:44:07.014Z</time></trkpt><trkpt lat="43.6728979" lon="12.2194954"><ele>774.75</ele><time>2026-04-12T13:44:08.013Z</time></trkpt><trkpt lat="43.6727658" lon="12.2195068"><ele>772.0</ele><time>2026-04-12T13:44:09.015Z</time></trkpt><trkpt lat="43.6726483" lon="12.2195208"><ele>770.0</ele><time>2026-04-12T13:44:10.012Z</time></trkpt><trkpt lat="43.6725363" lon="12.2195434"><ele>768.0</ele><time>2026-04-12T13:44:11.017Z</time></trkpt><trkpt lat="43.672421" lon="12.2195818"><ele>766.0</ele><time>2026-04-12T13:44:12.012Z</time></trkpt><trkpt lat="43.6723043" lon="12.2196347"><ele>764.0</ele><time>2026-04-12T13:44:13.013Z</time></trkpt><trkpt lat="43.6721888" lon="12.2197002"><ele>764.0</ele><time>2026-04-12T13:44:14.013Z</time></trkpt><trkpt lat="43.6720795" lon="12.2197655"><ele>764.0</ele><time>2026-04-12T13:44:15.013Z</time></trkpt><trkpt lat="43.671972" lon="12.2198163"><ele>764.0</ele><time>2026-04-12T13:44:16.014Z</time></trkpt><trkpt lat="43.6718658" lon="12.2198524"><ele>764.0</ele><time>2026-04-12T13:44:17.013Z</time></trkpt><trkpt lat="43.6717676" lon="12.219891"><ele>764.0</ele><time>2026-04-12T13:44:18.012Z</time></trkpt><trkpt lat="43.6716769" lon="12.2199339"><ele>766.4000000000001</ele><time>2026-04-12T13:44:19.015Z</time></trkpt><trkpt lat="43.6715919" lon="12.2199763"><ele>768.8</ele><time>2026-04-12T13:44:20.011Z</time></trkpt><trkpt lat="43.6715096" lon="12.220022"><ele>771.2</ele><time>2026-04-12T13:44:21.012Z</time></trkpt><trkpt lat="43.6714272" lon="12.2200771"><ele>773.5999999999999</ele><time>2026-04-12T13:44:22.012Z</time></trkpt><trkpt lat="43.6713458" lon="12.2201402"><ele>776.0</ele><time>2026-04-12T13:44:23.011Z</time></trkpt><trkpt lat="43.671268" lon="12.2201991"><ele>776.0000000000001</ele><time>2026-04-12T13:44:24.014Z</time></trkpt><trkpt lat="43.6711891" lon="12.220252"><ele>776.0</ele><time>2026-04-12T13:44:25.013Z</time></trkpt><trkpt lat="43.6711105" lon="12.2202939"><ele>776.0</ele><time>2026-04-12T13:44:26.014Z</time></trkpt><trkpt lat="43.6710337" lon="12.2203144"><ele>776.0</ele><time>2026-04-12T13:44:27.015Z</time></trkpt><trkpt lat="43.6709679" lon="12.220309"><ele>776.0000000000001</ele><time>2026-04-12T13:44:28.012Z</time></trkpt><trkpt lat="43.6708795" lon="12.2201853"><ele>776.0</ele><time>2026-04-12T13:44:30.013Z</time></trkpt><trkpt lat="43.6708584" lon="12.2200969"><ele>773.0</ele><time>2026-04-12T13:44:31.013Z</time></trkpt><trkpt lat="43.6708908" lon="12.2199956"><ele>770.0</ele><time>2026-04-12T13:44:32.013Z</time></trkpt><trkpt lat="43.6709408" lon="12.2198922"><ele>767.0</ele><time>2026-04-12T13:44:33.015Z</time></trkpt><trkpt lat="43.6710234" lon="12.2197942"><ele>764.0</ele><time>2026-04-12T13:44:34.012Z</time></trkpt><trkpt lat="43.6711232" lon="12.2197051"><ele>761.0</ele><time>2026-04-12T13:44:35.012Z</time></trkpt><trkpt lat="43.6712192" lon="12.2196253"><ele>760.8333333333333</ele><time>2026-04-12T13:44:36.013Z</time></trkpt><trkpt lat="43.6713122" lon="12.2195558"><ele>760.6666666666666</ele><time>2026-04-12T13:44:37.014Z</time></trkpt><trkpt lat="43.6713947" lon="12.2194919"><ele>760.5</ele><time>2026-04-12T13:44:38.013Z</time></trkpt><trkpt lat="43.6714611" lon="12.2194226"><ele>760.3333333333334</ele><time>2026-04-12T13:44:39.013Z</time></trkpt><trkpt lat="43.6715155" lon="12.2193412"><ele>760.1666666666667</ele><time>2026-04-12T13:44:40.011Z</time></trkpt><trkpt lat="43.6715486" lon="12.2192457"><ele>760.0</ele><time>2026-04-12T13:44:41.011Z</time></trkpt><trkpt lat="43.6715604" lon="12.2191451"><ele>760.0</ele><time>2026-04-12T13:44:42.014Z</time></trkpt><trkpt lat="43.6715546" lon="12.2190518"><ele>760.0</ele><time>2026-04-12T13:44:43.013Z</time></trkpt><trkpt lat="43.6714993" lon="12.2189916"><ele>760.0</ele><time>2026-04-12T13:44:44.013Z</time></trkpt><trkpt lat="43.6714335" lon="12.2189608"><ele>760.0</ele><time>2026-04-12T13:44:45.013Z</time></trkpt><trkpt lat="43.6713384" lon="12.2189793"><ele>760.0</ele><time>2026-04-12T13:44:46.013Z</time></trkpt><trkpt lat="43.6712362" lon="12.2190248"><ele>760.0</ele><time>2026-04-12T13:44:47.013Z</time></trkpt><trkpt lat="43.6711264" lon="12.2190974"><ele>757.5</ele><time>2026-04-12T13:44:48.012Z</time></trkpt><trkpt lat="43.671015" lon="12.2191839"><ele>755.0</ele><time>2026-04-12T13:44:49.014Z</time></trkpt><trkpt lat="43.6708987" lon="12.2192651"><ele>752.5</ele><time>2026-04-12T13:44:50.011Z</time></trkpt><trkpt lat="43.6707923" lon="12.2193465"><ele>750.0</ele><time>2026-04-12T13:44:51.011Z</time></trkpt><trkpt lat="43.6706937" lon="12.2194354"><ele>750.0</ele><time>2026-04-12T13:44:52.015Z</time></trkpt><trkpt lat="43.6706008" lon="12.2195308"><ele>750.0</ele><time>2026-04-12T13:44:53.013Z</time></trkpt><trkpt lat="43.6705145" lon="12.2196316"><ele>750.0</ele><time>2026-04-12T13:44:54.011Z</time></trkpt><trkpt lat="43.6704408" lon="12.2197373"><ele>750.0</ele><time>2026-04-12T13:44:55.013Z</time></trkpt><trkpt lat="43.6703719" lon="12.219838"><ele>750.0</ele><time>2026-04-12T13:44:56.012Z</time></trkpt><trkpt lat="43.6703008" lon="12.2199222"><ele>749.6</ele><time>2026-04-12T13:44:57.014Z</time></trkpt><trkpt lat="43.670225" lon="12.219977"><ele>749.2</ele><time>2026-04-12T13:44:58.011Z</time></trkpt><trkpt lat="43.6701401" lon="12.2199996"><ele>748.8</ele><time>2026-04-12T13:44:59.011Z</time></trkpt><trkpt lat="43.6700488" lon="12.2199963"><ele>748.4</ele><time>2026-04-12T13:45:00.011Z</time></trkpt><trkpt lat="43.6699523" lon="12.2199646"><ele>748.0</ele><time>2026-04-12T13:45:01.017Z</time></trkpt><trkpt lat="43.6698501" lon="12.2198813"><ele>743.75</ele><time>2026-04-12T13:45:02.013Z</time></trkpt><trkpt lat="43.6697525" lon="12.2197782"><ele>739.5</ele><time>2026-04-12T13:45:03.012Z</time></trkpt><trkpt lat="43.6696612" lon="12.219677"><ele>735.25</ele><time>2026-04-12T13:45:04.011Z</time></trkpt><trkpt lat="43.6695721" lon="12.2195901"><ele>731.0</ele><time>2026-04-12T13:45:05.011Z</time></trkpt><trkpt lat="43.6694839" lon="12.2195196"><ele>729.0</ele><time>2026-04-12T13:45:06.011Z</time></trkpt><trkpt lat="43.6693978" lon="12.2194681"><ele>727.0</ele><time>2026-04-12T13:45:07.013Z</time></trkpt><trkpt lat="43.6693057" lon="12.2194398"><ele>725.0</ele><time>2026-04-12T13:45:08.013Z</time></trkpt><trkpt lat="43.6692136" lon="12.2194307"><ele>723.0</ele><time>2026-04-12T13:45:09.014Z</time></trkpt><trkpt lat="43.6691262" lon="12.2194417"><ele>721.0</ele><time>2026-04-12T13:45:10.013Z</time></trkpt><trkpt lat="43.6690492" lon="12.2194851"><ele>721.0</ele><time>2026-04-12T13:45:11.012Z</time></trkpt><trkpt lat="43.6689809" lon="12.2195521"><ele>721.0</ele><time>2026-04-12T13:45:12.013Z</time></trkpt><trkpt lat="43.6689403" lon="12.2196717"><ele>721.0</ele><time>2026-04-12T13:45:13.013Z</time></trkpt><trkpt lat="43.6689239" lon="12.2198228"><ele>721.0</ele><time>2026-04-12T13:45:14.014Z</time></trkpt><trkpt lat="43.6689252" lon="12.2199975"><ele>721.0</ele><time>2026-04-12T13:45:15.013Z</time></trkpt><trkpt lat="43.6689438" lon="12.2201928"><ele>724.25</ele><time>2026-04-12T13:45:16.013Z</time></trkpt><trkpt lat="43.6689675" lon="12.2203914"><ele>727.5</ele><time>2026-04-12T13:45:17.012Z</time></trkpt><trkpt lat="43.668992" lon="12.2205951"><ele>730.75</ele><time>2026-04-12T13:45:18.012Z</time></trkpt><trkpt lat="43.6690143" lon="12.2207941"><ele>734.0</ele><time>2026-04-12T13:45:19.013Z</time></trkpt><trkpt lat="43.6690337" lon="12.2209793"><ele>734.0</ele><time>2026-04-12T13:45:20.014Z</time></trkpt><trkpt lat="43.6690541" lon="12.2211596"><ele>734.0</ele><time>2026-04-12T13:45:21.013Z</time></trkpt><trkpt lat="43.6690825" lon="12.2213472"><ele>734.0</ele><time>2026-04-12T13:45:22.014Z</time></trkpt><trkpt lat="43.6691072" lon="12.2215229"><ele>734.0</ele><time>2026-04-12T13:45:23.012Z</time></trkpt><trkpt lat="43.6691282" lon="12.2216872"><ele>732.8000000000001</ele><time>2026-04-12T13:45:24.013Z</time></trkpt><trkpt lat="43.669143" lon="12.221841"><ele>731.6</ele><time>2026-04-12T13:45:25.015Z</time></trkpt><trkpt lat="43.6691536" lon="12.221988"><ele>730.4</ele><time>2026-04-12T13:45:26.013Z</time></trkpt><trkpt lat="43.6691641" lon="12.2221293"><ele>729.2</ele><time>2026-04-12T13:45:27.015Z</time></trkpt><trkpt lat="43.6691782" lon="12.2222589"><ele>728.0</ele><time>2026-04-12T13:45:28.013Z</time></trkpt><trkpt lat="43.6691872" lon="12.2223829"><ele>728.0</ele><time>2026-04-12T13:45:29.013Z</time></trkpt><trkpt lat="43.6691861" lon="12.2225066"><ele>728.0</ele><time>2026-04-12T13:45:30.015Z</time></trkpt><trkpt lat="43.6691693" lon="12.222631"><ele>728.0</ele><time>2026-04-12T13:45:31.014Z</time></trkpt><trkpt lat="43.6691313" lon="12.2227476"><ele>728.0</ele><time>2026-04-12T13:45:32.013Z</time></trkpt><trkpt lat="43.6690746" lon="12.2228375"><ele>728.0</ele><time>2026-04-12T13:45:33.015Z</time></trkpt><trkpt lat="43.6690078" lon="12.2229017"><ele>728.0</ele><time>2026-04-12T13:45:34.013Z</time></trkpt><trkpt lat="43.6689314" lon="12.2229324"><ele>728.0</ele><time>2026-04-12T13:45:35.014Z</time></trkpt><trkpt lat="43.6688425" lon="12.2229137"><ele>728.0</ele><time>2026-04-12T13:45:36.014Z</time></trkpt><trkpt lat="43.6687465" lon="12.2228672"><ele>728.0</ele><time>2026-04-12T13:45:37.012Z</time></trkpt><trkpt lat="43.6686466" lon="12.2227681"><ele>728.0</ele><time>2026-04-12T13:45:38.012Z</time></trkpt><trkpt lat="43.6685458" lon="12.2226547"><ele>728.0</ele><time>2026-04-12T13:45:39.014Z</time></trkpt><trkpt lat="43.6684466" lon="12.2225618"><ele>725.4</ele><time>2026-04-12T13:45:40.011Z</time></trkpt><trkpt lat="43.6683518" lon="12.2224954"><ele>722.8</ele><time>2026-04-12T13:45:41.016Z</time></trkpt><trkpt lat="43.668257" lon="12.2224507"><ele>720.2</ele><time>2026-04-12T13:45:42.014Z</time></trkpt><trkpt lat="43.6681604" lon="12.2224353"><ele>717.6</ele><time>2026-04-12T13:45:43.012Z</time></trkpt><trkpt lat="43.6680692" lon="12.2224444"><ele>715.0</ele><time>2026-04-12T13:45:44.012Z</time></trkpt><trkpt lat="43.6679846" lon="12.2224729"><ele>715.0</ele><time>2026-04-12T13:45:45.013Z</time></trkpt><trkpt lat="43.6679059" lon="12.2225204"><ele>715.0</ele><time>2026-04-12T13:45:46.013Z</time></trkpt><trkpt lat="43.6678337" lon="12.2225899"><ele>715.0</ele><time>2026-04-12T13:45:47.011Z</time></trkpt><trkpt lat="43.6677686" lon="12.2226775"><ele>715.0</ele><time>2026-04-12T13:45:48.015Z</time></trkpt><trkpt lat="43.6677059" lon="12.2227589"><ele>715.0</ele><time>2026-04-12T13:45:49.012Z</time></trkpt><trkpt lat="43.6676366" lon="12.2228213"><ele>715.0</ele><time>2026-04-12T13:45:50.015Z</time></trkpt><trkpt lat="43.66755" lon="12.2228615"><ele>712.0</ele><time>2026-04-12T13:45:51.013Z</time></trkpt><trkpt lat="43.6674447" lon="12.2228563"><ele>709.0</ele><time>2026-04-12T13:45:52.013Z</time></trkpt><trkpt lat="43.6673401" lon="12.2228353"><ele>706.0</ele><time>2026-04-12T13:45:53.013Z</time></trkpt><trkpt lat="43.667241" lon="12.2228074"><ele>703.0</ele><time>2026-04-12T13:45:54.013Z</time></trkpt><trkpt lat="43.6671446" lon="12.2227863"><ele>700.0</ele><time>2026-04-12T13:45:55.013Z</time></trkpt><trkpt lat="43.6670493" lon="12.2227864"><ele>700.0</ele><time>2026-04-12T13:45:56.012Z</time></trkpt><trkpt lat="43.6669568" lon="12.2228071"><ele>700.0</ele><time>2026-04-12T13:45:57.013Z</time></trkpt><trkpt lat="43.6668669" lon="12.2228397"><ele>700.0</ele><time>2026-04-12T13:45:58.015Z</time></trkpt><trkpt lat="43.6667839" lon="12.2228814"><ele>700.0</ele><time>2026-04-12T13:45:59.02Z</time></trkpt><trkpt lat="43.6667056" lon="12.2229197"><ele>700.0</ele><time>2026-04-12T13:46:00.012Z</time></trkpt><trkpt lat="43.6666317" lon="12.222938"><ele>700.0</ele><time>2026-04-12T13:46:01.013Z</time></trkpt><trkpt lat="43.6665653" lon="12.2229329"><ele>698.0</ele><time>2026-04-12T13:46:02.012Z</time></trkpt><trkpt lat="43.6665045" lon="12.2228937"><ele>696.0</ele><time>2026-04-12T13:46:03.013Z</time></trkpt><trkpt lat="43.666462" lon="12.2228279"><ele>694.0</ele><time>2026-04-12T13:46:04.01Z</time></trkpt><trkpt lat="43.6664758" lon="12.2226512"><ele>692.0</ele><time>2026-04-12T13:46:06.011Z</time></trkpt><trkpt lat="43.66653" lon="12.2225713"><ele>690.0</ele><time>2026-04-12T13:46:07.014Z</time></trkpt><trkpt lat="43.6666085" lon="12.2225089"><ele>688.0</ele><time>2026-04-12T13:46:08.011Z</time></trkpt><trkpt lat="43.6666931" lon="12.2224678"><ele>688.0</ele><time>2026-04-12T13:46:09.013Z</time></trkpt><trkpt lat="43.6667969" lon="12.2224457"><ele>688.0</ele><time>2026-04-12T13:46:10.014Z</time></trkpt><trkpt lat="43.6669066" lon="12.2224366"><ele>688.0</ele><time>2026-04-12T13:46:11.013Z</time></trkpt><trkpt lat="43.6670066" lon="12.222427"><ele>688.0</ele><time>2026-04-12T13:46:12.015Z</time></trkpt><trkpt lat="43.6671058" lon="12.2224149"><ele>688.0</ele><time>2026-04-12T13:46:13.013Z</time></trkpt><trkpt lat="43.6671991" lon="12.2224054"><ele>686.8333333333334</ele><time>2026-04-12T13:46:14.013Z</time></trkpt><trkpt lat="43.6672858" lon="12.2223869"><ele>685.6666666666667</ele><time>2026-04-12T13:46:15.014Z</time></trkpt><trkpt lat="43.6673643" lon="12.2223515"><ele>684.5</ele><time>2026-04-12T13:46:16.012Z</time></trkpt><trkpt lat="43.6674281" lon="12.2223059"><ele>683.3333333333334</ele><time>2026-04-12T13:46:17.013Z</time></trkpt><trkpt lat="43.6674799" lon="12.2222461"><ele>682.1666666666666</ele><time>2026-04-12T13:46:18.014Z</time></trkpt><trkpt lat="43.6675141" lon="12.2221622"><ele>681.0</ele><time>2026-04-12T13:46:19.011Z</time></trkpt><trkpt lat="43.6675317" lon="12.2220676"><ele>681.0</ele><time>2026-04-12T13:46:20.011Z</time></trkpt><trkpt lat="43.6675261" lon="12.2219656"><ele>681.0</ele><time>2026-04-12T13:46:21.011Z</time></trkpt><trkpt lat="43.6674965" lon="12.2218709"><ele>681.0</ele><time>2026-04-12T13:46:22.011Z</time></trkpt><trkpt lat="43.6674267" lon="12.2218279"><ele>681.0</ele><time>2026-04-12T13:46:23.011Z</time></trkpt><trkpt lat="43.6673395" lon="12.2218208"><ele>681.0</ele><time>2026-04-12T13:46:24.012Z</time></trkpt><trkpt lat="43.6672526" lon="12.2218425"><ele>681.0</ele><time>2026-04-12T13:46:25.009Z</time></trkpt><trkpt lat="43.6671649" lon="12.2218712"><ele>681.0</ele><time>2026-04-12T13:46:26.013Z</time></trkpt><trkpt lat="43.667076" lon="12.2218971"><ele>681.0</ele><time>2026-04-12T13:46:27.01Z</time></trkpt><trkpt lat="43.6669888" lon="12.2219149"><ele>681.0</ele><time>2026-04-12T13:46:28.009Z</time></trkpt><trkpt lat="43.666903" lon="12.2219288"><ele>681.0</ele><time>2026-04-12T13:46:29.012Z</time></trkpt><trkpt lat="43.6668178" lon="12.2219377"><ele>681.0</ele><time>2026-04-12T13:46:30.014Z</time></trkpt><trkpt lat="43.6667325" lon="12.221942"><ele>681.0</ele><time>2026-04-12T13:46:31.011Z</time></trkpt><trkpt lat="43.6666429" lon="12.221947"><ele>678.1999999999999</ele><time>2026-04-12T13:46:32.011Z</time></trkpt><trkpt lat="43.6665497" lon="12.2219621"><ele>675.4</ele><time>2026-04-12T13:46:33.013Z</time></trkpt><trkpt lat="43.6664562" lon="12.2219941"><ele>672.6</ele><time>2026-04-12T13:46:34.01Z</time></trkpt><trkpt lat="43.6663631" lon="12.222042"><ele>669.8</ele><time>2026-04-12T13:46:35.01Z</time></trkpt><trkpt lat="43.6662753" lon="12.2221146"><ele>667.0</ele><time>2026-04-12T13:46:36.011Z</time></trkpt><trkpt lat="43.6661967" lon="12.2222028"><ele>667.0</ele><time>2026-04-12T13:46:37.013Z</time></trkpt><trkpt lat="43.6661294" lon="12.222299"><ele>667.0</ele><time>2026-04-12T13:46:38.014Z</time></trkpt><trkpt lat="43.6660786" lon="12.2223976"><ele>667.0</ele><time>2026-04-12T13:46:39.013Z</time></trkpt><trkpt lat="43.6660421" lon="12.2225086"><ele>667.0</ele><time>2026-04-12T13:46:40.012Z</time></trkpt><trkpt lat="43.6660119" lon="12.2226357"><ele>667.0</ele><time>2026-04-12T13:46:41.01Z</time></trkpt><trkpt lat="43.6659859" lon="12.2227706"><ele>667.2</ele><time>2026-04-12T13:46:42.012Z</time></trkpt><trkpt lat="43.6659549" lon="12.2229058"><ele>667.4000000000001</ele><time>2026-04-12T13:46:43.009Z</time></trkpt><trkpt lat="43.6659081" lon="12.2230446"><ele>667.5999999999999</ele><time>2026-04-12T13:46:44.011Z</time></trkpt><trkpt lat="43.6658398" lon="12.2231746"><ele>667.8</ele><time>2026-04-12T13:46:45.011Z</time></trkpt><trkpt lat="43.6657582" lon="12.2232918"><ele>668.0</ele><time>2026-04-12T13:46:46.013Z</time></trkpt><trkpt lat="43.6656768" lon="12.2234136"><ele>668.0</ele><time>2026-04-12T13:46:47.011Z</time></trkpt><trkpt lat="43.6656063" lon="12.2235379"><ele>668.0</ele><time>2026-04-12T13:46:48.012Z</time></trkpt><trkpt lat="43.6655464" lon="12.2236628"><ele>668.0</ele><time>2026-04-12T13:46:49.012Z</time></trkpt><trkpt lat="43.6654947" lon="12.2237834"><ele>668.0</ele><time>2026-04-12T13:46:50.011Z</time></trkpt><trkpt lat="43.6654524" lon="12.2239017"><ele>668.0</ele><time>2026-04-12T13:46:51.011Z</time></trkpt><trkpt lat="43.6654175" lon="12.2240241"><ele>670.5999999999999</ele><time>2026-04-12T13:46:52.009Z</time></trkpt><trkpt lat="43.6653907" lon="12.2241598"><ele>673.1999999999999</ele><time>2026-04-12T13:46:53.011Z</time></trkpt><trkpt lat="43.6653804" lon="12.2242944"><ele>675.8</ele><time>2026-04-12T13:46:54.011Z</time></trkpt><trkpt lat="43.6653872" lon="12.224423"><ele>678.4</ele><time>2026-04-12T13:46:55.012Z</time></trkpt><trkpt lat="43.6654004" lon="12.2245483"><ele>681.0</ele><time>2026-04-12T13:46:56.011Z</time></trkpt><trkpt lat="43.6654085" lon="12.2246624"><ele>681.0</ele><time>2026-04-12T13:46:57.012Z</time></trkpt><trkpt lat="43.6653986" lon="12.2247658"><ele>681.0</ele><time>2026-04-12T13:46:58.01Z</time></trkpt><trkpt lat="43.665364" lon="12.224851"><ele>681.0</ele><time>2026-04-12T13:46:59.01Z</time></trkpt><trkpt lat="43.6653114" lon="12.2249211"><ele>681.0</ele><time>2026-04-12T13:47:00.015Z</time></trkpt><trkpt lat="43.6652306" lon="12.224957"><ele>681.0</ele><time>2026-04-12T13:47:01.011Z</time></trkpt><trkpt lat="43.6651167" lon="12.2249567"><ele>681.0</ele><time>2026-04-12T13:47:02.011Z</time></trkpt><trkpt lat="43.6649909" lon="12.2249487"><ele>675.5</ele><time>2026-04-12T13:47:03.011Z</time></trkpt><trkpt lat="43.6648641" lon="12.2249305"><ele>670.0</ele><time>2026-04-12T13:47:04.01Z</time></trkpt><trkpt lat="43.6647442" lon="12.224913"><ele>664.5</ele><time>2026-04-12T13:47:05.013Z</time></trkpt><trkpt lat="43.6646325" lon="12.2249002"><ele>659.0</ele><time>2026-04-12T13:47:06.011Z</time></trkpt><trkpt lat="43.6645299" lon="12.2248995"><ele>657.2</ele><time>2026-04-12T13:47:07.011Z</time></trkpt><trkpt lat="43.6644296" lon="12.2249186"><ele>655.4000000000001</ele><time>2026-04-12T13:47:08.013Z</time></trkpt><trkpt lat="43.6643218" lon="12.2249556"><ele>653.6</ele><time>2026-04-12T13:47:09.01Z</time></trkpt><trkpt lat="43.6642114" lon="12.2249984"><ele>651.8</ele><time>2026-04-12T13:47:10.012Z</time></trkpt><trkpt lat="43.6640987" lon="12.2250263"><ele>650.0</ele><time>2026-04-12T13:47:11.01Z</time></trkpt><trkpt lat="43.663992" lon="12.225028"><ele>650.0</ele><time>2026-04-12T13:47:12.013Z</time></trkpt><trkpt lat="43.6638967" lon="12.2249952"><ele>650.0</ele><time>2026-04-12T13:47:13.012Z</time></trkpt><trkpt lat="43.6638107" lon="12.2249376"><ele>650.0</ele><time>2026-04-12T13:47:14.012Z</time></trkpt><trkpt lat="43.6637269" lon="12.2248729"><ele>650.0</ele><time>2026-04-12T13:47:15.014Z</time></trkpt><trkpt lat="43.6636455" lon="12.2248109"><ele>650.0</ele><time>2026-04-12T13:47:16.01Z</time></trkpt><trkpt lat="43.6635611" lon="12.2247507"><ele>645.1666666666666</ele><time>2026-04-12T13:47:17.011Z</time></trkpt><trkpt lat="43.6634751" lon="12.2246975"><ele>640.3333333333333</ele><time>2026-04-12T13:47:18.01Z</time></trkpt><trkpt lat="43.663394" lon="12.2246575"><ele>635.5</ele><time>2026-04-12T13:47:19.011Z</time></trkpt><trkpt lat="43.6633184" lon="12.2246318"><ele>630.6666666666666</ele><time>2026-04-12T13:47:20.01Z</time></trkpt><trkpt lat="43.66325" lon="12.2246317"><ele>625.8333333333334</ele><time>2026-04-12T13:47:21.016Z</time></trkpt><trkpt lat="43.6631817" lon="12.2246567"><ele>621.0</ele><time>2026-04-12T13:47:22.01Z</time></trkpt><trkpt lat="43.6631133" lon="12.2247017"><ele>621.0</ele><time>2026-04-12T13:47:23.011Z</time></trkpt><trkpt lat="43.6630467" lon="12.224755"><ele>621.0</ele><time>2026-04-12T13:47:24.011Z</time></trkpt><trkpt lat="43.662975" lon="12.22481"><ele>621.0</ele><time>2026-04-12T13:47:25.014Z</time></trkpt><trkpt lat="43.6629067" lon="12.224875"><ele>621.0</ele><time>2026-04-12T13:47:26.011Z</time></trkpt><trkpt lat="43.662845" lon="12.2249617"><ele>621.0</ele><time>2026-04-12T13:47:27.012Z</time></trkpt><trkpt lat="43.6627833" lon="12.2250667"><ele>621.0</ele><time>2026-04-12T13:47:28.01Z</time></trkpt><trkpt lat="43.662715" lon="12.2251617"><ele>620.6</ele><time>2026-04-12T13:47:29.01Z</time></trkpt><trkpt lat="43.6626267" lon="12.2252367"><ele>620.2</ele><time>2026-04-12T13:47:30.013Z</time></trkpt><trkpt lat="43.66252" lon="12.2252983"><ele>619.8</ele><time>2026-04-12T13:47:31.013Z</time></trkpt><trkpt lat="43.6624167" lon="12.22537"><ele>619.4</ele><time>2026-04-12T13:47:32.011Z</time></trkpt><trkpt lat="43.6623233" lon="12.2254467"><ele>619.0</ele><time>2026-04-12T13:47:33.014Z</time></trkpt><trkpt lat="43.6622383" lon="12.2255267"><ele>619.0</ele><time>2026-04-12T13:47:34.009Z</time></trkpt><trkpt lat="43.6621667" lon="12.2256167"><ele>619.0</ele><time>2026-04-12T13:47:35.009Z</time></trkpt><trkpt lat="43.66211" lon="12.22572"><ele>619.0</ele><time>2026-04-12T13:47:36.01Z</time></trkpt><trkpt lat="43.6620717" lon="12.22585"><ele>619.0</ele><time>2026-04-12T13:47:37.012Z</time></trkpt><trkpt lat="43.66205" lon="12.2260017"><ele>619.0</ele><time>2026-04-12T13:47:38.012Z</time></trkpt><trkpt lat="43.6620367" lon="12.2261633"><ele>623.0</ele><time>2026-04-12T13:47:39.012Z</time></trkpt><trkpt lat="43.66203" lon="12.2263233"><ele>627.0</ele><time>2026-04-12T13:47:40.012Z</time></trkpt><trkpt lat="43.662025" lon="12.22646"><ele>631.0</ele><time>2026-04-12T13:47:41.012Z</time></trkpt><trkpt lat="43.662025" lon="12.226575"><ele>635.0</ele><time>2026-04-12T13:47:42.013Z</time></trkpt><trkpt lat="43.6620283" lon="12.2266783"><ele>639.0</ele><time>2026-04-12T13:47:43.015Z</time></trkpt><trkpt lat="43.6620267" lon="12.2267717"><ele>643.0</ele><time>2026-04-12T13:47:44.012Z</time></trkpt><trkpt lat="43.6619967" lon="12.2269317"><ele>637.4</ele><time>2026-04-12T13:47:46.01Z</time></trkpt><trkpt lat="43.6619383" lon="12.2270267"><ele>631.8</ele><time>2026-04-12T13:47:48.012Z</time></trkpt><trkpt lat="43.6618567" lon="12.2270217"><ele>626.2</ele><time>2026-04-12T13:47:50.01Z</time></trkpt><trkpt lat="43.6618067" lon="12.2269167"><ele>620.6</ele><time>2026-04-12T13:47:52.012Z</time></trkpt><trkpt lat="43.6618083" lon="12.226725"><ele>615.0</ele><time>2026-04-12T13:47:54.01Z</time></trkpt><trkpt lat="43.661835" lon="12.2265933"><ele>614.6</ele><time>2026-04-12T13:47:55.012Z</time></trkpt><trkpt lat="43.6618517" lon="12.22645"><ele>614.2</ele><time>2026-04-12T13:47:56.012Z</time></trkpt><trkpt lat="43.6618667" lon="12.226295"><ele>613.8</ele><time>2026-04-12T13:47:57.014Z</time></trkpt><trkpt lat="43.6618767" lon="12.226145"><ele>613.4</ele><time>2026-04-12T13:47:58.018Z</time></trkpt><trkpt lat="43.6618833" lon="12.226005"><ele>613.0</ele><time>2026-04-12T13:47:59.012Z</time></trkpt><trkpt lat="43.6618883" lon="12.2258717"><ele>613.0</ele><time>2026-04-12T13:48:00.01Z</time></trkpt><trkpt lat="43.6618917" lon="12.2257517"><ele>613.0</ele><time>2026-04-12T13:48:01.013Z</time></trkpt><trkpt lat="43.661905" lon="12.225645"><ele>613.0</ele><time>2026-04-12T13:48:02.012Z</time></trkpt><trkpt lat="43.6619133" lon="12.2255483"><ele>613.0</ele><time>2026-04-12T13:48:03.01Z</time></trkpt><trkpt lat="43.6618967" lon="12.2253933"><ele>613.0</ele><time>2026-04-12T13:48:05.012Z</time></trkpt><trkpt lat="43.66185" lon="12.2253083"><ele>613.0</ele><time>2026-04-12T13:48:07.012Z</time></trkpt><trkpt lat="43.6617533" lon="12.2253467"><ele>613.0</ele><time>2026-04-12T13:48:09.012Z</time></trkpt><trkpt lat="43.6617267" lon="12.22553"><ele>613.0</ele><time>2026-04-12T13:48:10.013Z</time></trkpt><trkpt lat="43.6617133" lon="12.2256733"><ele>613.0</ele><time>2026-04-12T13:48:11.01Z</time></trkpt><trkpt lat="43.66171" lon="12.2258433"><ele>613.0</ele><time>2026-04-12T13:48:12.01Z</time></trkpt><trkpt lat="43.6616983" lon="12.226015"><ele>613.0</ele><time>2026-04-12T13:48:13.011Z</time></trkpt><trkpt lat="43.6616783" lon="12.2261733"><ele>613.0</ele><time>2026-04-12T13:48:14.011Z</time></trkpt><trkpt lat="43.6616567" lon="12.226315"><ele>613.0</ele><time>2026-04-12T13:48:15.013Z</time></trkpt><trkpt lat="43.66163" lon="12.226445"><ele>613.0</ele><time>2026-04-12T13:48:16.011Z</time></trkpt><trkpt lat="43.6616" lon="12.2265633"><ele>613.0</ele><time>2026-04-12T13:48:17.012Z</time></trkpt><trkpt lat="43.6615633" lon="12.226665"><ele>613.4</ele><time>2026-04-12T13:48:18.011Z</time></trkpt><trkpt lat="43.6615167" lon="12.22676"><ele>613.8</ele><time>2026-04-12T13:48:19.011Z</time></trkpt><trkpt lat="43.6614617" lon="12.2268533"><ele>614.2</ele><time>2026-04-12T13:48:20.011Z</time></trkpt><trkpt lat="43.6613933" lon="12.22695"><ele>614.6</ele><time>2026-04-12T13:48:21.013Z</time></trkpt><trkpt lat="43.6613033" lon="12.22704"><ele>615.0</ele><time>2026-04-12T13:48:22.013Z</time></trkpt><trkpt lat="43.661195" lon="12.227125"><ele>611.75</ele><time>2026-04-12T13:48:23.012Z</time></trkpt><trkpt lat="43.6610717" lon="12.2272117"><ele>608.5</ele><time>2026-04-12T13:48:24.012Z</time></trkpt><trkpt lat="43.6609367" lon="12.2272967"><ele>605.25</ele><time>2026-04-12T13:48:25.009Z</time></trkpt><trkpt lat="43.6607883" lon="12.227375"><ele>602.0</ele><time>2026-04-12T13:48:26.015Z</time></trkpt><trkpt lat="43.6606433" lon="12.2274417"><ele>602.0</ele><time>2026-04-12T13:48:27.011Z</time></trkpt><trkpt lat="43.66051" lon="12.2275017"><ele>602.0</ele><time>2026-04-12T13:48:28.012Z</time></trkpt><trkpt lat="43.6603733" lon="12.227555"><ele>602.0</ele><time>2026-04-12T13:48:29.012Z</time></trkpt><trkpt lat="43.66024" lon="12.2276117"><ele>602.0</ele><time>2026-04-12T13:48:30.011Z</time></trkpt><trkpt lat="43.6601183" lon="12.2276817"><ele>601.25</ele><time>2026-04-12T13:48:31.014Z</time></trkpt><trkpt lat="43.6600067" lon="12.2277783"><ele>600.5</ele><time>2026-04-12T13:48:32.011Z</time></trkpt><trkpt lat="43.6598983" lon="12.2278817"><ele>599.75</ele><time>2026-04-12T13:48:33.012Z</time></trkpt><trkpt lat="43.65979" lon="12.2279833"><ele>599.0</ele><time>2026-04-12T13:48:34.012Z</time></trkpt><trkpt lat="43.6596733" lon="12.2280667"><ele>599.0</ele><time>2026-04-12T13:48:35.009Z</time></trkpt><trkpt lat="43.659545" lon="12.2281283"><ele>599.0</ele><time>2026-04-12T13:48:36.012Z</time></trkpt><trkpt lat="43.6594133" lon="12.22816"><ele>599.0</ele><time>2026-04-12T13:48:37.009Z</time></trkpt><trkpt lat="43.659285" lon="12.2281683"><ele>599.0</ele><time>2026-04-12T13:48:38.015Z</time></trkpt><trkpt lat="43.6591517" lon="12.2281533"><ele>598.25</ele><time>2026-04-12T13:48:39.011Z</time></trkpt><trkpt lat="43.659025" lon="12.228125"><ele>597.5</ele><time>2026-04-12T13:48:40.012Z</time></trkpt><trkpt lat="43.6589183" lon="12.2280783"><ele>596.75</ele><time>2026-04-12T13:48:41.012Z</time></trkpt><trkpt lat="43.6588283" lon="12.2280083"><ele>596.0</ele><time>2026-04-12T13:48:42.01Z</time></trkpt><trkpt lat="43.658745" lon="12.2279167"><ele>596.0</ele><time>2026-04-12T13:48:43.013Z</time></trkpt><trkpt lat="43.6586733" lon="12.2278467"><ele>596.0</ele><time>2026-04-12T13:48:44.01Z</time></trkpt><trkpt lat="43.6586" lon="12.2278033"><ele>596.0</ele><time>2026-04-12T13:48:45.011Z</time></trkpt><trkpt lat="43.6585217" lon="12.227785"><ele>596.0</ele><time>2026-04-12T13:48:46.015Z</time></trkpt><trkpt lat="43.6584367" lon="12.2278083"><ele>596.0</ele><time>2026-04-12T13:48:47.011Z</time></trkpt><trkpt lat="43.65834" lon="12.2278733"><ele>596.0</ele><time>2026-04-12T13:48:48.011Z</time></trkpt><trkpt lat="43.6582217" lon="12.227935"><ele>597.0</ele><time>2026-04-12T13:48:49.011Z</time></trkpt><trkpt lat="43.6581033" lon="12.2279733"><ele>598.0</ele><time>2026-04-12T13:48:50.012Z</time></trkpt><trkpt lat="43.6579917" lon="12.2280117"><ele>599.0</ele><time>2026-04-12T13:48:51.013Z</time></trkpt><trkpt lat="43.65789" lon="12.2280617"><ele>600.0</ele><time>2026-04-12T13:48:52.012Z</time></trkpt><trkpt lat="43.65779" lon="12.22813"><ele>600.75</ele><time>2026-04-12T13:48:53.012Z</time></trkpt><trkpt lat="43.6576867" lon="12.2282083"><ele>601.5</ele><time>2026-04-12T13:48:54.01Z</time></trkpt><trkpt lat="43.6575717" lon="12.2282967"><ele>602.25</ele><time>2026-04-12T13:48:55.014Z</time></trkpt><trkpt lat="43.65745" lon="12.2283933"><ele>603.0</ele><time>2026-04-12T13:48:56.011Z</time></trkpt><trkpt lat="43.6573183" lon="12.2284933"><ele>603.0</ele><time>2026-04-12T13:48:57.013Z</time></trkpt><trkpt lat="43.6571883" lon="12.2285933"><ele>603.0</ele><time>2026-04-12T13:48:58.011Z</time></trkpt><trkpt lat="43.657065" lon="12.2286917"><ele>603.0</ele><time>2026-04-12T13:48:59.011Z</time></trkpt><trkpt lat="43.6569483" lon="12.2287833"><ele>603.0</ele><time>2026-04-12T13:49:00.013Z</time></trkpt><trkpt lat="43.6568267" lon="12.2288683"><ele>604.25</ele><time>2026-04-12T13:49:01.013Z</time></trkpt><trkpt lat="43.6567033" lon="12.228945"><ele>605.5</ele><time>2026-04-12T13:49:02.011Z</time></trkpt><trkpt lat="43.6565767" lon="12.229015"><ele>606.75</ele><time>2026-04-12T13:49:03.012Z</time></trkpt><trkpt lat="43.65645" lon="12.2290767"><ele>608.0</ele><time>2026-04-12T13:49:04.011Z</time></trkpt><trkpt lat="43.656335" lon="12.2291417"><ele>608.0</ele><time>2026-04-12T13:49:05.012Z</time></trkpt><trkpt lat="43.656235" lon="12.2292167"><ele>608.0</ele><time>2026-04-12T13:49:06.013Z</time></trkpt><trkpt lat="43.6561467" lon="12.2293017"><ele>608.0</ele><time>2026-04-12T13:49:07.013Z</time></trkpt><trkpt lat="43.6560567" lon="12.2293917"><ele>608.0</ele><time>2026-04-12T13:49:08.011Z</time></trkpt><trkpt lat="43.6559667" lon="12.2294817"><ele>608.0</ele><time>2026-04-12T13:49:09.011Z</time></trkpt><trkpt lat="43.6558817" lon="12.22957"><ele>608.1999999999999</ele><time>2026-04-12T13:49:10.016Z</time></trkpt><trkpt lat="43.6557983" lon="12.2296583"><ele>608.4</ele><time>2026-04-12T13:49:11.01Z</time></trkpt><trkpt lat="43.655725" lon="12.2297467"><ele>608.5999999999999</ele><time>2026-04-12T13:49:12.01Z</time></trkpt><trkpt lat="43.65565" lon="12.2298267"><ele>608.8</ele><time>2026-04-12T13:49:13.013Z</time></trkpt><trkpt lat="43.6555633" lon="12.22989"><ele>609.0</ele><time>2026-04-12T13:49:14.011Z</time></trkpt><trkpt lat="43.655465" lon="12.2299283"><ele>609.0</ele><time>2026-04-12T13:49:15.016Z</time></trkpt><trkpt lat="43.655365" lon="12.2299283"><ele>609.0</ele><time>2026-04-12T13:49:16.014Z</time></trkpt><trkpt lat="43.65527" lon="12.229915"><ele>609.0</ele><time>2026-04-12T13:49:17.013Z</time></trkpt><trkpt lat="43.6551767" lon="12.2299183"><ele>609.0</ele><time>2026-04-12T13:49:18.011Z</time></trkpt><trkpt lat="43.655075" lon="12.2299533"><ele>609.0</ele><time>2026-04-12T13:49:19.011Z</time></trkpt><trkpt lat="43.6549617" lon="12.2300133"><ele>605.0</ele><time>2026-04-12T13:49:20.012Z</time></trkpt><trkpt lat="43.654845" lon="12.2300867"><ele>601.0</ele><time>2026-04-12T13:49:21.012Z</time></trkpt><trkpt lat="43.654735" lon="12.23017"><ele>597.0</ele><time>2026-04-12T13:49:22.014Z</time></trkpt><trkpt lat="43.654635" lon="12.23025"><ele>593.0</ele><time>2026-04-12T13:49:23.011Z</time></trkpt><trkpt lat="43.654535" lon="12.2303333"><ele>594.25</ele><time>2026-04-12T13:49:24.014Z</time></trkpt><trkpt lat="43.6544233" lon="12.2304183"><ele>595.5</ele><time>2026-04-12T13:49:25.011Z</time></trkpt><trkpt lat="43.65431" lon="12.2305033"><ele>596.75</ele><time>2026-04-12T13:49:26.011Z</time></trkpt><trkpt lat="43.6541983" lon="12.2305867"><ele>598.0</ele><time>2026-04-12T13:49:27.011Z</time></trkpt><trkpt lat="43.6540967" lon="12.2306683"><ele>598.0</ele><time>2026-04-12T13:49:28.014Z</time></trkpt><trkpt lat="43.653995" lon="12.2307483"><ele>598.0</ele><time>2026-04-12T13:49:29.013Z</time></trkpt><trkpt lat="43.6538967" lon="12.2308233"><ele>598.0</ele><time>2026-04-12T13:49:30.01Z</time></trkpt><trkpt lat="43.6538067" lon="12.2308967"><ele>598.0</ele><time>2026-04-12T13:49:31.013Z</time></trkpt><trkpt lat="43.6537167" lon="12.230965"><ele>598.0</ele><time>2026-04-12T13:49:32.011Z</time></trkpt><trkpt lat="43.6536267" lon="12.2310333"><ele>592.75</ele><time>2026-04-12T13:49:33.01Z</time></trkpt><trkpt lat="43.65353" lon="12.2311033"><ele>587.5</ele><time>2026-04-12T13:49:34.014Z</time></trkpt><trkpt lat="43.6534317" lon="12.231185"><ele>582.25</ele><time>2026-04-12T13:49:35.01Z</time></trkpt><trkpt lat="43.6533333" lon="12.2312833"><ele>577.0</ele><time>2026-04-12T13:49:36.02Z</time></trkpt><trkpt lat="43.653245" lon="12.2314"><ele>579.25</ele><time>2026-04-12T13:49:37.012Z</time></trkpt><trkpt lat="43.653165" lon="12.2315317"><ele>581.5</ele><time>2026-04-12T13:49:38.011Z</time></trkpt><trkpt lat="43.6530933" lon="12.2316683"><ele>583.75</ele><time>2026-04-12T13:49:39.011Z</time></trkpt><trkpt lat="43.6530333" lon="12.231805"><ele>586.0</ele><time>2026-04-12T13:49:40.013Z</time></trkpt><trkpt lat="43.6529867" lon="12.2319483"><ele>586.0</ele><time>2026-04-12T13:49:41.013Z</time></trkpt><trkpt lat="43.6529617" lon="12.2321083"><ele>586.0</ele><time>2026-04-12T13:49:42.012Z</time></trkpt><trkpt lat="43.652955" lon="12.2322933"><ele>586.0</ele><time>2026-04-12T13:49:43.013Z</time></trkpt><trkpt lat="43.6529667" lon="12.2325"><ele>586.0</ele><time>2026-04-12T13:49:44.012Z</time></trkpt><trkpt lat="43.6529833" lon="12.2327283"><ele>589.0</ele><time>2026-04-12T13:49:45.014Z</time></trkpt><trkpt lat="43.6529767" lon="12.2329733"><ele>592.0</ele><time>2026-04-12T13:49:46.01Z</time></trkpt><trkpt lat="43.6529767" lon="12.233215"><ele>595.0</ele><time>2026-04-12T13:49:47.009Z</time></trkpt><trkpt lat="43.6529767" lon="12.2334567"><ele>595.3333333333334</ele><time>2026-04-12T13:49:48.012Z</time></trkpt><trkpt lat="43.6529783" lon="12.2337"><ele>595.6666666666666</ele><time>2026-04-12T13:49:49.014Z</time></trkpt><trkpt lat="43.6529767" lon="12.2339283"><ele>596.0</ele><time>2026-04-12T13:49:50.012Z</time></trkpt><trkpt lat="43.652975" lon="12.2341417"><ele>594.5</ele><time>2026-04-12T13:49:51.012Z</time></trkpt><trkpt lat="43.65298" lon="12.234325"><ele>593.0</ele><time>2026-04-12T13:49:52.013Z</time></trkpt><trkpt lat="43.6529883" lon="12.2344833"><ele>591.5</ele><time>2026-04-12T13:49:53.009Z</time></trkpt><trkpt lat="43.6530083" lon="12.2346283"><ele>590.0</ele><time>2026-04-12T13:49:54.011Z</time></trkpt><trkpt lat="43.6530383" lon="12.2347733"><ele>589.6</ele><time>2026-04-12T13:49:55.013Z</time></trkpt><trkpt lat="43.6530667" lon="12.234915"><ele>589.2</ele><time>2026-04-12T13:49:56.012Z</time></trkpt><trkpt lat="43.65308" lon="12.2350517"><ele>588.8</ele><time>2026-04-12T13:49:57.012Z</time></trkpt><trkpt lat="43.6530783" lon="12.23519"><ele>588.4</ele><time>2026-04-12T13:49:58.011Z</time></trkpt><trkpt lat="43.6530567" lon="12.235325"><ele>588.0</ele><time>2026-04-12T13:49:59.01Z</time></trkpt><trkpt lat="43.6530133" lon="12.2354533"><ele>588.0</ele><time>2026-04-12T13:50:00.01Z</time></trkpt><trkpt lat="43.652945" lon="12.2355767"><ele>588.0</ele><time>2026-04-12T13:50:01.011Z</time></trkpt><trkpt lat="43.6528533" lon="12.235695"><ele>588.0</ele><time>2026-04-12T13:50:02.011Z</time></trkpt><trkpt lat="43.6527483" lon="12.235815"><ele>588.0</ele><time>2026-04-12T13:50:03.011Z</time></trkpt><trkpt lat="43.6526367" lon="12.2359433"><ele>581.75</ele><time>2026-04-12T13:50:04.012Z</time></trkpt><trkpt lat="43.6525317" lon="12.2360767"><ele>575.5</ele><time>2026-04-12T13:50:05.011Z</time></trkpt><trkpt lat="43.6524383" lon="12.23621"><ele>569.25</ele><time>2026-04-12T13:50:06.011Z</time></trkpt><trkpt lat="43.6523717" lon="12.2363417"><ele>563.0</ele><time>2026-04-12T13:50:07.012Z</time></trkpt><trkpt lat="43.6523133" lon="12.23649"><ele>563.0</ele><time>2026-04-12T13:50:08.014Z</time></trkpt><trkpt lat="43.65226" lon="12.23664"><ele>563.0</ele><time>2026-04-12T13:50:09.014Z</time></trkpt><trkpt lat="43.65221" lon="12.23679"><ele>563.0</ele><time>2026-04-12T13:50:10.012Z</time></trkpt><trkpt lat="43.6521633" lon="12.2369367"><ele>563.0</ele><time>2026-04-12T13:50:11.011Z</time></trkpt><trkpt lat="43.652125" lon="12.2370767"><ele>563.0</ele><time>2026-04-12T13:50:12.012Z</time></trkpt><trkpt lat="43.6520917" lon="12.2372067"><ele>563.0</ele><time>2026-04-12T13:50:13.013Z</time></trkpt><trkpt lat="43.65206" lon="12.2373317"><ele>563.0</ele><time>2026-04-12T13:50:14.01Z</time></trkpt><trkpt lat="43.652035" lon="12.2374533"><ele>563.0</ele><time>2026-04-12T13:50:15.012Z</time></trkpt><trkpt lat="43.6520083" lon="12.23758"><ele>563.0</ele><time>2026-04-12T13:50:16.014Z</time></trkpt><trkpt lat="43.6519883" lon="12.2377033"><ele>562.6666666666666</ele><time>2026-04-12T13:50:17.012Z</time></trkpt><trkpt lat="43.65197" lon="12.2378217"><ele>562.3333333333333</ele><time>2026-04-12T13:50:18.016Z</time></trkpt><trkpt lat="43.6519483" lon="12.23793"><ele>562.0</ele><time>2026-04-12T13:50:19.011Z</time></trkpt><trkpt lat="43.6519367" lon="12.23803"><ele>561.6666666666666</ele><time>2026-04-12T13:50:20.012Z</time></trkpt><trkpt lat="43.6519183" lon="12.2381233"><ele>561.3333333333334</ele><time>2026-04-12T13:50:21.014Z</time></trkpt><trkpt lat="43.6519067" lon="12.23821"><ele>561.0</ele><time>2026-04-12T13:50:22.01Z</time></trkpt><trkpt lat="43.65188" lon="12.2383383"><ele>560.8333333333334</ele><time>2026-04-12T13:50:24.011Z</time></trkpt><trkpt lat="43.6518583" lon="12.2384417"><ele>560.6666666666666</ele><time>2026-04-12T13:50:26.013Z</time></trkpt><trkpt lat="43.65187" lon="12.2385617"><ele>560.5</ele><time>2026-04-12T13:50:28.011Z</time></trkpt><trkpt lat="43.6518467" lon="12.2387367"><ele>560.3333333333333</ele><time>2026-04-12T13:50:30.016Z</time></trkpt><trkpt lat="43.651815" lon="12.238835"><ele>560.1666666666666</ele><time>2026-04-12T13:50:31.013Z</time></trkpt><trkpt lat="43.6518" lon="12.2389383"><ele>560.0</ele><time>2026-04-12T13:50:32.012Z</time></trkpt><trkpt lat="43.6517767" lon="12.2390583"><ele>559.5</ele><time>2026-04-12T13:50:33.014Z</time></trkpt><trkpt lat="43.6517617" lon="12.2392017"><ele>559.0</ele><time>2026-04-12T13:50:34.012Z</time></trkpt><trkpt lat="43.6517367" lon="12.239355"><ele>558.5</ele><time>2026-04-12T13:50:35.015Z</time></trkpt><trkpt lat="43.65172" lon="12.239515"><ele>558.0</ele><time>2026-04-12T13:50:36.012Z</time></trkpt><trkpt lat="43.6517317" lon="12.2396917"><ele>556.6666666666666</ele><time>2026-04-12T13:50:37.012Z</time></trkpt><trkpt lat="43.6517822" lon="12.2398842"><ele>555.3333333333333</ele><time>2026-04-12T13:50:38.01Z</time></trkpt><trkpt lat="43.6518672" lon="12.2400861"><ele>554.0</ele><time>2026-04-12T13:50:39.013Z</time></trkpt><trkpt lat="43.6519729" lon="12.2402946"><ele>557.6666666666666</ele><time>2026-04-12T13:50:40.011Z</time></trkpt><trkpt lat="43.6520803" lon="12.2405191"><ele>561.3333333333334</ele><time>2026-04-12T13:50:41.013Z</time></trkpt><trkpt lat="43.6521861" lon="12.2407683"><ele>565.0</ele><time>2026-04-12T13:50:42.015Z</time></trkpt><trkpt lat="43.6522915" lon="12.2410307"><ele>565.0</ele><time>2026-04-12T13:50:43.015Z</time></trkpt><trkpt lat="43.6523765" lon="12.2413078"><ele>565.0</ele><time>2026-04-12T13:50:44.012Z</time></trkpt><trkpt lat="43.6524441" lon="12.2415883"><ele>565.0</ele><time>2026-04-12T13:50:45.012Z</time></trkpt><trkpt lat="43.6525026" lon="12.2418522"><ele>561.6666666666667</ele><time>2026-04-12T13:50:46.011Z</time></trkpt><trkpt lat="43.652551" lon="12.2420981"><ele>558.3333333333334</ele><time>2026-04-12T13:50:47.012Z</time></trkpt><trkpt lat="43.6525795" lon="12.2423469"><ele>555.0</ele><time>2026-04-12T13:50:48.009Z</time></trkpt><trkpt lat="43.652586" lon="12.2426102"><ele>555.0</ele><time>2026-04-12T13:50:49.009Z</time></trkpt><trkpt lat="43.6525713" lon="12.2428794"><ele>555.0</ele><time>2026-04-12T13:50:50.013Z</time></trkpt><trkpt lat="43.6525513" lon="12.2431509"><ele>555.0</ele><time>2026-04-12T13:50:51.012Z</time></trkpt><trkpt lat="43.6525395" lon="12.2434204"><ele>555.0</ele><time>2026-04-12T13:50:52.013Z</time></trkpt><trkpt lat="43.6525435" lon="12.2436817"><ele>555.0</ele><time>2026-04-12T13:50:53.012Z</time></trkpt><trkpt lat="43.6525694" lon="12.2439356"><ele>555.0</ele><time>2026-04-12T13:50:54.011Z</time></trkpt><trkpt lat="43.6526206" lon="12.2441907"><ele>555.0</ele><time>2026-04-12T13:50:55.014Z</time></trkpt><trkpt lat="43.6526523" lon="12.2444568"><ele>555.0</ele><time>2026-04-12T13:50:56.013Z</time></trkpt><trkpt lat="43.6526642" lon="12.2447354"><ele>555.0</ele><time>2026-04-12T13:50:57.011Z</time></trkpt><trkpt lat="43.6526675" lon="12.2450296"><ele>557.3333333333334</ele><time>2026-04-12T13:50:58.012Z</time></trkpt><trkpt lat="43.6526718" lon="12.2453231"><ele>559.6666666666667</ele><time>2026-04-12T13:50:59.014Z</time></trkpt><trkpt lat="43.6526767" lon="12.2456071"><ele>562.0</ele><time>2026-04-12T13:51:00.012Z</time></trkpt><trkpt lat="43.6526892" lon="12.2458761"><ele>562.0</ele><time>2026-04-12T13:51:01.012Z</time></trkpt><trkpt lat="43.6527204" lon="12.2461262"><ele>562.0</ele><time>2026-04-12T13:51:02.012Z</time></trkpt><trkpt lat="43.6527563" lon="12.2463429"><ele>562.0</ele><time>2026-04-12T13:51:03.012Z</time></trkpt><trkpt lat="43.652787" lon="12.2465211"><ele>562.0</ele><time>2026-04-12T13:51:04.013Z</time></trkpt><trkpt lat="43.6527976" lon="12.2466681"><ele>562.0</ele><time>2026-04-12T13:51:05.012Z</time></trkpt><trkpt lat="43.6527778" lon="12.2467809"><ele>562.0</ele><time>2026-04-12T13:51:06.013Z</time></trkpt><trkpt lat="43.6527308" lon="12.246869"><ele>562.0</ele><time>2026-04-12T13:51:07.012Z</time></trkpt><trkpt lat="43.6526727" lon="12.2469476"><ele>562.0</ele><time>2026-04-12T13:51:08.014Z</time></trkpt><trkpt lat="43.6525852" lon="12.2470135"><ele>562.0</ele><time>2026-04-12T13:51:09.011Z</time></trkpt><trkpt lat="43.6524653" lon="12.2470859"><ele>562.0</ele><time>2026-04-12T13:51:10.015Z</time></trkpt><trkpt lat="43.6523296" lon="12.2471819"><ele>562.0</ele><time>2026-04-12T13:51:11.012Z</time></trkpt><trkpt lat="43.6521969" lon="12.2472969"><ele>562.0</ele><time>2026-04-12T13:51:12.012Z</time></trkpt><trkpt lat="43.6520555" lon="12.2474225"><ele>563.3333333333334</ele><time>2026-04-12T13:51:13.017Z</time></trkpt><trkpt lat="43.6519098" lon="12.2475543"><ele>564.6666666666666</ele><time>2026-04-12T13:51:14.011Z</time></trkpt><trkpt lat="43.6517596" lon="12.247693"><ele>566.0</ele><time>2026-04-12T13:51:15.013Z</time></trkpt><trkpt lat="43.6516213" lon="12.2478369"><ele>566.0</ele><time>2026-04-12T13:51:16.012Z</time></trkpt><trkpt lat="43.651501" lon="12.2479914"><ele>566.0</ele><time>2026-04-12T13:51:17.012Z</time></trkpt><trkpt lat="43.6514076" lon="12.2481657"><ele>566.0</ele><time>2026-04-12T13:51:18.011Z</time></trkpt><trkpt lat="43.6513386" lon="12.2483732"><ele>560.0</ele><time>2026-04-12T13:51:19.012Z</time></trkpt><trkpt lat="43.6512911" lon="12.2486051"><ele>554.0</ele><time>2026-04-12T13:51:20.014Z</time></trkpt><trkpt lat="43.6512495" lon="12.248849"><ele>548.0</ele><time>2026-04-12T13:51:21.014Z</time></trkpt><trkpt lat="43.6512134" lon="12.2491096"><ele>548.0</ele><time>2026-04-12T13:51:22.011Z</time></trkpt><trkpt lat="43.6512261" lon="12.2493876"><ele>548.0</ele><time>2026-04-12T13:51:23.014Z</time></trkpt><trkpt lat="43.6512705" lon="12.2496715"><ele>548.0</ele><time>2026-04-12T13:51:24.011Z</time></trkpt><trkpt lat="43.6513341" lon="12.2499401"><ele>550.0</ele><time>2026-04-12T13:51:25.01Z</time></trkpt><trkpt lat="43.6514212" lon="12.2501738"><ele>552.0</ele><time>2026-04-12T13:51:26.012Z</time></trkpt><trkpt lat="43.6515371" lon="12.2503717"><ele>554.0</ele><time>2026-04-12T13:51:27.011Z</time></trkpt><trkpt lat="43.6516779" lon="12.2505425"><ele>555.6666666666666</ele><time>2026-04-12T13:51:28.013Z</time></trkpt><trkpt lat="43.6518284" lon="12.2506826"><ele>557.3333333333334</ele><time>2026-04-12T13:51:29.011Z</time></trkpt><trkpt lat="43.6519854" lon="12.2507955"><ele>559.0</ele><time>2026-04-12T13:51:30.011Z</time></trkpt><trkpt lat="43.6521224" lon="12.2508921"><ele>555.75</ele><time>2026-04-12T13:51:31.014Z</time></trkpt><trkpt lat="43.6522279" lon="12.2509948"><ele>552.5</ele><time>2026-04-12T13:51:32.013Z</time></trkpt><trkpt lat="43.6522905" lon="12.2511257"><ele>549.25</ele><time>2026-04-12T13:51:33.014Z</time></trkpt><trkpt lat="43.6523189" lon="12.251285"><ele>546.0</ele><time>2026-04-12T13:51:34.012Z</time></trkpt><trkpt lat="43.6523172" lon="12.2514455"><ele>545.8333333333334</ele><time>2026-04-12T13:51:35.012Z</time></trkpt><trkpt lat="43.652303" lon="12.2515908"><ele>545.6666666666666</ele><time>2026-04-12T13:51:36.014Z</time></trkpt><trkpt lat="43.6522973" lon="12.2517166"><ele>545.5</ele><time>2026-04-12T13:51:37.014Z</time></trkpt><trkpt lat="43.6523043" lon="12.2518259"><ele>545.3333333333333</ele><time>2026-04-12T13:51:38.01Z</time></trkpt><trkpt lat="43.6523341" lon="12.2519253"><ele>545.1666666666666</ele><time>2026-04-12T13:51:39.014Z</time></trkpt><trkpt lat="43.6524189" lon="12.2519731"><ele>545.0</ele><time>2026-04-12T13:51:40.012Z</time></trkpt><trkpt lat="43.6525164" lon="12.2520043"><ele>545.0</ele><time>2026-04-12T13:51:41.01Z</time></trkpt><trkpt lat="43.6526319" lon="12.2520266"><ele>545.0</ele><time>2026-04-12T13:51:42.014Z</time></trkpt><trkpt lat="43.6527421" lon="12.2520705"><ele>545.0</ele><time>2026-04-12T13:51:43.012Z</time></trkpt><trkpt lat="43.6528684" lon="12.2520525"><ele>545.0</ele><time>2026-04-12T13:51:45.161Z</time></trkpt><trkpt lat="43.6529903" lon="12.2521409"><ele>543.5</ele><time>2026-04-12T13:51:46.337Z</time></trkpt><trkpt lat="43.6531415" lon="12.2524637"><ele>542.0</ele><time>2026-04-12T13:51:48.015Z</time></trkpt><trkpt lat="43.6532218" lon="12.2526946"><ele>542.0</ele><time>2026-04-12T13:51:49.01Z</time></trkpt><trkpt lat="43.6533044" lon="12.2529073"><ele>542.0</ele><time>2026-04-12T13:51:50.011Z</time></trkpt><trkpt lat="43.6533781" lon="12.2531358"><ele>542.0</ele><time>2026-04-12T13:51:51.013Z</time></trkpt><trkpt lat="43.653454" lon="12.2533871"><ele>539.0</ele><time>2026-04-12T13:51:52.011Z</time></trkpt><trkpt lat="43.653523" lon="12.2536526"><ele>536.0</ele><time>2026-04-12T13:51:53.012Z</time></trkpt><trkpt lat="43.6535909" lon="12.2539211"><ele>533.0</ele><time>2026-04-12T13:51:54.011Z</time></trkpt><trkpt lat="43.6536599" lon="12.2541696"><ele>533.0</ele><time>2026-04-12T13:51:55.015Z</time></trkpt><trkpt lat="43.6537311" lon="12.2543991"><ele>533.0</ele><time>2026-04-12T13:51:56.012Z</time></trkpt><trkpt lat="43.6538042" lon="12.2546104"><ele>533.0</ele><time>2026-04-12T13:51:57.013Z</time></trkpt><trkpt lat="43.6538746" lon="12.2548019"><ele>535.25</ele><time>2026-04-12T13:51:58.011Z</time></trkpt><trkpt lat="43.6539454" lon="12.2549749"><ele>537.5</ele><time>2026-04-12T13:51:59.013Z</time></trkpt><trkpt lat="43.6540475" lon="12.2551115"><ele>539.75</ele><time>2026-04-12T13:52:00.012Z</time></trkpt><trkpt lat="43.6541733" lon="12.2552222"><ele>542.0</ele><time>2026-04-12T13:52:01.013Z</time></trkpt><trkpt lat="43.6543149" lon="12.2553187"><ele>541.6666666666666</ele><time>2026-04-12T13:52:02.011Z</time></trkpt><trkpt lat="43.6544753" lon="12.2554182"><ele>541.3333333333334</ele><time>2026-04-12T13:52:03.013Z</time></trkpt><trkpt lat="43.654658" lon="12.2555226"><ele>541.0</ele><time>2026-04-12T13:52:04.012Z</time></trkpt><trkpt lat="43.6548432" lon="12.255632"><ele>541.0</ele><time>2026-04-12T13:52:05.012Z</time></trkpt><trkpt lat="43.6550223" lon="12.2557366"><ele>541.0</ele><time>2026-04-12T13:52:06.012Z</time></trkpt><trkpt lat="43.6551894" lon="12.2558436"><ele>541.0</ele><time>2026-04-12T13:52:07.016Z</time></trkpt><trkpt lat="43.6553509" lon="12.2559431"><ele>537.0</ele><time>2026-04-12T13:52:08.011Z</time></trkpt><trkpt lat="43.6555163" lon="12.2560451"><ele>533.0</ele><time>2026-04-12T13:52:09.012Z</time></trkpt><trkpt lat="43.6556785" lon="12.2561435"><ele>529.0</ele><time>2026-04-12T13:52:10.011Z</time></trkpt><trkpt lat="43.6558377" lon="12.2562463"><ele>529.0</ele><time>2026-04-12T13:52:11.011Z</time></trkpt><trkpt lat="43.6560016" lon="12.2563399"><ele>529.0</ele><time>2026-04-12T13:52:12.01Z</time></trkpt><trkpt lat="43.656166" lon="12.256406"><ele>529.0</ele><time>2026-04-12T13:52:13.012Z</time></trkpt><trkpt lat="43.6563254" lon="12.2564502"><ele>528.75</ele><time>2026-04-12T13:52:14.015Z</time></trkpt><trkpt lat="43.656475" lon="12.2564966"><ele>528.5</ele><time>2026-04-12T13:52:15.012Z</time></trkpt><trkpt lat="43.6566137" lon="12.2565618"><ele>528.25</ele><time>2026-04-12T13:52:16.012Z</time></trkpt><trkpt lat="43.6567398" lon="12.2566466"><ele>528.0</ele><time>2026-04-12T13:52:17.01Z</time></trkpt><trkpt lat="43.6568459" lon="12.2567738"><ele>528.0</ele><time>2026-04-12T13:52:18.013Z</time></trkpt><trkpt lat="43.6569308" lon="12.2569499"><ele>528.0</ele><time>2026-04-12T13:52:19.011Z</time></trkpt><trkpt lat="43.6570058" lon="12.2571692"><ele>528.0</ele><time>2026-04-12T13:52:20.014Z</time></trkpt><trkpt lat="43.6570747" lon="12.2574138"><ele>526.6666666666666</ele><time>2026-04-12T13:52:21.012Z</time></trkpt><trkpt lat="43.6571357" lon="12.2576573"><ele>525.3333333333333</ele><time>2026-04-12T13:52:22.013Z</time></trkpt><trkpt lat="43.6571962" lon="12.2578938"><ele>524.0</ele><time>2026-04-12T13:52:23.012Z</time></trkpt><trkpt lat="43.6572696" lon="12.2581335"><ele>524.0</ele><time>2026-04-12T13:52:24.011Z</time></trkpt><trkpt lat="43.6573578" lon="12.2583703"><ele>524.0</ele><time>2026-04-12T13:52:25.017Z</time></trkpt><trkpt lat="43.6574582" lon="12.2585924"><ele>524.0</ele><time>2026-04-12T13:52:26.01Z</time></trkpt><trkpt lat="43.6575626" lon="12.258814"><ele>523.3333333333333</ele><time>2026-04-12T13:52:27.013Z</time></trkpt><trkpt lat="43.6576854" lon="12.2590334"><ele>522.6666666666666</ele><time>2026-04-12T13:52:28.011Z</time></trkpt><trkpt lat="43.6578182" lon="12.2592615"><ele>522.0</ele><time>2026-04-12T13:52:29.01Z</time></trkpt><trkpt lat="43.6579568" lon="12.2594952"><ele>522.0</ele><time>2026-04-12T13:52:30.014Z</time></trkpt><trkpt lat="43.6580937" lon="12.2597202"><ele>522.0</ele><time>2026-04-12T13:52:31.011Z</time></trkpt><trkpt lat="43.6582179" lon="12.2599383"><ele>522.0</ele><time>2026-04-12T13:52:32.01Z</time></trkpt><trkpt lat="43.6583315" lon="12.260147"><ele>521.0</ele><time>2026-04-12T13:52:33.011Z</time></trkpt><trkpt lat="43.6584312" lon="12.2603622"><ele>520.0</ele><time>2026-04-12T13:52:34.01Z</time></trkpt><trkpt lat="43.6585104" lon="12.2606006"><ele>519.0</ele><time>2026-04-12T13:52:35.011Z</time></trkpt><trkpt lat="43.6585622" lon="12.2608732"><ele>518.6666666666666</ele><time>2026-04-12T13:52:36.012Z</time></trkpt><trkpt lat="43.6586085" lon="12.2611557"><ele>518.3333333333333</ele><time>2026-04-12T13:52:37.013Z</time></trkpt><trkpt lat="43.658642" lon="12.2614477"><ele>518.0</ele><time>2026-04-12T13:52:38.012Z</time></trkpt><trkpt lat="43.6586646" lon="12.2617464"><ele>520.3333333333333</ele><time>2026-04-12T13:52:39.013Z</time></trkpt><trkpt lat="43.6586813" lon="12.2620396"><ele>522.6666666666666</ele><time>2026-04-12T13:52:40.011Z</time></trkpt><trkpt lat="43.6586933" lon="12.26232"><ele>525.0</ele><time>2026-04-12T13:52:41.013Z</time></trkpt><trkpt lat="43.6586958" lon="12.2625904"><ele>525.0</ele><time>2026-04-12T13:52:42.012Z</time></trkpt><trkpt lat="43.6586824" lon="12.2628601"><ele>525.0</ele><time>2026-04-12T13:52:43.012Z</time></trkpt><trkpt lat="43.6586521" lon="12.2631311"><ele>525.0</ele><time>2026-04-12T13:52:44.013Z</time></trkpt><trkpt lat="43.6585967" lon="12.2633899"><ele>522.0</ele><time>2026-04-12T13:52:45.012Z</time></trkpt><trkpt lat="43.6585352" lon="12.263635"><ele>519.0</ele><time>2026-04-12T13:52:46.013Z</time></trkpt><trkpt lat="43.658488" lon="12.2638664"><ele>516.0</ele><time>2026-04-12T13:52:47.012Z</time></trkpt><trkpt lat="43.6584739" lon="12.2640942"><ele>516.0</ele><time>2026-04-12T13:52:48.018Z</time></trkpt><trkpt lat="43.6584954" lon="12.2643158"><ele>516.0</ele><time>2026-04-12T13:52:49.011Z</time></trkpt><trkpt lat="43.6585446" lon="12.2645323"><ele>516.0</ele><time>2026-04-12T13:52:50.013Z</time></trkpt><trkpt lat="43.6586198" lon="12.2647318"><ele>515.0</ele><time>2026-04-12T13:52:51.012Z</time></trkpt><trkpt lat="43.6587066" lon="12.2649148"><ele>514.0</ele><time>2026-04-12T13:52:52.012Z</time></trkpt><trkpt lat="43.6587989" lon="12.2650792"><ele>513.0</ele><time>2026-04-12T13:52:53.014Z</time></trkpt><trkpt lat="43.6588811" lon="12.2652366"><ele>512.0</ele><time>2026-04-12T13:52:54.011Z</time></trkpt><trkpt lat="43.6589497" lon="12.2654005"><ele>512.0</ele><time>2026-04-12T13:52:55.013Z</time></trkpt><trkpt lat="43.6590067" lon="12.2655823"><ele>512.0</ele><time>2026-04-12T13:52:56.012Z</time></trkpt><trkpt lat="43.6590497" lon="12.2657853"><ele>512.0</ele><time>2026-04-12T13:52:57.014Z</time></trkpt><trkpt lat="43.6590704" lon="12.2659961"><ele>511.5</ele><time>2026-04-12T13:52:58.015Z</time></trkpt><trkpt lat="43.6590963" lon="12.2661939"><ele>511.0</ele><time>2026-04-12T13:52:59.012Z</time></trkpt><trkpt lat="43.6591242" lon="12.266378"><ele>510.5</ele><time>2026-04-12T13:53:00.012Z</time></trkpt><trkpt lat="43.6591524" lon="12.2665504"><ele>510.0</ele><time>2026-04-12T13:53:01.011Z</time></trkpt><trkpt lat="43.6591791" lon="12.2667163"><ele>510.0</ele><time>2026-04-12T13:53:02.012Z</time></trkpt><trkpt lat="43.6592045" lon="12.2668704"><ele>510.0</ele><time>2026-04-12T13:53:03.015Z</time></trkpt><trkpt lat="43.6592387" lon="12.2670064"><ele>510.0</ele><time>2026-04-12T13:53:04.011Z</time></trkpt><trkpt lat="43.6592866" lon="12.267121"><ele>510.0</ele><time>2026-04-12T13:53:05.013Z</time></trkpt><trkpt lat="43.6593647" lon="12.2672031"><ele>510.0</ele><time>2026-04-12T13:53:06.011Z</time></trkpt><trkpt lat="43.6594544" lon="12.2672814"><ele>511.5</ele><time>2026-04-12T13:53:07.011Z</time></trkpt><trkpt lat="43.6595461" lon="12.2673668"><ele>513.0</ele><time>2026-04-12T13:53:08.012Z</time></trkpt><trkpt lat="43.6596348" lon="12.267464"><ele>514.5</ele><time>2026-04-12T13:53:09.012Z</time></trkpt><trkpt lat="43.6597136" lon="12.2675838"><ele>516.0</ele><time>2026-04-12T13:53:10.013Z</time></trkpt><trkpt lat="43.6597803" lon="12.2677355"><ele>516.0</ele><time>2026-04-12T13:53:11.013Z</time></trkpt><trkpt lat="43.6598466" lon="12.2679154"><ele>516.0</ele><time>2026-04-12T13:53:12.011Z</time></trkpt><trkpt lat="43.6599233" lon="12.2681255"><ele>516.0</ele><time>2026-04-12T13:53:13.011Z</time></trkpt><trkpt lat="43.6600248" lon="12.2683263"><ele>513.6666666666666</ele><time>2026-04-12T13:53:14.011Z</time></trkpt><trkpt lat="43.660126" lon="12.2685098"><ele>511.3333333333333</ele><time>2026-04-12T13:53:15.012Z</time></trkpt><trkpt lat="43.6602182" lon="12.2686827"><ele>509.0</ele><time>2026-04-12T13:53:16.011Z</time></trkpt><trkpt lat="43.6602994" lon="12.268854"><ele>511.3333333333333</ele><time>2026-04-12T13:53:17.011Z</time></trkpt><trkpt lat="43.660359" lon="12.2690359"><ele>513.6666666666666</ele><time>2026-04-12T13:53:18.013Z</time></trkpt><trkpt lat="43.6603976" lon="12.2692325"><ele>516.0</ele><time>2026-04-12T13:53:19.012Z</time></trkpt><trkpt lat="43.660402" lon="12.2694578"><ele>514.0</ele><time>2026-04-12T13:53:20.013Z</time></trkpt><trkpt lat="43.6603234" lon="12.2700206"><ele>512.0</ele><time>2026-04-12T13:53:22.162Z</time></trkpt><trkpt lat="43.6601983" lon="12.2704137"><ele>510.3333333333333</ele><time>2026-04-12T13:53:23.339Z</time></trkpt><trkpt lat="43.6601506" lon="12.270807"><ele>508.66666666666663</ele><time>2026-04-12T13:53:25.012Z</time></trkpt><trkpt lat="43.6601322" lon="12.2710078"><ele>507.0</ele><time>2026-04-12T13:53:26.01Z</time></trkpt><trkpt lat="43.6601004" lon="12.2712243"><ele>508.66666666666663</ele><time>2026-04-12T13:53:27.015Z</time></trkpt><trkpt lat="43.660086" lon="12.2714432"><ele>510.3333333333333</ele><time>2026-04-12T13:53:28.012Z</time></trkpt><trkpt lat="43.6600858" lon="12.2716783"><ele>512.0</ele><time>2026-04-12T13:53:29.013Z</time></trkpt><trkpt lat="43.6601049" lon="12.2718979"><ele>512.0</ele><time>2026-04-12T13:53:30.01Z</time></trkpt><trkpt lat="43.6601504" lon="12.2721139"><ele>512.0</ele><time>2026-04-12T13:53:31.012Z</time></trkpt><trkpt lat="43.660217" lon="12.2723167"><ele>512.0</ele><time>2026-04-12T13:53:32.015Z</time></trkpt><trkpt lat="43.6602955" lon="12.2725094"><ele>507.66666666666663</ele><time>2026-04-12T13:53:33.012Z</time></trkpt><trkpt lat="43.6603823" lon="12.2726995"><ele>503.33333333333337</ele><time>2026-04-12T13:53:34.012Z</time></trkpt><trkpt lat="43.6604701" lon="12.2728899"><ele>499.0</ele><time>2026-04-12T13:53:35.011Z</time></trkpt><trkpt lat="43.6605604" lon="12.2730826"><ele>499.6666666666667</ele><time>2026-04-12T13:53:36.011Z</time></trkpt><trkpt lat="43.660649" lon="12.273274"><ele>500.33333333333337</ele><time>2026-04-12T13:53:37.013Z</time></trkpt><trkpt lat="43.6607392" lon="12.2734576"><ele>501.0</ele><time>2026-04-12T13:53:38.012Z</time></trkpt><trkpt lat="43.6608308" lon="12.2736346"><ele>501.0</ele><time>2026-04-12T13:53:39.013Z</time></trkpt><trkpt lat="43.6609171" lon="12.2738025"><ele>501.0</ele><time>2026-04-12T13:53:40.012Z</time></trkpt><trkpt lat="43.6609972" lon="12.2739559"><ele>501.0</ele><time>2026-04-12T13:53:41.014Z</time></trkpt><trkpt lat="43.6610608" lon="12.2740913"><ele>501.0</ele><time>2026-04-12T13:53:42.014Z</time></trkpt><trkpt lat="43.6611143" lon="12.27422"><ele>500.5</ele><time>2026-04-12T13:53:43.014Z</time></trkpt><trkpt lat="43.6611534" lon="12.2743678"><ele>500.0</ele><time>2026-04-12T13:53:44.012Z</time></trkpt><trkpt lat="43.6611866" lon="12.2745392"><ele>499.5</ele><time>2026-04-12T13:53:45.011Z</time></trkpt><trkpt lat="43.6612181" lon="12.2747335"><ele>499.0</ele><time>2026-04-12T13:53:46.014Z</time></trkpt><trkpt lat="43.6612507" lon="12.2749394"><ele>497.6666666666667</ele><time>2026-04-12T13:53:47.012Z</time></trkpt><trkpt lat="43.6612845" lon="12.2751516"><ele>496.33333333333337</ele><time>2026-04-12T13:53:48.013Z</time></trkpt><trkpt lat="43.6613259" lon="12.2753701"><ele>495.0</ele><time>2026-04-12T13:53:49.014Z</time></trkpt><trkpt lat="43.6613828" lon="12.2756001"><ele>496.33333333333337</ele><time>2026-04-12T13:53:50.012Z</time></trkpt><trkpt lat="43.6614556" lon="12.275841"><ele>497.6666666666667</ele><time>2026-04-12T13:53:51.013Z</time></trkpt><trkpt lat="43.6615441" lon="12.2760775"><ele>499.0</ele><time>2026-04-12T13:53:52.012Z</time></trkpt><trkpt lat="43.6616285" lon="12.2763045"><ele>498.6666666666667</ele><time>2026-04-12T13:53:53.011Z</time></trkpt><trkpt lat="43.6617198" lon="12.276519"><ele>498.33333333333337</ele><time>2026-04-12T13:53:54.014Z</time></trkpt><trkpt lat="43.6618133" lon="12.2767336"><ele>498.0</ele><time>2026-04-12T13:53:55.013Z</time></trkpt><trkpt lat="43.6619015" lon="12.2769543"><ele>497.66666666666663</ele><time>2026-04-12T13:53:56.013Z</time></trkpt><trkpt lat="43.6619753" lon="12.2771875"><ele>497.3333333333333</ele><time>2026-04-12T13:53:57.012Z</time></trkpt><trkpt lat="43.6620362" lon="12.2774344"><ele>497.0</ele><time>2026-04-12T13:53:58.013Z</time></trkpt><trkpt lat="43.6620821" lon="12.2776994"><ele>495.66666666666663</ele><time>2026-04-12T13:53:59.014Z</time></trkpt><trkpt lat="43.6621367" lon="12.2779717"><ele>494.33333333333337</ele><time>2026-04-12T13:54:00.013Z</time></trkpt><trkpt lat="43.662185" lon="12.27825"><ele>493.0</ele><time>2026-04-12T13:54:01.011Z</time></trkpt><trkpt lat="43.6622483" lon="12.2785267"><ele>493.0</ele><time>2026-04-12T13:54:02.016Z</time></trkpt><trkpt lat="43.6622933" lon="12.2788033"><ele>493.0</ele><time>2026-04-12T13:54:03.015Z</time></trkpt><trkpt lat="43.6623417" lon="12.27907"><ele>493.0</ele><time>2026-04-12T13:54:04.011Z</time></trkpt><trkpt lat="43.66238" lon="12.2793383"><ele>492.6666666666667</ele><time>2026-04-12T13:54:05.011Z</time></trkpt><trkpt lat="43.66239" lon="12.2796183"><ele>492.33333333333337</ele><time>2026-04-12T13:54:06.011Z</time></trkpt><trkpt lat="43.6623767" lon="12.2799033"><ele>492.0</ele><time>2026-04-12T13:54:07.013Z</time></trkpt><trkpt lat="43.6623317" lon="12.28019"><ele>492.0</ele><time>2026-04-12T13:54:08.012Z</time></trkpt><trkpt lat="43.662265" lon="12.2804733"><ele>492.0</ele><time>2026-04-12T13:54:09.013Z</time></trkpt><trkpt lat="43.662175" lon="12.2807517"><ele>492.0</ele><time>2026-04-12T13:54:10.012Z</time></trkpt><trkpt lat="43.6620717" lon="12.2810183"><ele>492.0</ele><time>2026-04-12T13:54:11.011Z</time></trkpt><trkpt lat="43.6619667" lon="12.281275"><ele>492.0</ele><time>2026-04-12T13:54:12.015Z</time></trkpt><trkpt lat="43.661865" lon="12.28152"><ele>492.0</ele><time>2026-04-12T13:54:13.014Z</time></trkpt><trkpt lat="43.6617667" lon="12.2817483"><ele>492.0</ele><time>2026-04-12T13:54:14.012Z</time></trkpt><trkpt lat="43.6616767" lon="12.2819717"><ele>492.0</ele><time>2026-04-12T13:54:15.012Z</time></trkpt><trkpt lat="43.6615867" lon="12.28217"><ele>492.0</ele><time>2026-04-12T13:54:16.012Z</time></trkpt><trkpt lat="43.6615217" lon="12.28236"><ele>490.5</ele><time>2026-04-12T13:54:17.011Z</time></trkpt><trkpt lat="43.6614717" lon="12.28253"><ele>489.0</ele><time>2026-04-12T13:54:18.011Z</time></trkpt><trkpt lat="43.6614467" lon="12.2826933"><ele>487.5</ele><time>2026-04-12T13:54:19.013Z</time></trkpt><trkpt lat="43.6614367" lon="12.28285"><ele>486.0</ele><time>2026-04-12T13:54:20.012Z</time></trkpt><trkpt lat="43.66144" lon="12.2829967"><ele>485.6</ele><time>2026-04-12T13:54:21.012Z</time></trkpt><trkpt lat="43.6614583" lon="12.2831333"><ele>485.20000000000005</ele><time>2026-04-12T13:54:22.011Z</time></trkpt><trkpt lat="43.6614933" lon="12.283265"><ele>484.79999999999995</ele><time>2026-04-12T13:54:23.012Z</time></trkpt><trkpt lat="43.661545" lon="12.2833783"><ele>484.4</ele><time>2026-04-12T13:54:24.014Z</time></trkpt><trkpt lat="43.661605" lon="12.283485"><ele>484.0</ele><time>2026-04-12T13:54:25.011Z</time></trkpt><trkpt lat="43.661665" lon="12.28358"><ele>484.00000000000006</ele><time>2026-04-12T13:54:26.011Z</time></trkpt><trkpt lat="43.661715" lon="12.28367"><ele>484.0</ele><time>2026-04-12T13:54:27.015Z</time></trkpt><trkpt lat="43.6617617" lon="12.2837533"><ele>484.0</ele><time>2026-04-12T13:54:28.01Z</time></trkpt><trkpt lat="43.6618067" lon="12.2838383"><ele>484.0</ele><time>2026-04-12T13:54:29.013Z</time></trkpt><trkpt lat="43.66185" lon="12.2839283"><ele>484.00000000000006</ele><time>2026-04-12T13:54:30.01Z</time></trkpt><trkpt lat="43.66189" lon="12.284015"><ele>484.0</ele><time>2026-04-12T13:54:31.014Z</time></trkpt><trkpt lat="43.661925" lon="12.284095"><ele>483.83333333333337</ele><time>2026-04-12T13:54:32.012Z</time></trkpt><trkpt lat="43.6619583" lon="12.284175"><ele>483.6666666666667</ele><time>2026-04-12T13:54:33.015Z</time></trkpt><trkpt lat="43.6619767" lon="12.2842617"><ele>483.5</ele><time>2026-04-12T13:54:34.016Z</time></trkpt><trkpt lat="43.6619765" lon="12.2844272"><ele>483.33333333333337</ele><time>2026-04-12T13:54:36.011Z</time></trkpt><trkpt lat="43.6619769" lon="12.2845218"><ele>483.1666666666667</ele><time>2026-04-12T13:54:37.013Z</time></trkpt><trkpt lat="43.6619835" lon="12.2846371"><ele>483.0</ele><time>2026-04-12T13:54:38.01Z</time></trkpt><trkpt lat="43.662002" lon="12.2847737"><ele>483.66666666666663</ele><time>2026-04-12T13:54:39.013Z</time></trkpt><trkpt lat="43.6620639" lon="12.285099"><ele>484.3333333333333</ele><time>2026-04-12T13:54:41.013Z</time></trkpt><trkpt lat="43.6621127" lon="12.2853025"><ele>485.0</ele><time>2026-04-12T13:54:42.013Z</time></trkpt><trkpt lat="43.6621675" lon="12.2855223"><ele>484.66666666666663</ele><time>2026-04-12T13:54:43.012Z</time></trkpt><trkpt lat="43.6622316" lon="12.2857403"><ele>484.33333333333337</ele><time>2026-04-12T13:54:44.014Z</time></trkpt><trkpt lat="43.6623033" lon="12.285931"><ele>484.0</ele><time>2026-04-12T13:54:45.013Z</time></trkpt><trkpt lat="43.6623686" lon="12.2860995"><ele>484.0</ele><time>2026-04-12T13:54:46.013Z</time></trkpt><trkpt lat="43.6624223" lon="12.2862681"><ele>484.0</ele><time>2026-04-12T13:54:47.012Z</time></trkpt><trkpt lat="43.6624523" lon="12.2864586"><ele>484.0</ele><time>2026-04-12T13:54:48.013Z</time></trkpt><trkpt lat="43.6624524" lon="12.2866733"><ele>484.0</ele><time>2026-04-12T13:54:49.012Z</time></trkpt><trkpt lat="43.6624221" lon="12.2869026"><ele>484.0</ele><time>2026-04-12T13:54:50.013Z</time></trkpt><trkpt lat="43.662372" lon="12.2871467"><ele>484.0</ele><time>2026-04-12T13:54:51.013Z</time></trkpt><trkpt lat="43.6623246" lon="12.2874052"><ele>484.0</ele><time>2026-04-12T13:54:52.013Z</time></trkpt><trkpt lat="43.6622907" lon="12.2876631"><ele>484.5</ele><time>2026-04-12T13:54:53.014Z</time></trkpt><trkpt lat="43.6622812" lon="12.2878964"><ele>485.0</ele><time>2026-04-12T13:54:54.013Z</time></trkpt><trkpt lat="43.6622821" lon="12.288096"><ele>485.5</ele><time>2026-04-12T13:54:55.013Z</time></trkpt><trkpt lat="43.6622755" lon="12.2882654"><ele>486.0</ele><time>2026-04-12T13:54:56.013Z</time></trkpt><trkpt lat="43.6622626" lon="12.2884107"><ele>487.20000000000005</ele><time>2026-04-12T13:54:57.015Z</time></trkpt><trkpt lat="43.6622337" lon="12.2885389"><ele>488.40000000000003</ele><time>2026-04-12T13:54:58.014Z</time></trkpt><trkpt lat="43.6621783" lon="12.2886598"><ele>489.6</ele><time>2026-04-12T13:54:59.013Z</time></trkpt><trkpt lat="43.6621124" lon="12.288792"><ele>490.8</ele><time>2026-04-12T13:55:00.015Z</time></trkpt><trkpt lat="43.6620483" lon="12.2889463"><ele>492.0</ele><time>2026-04-12T13:55:01.014Z</time></trkpt><trkpt lat="43.6620023" lon="12.2891265"><ele>488.75</ele><time>2026-04-12T13:55:02.014Z</time></trkpt><trkpt lat="43.6619419" lon="12.2893086"><ele>485.5</ele><time>2026-04-12T13:55:03.013Z</time></trkpt><trkpt lat="43.6618419" lon="12.2894437"><ele>482.25</ele><time>2026-04-12T13:55:04.013Z</time></trkpt><trkpt lat="43.6617166" lon="12.2895453"><ele>479.0</ele><time>2026-04-12T13:55:05.017Z</time></trkpt><trkpt lat="43.6615738" lon="12.289618"><ele>479.0</ele><time>2026-04-12T13:55:06.012Z</time></trkpt><trkpt lat="43.6614202" lon="12.2896717"><ele>479.0</ele><time>2026-04-12T13:55:07.013Z</time></trkpt><trkpt lat="43.6612583" lon="12.2897317"><ele>479.0</ele><time>2026-04-12T13:55:08.013Z</time></trkpt><trkpt lat="43.661105" lon="12.289805"><ele>478.75</ele><time>2026-04-12T13:55:09.016Z</time></trkpt><trkpt lat="43.660965" lon="12.2898933"><ele>478.5</ele><time>2026-04-12T13:55:10.013Z</time></trkpt><trkpt lat="43.660845" lon="12.2899833"><ele>478.25</ele><time>2026-04-12T13:55:11.013Z</time></trkpt><trkpt lat="43.6607467" lon="12.29008"><ele>478.0</ele><time>2026-04-12T13:55:12.014Z</time></trkpt><trkpt lat="43.660665" lon="12.290185"><ele>478.0</ele><time>2026-04-12T13:55:13.013Z</time></trkpt><trkpt lat="43.660595" lon="12.2902883"><ele>478.0</ele><time>2026-04-12T13:55:14.014Z</time></trkpt><trkpt lat="43.6605267" lon="12.2904033"><ele>478.0</ele><time>2026-04-12T13:55:15.012Z</time></trkpt><trkpt lat="43.6604683" lon="12.2905533"><ele>478.0</ele><time>2026-04-12T13:55:16.013Z</time></trkpt><trkpt lat="43.6604317" lon="12.2907417"><ele>478.25</ele><time>2026-04-12T13:55:17.013Z</time></trkpt><trkpt lat="43.66039" lon="12.2909283"><ele>478.5</ele><time>2026-04-12T13:55:18.014Z</time></trkpt><trkpt lat="43.6603417" lon="12.2910983"><ele>478.75</ele><time>2026-04-12T13:55:19.014Z</time></trkpt><trkpt lat="43.66028" lon="12.2912517"><ele>479.0</ele><time>2026-04-12T13:55:20.015Z</time></trkpt><trkpt lat="43.6601783" lon="12.2913833"><ele>476.3333333333333</ele><time>2026-04-12T13:55:21.018Z</time></trkpt><trkpt lat="43.660045" lon="12.2914867"><ele>473.66666666666663</ele><time>2026-04-12T13:55:22.013Z</time></trkpt><trkpt lat="43.6599" lon="12.2916033"><ele>471.0</ele><time>2026-04-12T13:55:23.016Z</time></trkpt><trkpt lat="43.6597733" lon="12.2917833"><ele>471.0</ele><time>2026-04-12T13:55:24.013Z</time></trkpt><trkpt lat="43.6596583" lon="12.2919933"><ele>471.0</ele><time>2026-04-12T13:55:25.014Z</time></trkpt><trkpt lat="43.659555" lon="12.2922033"><ele>471.0</ele><time>2026-04-12T13:55:26.013Z</time></trkpt><trkpt lat="43.65944" lon="12.2923767"><ele>469.0</ele><time>2026-04-12T13:55:27.013Z</time></trkpt><trkpt lat="43.65934" lon="12.2925317"><ele>467.0</ele><time>2026-04-12T13:55:28.013Z</time></trkpt><trkpt lat="43.6592433" lon="12.29265"><ele>465.0</ele><time>2026-04-12T13:55:29.013Z</time></trkpt><trkpt lat="43.6591433" lon="12.2927333"><ele>463.0</ele><time>2026-04-12T13:55:30.02Z</time></trkpt><trkpt lat="43.65904" lon="12.2927633"><ele>463.0</ele><time>2026-04-12T13:55:31.014Z</time></trkpt><trkpt lat="43.65894" lon="12.2927617"><ele>463.0</ele><time>2026-04-12T13:55:32.013Z</time></trkpt><trkpt lat="43.6588433" lon="12.2927283"><ele>463.0</ele><time>2026-04-12T13:55:33.012Z</time></trkpt><trkpt lat="43.6587367" lon="12.29266"><ele>463.0</ele><time>2026-04-12T13:55:34.012Z</time></trkpt><trkpt lat="43.6586117" lon="12.29258"><ele>465.0</ele><time>2026-04-12T13:55:35.014Z</time></trkpt><trkpt lat="43.65849" lon="12.2925433"><ele>467.0</ele><time>2026-04-12T13:55:36.012Z</time></trkpt><trkpt lat="43.6583733" lon="12.2925717"><ele>469.0</ele><time>2026-04-12T13:55:37.019Z</time></trkpt><trkpt lat="43.65827" lon="12.29265"><ele>471.0</ele><time>2026-04-12T13:55:38.012Z</time></trkpt><trkpt lat="43.6581783" lon="12.29277"><ele>471.0</ele><time>2026-04-12T13:55:39.012Z</time></trkpt><trkpt lat="43.658125" lon="12.292925"><ele>471.0</ele><time>2026-04-12T13:55:40.014Z</time></trkpt><trkpt lat="43.658105" lon="12.2931"><ele>471.0</ele><time>2026-04-12T13:55:41.013Z</time></trkpt><trkpt lat="43.6580883" lon="12.2932517"><ele>471.0</ele><time>2026-04-12T13:55:42.013Z</time></trkpt><trkpt lat="43.6580683" lon="12.2933833"><ele>471.0</ele><time>2026-04-12T13:55:43.011Z</time></trkpt><trkpt lat="43.6580583" lon="12.293505"><ele>471.0</ele><time>2026-04-12T13:55:44.015Z</time></trkpt><trkpt lat="43.65804" lon="12.2936267"><ele>471.0</ele><time>2026-04-12T13:55:45.014Z</time></trkpt><trkpt lat="43.658035" lon="12.29375"><ele>471.0</ele><time>2026-04-12T13:55:46.013Z</time></trkpt><trkpt lat="43.6580317" lon="12.2938733"><ele>471.0</ele><time>2026-04-12T13:55:47.012Z</time></trkpt><trkpt lat="43.6580217" lon="12.2939867"><ele>471.0</ele><time>2026-04-12T13:55:48.014Z</time></trkpt><trkpt lat="43.6580033" lon="12.2940783"><ele>471.1428571428572</ele><time>2026-04-12T13:55:49.013Z</time></trkpt><trkpt lat="43.657965" lon="12.2941533"><ele>471.28571428571433</ele><time>2026-04-12T13:55:50.013Z</time></trkpt><trkpt lat="43.6579133" lon="12.2942033"><ele>471.42857142857144</ele><time>2026-04-12T13:55:51.014Z</time></trkpt><trkpt lat="43.6578467" lon="12.294225"><ele>471.5714285714286</ele><time>2026-04-12T13:55:52.013Z</time></trkpt><trkpt lat="43.6577767" lon="12.29424"><ele>471.7142857142858</ele><time>2026-04-12T13:55:53.014Z</time></trkpt><trkpt lat="43.6577117" lon="12.2942583"><ele>471.85714285714283</ele><time>2026-04-12T13:55:54.012Z</time></trkpt><trkpt lat="43.6576433" lon="12.2942867"><ele>472.0</ele><time>2026-04-12T13:55:55.014Z</time></trkpt><trkpt lat="43.6575633" lon="12.294315"><ele>472.0</ele><time>2026-04-12T13:55:56.013Z</time></trkpt><trkpt lat="43.6574783" lon="12.2943433"><ele>472.00000000000006</ele><time>2026-04-12T13:55:57.013Z</time></trkpt><trkpt lat="43.657385" lon="12.2943867"><ele>472.00000000000006</ele><time>2026-04-12T13:55:58.014Z</time></trkpt><trkpt lat="43.6572883" lon="12.29444"><ele>472.0</ele><time>2026-04-12T13:55:59.011Z</time></trkpt><trkpt lat="43.65718" lon="12.2944883"><ele>472.0</ele><time>2026-04-12T13:56:00.011Z</time></trkpt><trkpt lat="43.65707" lon="12.2945383"><ele>472.0</ele><time>2026-04-12T13:56:01.011Z</time></trkpt><trkpt lat="43.656965" lon="12.29458"><ele>472.00000000000006</ele><time>2026-04-12T13:56:02.015Z</time></trkpt><trkpt lat="43.6568883" lon="12.294605"><ele>472.00000000000006</ele><time>2026-04-12T13:56:03.018Z</time></trkpt><trkpt lat="43.656785" lon="12.2946583"><ele>472.0</ele><time>2026-04-12T13:56:05.009Z</time></trkpt><trkpt lat="43.6567417" lon="12.294735"><ele>472.0</ele><time>2026-04-12T13:56:07.011Z</time></trkpt><trkpt lat="43.65677" lon="12.2948917"><ele>471.5</ele><time>2026-04-12T13:56:09.014Z</time></trkpt><trkpt lat="43.6568183" lon="12.294995"><ele>471.0</ele><time>2026-04-12T13:56:10.011Z</time></trkpt><trkpt lat="43.65685" lon="12.29511"><ele>470.5</ele><time>2026-04-12T13:56:11.014Z</time></trkpt><trkpt lat="43.656955" lon="12.2952917"><ele>470.0</ele><time>2026-04-12T13:56:12.011Z</time></trkpt><trkpt lat="43.6570667" lon="12.295475"><ele>469.66666666666663</ele><time>2026-04-12T13:56:13.011Z</time></trkpt><trkpt lat="43.6571667" lon="12.2956783"><ele>469.33333333333337</ele><time>2026-04-12T13:56:14.014Z</time></trkpt><trkpt lat="43.657255" lon="12.295895"><ele>469.0</ele><time>2026-04-12T13:56:15.016Z</time></trkpt><trkpt lat="43.6573333" lon="12.2961317"><ele>469.0</ele><time>2026-04-12T13:56:16.011Z</time></trkpt><trkpt lat="43.6573817" lon="12.2963817"><ele>469.0</ele><time>2026-04-12T13:56:17.014Z</time></trkpt><trkpt lat="43.6574467" lon="12.29661"><ele>469.0</ele><time>2026-04-12T13:56:18.012Z</time></trkpt><trkpt lat="43.6575117" lon="12.2968167"><ele>469.5</ele><time>2026-04-12T13:56:19.012Z</time></trkpt><trkpt lat="43.657565" lon="12.2970117"><ele>470.0</ele><time>2026-04-12T13:56:20.011Z</time></trkpt><trkpt lat="43.65761" lon="12.297205"><ele>470.5</ele><time>2026-04-12T13:56:21.012Z</time></trkpt><trkpt lat="43.657645" lon="12.2974067"><ele>471.0</ele><time>2026-04-12T13:56:22.015Z</time></trkpt><trkpt lat="43.6576917" lon="12.2976167"><ele>471.0</ele><time>2026-04-12T13:56:23.012Z</time></trkpt><trkpt lat="43.6577283" lon="12.2978383"><ele>471.0</ele><time>2026-04-12T13:56:24.012Z</time></trkpt><trkpt lat="43.657755" lon="12.298065"><ele>471.0</ele><time>2026-04-12T13:56:25.013Z</time></trkpt><trkpt lat="43.6577567" lon="12.298305"><ele>472.33333333333337</ele><time>2026-04-12T13:56:26.013Z</time></trkpt><trkpt lat="43.6577367" lon="12.29855"><ele>473.6666666666667</ele><time>2026-04-12T13:56:27.014Z</time></trkpt><trkpt lat="43.657725" lon="12.2988033"><ele>475.0</ele><time>2026-04-12T13:56:28.011Z</time></trkpt><trkpt lat="43.6577083" lon="12.2990617"><ele>475.0</ele><time>2026-04-12T13:56:29.015Z</time></trkpt><trkpt lat="43.65769" lon="12.2993283"><ele>475.0</ele><time>2026-04-12T13:56:30.013Z</time></trkpt><trkpt lat="43.65767" lon="12.2996017"><ele>475.0</ele><time>2026-04-12T13:56:31.015Z</time></trkpt><trkpt lat="43.6576533" lon="12.2998833"><ele>475.33333333333337</ele><time>2026-04-12T13:56:32.015Z</time></trkpt><trkpt lat="43.6576417" lon="12.3001717"><ele>475.66666666666663</ele><time>2026-04-12T13:56:33.015Z</time></trkpt><trkpt lat="43.6576267" lon="12.3004667"><ele>476.0</ele><time>2026-04-12T13:56:34.014Z</time></trkpt><trkpt lat="43.657625" lon="12.3007667"><ele>475.0</ele><time>2026-04-12T13:56:35.013Z</time></trkpt><trkpt lat="43.6576333" lon="12.301065"><ele>474.0</ele><time>2026-04-12T13:56:36.014Z</time></trkpt><trkpt lat="43.65764" lon="12.30136"><ele>473.0</ele><time>2026-04-12T13:56:37.015Z</time></trkpt><trkpt lat="43.65765" lon="12.3016517"><ele>472.66666666666663</ele><time>2026-04-12T13:56:38.015Z</time></trkpt><trkpt lat="43.65766" lon="12.3019417"><ele>472.33333333333337</ele><time>2026-04-12T13:56:39.014Z</time></trkpt><trkpt lat="43.6576733" lon="12.302235"><ele>472.0</ele><time>2026-04-12T13:56:40.014Z</time></trkpt><trkpt lat="43.6576783" lon="12.3025233"><ele>474.33333333333337</ele><time>2026-04-12T13:56:41.011Z</time></trkpt><trkpt lat="43.657685" lon="12.30281"><ele>476.66666666666663</ele><time>2026-04-12T13:56:42.014Z</time></trkpt><trkpt lat="43.6576933" lon="12.3030983"><ele>479.0</ele><time>2026-04-12T13:56:43.014Z</time></trkpt><trkpt lat="43.6576983" lon="12.3033833"><ele>479.3333333333333</ele><time>2026-04-12T13:56:44.016Z</time></trkpt><trkpt lat="43.657705" lon="12.30367"><ele>479.66666666666663</ele><time>2026-04-12T13:56:45.014Z</time></trkpt><trkpt lat="43.657715" lon="12.3039517"><ele>480.0</ele><time>2026-04-12T13:56:46.012Z</time></trkpt><trkpt lat="43.6577283" lon="12.3042367"><ele>478.33333333333337</ele><time>2026-04-12T13:56:47.011Z</time></trkpt><trkpt lat="43.6577383" lon="12.30452"><ele>476.6666666666667</ele><time>2026-04-12T13:56:48.014Z</time></trkpt><trkpt lat="43.6577417" lon="12.304805"><ele>475.0</ele><time>2026-04-12T13:56:49.014Z</time></trkpt><trkpt lat="43.6577633" lon="12.3050883"><ele>474.0</ele><time>2026-04-12T13:56:50.012Z</time></trkpt><trkpt lat="43.6577717" lon="12.3053683"><ele>473.0</ele><time>2026-04-12T13:56:51.014Z</time></trkpt><trkpt lat="43.657785" lon="12.3056383"><ele>472.0</ele><time>2026-04-12T13:56:52.013Z</time></trkpt><trkpt lat="43.6577867" lon="12.3059033"><ele>471.0</ele><time>2026-04-12T13:56:53.014Z</time></trkpt><trkpt lat="43.6577817" lon="12.3061733"><ele>470.0</ele><time>2026-04-12T13:56:54.012Z</time></trkpt><trkpt lat="43.6577567" lon="12.3064517"><ele>469.0</ele><time>2026-04-12T13:56:55.013Z</time></trkpt><trkpt lat="43.6576967" lon="12.30673"><ele>468.0</ele><time>2026-04-12T13:56:56.015Z</time></trkpt><trkpt lat="43.6576017" lon="12.3070067"><ele>467.0</ele><time>2026-04-12T13:56:57.014Z</time></trkpt><trkpt lat="43.6575217" lon="12.3072967"><ele>466.0</ele><time>2026-04-12T13:56:58.013Z</time></trkpt><trkpt lat="43.6574367" lon="12.3075967"><ele>463.5</ele><time>2026-04-12T13:56:59.012Z</time></trkpt><trkpt lat="43.6573483" lon="12.3079067"><ele>461.0</ele><time>2026-04-12T13:57:00.012Z</time></trkpt><trkpt lat="43.6572567" lon="12.3082267"><ele>458.5</ele><time>2026-04-12T13:57:01.016Z</time></trkpt><trkpt lat="43.6571667" lon="12.30855"><ele>456.0</ele><time>2026-04-12T13:57:02.012Z</time></trkpt><trkpt lat="43.6570717" lon="12.308875"><ele>451.5</ele><time>2026-04-12T13:57:03.012Z</time></trkpt><trkpt lat="43.6569733" lon="12.309195"><ele>447.0</ele><time>2026-04-12T13:57:04.012Z</time></trkpt><trkpt lat="43.6568817" lon="12.3095133"><ele>459.5</ele><time>2026-04-12T13:57:05.014Z</time></trkpt><trkpt lat="43.6567917" lon="12.3098183"><ele>472.0</ele><time>2026-04-12T13:57:06.012Z</time></trkpt><trkpt lat="43.6567067" lon="12.31011"><ele>472.0</ele><time>2026-04-12T13:57:07.011Z</time></trkpt><trkpt lat="43.65663" lon="12.31039"><ele>472.0</ele><time>2026-04-12T13:57:08.011Z</time></trkpt><trkpt lat="43.6565667" lon="12.310665"><ele>472.0</ele><time>2026-04-12T13:57:09.013Z</time></trkpt><trkpt lat="43.656525" lon="12.310945"><ele>469.6666666666667</ele><time>2026-04-12T13:57:10.014Z</time></trkpt><trkpt lat="43.6564983" lon="12.3112233"><ele>467.33333333333337</ele><time>2026-04-12T13:57:11.011Z</time></trkpt><trkpt lat="43.6564683" lon="12.3115017"><ele>465.0</ele><time>2026-04-12T13:57:12.013Z</time></trkpt><trkpt lat="43.6564367" lon="12.31178"><ele>462.0</ele><time>2026-04-12T13:57:13.012Z</time></trkpt><trkpt lat="43.6564133" lon="12.31206"><ele>459.0</ele><time>2026-04-12T13:57:14.012Z</time></trkpt><trkpt lat="43.6563917" lon="12.3123433"><ele>456.0</ele><time>2026-04-12T13:57:15.012Z</time></trkpt><trkpt lat="43.656365" lon="12.3126233"><ele>455.33333333333337</ele><time>2026-04-12T13:57:16.016Z</time></trkpt><trkpt lat="43.6563483" lon="12.3129"><ele>454.6666666666667</ele><time>2026-04-12T13:57:17.014Z</time></trkpt><trkpt lat="43.6563267" lon="12.3131767"><ele>454.0</ele><time>2026-04-12T13:57:18.012Z</time></trkpt><trkpt lat="43.65631" lon="12.3134567"><ele>454.0</ele><time>2026-04-12T13:57:19.012Z</time></trkpt><trkpt lat="43.6562833" lon="12.3137433"><ele>454.0</ele><time>2026-04-12T13:57:20.011Z</time></trkpt><trkpt lat="43.65626" lon="12.3140367"><ele>454.0</ele><time>2026-04-12T13:57:21.014Z</time></trkpt><trkpt lat="43.6562333" lon="12.3143283"><ele>454.33333333333337</ele><time>2026-04-12T13:57:22.012Z</time></trkpt><trkpt lat="43.6562067" lon="12.31461"><ele>454.66666666666663</ele><time>2026-04-12T13:57:23.014Z</time></trkpt><trkpt lat="43.6561783" lon="12.3148833"><ele>455.0</ele><time>2026-04-12T13:57:24.015Z</time></trkpt><trkpt lat="43.656155" lon="12.3151483"><ele>455.3333333333333</ele><time>2026-04-12T13:57:25.012Z</time></trkpt><trkpt lat="43.656135" lon="12.315405"><ele>455.66666666666663</ele><time>2026-04-12T13:57:26.013Z</time></trkpt><trkpt lat="43.6561183" lon="12.3156517"><ele>456.0</ele><time>2026-04-12T13:57:27.011Z</time></trkpt><trkpt lat="43.6561" lon="12.31589"><ele>456.0</ele><time>2026-04-12T13:57:28.014Z</time></trkpt><trkpt lat="43.6560683" lon="12.3161167"><ele>456.0</ele><time>2026-04-12T13:57:29.017Z</time></trkpt><trkpt lat="43.65601" lon="12.3163283"><ele>456.0</ele><time>2026-04-12T13:57:30.012Z</time></trkpt><trkpt lat="43.6559367" lon="12.3165367"><ele>456.0</ele><time>2026-04-12T13:57:31.013Z</time></trkpt><trkpt lat="43.65585" lon="12.31674"><ele>456.0</ele><time>2026-04-12T13:57:32.013Z</time></trkpt><trkpt lat="43.6557583" lon="12.3169417"><ele>456.0</ele><time>2026-04-12T13:57:33.012Z</time></trkpt><trkpt lat="43.65567" lon="12.317135"><ele>453.66666666666663</ele><time>2026-04-12T13:57:34.015Z</time></trkpt><trkpt lat="43.65558" lon="12.3173333"><ele>451.3333333333333</ele><time>2026-04-12T13:57:35.011Z</time></trkpt><trkpt lat="43.655495" lon="12.31754"><ele>449.0</ele><time>2026-04-12T13:57:36.011Z</time></trkpt><trkpt lat="43.6554017" lon="12.3177567"><ele>449.0</ele><time>2026-04-12T13:57:37.012Z</time></trkpt><trkpt lat="43.655305" lon="12.31798"><ele>449.0</ele><time>2026-04-12T13:57:38.012Z</time></trkpt><trkpt lat="43.6552067" lon="12.3182017"><ele>449.0</ele><time>2026-04-12T13:57:39.013Z</time></trkpt><trkpt lat="43.65511" lon="12.3184267"><ele>449.3333333333333</ele><time>2026-04-12T13:57:40.015Z</time></trkpt><trkpt lat="43.6550083" lon="12.3186483"><ele>449.66666666666663</ele><time>2026-04-12T13:57:41.012Z</time></trkpt><trkpt lat="43.6549117" lon="12.318875"><ele>450.0</ele><time>2026-04-12T13:57:42.012Z</time></trkpt><trkpt lat="43.6548083" lon="12.3191083"><ele>448.66666666666663</ele><time>2026-04-12T13:57:43.011Z</time></trkpt><trkpt lat="43.654705" lon="12.3193483"><ele>447.3333333333333</ele><time>2026-04-12T13:57:44.012Z</time></trkpt><trkpt lat="43.654595" lon="12.3195917"><ele>446.0</ele><time>2026-04-12T13:57:45.014Z</time></trkpt><trkpt lat="43.654485" lon="12.3198383"><ele>446.3333333333333</ele><time>2026-04-12T13:57:46.012Z</time></trkpt><trkpt lat="43.6543783" lon="12.32009"><ele>446.66666666666663</ele><time>2026-04-12T13:57:47.015Z</time></trkpt><trkpt lat="43.6542633" lon="12.3203383"><ele>447.0</ele><time>2026-04-12T13:57:48.013Z</time></trkpt><trkpt lat="43.65415" lon="12.3205817"><ele>445.0</ele><time>2026-04-12T13:57:49.013Z</time></trkpt><trkpt lat="43.6540417" lon="12.320825"><ele>443.0</ele><time>2026-04-12T13:57:50.012Z</time></trkpt><trkpt lat="43.6539367" lon="12.32106"><ele>441.0</ele><time>2026-04-12T13:57:51.011Z</time></trkpt><trkpt lat="43.65383" lon="12.3212833"><ele>438.0</ele><time>2026-04-12T13:57:52.013Z</time></trkpt><trkpt lat="43.6537167" lon="12.321495"><ele>435.0</ele><time>2026-04-12T13:57:53.012Z</time></trkpt><trkpt lat="43.6536" lon="12.32169"><ele>432.0</ele><time>2026-04-12T13:57:54.015Z</time></trkpt><trkpt lat="43.6534733" lon="12.3218917"><ele>436.66666666666663</ele><time>2026-04-12T13:57:55.016Z</time></trkpt><trkpt lat="43.6533767" lon="12.322135"><ele>441.3333333333333</ele><time>2026-04-12T13:57:56.013Z</time></trkpt><trkpt lat="43.6533083" lon="12.3224033"><ele>446.0</ele><time>2026-04-12T13:57:57.014Z</time></trkpt><trkpt lat="43.65323" lon="12.322685"><ele>446.0</ele><time>2026-04-12T13:57:58.014Z</time></trkpt><trkpt lat="43.6531567" lon="12.3229717"><ele>446.0</ele><time>2026-04-12T13:57:59.012Z</time></trkpt><trkpt lat="43.65308" lon="12.32326"><ele>446.0</ele><time>2026-04-12T13:58:00.012Z</time></trkpt><trkpt lat="43.652993" lon="12.3235444"><ele>445.66666666666663</ele><time>2026-04-12T13:58:01.013Z</time></trkpt><trkpt lat="43.6528909" lon="12.3238203"><ele>445.33333333333337</ele><time>2026-04-12T13:58:02.016Z</time></trkpt><trkpt lat="43.6527783" lon="12.3240823"><ele>445.0</ele><time>2026-04-12T13:58:03.012Z</time></trkpt><trkpt lat="43.6526669" lon="12.3243458"><ele>445.0</ele><time>2026-04-12T13:58:04.013Z</time></trkpt><trkpt lat="43.6525577" lon="12.3246086"><ele>445.0</ele><time>2026-04-12T13:58:05.011Z</time></trkpt><trkpt lat="43.6524539" lon="12.3248689"><ele>445.0</ele><time>2026-04-12T13:58:06.015Z</time></trkpt><trkpt lat="43.6523549" lon="12.3251189"><ele>442.0</ele><time>2026-04-12T13:58:07.015Z</time></trkpt><trkpt lat="43.652261" lon="12.3253556"><ele>439.0</ele><time>2026-04-12T13:58:08.013Z</time></trkpt><trkpt lat="43.652167" lon="12.3255822"><ele>436.0</ele><time>2026-04-12T13:58:09.014Z</time></trkpt><trkpt lat="43.6520738" lon="12.3258034"><ele>436.6666666666667</ele><time>2026-04-12T13:58:10.015Z</time></trkpt><trkpt lat="43.651978" lon="12.3260253"><ele>437.33333333333337</ele><time>2026-04-12T13:58:11.014Z</time></trkpt><trkpt lat="43.6518818" lon="12.3262497"><ele>438.0</ele><time>2026-04-12T13:58:12.013Z</time></trkpt><trkpt lat="43.6517921" lon="12.3264756"><ele>436.66666666666663</ele><time>2026-04-12T13:58:13.012Z</time></trkpt><trkpt lat="43.6517012" lon="12.3266914"><ele>435.3333333333333</ele><time>2026-04-12T13:58:14.012Z</time></trkpt><trkpt lat="43.6516093" lon="12.3269041"><ele>434.0</ele><time>2026-04-12T13:58:15.013Z</time></trkpt><trkpt lat="43.6515179" lon="12.3271191"><ele>433.3333333333333</ele><time>2026-04-12T13:58:16.012Z</time></trkpt><trkpt lat="43.6514229" lon="12.3273374"><ele>432.66666666666663</ele><time>2026-04-12T13:58:17.014Z</time></trkpt><trkpt lat="43.6513268" lon="12.3275586"><ele>432.0</ele><time>2026-04-12T13:58:18.013Z</time></trkpt><trkpt lat="43.6512318" lon="12.3277834"><ele>432.0</ele><time>2026-04-12T13:58:19.012Z</time></trkpt><trkpt lat="43.6511335" lon="12.3280113"><ele>432.0</ele><time>2026-04-12T13:58:20.011Z</time></trkpt><trkpt lat="43.6510336" lon="12.3282394"><ele>432.0</ele><time>2026-04-12T13:58:21.014Z</time></trkpt><trkpt lat="43.6509315" lon="12.3284703"><ele>432.33333333333337</ele><time>2026-04-12T13:58:22.014Z</time></trkpt><trkpt lat="43.6508239" lon="12.3287055"><ele>432.6666666666667</ele><time>2026-04-12T13:58:23.012Z</time></trkpt><trkpt lat="43.6507002" lon="12.3289377"><ele>433.0</ele><time>2026-04-12T13:58:24.016Z</time></trkpt><trkpt lat="43.650565" lon="12.329159"><ele>433.0</ele><time>2026-04-12T13:58:25.013Z</time></trkpt><trkpt lat="43.6504251" lon="12.3293583"><ele>433.0</ele><time>2026-04-12T13:58:26.012Z</time></trkpt><trkpt lat="43.6502805" lon="12.3295306"><ele>433.0</ele><time>2026-04-12T13:58:27.014Z</time></trkpt><trkpt lat="43.6501432" lon="12.3296918"><ele>432.6666666666667</ele><time>2026-04-12T13:58:28.013Z</time></trkpt><trkpt lat="43.6500155" lon="12.3298444"><ele>432.33333333333337</ele><time>2026-04-12T13:58:29.014Z</time></trkpt><trkpt lat="43.6498967" lon="12.3299874"><ele>432.0</ele><time>2026-04-12T13:58:30.011Z</time></trkpt><trkpt lat="43.6497884" lon="12.3301255"><ele>432.0</ele><time>2026-04-12T13:58:31.012Z</time></trkpt><trkpt lat="43.6496898" lon="12.3302509"><ele>432.0</ele><time>2026-04-12T13:58:32.012Z</time></trkpt><trkpt lat="43.6495963" lon="12.3303712"><ele>432.0</ele><time>2026-04-12T13:58:33.014Z</time></trkpt><trkpt lat="43.6494996" lon="12.3304867"><ele>432.0</ele><time>2026-04-12T13:58:34.013Z</time></trkpt><trkpt lat="43.6493984" lon="12.3306063"><ele>433.0</ele><time>2026-04-12T13:58:35.012Z</time></trkpt><trkpt lat="43.6492964" lon="12.3307284"><ele>434.0</ele><time>2026-04-12T13:58:36.013Z</time></trkpt><trkpt lat="43.6491902" lon="12.3308563"><ele>435.0</ele><time>2026-04-12T13:58:37.011Z</time></trkpt><trkpt lat="43.649083" lon="12.3309853"><ele>436.0</ele><time>2026-04-12T13:58:38.012Z</time></trkpt><trkpt lat="43.6489773" lon="12.3311166"><ele>436.0</ele><time>2026-04-12T13:58:39.012Z</time></trkpt><trkpt lat="43.6488733" lon="12.331246"><ele>436.0</ele><time>2026-04-12T13:58:40.012Z</time></trkpt><trkpt lat="43.6487779" lon="12.3313662"><ele>436.0</ele><time>2026-04-12T13:58:41.011Z</time></trkpt><trkpt lat="43.6486842" lon="12.3314749"><ele>436.0</ele><time>2026-04-12T13:58:42.012Z</time></trkpt><trkpt lat="43.6485945" lon="12.3315782"><ele>435.25</ele><time>2026-04-12T13:58:43.012Z</time></trkpt><trkpt lat="43.6485052" lon="12.3316819"><ele>434.5</ele><time>2026-04-12T13:58:44.013Z</time></trkpt><trkpt lat="43.6484206" lon="12.3317938"><ele>433.75</ele><time>2026-04-12T13:58:45.015Z</time></trkpt><trkpt lat="43.6483336" lon="12.3319105"><ele>433.0</ele><time>2026-04-12T13:58:46.012Z</time></trkpt><trkpt lat="43.6482469" lon="12.3320273"><ele>433.0</ele><time>2026-04-12T13:58:47.014Z</time></trkpt><trkpt lat="43.6481612" lon="12.3321374"><ele>433.0</ele><time>2026-04-12T13:58:48.011Z</time></trkpt><trkpt lat="43.6480682" lon="12.332241"><ele>433.0</ele><time>2026-04-12T13:58:49.012Z</time></trkpt><trkpt lat="43.647976" lon="12.3323471"><ele>433.0</ele><time>2026-04-12T13:58:50.012Z</time></trkpt><trkpt lat="43.6478855" lon="12.3324552"><ele>433.0</ele><time>2026-04-12T13:58:51.014Z</time></trkpt><trkpt lat="43.6477995" lon="12.332559"><ele>432.99999999999994</ele><time>2026-04-12T13:58:52.013Z</time></trkpt><trkpt lat="43.6477188" lon="12.3326563"><ele>432.99999999999994</ele><time>2026-04-12T13:58:53.011Z</time></trkpt><trkpt lat="43.647643" lon="12.3327549"><ele>433.0</ele><time>2026-04-12T13:58:54.014Z</time></trkpt><trkpt lat="43.6475646" lon="12.3328511"><ele>433.0</ele><time>2026-04-12T13:58:55.015Z</time></trkpt><trkpt lat="43.6474827" lon="12.3329434"><ele>433.0</ele><time>2026-04-12T13:58:56.012Z</time></trkpt><trkpt lat="43.6473994" lon="12.3330355"><ele>432.99999999999994</ele><time>2026-04-12T13:58:57.013Z</time></trkpt><trkpt lat="43.6473172" lon="12.3331342"><ele>432.99999999999994</ele><time>2026-04-12T13:58:58.012Z</time></trkpt><trkpt lat="43.6472362" lon="12.3332409"><ele>433.0</ele><time>2026-04-12T13:58:59.012Z</time></trkpt><trkpt lat="43.6471519" lon="12.3333485"><ele>433.0</ele><time>2026-04-12T13:59:00.011Z</time></trkpt><trkpt lat="43.6470655" lon="12.3334623"><ele>432.75</ele><time>2026-04-12T13:59:01.012Z</time></trkpt><trkpt lat="43.6469704" lon="12.3335831"><ele>432.5</ele><time>2026-04-12T13:59:02.012Z</time></trkpt><trkpt lat="43.646869" lon="12.333713"><ele>432.25</ele><time>2026-04-12T13:59:03.011Z</time></trkpt><trkpt lat="43.6467652" lon="12.3338494"><ele>432.0</ele><time>2026-04-12T13:59:04.014Z</time></trkpt><trkpt lat="43.6466614" lon="12.3339867"><ele>431.5</ele><time>2026-04-12T13:59:05.011Z</time></trkpt><trkpt lat="43.6465597" lon="12.3341221"><ele>431.0</ele><time>2026-04-12T13:59:06.011Z</time></trkpt><trkpt lat="43.6464613" lon="12.3342514"><ele>430.5</ele><time>2026-04-12T13:59:07.016Z</time></trkpt><trkpt lat="43.6463736" lon="12.334364"><ele>430.0</ele><time>2026-04-12T13:59:08.013Z</time></trkpt><trkpt lat="43.6463019" lon="12.3344582"><ele>430.0</ele><time>2026-04-12T13:59:09.015Z</time></trkpt><trkpt lat="43.6462385" lon="12.334526"><ele>430.0</ele><time>2026-04-12T13:59:10.012Z</time></trkpt><trkpt lat="43.6461805" lon="12.3345817"><ele>430.0</ele><time>2026-04-12T13:59:11.013Z</time></trkpt><trkpt lat="43.6461347" lon="12.3346478"><ele>430.0</ele><time>2026-04-12T13:59:16.012Z</time></trkpt><trkpt lat="43.6460807" lon="12.3347296"><ele>429.0</ele><time>2026-04-12T13:59:20.011Z</time></trkpt><trkpt lat="43.6461167" lon="12.3348067"><ele>429.0</ele><time>2026-04-12T13:59:31.013Z</time></trkpt><trkpt lat="43.6461883" lon="12.33487"><ele>430.0</ele><time>2026-04-12T13:59:33.014Z</time></trkpt></trkseg><trkseg><trkpt lat="43.6463617" lon="12.334935"><ele>430.0</ele><time>2026-04-12T14:30:57.013Z</time></trkpt><trkpt lat="43.646465" lon="12.3349833"><ele>430.0</ele><time>2026-04-12T14:30:59.011Z</time></trkpt><trkpt lat="43.6465517" lon="12.3350267"><ele>430.0</ele><time>2026-04-12T14:31:01.013Z</time></trkpt><trkpt lat="43.64664" lon="12.3350733"><ele>430.0</ele><time>2026-04-12T14:31:03.012Z</time></trkpt><trkpt lat="43.646755" lon="12.3351083"><ele>430.0</ele><time>2026-04-12T14:31:05.012Z</time></trkpt><trkpt lat="43.6468767" lon="12.3351633"><ele>430.00000000000006</ele><time>2026-04-12T14:31:07.014Z</time></trkpt><trkpt lat="43.6469467" lon="12.3352"><ele>430.0</ele><time>2026-04-12T14:31:08.011Z</time></trkpt><trkpt lat="43.6470233" lon="12.3352367"><ele>430.0</ele><time>2026-04-12T14:31:09.013Z</time></trkpt><trkpt lat="43.6471067" lon="12.3352717"><ele>430.0</ele><time>2026-04-12T14:31:10.012Z</time></trkpt><trkpt lat="43.6471833" lon="12.3353033"><ele>430.00000000000006</ele><time>2026-04-12T14:31:11.011Z</time></trkpt><trkpt lat="43.647265" lon="12.3353283"><ele>430.0</ele><time>2026-04-12T14:31:12.013Z</time></trkpt><trkpt lat="43.6473583" lon="12.3353667"><ele>429.4</ele><time>2026-04-12T14:31:13.011Z</time></trkpt><trkpt lat="43.64746" lon="12.335495"><ele>428.8</ele><time>2026-04-12T14:31:14.014Z</time></trkpt><trkpt lat="43.6475417" lon="12.3355367"><ele>428.20000000000005</ele><time>2026-04-12T14:31:15.012Z</time></trkpt><trkpt lat="43.6476183" lon="12.3355717"><ele>427.6</ele><time>2026-04-12T14:31:16.011Z</time></trkpt><trkpt lat="43.6476933" lon="12.3356"><ele>427.0</ele><time>2026-04-12T14:31:17.012Z</time></trkpt><trkpt lat="43.64777" lon="12.3356267"><ele>425.6666666666667</ele><time>2026-04-12T14:31:18.012Z</time></trkpt><trkpt lat="43.647855" lon="12.33566"><ele>424.33333333333337</ele><time>2026-04-12T14:31:19.012Z</time></trkpt><trkpt lat="43.6479383" lon="12.335695"><ele>423.0</ele><time>2026-04-12T14:31:20.015Z</time></trkpt><trkpt lat="43.648015" lon="12.3357317"><ele>421.66666666666663</ele><time>2026-04-12T14:31:21.012Z</time></trkpt><trkpt lat="43.6480833" lon="12.3357683"><ele>420.3333333333333</ele><time>2026-04-12T14:31:22.012Z</time></trkpt><trkpt lat="43.648185" lon="12.335855"><ele>419.0</ele><time>2026-04-12T14:31:24.012Z</time></trkpt><trkpt lat="43.6482533" lon="12.3359867"><ele>418.99999999999994</ele><time>2026-04-12T14:31:26.012Z</time></trkpt><trkpt lat="43.6482783" lon="12.33608"><ele>419.0</ele><time>2026-04-12T14:31:27.014Z</time></trkpt><trkpt lat="43.64829" lon="12.3361767"><ele>419.0</ele><time>2026-04-12T14:31:28.012Z</time></trkpt><trkpt lat="43.6482967" lon="12.336295"><ele>419.0</ele><time>2026-04-12T14:31:30.012Z</time></trkpt><trkpt lat="43.6484" lon="12.336355"><ele>418.99999999999994</ele><time>2026-04-12T14:31:41.013Z</time></trkpt><trkpt lat="43.6484667" lon="12.3363633"><ele>419.0</ele><time>2026-04-12T14:31:42.013Z</time></trkpt><trkpt lat="43.6485633" lon="12.3363733"><ele>420.0</ele><time>2026-04-12T14:31:44.014Z</time></trkpt><trkpt lat="43.64864" lon="12.336395"><ele>421.0</ele><time>2026-04-12T14:31:46.016Z</time></trkpt><trkpt lat="43.6487217" lon="12.3364683"><ele>422.0</ele><time>2026-04-12T14:31:48.012Z</time></trkpt><trkpt lat="43.64879" lon="12.33661"><ele>423.0</ele><time>2026-04-12T14:31:50.01Z</time></trkpt><trkpt lat="43.6488167" lon="12.33673"><ele>424.0</ele><time>2026-04-12T14:31:51.011Z</time></trkpt><trkpt lat="43.64883" lon="12.3368517"><ele>424.0</ele><time>2026-04-12T14:31:52.012Z</time></trkpt><trkpt lat="43.6488467" lon="12.3369533"><ele>424.0</ele><time>2026-04-12T14:31:53.011Z</time></trkpt><trkpt lat="43.648865" lon="12.3370483"><ele>424.0</ele><time>2026-04-12T14:31:54.011Z</time></trkpt><trkpt lat="43.64889" lon="12.3371433"><ele>424.0</ele><time>2026-04-12T14:31:56.01Z</time></trkpt><trkpt lat="43.6489483" lon="12.3372083"><ele>424.0</ele><time>2026-04-12T14:31:58.011Z</time></trkpt><trkpt lat="43.649015" lon="12.3372367"><ele>424.0</ele><time>2026-04-12T14:31:59.012Z</time></trkpt><trkpt lat="43.6490967" lon="12.33726"><ele>424.0</ele><time>2026-04-12T14:32:00.014Z</time></trkpt><trkpt lat="43.649185" lon="12.3372933"><ele>423.0</ele><time>2026-04-12T14:32:01.011Z</time></trkpt><trkpt lat="43.6492783" lon="12.3373367"><ele>422.0</ele><time>2026-04-12T14:32:02.01Z</time></trkpt><trkpt lat="43.6493767" lon="12.3373817"><ele>421.0</ele><time>2026-04-12T14:32:03.014Z</time></trkpt><trkpt lat="43.6494783" lon="12.3374317"><ele>420.0</ele><time>2026-04-12T14:32:04.013Z</time></trkpt><trkpt lat="43.6495783" lon="12.33748"><ele>419.0</ele><time>2026-04-12T14:32:05.014Z</time></trkpt><trkpt lat="43.64966" lon="12.3375367"><ele>421.99999999999994</ele><time>2026-04-12T14:32:06.014Z</time></trkpt><trkpt lat="43.649735" lon="12.3376033"><ele>425.0</ele><time>2026-04-12T14:32:07.013Z</time></trkpt><trkpt lat="43.6497883" lon="12.3376967"><ele>428.0</ele><time>2026-04-12T14:32:08.013Z</time></trkpt><trkpt lat="43.649835" lon="12.3377983"><ele>431.0</ele><time>2026-04-12T14:32:09.012Z</time></trkpt><trkpt lat="43.6498733" lon="12.3379067"><ele>433.99999999999994</ele><time>2026-04-12T14:32:10.013Z</time></trkpt><trkpt lat="43.6499017" lon="12.3380233"><ele>437.0</ele><time>2026-04-12T14:32:11.017Z</time></trkpt><trkpt lat="43.64992" lon="12.33813"><ele>437.8</ele><time>2026-04-12T14:32:12.012Z</time></trkpt><trkpt lat="43.6499233" lon="12.3382217"><ele>438.6</ele><time>2026-04-12T14:32:13.013Z</time></trkpt><trkpt lat="43.6499517" lon="12.3383817"><ele>439.40000000000003</ele><time>2026-04-12T14:32:15.013Z</time></trkpt><trkpt lat="43.6500117" lon="12.3384683"><ele>440.20000000000005</ele><time>2026-04-12T14:32:17.012Z</time></trkpt><trkpt lat="43.6501133" lon="12.3383817"><ele>441.0</ele><time>2026-04-12T14:32:19.012Z</time></trkpt><trkpt lat="43.65017" lon="12.3383083"><ele>441.0</ele><time>2026-04-12T14:32:20.013Z</time></trkpt><trkpt lat="43.6502267" lon="12.3382283"><ele>441.0</ele><time>2026-04-12T14:32:21.013Z</time></trkpt><trkpt lat="43.6502767" lon="12.338155"><ele>441.0</ele><time>2026-04-12T14:32:22.012Z</time></trkpt><trkpt lat="43.6503283" lon="12.3380967"><ele>441.0</ele><time>2026-04-12T14:32:23.018Z</time></trkpt><trkpt lat="43.6504267" lon="12.3380517"><ele>441.0</ele><time>2026-04-12T14:32:25.012Z</time></trkpt><trkpt lat="43.6505133" lon="12.3381083"><ele>441.0</ele><time>2026-04-12T14:32:27.012Z</time></trkpt><trkpt lat="43.65056" lon="12.3381783"><ele>443.8</ele><time>2026-04-12T14:32:28.014Z</time></trkpt><trkpt lat="43.6505983" lon="12.3382517"><ele>446.6</ele><time>2026-04-12T14:32:29.016Z</time></trkpt><trkpt lat="43.65064" lon="12.3383867"><ele>449.4</ele><time>2026-04-12T14:32:31.011Z</time></trkpt><trkpt lat="43.6505867" lon="12.3385117"><ele>452.2</ele><time>2026-04-12T14:32:34.012Z</time></trkpt><trkpt lat="43.6504817" lon="12.3386333"><ele>455.0</ele><time>2026-04-12T14:32:36.011Z</time></trkpt><trkpt lat="43.6504083" lon="12.3387217"><ele>454.99999999999994</ele><time>2026-04-12T14:32:37.012Z</time></trkpt><trkpt lat="43.6503317" lon="12.3388233"><ele>455.0</ele><time>2026-04-12T14:32:38.012Z</time></trkpt><trkpt lat="43.6502583" lon="12.338925"><ele>455.0</ele><time>2026-04-12T14:32:39.014Z</time></trkpt><trkpt lat="43.6502033" lon="12.339015"><ele>455.0</ele><time>2026-04-12T14:32:40.012Z</time></trkpt><trkpt lat="43.6501633" lon="12.3390967"><ele>454.99999999999994</ele><time>2026-04-12T14:32:41.015Z</time></trkpt><trkpt lat="43.6501283" lon="12.339185"><ele>455.0</ele><time>2026-04-12T14:32:42.013Z</time></trkpt><trkpt lat="43.6500917" lon="12.3392883"><ele>455.0</ele><time>2026-04-12T14:32:43.012Z</time></trkpt><trkpt lat="43.6500467" lon="12.339405"><ele>455.0</ele><time>2026-04-12T14:32:44.015Z</time></trkpt><trkpt lat="43.6499783" lon="12.3395533"><ele>455.0</ele><time>2026-04-12T14:32:45.011Z</time></trkpt><trkpt lat="43.649895" lon="12.339697"><ele>455.0</ele><time>2026-04-12T14:32:46.012Z</time></trkpt><trkpt lat="43.649807" lon="12.3398403"><ele>455.0</ele><time>2026-04-12T14:32:47.015Z</time></trkpt><trkpt lat="43.6497265" lon="12.3399795"><ele>455.0</ele><time>2026-04-12T14:32:48.012Z</time></trkpt><trkpt lat="43.6496574" lon="12.3401091"><ele>455.0</ele><time>2026-04-12T14:32:49.014Z</time></trkpt><trkpt lat="43.6496068" lon="12.3402327"><ele>455.0</ele><time>2026-04-12T14:32:50.012Z</time></trkpt><trkpt lat="43.649578" lon="12.3403622"><ele>455.0</ele><time>2026-04-12T14:32:51.013Z</time></trkpt><trkpt lat="43.6495708" lon="12.3405062"><ele>455.25</ele><time>2026-04-12T14:32:52.012Z</time></trkpt><trkpt lat="43.6495694" lon="12.3406789"><ele>455.5</ele><time>2026-04-12T14:32:53.011Z</time></trkpt><trkpt lat="43.6495677" lon="12.3408732"><ele>455.75</ele><time>2026-04-12T14:32:54.013Z</time></trkpt><trkpt lat="43.6495599" lon="12.3410687"><ele>456.0</ele><time>2026-04-12T14:32:55.012Z</time></trkpt><trkpt lat="43.6495436" lon="12.3412494"><ele>451.5</ele><time>2026-04-12T14:32:56.015Z</time></trkpt><trkpt lat="43.6495193" lon="12.3414183"><ele>447.0</ele><time>2026-04-12T14:32:57.012Z</time></trkpt><trkpt lat="43.6494912" lon="12.3415758"><ele>442.5</ele><time>2026-04-12T14:32:58.012Z</time></trkpt><trkpt lat="43.6494543" lon="12.3417216"><ele>438.0</ele><time>2026-04-12T14:32:59.013Z</time></trkpt><trkpt lat="43.6494148" lon="12.3418492"><ele>435.1666666666667</ele><time>2026-04-12T14:33:00.013Z</time></trkpt><trkpt lat="43.649377" lon="12.3419642"><ele>432.33333333333337</ele><time>2026-04-12T14:33:01.013Z</time></trkpt><trkpt lat="43.6493416" lon="12.3420744"><ele>429.5</ele><time>2026-04-12T14:33:02.012Z</time></trkpt><trkpt lat="43.6493181" lon="12.3421787"><ele>426.6666666666667</ele><time>2026-04-12T14:33:03.013Z</time></trkpt><trkpt lat="43.6493135" lon="12.3422766"><ele>423.83333333333337</ele><time>2026-04-12T14:33:04.013Z</time></trkpt><trkpt lat="43.6493612" lon="12.3423738"><ele>421.0</ele><time>2026-04-12T14:33:05.012Z</time></trkpt><trkpt lat="43.6494293" lon="12.3424707"><ele>422.83333333333337</ele><time>2026-04-12T14:33:06.012Z</time></trkpt><trkpt lat="43.6494922" lon="12.3425741"><ele>424.6666666666667</ele><time>2026-04-12T14:33:07.014Z</time></trkpt><trkpt lat="43.6495425" lon="12.342688"><ele>426.5</ele><time>2026-04-12T14:33:08.012Z</time></trkpt><trkpt lat="43.6495616" lon="12.3427968"><ele>428.33333333333337</ele><time>2026-04-12T14:33:09.014Z</time></trkpt><trkpt lat="43.6495592" lon="12.3429062"><ele>430.1666666666667</ele><time>2026-04-12T14:33:10.014Z</time></trkpt><trkpt lat="43.6495327" lon="12.3430126"><ele>432.0</ele><time>2026-04-12T14:33:11.015Z</time></trkpt><trkpt lat="43.6494855" lon="12.343102"><ele>429.6</ele><time>2026-04-12T14:33:12.015Z</time></trkpt><trkpt lat="43.6494429" lon="12.3431947"><ele>427.20000000000005</ele><time>2026-04-12T14:33:13.012Z</time></trkpt><trkpt lat="43.6494104" lon="12.3433102"><ele>424.8</ele><time>2026-04-12T14:33:14.013Z</time></trkpt><trkpt lat="43.649398" lon="12.3434527"><ele>422.4</ele><time>2026-04-12T14:33:15.011Z</time></trkpt><trkpt lat="43.6494013" lon="12.3436075"><ele>420.0</ele><time>2026-04-12T14:33:16.013Z</time></trkpt><trkpt lat="43.6494149" lon="12.3437753"><ele>420.75</ele><time>2026-04-12T14:33:17.014Z</time></trkpt><trkpt lat="43.649437" lon="12.343945"><ele>421.5</ele><time>2026-04-12T14:33:18.014Z</time></trkpt><trkpt lat="43.6494606" lon="12.3441208"><ele>422.25</ele><time>2026-04-12T14:33:19.01Z</time></trkpt><trkpt lat="43.6494839" lon="12.3443109"><ele>423.0</ele><time>2026-04-12T14:33:20.015Z</time></trkpt><trkpt lat="43.649506" lon="12.3445043"><ele>427.0</ele><time>2026-04-12T14:33:21.015Z</time></trkpt><trkpt lat="43.649538" lon="12.3446868"><ele>431.0</ele><time>2026-04-12T14:33:22.011Z</time></trkpt><trkpt lat="43.6495834" lon="12.3448442"><ele>435.0</ele><time>2026-04-12T14:33:23.013Z</time></trkpt><trkpt lat="43.6496507" lon="12.3449747"><ele>439.0</ele><time>2026-04-12T14:33:24.012Z</time></trkpt><trkpt lat="43.6497346" lon="12.3450837"><ele>439.00000000000006</ele><time>2026-04-12T14:33:25.011Z</time></trkpt><trkpt lat="43.6498" lon="12.3451818"><ele>439.0</ele><time>2026-04-12T14:33:26.013Z</time></trkpt><trkpt lat="43.6498444" lon="12.3452881"><ele>439.0</ele><time>2026-04-12T14:33:27.014Z</time></trkpt><trkpt lat="43.6498459" lon="12.3454021"><ele>439.0</ele><time>2026-04-12T14:33:28.012Z</time></trkpt><trkpt lat="43.6498219" lon="12.3455168"><ele>439.00000000000006</ele><time>2026-04-12T14:33:29.012Z</time></trkpt><trkpt lat="43.6497851" lon="12.3456162"><ele>439.0</ele><time>2026-04-12T14:33:30.012Z</time></trkpt><trkpt lat="43.6497381" lon="12.3456919"><ele>439.0</ele><time>2026-04-12T14:33:31.011Z</time></trkpt><trkpt lat="43.649662" lon="12.3457707"><ele>439.0</ele><time>2026-04-12T14:33:33.012Z</time></trkpt><trkpt lat="43.6495901" lon="12.3458227"><ele>439.0</ele><time>2026-04-12T14:33:40.011Z</time></trkpt><trkpt lat="43.6493927" lon="12.3460179"><ele>439.0</ele><time>2026-04-12T14:33:43.01Z</time></trkpt><trkpt lat="43.6492926" lon="12.3461431"><ele>436.50000000000006</ele><time>2026-04-12T14:33:44.011Z</time></trkpt><trkpt lat="43.6492245" lon="12.346261"><ele>434.0</ele><time>2026-04-12T14:33:45.012Z</time></trkpt><trkpt lat="43.6491744" lon="12.3463683"><ele>431.5</ele><time>2026-04-12T14:33:46.012Z</time></trkpt><trkpt lat="43.6491486" lon="12.3464767"><ele>429.0</ele><time>2026-04-12T14:33:47.012Z</time></trkpt><trkpt lat="43.6491422" lon="12.3465927"><ele>426.50000000000006</ele><time>2026-04-12T14:33:48.012Z</time></trkpt><trkpt lat="43.6491335" lon="12.3467009"><ele>424.0</ele><time>2026-04-12T14:33:49.011Z</time></trkpt><trkpt lat="43.6491145" lon="12.3467959"><ele>424.00000000000006</ele><time>2026-04-12T14:33:50.01Z</time></trkpt><trkpt lat="43.6490316" lon="12.3469271"><ele>424.0</ele><time>2026-04-12T14:33:52.012Z</time></trkpt><trkpt lat="43.6489733" lon="12.3469666"><ele>424.0</ele><time>2026-04-12T14:33:53.013Z</time></trkpt><trkpt lat="43.6489096" lon="12.3469608"><ele>424.0</ele><time>2026-04-12T14:33:54.013Z</time></trkpt><trkpt lat="43.6488488" lon="12.3468941"><ele>424.00000000000006</ele><time>2026-04-12T14:33:55.011Z</time></trkpt><trkpt lat="43.6488008" lon="12.3467893"><ele>424.0</ele><time>2026-04-12T14:33:56.012Z</time></trkpt><trkpt lat="43.6487617" lon="12.3466251"><ele>424.00000000000006</ele><time>2026-04-12T14:33:57.013Z</time></trkpt><trkpt lat="43.648735" lon="12.346472"><ele>424.0</ele><time>2026-04-12T14:33:58.011Z</time></trkpt><trkpt lat="43.6487114" lon="12.3463465"><ele>424.0</ele><time>2026-04-12T14:33:59.011Z</time></trkpt><trkpt lat="43.6486903" lon="12.3462561"><ele>424.0</ele><time>2026-04-12T14:34:00.014Z</time></trkpt><trkpt lat="43.6486651" lon="12.3461696"><ele>424.00000000000006</ele><time>2026-04-12T14:34:02.01Z</time></trkpt><trkpt lat="43.6486209" lon="12.3462562"><ele>424.0</ele><time>2026-04-12T14:34:07.968Z</time></trkpt><trkpt lat="43.6486445" lon="12.3464258"><ele>424.0</ele><time>2026-04-12T14:34:09.013Z</time></trkpt><trkpt lat="43.6486629" lon="12.346567"><ele>424.0</ele><time>2026-04-12T14:34:10.012Z</time></trkpt><trkpt lat="43.648688" lon="12.3467304"><ele>424.0</ele><time>2026-04-12T14:34:11.012Z</time></trkpt><trkpt lat="43.6487195" lon="12.34695"><ele>424.0</ele><time>2026-04-12T14:34:12.011Z</time></trkpt><trkpt lat="43.6487397" lon="12.3471897"><ele>422.0</ele><time>2026-04-12T14:34:13.012Z</time></trkpt><trkpt lat="43.6487583" lon="12.3474141"><ele>420.0</ele><time>2026-04-12T14:34:14.015Z</time></trkpt><trkpt lat="43.6487835" lon="12.3476321"><ele>418.0</ele><time>2026-04-12T14:34:15.012Z</time></trkpt><trkpt lat="43.6488221" lon="12.3478599"><ele>416.33333333333337</ele><time>2026-04-12T14:34:16.012Z</time></trkpt><trkpt lat="43.6488779" lon="12.3481089"><ele>414.66666666666663</ele><time>2026-04-12T14:34:17.011Z</time></trkpt><trkpt lat="43.6489475" lon="12.3483745"><ele>413.0</ele><time>2026-04-12T14:34:18.013Z</time></trkpt><trkpt lat="43.6490249" lon="12.3486525"><ele>411.3333333333333</ele><time>2026-04-12T14:34:19.011Z</time></trkpt><trkpt lat="43.6491032" lon="12.3489247"><ele>409.66666666666663</ele><time>2026-04-12T14:34:20.013Z</time></trkpt><trkpt lat="43.649178" lon="12.3491729"><ele>408.0</ele><time>2026-04-12T14:34:21.012Z</time></trkpt><trkpt lat="43.6492462" lon="12.349384"><ele>408.0</ele><time>2026-04-12T14:34:22.012Z</time></trkpt><trkpt lat="43.6493132" lon="12.3495602"><ele>408.0</ele><time>2026-04-12T14:34:23.012Z</time></trkpt><trkpt lat="43.649384" lon="12.3497001"><ele>408.0</ele><time>2026-04-12T14:34:24.016Z</time></trkpt><trkpt lat="43.6494641" lon="12.3498066"><ele>408.0</ele><time>2026-04-12T14:34:25.015Z</time></trkpt><trkpt lat="43.6495672" lon="12.3498801"><ele>411.0</ele><time>2026-04-12T14:34:26.012Z</time></trkpt><trkpt lat="43.6496903" lon="12.3499435"><ele>414.0</ele><time>2026-04-12T14:34:27.012Z</time></trkpt><trkpt lat="43.649818" lon="12.3500196"><ele>417.0</ele><time>2026-04-12T14:34:28.012Z</time></trkpt><trkpt lat="43.649937" lon="12.3501322"><ele>420.0</ele><time>2026-04-12T14:34:29.01Z</time></trkpt><trkpt lat="43.6500476" lon="12.3502756"><ele>420.0</ele><time>2026-04-12T14:34:30.013Z</time></trkpt><trkpt lat="43.6501446" lon="12.3504469"><ele>420.0</ele><time>2026-04-12T14:34:31.013Z</time></trkpt><trkpt lat="43.6502331" lon="12.3506324"><ele>420.0</ele><time>2026-04-12T14:34:32.015Z</time></trkpt><trkpt lat="43.6503177" lon="12.3508294"><ele>426.0</ele><time>2026-04-12T14:34:33.012Z</time></trkpt><trkpt lat="43.6503989" lon="12.351037"><ele>432.0</ele><time>2026-04-12T14:34:34.012Z</time></trkpt><trkpt lat="43.6504699" lon="12.3512624"><ele>438.0</ele><time>2026-04-12T14:34:35.013Z</time></trkpt><trkpt lat="43.6505253" lon="12.3515111"><ele>438.33333333333337</ele><time>2026-04-12T14:34:36.013Z</time></trkpt><trkpt lat="43.6505702" lon="12.3517651"><ele>438.6666666666667</ele><time>2026-04-12T14:34:37.012Z</time></trkpt><trkpt lat="43.6506077" lon="12.3520144"><ele>439.0</ele><time>2026-04-12T14:34:38.013Z</time></trkpt><trkpt lat="43.6506446" lon="12.3522601"><ele>437.33333333333337</ele><time>2026-04-12T14:34:39.011Z</time></trkpt><trkpt lat="43.6506818" lon="12.3525111"><ele>435.66666666666663</ele><time>2026-04-12T14:34:40.01Z</time></trkpt><trkpt lat="43.6507195" lon="12.352772"><ele>434.0</ele><time>2026-04-12T14:34:41.012Z</time></trkpt><trkpt lat="43.6507522" lon="12.3530375"><ele>434.0</ele><time>2026-04-12T14:34:42.012Z</time></trkpt><trkpt lat="43.6507804" lon="12.3533029"><ele>434.0</ele><time>2026-04-12T14:34:43.013Z</time></trkpt><trkpt lat="43.6508043" lon="12.3535626"><ele>434.0</ele><time>2026-04-12T14:34:44.011Z</time></trkpt><trkpt lat="43.6508256" lon="12.3538057"><ele>433.66666666666663</ele><time>2026-04-12T14:34:45.018Z</time></trkpt><trkpt lat="43.6508412" lon="12.3540322"><ele>433.33333333333337</ele><time>2026-04-12T14:34:46.012Z</time></trkpt><trkpt lat="43.6508502" lon="12.3542449"><ele>433.0</ele><time>2026-04-12T14:34:47.012Z</time></trkpt><trkpt lat="43.6508634" lon="12.3544382"><ele>433.0</ele><time>2026-04-12T14:34:48.011Z</time></trkpt><trkpt lat="43.6508875" lon="12.3546128"><ele>433.0</ele><time>2026-04-12T14:34:49.012Z</time></trkpt><trkpt lat="43.6509288" lon="12.3547658"><ele>433.0</ele><time>2026-04-12T14:34:50.013Z</time></trkpt><trkpt lat="43.6509937" lon="12.3548904"><ele>433.0</ele><time>2026-04-12T14:34:51.014Z</time></trkpt><trkpt lat="43.6510794" lon="12.3549837"><ele>436.75</ele><time>2026-04-12T14:34:52.012Z</time></trkpt><trkpt lat="43.6511875" lon="12.3550534"><ele>440.5</ele><time>2026-04-12T14:34:53.013Z</time></trkpt><trkpt lat="43.6513215" lon="12.3551154"><ele>444.25</ele><time>2026-04-12T14:34:54.011Z</time></trkpt><trkpt lat="43.6514704" lon="12.3551872"><ele>448.0</ele><time>2026-04-12T14:34:55.01Z</time></trkpt><trkpt lat="43.6516207" lon="12.3552706"><ele>448.0</ele><time>2026-04-12T14:34:56.011Z</time></trkpt><trkpt lat="43.6517597" lon="12.3553686"><ele>448.0</ele><time>2026-04-12T14:34:57.011Z</time></trkpt><trkpt lat="43.6518962" lon="12.3554604"><ele>448.0</ele><time>2026-04-12T14:34:58.012Z</time></trkpt><trkpt lat="43.6520347" lon="12.355551"><ele>447.0</ele><time>2026-04-12T14:34:59.012Z</time></trkpt><trkpt lat="43.6521785" lon="12.355637"><ele>446.0</ele><time>2026-04-12T14:35:00.01Z</time></trkpt><trkpt lat="43.6523388" lon="12.3557115"><ele>445.0</ele><time>2026-04-12T14:35:01.012Z</time></trkpt><trkpt lat="43.6525" lon="12.3557824"><ele>445.0</ele><time>2026-04-12T14:35:02.01Z</time></trkpt><trkpt lat="43.6526499" lon="12.3558378"><ele>445.0</ele><time>2026-04-12T14:35:03.011Z</time></trkpt><trkpt lat="43.6527782" lon="12.3558795"><ele>445.0</ele><time>2026-04-12T14:35:04.01Z</time></trkpt><trkpt lat="43.6528947" lon="12.3559022"><ele>445.0</ele><time>2026-04-12T14:35:05.013Z</time></trkpt><trkpt lat="43.6530008" lon="12.3558944"><ele>445.25</ele><time>2026-04-12T14:35:06.012Z</time></trkpt><trkpt lat="43.6531021" lon="12.3558454"><ele>445.5</ele><time>2026-04-12T14:35:07.01Z</time></trkpt><trkpt lat="43.6532037" lon="12.3557484"><ele>445.75</ele><time>2026-04-12T14:35:08.012Z</time></trkpt><trkpt lat="43.653311" lon="12.3556186"><ele>446.0</ele><time>2026-04-12T14:35:09.014Z</time></trkpt><trkpt lat="43.6534238" lon="12.3554456"><ele>452.0</ele><time>2026-04-12T14:35:10.011Z</time></trkpt><trkpt lat="43.6535343" lon="12.3552628"><ele>458.0</ele><time>2026-04-12T14:35:11.011Z</time></trkpt><trkpt lat="43.6536429" lon="12.3550776"><ele>464.0</ele><time>2026-04-12T14:35:12.01Z</time></trkpt><trkpt lat="43.6537528" lon="12.3548881"><ele>464.0</ele><time>2026-04-12T14:35:13.012Z</time></trkpt><trkpt lat="43.6538609" lon="12.3547101"><ele>464.0</ele><time>2026-04-12T14:35:14.012Z</time></trkpt><trkpt lat="43.6539634" lon="12.3545325"><ele>464.0</ele><time>2026-04-12T14:35:15.013Z</time></trkpt><trkpt lat="43.6540587" lon="12.3543404"><ele>470.0</ele><time>2026-04-12T14:35:16.012Z</time></trkpt><trkpt lat="43.654149" lon="12.3541355"><ele>476.0</ele><time>2026-04-12T14:35:17.012Z</time></trkpt><trkpt lat="43.6542301" lon="12.3539414"><ele>482.0</ele><time>2026-04-12T14:35:18.013Z</time></trkpt><trkpt lat="43.6543002" lon="12.3537773"><ele>483.6</ele><time>2026-04-12T14:35:19.011Z</time></trkpt><trkpt lat="43.6543702" lon="12.3536531"><ele>485.20000000000005</ele><time>2026-04-12T14:35:20.01Z</time></trkpt><trkpt lat="43.6544496" lon="12.3535541"><ele>486.8</ele><time>2026-04-12T14:35:21.01Z</time></trkpt><trkpt lat="43.6545388" lon="12.3534797"><ele>488.4</ele><time>2026-04-12T14:35:22.013Z</time></trkpt><trkpt lat="43.6546391" lon="12.3534386"><ele>490.0</ele><time>2026-04-12T14:35:23.016Z</time></trkpt><trkpt lat="43.6547455" lon="12.3534302"><ele>490.0</ele><time>2026-04-12T14:35:24.012Z</time></trkpt><trkpt lat="43.6548574" lon="12.3534527"><ele>490.0</ele><time>2026-04-12T14:35:25.011Z</time></trkpt><trkpt lat="43.6549698" lon="12.3535044"><ele>490.0</ele><time>2026-04-12T14:35:26.011Z</time></trkpt><trkpt lat="43.6550707" lon="12.3535841"><ele>490.0</ele><time>2026-04-12T14:35:27.012Z</time></trkpt><trkpt lat="43.6551546" lon="12.3536917"><ele>490.00000000000006</ele><time>2026-04-12T14:35:28.011Z</time></trkpt><trkpt lat="43.6552186" lon="12.3538146"><ele>490.0</ele><time>2026-04-12T14:35:29.012Z</time></trkpt><trkpt lat="43.6552706" lon="12.3539315"><ele>490.0</ele><time>2026-04-12T14:35:30.015Z</time></trkpt><trkpt lat="43.6553189" lon="12.3540331"><ele>490.0</ele><time>2026-04-12T14:35:31.012Z</time></trkpt><trkpt lat="43.6553567" lon="12.3541149"><ele>490.00000000000006</ele><time>2026-04-12T14:35:32.012Z</time></trkpt><trkpt lat="43.6554027" lon="12.3541982"><ele>490.0</ele><time>2026-04-12T14:35:34.011Z</time></trkpt><trkpt lat="43.6554599" lon="12.3542486"><ele>489.8</ele><time>2026-04-12T14:35:36.012Z</time></trkpt><trkpt lat="43.6555516" lon="12.3542348"><ele>489.6</ele><time>2026-04-12T14:35:38.012Z</time></trkpt><trkpt lat="43.6556641" lon="12.3541291"><ele>489.4</ele><time>2026-04-12T14:35:40.013Z</time></trkpt><trkpt lat="43.6557209" lon="12.3540518"><ele>489.2</ele><time>2026-04-12T14:35:41.013Z</time></trkpt><trkpt lat="43.6557774" lon="12.3539713"><ele>489.0</ele><time>2026-04-12T14:35:42.01Z</time></trkpt><trkpt lat="43.6558395" lon="12.3538953"><ele>491.3333333333333</ele><time>2026-04-12T14:35:43.011Z</time></trkpt><trkpt lat="43.6559015" lon="12.3538258"><ele>493.66666666666663</ele><time>2026-04-12T14:35:44.011Z</time></trkpt><trkpt lat="43.6559695" lon="12.353772"><ele>496.0</ele><time>2026-04-12T14:35:45.011Z</time></trkpt><trkpt lat="43.6560337" lon="12.3537171"><ele>498.3333333333333</ele><time>2026-04-12T14:35:46.015Z</time></trkpt><trkpt lat="43.6561168" lon="12.3537138"><ele>500.66666666666663</ele><time>2026-04-12T14:35:47.011Z</time></trkpt><trkpt lat="43.6561944" lon="12.3537241"><ele>503.0</ele><time>2026-04-12T14:35:48.013Z</time></trkpt><trkpt lat="43.6562794" lon="12.3537957"><ele>502.0</ele><time>2026-04-12T14:35:49.014Z</time></trkpt><trkpt lat="43.6563538" lon="12.3539028"><ele>501.0</ele><time>2026-04-12T14:35:50.014Z</time></trkpt><trkpt lat="43.6564357" lon="12.3540244"><ele>500.0</ele><time>2026-04-12T14:35:51.014Z</time></trkpt><trkpt lat="43.656508" lon="12.3541872"><ele>499.0</ele><time>2026-04-12T14:35:52.013Z</time></trkpt><trkpt lat="43.6565665" lon="12.354355"><ele>499.0</ele><time>2026-04-12T14:35:53.01Z</time></trkpt><trkpt lat="43.6566099" lon="12.3545015"><ele>499.0</ele><time>2026-04-12T14:35:54.012Z</time></trkpt><trkpt lat="43.6566452" lon="12.3546411"><ele>499.0</ele><time>2026-04-12T14:35:55.014Z</time></trkpt><trkpt lat="43.6567049" lon="12.3547581"><ele>499.0</ele><time>2026-04-12T14:35:56.013Z</time></trkpt><trkpt lat="43.6567856" lon="12.3548598"><ele>499.0</ele><time>2026-04-12T14:35:57.01Z</time></trkpt><trkpt lat="43.6568755" lon="12.3549451"><ele>499.5</ele><time>2026-04-12T14:35:58.012Z</time></trkpt><trkpt lat="43.6569806" lon="12.3550205"><ele>500.0</ele><time>2026-04-12T14:35:59.011Z</time></trkpt><trkpt lat="43.6571139" lon="12.355068"><ele>500.5</ele><time>2026-04-12T14:36:00.011Z</time></trkpt><trkpt lat="43.6572473" lon="12.3551013"><ele>501.0</ele><time>2026-04-12T14:36:01.013Z</time></trkpt><trkpt lat="43.6573788" lon="12.3551051"><ele>501.0</ele><time>2026-04-12T14:36:02.016Z</time></trkpt><trkpt lat="43.6575049" lon="12.3550901"><ele>501.0</ele><time>2026-04-12T14:36:03.013Z</time></trkpt><trkpt lat="43.657635" lon="12.3550461"><ele>501.0</ele><time>2026-04-12T14:36:04.013Z</time></trkpt><trkpt lat="43.6577676" lon="12.3549738"><ele>501.0</ele><time>2026-04-12T14:36:05.009Z</time></trkpt><trkpt lat="43.6578963" lon="12.3548832"><ele>501.75</ele><time>2026-04-12T14:36:06.012Z</time></trkpt><trkpt lat="43.6580202" lon="12.3547991"><ele>502.5</ele><time>2026-04-12T14:36:07.012Z</time></trkpt><trkpt lat="43.6581517" lon="12.3547477"><ele>503.25</ele><time>2026-04-12T14:36:08.012Z</time></trkpt><trkpt lat="43.6582955" lon="12.3547218"><ele>504.0</ele><time>2026-04-12T14:36:09.014Z</time></trkpt><trkpt lat="43.658449" lon="12.3547031"><ele>510.33333333333337</ele><time>2026-04-12T14:36:10.021Z</time></trkpt><trkpt lat="43.6586135" lon="12.3546925"><ele>516.6666666666667</ele><time>2026-04-12T14:36:11.011Z</time></trkpt><trkpt lat="43.6587783" lon="12.354697"><ele>523.0</ele><time>2026-04-12T14:36:12.01Z</time></trkpt><trkpt lat="43.6589333" lon="12.3547033"><ele>523.0</ele><time>2026-04-12T14:36:13.014Z</time></trkpt><trkpt lat="43.6590736" lon="12.3547059"><ele>523.0</ele><time>2026-04-12T14:36:14.013Z</time></trkpt><trkpt lat="43.6591971" lon="12.3547001"><ele>523.0</ele><time>2026-04-12T14:36:15.014Z</time></trkpt><trkpt lat="43.6592946" lon="12.3546851"><ele>523.0</ele><time>2026-04-12T14:36:16.011Z</time></trkpt><trkpt lat="43.6593763" lon="12.3546477"><ele>523.0</ele><time>2026-04-12T14:36:17.01Z</time></trkpt><trkpt lat="43.6594464" lon="12.354568"><ele>522.4</ele><time>2026-04-12T14:36:18.013Z</time></trkpt><trkpt lat="43.65952" lon="12.35446"><ele>521.8</ele><time>2026-04-12T14:36:19.011Z</time></trkpt><trkpt lat="43.6596057" lon="12.3543607"><ele>521.2</ele><time>2026-04-12T14:36:20.015Z</time></trkpt><trkpt lat="43.6596923" lon="12.3542829"><ele>520.6</ele><time>2026-04-12T14:36:21.011Z</time></trkpt><trkpt lat="43.6597838" lon="12.3542292"><ele>520.0</ele><time>2026-04-12T14:36:22.012Z</time></trkpt><trkpt lat="43.6598714" lon="12.3541861"><ele>520.0</ele><time>2026-04-12T14:36:23.01Z</time></trkpt><trkpt lat="43.6599554" lon="12.3541259"><ele>520.0</ele><time>2026-04-12T14:36:24.014Z</time></trkpt><trkpt lat="43.6600424" lon="12.3540472"><ele>520.0</ele><time>2026-04-12T14:36:25.014Z</time></trkpt><trkpt lat="43.6601363" lon="12.3539597"><ele>520.0</ele><time>2026-04-12T14:36:26.01Z</time></trkpt><trkpt lat="43.6602321" lon="12.3538768"><ele>520.0</ele><time>2026-04-12T14:36:27.013Z</time></trkpt><trkpt lat="43.6603246" lon="12.3537849"><ele>521.25</ele><time>2026-04-12T14:36:28.012Z</time></trkpt><trkpt lat="43.6604096" lon="12.3536722"><ele>522.5</ele><time>2026-04-12T14:36:29.012Z</time></trkpt><trkpt lat="43.6604918" lon="12.3535381"><ele>523.75</ele><time>2026-04-12T14:36:30.014Z</time></trkpt><trkpt lat="43.6605762" lon="12.3533974"><ele>525.0</ele><time>2026-04-12T14:36:31.013Z</time></trkpt><trkpt lat="43.6606732" lon="12.3532752"><ele>525.0</ele><time>2026-04-12T14:36:32.011Z</time></trkpt><trkpt lat="43.6607778" lon="12.3531726"><ele>525.0</ele><time>2026-04-12T14:36:33.015Z</time></trkpt><trkpt lat="43.6609003" lon="12.3530847"><ele>525.0</ele><time>2026-04-12T14:36:34.012Z</time></trkpt><trkpt lat="43.6610248" lon="12.3530169"><ele>525.0</ele><time>2026-04-12T14:36:35.014Z</time></trkpt><trkpt lat="43.6611439" lon="12.3529648"><ele>524.1666666666666</ele><time>2026-04-12T14:36:36.011Z</time></trkpt><trkpt lat="43.6612508" lon="12.352928"><ele>523.3333333333334</ele><time>2026-04-12T14:36:37.012Z</time></trkpt><trkpt lat="43.6613422" lon="12.3528964"><ele>522.5</ele><time>2026-04-12T14:36:38.012Z</time></trkpt><trkpt lat="43.6614204" lon="12.3528568"><ele>521.6666666666667</ele><time>2026-04-12T14:36:39.011Z</time></trkpt><trkpt lat="43.661483" lon="12.3528036"><ele>520.8333333333334</ele><time>2026-04-12T14:36:40.011Z</time></trkpt><trkpt lat="43.6615282" lon="12.3527415"><ele>520.0</ele><time>2026-04-12T14:36:41.013Z</time></trkpt><trkpt lat="43.6615768" lon="12.3525952"><ele>520.0</ele><time>2026-04-12T14:36:43.011Z</time></trkpt><trkpt lat="43.6615483" lon="12.3524559"><ele>520.0</ele><time>2026-04-12T14:36:45.012Z</time></trkpt><trkpt lat="43.661475" lon="12.352329"><ele>520.0</ele><time>2026-04-12T14:36:47.01Z</time></trkpt><trkpt lat="43.6614414" lon="12.3522542"><ele>520.0</ele><time>2026-04-12T14:36:48.012Z</time></trkpt><trkpt lat="43.6614183" lon="12.3521704"><ele>520.0</ele><time>2026-04-12T14:36:49.012Z</time></trkpt><trkpt lat="43.6614128" lon="12.3520782"><ele>520.0</ele><time>2026-04-12T14:36:50.012Z</time></trkpt><trkpt lat="43.6614248" lon="12.351974"><ele>521.3333333333334</ele><time>2026-04-12T14:36:51.015Z</time></trkpt><trkpt lat="43.6614409" lon="12.3518634"><ele>522.6666666666667</ele><time>2026-04-12T14:36:52.01Z</time></trkpt><trkpt lat="43.6614502" lon="12.3517383"><ele>524.0</ele><time>2026-04-12T14:36:53.014Z</time></trkpt><trkpt lat="43.6614489" lon="12.3516156"><ele>525.3333333333334</ele><time>2026-04-12T14:36:54.014Z</time></trkpt><trkpt lat="43.6614439" lon="12.3515024"><ele>526.6666666666666</ele><time>2026-04-12T14:36:55.011Z</time></trkpt><trkpt lat="43.6614429" lon="12.3514023"><ele>528.0</ele><time>2026-04-12T14:36:56.011Z</time></trkpt><trkpt lat="43.6614565" lon="12.351314"><ele>531.6</ele><time>2026-04-12T14:36:57.011Z</time></trkpt><trkpt lat="43.6615283" lon="12.3511742"><ele>535.1999999999999</ele><time>2026-04-12T14:36:59.011Z</time></trkpt><trkpt lat="43.6615963" lon="12.3511339"><ele>538.8</ele><time>2026-04-12T14:37:00.013Z</time></trkpt><trkpt lat="43.6616758" lon="12.3511069"><ele>542.4</ele><time>2026-04-12T14:37:01.011Z</time></trkpt><trkpt lat="43.661763" lon="12.3510942"><ele>546.0</ele><time>2026-04-12T14:37:02.012Z</time></trkpt><trkpt lat="43.661866" lon="12.3511145"><ele>548.25</ele><time>2026-04-12T14:37:03.01Z</time></trkpt><trkpt lat="43.6619732" lon="12.3511475"><ele>550.5</ele><time>2026-04-12T14:37:04.01Z</time></trkpt><trkpt lat="43.6620755" lon="12.3512243"><ele>552.75</ele><time>2026-04-12T14:37:05.011Z</time></trkpt><trkpt lat="43.662173" lon="12.3513255"><ele>555.0</ele><time>2026-04-12T14:37:06.012Z</time></trkpt><trkpt lat="43.6622599" lon="12.3514411"><ele>551.0</ele><time>2026-04-12T14:37:07.01Z</time></trkpt><trkpt lat="43.6623412" lon="12.3515469"><ele>547.0</ele><time>2026-04-12T14:37:08.014Z</time></trkpt><trkpt lat="43.6624173" lon="12.3516387"><ele>543.0</ele><time>2026-04-12T14:37:09.013Z</time></trkpt><trkpt lat="43.6624951" lon="12.3517103"><ele>539.0</ele><time>2026-04-12T14:37:10.014Z</time></trkpt><trkpt lat="43.6625796" lon="12.3517726"><ele>535.0</ele><time>2026-04-12T14:37:11.011Z</time></trkpt><trkpt lat="43.6626705" lon="12.351823"><ele>535.0</ele><time>2026-04-12T14:37:12.011Z</time></trkpt><trkpt lat="43.6627707" lon="12.3518729"><ele>535.0</ele><time>2026-04-12T14:37:13.009Z</time></trkpt><trkpt lat="43.6628719" lon="12.3519107"><ele>535.0</ele><time>2026-04-12T14:37:14.012Z</time></trkpt><trkpt lat="43.6629757" lon="12.3519287"><ele>535.0</ele><time>2026-04-12T14:37:15.01Z</time></trkpt><trkpt lat="43.6630827" lon="12.3519303"><ele>535.0</ele><time>2026-04-12T14:37:16.013Z</time></trkpt><trkpt lat="43.6631859" lon="12.3519346"><ele>533.8</ele><time>2026-04-12T14:37:17.011Z</time></trkpt><trkpt lat="43.6632904" lon="12.351944"><ele>532.6</ele><time>2026-04-12T14:37:18.012Z</time></trkpt><trkpt lat="43.6633973" lon="12.3519524"><ele>531.4</ele><time>2026-04-12T14:37:19.013Z</time></trkpt><trkpt lat="43.6635046" lon="12.3519577"><ele>530.2</ele><time>2026-04-12T14:37:20.014Z</time></trkpt><trkpt lat="43.6636085" lon="12.3519513"><ele>529.0</ele><time>2026-04-12T14:37:21.015Z</time></trkpt><trkpt lat="43.6637114" lon="12.3519289"><ele>529.0</ele><time>2026-04-12T14:37:22.013Z</time></trkpt><trkpt lat="43.663816" lon="12.3518951"><ele>529.0</ele><time>2026-04-12T14:37:23.011Z</time></trkpt><trkpt lat="43.6639213" lon="12.351861"><ele>529.0</ele><time>2026-04-12T14:37:24.012Z</time></trkpt><trkpt lat="43.6640318" lon="12.3518414"><ele>529.0</ele><time>2026-04-12T14:37:25.009Z</time></trkpt><trkpt lat="43.6641464" lon="12.3518412"><ele>529.0</ele><time>2026-04-12T14:37:26.011Z</time></trkpt><trkpt lat="43.6642545" lon="12.3518635"><ele>529.0</ele><time>2026-04-12T14:37:27.011Z</time></trkpt><trkpt lat="43.6643554" lon="12.3518985"><ele>529.0</ele><time>2026-04-12T14:37:28.013Z</time></trkpt><trkpt lat="43.6644557" lon="12.3519369"><ele>529.0</ele><time>2026-04-12T14:37:29.012Z</time></trkpt><trkpt lat="43.6645606" lon="12.3519584"><ele>529.0</ele><time>2026-04-12T14:37:30.012Z</time></trkpt><trkpt lat="43.6646684" lon="12.3519564"><ele>529.0</ele><time>2026-04-12T14:37:31.013Z</time></trkpt><trkpt lat="43.6647823" lon="12.3519352"><ele>525.8</ele><time>2026-04-12T14:37:32.012Z</time></trkpt><trkpt lat="43.6648969" lon="12.3519025"><ele>522.5999999999999</ele><time>2026-04-12T14:37:33.016Z</time></trkpt><trkpt lat="43.6650064" lon="12.3518661"><ele>519.4</ele><time>2026-04-12T14:37:34.013Z</time></trkpt><trkpt lat="43.6651107" lon="12.351826"><ele>516.1999999999999</ele><time>2026-04-12T14:37:35.014Z</time></trkpt><trkpt lat="43.6652121" lon="12.3517877"><ele>513.0</ele><time>2026-04-12T14:37:36.01Z</time></trkpt><trkpt lat="43.6653118" lon="12.3517613"><ele>512.0</ele><time>2026-04-12T14:37:37.012Z</time></trkpt><trkpt lat="43.6654089" lon="12.3517585"><ele>510.99999999999994</ele><time>2026-04-12T14:37:38.013Z</time></trkpt><trkpt lat="43.6654986" lon="12.3517944"><ele>509.99999999999994</ele><time>2026-04-12T14:37:39.012Z</time></trkpt><trkpt lat="43.6655743" lon="12.3518704"><ele>509.0</ele><time>2026-04-12T14:37:40.012Z</time></trkpt><trkpt lat="43.6656244" lon="12.351968"><ele>508.0</ele><time>2026-04-12T14:37:41.01Z</time></trkpt><trkpt lat="43.6656528" lon="12.352079"><ele>508.0</ele><time>2026-04-12T14:37:42.011Z</time></trkpt><trkpt lat="43.6656676" lon="12.352194"><ele>507.99999999999994</ele><time>2026-04-12T14:37:43.011Z</time></trkpt><trkpt lat="43.6656506" lon="12.3523415"><ele>507.99999999999994</ele><time>2026-04-12T14:37:44.012Z</time></trkpt><trkpt lat="43.6656268" lon="12.3525125"><ele>508.0</ele><time>2026-04-12T14:37:45.012Z</time></trkpt><trkpt lat="43.6656114" lon="12.3526831"><ele>508.0</ele><time>2026-04-12T14:37:46.011Z</time></trkpt><trkpt lat="43.6656021" lon="12.3528282"><ele>508.6666666666667</ele><time>2026-04-12T14:37:47.011Z</time></trkpt><trkpt lat="43.6655944" lon="12.3529504"><ele>509.33333333333337</ele><time>2026-04-12T14:37:48.012Z</time></trkpt><trkpt lat="43.6655869" lon="12.3530651"><ele>510.0</ele><time>2026-04-12T14:37:49.01Z</time></trkpt><trkpt lat="43.6655645" lon="12.3531764"><ele>510.66666666666663</ele><time>2026-04-12T14:37:50.013Z</time></trkpt><trkpt lat="43.665523" lon="12.3532805"><ele>511.3333333333333</ele><time>2026-04-12T14:37:51.013Z</time></trkpt><trkpt lat="43.6654596" lon="12.3533695"><ele>512.0</ele><time>2026-04-12T14:37:52.011Z</time></trkpt><trkpt lat="43.6653668" lon="12.3534418"><ele>511.0</ele><time>2026-04-12T14:37:53.013Z</time></trkpt><trkpt lat="43.665245" lon="12.3534949"><ele>510.00000000000006</ele><time>2026-04-12T14:37:54.014Z</time></trkpt><trkpt lat="43.6651304" lon="12.3535295"><ele>509.00000000000006</ele><time>2026-04-12T14:37:55.011Z</time></trkpt><trkpt lat="43.665029" lon="12.3535512"><ele>508.0</ele><time>2026-04-12T14:37:56.015Z</time></trkpt><trkpt lat="43.6649394" lon="12.3535674"><ele>507.0</ele><time>2026-04-12T14:37:57.012Z</time></trkpt><trkpt lat="43.6648687" lon="12.3536002"><ele>507.0</ele><time>2026-04-12T14:37:58.014Z</time></trkpt><trkpt lat="43.6648073" lon="12.3536467"><ele>507.0</ele><time>2026-04-12T14:37:59.011Z</time></trkpt><trkpt lat="43.6647574" lon="12.3537147"><ele>507.0</ele><time>2026-04-12T14:38:00.012Z</time></trkpt><trkpt lat="43.6647207" lon="12.3538038"><ele>507.0</ele><time>2026-04-12T14:38:01.013Z</time></trkpt><trkpt lat="43.664692" lon="12.3539101"><ele>507.0</ele><time>2026-04-12T14:38:02.01Z</time></trkpt><trkpt lat="43.6646687" lon="12.3540573"><ele>507.0</ele><time>2026-04-12T14:38:03.017Z</time></trkpt><trkpt lat="43.6646451" lon="12.3542233"><ele>510.3333333333333</ele><time>2026-04-12T14:38:04.013Z</time></trkpt><trkpt lat="43.6646176" lon="12.3543692"><ele>513.6666666666666</ele><time>2026-04-12T14:38:05.01Z</time></trkpt><trkpt lat="43.6645802" lon="12.354493"><ele>517.0</ele><time>2026-04-12T14:38:06.015Z</time></trkpt><trkpt lat="43.6645373" lon="12.3545976"><ele>520.3333333333333</ele><time>2026-04-12T14:38:07.01Z</time></trkpt><trkpt lat="43.6644844" lon="12.3546835"><ele>523.6666666666666</ele><time>2026-04-12T14:38:08.013Z</time></trkpt><trkpt lat="43.6644293" lon="12.3547324"><ele>527.0</ele><time>2026-04-12T14:38:09.015Z</time></trkpt><trkpt lat="43.6643042" lon="12.3547553"><ele>528.0</ele><time>2026-04-12T14:38:11.011Z</time></trkpt><trkpt lat="43.6642377" lon="12.3547266"><ele>529.0</ele><time>2026-04-12T14:38:12.012Z</time></trkpt><trkpt lat="43.6641717" lon="12.354714"><ele>530.0</ele><time>2026-04-12T14:38:13.012Z</time></trkpt><trkpt lat="43.6640656" lon="12.354753"><ele>531.0</ele><time>2026-04-12T14:38:15.012Z</time></trkpt><trkpt lat="43.6639908" lon="12.3548692"><ele>532.0</ele><time>2026-04-12T14:38:17.013Z</time></trkpt><trkpt lat="43.6639784" lon="12.3549605"><ele>533.0</ele><time>2026-04-12T14:38:18.012Z</time></trkpt><trkpt lat="43.6639847" lon="12.3550816"><ele>533.0</ele><time>2026-04-12T14:38:19.011Z</time></trkpt><trkpt lat="43.6640049" lon="12.3552064"><ele>533.0</ele><time>2026-04-12T14:38:20.012Z</time></trkpt><trkpt lat="43.6640251" lon="12.3553336"><ele>533.0</ele><time>2026-04-12T14:38:21.01Z</time></trkpt><trkpt lat="43.66403" lon="12.3554618"><ele>533.0</ele><time>2026-04-12T14:38:22.012Z</time></trkpt><trkpt lat="43.6640231" lon="12.3555912"><ele>533.0</ele><time>2026-04-12T14:38:23.011Z</time></trkpt><trkpt lat="43.6639961" lon="12.35571"><ele>535.5</ele><time>2026-04-12T14:38:24.013Z</time></trkpt><trkpt lat="43.6639588" lon="12.3558072"><ele>538.0</ele><time>2026-04-12T14:38:25.013Z</time></trkpt><trkpt lat="43.6639071" lon="12.3558883"><ele>540.5</ele><time>2026-04-12T14:38:26.011Z</time></trkpt><trkpt lat="43.6638487" lon="12.3559556"><ele>543.0</ele><time>2026-04-12T14:38:27.012Z</time></trkpt><trkpt lat="43.6637999" lon="12.3560306"><ele>545.5</ele><time>2026-04-12T14:38:28.012Z</time></trkpt><trkpt lat="43.6637482" lon="12.3561139"><ele>548.0</ele><time>2026-04-12T14:38:29.012Z</time></trkpt><trkpt lat="43.6636875" lon="12.356204"><ele>548.0</ele><time>2026-04-12T14:38:30.01Z</time></trkpt><trkpt lat="43.6636278" lon="12.3563236"><ele>548.0</ele><time>2026-04-12T14:38:31.011Z</time></trkpt><trkpt lat="43.6635693" lon="12.3564623"><ele>548.0</ele><time>2026-04-12T14:38:32.012Z</time></trkpt><trkpt lat="43.6635086" lon="12.3566048"><ele>548.0</ele><time>2026-04-12T14:38:33.011Z</time></trkpt><trkpt lat="43.6634557" lon="12.356746"><ele>546.5</ele><time>2026-04-12T14:38:34.017Z</time></trkpt><trkpt lat="43.6634064" lon="12.3568819"><ele>545.0</ele><time>2026-04-12T14:38:35.015Z</time></trkpt><trkpt lat="43.66337" lon="12.3570205"><ele>543.5</ele><time>2026-04-12T14:38:36.014Z</time></trkpt><trkpt lat="43.6633454" lon="12.3571688"><ele>542.0</ele><time>2026-04-12T14:38:37.011Z</time></trkpt><trkpt lat="43.6633228" lon="12.3573392"><ele>545.5</ele><time>2026-04-12T14:38:38.011Z</time></trkpt><trkpt lat="43.6632968" lon="12.3575286"><ele>549.0</ele><time>2026-04-12T14:38:39.014Z</time></trkpt><trkpt lat="43.6632738" lon="12.3577237"><ele>552.5</ele><time>2026-04-12T14:38:40.01Z</time></trkpt><trkpt lat="43.6632506" lon="12.3579126"><ele>556.0</ele><time>2026-04-12T14:38:41.091Z</time></trkpt><trkpt lat="43.6632345" lon="12.3580744"><ele>557.8</ele><time>2026-04-12T14:38:42.012Z</time></trkpt><trkpt lat="43.6632211" lon="12.3582284"><ele>559.6</ele><time>2026-04-12T14:38:43.01Z</time></trkpt><trkpt lat="43.6632179" lon="12.3583587"><ele>561.4</ele><time>2026-04-12T14:38:44.012Z</time></trkpt><trkpt lat="43.6632275" lon="12.3584769"><ele>563.2</ele><time>2026-04-12T14:38:45.013Z</time></trkpt><trkpt lat="43.6632534" lon="12.3585954"><ele>565.0</ele><time>2026-04-12T14:38:46.012Z</time></trkpt><trkpt lat="43.6633049" lon="12.3587259"><ele>565.0</ele><time>2026-04-12T14:38:47.015Z</time></trkpt><trkpt lat="43.6633708" lon="12.3588562"><ele>565.0</ele><time>2026-04-12T14:38:48.011Z</time></trkpt><trkpt lat="43.6634405" lon="12.3589794"><ele>565.0</ele><time>2026-04-12T14:38:49.014Z</time></trkpt><trkpt lat="43.6635144" lon="12.359085"><ele>565.0</ele><time>2026-04-12T14:38:50.012Z</time></trkpt><trkpt lat="43.6636005" lon="12.3591796"><ele>565.0</ele><time>2026-04-12T14:38:51.016Z</time></trkpt><trkpt lat="43.6636959" lon="12.359266"><ele>569.5</ele><time>2026-04-12T14:38:52.014Z</time></trkpt><trkpt lat="43.6637891" lon="12.3593553"><ele>574.0</ele><time>2026-04-12T14:38:53.014Z</time></trkpt><trkpt lat="43.6638725" lon="12.3594526"><ele>578.5</ele><time>2026-04-12T14:38:54.009Z</time></trkpt><trkpt lat="43.6639549" lon="12.3595655"><ele>583.0</ele><time>2026-04-12T14:38:55.012Z</time></trkpt><trkpt lat="43.6640266" lon="12.3596864"><ele>582.6</ele><time>2026-04-12T14:38:56.012Z</time></trkpt><trkpt lat="43.6640804" lon="12.359813"><ele>582.1999999999999</ele><time>2026-04-12T14:38:57.011Z</time></trkpt><trkpt lat="43.664115" lon="12.359945"><ele>581.8</ele><time>2026-04-12T14:38:58.011Z</time></trkpt><trkpt lat="43.6641321" lon="12.3600849"><ele>581.4</ele><time>2026-04-12T14:38:59.011Z</time></trkpt><trkpt lat="43.6641274" lon="12.360236"><ele>581.0</ele><time>2026-04-12T14:39:00.011Z</time></trkpt><trkpt lat="43.6641013" lon="12.360381"><ele>581.0</ele><time>2026-04-12T14:39:01.017Z</time></trkpt><trkpt lat="43.6640717" lon="12.360519"><ele>581.0</ele><time>2026-04-12T14:39:02.012Z</time></trkpt><trkpt lat="43.6640512" lon="12.360648"><ele>581.0</ele><time>2026-04-12T14:39:03.012Z</time></trkpt><trkpt lat="43.6640485" lon="12.3607669"><ele>581.0</ele><time>2026-04-12T14:39:04.011Z</time></trkpt><trkpt lat="43.6640612" lon="12.3608738"><ele>581.0</ele><time>2026-04-12T14:39:05.013Z</time></trkpt><trkpt lat="43.6640954" lon="12.3609707"><ele>581.0</ele><time>2026-04-12T14:39:06.013Z</time></trkpt><trkpt lat="43.6641515" lon="12.3610598"><ele>581.75</ele><time>2026-04-12T14:39:07.013Z</time></trkpt><trkpt lat="43.6642266" lon="12.3611552"><ele>582.5</ele><time>2026-04-12T14:39:08.013Z</time></trkpt><trkpt lat="43.6643431" lon="12.3612805"><ele>583.25</ele><time>2026-04-12T14:39:09.011Z</time></trkpt><trkpt lat="43.6644619" lon="12.361422"><ele>584.0</ele><time>2026-04-12T14:39:10.011Z</time></trkpt><trkpt lat="43.6645756" lon="12.3615782"><ele>589.5</ele><time>2026-04-12T14:39:11.01Z</time></trkpt><trkpt lat="43.6646779" lon="12.3617403"><ele>595.0</ele><time>2026-04-12T14:39:12.011Z</time></trkpt><trkpt lat="43.6647639" lon="12.3618966"><ele>600.5</ele><time>2026-04-12T14:39:13.012Z</time></trkpt><trkpt lat="43.6648382" lon="12.3620535"><ele>606.0</ele><time>2026-04-12T14:39:14.012Z</time></trkpt><trkpt lat="43.6649035" lon="12.3622109"><ele>606.0</ele><time>2026-04-12T14:39:15.021Z</time></trkpt><trkpt lat="43.6649563" lon="12.3623597"><ele>606.0</ele><time>2026-04-12T14:39:16.011Z</time></trkpt><trkpt lat="43.6649998" lon="12.3624993"><ele>606.0</ele><time>2026-04-12T14:39:17.011Z</time></trkpt><trkpt lat="43.6650298" lon="12.3626298"><ele>606.0</ele><time>2026-04-12T14:39:18.014Z</time></trkpt><trkpt lat="43.6650468" lon="12.3627611"><ele>606.0</ele><time>2026-04-12T14:39:19.012Z</time></trkpt><trkpt lat="43.6650466" lon="12.3629026"><ele>608.3333333333334</ele><time>2026-04-12T14:39:20.013Z</time></trkpt><trkpt lat="43.6650304" lon="12.363053"><ele>610.6666666666667</ele><time>2026-04-12T14:39:21.012Z</time></trkpt><trkpt lat="43.6649963" lon="12.3632152"><ele>613.0</ele><time>2026-04-12T14:39:22.011Z</time></trkpt><trkpt lat="43.6648672" lon="12.3636396"><ele>613.0</ele><time>2026-04-12T14:39:24.649Z</time></trkpt><trkpt lat="43.664578" lon="12.363709"><ele>613.0</ele><time>2026-04-12T14:39:25.853Z</time></trkpt><trkpt lat="43.6642974" lon="12.3639078"><ele>611.5</ele><time>2026-04-12T14:39:28.014Z</time></trkpt><trkpt lat="43.664271" lon="12.3640418"><ele>610.0</ele><time>2026-04-12T14:39:29.013Z</time></trkpt><trkpt lat="43.6642735" lon="12.364149"><ele>608.5</ele><time>2026-04-12T14:39:30.011Z</time></trkpt><trkpt lat="43.6642926" lon="12.3642463"><ele>607.0</ele><time>2026-04-12T14:39:31.012Z</time></trkpt><trkpt lat="43.664331" lon="12.3643517"><ele>605.5</ele><time>2026-04-12T14:39:32.013Z</time></trkpt><trkpt lat="43.6643568" lon="12.3644411"><ele>604.0</ele><time>2026-04-12T14:39:33.014Z</time></trkpt><trkpt lat="43.6644763" lon="12.3645001"><ele>608.0</ele><time>2026-04-12T14:39:35.015Z</time></trkpt><trkpt lat="43.6645719" lon="12.3644707"><ele>612.0</ele><time>2026-04-12T14:39:36.015Z</time></trkpt><trkpt lat="43.664664" lon="12.3644389"><ele>616.0</ele><time>2026-04-12T14:39:37.017Z</time></trkpt><trkpt lat="43.6647543" lon="12.364409"><ele>620.0</ele><time>2026-04-12T14:39:38.011Z</time></trkpt><trkpt lat="43.6648686" lon="12.3643694"><ele>624.0</ele><time>2026-04-12T14:39:39.009Z</time></trkpt><trkpt lat="43.6649843" lon="12.3643305"><ele>624.0</ele><time>2026-04-12T14:39:40.011Z</time></trkpt><trkpt lat="43.6651279" lon="12.3642921"><ele>624.0</ele><time>2026-04-12T14:39:41.014Z</time></trkpt><trkpt lat="43.6652672" lon="12.3642674"><ele>624.0</ele><time>2026-04-12T14:39:42.011Z</time></trkpt><trkpt lat="43.6654018" lon="12.3642494"><ele>624.0</ele><time>2026-04-12T14:39:43.015Z</time></trkpt><trkpt lat="43.6655266" lon="12.3642196"><ele>626.8</ele><time>2026-04-12T14:39:44.014Z</time></trkpt><trkpt lat="43.6656327" lon="12.3641618"><ele>629.5999999999999</ele><time>2026-04-12T14:39:45.014Z</time></trkpt><trkpt lat="43.6657187" lon="12.3640803"><ele>632.4</ele><time>2026-04-12T14:39:46.011Z</time></trkpt><trkpt lat="43.66581" lon="12.364021"><ele>635.1999999999999</ele><time>2026-04-12T14:39:47.011Z</time></trkpt><trkpt lat="43.6658906" lon="12.363961"><ele>638.0</ele><time>2026-04-12T14:39:48.013Z</time></trkpt><trkpt lat="43.6659621" lon="12.3639002"><ele>637.5</ele><time>2026-04-12T14:39:49.01Z</time></trkpt><trkpt lat="43.6660171" lon="12.3638325"><ele>637.0</ele><time>2026-04-12T14:39:50.011Z</time></trkpt><trkpt lat="43.6660585" lon="12.3637483"><ele>636.5</ele><time>2026-04-12T14:39:51.012Z</time></trkpt><trkpt lat="43.6660908" lon="12.3636519"><ele>636.0</ele><time>2026-04-12T14:39:52.014Z</time></trkpt><trkpt lat="43.6661054" lon="12.3635378"><ele>635.5</ele><time>2026-04-12T14:39:53.013Z</time></trkpt><trkpt lat="43.6661152" lon="12.3634031"><ele>635.0</ele><time>2026-04-12T14:39:54.011Z</time></trkpt><trkpt lat="43.6661024" lon="12.3632546"><ele>635.0</ele><time>2026-04-12T14:39:55.012Z</time></trkpt><trkpt lat="43.6660908" lon="12.3631147"><ele>635.0</ele><time>2026-04-12T14:39:56.012Z</time></trkpt><trkpt lat="43.6660823" lon="12.3629927"><ele>635.0</ele><time>2026-04-12T14:39:57.018Z</time></trkpt><trkpt lat="43.6660707" lon="12.3628985"><ele>635.0</ele><time>2026-04-12T14:39:58.012Z</time></trkpt><trkpt lat="43.6660821" lon="12.3627271"><ele>635.0</ele><time>2026-04-12T14:40:00.011Z</time></trkpt><trkpt lat="43.6661498" lon="12.3625892"><ele>640.0</ele><time>2026-04-12T14:40:02.013Z</time></trkpt><trkpt lat="43.6662406" lon="12.3624871"><ele>645.0</ele><time>2026-04-12T14:40:04.018Z</time></trkpt><trkpt lat="43.6663611" lon="12.3624668"><ele>650.0</ele><time>2026-04-12T14:40:06.015Z</time></trkpt><trkpt lat="43.6664216" lon="12.3624984"><ele>655.0</ele><time>2026-04-12T14:40:07.015Z</time></trkpt><trkpt lat="43.6664772" lon="12.362546"><ele>660.0</ele><time>2026-04-12T14:40:08.012Z</time></trkpt><trkpt lat="43.6665455" lon="12.3627132"><ele>660.0</ele><time>2026-04-12T14:40:10.013Z</time></trkpt><trkpt lat="43.6665679" lon="12.3628501"><ele>660.0</ele><time>2026-04-12T14:40:11.012Z</time></trkpt><trkpt lat="43.6666082" lon="12.362984"><ele>660.0</ele><time>2026-04-12T14:40:12.014Z</time></trkpt><trkpt lat="43.6666317" lon="12.3631515"><ele>660.0</ele><time>2026-04-12T14:40:13.014Z</time></trkpt><trkpt lat="43.6666558" lon="12.3632973"><ele>660.0</ele><time>2026-04-12T14:40:14.014Z</time></trkpt><trkpt lat="43.6666847" lon="12.3634203"><ele>659.4</ele><time>2026-04-12T14:40:15.011Z</time></trkpt><trkpt lat="43.666729" lon="12.3635278"><ele>658.8</ele><time>2026-04-12T14:40:16.013Z</time></trkpt><trkpt lat="43.66679" lon="12.3636257"><ele>658.2</ele><time>2026-04-12T14:40:17.012Z</time></trkpt><trkpt lat="43.6668841" lon="12.3637014"><ele>657.6</ele><time>2026-04-12T14:40:18.011Z</time></trkpt><trkpt lat="43.6669911" lon="12.3637796"><ele>657.0</ele><time>2026-04-12T14:40:19.01Z</time></trkpt><trkpt lat="43.6671039" lon="12.3638547"><ele>659.0</ele><time>2026-04-12T14:40:20.013Z</time></trkpt><trkpt lat="43.6672156" lon="12.3639247"><ele>661.0</ele><time>2026-04-12T14:40:21.013Z</time></trkpt><trkpt lat="43.6673138" lon="12.3639934"><ele>663.0</ele><time>2026-04-12T14:40:22.011Z</time></trkpt><trkpt lat="43.667407" lon="12.3640341"><ele>665.0</ele><time>2026-04-12T14:40:23.012Z</time></trkpt><trkpt lat="43.6674832" lon="12.3640722"><ele>667.0</ele><time>2026-04-12T14:40:24.011Z</time></trkpt><trkpt lat="43.667548" lon="12.3640933"><ele>667.0</ele><time>2026-04-12T14:40:25.013Z</time></trkpt><trkpt lat="43.6676275" lon="12.364141"><ele>667.0</ele><time>2026-04-12T14:40:27.012Z</time></trkpt><trkpt lat="43.6677217" lon="12.3641"><ele>667.0</ele><time>2026-04-12T14:40:40.012Z</time></trkpt><trkpt lat="43.667815" lon="12.36396"><ele>667.0</ele><time>2026-04-12T14:40:42.012Z</time></trkpt><trkpt lat="43.6678653" lon="12.3638665"><ele>667.0</ele><time>2026-04-12T14:40:43.014Z</time></trkpt><trkpt lat="43.6679658" lon="12.3637095"><ele>669.5</ele><time>2026-04-12T14:40:44.013Z</time></trkpt><trkpt lat="43.6680621" lon="12.3635657"><ele>672.0</ele><time>2026-04-12T14:40:45.013Z</time></trkpt><trkpt lat="43.6681574" lon="12.3634481"><ele>674.5</ele><time>2026-04-12T14:40:46.014Z</time></trkpt><trkpt lat="43.6682419" lon="12.3633503"><ele>677.0</ele><time>2026-04-12T14:40:47.013Z</time></trkpt><trkpt lat="43.6683269" lon="12.3632822"><ele>677.0</ele><time>2026-04-12T14:40:48.014Z</time></trkpt><trkpt lat="43.6684189" lon="12.3632479"><ele>677.0</ele><time>2026-04-12T14:40:49.011Z</time></trkpt><trkpt lat="43.6685151" lon="12.3632452"><ele>677.0</ele><time>2026-04-12T14:40:50.011Z</time></trkpt><trkpt lat="43.6686039" lon="12.3632514"><ele>677.0</ele><time>2026-04-12T14:40:51.011Z</time></trkpt><trkpt lat="43.6686837" lon="12.3632353"><ele>677.0</ele><time>2026-04-12T14:40:52.014Z</time></trkpt><trkpt lat="43.6687537" lon="12.3632063"><ele>677.0</ele><time>2026-04-12T14:40:53.014Z</time></trkpt><trkpt lat="43.668821" lon="12.3631682"><ele>677.4000000000001</ele><time>2026-04-12T14:40:54.013Z</time></trkpt><trkpt lat="43.6688835" lon="12.3631149"><ele>677.8000000000001</ele><time>2026-04-12T14:40:55.012Z</time></trkpt><trkpt lat="43.6689495" lon="12.363043"><ele>678.2</ele><time>2026-04-12T14:40:56.013Z</time></trkpt><trkpt lat="43.6690255" lon="12.3628969"><ele>678.6</ele><time>2026-04-12T14:40:57.014Z</time></trkpt><trkpt lat="43.6690968" lon="12.3627316"><ele>679.0</ele><time>2026-04-12T14:40:58.013Z</time></trkpt><trkpt lat="43.6691787" lon="12.3625969"><ele>679.0</ele><time>2026-04-12T14:40:59.014Z</time></trkpt><trkpt lat="43.6692638" lon="12.3624805"><ele>679.0</ele><time>2026-04-12T14:41:00.013Z</time></trkpt><trkpt lat="43.6693567" lon="12.3623781"><ele>679.0</ele><time>2026-04-12T14:41:01.012Z</time></trkpt><trkpt lat="43.6694637" lon="12.3622746"><ele>679.0</ele><time>2026-04-12T14:41:02.013Z</time></trkpt><trkpt lat="43.669586" lon="12.3622109"><ele>680.5</ele><time>2026-04-12T14:41:03.013Z</time></trkpt><trkpt lat="43.6697145" lon="12.3621405"><ele>682.0</ele><time>2026-04-12T14:41:04.015Z</time></trkpt><trkpt lat="43.6698466" lon="12.3620684"><ele>683.5</ele><time>2026-04-12T14:41:05.013Z</time></trkpt><trkpt lat="43.6699763" lon="12.3620029"><ele>685.0</ele><time>2026-04-12T14:41:06.011Z</time></trkpt><trkpt lat="43.6701026" lon="12.3619615"><ele>685.0</ele><time>2026-04-12T14:41:07.013Z</time></trkpt><trkpt lat="43.6702208" lon="12.3619136"><ele>685.0</ele><time>2026-04-12T14:41:08.012Z</time></trkpt><trkpt lat="43.6703351" lon="12.3618607"><ele>685.0</ele><time>2026-04-12T14:41:09.014Z</time></trkpt><trkpt lat="43.6704497" lon="12.3618075"><ele>685.0</ele><time>2026-04-12T14:41:10.014Z</time></trkpt><trkpt lat="43.6705547" lon="12.361733"><ele>685.5</ele><time>2026-04-12T14:41:11.012Z</time></trkpt><trkpt lat="43.6706551" lon="12.3616448"><ele>686.0</ele><time>2026-04-12T14:41:12.013Z</time></trkpt><trkpt lat="43.6707588" lon="12.3615683"><ele>686.5</ele><time>2026-04-12T14:41:13.012Z</time></trkpt><trkpt lat="43.6708644" lon="12.3615052"><ele>687.0</ele><time>2026-04-12T14:41:14.013Z</time></trkpt><trkpt lat="43.6709723" lon="12.3614691"><ele>687.0</ele><time>2026-04-12T14:41:15.01Z</time></trkpt><trkpt lat="43.6710809" lon="12.3614398"><ele>687.0</ele><time>2026-04-12T14:41:16.014Z</time></trkpt><trkpt lat="43.6711947" lon="12.3614374"><ele>687.0</ele><time>2026-04-12T14:41:17.012Z</time></trkpt><trkpt lat="43.6712975" lon="12.3614253"><ele>687.0</ele><time>2026-04-12T14:41:18.013Z</time></trkpt><trkpt lat="43.6713875" lon="12.3613989"><ele>687.0</ele><time>2026-04-12T14:41:19.013Z</time></trkpt><trkpt lat="43.6714745" lon="12.3613728"><ele>687.2</ele><time>2026-04-12T14:41:20.01Z</time></trkpt><trkpt lat="43.6715745" lon="12.3613616"><ele>687.4000000000001</ele><time>2026-04-12T14:41:21.013Z</time></trkpt><trkpt lat="43.6716841" lon="12.361354"><ele>687.5999999999999</ele><time>2026-04-12T14:41:22.014Z</time></trkpt><trkpt lat="43.6717862" lon="12.3613319"><ele>687.8</ele><time>2026-04-12T14:41:23.012Z</time></trkpt><trkpt lat="43.671881" lon="12.3612971"><ele>688.0</ele><time>2026-04-12T14:41:24.015Z</time></trkpt><trkpt lat="43.6719741" lon="12.3612486"><ele>690.5999999999999</ele><time>2026-04-12T14:41:25.013Z</time></trkpt><trkpt lat="43.6720699" lon="12.3612062"><ele>693.1999999999999</ele><time>2026-04-12T14:41:26.012Z</time></trkpt><trkpt lat="43.672168" lon="12.3611675"><ele>695.8</ele><time>2026-04-12T14:41:27.014Z</time></trkpt><trkpt lat="43.6722706" lon="12.3611388"><ele>698.4</ele><time>2026-04-12T14:41:28.013Z</time></trkpt><trkpt lat="43.6723744" lon="12.3611144"><ele>701.0</ele><time>2026-04-12T14:41:29.013Z</time></trkpt><trkpt lat="43.6724805" lon="12.3611098"><ele>701.0</ele><time>2026-04-12T14:41:30.015Z</time></trkpt><trkpt lat="43.6725819" lon="12.3611251"><ele>701.0</ele><time>2026-04-12T14:41:31.013Z</time></trkpt><trkpt lat="43.6726832" lon="12.361146"><ele>701.0</ele><time>2026-04-12T14:41:32.015Z</time></trkpt><trkpt lat="43.6727876" lon="12.3611809"><ele>701.0</ele><time>2026-04-12T14:41:33.013Z</time></trkpt><trkpt lat="43.672899" lon="12.3612162"><ele>701.0</ele><time>2026-04-12T14:41:34.013Z</time></trkpt><trkpt lat="43.6730057" lon="12.361272"><ele>700.0</ele><time>2026-04-12T14:41:35.014Z</time></trkpt><trkpt lat="43.673105" lon="12.3613267"><ele>699.0</ele><time>2026-04-12T14:41:36.012Z</time></trkpt><trkpt lat="43.6731969" lon="12.3613857"><ele>698.0</ele><time>2026-04-12T14:41:37.017Z</time></trkpt><trkpt lat="43.6732787" lon="12.3614636"><ele>697.0</ele><time>2026-04-12T14:41:38.013Z</time></trkpt><trkpt lat="43.6733584" lon="12.3615458"><ele>696.0</ele><time>2026-04-12T14:41:39.012Z</time></trkpt><trkpt lat="43.6734394" lon="12.3616261"><ele>696.0</ele><time>2026-04-12T14:41:40.014Z</time></trkpt><trkpt lat="43.6735105" lon="12.3617155"><ele>696.0</ele><time>2026-04-12T14:41:41.011Z</time></trkpt><trkpt lat="43.6735719" lon="12.3618135"><ele>696.0</ele><time>2026-04-12T14:41:42.016Z</time></trkpt><trkpt lat="43.6736289" lon="12.3619197"><ele>696.0</ele><time>2026-04-12T14:41:43.015Z</time></trkpt><trkpt lat="43.6736798" lon="12.3620388"><ele>696.0</ele><time>2026-04-12T14:41:44.012Z</time></trkpt><trkpt lat="43.6737257" lon="12.3621782"><ele>696.8</ele><time>2026-04-12T14:41:45.013Z</time></trkpt><trkpt lat="43.6737746" lon="12.3623159"><ele>697.5999999999999</ele><time>2026-04-12T14:41:46.01Z</time></trkpt><trkpt lat="43.6738292" lon="12.3624478"><ele>698.4</ele><time>2026-04-12T14:41:47.012Z</time></trkpt><trkpt lat="43.6738851" lon="12.3625739"><ele>699.2</ele><time>2026-04-12T14:41:48.011Z</time></trkpt><trkpt lat="43.6739416" lon="12.3626842"><ele>700.0</ele><time>2026-04-12T14:41:49.013Z</time></trkpt><trkpt lat="43.6739958" lon="12.3627818"><ele>700.0</ele><time>2026-04-12T14:41:50.011Z</time></trkpt><trkpt lat="43.674042" lon="12.3628661"><ele>700.0</ele><time>2026-04-12T14:41:51.013Z</time></trkpt><trkpt lat="43.6740794" lon="12.3629373"><ele>700.0</ele><time>2026-04-12T14:41:52.014Z</time></trkpt><trkpt lat="43.6741547" lon="12.3630322"><ele>700.0</ele><time>2026-04-12T14:41:54.013Z</time></trkpt><trkpt lat="43.6742501" lon="12.363026"><ele>700.0</ele><time>2026-04-12T14:41:56.013Z</time></trkpt><trkpt lat="43.6743024" lon="12.3629774"><ele>700.0</ele><time>2026-04-12T14:41:57.014Z</time></trkpt><trkpt lat="43.6743583" lon="12.3629043"><ele>700.0</ele><time>2026-04-12T14:41:58.01Z</time></trkpt><trkpt lat="43.6744138" lon="12.3628022"><ele>700.0</ele><time>2026-04-12T14:41:59.017Z</time></trkpt><trkpt lat="43.6744661" lon="12.3626862"><ele>700.0</ele><time>2026-04-12T14:42:00.012Z</time></trkpt><trkpt lat="43.6745113" lon="12.3625469"><ele>700.0</ele><time>2026-04-12T14:42:01.015Z</time></trkpt><trkpt lat="43.6745498" lon="12.3623762"><ele>700.0</ele><time>2026-04-12T14:42:02.013Z</time></trkpt><trkpt lat="43.6745978" lon="12.3621836"><ele>697.0</ele><time>2026-04-12T14:42:03.011Z</time></trkpt><trkpt lat="43.6746548" lon="12.3619902"><ele>694.0</ele><time>2026-04-12T14:42:04.011Z</time></trkpt><trkpt lat="43.6747029" lon="12.3618011"><ele>691.0</ele><time>2026-04-12T14:42:05.012Z</time></trkpt><trkpt lat="43.6747515" lon="12.3616162"><ele>688.0</ele><time>2026-04-12T14:42:06.013Z</time></trkpt><trkpt lat="43.6747849" lon="12.361428"><ele>689.75</ele><time>2026-04-12T14:42:07.015Z</time></trkpt><trkpt lat="43.6748158" lon="12.361248"><ele>691.5</ele><time>2026-04-12T14:42:08.014Z</time></trkpt><trkpt lat="43.6748467" lon="12.3610796"><ele>693.25</ele><time>2026-04-12T14:42:09.013Z</time></trkpt><trkpt lat="43.6748708" lon="12.3609123"><ele>695.0</ele><time>2026-04-12T14:42:10.013Z</time></trkpt><trkpt lat="43.6748939" lon="12.3607607"><ele>695.0</ele><time>2026-04-12T14:42:11.012Z</time></trkpt><trkpt lat="43.6749118" lon="12.3606259"><ele>695.0</ele><time>2026-04-12T14:42:12.013Z</time></trkpt><trkpt lat="43.674929" lon="12.3604982"><ele>695.0</ele><time>2026-04-12T14:42:13.013Z</time></trkpt><trkpt lat="43.6749635" lon="12.3603753"><ele>695.0</ele><time>2026-04-12T14:42:14.013Z</time></trkpt><trkpt lat="43.6750089" lon="12.3602611"><ele>695.0</ele><time>2026-04-12T14:42:15.013Z</time></trkpt><trkpt lat="43.6750391" lon="12.3601302"><ele>697.6</ele><time>2026-04-12T14:42:16.013Z</time></trkpt><trkpt lat="43.6750635" lon="12.3599849"><ele>700.2</ele><time>2026-04-12T14:42:17.013Z</time></trkpt><trkpt lat="43.6750929" lon="12.3598544"><ele>702.8</ele><time>2026-04-12T14:42:18.013Z</time></trkpt><trkpt lat="43.6751239" lon="12.3597428"><ele>705.4</ele><time>2026-04-12T14:42:19.014Z</time></trkpt><trkpt lat="43.6751664" lon="12.359642"><ele>708.0</ele><time>2026-04-12T14:42:20.012Z</time></trkpt><trkpt lat="43.6752252" lon="12.3595562"><ele>708.0</ele><time>2026-04-12T14:42:21.015Z</time></trkpt><trkpt lat="43.6752863" lon="12.3594827"><ele>708.0</ele><time>2026-04-12T14:42:22.013Z</time></trkpt><trkpt lat="43.6753338" lon="12.3594114"><ele>708.0</ele><time>2026-04-12T14:42:23.013Z</time></trkpt><trkpt lat="43.6753905" lon="12.359358"><ele>708.0</ele><time>2026-04-12T14:42:24.014Z</time></trkpt><trkpt lat="43.6754554" lon="12.359313"><ele>708.0</ele><time>2026-04-12T14:42:25.01Z</time></trkpt><trkpt lat="43.6755228" lon="12.3592403"><ele>708.0</ele><time>2026-04-12T14:42:26.016Z</time></trkpt><trkpt lat="43.675633" lon="12.3591814"><ele>708.0</ele><time>2026-04-12T14:42:27.01Z</time></trkpt><trkpt lat="43.6757628" lon="12.3591462"><ele>708.0</ele><time>2026-04-12T14:42:28.013Z</time></trkpt><trkpt lat="43.675879" lon="12.3591196"><ele>708.0</ele><time>2026-04-12T14:42:29.01Z</time></trkpt><trkpt lat="43.675974" lon="12.35908"><ele>708.0</ele><time>2026-04-12T14:42:30.01Z</time></trkpt><trkpt lat="43.6760609" lon="12.3590363"><ele>708.0</ele><time>2026-04-12T14:42:31.012Z</time></trkpt><trkpt lat="43.676143" lon="12.3589831"><ele>706.8333333333334</ele><time>2026-04-12T14:42:32.011Z</time></trkpt><trkpt lat="43.6762152" lon="12.3589314"><ele>705.6666666666666</ele><time>2026-04-12T14:42:33.015Z</time></trkpt><trkpt lat="43.6762753" lon="12.3589001"><ele>704.5</ele><time>2026-04-12T14:42:34.013Z</time></trkpt><trkpt lat="43.6764055" lon="12.3588938"><ele>703.3333333333333</ele><time>2026-04-12T14:42:36.013Z</time></trkpt><trkpt lat="43.6764773" lon="12.3589198"><ele>702.1666666666666</ele><time>2026-04-12T14:42:37.015Z</time></trkpt><trkpt lat="43.6765455" lon="12.3589429"><ele>701.0</ele><time>2026-04-12T14:42:38.014Z</time></trkpt><trkpt lat="43.6766228" lon="12.3589527"><ele>701.0</ele><time>2026-04-12T14:42:39.014Z</time></trkpt><trkpt lat="43.6767158" lon="12.3589498"><ele>701.0</ele><time>2026-04-12T14:42:40.012Z</time></trkpt><trkpt lat="43.6768239" lon="12.3589468"><ele>701.0</ele><time>2026-04-12T14:42:41.01Z</time></trkpt><trkpt lat="43.6769357" lon="12.3589486"><ele>701.0</ele><time>2026-04-12T14:42:42.012Z</time></trkpt><trkpt lat="43.6770398" lon="12.3589515"><ele>701.0</ele><time>2026-04-12T14:42:43.014Z</time></trkpt><trkpt lat="43.6771314" lon="12.3589548"><ele>699.8</ele><time>2026-04-12T14:42:44.017Z</time></trkpt><trkpt lat="43.6772105" lon="12.3589549"><ele>698.5999999999999</ele><time>2026-04-12T14:42:45.013Z</time></trkpt><trkpt lat="43.6772881" lon="12.3589412"><ele>697.4</ele><time>2026-04-12T14:42:46.011Z</time></trkpt><trkpt lat="43.6773716" lon="12.3589034"><ele>696.2</ele><time>2026-04-12T14:42:47.013Z</time></trkpt><trkpt lat="43.6774593" lon="12.3588422"><ele>695.0</ele><time>2026-04-12T14:42:48.012Z</time></trkpt><trkpt lat="43.6775491" lon="12.3587637"><ele>695.0</ele><time>2026-04-12T14:42:49.017Z</time></trkpt><trkpt lat="43.6776326" lon="12.358674"><ele>695.0</ele><time>2026-04-12T14:42:50.013Z</time></trkpt><trkpt lat="43.6777107" lon="12.3585732"><ele>695.0</ele><time>2026-04-12T14:42:51.014Z</time></trkpt><trkpt lat="43.6777871" lon="12.3584602"><ele>695.0</ele><time>2026-04-12T14:42:52.011Z</time></trkpt><trkpt lat="43.6778679" lon="12.3583306"><ele>695.0</ele><time>2026-04-12T14:42:53.013Z</time></trkpt><trkpt lat="43.6779515" lon="12.3581966"><ele>695.0</ele><time>2026-04-12T14:42:54.011Z</time></trkpt><trkpt lat="43.6780342" lon="12.3580692"><ele>695.0</ele><time>2026-04-12T14:42:55.012Z</time></trkpt><trkpt lat="43.678116" lon="12.3579533"><ele>695.0</ele><time>2026-04-12T14:42:56.012Z</time></trkpt><trkpt lat="43.6782009" lon="12.3578554"><ele>695.0</ele><time>2026-04-12T14:42:57.014Z</time></trkpt><trkpt lat="43.6782831" lon="12.3577566"><ele>697.2</ele><time>2026-04-12T14:42:58.013Z</time></trkpt><trkpt lat="43.6783602" lon="12.3576446"><ele>699.4</ele><time>2026-04-12T14:42:59.014Z</time></trkpt><trkpt lat="43.6784282" lon="12.357523"><ele>701.5999999999999</ele><time>2026-04-12T14:43:00.016Z</time></trkpt><trkpt lat="43.6784858" lon="12.3573954"><ele>703.8</ele><time>2026-04-12T14:43:01.016Z</time></trkpt><trkpt lat="43.6785277" lon="12.3572767"><ele>706.0</ele><time>2026-04-12T14:43:02.014Z</time></trkpt><trkpt lat="43.6785516" lon="12.3571566"><ele>705.6666666666667</ele><time>2026-04-12T14:43:03.017Z</time></trkpt><trkpt lat="43.6785679" lon="12.3570357"><ele>705.3333333333334</ele><time>2026-04-12T14:43:04.014Z</time></trkpt><trkpt lat="43.6785892" lon="12.3569213"><ele>705.0</ele><time>2026-04-12T14:43:05.011Z</time></trkpt><trkpt lat="43.6786275" lon="12.3568244"><ele>704.6666666666666</ele><time>2026-04-12T14:43:06.012Z</time></trkpt><trkpt lat="43.6786775" lon="12.3567398"><ele>704.3333333333333</ele><time>2026-04-12T14:43:07.012Z</time></trkpt><trkpt lat="43.678747" lon="12.3566765"><ele>704.0</ele><time>2026-04-12T14:43:08.015Z</time></trkpt><trkpt lat="43.6788421" lon="12.356637"><ele>704.0</ele><time>2026-04-12T14:43:09.012Z</time></trkpt><trkpt lat="43.678961" lon="12.356627"><ele>704.0</ele><time>2026-04-12T14:43:10.011Z</time></trkpt><trkpt lat="43.6790848" lon="12.3566198"><ele>704.0</ele><time>2026-04-12T14:43:11.014Z</time></trkpt><trkpt lat="43.6792098" lon="12.3566037"><ele>704.0</ele><time>2026-04-12T14:43:12.011Z</time></trkpt><trkpt lat="43.6793338" lon="12.3565841"><ele>703.2</ele><time>2026-04-12T14:43:13.015Z</time></trkpt><trkpt lat="43.6794505" lon="12.3565626"><ele>702.4000000000001</ele><time>2026-04-12T14:43:14.014Z</time></trkpt><trkpt lat="43.6795575" lon="12.3565421"><ele>701.6</ele><time>2026-04-12T14:43:15.01Z</time></trkpt><trkpt lat="43.6796607" lon="12.3565314"><ele>700.8</ele><time>2026-04-12T14:43:16.013Z</time></trkpt><trkpt lat="43.6797631" lon="12.3565357"><ele>700.0</ele><time>2026-04-12T14:43:17.012Z</time></trkpt><trkpt lat="43.6798609" lon="12.3565513"><ele>700.0</ele><time>2026-04-12T14:43:18.013Z</time></trkpt><trkpt lat="43.6799514" lon="12.3565693"><ele>700.0</ele><time>2026-04-12T14:43:19.013Z</time></trkpt><trkpt lat="43.6800354" lon="12.3565971"><ele>700.0</ele><time>2026-04-12T14:43:20.014Z</time></trkpt><trkpt lat="43.6801073" lon="12.356635"><ele>700.0</ele><time>2026-04-12T14:43:21.011Z</time></trkpt><trkpt lat="43.6801911" lon="12.3567207"><ele>700.0</ele><time>2026-04-12T14:43:23.013Z</time></trkpt><trkpt lat="43.6803333" lon="12.3568133"><ele>700.6666666666667</ele><time>2026-04-12T14:46:02.012Z</time></trkpt><trkpt lat="43.6804083" lon="12.3568333"><ele>701.3333333333334</ele><time>2026-04-12T14:46:03.013Z</time></trkpt><trkpt lat="43.6804933" lon="12.3568567"><ele>702.0</ele><time>2026-04-12T14:46:04.011Z</time></trkpt><trkpt lat="43.6805678" lon="12.3568583"><ele>702.6666666666666</ele><time>2026-04-12T14:46:05.012Z</time></trkpt><trkpt lat="43.6806361" lon="12.3568549"><ele>703.3333333333333</ele><time>2026-04-12T14:46:06.012Z</time></trkpt><trkpt lat="43.6807386" lon="12.3568345"><ele>704.0</ele><time>2026-04-12T14:46:08.01Z</time></trkpt><trkpt lat="43.6808317" lon="12.3568517"><ele>704.0</ele><time>2026-04-12T14:46:23.012Z</time></trkpt><trkpt lat="43.6809317" lon="12.3568533"><ele>704.0</ele><time>2026-04-12T14:46:25.012Z</time></trkpt><trkpt lat="43.6810067" lon="12.35685"><ele>704.0</ele><time>2026-04-12T14:46:26.011Z</time></trkpt><trkpt lat="43.68108" lon="12.3568433"><ele>704.0</ele><time>2026-04-12T14:46:27.012Z</time></trkpt><trkpt lat="43.6811467" lon="12.356815"><ele>704.0</ele><time>2026-04-12T14:46:28.012Z</time></trkpt><trkpt lat="43.6812614" lon="12.3567296"><ele>704.0</ele><time>2026-04-12T14:46:30.011Z</time></trkpt><trkpt lat="43.681321" lon="12.3566699"><ele>701.8333333333333</ele><time>2026-04-12T14:46:31.011Z</time></trkpt><trkpt lat="43.6813675" lon="12.3565949"><ele>699.6666666666666</ele><time>2026-04-12T14:46:32.013Z</time></trkpt><trkpt lat="43.6814074" lon="12.3564969"><ele>697.5</ele><time>2026-04-12T14:46:33.012Z</time></trkpt><trkpt lat="43.6814477" lon="12.3563947"><ele>695.3333333333334</ele><time>2026-04-12T14:46:34.013Z</time></trkpt><trkpt lat="43.6814711" lon="12.3562836"><ele>693.1666666666667</ele><time>2026-04-12T14:46:35.012Z</time></trkpt><trkpt lat="43.6814981" lon="12.3561658"><ele>691.0</ele><time>2026-04-12T14:46:36.014Z</time></trkpt><trkpt lat="43.6815202" lon="12.3560598"><ele>691.0</ele><time>2026-04-12T14:46:37.012Z</time></trkpt><trkpt lat="43.6815206" lon="12.3559465"><ele>691.0</ele><time>2026-04-12T14:46:38.013Z</time></trkpt><trkpt lat="43.6815055" lon="12.3558244"><ele>691.0</ele><time>2026-04-12T14:46:39.014Z</time></trkpt><trkpt lat="43.6814891" lon="12.355697"><ele>691.0</ele><time>2026-04-12T14:46:40.011Z</time></trkpt><trkpt lat="43.6814836" lon="12.3555661"><ele>691.0</ele><time>2026-04-12T14:46:41.012Z</time></trkpt><trkpt lat="43.6814942" lon="12.3554379"><ele>691.4</ele><time>2026-04-12T14:46:42.014Z</time></trkpt><trkpt lat="43.6815178" lon="12.3553264"><ele>691.8</ele><time>2026-04-12T14:46:43.011Z</time></trkpt><trkpt lat="43.6815471" lon="12.3552084"><ele>692.1999999999999</ele><time>2026-04-12T14:46:44.014Z</time></trkpt><trkpt lat="43.6815973" lon="12.3550903"><ele>692.5999999999999</ele><time>2026-04-12T14:46:45.011Z</time></trkpt><trkpt lat="43.6816613" lon="12.3549805"><ele>693.0</ele><time>2026-04-12T14:46:46.013Z</time></trkpt><trkpt lat="43.6817215" lon="12.354878"><ele>693.0</ele><time>2026-04-12T14:46:47.011Z</time></trkpt><trkpt lat="43.6817802" lon="12.3547812"><ele>693.0</ele><time>2026-04-12T14:46:48.013Z</time></trkpt><trkpt lat="43.6818447" lon="12.354706"><ele>693.0</ele><time>2026-04-12T14:46:49.014Z</time></trkpt><trkpt lat="43.6819121" lon="12.3546365"><ele>693.0</ele><time>2026-04-12T14:46:50.015Z</time></trkpt><trkpt lat="43.6819735" lon="12.3545707"><ele>693.0</ele><time>2026-04-12T14:46:51.013Z</time></trkpt><trkpt lat="43.68203" lon="12.3544961"><ele>693.0</ele><time>2026-04-12T14:46:52.012Z</time></trkpt><trkpt lat="43.6820886" lon="12.3544072"><ele>690.4</ele><time>2026-04-12T14:46:53.015Z</time></trkpt><trkpt lat="43.6821544" lon="12.3543088"><ele>687.8</ele><time>2026-04-12T14:46:54.013Z</time></trkpt><trkpt lat="43.6822271" lon="12.3542068"><ele>685.2</ele><time>2026-04-12T14:46:55.012Z</time></trkpt><trkpt lat="43.6823047" lon="12.3540914"><ele>682.6</ele><time>2026-04-12T14:46:56.013Z</time></trkpt><trkpt lat="43.6823934" lon="12.3539953"><ele>680.0</ele><time>2026-04-12T14:46:57.011Z</time></trkpt><trkpt lat="43.6824853" lon="12.353919"><ele>681.8333333333333</ele><time>2026-04-12T14:46:58.016Z</time></trkpt><trkpt lat="43.6825594" lon="12.3538482"><ele>683.6666666666666</ele><time>2026-04-12T14:46:59.011Z</time></trkpt><trkpt lat="43.6826178" lon="12.3537777"><ele>685.5</ele><time>2026-04-12T14:47:00.013Z</time></trkpt><trkpt lat="43.6826605" lon="12.3537081"><ele>687.3333333333334</ele><time>2026-04-12T14:47:01.013Z</time></trkpt><trkpt lat="43.6826883" lon="12.3535417"><ele>689.1666666666667</ele><time>2026-04-12T14:47:03.013Z</time></trkpt><trkpt lat="43.6826667" lon="12.3534383"><ele>691.0</ele><time>2026-04-12T14:47:04.016Z</time></trkpt><trkpt lat="43.6826317" lon="12.3533167"><ele>691.0</ele><time>2026-04-12T14:47:05.012Z</time></trkpt><trkpt lat="43.682565" lon="12.3531517"><ele>691.0</ele><time>2026-04-12T14:47:06.013Z</time></trkpt><trkpt lat="43.6825483" lon="12.352995"><ele>691.0</ele><time>2026-04-12T14:47:07.013Z</time></trkpt><trkpt lat="43.6825383" lon="12.3528217"><ele>691.0</ele><time>2026-04-12T14:47:08.012Z</time></trkpt><trkpt lat="43.6825517" lon="12.3526467"><ele>691.25</ele><time>2026-04-12T14:47:09.012Z</time></trkpt><trkpt lat="43.682615" lon="12.3524817"><ele>691.5</ele><time>2026-04-12T14:47:10.013Z</time></trkpt><trkpt lat="43.6826717" lon="12.35232"><ele>691.75</ele><time>2026-04-12T14:47:11.012Z</time></trkpt><trkpt lat="43.6827267" lon="12.352165"><ele>692.0</ele><time>2026-04-12T14:47:12.013Z</time></trkpt><trkpt lat="43.682795" lon="12.3520317"><ele>685.75</ele><time>2026-04-12T14:47:13.013Z</time></trkpt><trkpt lat="43.6828533" lon="12.3519033"><ele>679.5</ele><time>2026-04-12T14:47:14.012Z</time></trkpt><trkpt lat="43.6829033" lon="12.3517583"><ele>673.25</ele><time>2026-04-12T14:47:15.013Z</time></trkpt><trkpt lat="43.6829483" lon="12.3516117"><ele>667.0</ele><time>2026-04-12T14:47:16.013Z</time></trkpt><trkpt lat="43.682975" lon="12.3514483"><ele>670.8</ele><time>2026-04-12T14:47:17.014Z</time></trkpt><trkpt lat="43.6830217" lon="12.351305"><ele>674.6</ele><time>2026-04-12T14:47:18.012Z</time></trkpt><trkpt lat="43.683085" lon="12.3511717"><ele>678.4</ele><time>2026-04-12T14:47:19.013Z</time></trkpt><trkpt lat="43.6831417" lon="12.3510367"><ele>682.1999999999999</ele><time>2026-04-12T14:47:20.011Z</time></trkpt><trkpt lat="43.6832183" lon="12.3509367"><ele>686.0</ele><time>2026-04-12T14:47:21.014Z</time></trkpt><trkpt lat="43.6833067" lon="12.3508467"><ele>686.0</ele><time>2026-04-12T14:47:22.013Z</time></trkpt><trkpt lat="43.6834083" lon="12.3507883"><ele>686.0</ele><time>2026-04-12T14:47:23.012Z</time></trkpt><trkpt lat="43.6835167" lon="12.3507667"><ele>686.0</ele><time>2026-04-12T14:47:24.012Z</time></trkpt><trkpt lat="43.6836267" lon="12.35077"><ele>686.0</ele><time>2026-04-12T14:47:25.012Z</time></trkpt><trkpt lat="43.6837317" lon="12.3507583"><ele>686.0</ele><time>2026-04-12T14:47:26.015Z</time></trkpt><trkpt lat="43.6838333" lon="12.350725"><ele>688.4</ele><time>2026-04-12T14:47:27.016Z</time></trkpt><trkpt lat="43.6839333" lon="12.350665"><ele>690.8</ele><time>2026-04-12T14:47:28.012Z</time></trkpt><trkpt lat="43.68402" lon="12.3506"><ele>693.1999999999999</ele><time>2026-04-12T14:47:29.012Z</time></trkpt><trkpt lat="43.684105" lon="12.35052"><ele>695.5999999999999</ele><time>2026-04-12T14:47:30.01Z</time></trkpt><trkpt lat="43.6841883" lon="12.3504317"><ele>698.0</ele><time>2026-04-12T14:47:31.014Z</time></trkpt><trkpt lat="43.6842733" lon="12.3503467"><ele>698.0</ele><time>2026-04-12T14:47:32.012Z</time></trkpt><trkpt lat="43.684365" lon="12.3502867"><ele>698.0</ele><time>2026-04-12T14:47:33.014Z</time></trkpt><trkpt lat="43.684475" lon="12.3502833"><ele>698.0</ele><time>2026-04-12T14:47:34.012Z</time></trkpt><trkpt lat="43.6846017" lon="12.350305"><ele>698.0</ele><time>2026-04-12T14:47:35.015Z</time></trkpt><trkpt lat="43.6847567" lon="12.350365"><ele>693.6666666666666</ele><time>2026-04-12T14:47:36.012Z</time></trkpt><trkpt lat="43.6849111" lon="12.3504156"><ele>689.3333333333334</ele><time>2026-04-12T14:47:37.012Z</time></trkpt><trkpt lat="43.6850576" lon="12.3504797"><ele>685.0</ele><time>2026-04-12T14:47:38.011Z</time></trkpt><trkpt lat="43.6851937" lon="12.3505501"><ele>677.5</ele><time>2026-04-12T14:47:39.012Z</time></trkpt><trkpt lat="43.6853225" lon="12.3505958"><ele>670.0</ele><time>2026-04-12T14:47:40.011Z</time></trkpt><trkpt lat="43.6854386" lon="12.3506295"><ele>662.5</ele><time>2026-04-12T14:47:41.01Z</time></trkpt><trkpt lat="43.6855494" lon="12.3506374"><ele>655.0</ele><time>2026-04-12T14:47:42.013Z</time></trkpt><trkpt lat="43.6856567" lon="12.3506207"><ele>655.0</ele><time>2026-04-12T14:47:43.013Z</time></trkpt><trkpt lat="43.6857535" lon="12.3506071"><ele>655.0</ele><time>2026-04-12T14:47:44.012Z</time></trkpt><trkpt lat="43.6858407" lon="12.3505994"><ele>655.0</ele><time>2026-04-12T14:47:45.012Z</time></trkpt><trkpt lat="43.6859179" lon="12.3505843"><ele>655.0</ele><time>2026-04-12T14:47:46.011Z</time></trkpt><trkpt lat="43.6859888" lon="12.3505665"><ele>655.0</ele><time>2026-04-12T14:47:47.011Z</time></trkpt><trkpt lat="43.686054" lon="12.3505292"><ele>655.0</ele><time>2026-04-12T14:47:48.012Z</time></trkpt><trkpt lat="43.6861132" lon="12.3504752"><ele>653.6</ele><time>2026-04-12T14:47:49.013Z</time></trkpt><trkpt lat="43.6861666" lon="12.3504061"><ele>652.2</ele><time>2026-04-12T14:47:50.012Z</time></trkpt><trkpt lat="43.6862144" lon="12.3503067"><ele>650.8</ele><time>2026-04-12T14:47:51.012Z</time></trkpt><trkpt lat="43.686255" lon="12.3501814"><ele>649.4</ele><time>2026-04-12T14:47:52.014Z</time></trkpt><trkpt lat="43.6863012" lon="12.35003"><ele>648.0</ele><time>2026-04-12T14:47:53.012Z</time></trkpt><trkpt lat="43.6863483" lon="12.3498827"><ele>648.0</ele><time>2026-04-12T14:47:54.012Z</time></trkpt><trkpt lat="43.6864001" lon="12.3497528"><ele>648.0</ele><time>2026-04-12T14:47:55.014Z</time></trkpt><trkpt lat="43.6864592" lon="12.3496457"><ele>648.0</ele><time>2026-04-12T14:47:56.012Z</time></trkpt><trkpt lat="43.6865242" lon="12.3495609"><ele>648.0</ele><time>2026-04-12T14:47:57.013Z</time></trkpt><trkpt lat="43.686603" lon="12.3495009"><ele>648.0</ele><time>2026-04-12T14:47:58.013Z</time></trkpt><trkpt lat="43.6866851" lon="12.3494449"><ele>646.1999999999999</ele><time>2026-04-12T14:47:59.012Z</time></trkpt><trkpt lat="43.686762" lon="12.3493904"><ele>644.4</ele><time>2026-04-12T14:48:00.013Z</time></trkpt><trkpt lat="43.6868306" lon="12.3493258"><ele>642.5999999999999</ele><time>2026-04-12T14:48:01.013Z</time></trkpt><trkpt lat="43.6868997" lon="12.3492444"><ele>640.8</ele><time>2026-04-12T14:48:02.013Z</time></trkpt><trkpt lat="43.6869691" lon="12.3491226"><ele>639.0</ele><time>2026-04-12T14:48:03.017Z</time></trkpt><trkpt lat="43.687041" lon="12.3489935"><ele>639.0</ele><time>2026-04-12T14:48:04.012Z</time></trkpt><trkpt lat="43.6871142" lon="12.3488784"><ele>639.0</ele><time>2026-04-12T14:48:05.011Z</time></trkpt><trkpt lat="43.6871809" lon="12.3487785"><ele>639.0</ele><time>2026-04-12T14:48:06.012Z</time></trkpt><trkpt lat="43.6872289" lon="12.3486743"><ele>639.0</ele><time>2026-04-12T14:48:07.015Z</time></trkpt><trkpt lat="43.6872687" lon="12.3485607"><ele>639.0</ele><time>2026-04-12T14:48:08.012Z</time></trkpt><trkpt lat="43.6872988" lon="12.3484281"><ele>639.8</ele><time>2026-04-12T14:48:09.018Z</time></trkpt><trkpt lat="43.6873197" lon="12.3482901"><ele>640.5999999999999</ele><time>2026-04-12T14:48:10.012Z</time></trkpt><trkpt lat="43.6873409" lon="12.3481448"><ele>641.4</ele><time>2026-04-12T14:48:11.011Z</time></trkpt><trkpt lat="43.6873759" lon="12.3480006"><ele>642.1999999999999</ele><time>2026-04-12T14:48:12.012Z</time></trkpt><trkpt lat="43.6874281" lon="12.3478687"><ele>643.0</ele><time>2026-04-12T14:48:13.012Z</time></trkpt><trkpt lat="43.6874928" lon="12.3477584"><ele>641.4</ele><time>2026-04-12T14:48:14.014Z</time></trkpt><trkpt lat="43.6875649" lon="12.3476709"><ele>639.8</ele><time>2026-04-12T14:48:15.012Z</time></trkpt><trkpt lat="43.6876536" lon="12.3476023"><ele>638.2</ele><time>2026-04-12T14:48:16.011Z</time></trkpt><trkpt lat="43.6877637" lon="12.3475462"><ele>636.6</ele><time>2026-04-12T14:48:17.012Z</time></trkpt><trkpt lat="43.6878834" lon="12.3474966"><ele>635.0</ele><time>2026-04-12T14:48:18.011Z</time></trkpt><trkpt lat="43.6880031" lon="12.3474482"><ele>635.0</ele><time>2026-04-12T14:48:19.013Z</time></trkpt><trkpt lat="43.6881111" lon="12.3473872"><ele>635.0</ele><time>2026-04-12T14:48:20.013Z</time></trkpt><trkpt lat="43.688221" lon="12.3473099"><ele>635.0</ele><time>2026-04-12T14:48:21.013Z</time></trkpt><trkpt lat="43.6883395" lon="12.3472162"><ele>635.0</ele><time>2026-04-12T14:48:22.016Z</time></trkpt><trkpt lat="43.6884662" lon="12.3471209"><ele>636.5</ele><time>2026-04-12T14:48:23.012Z</time></trkpt><trkpt lat="43.6885939" lon="12.3470266"><ele>638.0</ele><time>2026-04-12T14:48:24.012Z</time></trkpt><trkpt lat="43.68872" lon="12.3469432"><ele>639.5</ele><time>2026-04-12T14:48:25.012Z</time></trkpt><trkpt lat="43.6888427" lon="12.3468565"><ele>641.0</ele><time>2026-04-12T14:48:26.012Z</time></trkpt><trkpt lat="43.6889549" lon="12.3467721"><ele>641.0</ele><time>2026-04-12T14:48:27.012Z</time></trkpt><trkpt lat="43.6890597" lon="12.3466892"><ele>641.0</ele><time>2026-04-12T14:48:28.014Z</time></trkpt><trkpt lat="43.6891627" lon="12.3466215"><ele>641.0</ele><time>2026-04-12T14:48:29.016Z</time></trkpt><trkpt lat="43.6892669" lon="12.346574"><ele>641.0</ele><time>2026-04-12T14:48:30.013Z</time></trkpt><trkpt lat="43.6893706" lon="12.3465496"><ele>639.8</ele><time>2026-04-12T14:48:31.011Z</time></trkpt><trkpt lat="43.6894751" lon="12.3465428"><ele>638.5999999999999</ele><time>2026-04-12T14:48:32.011Z</time></trkpt><trkpt lat="43.6895789" lon="12.3465495"><ele>637.4</ele><time>2026-04-12T14:48:33.013Z</time></trkpt><trkpt lat="43.6896834" lon="12.3465421"><ele>636.2</ele><time>2026-04-12T14:48:34.013Z</time></trkpt><trkpt lat="43.6897869" lon="12.3465141"><ele>635.0</ele><time>2026-04-12T14:48:35.013Z</time></trkpt><trkpt lat="43.6898899" lon="12.3464602"><ele>635.0</ele><time>2026-04-12T14:48:36.012Z</time></trkpt><trkpt lat="43.6899834" lon="12.3463862"><ele>635.0</ele><time>2026-04-12T14:48:37.012Z</time></trkpt><trkpt lat="43.6900678" lon="12.3462902"><ele>635.0</ele><time>2026-04-12T14:48:38.012Z</time></trkpt><trkpt lat="43.6901475" lon="12.3461654"><ele>635.0</ele><time>2026-04-12T14:48:39.013Z</time></trkpt><trkpt lat="43.6902222" lon="12.3460187"><ele>633.25</ele><time>2026-04-12T14:48:40.015Z</time></trkpt><trkpt lat="43.6902919" lon="12.3458727"><ele>631.5</ele><time>2026-04-12T14:48:41.012Z</time></trkpt><trkpt lat="43.690364" lon="12.3457288"><ele>629.75</ele><time>2026-04-12T14:48:42.012Z</time></trkpt><trkpt lat="43.6904422" lon="12.3455842"><ele>628.0</ele><time>2026-04-12T14:48:43.012Z</time></trkpt><trkpt lat="43.6905233" lon="12.3454533"><ele>628.0</ele><time>2026-04-12T14:48:44.013Z</time></trkpt><trkpt lat="43.690595" lon="12.34533"><ele>628.0</ele><time>2026-04-12T14:48:45.016Z</time></trkpt><trkpt lat="43.6906583" lon="12.3452033"><ele>628.0</ele><time>2026-04-12T14:48:46.014Z</time></trkpt><trkpt lat="43.690705" lon="12.3450683"><ele>628.0</ele><time>2026-04-12T14:48:47.012Z</time></trkpt><trkpt lat="43.6907383" lon="12.3449383"><ele>628.0</ele><time>2026-04-12T14:48:48.012Z</time></trkpt><trkpt lat="43.6907567" lon="12.3448117"><ele>627.6</ele><time>2026-04-12T14:48:49.012Z</time></trkpt><trkpt lat="43.690755" lon="12.3446717"><ele>627.1999999999999</ele><time>2026-04-12T14:48:50.013Z</time></trkpt><trkpt lat="43.6907383" lon="12.3445217"><ele>626.8</ele><time>2026-04-12T14:48:51.011Z</time></trkpt><trkpt lat="43.69072" lon="12.3443717"><ele>626.4</ele><time>2026-04-12T14:48:52.014Z</time></trkpt><trkpt lat="43.6907017" lon="12.3442217"><ele>626.0</ele><time>2026-04-12T14:48:53.012Z</time></trkpt><trkpt lat="43.69068" lon="12.3440767"><ele>626.0</ele><time>2026-04-12T14:48:54.016Z</time></trkpt><trkpt lat="43.6906533" lon="12.343925"><ele>626.0</ele><time>2026-04-12T14:48:55.012Z</time></trkpt><trkpt lat="43.690625" lon="12.343785"><ele>626.0</ele><time>2026-04-12T14:48:56.012Z</time></trkpt><trkpt lat="43.690585" lon="12.3436583"><ele>626.0</ele><time>2026-04-12T14:48:57.015Z</time></trkpt><trkpt lat="43.6905317" lon="12.3435417"><ele>626.0</ele><time>2026-04-12T14:48:58.011Z</time></trkpt><trkpt lat="43.6904633" lon="12.343415"><ele>626.25</ele><time>2026-04-12T14:48:59.011Z</time></trkpt><trkpt lat="43.6903833" lon="12.3432883"><ele>626.5</ele><time>2026-04-12T14:49:00.014Z</time></trkpt><trkpt lat="43.6902983" lon="12.3431667"><ele>626.75</ele><time>2026-04-12T14:49:01.012Z</time></trkpt><trkpt lat="43.690215" lon="12.3430483"><ele>627.0</ele><time>2026-04-12T14:49:02.015Z</time></trkpt><trkpt lat="43.6901367" lon="12.34293"><ele>624.0</ele><time>2026-04-12T14:49:03.011Z</time></trkpt><trkpt lat="43.69007" lon="12.3428083"><ele>621.0</ele><time>2026-04-12T14:49:04.013Z</time></trkpt><trkpt lat="43.6900133" lon="12.3426867"><ele>618.0</ele><time>2026-04-12T14:49:05.013Z</time></trkpt><trkpt lat="43.6899667" lon="12.34256"><ele>615.0</ele><time>2026-04-12T14:49:06.011Z</time></trkpt><trkpt lat="43.68993" lon="12.3424367"><ele>612.0</ele><time>2026-04-12T14:49:07.012Z</time></trkpt><trkpt lat="43.689895" lon="12.34232"><ele>610.1666666666666</ele><time>2026-04-12T14:49:08.016Z</time></trkpt><trkpt lat="43.689865" lon="12.3422117"><ele>608.3333333333334</ele><time>2026-04-12T14:49:09.012Z</time></trkpt><trkpt lat="43.6898383" lon="12.3421083"><ele>606.5</ele><time>2026-04-12T14:49:10.013Z</time></trkpt><trkpt lat="43.6898217" lon="12.3420017"><ele>604.6666666666667</ele><time>2026-04-12T14:49:11.012Z</time></trkpt><trkpt lat="43.6898133" lon="12.3418983"><ele>602.8333333333334</ele><time>2026-04-12T14:49:12.011Z</time></trkpt><trkpt lat="43.6898117" lon="12.3417983"><ele>601.0</ele><time>2026-04-12T14:49:13.011Z</time></trkpt><trkpt lat="43.6898133" lon="12.3417033"><ele>601.0</ele><time>2026-04-12T14:49:14.013Z</time></trkpt><trkpt lat="43.6898183" lon="12.341615"><ele>601.0</ele><time>2026-04-12T14:49:15.013Z</time></trkpt><trkpt lat="43.689835" lon="12.3414967"><ele>601.0</ele><time>2026-04-12T14:49:17.012Z</time></trkpt><trkpt lat="43.6898967" lon="12.3413983"><ele>601.0</ele><time>2026-04-12T14:49:35.012Z</time></trkpt><trkpt lat="43.6899767" lon="12.3414267"><ele>601.0</ele><time>2026-04-12T14:49:37.012Z</time></trkpt><trkpt lat="43.690025" lon="12.3415433"><ele>601.0</ele><time>2026-04-12T14:49:38.013Z</time></trkpt><trkpt lat="43.6900467" lon="12.341695"><ele>601.0</ele><time>2026-04-12T14:49:39.013Z</time></trkpt><trkpt lat="43.6901" lon="12.3417867"><ele>601.0</ele><time>2026-04-12T14:49:40.013Z</time></trkpt><trkpt lat="43.6901667" lon="12.3418717"><ele>601.0</ele><time>2026-04-12T14:49:41.012Z</time></trkpt><trkpt lat="43.6902233" lon="12.34197"><ele>601.0</ele><time>2026-04-12T14:49:42.012Z</time></trkpt><trkpt lat="43.6902849" lon="12.3420029"><ele>601.0</ele><time>2026-04-12T14:49:43.016Z</time></trkpt><trkpt lat="43.690405" lon="12.3420609"><ele>600.6</ele><time>2026-04-12T14:49:44.013Z</time></trkpt><trkpt lat="43.6905144" lon="12.3420984"><ele>600.2</ele><time>2026-04-12T14:49:45.013Z</time></trkpt><trkpt lat="43.6906169" lon="12.3421214"><ele>599.8</ele><time>2026-04-12T14:49:46.012Z</time></trkpt><trkpt lat="43.6907164" lon="12.3421646"><ele>599.4</ele><time>2026-04-12T14:49:47.013Z</time></trkpt><trkpt lat="43.690818" lon="12.3422425"><ele>599.0</ele><time>2026-04-12T14:49:48.011Z</time></trkpt><trkpt lat="43.6909249" lon="12.3423427"><ele>599.0</ele><time>2026-04-12T14:49:49.012Z</time></trkpt><trkpt lat="43.6910291" lon="12.3424167"><ele>599.0</ele><time>2026-04-12T14:49:50.014Z</time></trkpt><trkpt lat="43.6911203" lon="12.3425065"><ele>599.0</ele><time>2026-04-12T14:49:51.012Z</time></trkpt><trkpt lat="43.6911935" lon="12.3426012"><ele>599.0</ele><time>2026-04-12T14:49:52.011Z</time></trkpt><trkpt lat="43.6912429" lon="12.342696"><ele>599.0</ele><time>2026-04-12T14:49:53.011Z</time></trkpt><trkpt lat="43.6912911" lon="12.3427604"><ele>593.6</ele><time>2026-04-12T14:49:54.012Z</time></trkpt><trkpt lat="43.6913835" lon="12.3427908"><ele>588.2</ele><time>2026-04-12T14:49:56.015Z</time></trkpt><trkpt lat="43.6914368" lon="12.3427025"><ele>582.8000000000001</ele><time>2026-04-12T14:49:58.013Z</time></trkpt><trkpt lat="43.6914018" lon="12.3425961"><ele>577.4</ele><time>2026-04-12T14:49:59.011Z</time></trkpt><trkpt lat="43.6913376" lon="12.342473"><ele>572.0</ele><time>2026-04-12T14:50:00.012Z</time></trkpt><trkpt lat="43.6912786" lon="12.3423625"><ele>572.0</ele><time>2026-04-12T14:50:01.013Z</time></trkpt><trkpt lat="43.6912316" lon="12.3422705"><ele>572.0</ele><time>2026-04-12T14:50:02.013Z</time></trkpt><trkpt lat="43.691187" lon="12.3421955"><ele>572.0</ele><time>2026-04-12T14:50:03.013Z</time></trkpt><trkpt lat="43.6911275" lon="12.3420655"><ele>572.0</ele><time>2026-04-12T14:50:05.011Z</time></trkpt><trkpt lat="43.6911398" lon="12.3419654"><ele>572.0</ele><time>2026-04-12T14:50:07.017Z</time></trkpt><trkpt lat="43.6912461" lon="12.3420071"><ele>572.0</ele><time>2026-04-12T14:50:09.013Z</time></trkpt><trkpt lat="43.6913061" lon="12.3420528"><ele>572.0</ele><time>2026-04-12T14:50:10.013Z</time></trkpt><trkpt lat="43.6913702" lon="12.3420787"><ele>572.0</ele><time>2026-04-12T14:50:11.013Z</time></trkpt><trkpt lat="43.6914831" lon="12.342197"><ele>572.0</ele><time>2026-04-12T14:50:12.015Z</time></trkpt><trkpt lat="43.6915888" lon="12.3423432"><ele>572.0</ele><time>2026-04-12T14:50:13.014Z</time></trkpt><trkpt lat="43.6916896" lon="12.3424527"><ele>572.0</ele><time>2026-04-12T14:50:14.013Z</time></trkpt><trkpt lat="43.6917801" lon="12.3425405"><ele>572.0</ele><time>2026-04-12T14:50:15.015Z</time></trkpt><trkpt lat="43.6918579" lon="12.3426092"><ele>572.0</ele><time>2026-04-12T14:50:16.013Z</time></trkpt><trkpt lat="43.6919155" lon="12.3426923"><ele>572.0</ele><time>2026-04-12T14:50:17.011Z</time></trkpt><trkpt lat="43.691975" lon="12.3427826"><ele>572.0</ele><time>2026-04-12T14:50:18.013Z</time></trkpt><trkpt lat="43.6920438" lon="12.3428789"><ele>567.5</ele><time>2026-04-12T14:50:19.01Z</time></trkpt><trkpt lat="43.6921185" lon="12.3430041"><ele>563.0</ele><time>2026-04-12T14:50:20.012Z</time></trkpt><trkpt lat="43.6922073" lon="12.3431193"><ele>558.5</ele><time>2026-04-12T14:50:21.014Z</time></trkpt><trkpt lat="43.6922936" lon="12.3432374"><ele>554.0</ele><time>2026-04-12T14:50:22.012Z</time></trkpt><trkpt lat="43.692374" lon="12.3433582"><ele>554.0</ele><time>2026-04-12T14:50:23.012Z</time></trkpt><trkpt lat="43.6924518" lon="12.3434769"><ele>554.0</ele><time>2026-04-12T14:50:24.012Z</time></trkpt><trkpt lat="43.6925251" lon="12.3436105"><ele>554.0</ele><time>2026-04-12T14:50:25.012Z</time></trkpt><trkpt lat="43.6926058" lon="12.3437524"><ele>554.0</ele><time>2026-04-12T14:50:26.012Z</time></trkpt><trkpt lat="43.6927004" lon="12.3438792"><ele>551.2</ele><time>2026-04-12T14:50:27.018Z</time></trkpt><trkpt lat="43.6927806" lon="12.3440124"><ele>548.4</ele><time>2026-04-12T14:50:28.014Z</time></trkpt><trkpt lat="43.6928599" lon="12.3441169"><ele>545.6</ele><time>2026-04-12T14:50:29.012Z</time></trkpt><trkpt lat="43.6929221" lon="12.3442217"><ele>542.8</ele><time>2026-04-12T14:50:30.012Z</time></trkpt><trkpt lat="43.6929894" lon="12.3443058"><ele>540.0</ele><time>2026-04-12T14:50:31.014Z</time></trkpt><trkpt lat="43.6930614" lon="12.3443689"><ele>540.0</ele><time>2026-04-12T14:50:32.011Z</time></trkpt><trkpt lat="43.6931339" lon="12.3444273"><ele>540.0</ele><time>2026-04-12T14:50:33.012Z</time></trkpt><trkpt lat="43.6931973" lon="12.3444983"><ele>540.0</ele><time>2026-04-12T14:50:34.012Z</time></trkpt><trkpt lat="43.6932561" lon="12.3445719"><ele>540.0</ele><time>2026-04-12T14:50:35.014Z</time></trkpt><trkpt lat="43.6932953" lon="12.3446506"><ele>540.0</ele><time>2026-04-12T14:50:36.011Z</time></trkpt><trkpt lat="43.6933017" lon="12.3447423"><ele>540.0</ele><time>2026-04-12T14:50:37.015Z</time></trkpt><trkpt lat="43.6933109" lon="12.3448427"><ele>539.8333333333334</ele><time>2026-04-12T14:50:38.011Z</time></trkpt><trkpt lat="43.6933505" lon="12.3449174"><ele>539.6666666666666</ele><time>2026-04-12T14:50:39.015Z</time></trkpt><trkpt lat="43.6934157" lon="12.3449674"><ele>539.5</ele><time>2026-04-12T14:50:40.013Z</time></trkpt><trkpt lat="43.693503" lon="12.3450018"><ele>539.3333333333333</ele><time>2026-04-12T14:50:41.01Z</time></trkpt><trkpt lat="43.6936075" lon="12.3449864"><ele>539.1666666666666</ele><time>2026-04-12T14:50:42.013Z</time></trkpt><trkpt lat="43.6937048" lon="12.3449534"><ele>539.0</ele><time>2026-04-12T14:50:43.011Z</time></trkpt><trkpt lat="43.6937927" lon="12.3449255"><ele>539.0</ele><time>2026-04-12T14:50:44.014Z</time></trkpt><trkpt lat="43.6938748" lon="12.3449251"><ele>539.0</ele><time>2026-04-12T14:50:45.012Z</time></trkpt><trkpt lat="43.6939519" lon="12.3449459"><ele>539.0</ele><time>2026-04-12T14:50:46.011Z</time></trkpt><trkpt lat="43.6940203" lon="12.3450027"><ele>539.0</ele><time>2026-04-12T14:50:47.012Z</time></trkpt><trkpt lat="43.6940801" lon="12.3450781"><ele>539.0</ele><time>2026-04-12T14:50:48.015Z</time></trkpt><trkpt lat="43.6941194" lon="12.3451913"><ele>539.0</ele><time>2026-04-12T14:50:49.012Z</time></trkpt><trkpt lat="43.6941354" lon="12.3453236"><ele>539.0</ele><time>2026-04-12T14:50:50.011Z</time></trkpt><trkpt lat="43.6941485" lon="12.3454389"><ele>539.0</ele><time>2026-04-12T14:50:51.012Z</time></trkpt><trkpt lat="43.6941801" lon="12.3455317"><ele>539.0</ele><time>2026-04-12T14:50:52.012Z</time></trkpt><trkpt lat="43.6942302" lon="12.3455968"><ele>539.0</ele><time>2026-04-12T14:50:53.013Z</time></trkpt><trkpt lat="43.694286" lon="12.3456427"><ele>539.0</ele><time>2026-04-12T14:50:54.012Z</time></trkpt><trkpt lat="43.6943625" lon="12.3456581"><ele>539.0</ele><time>2026-04-12T14:50:55.011Z</time></trkpt><trkpt lat="43.6944481" lon="12.345655"><ele>536.6666666666666</ele><time>2026-04-12T14:50:56.011Z</time></trkpt><trkpt lat="43.6945316" lon="12.3456537"><ele>534.3333333333333</ele><time>2026-04-12T14:50:57.013Z</time></trkpt><trkpt lat="43.6946138" lon="12.3456599"><ele>532.0</ele><time>2026-04-12T14:50:58.014Z</time></trkpt><trkpt lat="43.6946864" lon="12.345676"><ele>529.6666666666666</ele><time>2026-04-12T14:50:59.012Z</time></trkpt><trkpt lat="43.6947485" lon="12.3457172"><ele>527.3333333333334</ele><time>2026-04-12T14:51:00.011Z</time></trkpt><trkpt lat="43.6948009" lon="12.3457892"><ele>525.0</ele><time>2026-04-12T14:51:01.011Z</time></trkpt><trkpt lat="43.6948442" lon="12.3458704"><ele>525.0</ele><time>2026-04-12T14:51:02.012Z</time></trkpt><trkpt lat="43.6948711" lon="12.3459643"><ele>525.0</ele><time>2026-04-12T14:51:03.011Z</time></trkpt><trkpt lat="43.6949654" lon="12.3460751"><ele>525.0</ele><time>2026-04-12T14:51:05.018Z</time></trkpt><trkpt lat="43.6950261" lon="12.3461007"><ele>525.0</ele><time>2026-04-12T14:51:06.014Z</time></trkpt><trkpt lat="43.6950945" lon="12.3461034"><ele>525.0</ele><time>2026-04-12T14:51:07.013Z</time></trkpt><trkpt lat="43.6951788" lon="12.3460933"><ele>525.0</ele><time>2026-04-12T14:51:08.011Z</time></trkpt><trkpt lat="43.6952965" lon="12.3460532"><ele>525.0</ele><time>2026-04-12T14:51:09.012Z</time></trkpt><trkpt lat="43.6954185" lon="12.3459989"><ele>525.0</ele><time>2026-04-12T14:51:10.015Z</time></trkpt><trkpt lat="43.6955358" lon="12.345947"><ele>525.0</ele><time>2026-04-12T14:51:11.01Z</time></trkpt><trkpt lat="43.6956461" lon="12.3459005"><ele>525.0</ele><time>2026-04-12T14:51:12.012Z</time></trkpt><trkpt lat="43.6957424" lon="12.3458444"><ele>525.0</ele><time>2026-04-12T14:51:13.014Z</time></trkpt><trkpt lat="43.695813" lon="12.3457689"><ele>525.0</ele><time>2026-04-12T14:51:14.012Z</time></trkpt><trkpt lat="43.695871" lon="12.3456667"><ele>525.0</ele><time>2026-04-12T14:51:15.013Z</time></trkpt><trkpt lat="43.6959171" lon="12.3455209"><ele>525.0</ele><time>2026-04-12T14:51:16.014Z</time></trkpt><trkpt lat="43.6959763" lon="12.3453668"><ele>525.0</ele><time>2026-04-12T14:51:17.011Z</time></trkpt><trkpt lat="43.696053" lon="12.3452116"><ele>523.5</ele><time>2026-04-12T14:51:18.012Z</time></trkpt><trkpt lat="43.6961406" lon="12.3450627"><ele>522.0</ele><time>2026-04-12T14:51:19.012Z</time></trkpt><trkpt lat="43.6962298" lon="12.3449128"><ele>520.5</ele><time>2026-04-12T14:51:20.013Z</time></trkpt><trkpt lat="43.6963199" lon="12.3447615"><ele>519.0</ele><time>2026-04-12T14:51:21.013Z</time></trkpt><trkpt lat="43.6964074" lon="12.3446213"><ele>519.0</ele><time>2026-04-12T14:51:22.012Z</time></trkpt><trkpt lat="43.6964854" lon="12.3444891"><ele>519.0</ele><time>2026-04-12T14:51:23.013Z</time></trkpt><trkpt lat="43.6965469" lon="12.3443586"><ele>519.0</ele><time>2026-04-12T14:51:24.012Z</time></trkpt><trkpt lat="43.6965954" lon="12.344226"><ele>519.0</ele><time>2026-04-12T14:51:25.014Z</time></trkpt><trkpt lat="43.6966253" lon="12.3440768"><ele>519.0</ele><time>2026-04-12T14:51:26.012Z</time></trkpt><trkpt lat="43.6966341" lon="12.3439098"><ele>519.0</ele><time>2026-04-12T14:51:27.013Z</time></trkpt><trkpt lat="43.6966231" lon="12.3437393"><ele>519.0</ele><time>2026-04-12T14:51:28.013Z</time></trkpt><trkpt lat="43.6966033" lon="12.3435804"><ele>519.0</ele><time>2026-04-12T14:51:29.012Z</time></trkpt><trkpt lat="43.6965903" lon="12.3434356"><ele>517.4</ele><time>2026-04-12T14:51:30.013Z</time></trkpt><trkpt lat="43.6965957" lon="12.3432998"><ele>515.8</ele><time>2026-04-12T14:51:31.012Z</time></trkpt><trkpt lat="43.696625" lon="12.3431642"><ele>514.2</ele><time>2026-04-12T14:51:32.012Z</time></trkpt><trkpt lat="43.6966708" lon="12.3430249"><ele>512.6</ele><time>2026-04-12T14:51:33.014Z</time></trkpt><trkpt lat="43.6967248" lon="12.3428818"><ele>511.0</ele><time>2026-04-12T14:51:34.011Z</time></trkpt><trkpt lat="43.6967654" lon="12.3427353"><ele>510.0</ele><time>2026-04-12T14:51:35.012Z</time></trkpt><trkpt lat="43.6967852" lon="12.3425898"><ele>509.0</ele><time>2026-04-12T14:51:36.011Z</time></trkpt><trkpt lat="43.696783" lon="12.3424478"><ele>508.0</ele><time>2026-04-12T14:51:37.013Z</time></trkpt><trkpt lat="43.6967788" lon="12.3423123"><ele>507.0</ele><time>2026-04-12T14:51:38.013Z</time></trkpt><trkpt lat="43.6967883" lon="12.342191"><ele>506.0</ele><time>2026-04-12T14:51:39.012Z</time></trkpt><trkpt lat="43.6968074" lon="12.3420874"><ele>505.0</ele><time>2026-04-12T14:51:40.013Z</time></trkpt><trkpt lat="43.6968525" lon="12.3420057"><ele>504.0</ele><time>2026-04-12T14:51:41.012Z</time></trkpt><trkpt lat="43.6969137" lon="12.3419523"><ele>503.0</ele><time>2026-04-12T14:51:42.012Z</time></trkpt><trkpt lat="43.696988" lon="12.3419307"><ele>502.0</ele><time>2026-04-12T14:51:43.012Z</time></trkpt><trkpt lat="43.6972246" lon="12.3421096"><ele>501.75</ele><time>2026-04-12T14:51:45.158Z</time></trkpt><trkpt lat="43.6973562" lon="12.3420285"><ele>501.5</ele><time>2026-04-12T14:51:46.327Z</time></trkpt><trkpt lat="43.6975126" lon="12.3420334"><ele>501.25</ele><time>2026-04-12T14:51:48.012Z</time></trkpt><trkpt lat="43.6975792" lon="12.342094"><ele>501.0</ele><time>2026-04-12T14:51:49.013Z</time></trkpt><trkpt lat="43.6976361" lon="12.3421695"><ele>501.8333333333333</ele><time>2026-04-12T14:51:50.015Z</time></trkpt><trkpt lat="43.697664" lon="12.3422704"><ele>502.66666666666663</ele><time>2026-04-12T14:51:51.012Z</time></trkpt><trkpt lat="43.6976781" lon="12.3423817"><ele>503.5</ele><time>2026-04-12T14:51:52.012Z</time></trkpt><trkpt lat="43.6976585" lon="12.3425055"><ele>504.3333333333333</ele><time>2026-04-12T14:51:53.012Z</time></trkpt><trkpt lat="43.697638" lon="12.3426287"><ele>505.16666666666663</ele><time>2026-04-12T14:51:54.013Z</time></trkpt><trkpt lat="43.6976228" lon="12.3427522"><ele>506.0</ele><time>2026-04-12T14:51:55.011Z</time></trkpt><trkpt lat="43.6976426" lon="12.3428764"><ele>506.0</ele><time>2026-04-12T14:51:56.012Z</time></trkpt><trkpt lat="43.6976808" lon="12.3429975"><ele>506.0</ele><time>2026-04-12T14:51:57.013Z</time></trkpt><trkpt lat="43.6977667" lon="12.3431117"><ele>506.0</ele><time>2026-04-12T14:51:58.013Z</time></trkpt><trkpt lat="43.6978533" lon="12.3432067"><ele>506.0</ele><time>2026-04-12T14:51:59.012Z</time></trkpt><trkpt lat="43.6979217" lon="12.343285"><ele>506.0</ele><time>2026-04-12T14:52:00.011Z</time></trkpt><trkpt lat="43.6979767" lon="12.34335"><ele>503.20000000000005</ele><time>2026-04-12T14:52:01.011Z</time></trkpt><trkpt lat="43.6980367" lon="12.3433833"><ele>500.40000000000003</ele><time>2026-04-12T14:52:02.012Z</time></trkpt><trkpt lat="43.6981483" lon="12.3433417"><ele>497.6</ele><time>2026-04-12T14:52:04.012Z</time></trkpt><trkpt lat="43.6982133" lon="12.3432217"><ele>494.8</ele><time>2026-04-12T14:52:06.013Z</time></trkpt><trkpt lat="43.6982067" lon="12.3430583"><ele>492.0</ele><time>2026-04-12T14:52:08.013Z</time></trkpt><trkpt lat="43.6981667" lon="12.342965"><ele>491.0</ele><time>2026-04-12T14:52:09.014Z</time></trkpt><trkpt lat="43.6981467" lon="12.3428667"><ele>490.0</ele><time>2026-04-12T14:52:10.013Z</time></trkpt><trkpt lat="43.6981533" lon="12.3427617"><ele>489.0</ele><time>2026-04-12T14:52:11.013Z</time></trkpt><trkpt lat="43.6981717" lon="12.3426433"><ele>488.0</ele><time>2026-04-12T14:52:12.012Z</time></trkpt><trkpt lat="43.6982" lon="12.34251"><ele>487.0</ele><time>2026-04-12T14:52:13.013Z</time></trkpt><trkpt lat="43.698255" lon="12.3423867"><ele>486.0</ele><time>2026-04-12T14:52:14.013Z</time></trkpt><trkpt lat="43.6983167" lon="12.3422733"><ele>485.20000000000005</ele><time>2026-04-12T14:52:15.013Z</time></trkpt><trkpt lat="43.6983967" lon="12.3421683"><ele>484.40000000000003</ele><time>2026-04-12T14:52:16.012Z</time></trkpt><trkpt lat="43.698475" lon="12.3420717"><ele>483.6</ele><time>2026-04-12T14:52:17.012Z</time></trkpt><trkpt lat="43.6985583" lon="12.3419767"><ele>482.8</ele><time>2026-04-12T14:52:18.014Z</time></trkpt><trkpt lat="43.698645" lon="12.3418783"><ele>482.0</ele><time>2026-04-12T14:52:19.013Z</time></trkpt><trkpt lat="43.6987333" lon="12.341785"><ele>480.20000000000005</ele><time>2026-04-12T14:52:20.015Z</time></trkpt><trkpt lat="43.69882" lon="12.3416917"><ele>478.40000000000003</ele><time>2026-04-12T14:52:21.012Z</time></trkpt><trkpt lat="43.6989083" lon="12.3416117"><ele>476.59999999999997</ele><time>2026-04-12T14:52:22.013Z</time></trkpt><trkpt lat="43.698995" lon="12.341535"><ele>474.79999999999995</ele><time>2026-04-12T14:52:23.011Z</time></trkpt><trkpt lat="43.6990767" lon="12.3414717"><ele>473.0</ele><time>2026-04-12T14:52:24.013Z</time></trkpt><trkpt lat="43.69915" lon="12.3414083"><ele>471.66666666666663</ele><time>2026-04-12T14:52:25.014Z</time></trkpt><trkpt lat="43.6992167" lon="12.3413683"><ele>470.3333333333333</ele><time>2026-04-12T14:52:26.012Z</time></trkpt><trkpt lat="43.6993183" lon="12.341305"><ele>469.0</ele><time>2026-04-12T14:52:28.012Z</time></trkpt><trkpt lat="43.6993917" lon="12.341235"><ele>467.66666666666663</ele><time>2026-04-12T14:52:30.013Z</time></trkpt><trkpt lat="43.6994617" lon="12.3412467"><ele>466.3333333333333</ele><time>2026-04-12T14:52:32.015Z</time></trkpt><trkpt lat="43.6994911" lon="12.3413444"><ele>465.0</ele><time>2026-04-12T14:52:34.011Z</time></trkpt><trkpt lat="43.6994969" lon="12.3415149"><ele>464.75</ele><time>2026-04-12T14:52:36.012Z</time></trkpt><trkpt lat="43.6994772" lon="12.3416557"><ele>464.5</ele><time>2026-04-12T14:52:37.014Z</time></trkpt><trkpt lat="43.6994167" lon="12.3418549"><ele>464.25</ele><time>2026-04-12T14:52:38.013Z</time></trkpt><trkpt lat="43.6993335" lon="12.3420511"><ele>464.0</ele><time>2026-04-12T14:52:39.013Z</time></trkpt><trkpt lat="43.6992454" lon="12.3422279"><ele>464.75</ele><time>2026-04-12T14:52:40.012Z</time></trkpt><trkpt lat="43.6991668" lon="12.3423767"><ele>465.5</ele><time>2026-04-12T14:52:41.012Z</time></trkpt><trkpt lat="43.6991017" lon="12.3425148"><ele>466.25</ele><time>2026-04-12T14:52:42.011Z</time></trkpt><trkpt lat="43.6990455" lon="12.3426389"><ele>467.0</ele><time>2026-04-12T14:52:43.014Z</time></trkpt><trkpt lat="43.6990078" lon="12.342765"><ele>466.99999999999994</ele><time>2026-04-12T14:52:44.011Z</time></trkpt><trkpt lat="43.698995" lon="12.3428934"><ele>467.0</ele><time>2026-04-12T14:52:45.016Z</time></trkpt><trkpt lat="43.6990199" lon="12.3430238"><ele>467.0</ele><time>2026-04-12T14:52:46.012Z</time></trkpt><trkpt lat="43.6990559" lon="12.3431406"><ele>467.0</ele><time>2026-04-12T14:52:47.013Z</time></trkpt><trkpt lat="43.6991175" lon="12.3432185"><ele>466.99999999999994</ele><time>2026-04-12T14:52:48.013Z</time></trkpt><trkpt lat="43.6991874" lon="12.3432786"><ele>467.0</ele><time>2026-04-12T14:52:49.013Z</time></trkpt><trkpt lat="43.699254" lon="12.3433358"><ele>466.75</ele><time>2026-04-12T14:52:50.015Z</time></trkpt><trkpt lat="43.6993487" lon="12.3433476"><ele>466.5</ele><time>2026-04-12T14:52:51.015Z</time></trkpt><trkpt lat="43.6994653" lon="12.3433216"><ele>466.25</ele><time>2026-04-12T14:52:52.013Z</time></trkpt><trkpt lat="43.6995939" lon="12.3433061"><ele>466.0</ele><time>2026-04-12T14:52:53.013Z</time></trkpt><trkpt lat="43.6997357" lon="12.3433299"><ele>466.0</ele><time>2026-04-12T14:52:54.013Z</time></trkpt><trkpt lat="43.6998698" lon="12.3433821"><ele>466.0</ele><time>2026-04-12T14:52:55.015Z</time></trkpt><trkpt lat="43.6999973" lon="12.343451"><ele>466.0</ele><time>2026-04-12T14:52:56.013Z</time></trkpt><trkpt lat="43.7001093" lon="12.3435283"><ele>466.0</ele><time>2026-04-12T14:52:57.014Z</time></trkpt><trkpt lat="43.7002045" lon="12.34363"><ele>466.75</ele><time>2026-04-12T14:52:58.012Z</time></trkpt><trkpt lat="43.700283" lon="12.3437577"><ele>467.5</ele><time>2026-04-12T14:52:59.014Z</time></trkpt><trkpt lat="43.7003572" lon="12.3438998"><ele>468.25</ele><time>2026-04-12T14:53:00.012Z</time></trkpt><trkpt lat="43.7004316" lon="12.3440327"><ele>469.0</ele><time>2026-04-12T14:53:01.012Z</time></trkpt><trkpt lat="43.7005002" lon="12.344158"><ele>469.0</ele><time>2026-04-12T14:53:02.012Z</time></trkpt><trkpt lat="43.7005512" lon="12.3442969"><ele>469.0</ele><time>2026-04-12T14:53:03.012Z</time></trkpt><trkpt lat="43.7005843" lon="12.3444641"><ele>469.0</ele><time>2026-04-12T14:53:04.013Z</time></trkpt><trkpt lat="43.7005908" lon="12.344651"><ele>469.0</ele><time>2026-04-12T14:53:05.012Z</time></trkpt><trkpt lat="43.7006023" lon="12.3448178"><ele>468.50000000000006</ele><time>2026-04-12T14:53:06.012Z</time></trkpt><trkpt lat="43.7006373" lon="12.3449522"><ele>468.0</ele><time>2026-04-12T14:53:07.013Z</time></trkpt><trkpt lat="43.7006854" lon="12.3450548"><ele>467.5</ele><time>2026-04-12T14:53:08.012Z</time></trkpt><trkpt lat="43.7007582" lon="12.3451084"><ele>467.0</ele><time>2026-04-12T14:53:09.014Z</time></trkpt><trkpt lat="43.7008369" lon="12.3451312"><ele>466.50000000000006</ele><time>2026-04-12T14:53:10.015Z</time></trkpt><trkpt lat="43.7009093" lon="12.3451735"><ele>466.0</ele><time>2026-04-12T14:53:11.014Z</time></trkpt><trkpt lat="43.7010371" lon="12.3451351"><ele>463.0</ele><time>2026-04-12T14:53:12.014Z</time></trkpt><trkpt lat="43.7011782" lon="12.3450603"><ele>460.0</ele><time>2026-04-12T14:53:13.014Z</time></trkpt><trkpt lat="43.7013124" lon="12.3450083"><ele>457.0</ele><time>2026-04-12T14:53:14.011Z</time></trkpt><trkpt lat="43.7014345" lon="12.3450096"><ele>454.0</ele><time>2026-04-12T14:53:15.013Z</time></trkpt><trkpt lat="43.701548" lon="12.3450852"><ele>454.0</ele><time>2026-04-12T14:53:16.012Z</time></trkpt><trkpt lat="43.7016531" lon="12.3452164"><ele>454.0</ele><time>2026-04-12T14:53:17.011Z</time></trkpt><trkpt lat="43.7017408" lon="12.3453937"><ele>454.0</ele><time>2026-04-12T14:53:18.014Z</time></trkpt><trkpt lat="43.7018051" lon="12.3455666"><ele>454.0</ele><time>2026-04-12T14:53:19.013Z</time></trkpt><trkpt lat="43.7018654" lon="12.3457153"><ele>451.0</ele><time>2026-04-12T14:53:20.014Z</time></trkpt><trkpt lat="43.7019308" lon="12.3458414"><ele>448.0</ele><time>2026-04-12T14:53:21.014Z</time></trkpt><trkpt lat="43.7020093" lon="12.3459414"><ele>445.0</ele><time>2026-04-12T14:53:22.011Z</time></trkpt><trkpt lat="43.7020974" lon="12.3460077"><ele>442.0</ele><time>2026-04-12T14:53:23.011Z</time></trkpt><trkpt lat="43.702212" lon="12.3460338"><ele>439.0</ele><time>2026-04-12T14:53:24.013Z</time></trkpt><trkpt lat="43.7023431" lon="12.3460415"><ele>439.0</ele><time>2026-04-12T14:53:25.014Z</time></trkpt><trkpt lat="43.7024875" lon="12.3460487"><ele>439.0</ele><time>2026-04-12T14:53:26.014Z</time></trkpt><trkpt lat="43.7026496" lon="12.3460331"><ele>439.0</ele><time>2026-04-12T14:53:27.013Z</time></trkpt><trkpt lat="43.7028096" lon="12.3460106"><ele>437.75</ele><time>2026-04-12T14:53:28.012Z</time></trkpt><trkpt lat="43.7029592" lon="12.3459948"><ele>436.5</ele><time>2026-04-12T14:53:29.012Z</time></trkpt><trkpt lat="43.7031012" lon="12.3459861"><ele>435.25</ele><time>2026-04-12T14:53:30.015Z</time></trkpt><trkpt lat="43.7032408" lon="12.3460002"><ele>434.0</ele><time>2026-04-12T14:53:31.012Z</time></trkpt><trkpt lat="43.7033833" lon="12.3460387"><ele>434.0</ele><time>2026-04-12T14:53:32.012Z</time></trkpt><trkpt lat="43.7035294" lon="12.3461143"><ele>434.0</ele><time>2026-04-12T14:53:33.013Z</time></trkpt><trkpt lat="43.7036721" lon="12.3461906"><ele>434.0</ele><time>2026-04-12T14:53:34.012Z</time></trkpt><trkpt lat="43.7038109" lon="12.3462703"><ele>435.66666666666663</ele><time>2026-04-12T14:53:35.013Z</time></trkpt><trkpt lat="43.7039491" lon="12.3463599"><ele>437.33333333333337</ele><time>2026-04-12T14:53:36.012Z</time></trkpt><trkpt lat="43.7040838" lon="12.3464591"><ele>439.0</ele><time>2026-04-12T14:53:37.016Z</time></trkpt><trkpt lat="43.704208" lon="12.3465769"><ele>435.33333333333337</ele><time>2026-04-12T14:53:38.014Z</time></trkpt><trkpt lat="43.7043195" lon="12.3467345"><ele>431.66666666666663</ele><time>2026-04-12T14:53:39.012Z</time></trkpt><trkpt lat="43.7044362" lon="12.3469149"><ele>428.0</ele><time>2026-04-12T14:53:40.014Z</time></trkpt><trkpt lat="43.7045654" lon="12.3470895"><ele>421.66666666666663</ele><time>2026-04-12T14:53:41.012Z</time></trkpt><trkpt lat="43.7046989" lon="12.3472463"><ele>415.33333333333337</ele><time>2026-04-12T14:53:42.013Z</time></trkpt><trkpt lat="43.7048227" lon="12.3473885"><ele>409.0</ele><time>2026-04-12T14:53:43.011Z</time></trkpt><trkpt lat="43.7049349" lon="12.3475138"><ele>409.0</ele><time>2026-04-12T14:53:44.014Z</time></trkpt><trkpt lat="43.7050389" lon="12.3476363"><ele>409.0</ele><time>2026-04-12T14:53:45.013Z</time></trkpt><trkpt lat="43.7051323" lon="12.3477877"><ele>409.0</ele><time>2026-04-12T14:53:46.012Z</time></trkpt><trkpt lat="43.7052054" lon="12.3479853"><ele>409.0</ele><time>2026-04-12T14:53:47.013Z</time></trkpt><trkpt lat="43.7052848" lon="12.3481975"><ele>404.33333333333337</ele><time>2026-04-12T14:53:48.01Z</time></trkpt><trkpt lat="43.7053638" lon="12.3484192"><ele>399.66666666666663</ele><time>2026-04-12T14:53:49.013Z</time></trkpt><trkpt lat="43.705447" lon="12.3486394"><ele>395.0</ele><time>2026-04-12T14:53:50.013Z</time></trkpt><trkpt lat="43.7055333" lon="12.3488616"><ele>394.66666666666663</ele><time>2026-04-12T14:53:51.013Z</time></trkpt><trkpt lat="43.7056217" lon="12.3490791"><ele>394.33333333333337</ele><time>2026-04-12T14:53:52.012Z</time></trkpt><trkpt lat="43.7057044" lon="12.3492965"><ele>394.0</ele><time>2026-04-12T14:53:53.013Z</time></trkpt><trkpt lat="43.7057784" lon="12.3495093"><ele>394.0</ele><time>2026-04-12T14:53:54.012Z</time></trkpt><trkpt lat="43.705863" lon="12.3497012"><ele>394.0</ele><time>2026-04-12T14:53:55.012Z</time></trkpt><trkpt lat="43.7059668" lon="12.34987"><ele>394.0</ele><time>2026-04-12T14:53:56.013Z</time></trkpt><trkpt lat="43.7060803" lon="12.3500224"><ele>389.0</ele><time>2026-04-12T14:53:57.014Z</time></trkpt><trkpt lat="43.7062099" lon="12.3501547"><ele>384.0</ele><time>2026-04-12T14:53:58.012Z</time></trkpt><trkpt lat="43.706359" lon="12.3502699"><ele>379.0</ele><time>2026-04-12T14:53:59.013Z</time></trkpt><trkpt lat="43.7065299" lon="12.3503758"><ele>379.0</ele><time>2026-04-12T14:54:00.012Z</time></trkpt><trkpt lat="43.7067199" lon="12.3504808"><ele>379.0</ele><time>2026-04-12T14:54:01.012Z</time></trkpt><trkpt lat="43.7069202" lon="12.3505897"><ele>379.0</ele><time>2026-04-12T14:54:02.012Z</time></trkpt><trkpt lat="43.7071266" lon="12.3507051"><ele>377.0</ele><time>2026-04-12T14:54:03.015Z</time></trkpt><trkpt lat="43.7073249" lon="12.3508209"><ele>375.0</ele><time>2026-04-12T14:54:04.014Z</time></trkpt><trkpt lat="43.7075024" lon="12.3509409"><ele>373.0</ele><time>2026-04-12T14:54:05.014Z</time></trkpt><trkpt lat="43.7076637" lon="12.3510479"><ele>375.66666666666663</ele><time>2026-04-12T14:54:06.013Z</time></trkpt><trkpt lat="43.7078204" lon="12.3511481"><ele>378.3333333333333</ele><time>2026-04-12T14:54:07.013Z</time></trkpt><trkpt lat="43.707978" lon="12.3512513"><ele>381.0</ele><time>2026-04-12T14:54:08.016Z</time></trkpt><trkpt lat="43.7081257" lon="12.3513384"><ele>381.0</ele><time>2026-04-12T14:54:09.013Z</time></trkpt><trkpt lat="43.7082541" lon="12.3514028"><ele>381.0</ele><time>2026-04-12T14:54:10.014Z</time></trkpt><trkpt lat="43.7083545" lon="12.3514427"><ele>381.0</ele><time>2026-04-12T14:54:11.013Z</time></trkpt><trkpt lat="43.7084382" lon="12.3514286"><ele>381.0</ele><time>2026-04-12T14:54:12.012Z</time></trkpt><trkpt lat="43.7085124" lon="12.3513468"><ele>381.0</ele><time>2026-04-12T14:54:13.013Z</time></trkpt><trkpt lat="43.7085816" lon="12.35121"><ele>386.0</ele><time>2026-04-12T14:54:14.013Z</time></trkpt><trkpt lat="43.7086548" lon="12.3510378"><ele>391.0</ele><time>2026-04-12T14:54:15.012Z</time></trkpt><trkpt lat="43.708739" lon="12.3508408"><ele>396.0</ele><time>2026-04-12T14:54:16.013Z</time></trkpt><trkpt lat="43.7088293" lon="12.3506376"><ele>396.33333333333337</ele><time>2026-04-12T14:54:17.012Z</time></trkpt><trkpt lat="43.7089164" lon="12.3504357"><ele>396.6666666666667</ele><time>2026-04-12T14:54:18.013Z</time></trkpt><trkpt lat="43.7089985" lon="12.3502201"><ele>397.0</ele><time>2026-04-12T14:54:19.014Z</time></trkpt><trkpt lat="43.7090661" lon="12.3499954"><ele>397.0</ele><time>2026-04-12T14:54:20.014Z</time></trkpt><trkpt lat="43.7090939" lon="12.3497548"><ele>397.0</ele><time>2026-04-12T14:54:21.015Z</time></trkpt><trkpt lat="43.7090975" lon="12.3495103"><ele>397.0</ele><time>2026-04-12T14:54:22.012Z</time></trkpt><trkpt lat="43.7090956" lon="12.3492919"><ele>397.5</ele><time>2026-04-12T14:54:23.011Z</time></trkpt><trkpt lat="43.7091018" lon="12.349105"><ele>398.0</ele><time>2026-04-12T14:54:24.012Z</time></trkpt><trkpt lat="43.7091134" lon="12.3489309"><ele>398.5</ele><time>2026-04-12T14:54:25.013Z</time></trkpt><trkpt lat="43.7091292" lon="12.3487759"><ele>399.0</ele><time>2026-04-12T14:54:26.01Z</time></trkpt><trkpt lat="43.7091485" lon="12.3486503"><ele>399.6666666666667</ele><time>2026-04-12T14:54:27.012Z</time></trkpt><trkpt lat="43.7091801" lon="12.3485455"><ele>400.33333333333337</ele><time>2026-04-12T14:54:28.013Z</time></trkpt><trkpt lat="43.7092283" lon="12.3484772"><ele>401.0</ele><time>2026-04-12T14:54:29.011Z</time></trkpt><trkpt lat="43.7093479" lon="12.3485004"><ele>401.6666666666667</ele><time>2026-04-12T14:54:31.015Z</time></trkpt><trkpt lat="43.7094112" lon="12.3485611"><ele>402.33333333333337</ele><time>2026-04-12T14:54:32.013Z</time></trkpt><trkpt lat="43.7094671" lon="12.3486591"><ele>403.0</ele><time>2026-04-12T14:54:33.012Z</time></trkpt><trkpt lat="43.7095006" lon="12.3487659"><ele>405.50000000000006</ele><time>2026-04-12T14:54:34.012Z</time></trkpt><trkpt lat="43.7095211" lon="12.3488583"><ele>408.0</ele><time>2026-04-12T14:54:35.01Z</time></trkpt><trkpt lat="43.7095376" lon="12.3489536"><ele>410.5</ele><time>2026-04-12T14:54:37.013Z</time></trkpt><trkpt lat="43.7094967" lon="12.3490867"><ele>413.0</ele><time>2026-04-12T14:56:12.014Z</time></trkpt><trkpt lat="43.7095167" lon="12.3492517"><ele>415.50000000000006</ele><time>2026-04-12T14:56:14.013Z</time></trkpt><trkpt lat="43.7095283" lon="12.34934"><ele>418.0</ele><time>2026-04-12T14:56:15.013Z</time></trkpt><trkpt lat="43.7095467" lon="12.349435"><ele>418.0</ele><time>2026-04-12T14:56:16.013Z</time></trkpt><trkpt lat="43.7095667" lon="12.3495483"><ele>418.0</ele><time>2026-04-12T14:56:17.013Z</time></trkpt><trkpt lat="43.7095867" lon="12.3496883"><ele>418.0</ele><time>2026-04-12T14:56:18.013Z</time></trkpt><trkpt lat="43.7096217" lon="12.3498733"><ele>418.0</ele><time>2026-04-12T14:56:19.011Z</time></trkpt><trkpt lat="43.7096533" lon="12.3500667"><ele>417.33333333333337</ele><time>2026-04-12T14:56:20.012Z</time></trkpt><trkpt lat="43.7096883" lon="12.3502517"><ele>416.66666666666663</ele><time>2026-04-12T14:56:21.012Z</time></trkpt><trkpt lat="43.7099617" lon="12.3501117"><ele>416.0</ele><time>2026-04-12T14:56:22.655Z</time></trkpt><trkpt lat="43.709895" lon="12.350725"><ele>415.3333333333333</ele><time>2026-04-12T14:56:23.825Z</time></trkpt><trkpt lat="43.7099133" lon="12.3511033"><ele>414.66666666666663</ele><time>2026-04-12T14:56:26.012Z</time></trkpt><trkpt lat="43.70992" lon="12.351295"><ele>414.0</ele><time>2026-04-12T14:56:27.012Z</time></trkpt><trkpt lat="43.7099467" lon="12.351475"><ele>413.0</ele><time>2026-04-12T14:56:28.013Z</time></trkpt><trkpt lat="43.7099817" lon="12.3516533"><ele>412.0</ele><time>2026-04-12T14:56:29.01Z</time></trkpt><trkpt lat="43.710015" lon="12.3518367"><ele>411.0</ele><time>2026-04-12T14:56:30.012Z</time></trkpt><trkpt lat="43.7100517" lon="12.3520217"><ele>410.0</ele><time>2026-04-12T14:56:31.013Z</time></trkpt><trkpt lat="43.7100867" lon="12.352205"><ele>410.0</ele><time>2026-04-12T14:56:32.011Z</time></trkpt><trkpt lat="43.71012" lon="12.3523783"><ele>410.0</ele><time>2026-04-12T14:56:33.014Z</time></trkpt><trkpt lat="43.710165" lon="12.3525333"><ele>410.0</ele><time>2026-04-12T14:56:34.014Z</time></trkpt><trkpt lat="43.7102267" lon="12.352685"><ele>410.0</ele><time>2026-04-12T14:56:35.012Z</time></trkpt><trkpt lat="43.7103217" lon="12.3528283"><ele>410.3333333333333</ele><time>2026-04-12T14:56:36.013Z</time></trkpt><trkpt lat="43.7104383" lon="12.3529717"><ele>410.66666666666663</ele><time>2026-04-12T14:56:37.013Z</time></trkpt><trkpt lat="43.7105617" lon="12.3531233"><ele>411.0</ele><time>2026-04-12T14:56:38.011Z</time></trkpt><trkpt lat="43.710695" lon="12.3532767"><ele>411.0</ele><time>2026-04-12T14:56:39.013Z</time></trkpt><trkpt lat="43.71083" lon="12.353425"><ele>411.0</ele><time>2026-04-12T14:56:40.012Z</time></trkpt><trkpt lat="43.710965" lon="12.3535667"><ele>411.0</ele><time>2026-04-12T14:56:41.012Z</time></trkpt><trkpt lat="43.71109" lon="12.3537083"><ele>410.66666666666663</ele><time>2026-04-12T14:56:42.013Z</time></trkpt><trkpt lat="43.7112167" lon="12.353855"><ele>410.3333333333333</ele><time>2026-04-12T14:56:43.017Z</time></trkpt><trkpt lat="43.71133" lon="12.3540183"><ele>410.0</ele><time>2026-04-12T14:56:44.012Z</time></trkpt><trkpt lat="43.7114233" lon="12.3542"><ele>410.0</ele><time>2026-04-12T14:56:45.013Z</time></trkpt><trkpt lat="43.71149" lon="12.3544"><ele>410.0</ele><time>2026-04-12T14:56:46.013Z</time></trkpt><trkpt lat="43.7115317" lon="12.354615"><ele>410.0</ele><time>2026-04-12T14:56:47.012Z</time></trkpt><trkpt lat="43.71155" lon="12.3548433"><ele>408.3333333333333</ele><time>2026-04-12T14:56:48.012Z</time></trkpt><trkpt lat="43.7115417" lon="12.3550733"><ele>406.66666666666663</ele><time>2026-04-12T14:56:49.015Z</time></trkpt><trkpt lat="43.7115083" lon="12.3552883"><ele>405.0</ele><time>2026-04-12T14:56:50.015Z</time></trkpt><trkpt lat="43.7114433" lon="12.35549"><ele>407.33333333333337</ele><time>2026-04-12T14:56:51.014Z</time></trkpt><trkpt lat="43.7113433" lon="12.3556817"><ele>409.6666666666667</ele><time>2026-04-12T14:56:52.013Z</time></trkpt><trkpt lat="43.7112183" lon="12.3558617"><ele>412.0</ele><time>2026-04-12T14:56:53.012Z</time></trkpt><trkpt lat="43.7110783" lon="12.35603"><ele>410.33333333333337</ele><time>2026-04-12T14:56:54.011Z</time></trkpt><trkpt lat="43.7109383" lon="12.35619"><ele>408.66666666666663</ele><time>2026-04-12T14:56:55.013Z</time></trkpt><trkpt lat="43.7107983" lon="12.3563483"><ele>407.0</ele><time>2026-04-12T14:56:56.012Z</time></trkpt><trkpt lat="43.71066" lon="12.356505"><ele>407.0</ele><time>2026-04-12T14:56:57.013Z</time></trkpt><trkpt lat="43.7105333" lon="12.3566867"><ele>407.0</ele><time>2026-04-12T14:56:58.017Z</time></trkpt><trkpt lat="43.7104083" lon="12.3568767"><ele>407.0</ele><time>2026-04-12T14:56:59.012Z</time></trkpt><trkpt lat="43.7102883" lon="12.35708"><ele>404.3333333333333</ele><time>2026-04-12T14:57:00.012Z</time></trkpt><trkpt lat="43.7101733" lon="12.3572883"><ele>401.66666666666663</ele><time>2026-04-12T14:57:01.012Z</time></trkpt><trkpt lat="43.7100567" lon="12.3574933"><ele>399.0</ele><time>2026-04-12T14:57:02.013Z</time></trkpt><trkpt lat="43.7099467" lon="12.3577033"><ele>399.0</ele><time>2026-04-12T14:57:03.013Z</time></trkpt><trkpt lat="43.7098433" lon="12.3579167"><ele>399.0</ele><time>2026-04-12T14:57:04.013Z</time></trkpt><trkpt lat="43.7097367" lon="12.3581317"><ele>399.0</ele><time>2026-04-12T14:57:05.013Z</time></trkpt><trkpt lat="43.7096383" lon="12.3583467"><ele>399.66666666666663</ele><time>2026-04-12T14:57:06.013Z</time></trkpt><trkpt lat="43.709545" lon="12.358555"><ele>400.3333333333333</ele><time>2026-04-12T14:57:07.014Z</time></trkpt><trkpt lat="43.7094733" lon="12.3587683"><ele>401.0</ele><time>2026-04-12T14:57:08.012Z</time></trkpt><trkpt lat="43.7094217" lon="12.358995"><ele>395.0</ele><time>2026-04-12T14:57:09.014Z</time></trkpt><trkpt lat="43.7093883" lon="12.35923"><ele>389.0</ele><time>2026-04-12T14:57:10.013Z</time></trkpt><trkpt lat="43.7093733" lon="12.3594717"><ele>383.0</ele><time>2026-04-12T14:57:11.011Z</time></trkpt><trkpt lat="43.70938" lon="12.3597"><ele>383.0</ele><time>2026-04-12T14:57:12.015Z</time></trkpt><trkpt lat="43.7094033" lon="12.35992"><ele>383.0</ele><time>2026-04-12T14:57:13.013Z</time></trkpt><trkpt lat="43.7094417" lon="12.3601217"><ele>383.0</ele><time>2026-04-12T14:57:14.015Z</time></trkpt><trkpt lat="43.70949" lon="12.3603083"><ele>386.0</ele><time>2026-04-12T14:57:15.013Z</time></trkpt><trkpt lat="43.7095483" lon="12.3604817"><ele>389.0</ele><time>2026-04-12T14:57:16.012Z</time></trkpt><trkpt lat="43.70963" lon="12.3606467"><ele>392.0</ele><time>2026-04-12T14:57:17.013Z</time></trkpt><trkpt lat="43.7097356" lon="12.3608162"><ele>395.0</ele><time>2026-04-12T14:57:18.012Z</time></trkpt><trkpt lat="43.7098681" lon="12.3609905"><ele>395.0</ele><time>2026-04-12T14:57:19.015Z</time></trkpt><trkpt lat="43.7100148" lon="12.3611788"><ele>395.0</ele><time>2026-04-12T14:57:20.013Z</time></trkpt><trkpt lat="43.7101705" lon="12.3613803"><ele>395.0</ele><time>2026-04-12T14:57:21.013Z</time></trkpt><trkpt lat="43.7103279" lon="12.361589"><ele>393.66666666666663</ele><time>2026-04-12T14:57:22.011Z</time></trkpt><trkpt lat="43.7104795" lon="12.3618058"><ele>392.33333333333337</ele><time>2026-04-12T14:57:23.011Z</time></trkpt><trkpt lat="43.7106305" lon="12.3620249"><ele>391.0</ele><time>2026-04-12T14:57:24.014Z</time></trkpt><trkpt lat="43.7107765" lon="12.3622462"><ele>388.6666666666667</ele><time>2026-04-12T14:57:25.012Z</time></trkpt><trkpt lat="43.7109141" lon="12.3624676"><ele>386.33333333333337</ele><time>2026-04-12T14:57:26.013Z</time></trkpt><trkpt lat="43.7110276" lon="12.3626982"><ele>384.0</ele><time>2026-04-12T14:57:27.014Z</time></trkpt><trkpt lat="43.7111272" lon="12.3629429"><ele>387.33333333333337</ele><time>2026-04-12T14:57:28.011Z</time></trkpt><trkpt lat="43.7112107" lon="12.3632115"><ele>390.6666666666667</ele><time>2026-04-12T14:57:29.013Z</time></trkpt><trkpt lat="43.7112801" lon="12.3634993"><ele>394.0</ele><time>2026-04-12T14:57:30.013Z</time></trkpt><trkpt lat="43.7113402" lon="12.3637944"><ele>390.33333333333337</ele><time>2026-04-12T14:57:31.014Z</time></trkpt><trkpt lat="43.711403" lon="12.3640868"><ele>386.6666666666667</ele><time>2026-04-12T14:57:32.014Z</time></trkpt><trkpt lat="43.7114665" lon="12.3643675"><ele>383.0</ele><time>2026-04-12T14:57:33.014Z</time></trkpt><trkpt lat="43.7115368" lon="12.3646322"><ele>381.33333333333337</ele><time>2026-04-12T14:57:34.012Z</time></trkpt><trkpt lat="43.711616" lon="12.3648848"><ele>379.6666666666667</ele><time>2026-04-12T14:57:35.014Z</time></trkpt><trkpt lat="43.711708" lon="12.3651273"><ele>378.0</ele><time>2026-04-12T14:57:36.013Z</time></trkpt><trkpt lat="43.7118238" lon="12.3653585"><ele>380.66666666666663</ele><time>2026-04-12T14:57:37.012Z</time></trkpt><trkpt lat="43.7119538" lon="12.3655783"><ele>383.3333333333333</ele><time>2026-04-12T14:57:38.013Z</time></trkpt><trkpt lat="43.7120992" lon="12.3657806"><ele>386.0</ele><time>2026-04-12T14:57:39.013Z</time></trkpt><trkpt lat="43.7122604" lon="12.3659626"><ele>386.0</ele><time>2026-04-12T14:57:40.013Z</time></trkpt><trkpt lat="43.712437" lon="12.3661237"><ele>386.0</ele><time>2026-04-12T14:57:41.012Z</time></trkpt><trkpt lat="43.7126293" lon="12.3662666"><ele>386.0</ele><time>2026-04-12T14:57:42.014Z</time></trkpt><trkpt lat="43.7128334" lon="12.3663951"><ele>384.0</ele><time>2026-04-12T14:57:43.014Z</time></trkpt><trkpt lat="43.7130413" lon="12.3665229"><ele>382.0</ele><time>2026-04-12T14:57:44.012Z</time></trkpt><trkpt lat="43.7132469" lon="12.3666574"><ele>382.0</ele><time>2026-04-12T14:57:45.015Z</time></trkpt><trkpt lat="43.7134482" lon="12.3668086"><ele>382.0</ele><time>2026-04-12T14:57:46.016Z</time></trkpt><trkpt lat="43.7136527" lon="12.3669676"><ele>382.5</ele><time>2026-04-12T14:57:47.012Z</time></trkpt><trkpt lat="43.7138547" lon="12.3671623"><ele>383.0</ele><time>2026-04-12T14:57:48.012Z</time></trkpt><trkpt lat="43.7140479" lon="12.3673739"><ele>381.6666666666667</ele><time>2026-04-12T14:57:49.013Z</time></trkpt><trkpt lat="43.7142217" lon="12.367586"><ele>380.3333333333333</ele><time>2026-04-12T14:57:50.014Z</time></trkpt><trkpt lat="43.7143744" lon="12.3677867"><ele>379.0</ele><time>2026-04-12T14:57:51.012Z</time></trkpt><trkpt lat="43.7145172" lon="12.367969"><ele>379.66666666666663</ele><time>2026-04-12T14:57:52.014Z</time></trkpt><trkpt lat="43.7146453" lon="12.368139"><ele>380.3333333333333</ele><time>2026-04-12T14:57:53.013Z</time></trkpt><trkpt lat="43.7147587" lon="12.3683132"><ele>381.0</ele><time>2026-04-12T14:57:54.012Z</time></trkpt><trkpt lat="43.7148472" lon="12.3685204"><ele>381.0</ele><time>2026-04-12T14:57:55.014Z</time></trkpt><trkpt lat="43.7149118" lon="12.3687635"><ele>381.0</ele><time>2026-04-12T14:57:56.013Z</time></trkpt><trkpt lat="43.714958" lon="12.3690372"><ele>381.0</ele><time>2026-04-12T14:57:57.014Z</time></trkpt><trkpt lat="43.7149977" lon="12.3693302"><ele>378.0</ele><time>2026-04-12T14:57:58.014Z</time></trkpt><trkpt lat="43.7150389" lon="12.369628"><ele>375.0</ele><time>2026-04-12T14:57:59.012Z</time></trkpt><trkpt lat="43.7150837" lon="12.3699227"><ele>372.0</ele><time>2026-04-12T14:58:00.013Z</time></trkpt><trkpt lat="43.7151372" lon="12.3702048"><ele>370.6666666666667</ele><time>2026-04-12T14:58:01.014Z</time></trkpt><trkpt lat="43.7151812" lon="12.3704765"><ele>369.33333333333337</ele><time>2026-04-12T14:58:02.014Z</time></trkpt><trkpt lat="43.715223" lon="12.3707376"><ele>368.0</ele><time>2026-04-12T14:58:03.013Z</time></trkpt><trkpt lat="43.7152572" lon="12.3709896"><ele>367.33333333333337</ele><time>2026-04-12T14:58:04.013Z</time></trkpt><trkpt lat="43.7152931" lon="12.371229"><ele>366.6666666666667</ele><time>2026-04-12T14:58:05.012Z</time></trkpt><trkpt lat="43.7153325" lon="12.3714494"><ele>366.0</ele><time>2026-04-12T14:58:06.013Z</time></trkpt><trkpt lat="43.7153754" lon="12.3716518"><ele>365.25</ele><time>2026-04-12T14:58:07.015Z</time></trkpt><trkpt lat="43.7154204" lon="12.3718342"><ele>364.5</ele><time>2026-04-12T14:58:08.014Z</time></trkpt><trkpt lat="43.7154693" lon="12.3719962"><ele>363.75</ele><time>2026-04-12T14:58:09.012Z</time></trkpt><trkpt lat="43.7155227" lon="12.3721386"><ele>363.0</ele><time>2026-04-12T14:58:10.014Z</time></trkpt><trkpt lat="43.7155735" lon="12.3722691"><ele>361.75</ele><time>2026-04-12T14:58:11.012Z</time></trkpt><trkpt lat="43.7156251" lon="12.3723928"><ele>360.5</ele><time>2026-04-12T14:58:12.012Z</time></trkpt><trkpt lat="43.7156787" lon="12.3725226"><ele>359.25</ele><time>2026-04-12T14:58:13.013Z</time></trkpt><trkpt lat="43.7157335" lon="12.3726667"><ele>358.0</ele><time>2026-04-12T14:58:14.012Z</time></trkpt><trkpt lat="43.7157927" lon="12.3728317"><ele>358.0</ele><time>2026-04-12T14:58:15.014Z</time></trkpt><trkpt lat="43.7158608" lon="12.3730164"><ele>358.0</ele><time>2026-04-12T14:58:16.013Z</time></trkpt><trkpt lat="43.7159343" lon="12.3732143"><ele>358.0</ele><time>2026-04-12T14:58:17.015Z</time></trkpt><trkpt lat="43.716003" lon="12.3734116"><ele>357.25</ele><time>2026-04-12T14:58:18.013Z</time></trkpt><trkpt lat="43.716069" lon="12.3736023"><ele>356.5</ele><time>2026-04-12T14:58:19.014Z</time></trkpt><trkpt lat="43.7161366" lon="12.3737814"><ele>355.75</ele><time>2026-04-12T14:58:20.014Z</time></trkpt><trkpt lat="43.7162049" lon="12.3739583"><ele>355.0</ele><time>2026-04-12T14:58:21.014Z</time></trkpt><trkpt lat="43.7162801" lon="12.3741407"><ele>354.66666666666663</ele><time>2026-04-12T14:58:22.012Z</time></trkpt><trkpt lat="43.7163605" lon="12.374345"><ele>354.3333333333333</ele><time>2026-04-12T14:58:23.013Z</time></trkpt><trkpt lat="43.716448" lon="12.3745656"><ele>354.0</ele><time>2026-04-12T14:58:24.012Z</time></trkpt><trkpt lat="43.7165231" lon="12.3747892"><ele>352.75</ele><time>2026-04-12T14:58:25.012Z</time></trkpt><trkpt lat="43.7165906" lon="12.375005"><ele>351.5</ele><time>2026-04-12T14:58:26.012Z</time></trkpt><trkpt lat="43.7166526" lon="12.3751897"><ele>350.25</ele><time>2026-04-12T14:58:27.013Z</time></trkpt><trkpt lat="43.716699" lon="12.3753329"><ele>349.0</ele><time>2026-04-12T14:58:28.015Z</time></trkpt><trkpt lat="43.7167321" lon="12.3754556"><ele>349.3333333333333</ele><time>2026-04-12T14:58:29.012Z</time></trkpt><trkpt lat="43.7167556" lon="12.3755557"><ele>349.66666666666663</ele><time>2026-04-12T14:58:30.013Z</time></trkpt><trkpt lat="43.7167864" lon="12.3756751"><ele>350.0</ele><time>2026-04-12T14:58:32.013Z</time></trkpt><trkpt lat="43.7168117" lon="12.3758167"><ele>350.3333333333333</ele><time>2026-04-12T14:58:40.013Z</time></trkpt><trkpt lat="43.716865" lon="12.3758867"><ele>350.6666666666667</ele><time>2026-04-12T14:58:41.012Z</time></trkpt><trkpt lat="43.7169367" lon="12.37594"><ele>351.0</ele><time>2026-04-12T14:58:42.012Z</time></trkpt><trkpt lat="43.7170117" lon="12.375975"><ele>351.0</ele><time>2026-04-12T14:58:43.012Z</time></trkpt><trkpt lat="43.71712" lon="12.3759367"><ele>351.0</ele><time>2026-04-12T14:58:44.013Z</time></trkpt><trkpt lat="43.7172567" lon="12.37585"><ele>351.0</ele><time>2026-04-12T14:58:45.013Z</time></trkpt><trkpt lat="43.71741" lon="12.3757367"><ele>351.0</ele><time>2026-04-12T14:58:46.013Z</time></trkpt><trkpt lat="43.717575" lon="12.3756233"><ele>353.3333333333333</ele><time>2026-04-12T14:58:47.014Z</time></trkpt><trkpt lat="43.71775" lon="12.3755067"><ele>355.66666666666663</ele><time>2026-04-12T14:58:48.014Z</time></trkpt><trkpt lat="43.717925" lon="12.3753867"><ele>358.0</ele><time>2026-04-12T14:58:49.012Z</time></trkpt><trkpt lat="43.71809" lon="12.3752733"><ele>358.0</ele><time>2026-04-12T14:58:50.011Z</time></trkpt><trkpt lat="43.718255" lon="12.37517"><ele>358.0</ele><time>2026-04-12T14:58:51.013Z</time></trkpt><trkpt lat="43.7184217" lon="12.3750617"><ele>358.0</ele><time>2026-04-12T14:58:52.013Z</time></trkpt><trkpt lat="43.7185833" lon="12.374975"><ele>359.3333333333333</ele><time>2026-04-12T14:58:53.012Z</time></trkpt><trkpt lat="43.71874" lon="12.3748817"><ele>360.6666666666667</ele><time>2026-04-12T14:58:54.014Z</time></trkpt><trkpt lat="43.7189017" lon="12.3747783"><ele>362.0</ele><time>2026-04-12T14:58:55.016Z</time></trkpt><trkpt lat="43.719075" lon="12.3746567"><ele>362.0</ele><time>2026-04-12T14:58:56.012Z</time></trkpt><trkpt lat="43.7192567" lon="12.3745267"><ele>362.0</ele><time>2026-04-12T14:58:57.013Z</time></trkpt><trkpt lat="43.7194383" lon="12.374415"><ele>362.0</ele><time>2026-04-12T14:58:58.011Z</time></trkpt><trkpt lat="43.71961" lon="12.37432"><ele>363.0</ele><time>2026-04-12T14:58:59.012Z</time></trkpt><trkpt lat="43.7197933" lon="12.3742433"><ele>364.0</ele><time>2026-04-12T14:59:00.013Z</time></trkpt><trkpt lat="43.71999" lon="12.3741767"><ele>365.0</ele><time>2026-04-12T14:59:01.015Z</time></trkpt><trkpt lat="43.7202117" lon="12.3741217"><ele>366.0</ele><time>2026-04-12T14:59:02.013Z</time></trkpt><trkpt lat="43.7204467" lon="12.3740783"><ele>367.0</ele><time>2026-04-12T14:59:03.013Z</time></trkpt><trkpt lat="43.7206883" lon="12.374045"><ele>367.0</ele><time>2026-04-12T14:59:04.014Z</time></trkpt><trkpt lat="43.72091" lon="12.3740133"><ele>367.0</ele><time>2026-04-12T14:59:05.012Z</time></trkpt><trkpt lat="43.721125" lon="12.373985"><ele>367.0</ele><time>2026-04-12T14:59:06.014Z</time></trkpt><trkpt lat="43.72134" lon="12.3739467"><ele>366.5</ele><time>2026-04-12T14:59:07.014Z</time></trkpt><trkpt lat="43.72156" lon="12.3739067"><ele>366.0</ele><time>2026-04-12T14:59:08.011Z</time></trkpt><trkpt lat="43.7217867" lon="12.373865"><ele>369.5</ele><time>2026-04-12T14:59:09.015Z</time></trkpt><trkpt lat="43.7220083" lon="12.373825"><ele>373.0</ele><time>2026-04-12T14:59:10.012Z</time></trkpt><trkpt lat="43.7222333" lon="12.3737767"><ele>373.0</ele><time>2026-04-12T14:59:11.012Z</time></trkpt><trkpt lat="43.7224533" lon="12.3737233"><ele>373.0</ele><time>2026-04-12T14:59:12.02Z</time></trkpt><trkpt lat="43.722675" lon="12.3736667"><ele>373.0</ele><time>2026-04-12T14:59:13.014Z</time></trkpt><trkpt lat="43.7228983" lon="12.3736083"><ele>373.5</ele><time>2026-04-12T14:59:14.013Z</time></trkpt><trkpt lat="43.7231267" lon="12.3735517"><ele>374.0</ele><time>2026-04-12T14:59:15.014Z</time></trkpt><trkpt lat="43.723365" lon="12.3734933"><ele>375.5</ele><time>2026-04-12T14:59:16.013Z</time></trkpt><trkpt lat="43.7235933" lon="12.3734367"><ele>377.0</ele><time>2026-04-12T14:59:17.013Z</time></trkpt><trkpt lat="43.7238133" lon="12.373385"><ele>377.0</ele><time>2026-04-12T14:59:18.012Z</time></trkpt><trkpt lat="43.7240183" lon="12.3733383"><ele>377.0</ele><time>2026-04-12T14:59:19.012Z</time></trkpt><trkpt lat="43.7242217" lon="12.3732767"><ele>377.0</ele><time>2026-04-12T14:59:20.012Z</time></trkpt><trkpt lat="43.7244233" lon="12.373205"><ele>376.0</ele><time>2026-04-12T14:59:21.012Z</time></trkpt><trkpt lat="43.7246117" lon="12.373125"><ele>375.0</ele><time>2026-04-12T14:59:22.014Z</time></trkpt><trkpt lat="43.72479" lon="12.3730333"><ele>374.0</ele><time>2026-04-12T14:59:23.013Z</time></trkpt><trkpt lat="43.7249517" lon="12.3729367"><ele>376.6666666666667</ele><time>2026-04-12T14:59:24.012Z</time></trkpt><trkpt lat="43.7250967" lon="12.3728383"><ele>379.3333333333333</ele><time>2026-04-12T14:59:25.011Z</time></trkpt><trkpt lat="43.7252333" lon="12.3727117"><ele>382.0</ele><time>2026-04-12T14:59:26.013Z</time></trkpt><trkpt lat="43.725355" lon="12.372535"><ele>382.0</ele><time>2026-04-12T14:59:27.018Z</time></trkpt><trkpt lat="43.7254733" lon="12.372335"><ele>382.0</ele><time>2026-04-12T14:59:28.013Z</time></trkpt><trkpt lat="43.725585" lon="12.372135"><ele>382.0</ele><time>2026-04-12T14:59:29.012Z</time></trkpt><trkpt lat="43.7256883" lon="12.371955"><ele>385.66666666666663</ele><time>2026-04-12T14:59:30.015Z</time></trkpt><trkpt lat="43.725785" lon="12.3717733"><ele>389.3333333333333</ele><time>2026-04-12T14:59:31.013Z</time></trkpt><trkpt lat="43.7258683" lon="12.3715983"><ele>393.0</ele><time>2026-04-12T14:59:32.019Z</time></trkpt><trkpt lat="43.72596" lon="12.371425"><ele>394.33333333333337</ele><time>2026-04-12T14:59:33.013Z</time></trkpt><trkpt lat="43.72607" lon="12.3712667"><ele>395.6666666666667</ele><time>2026-04-12T14:59:34.012Z</time></trkpt><trkpt lat="43.7261883" lon="12.371115"><ele>397.0</ele><time>2026-04-12T14:59:35.013Z</time></trkpt><trkpt lat="43.7263217" lon="12.3709733"><ele>397.0</ele><time>2026-04-12T14:59:36.012Z</time></trkpt><trkpt lat="43.7264733" lon="12.3708467"><ele>397.0</ele><time>2026-04-12T14:59:37.018Z</time></trkpt><trkpt lat="43.7266317" lon="12.37074"><ele>397.0</ele><time>2026-04-12T14:59:38.012Z</time></trkpt><trkpt lat="43.7267883" lon="12.3706417"><ele>396.33333333333337</ele><time>2026-04-12T14:59:39.012Z</time></trkpt><trkpt lat="43.7269333" lon="12.3705583"><ele>395.66666666666663</ele><time>2026-04-12T14:59:40.014Z</time></trkpt><trkpt lat="43.727075" lon="12.3704783"><ele>395.0</ele><time>2026-04-12T14:59:41.012Z</time></trkpt><trkpt lat="43.7272167" lon="12.3704017"><ele>398.0</ele><time>2026-04-12T14:59:42.013Z</time></trkpt><trkpt lat="43.7273667" lon="12.3703217"><ele>401.0</ele><time>2026-04-12T14:59:43.013Z</time></trkpt><trkpt lat="43.72752" lon="12.3702267"><ele>404.0</ele><time>2026-04-12T14:59:44.017Z</time></trkpt><trkpt lat="43.7276633" lon="12.3701083"><ele>404.3333333333333</ele><time>2026-04-12T14:59:45.011Z</time></trkpt><trkpt lat="43.7277917" lon="12.3699767"><ele>404.66666666666663</ele><time>2026-04-12T14:59:46.013Z</time></trkpt><trkpt lat="43.7279183" lon="12.3698333"><ele>405.0</ele><time>2026-04-12T14:59:47.011Z</time></trkpt><trkpt lat="43.7280433" lon="12.3696817"><ele>405.0</ele><time>2026-04-12T14:59:48.011Z</time></trkpt><trkpt lat="43.7281717" lon="12.3695333"><ele>405.0</ele><time>2026-04-12T14:59:49.016Z</time></trkpt><trkpt lat="43.728295" lon="12.369395"><ele>405.0</ele><time>2026-04-12T14:59:50.015Z</time></trkpt><trkpt lat="43.7284067" lon="12.3692667"><ele>405.0</ele><time>2026-04-12T14:59:51.014Z</time></trkpt><trkpt lat="43.7285117" lon="12.3691117"><ele>405.0</ele><time>2026-04-12T14:59:52.013Z</time></trkpt><trkpt lat="43.7286118" lon="12.368939"><ele>405.0</ele><time>2026-04-12T14:59:53.014Z</time></trkpt><trkpt lat="43.7286977" lon="12.3687401"><ele>403.33333333333337</ele><time>2026-04-12T14:59:54.015Z</time></trkpt><trkpt lat="43.72876" lon="12.3684997"><ele>401.6666666666667</ele><time>2026-04-12T14:59:55.014Z</time></trkpt><trkpt lat="43.7288112" lon="12.368253"><ele>400.0</ele><time>2026-04-12T14:59:56.013Z</time></trkpt><trkpt lat="43.728843" lon="12.3679893"><ele>400.0</ele><time>2026-04-12T14:59:57.014Z</time></trkpt><trkpt lat="43.7288518" lon="12.3677009"><ele>400.0</ele><time>2026-04-12T14:59:58.013Z</time></trkpt><trkpt lat="43.7288558" lon="12.3673865"><ele>400.0</ele><time>2026-04-12T14:59:59.014Z</time></trkpt><trkpt lat="43.7288687" lon="12.3670681"><ele>403.0</ele><time>2026-04-12T15:00:00.017Z</time></trkpt><trkpt lat="43.7288866" lon="12.3667387"><ele>406.0</ele><time>2026-04-12T15:00:01.014Z</time></trkpt><trkpt lat="43.7289042" lon="12.3664272"><ele>408.0</ele><time>2026-04-12T15:00:02.015Z</time></trkpt><trkpt lat="43.7289231" lon="12.3661336"><ele>410.0</ele><time>2026-04-12T15:00:03.014Z</time></trkpt><trkpt lat="43.7289505" lon="12.3658452"><ele>412.0</ele><time>2026-04-12T15:00:04.014Z</time></trkpt><trkpt lat="43.7289869" lon="12.365559"><ele>413.6666666666667</ele><time>2026-04-12T15:00:05.014Z</time></trkpt><trkpt lat="43.7290338" lon="12.3652784"><ele>415.33333333333337</ele><time>2026-04-12T15:00:06.012Z</time></trkpt><trkpt lat="43.7290881" lon="12.3650046"><ele>417.0</ele><time>2026-04-12T15:00:07.013Z</time></trkpt><trkpt lat="43.7291446" lon="12.3647501"><ele>420.33333333333337</ele><time>2026-04-12T15:00:08.013Z</time></trkpt><trkpt lat="43.7291958" lon="12.3645163"><ele>423.6666666666667</ele><time>2026-04-12T15:00:09.014Z</time></trkpt><trkpt lat="43.729246" lon="12.3643208"><ele>427.0</ele><time>2026-04-12T15:00:10.015Z</time></trkpt><trkpt lat="43.7293041" lon="12.3641619"><ele>427.0</ele><time>2026-04-12T15:00:11.014Z</time></trkpt><trkpt lat="43.7293812" lon="12.3640528"><ele>427.0</ele><time>2026-04-12T15:00:12.013Z</time></trkpt><trkpt lat="43.7294718" lon="12.3639494"><ele>427.0</ele><time>2026-04-12T15:00:13.014Z</time></trkpt><trkpt lat="43.7295926" lon="12.363898"><ele>427.0</ele><time>2026-04-12T15:00:14.015Z</time></trkpt><trkpt lat="43.729731" lon="12.3639033"><ele>427.0</ele><time>2026-04-12T15:00:15.014Z</time></trkpt><trkpt lat="43.7298767" lon="12.3639407"><ele>427.0</ele><time>2026-04-12T15:00:16.014Z</time></trkpt><trkpt lat="43.7300337" lon="12.3640209"><ele>427.0</ele><time>2026-04-12T15:00:17.015Z</time></trkpt><trkpt lat="43.7301788" lon="12.3640826"><ele>428.5</ele><time>2026-04-12T15:00:18.012Z</time></trkpt><trkpt lat="43.7303237" lon="12.3641313"><ele>430.0</ele><time>2026-04-12T15:00:19.013Z</time></trkpt><trkpt lat="43.7304575" lon="12.364146"><ele>431.5</ele><time>2026-04-12T15:00:20.014Z</time></trkpt><trkpt lat="43.7305957" lon="12.3641081"><ele>433.0</ele><time>2026-04-12T15:00:21.014Z</time></trkpt><trkpt lat="43.7307351" lon="12.364021"><ele>433.0</ele><time>2026-04-12T15:00:22.013Z</time></trkpt><trkpt lat="43.7308708" lon="12.363879"><ele>433.0</ele><time>2026-04-12T15:00:23.014Z</time></trkpt><trkpt lat="43.7310072" lon="12.3637458"><ele>433.0</ele><time>2026-04-12T15:00:24.013Z</time></trkpt><trkpt lat="43.7311482" lon="12.3635981"><ele>434.25</ele><time>2026-04-12T15:00:25.014Z</time></trkpt><trkpt lat="43.7312779" lon="12.3634535"><ele>435.5</ele><time>2026-04-12T15:00:26.014Z</time></trkpt><trkpt lat="43.7313856" lon="12.3633235"><ele>436.75</ele><time>2026-04-12T15:00:27.014Z</time></trkpt><trkpt lat="43.731473" lon="12.3631967"><ele>438.0</ele><time>2026-04-12T15:00:28.013Z</time></trkpt><trkpt lat="43.7315425" lon="12.3630533"><ele>440.75</ele><time>2026-04-12T15:00:29.012Z</time></trkpt><trkpt lat="43.7315773" lon="12.3628928"><ele>443.5</ele><time>2026-04-12T15:00:30.014Z</time></trkpt><trkpt lat="43.7315785" lon="12.3627262"><ele>446.25</ele><time>2026-04-12T15:00:31.014Z</time></trkpt><trkpt lat="43.7315374" lon="12.3625525"><ele>449.0</ele><time>2026-04-12T15:00:32.014Z</time></trkpt><trkpt lat="43.7314612" lon="12.3623865"><ele>449.0</ele><time>2026-04-12T15:00:33.013Z</time></trkpt><trkpt lat="43.7313778" lon="12.3622185"><ele>449.0</ele><time>2026-04-12T15:00:34.012Z</time></trkpt><trkpt lat="43.7313182" lon="12.3620546"><ele>449.0</ele><time>2026-04-12T15:00:35.014Z</time></trkpt><trkpt lat="43.7312756" lon="12.3619171"><ele>449.0</ele><time>2026-04-12T15:00:36.014Z</time></trkpt><trkpt lat="43.7312678" lon="12.361754"><ele>451.6</ele><time>2026-04-12T15:00:38.013Z</time></trkpt><trkpt lat="43.7313197" lon="12.3616322"><ele>454.2</ele><time>2026-04-12T15:00:40.014Z</time></trkpt><trkpt lat="43.7314193" lon="12.3616"><ele>456.80000000000007</ele><time>2026-04-12T15:00:41.012Z</time></trkpt><trkpt lat="43.7315318" lon="12.3615517"><ele>459.40000000000003</ele><time>2026-04-12T15:00:42.015Z</time></trkpt><trkpt lat="43.731633" lon="12.3614808"><ele>462.0</ele><time>2026-04-12T15:00:43.013Z</time></trkpt><trkpt lat="43.7317002" lon="12.3613881"><ele>464.5</ele><time>2026-04-12T15:00:44.014Z</time></trkpt><trkpt lat="43.7317544" lon="12.3612284"><ele>467.0</ele><time>2026-04-12T15:00:45.014Z</time></trkpt><trkpt lat="43.7317751" lon="12.361026"><ele>469.5</ele><time>2026-04-12T15:00:46.014Z</time></trkpt><trkpt lat="43.7317738" lon="12.3608199"><ele>472.0</ele><time>2026-04-12T15:00:47.011Z</time></trkpt><trkpt lat="43.73175" lon="12.3606221"><ele>475.33333333333337</ele><time>2026-04-12T15:00:48.013Z</time></trkpt><trkpt lat="43.7316895" lon="12.3604402"><ele>478.66666666666663</ele><time>2026-04-12T15:00:49.016Z</time></trkpt><trkpt lat="43.7315865" lon="12.3602745"><ele>482.0</ele><time>2026-04-12T15:00:50.013Z</time></trkpt><trkpt lat="43.7314533" lon="12.3601216"><ele>482.0</ele><time>2026-04-12T15:00:51.015Z</time></trkpt><trkpt lat="43.7313162" lon="12.3599766"><ele>482.0</ele><time>2026-04-12T15:00:52.012Z</time></trkpt><trkpt lat="43.7311997" lon="12.3598261"><ele>482.0</ele><time>2026-04-12T15:00:53.012Z</time></trkpt><trkpt lat="43.7311067" lon="12.3596843"><ele>482.8</ele><time>2026-04-12T15:00:54.012Z</time></trkpt><trkpt lat="43.731042" lon="12.3595547"><ele>483.6</ele><time>2026-04-12T15:00:55.015Z</time></trkpt><trkpt lat="43.7310125" lon="12.3594316"><ele>484.40000000000003</ele><time>2026-04-12T15:00:56.013Z</time></trkpt><trkpt lat="43.7310124" lon="12.3593048"><ele>485.20000000000005</ele><time>2026-04-12T15:00:57.013Z</time></trkpt><trkpt lat="43.7310448" lon="12.3591828"><ele>486.0</ele><time>2026-04-12T15:00:58.014Z</time></trkpt><trkpt lat="43.731096" lon="12.359067"><ele>487.25</ele><time>2026-04-12T15:00:59.015Z</time></trkpt><trkpt lat="43.7311584" lon="12.3589829"><ele>488.5</ele><time>2026-04-12T15:01:00.013Z</time></trkpt><trkpt lat="43.7312789" lon="12.3589705"><ele>489.75</ele><time>2026-04-12T15:01:01.013Z</time></trkpt><trkpt lat="43.7314075" lon="12.3589794"><ele>491.0</ele><time>2026-04-12T15:01:02.015Z</time></trkpt><trkpt lat="43.7315323" lon="12.358964"><ele>491.0</ele><time>2026-04-12T15:01:03.013Z</time></trkpt><trkpt lat="43.7316673" lon="12.3589521"><ele>491.0</ele><time>2026-04-12T15:01:04.014Z</time></trkpt><trkpt lat="43.7318053" lon="12.3589452"><ele>491.0</ele><time>2026-04-12T15:01:05.016Z</time></trkpt><trkpt lat="43.7319438" lon="12.3589173"><ele>491.0</ele><time>2026-04-12T15:01:06.013Z</time></trkpt><trkpt lat="43.7320778" lon="12.358841"><ele>493.66666666666663</ele><time>2026-04-12T15:01:07.013Z</time></trkpt><trkpt lat="43.7322072" lon="12.3587095"><ele>496.33333333333337</ele><time>2026-04-12T15:01:08.014Z</time></trkpt><trkpt lat="43.7323358" lon="12.3585442"><ele>499.0</ele><time>2026-04-12T15:01:09.014Z</time></trkpt><trkpt lat="43.7324831" lon="12.3583827"><ele>499.0</ele><time>2026-04-12T15:01:10.012Z</time></trkpt><trkpt lat="43.7326574" lon="12.3582524"><ele>499.0</ele><time>2026-04-12T15:01:11.015Z</time></trkpt><trkpt lat="43.7328356" lon="12.3581358"><ele>499.0</ele><time>2026-04-12T15:01:12.013Z</time></trkpt><trkpt lat="43.7330005" lon="12.357993"><ele>503.0</ele><time>2026-04-12T15:01:13.013Z</time></trkpt><trkpt lat="43.7331476" lon="12.357806"><ele>507.0</ele><time>2026-04-12T15:01:14.013Z</time></trkpt><trkpt lat="43.7332788" lon="12.3576014"><ele>511.0</ele><time>2026-04-12T15:01:15.014Z</time></trkpt><trkpt lat="43.7334229" lon="12.3574335"><ele>510.6666666666667</ele><time>2026-04-12T15:01:16.014Z</time></trkpt><trkpt lat="43.7335827" lon="12.357294"><ele>510.33333333333337</ele><time>2026-04-12T15:01:17.011Z</time></trkpt><trkpt lat="43.7337498" lon="12.3571848"><ele>510.0</ele><time>2026-04-12T15:01:18.015Z</time></trkpt><trkpt lat="43.7339149" lon="12.3570885"><ele>512.0</ele><time>2026-04-12T15:01:19.013Z</time></trkpt><trkpt lat="43.7340702" lon="12.3569823"><ele>514.0</ele><time>2026-04-12T15:01:20.013Z</time></trkpt><trkpt lat="43.7342157" lon="12.3568657"><ele>516.0</ele><time>2026-04-12T15:01:21.014Z</time></trkpt><trkpt lat="43.7343409" lon="12.3567203"><ele>516.3333333333334</ele><time>2026-04-12T15:01:22.013Z</time></trkpt><trkpt lat="43.7344493" lon="12.3565209"><ele>516.6666666666667</ele><time>2026-04-12T15:01:23.012Z</time></trkpt><trkpt lat="43.7345454" lon="12.3562687"><ele>517.0</ele><time>2026-04-12T15:01:24.013Z</time></trkpt><trkpt lat="43.7346236" lon="12.3559936"><ele>517.0</ele><time>2026-04-12T15:01:25.014Z</time></trkpt><trkpt lat="43.7347023" lon="12.3557511"><ele>517.0</ele><time>2026-04-12T15:01:26.016Z</time></trkpt><trkpt lat="43.7347866" lon="12.3555392"><ele>517.0</ele><time>2026-04-12T15:01:27.018Z</time></trkpt><trkpt lat="43.7348847" lon="12.3553601"><ele>519.0</ele><time>2026-04-12T15:01:28.012Z</time></trkpt><trkpt lat="43.7350044" lon="12.3552019"><ele>521.0</ele><time>2026-04-12T15:01:29.012Z</time></trkpt><trkpt lat="43.7351519" lon="12.3550729"><ele>523.0</ele><time>2026-04-12T15:01:30.014Z</time></trkpt><trkpt lat="43.7353153" lon="12.354964"><ele>523.3333333333334</ele><time>2026-04-12T15:01:31.013Z</time></trkpt><trkpt lat="43.735487" lon="12.354857"><ele>523.6666666666666</ele><time>2026-04-12T15:01:32.014Z</time></trkpt><trkpt lat="43.7356517" lon="12.3547539"><ele>524.0</ele><time>2026-04-12T15:01:33.014Z</time></trkpt><trkpt lat="43.7358014" lon="12.3546738"><ele>526.25</ele><time>2026-04-12T15:01:34.013Z</time></trkpt><trkpt lat="43.7359462" lon="12.354612"><ele>528.5</ele><time>2026-04-12T15:01:35.011Z</time></trkpt><trkpt lat="43.7360826" lon="12.3545976"><ele>530.75</ele><time>2026-04-12T15:01:36.013Z</time></trkpt><trkpt lat="43.7362117" lon="12.3546249"><ele>533.0</ele><time>2026-04-12T15:01:37.012Z</time></trkpt><trkpt lat="43.7363247" lon="12.3546952"><ele>535.25</ele><time>2026-04-12T15:01:38.014Z</time></trkpt><trkpt lat="43.7364095" lon="12.3548148"><ele>537.5</ele><time>2026-04-12T15:01:39.013Z</time></trkpt><trkpt lat="43.7364677" lon="12.3549795"><ele>539.75</ele><time>2026-04-12T15:01:40.013Z</time></trkpt><trkpt lat="43.7365039" lon="12.3551851"><ele>542.0</ele><time>2026-04-12T15:01:41.016Z</time></trkpt><trkpt lat="43.7365251" lon="12.355438"><ele>540.3333333333333</ele><time>2026-04-12T15:01:42.013Z</time></trkpt><trkpt lat="43.7365574" lon="12.3556894"><ele>538.6666666666666</ele><time>2026-04-12T15:01:43.013Z</time></trkpt><trkpt lat="43.7365915" lon="12.355915"><ele>537.0</ele><time>2026-04-12T15:01:44.012Z</time></trkpt><trkpt lat="43.736634" lon="12.3561109"><ele>537.0</ele><time>2026-04-12T15:01:45.012Z</time></trkpt><trkpt lat="43.7366884" lon="12.3562741"><ele>537.0</ele><time>2026-04-12T15:01:46.011Z</time></trkpt><trkpt lat="43.7367539" lon="12.3564016"><ele>537.0</ele><time>2026-04-12T15:01:47.013Z</time></trkpt><trkpt lat="43.7368268" lon="12.3564941"><ele>537.0</ele><time>2026-04-12T15:01:48.015Z</time></trkpt><trkpt lat="43.7369185" lon="12.3565525"><ele>537.0</ele><time>2026-04-12T15:01:49.013Z</time></trkpt><trkpt lat="43.7370644" lon="12.356577"><ele>538.0</ele><time>2026-04-12T15:01:50.013Z</time></trkpt><trkpt lat="43.7372329" lon="12.3565689"><ele>539.0</ele><time>2026-04-12T15:01:51.015Z</time></trkpt><trkpt lat="43.7373914" lon="12.3565611"><ele>540.0</ele><time>2026-04-12T15:01:52.013Z</time></trkpt><trkpt lat="43.7376209" lon="12.356492"><ele>541.0</ele><time>2026-04-12T15:01:53.014Z</time></trkpt><trkpt lat="43.7378255" lon="12.3564456"><ele>542.0</ele><time>2026-04-12T15:01:54.013Z</time></trkpt><trkpt lat="43.7380229" lon="12.356414"><ele>543.0</ele><time>2026-04-12T15:01:55.014Z</time></trkpt><trkpt lat="43.7381966" lon="12.3563813"><ele>545.75</ele><time>2026-04-12T15:01:56.013Z</time></trkpt><trkpt lat="43.7383431" lon="12.3563364"><ele>548.5</ele><time>2026-04-12T15:01:57.012Z</time></trkpt><trkpt lat="43.7384565" lon="12.3562654"><ele>551.25</ele><time>2026-04-12T15:01:58.014Z</time></trkpt><trkpt lat="43.7385284" lon="12.3561683"><ele>554.0</ele><time>2026-04-12T15:01:59.013Z</time></trkpt><trkpt lat="43.7385839" lon="12.3560712"><ele>554.0</ele><time>2026-04-12T15:02:00.013Z</time></trkpt><trkpt lat="43.7385774" lon="12.3559558"><ele>554.0</ele><time>2026-04-12T15:02:01.014Z</time></trkpt><trkpt lat="43.7385267" lon="12.355827"><ele>554.0</ele><time>2026-04-12T15:02:02.012Z</time></trkpt><trkpt lat="43.7383963" lon="12.3557176"><ele>554.0</ele><time>2026-04-12T15:02:03.015Z</time></trkpt><trkpt lat="43.7382599" lon="12.3556326"><ele>554.0</ele><time>2026-04-12T15:02:04.014Z</time></trkpt><trkpt lat="43.7381122" lon="12.3555598"><ele>554.0</ele><time>2026-04-12T15:02:05.012Z</time></trkpt><trkpt lat="43.7379784" lon="12.3554916"><ele>554.0</ele><time>2026-04-12T15:02:06.014Z</time></trkpt><trkpt lat="43.7378665" lon="12.3554312"><ele>554.0</ele><time>2026-04-12T15:02:07.013Z</time></trkpt><trkpt lat="43.737783" lon="12.3553564"><ele>555.4</ele><time>2026-04-12T15:02:08.014Z</time></trkpt><trkpt lat="43.7377334" lon="12.3552638"><ele>556.8</ele><time>2026-04-12T15:02:09.012Z</time></trkpt><trkpt lat="43.7377039" lon="12.3551618"><ele>558.2</ele><time>2026-04-12T15:02:10.014Z</time></trkpt><trkpt lat="43.7376975" lon="12.3550556"><ele>559.6</ele><time>2026-04-12T15:02:11.014Z</time></trkpt><trkpt lat="43.7377513" lon="12.3549087"><ele>561.0</ele><time>2026-04-12T15:02:12.013Z</time></trkpt><trkpt lat="43.7378412" lon="12.354756"><ele>563.0</ele><time>2026-04-12T15:02:13.013Z</time></trkpt><trkpt lat="43.737971" lon="12.3546191"><ele>565.0</ele><time>2026-04-12T15:02:14.015Z</time></trkpt><trkpt lat="43.7381386" lon="12.3544991"><ele>567.0</ele><time>2026-04-12T15:02:15.013Z</time></trkpt><trkpt lat="43.7383179" lon="12.3543865"><ele>567.0</ele><time>2026-04-12T15:02:16.014Z</time></trkpt><trkpt lat="43.7384722" lon="12.3542955"><ele>567.0</ele><time>2026-04-12T15:02:17.012Z</time></trkpt><trkpt lat="43.7385947" lon="12.3542034"><ele>567.0</ele><time>2026-04-12T15:02:18.013Z</time></trkpt><trkpt lat="43.7386832" lon="12.3540939"><ele>567.0</ele><time>2026-04-12T15:02:19.015Z</time></trkpt><trkpt lat="43.7387463" lon="12.3539892"><ele>568.2</ele><time>2026-04-12T15:02:20.014Z</time></trkpt><trkpt lat="43.7387694" lon="12.3538833"><ele>569.4000000000001</ele><time>2026-04-12T15:02:21.013Z</time></trkpt><trkpt lat="43.7387457" lon="12.3537673"><ele>570.5999999999999</ele><time>2026-04-12T15:02:22.014Z</time></trkpt><trkpt lat="43.7386857" lon="12.35366"><ele>571.8</ele><time>2026-04-12T15:02:23.014Z</time></trkpt><trkpt lat="43.7385732" lon="12.3535442"><ele>573.0</ele><time>2026-04-12T15:02:24.014Z</time></trkpt><trkpt lat="43.7384334" lon="12.3534475"><ele>574.3333333333334</ele><time>2026-04-12T15:02:25.013Z</time></trkpt><trkpt lat="43.7382916" lon="12.3533469"><ele>575.6666666666667</ele><time>2026-04-12T15:02:26.011Z</time></trkpt><trkpt lat="43.7381611" lon="12.3532219"><ele>577.0</ele><time>2026-04-12T15:02:27.013Z</time></trkpt><trkpt lat="43.7380647" lon="12.3530767"><ele>579.75</ele><time>2026-04-12T15:02:28.011Z</time></trkpt><trkpt lat="43.7380043" lon="12.3529175"><ele>582.5</ele><time>2026-04-12T15:02:29.012Z</time></trkpt><trkpt lat="43.7379781" lon="12.3527486"><ele>585.25</ele><time>2026-04-12T15:02:30.012Z</time></trkpt><trkpt lat="43.7379946" lon="12.3525805"><ele>588.0</ele><time>2026-04-12T15:02:31.013Z</time></trkpt><trkpt lat="43.738054" lon="12.3524314"><ele>588.0</ele><time>2026-04-12T15:02:32.013Z</time></trkpt><trkpt lat="43.7381514" lon="12.3523064"><ele>588.0</ele><time>2026-04-12T15:02:33.014Z</time></trkpt><trkpt lat="43.7382764" lon="12.3522094"><ele>588.0</ele><time>2026-04-12T15:02:34.014Z</time></trkpt><trkpt lat="43.738423" lon="12.3521166"><ele>588.0</ele><time>2026-04-12T15:02:35.013Z</time></trkpt><trkpt lat="43.7385884" lon="12.352024"><ele>589.3333333333334</ele><time>2026-04-12T15:02:36.014Z</time></trkpt><trkpt lat="43.7387595" lon="12.3519321"><ele>590.6666666666667</ele><time>2026-04-12T15:02:37.014Z</time></trkpt><trkpt lat="43.7389199" lon="12.3518567"><ele>592.0</ele><time>2026-04-12T15:02:38.013Z</time></trkpt><trkpt lat="43.7390623" lon="12.3518232"><ele>592.0</ele><time>2026-04-12T15:02:39.014Z</time></trkpt><trkpt lat="43.7391988" lon="12.3518109"><ele>592.0</ele><time>2026-04-12T15:02:40.014Z</time></trkpt><trkpt lat="43.7393307" lon="12.3518594"><ele>592.0</ele><time>2026-04-12T15:02:41.014Z</time></trkpt><trkpt lat="43.7394719" lon="12.3519697"><ele>592.0</ele><time>2026-04-12T15:02:42.014Z</time></trkpt><trkpt lat="43.7396145" lon="12.352121"><ele>593.0</ele><time>2026-04-12T15:02:43.014Z</time></trkpt><trkpt lat="43.7397378" lon="12.3522768"><ele>594.0</ele><time>2026-04-12T15:02:44.012Z</time></trkpt><trkpt lat="43.7398353" lon="12.3524234"><ele>595.0</ele><time>2026-04-12T15:02:45.013Z</time></trkpt><trkpt lat="43.7398813" lon="12.3526197"><ele>595.0</ele><time>2026-04-12T15:02:46.014Z</time></trkpt><trkpt lat="43.7399183" lon="12.3528216"><ele>595.0</ele><time>2026-04-12T15:02:47.012Z</time></trkpt><trkpt lat="43.7399395" lon="12.3530125"><ele>595.0</ele><time>2026-04-12T15:02:48.014Z</time></trkpt><trkpt lat="43.7399751" lon="12.3531764"><ele>595.0</ele><time>2026-04-12T15:02:49.015Z</time></trkpt><trkpt lat="43.740036" lon="12.3533271"><ele>593.3333333333334</ele><time>2026-04-12T15:02:50.01Z</time></trkpt><trkpt lat="43.7401294" lon="12.3534603"><ele>591.6666666666666</ele><time>2026-04-12T15:02:51.013Z</time></trkpt><trkpt lat="43.740255" lon="12.3535749"><ele>590.0</ele><time>2026-04-12T15:02:52.015Z</time></trkpt><trkpt lat="43.7404242" lon="12.353664"><ele>593.3333333333333</ele><time>2026-04-12T15:02:53.012Z</time></trkpt><trkpt lat="43.7406215" lon="12.35374"><ele>596.6666666666666</ele><time>2026-04-12T15:02:54.016Z</time></trkpt><trkpt lat="43.7408212" lon="12.3538214"><ele>600.0</ele><time>2026-04-12T15:02:55.014Z</time></trkpt><trkpt lat="43.7410611" lon="12.3538895"><ele>601.0</ele><time>2026-04-12T15:02:56.013Z</time></trkpt><trkpt lat="43.7412976" lon="12.3539628"><ele>602.0</ele><time>2026-04-12T15:02:57.014Z</time></trkpt><trkpt lat="43.7415332" lon="12.3540472"><ele>602.0</ele><time>2026-04-12T15:02:58.013Z</time></trkpt><trkpt lat="43.7417444" lon="12.3541313"><ele>602.0</ele><time>2026-04-12T15:02:59.017Z</time></trkpt><trkpt lat="43.7419317" lon="12.3542071"><ele>602.0</ele><time>2026-04-12T15:03:00.013Z</time></trkpt><trkpt lat="43.7421019" lon="12.354279"><ele>605.0</ele><time>2026-04-12T15:03:01.013Z</time></trkpt><trkpt lat="43.7422712" lon="12.3543374"><ele>608.0</ele><time>2026-04-12T15:03:02.014Z</time></trkpt><trkpt lat="43.7424385" lon="12.3543662"><ele>611.0</ele><time>2026-04-12T15:03:03.015Z</time></trkpt><trkpt lat="43.7425911" lon="12.3543612"><ele>610.3333333333333</ele><time>2026-04-12T15:03:04.013Z</time></trkpt><trkpt lat="43.74274" lon="12.3543364"><ele>609.6666666666666</ele><time>2026-04-12T15:03:05.014Z</time></trkpt><trkpt lat="43.7428868" lon="12.3542443"><ele>609.0</ele><time>2026-04-12T15:03:06.013Z</time></trkpt><trkpt lat="43.7430297" lon="12.3541048"><ele>609.0</ele><time>2026-04-12T15:03:07.013Z</time></trkpt><trkpt lat="43.7431694" lon="12.3539236"><ele>609.0</ele><time>2026-04-12T15:03:08.013Z</time></trkpt><trkpt lat="43.7433144" lon="12.3537136"><ele>609.0</ele><time>2026-04-12T15:03:09.012Z</time></trkpt><trkpt lat="43.7434561" lon="12.3535041"><ele>611.0</ele><time>2026-04-12T15:03:10.013Z</time></trkpt><trkpt lat="43.7436118" lon="12.353266"><ele>613.0</ele><time>2026-04-12T15:03:11.014Z</time></trkpt><trkpt lat="43.7437614" lon="12.353028"><ele>617.0</ele><time>2026-04-12T15:03:12.014Z</time></trkpt><trkpt lat="43.7439117" lon="12.3527806"><ele>621.0</ele><time>2026-04-12T15:03:13.016Z</time></trkpt><trkpt lat="43.7440635" lon="12.3525468"><ele>621.0</ele><time>2026-04-12T15:03:14.013Z</time></trkpt><trkpt lat="43.7442267" lon="12.352345"><ele>621.0</ele><time>2026-04-12T15:03:15.013Z</time></trkpt><trkpt lat="43.74437" lon="12.3521283"><ele>621.0</ele><time>2026-04-12T15:03:16.013Z</time></trkpt><trkpt lat="43.7445067" lon="12.3519283"><ele>622.0</ele><time>2026-04-12T15:03:17.012Z</time></trkpt><trkpt lat="43.74464" lon="12.3517367"><ele>623.0</ele><time>2026-04-12T15:03:18.013Z</time></trkpt><trkpt lat="43.7447783" lon="12.3515483"><ele>624.0</ele><time>2026-04-12T15:03:19.014Z</time></trkpt><trkpt lat="43.74492" lon="12.3513567"><ele>625.3333333333334</ele><time>2026-04-12T15:03:20.013Z</time></trkpt><trkpt lat="43.7450667" lon="12.3511667"><ele>626.6666666666667</ele><time>2026-04-12T15:03:21.014Z</time></trkpt><trkpt lat="43.74521" lon="12.3509717"><ele>628.0</ele><time>2026-04-12T15:03:22.012Z</time></trkpt><trkpt lat="43.7453433" lon="12.350775"><ele>628.0</ele><time>2026-04-12T15:03:23.011Z</time></trkpt><trkpt lat="43.7454683" lon="12.3505867"><ele>628.0</ele><time>2026-04-12T15:03:24.013Z</time></trkpt><trkpt lat="43.7455867" lon="12.350405"><ele>628.0</ele><time>2026-04-12T15:03:25.013Z</time></trkpt><trkpt lat="43.745705" lon="12.3501883"><ele>629.6666666666667</ele><time>2026-04-12T15:03:26.013Z</time></trkpt><trkpt lat="43.7458133" lon="12.3499717"><ele>631.3333333333334</ele><time>2026-04-12T15:03:27.016Z</time></trkpt><trkpt lat="43.7459217" lon="12.349785"><ele>633.0</ele><time>2026-04-12T15:03:28.015Z</time></trkpt><trkpt lat="43.7460333" lon="12.34962"><ele>636.3333333333334</ele><time>2026-04-12T15:03:29.013Z</time></trkpt><trkpt lat="43.7461567" lon="12.3494783"><ele>639.6666666666667</ele><time>2026-04-12T15:03:30.013Z</time></trkpt><trkpt lat="43.7463" lon="12.3493583"><ele>643.0</ele><time>2026-04-12T15:03:31.014Z</time></trkpt><trkpt lat="43.7464667" lon="12.3492817"><ele>643.0</ele><time>2026-04-12T15:03:32.014Z</time></trkpt><trkpt lat="43.7466333" lon="12.349245"><ele>643.0</ele><time>2026-04-12T15:03:33.015Z</time></trkpt><trkpt lat="43.7467883" lon="12.3492317"><ele>643.0</ele><time>2026-04-12T15:03:34.013Z</time></trkpt><trkpt lat="43.7469367" lon="12.3492533"><ele>648.3333333333334</ele><time>2026-04-12T15:03:35.016Z</time></trkpt><trkpt lat="43.7470933" lon="12.3493233"><ele>653.6666666666666</ele><time>2026-04-12T15:03:36.012Z</time></trkpt><trkpt lat="43.7472567" lon="12.34942"><ele>659.0</ele><time>2026-04-12T15:03:37.013Z</time></trkpt><trkpt lat="43.7474067" lon="12.34952"><ele>659.0</ele><time>2026-04-12T15:03:38.012Z</time></trkpt><trkpt lat="43.7475567" lon="12.34962"><ele>659.0</ele><time>2026-04-12T15:03:39.013Z</time></trkpt><trkpt lat="43.7477083" lon="12.349725"><ele>659.0</ele><time>2026-04-12T15:03:40.013Z</time></trkpt><trkpt lat="43.747865" lon="12.3498367"><ele>660.6666666666666</ele><time>2026-04-12T15:03:41.011Z</time></trkpt><trkpt lat="43.7480167" lon="12.349945"><ele>662.3333333333334</ele><time>2026-04-12T15:03:42.015Z</time></trkpt><trkpt lat="43.7481683" lon="12.350045"><ele>664.0</ele><time>2026-04-12T15:03:43.013Z</time></trkpt><trkpt lat="43.7483217" lon="12.3501367"><ele>664.0</ele><time>2026-04-12T15:03:44.014Z</time></trkpt><trkpt lat="43.7484717" lon="12.3502167"><ele>664.0</ele><time>2026-04-12T15:03:45.014Z</time></trkpt><trkpt lat="43.748625" lon="12.3502917"><ele>664.0</ele><time>2026-04-12T15:03:46.011Z</time></trkpt><trkpt lat="43.74878" lon="12.35036"><ele>666.6666666666667</ele><time>2026-04-12T15:03:47.015Z</time></trkpt><trkpt lat="43.7489283" lon="12.3504"><ele>669.3333333333334</ele><time>2026-04-12T15:03:48.014Z</time></trkpt><trkpt lat="43.749085" lon="12.3504167"><ele>672.0</ele><time>2026-04-12T15:03:49.013Z</time></trkpt><trkpt lat="43.7492406" lon="12.3504206"><ele>670.6666666666666</ele><time>2026-04-12T15:03:50.013Z</time></trkpt><trkpt lat="43.7493949" lon="12.3503832"><ele>669.3333333333333</ele><time>2026-04-12T15:03:51.014Z</time></trkpt><trkpt lat="43.7495546" lon="12.3503"><ele>668.0</ele><time>2026-04-12T15:03:52.012Z</time></trkpt><trkpt lat="43.7497118" lon="12.3501888"><ele>668.0</ele><time>2026-04-12T15:03:53.012Z</time></trkpt><trkpt lat="43.7498573" lon="12.3500656"><ele>668.0</ele><time>2026-04-12T15:03:54.011Z</time></trkpt><trkpt lat="43.7499808" lon="12.3499309"><ele>668.0</ele><time>2026-04-12T15:03:55.013Z</time></trkpt><trkpt lat="43.7500848" lon="12.3497607"><ele>671.3333333333333</ele><time>2026-04-12T15:03:56.013Z</time></trkpt><trkpt lat="43.7501783" lon="12.3495659"><ele>674.6666666666666</ele><time>2026-04-12T15:03:57.013Z</time></trkpt><trkpt lat="43.7502635" lon="12.3493662"><ele>678.0</ele><time>2026-04-12T15:03:58.014Z</time></trkpt><trkpt lat="43.7503409" lon="12.349186"><ele>678.0</ele><time>2026-04-12T15:03:59.012Z</time></trkpt><trkpt lat="43.7504298" lon="12.3490366"><ele>678.0</ele><time>2026-04-12T15:04:00.019Z</time></trkpt><trkpt lat="43.7505415" lon="12.3489271"><ele>678.0</ele><time>2026-04-12T15:04:01.013Z</time></trkpt><trkpt lat="43.7506768" lon="12.3488491"><ele>678.0</ele><time>2026-04-12T15:04:02.013Z</time></trkpt><trkpt lat="43.750824" lon="12.3487972"><ele>687.0</ele><time>2026-04-12T15:04:03.013Z</time></trkpt><trkpt lat="43.7509784" lon="12.3487535"><ele>696.0</ele><time>2026-04-12T15:04:04.014Z</time></trkpt><trkpt lat="43.7511371" lon="12.3487095"><ele>705.0</ele><time>2026-04-12T15:04:05.014Z</time></trkpt><trkpt lat="43.7513107" lon="12.3486607"><ele>705.0</ele><time>2026-04-12T15:04:06.014Z</time></trkpt><trkpt lat="43.751479" lon="12.3486091"><ele>705.0</ele><time>2026-04-12T15:04:07.013Z</time></trkpt><trkpt lat="43.7516239" lon="12.3485688"><ele>705.0</ele><time>2026-04-12T15:04:08.012Z</time></trkpt><trkpt lat="43.7517444" lon="12.348539"><ele>705.0</ele><time>2026-04-12T15:04:09.017Z</time></trkpt><trkpt lat="43.7518503" lon="12.3484872"><ele>705.5</ele><time>2026-04-12T15:04:10.014Z</time></trkpt><trkpt lat="43.7519517" lon="12.3484094"><ele>706.0</ele><time>2026-04-12T15:04:11.015Z</time></trkpt><trkpt lat="43.7520335" lon="12.3483446"><ele>706.5</ele><time>2026-04-12T15:04:12.014Z</time></trkpt><trkpt lat="43.7521038" lon="12.3483148"><ele>707.0</ele><time>2026-04-12T15:04:13.013Z</time></trkpt><trkpt lat="43.7521776" lon="12.3483169"><ele>707.5</ele><time>2026-04-12T15:04:14.011Z</time></trkpt><trkpt lat="43.7522493" lon="12.34833"><ele>708.0</ele><time>2026-04-12T15:04:15.013Z</time></trkpt><trkpt lat="43.7523308" lon="12.3484235"><ele>708.0</ele><time>2026-04-12T15:04:17.013Z</time></trkpt><trkpt lat="43.7523347" lon="12.3485456"><ele>708.0</ele><time>2026-04-12T15:04:18.014Z</time></trkpt><trkpt lat="43.7522925" lon="12.3488854"><ele>708.0</ele><time>2026-04-12T15:04:19.014Z</time></trkpt><trkpt lat="43.7522428" lon="12.3491515"><ele>706.3333333333334</ele><time>2026-04-12T15:04:20.013Z</time></trkpt><trkpt lat="43.7522069" lon="12.3494006"><ele>704.6666666666667</ele><time>2026-04-12T15:04:21.014Z</time></trkpt><trkpt lat="43.7521813" lon="12.3496157"><ele>703.0</ele><time>2026-04-12T15:04:22.014Z</time></trkpt><trkpt lat="43.7521633" lon="12.349805"><ele>702.6666666666667</ele><time>2026-04-12T15:04:23.01Z</time></trkpt><trkpt lat="43.7521883" lon="12.3499917"><ele>702.3333333333334</ele><time>2026-04-12T15:04:24.013Z</time></trkpt><trkpt lat="43.7522617" lon="12.3501783"><ele>702.0</ele><time>2026-04-12T15:04:25.014Z</time></trkpt><trkpt lat="43.7523567" lon="12.3503583"><ele>698.0</ele><time>2026-04-12T15:04:26.014Z</time></trkpt><trkpt lat="43.752445" lon="12.3505467"><ele>694.0</ele><time>2026-04-12T15:04:27.014Z</time></trkpt><trkpt lat="43.75254" lon="12.3507267"><ele>690.0</ele><time>2026-04-12T15:04:28.011Z</time></trkpt><trkpt lat="43.75263" lon="12.3508767"><ele>693.0</ele><time>2026-04-12T15:04:29.014Z</time></trkpt><trkpt lat="43.7527133" lon="12.3510017"><ele>696.0</ele><time>2026-04-12T15:04:30.011Z</time></trkpt><trkpt lat="43.7527967" lon="12.3510983"><ele>699.0</ele><time>2026-04-12T15:04:31.014Z</time></trkpt><trkpt lat="43.7529033" lon="12.35113"><ele>702.0</ele><time>2026-04-12T15:04:32.015Z</time></trkpt><trkpt lat="43.7530233" lon="12.35113"><ele>702.0</ele><time>2026-04-12T15:04:33.012Z</time></trkpt><trkpt lat="43.7531767" lon="12.3510933"><ele>702.0</ele><time>2026-04-12T15:04:34.017Z</time></trkpt><trkpt lat="43.7533467" lon="12.35104"><ele>702.0</ele><time>2026-04-12T15:04:35.012Z</time></trkpt><trkpt lat="43.7535483" lon="12.3509517"><ele>701.6666666666666</ele><time>2026-04-12T15:04:36.012Z</time></trkpt><trkpt lat="43.7537533" lon="12.35084"><ele>701.3333333333333</ele><time>2026-04-12T15:04:37.014Z</time></trkpt><trkpt lat="43.7539667" lon="12.3507367"><ele>701.0</ele><time>2026-04-12T15:04:38.013Z</time></trkpt><trkpt lat="43.7541817" lon="12.3506367"><ele>703.3333333333333</ele><time>2026-04-12T15:04:39.019Z</time></trkpt><trkpt lat="43.7543967" lon="12.350565"><ele>705.6666666666666</ele><time>2026-04-12T15:04:40.012Z</time></trkpt><trkpt lat="43.7546133" lon="12.350515"><ele>708.0</ele><time>2026-04-12T15:04:41.013Z</time></trkpt><trkpt lat="43.75482" lon="12.3504717"><ele>715.0</ele><time>2026-04-12T15:04:42.013Z</time></trkpt><trkpt lat="43.75501" lon="12.3504367"><ele>722.0</ele><time>2026-04-12T15:04:43.015Z</time></trkpt><trkpt lat="43.7552033" lon="12.350435"><ele>729.0</ele><time>2026-04-12T15:04:44.013Z</time></trkpt><trkpt lat="43.7553933" lon="12.3504283"><ele>730.3333333333334</ele><time>2026-04-12T15:04:45.014Z</time></trkpt><trkpt lat="43.7555817" lon="12.3504383"><ele>731.6666666666667</ele><time>2026-04-12T15:04:46.014Z</time></trkpt><trkpt lat="43.755765" lon="12.3504767"><ele>733.0</ele><time>2026-04-12T15:04:47.014Z</time></trkpt><trkpt lat="43.755945" lon="12.3505317"><ele>730.3333333333334</ele><time>2026-04-12T15:04:48.013Z</time></trkpt><trkpt lat="43.75611" lon="12.350585"><ele>727.6666666666666</ele><time>2026-04-12T15:04:49.012Z</time></trkpt><trkpt lat="43.756275" lon="12.35065"><ele>725.0</ele><time>2026-04-12T15:04:50.016Z</time></trkpt><trkpt lat="43.7564467" lon="12.3506983"><ele>725.0</ele><time>2026-04-12T15:04:51.014Z</time></trkpt><trkpt lat="43.756625" lon="12.35072"><ele>725.0</ele><time>2026-04-12T15:04:52.011Z</time></trkpt><trkpt lat="43.7567967" lon="12.3507333"><ele>725.0</ele><time>2026-04-12T15:04:53.012Z</time></trkpt><trkpt lat="43.7569633" lon="12.3507517"><ele>726.0</ele><time>2026-04-12T15:04:54.014Z</time></trkpt><trkpt lat="43.7571083" lon="12.3507583"><ele>727.0</ele><time>2026-04-12T15:04:55.013Z</time></trkpt><trkpt lat="43.7572633" lon="12.350745"><ele>728.0</ele><time>2026-04-12T15:04:56.014Z</time></trkpt><trkpt lat="43.757435" lon="12.350705"><ele>728.0</ele><time>2026-04-12T15:04:57.014Z</time></trkpt><trkpt lat="43.757585" lon="12.35063"><ele>728.0</ele><time>2026-04-12T15:04:58.012Z</time></trkpt><trkpt lat="43.7577433" lon="12.35053"><ele>728.0</ele><time>2026-04-12T15:04:59.015Z</time></trkpt><trkpt lat="43.7578833" lon="12.35042"><ele>729.6666666666666</ele><time>2026-04-12T15:05:00.013Z</time></trkpt><trkpt lat="43.758" lon="12.3502717"><ele>731.3333333333334</ele><time>2026-04-12T15:05:01.015Z</time></trkpt><trkpt lat="43.7581233" lon="12.3500967"><ele>733.0</ele><time>2026-04-12T15:05:02.014Z</time></trkpt><trkpt lat="43.7582317" lon="12.3499133"><ele>733.0</ele><time>2026-04-12T15:05:03.014Z</time></trkpt><trkpt lat="43.7583467" lon="12.3497317"><ele>733.0</ele><time>2026-04-12T15:05:04.013Z</time></trkpt><trkpt lat="43.7584717" lon="12.349555"><ele>733.0</ele><time>2026-04-12T15:05:05.018Z</time></trkpt><trkpt lat="43.7586017" lon="12.3493883"><ele>732.0</ele><time>2026-04-12T15:05:06.013Z</time></trkpt><trkpt lat="43.7587383" lon="12.3492533"><ele>731.0</ele><time>2026-04-12T15:05:07.012Z</time></trkpt><trkpt lat="43.7588817" lon="12.349145"><ele>730.0</ele><time>2026-04-12T15:05:08.013Z</time></trkpt><trkpt lat="43.7590267" lon="12.3490667"><ele>730.0</ele><time>2026-04-12T15:05:09.015Z</time></trkpt><trkpt lat="43.75918" lon="12.349025"><ele>730.0</ele><time>2026-04-12T15:05:10.015Z</time></trkpt><trkpt lat="43.7593367" lon="12.34903"><ele>730.0</ele><time>2026-04-12T15:05:11.013Z</time></trkpt><trkpt lat="43.7594983" lon="12.3490667"><ele>731.3333333333334</ele><time>2026-04-12T15:05:12.013Z</time></trkpt><trkpt lat="43.7596717" lon="12.34913"><ele>732.6666666666666</ele><time>2026-04-12T15:05:13.012Z</time></trkpt><trkpt lat="43.7598417" lon="12.3491883"><ele>734.0</ele><time>2026-04-12T15:05:14.014Z</time></trkpt><trkpt lat="43.7600133" lon="12.3492417"><ele>734.0</ele><time>2026-04-12T15:05:15.014Z</time></trkpt><trkpt lat="43.760175" lon="12.3492667"><ele>734.0</ele><time>2026-04-12T15:05:16.013Z</time></trkpt><trkpt lat="43.7603383" lon="12.3492583"><ele>734.0</ele><time>2026-04-12T15:05:17.013Z</time></trkpt><trkpt lat="43.760505" lon="12.3492083"><ele>731.6666666666666</ele><time>2026-04-12T15:05:18.013Z</time></trkpt><trkpt lat="43.7606617" lon="12.3491333"><ele>729.3333333333334</ele><time>2026-04-12T15:05:19.013Z</time></trkpt><trkpt lat="43.7608183" lon="12.3490533"><ele>727.0</ele><time>2026-04-12T15:05:20.012Z</time></trkpt><trkpt lat="43.7609783" lon="12.3489933"><ele>726.3333333333334</ele><time>2026-04-12T15:05:21.014Z</time></trkpt><trkpt lat="43.761155" lon="12.3489567"><ele>725.6666666666666</ele><time>2026-04-12T15:05:22.015Z</time></trkpt><trkpt lat="43.76133" lon="12.3489383"><ele>725.0</ele><time>2026-04-12T15:05:23.012Z</time></trkpt><trkpt lat="43.761505" lon="12.34894"><ele>725.0</ele><time>2026-04-12T15:05:24.012Z</time></trkpt><trkpt lat="43.7616733" lon="12.3489433"><ele>725.0</ele><time>2026-04-12T15:05:25.012Z</time></trkpt><trkpt lat="43.76184" lon="12.3489517"><ele>725.0</ele><time>2026-04-12T15:05:26.013Z</time></trkpt><trkpt lat="43.7620017" lon="12.3489517"><ele>726.25</ele><time>2026-04-12T15:05:27.017Z</time></trkpt><trkpt lat="43.7621533" lon="12.3489367"><ele>727.5</ele><time>2026-04-12T15:05:28.013Z</time></trkpt><trkpt lat="43.7622983" lon="12.3488933"><ele>728.75</ele><time>2026-04-12T15:05:29.013Z</time></trkpt><trkpt lat="43.7624367" lon="12.3488183"><ele>730.0</ele><time>2026-04-12T15:05:30.014Z</time></trkpt><trkpt lat="43.7625732" lon="12.3487162"><ele>727.3333333333334</ele><time>2026-04-12T15:05:31.013Z</time></trkpt><trkpt lat="43.7627166" lon="12.3485899"><ele>724.6666666666666</ele><time>2026-04-12T15:05:32.014Z</time></trkpt><trkpt lat="43.7628721" lon="12.3484462"><ele>722.0</ele><time>2026-04-12T15:05:33.015Z</time></trkpt><trkpt lat="43.7630382" lon="12.3482865"><ele>722.0</ele><time>2026-04-12T15:05:34.012Z</time></trkpt><trkpt lat="43.7632183" lon="12.348115"><ele>722.0</ele><time>2026-04-12T15:05:35.012Z</time></trkpt><trkpt lat="43.7634002" lon="12.3479449"><ele>722.0</ele><time>2026-04-12T15:05:36.013Z</time></trkpt><trkpt lat="43.7635723" lon="12.3477877"><ele>723.0</ele><time>2026-04-12T15:05:37.013Z</time></trkpt><trkpt lat="43.7637342" lon="12.3476528"><ele>724.0</ele><time>2026-04-12T15:05:38.014Z</time></trkpt><trkpt lat="43.7638776" lon="12.3475335"><ele>725.0</ele><time>2026-04-12T15:05:39.015Z</time></trkpt><trkpt lat="43.7639926" lon="12.3474125"><ele>725.0</ele><time>2026-04-12T15:05:40.016Z</time></trkpt><trkpt lat="43.7640791" lon="12.3472609"><ele>725.0</ele><time>2026-04-12T15:05:41.014Z</time></trkpt><trkpt lat="43.7641264" lon="12.3471115"><ele>725.0</ele><time>2026-04-12T15:05:42.013Z</time></trkpt><trkpt lat="43.764139" lon="12.3469663"><ele>725.0</ele><time>2026-04-12T15:05:43.015Z</time></trkpt><trkpt lat="43.76412" lon="12.3468059"><ele>724.0</ele><time>2026-04-12T15:05:44.012Z</time></trkpt><trkpt lat="43.7640663" lon="12.3466124"><ele>723.0</ele><time>2026-04-12T15:05:45.013Z</time></trkpt><trkpt lat="43.7639926" lon="12.3463922"><ele>722.0</ele><time>2026-04-12T15:05:46.012Z</time></trkpt><trkpt lat="43.7639346" lon="12.3461839"><ele>722.0</ele><time>2026-04-12T15:05:47.012Z</time></trkpt><trkpt lat="43.7639035" lon="12.3459947"><ele>722.0</ele><time>2026-04-12T15:05:48.014Z</time></trkpt><trkpt lat="43.763899" lon="12.3458199"><ele>722.0</ele><time>2026-04-12T15:05:49.012Z</time></trkpt><trkpt lat="43.7639271" lon="12.3456525"><ele>722.0</ele><time>2026-04-12T15:05:50.014Z</time></trkpt><trkpt lat="43.7639917" lon="12.3454846"><ele>722.75</ele><time>2026-04-12T15:05:51.014Z</time></trkpt><trkpt lat="43.7640855" lon="12.3453321"><ele>723.5</ele><time>2026-04-12T15:05:52.012Z</time></trkpt><trkpt lat="43.7641928" lon="12.3451961"><ele>724.25</ele><time>2026-04-12T15:05:53.011Z</time></trkpt><trkpt lat="43.7643245" lon="12.3450929"><ele>725.0</ele><time>2026-04-12T15:05:54.014Z</time></trkpt><trkpt lat="43.76446" lon="12.344999"><ele>722.3333333333333</ele><time>2026-04-12T15:05:55.013Z</time></trkpt><trkpt lat="43.7645938" lon="12.344892"><ele>719.6666666666666</ele><time>2026-04-12T15:05:56.011Z</time></trkpt><trkpt lat="43.7647366" lon="12.3447721"><ele>717.0</ele><time>2026-04-12T15:05:57.012Z</time></trkpt><trkpt lat="43.764859" lon="12.3446375"><ele>717.0</ele><time>2026-04-12T15:05:58.012Z</time></trkpt><trkpt lat="43.7649645" lon="12.3444861"><ele>717.0</ele><time>2026-04-12T15:05:59.015Z</time></trkpt><trkpt lat="43.7650646" lon="12.3443106"><ele>717.0</ele><time>2026-04-12T15:06:00.014Z</time></trkpt><trkpt lat="43.7651256" lon="12.3441344"><ele>717.0</ele><time>2026-04-12T15:06:01.014Z</time></trkpt><trkpt lat="43.7651423" lon="12.3439359"><ele>717.0</ele><time>2026-04-12T15:06:02.015Z</time></trkpt><trkpt lat="43.7651322" lon="12.3437154"><ele>717.0</ele><time>2026-04-12T15:06:03.013Z</time></trkpt><trkpt lat="43.765114" lon="12.3434953"><ele>716.0</ele><time>2026-04-12T15:06:04.013Z</time></trkpt><trkpt lat="43.7650962" lon="12.3432859"><ele>715.0</ele><time>2026-04-12T15:06:05.014Z</time></trkpt><trkpt lat="43.7650778" lon="12.3430729"><ele>714.0</ele><time>2026-04-12T15:06:06.013Z</time></trkpt><trkpt lat="43.7650752" lon="12.3428453"><ele>713.0</ele><time>2026-04-12T15:06:07.012Z</time></trkpt><trkpt lat="43.7651108" lon="12.3426162"><ele>712.0</ele><time>2026-04-12T15:06:08.013Z</time></trkpt><trkpt lat="43.7651641" lon="12.3424103"><ele>711.0</ele><time>2026-04-12T15:06:09.013Z</time></trkpt><trkpt lat="43.7652463" lon="12.3422295"><ele>711.3333333333334</ele><time>2026-04-12T15:06:10.012Z</time></trkpt><trkpt lat="43.7653582" lon="12.3420709"><ele>711.6666666666667</ele><time>2026-04-12T15:06:11.014Z</time></trkpt><trkpt lat="43.7654819" lon="12.3419464"><ele>712.0</ele><time>2026-04-12T15:06:12.013Z</time></trkpt><trkpt lat="43.7656161" lon="12.3418325"><ele>712.0</ele><time>2026-04-12T15:06:13.014Z</time></trkpt><trkpt lat="43.7657668" lon="12.3417305"><ele>712.0</ele><time>2026-04-12T15:06:14.013Z</time></trkpt><trkpt lat="43.7659372" lon="12.341642"><ele>712.0</ele><time>2026-04-12T15:06:15.013Z</time></trkpt><trkpt lat="43.7661251" lon="12.3415758"><ele>712.0</ele><time>2026-04-12T15:06:16.012Z</time></trkpt><trkpt lat="43.7663378" lon="12.3415354"><ele>712.0</ele><time>2026-04-12T15:06:17.013Z</time></trkpt><trkpt lat="43.7665619" lon="12.3415064"><ele>712.0</ele><time>2026-04-12T15:06:18.013Z</time></trkpt><trkpt lat="43.7667793" lon="12.3414844"><ele>712.6666666666667</ele><time>2026-04-12T15:06:19.013Z</time></trkpt><trkpt lat="43.7669897" lon="12.341465"><ele>713.3333333333334</ele><time>2026-04-12T15:06:20.014Z</time></trkpt><trkpt lat="43.7672006" lon="12.3414344"><ele>714.0</ele><time>2026-04-12T15:06:21.013Z</time></trkpt><trkpt lat="43.7674148" lon="12.3414017"><ele>715.3333333333334</ele><time>2026-04-12T15:06:22.012Z</time></trkpt><trkpt lat="43.7676314" lon="12.3413692"><ele>716.6666666666667</ele><time>2026-04-12T15:06:23.013Z</time></trkpt><trkpt lat="43.7678476" lon="12.3413375"><ele>718.0</ele><time>2026-04-12T15:06:24.013Z</time></trkpt><trkpt lat="43.7680633" lon="12.3413079"><ele>718.3333333333334</ele><time>2026-04-12T15:06:25.013Z</time></trkpt><trkpt lat="43.7682802" lon="12.3412808"><ele>718.6666666666666</ele><time>2026-04-12T15:06:26.014Z</time></trkpt><trkpt lat="43.7685009" lon="12.3412529"><ele>719.0</ele><time>2026-04-12T15:06:27.014Z</time></trkpt><trkpt lat="43.7687298" lon="12.3412187"><ele>719.0</ele><time>2026-04-12T15:06:28.017Z</time></trkpt><trkpt lat="43.76896" lon="12.3411681"><ele>719.0</ele><time>2026-04-12T15:06:29.012Z</time></trkpt><trkpt lat="43.7691755" lon="12.3411019"><ele>717.0</ele><time>2026-04-12T15:06:30.012Z</time></trkpt><trkpt lat="43.7693707" lon="12.3410349"><ele>715.0</ele><time>2026-04-12T15:06:31.013Z</time></trkpt><trkpt lat="43.7695546" lon="12.3409699"><ele>713.0</ele><time>2026-04-12T15:06:32.013Z</time></trkpt><trkpt lat="43.7697281" lon="12.34091"><ele>713.0</ele><time>2026-04-12T15:06:33.014Z</time></trkpt><trkpt lat="43.7698899" lon="12.3408526"><ele>713.0</ele><time>2026-04-12T15:06:34.012Z</time></trkpt><trkpt lat="43.7700486" lon="12.3407986"><ele>713.0</ele><time>2026-04-12T15:06:35.012Z</time></trkpt><trkpt lat="43.7702115" lon="12.3407437"><ele>714.0</ele><time>2026-04-12T15:06:36.011Z</time></trkpt><trkpt lat="43.7703787" lon="12.3406814"><ele>715.0</ele><time>2026-04-12T15:06:37.013Z</time></trkpt><trkpt lat="43.7705583" lon="12.3406083"><ele>716.0</ele><time>2026-04-12T15:06:38.013Z</time></trkpt><trkpt lat="43.7707467" lon="12.340535"><ele>718.0</ele><time>2026-04-12T15:06:39.013Z</time></trkpt><trkpt lat="43.7709467" lon="12.34046"><ele>720.0</ele><time>2026-04-12T15:06:40.012Z</time></trkpt><trkpt lat="43.7711533" lon="12.34038"><ele>722.0</ele><time>2026-04-12T15:06:41.011Z</time></trkpt><trkpt lat="43.7713683" lon="12.3403033"><ele>722.0</ele><time>2026-04-12T15:06:42.014Z</time></trkpt><trkpt lat="43.7715767" lon="12.3402267"><ele>722.0</ele><time>2026-04-12T15:06:43.013Z</time></trkpt><trkpt lat="43.7717733" lon="12.3401533"><ele>722.0</ele><time>2026-04-12T15:06:44.013Z</time></trkpt><trkpt lat="43.7719567" lon="12.34009"><ele>722.3333333333333</ele><time>2026-04-12T15:06:45.013Z</time></trkpt><trkpt lat="43.7721283" lon="12.3400317"><ele>722.6666666666666</ele><time>2026-04-12T15:06:46.014Z</time></trkpt><trkpt lat="43.772285" lon="12.3399767"><ele>723.0</ele><time>2026-04-12T15:06:47.012Z</time></trkpt><trkpt lat="43.7724317" lon="12.33991"><ele>723.0</ele><time>2026-04-12T15:06:48.013Z</time></trkpt><trkpt lat="43.7725767" lon="12.33983"><ele>723.0</ele><time>2026-04-12T15:06:49.013Z</time></trkpt><trkpt lat="43.7727017" lon="12.3397167"><ele>723.0</ele><time>2026-04-12T15:06:50.012Z</time></trkpt><trkpt lat="43.7728133" lon="12.3395783"><ele>719.6666666666666</ele><time>2026-04-12T15:06:51.014Z</time></trkpt><trkpt lat="43.7729033" lon="12.33941"><ele>716.3333333333333</ele><time>2026-04-12T15:06:52.011Z</time></trkpt><trkpt lat="43.7729683" lon="12.3392017"><ele>713.0</ele><time>2026-04-12T15:06:53.012Z</time></trkpt><trkpt lat="43.7730117" lon="12.33895"><ele>713.6666666666666</ele><time>2026-04-12T15:06:54.011Z</time></trkpt><trkpt lat="43.7730417" lon="12.3386783"><ele>714.3333333333334</ele><time>2026-04-12T15:06:55.015Z</time></trkpt><trkpt lat="43.7730917" lon="12.3384117"><ele>715.0</ele><time>2026-04-12T15:06:56.014Z</time></trkpt><trkpt lat="43.7731633" lon="12.33817"><ele>718.3333333333334</ele><time>2026-04-12T15:06:57.014Z</time></trkpt><trkpt lat="43.7732567" lon="12.3379517"><ele>721.6666666666666</ele><time>2026-04-12T15:06:58.013Z</time></trkpt><trkpt lat="43.7733733" lon="12.3377583"><ele>725.0</ele><time>2026-04-12T15:06:59.013Z</time></trkpt><trkpt lat="43.77352" lon="12.3375733"><ele>724.3333333333333</ele><time>2026-04-12T15:07:00.014Z</time></trkpt><trkpt lat="43.7736817" lon="12.3373967"><ele>723.6666666666666</ele><time>2026-04-12T15:07:01.016Z</time></trkpt><trkpt lat="43.773835" lon="12.3372317"><ele>723.0</ele><time>2026-04-12T15:07:02.013Z</time></trkpt><trkpt lat="43.7739767" lon="12.3370733"><ele>723.0</ele><time>2026-04-12T15:07:03.013Z</time></trkpt><trkpt lat="43.7741183" lon="12.336935"><ele>723.0</ele><time>2026-04-12T15:07:04.012Z</time></trkpt><trkpt lat="43.774265" lon="12.3368067"><ele>723.0</ele><time>2026-04-12T15:07:05.013Z</time></trkpt><trkpt lat="43.7744183" lon="12.3366833"><ele>720.3333333333334</ele><time>2026-04-12T15:07:06.015Z</time></trkpt><trkpt lat="43.7745767" lon="12.3365717"><ele>717.6666666666667</ele><time>2026-04-12T15:07:07.013Z</time></trkpt><trkpt lat="43.7747333" lon="12.3364733"><ele>715.0</ele><time>2026-04-12T15:07:08.011Z</time></trkpt><trkpt lat="43.7748867" lon="12.3363883"><ele>716.0</ele><time>2026-04-12T15:07:09.013Z</time></trkpt><trkpt lat="43.7750467" lon="12.3363267"><ele>717.0</ele><time>2026-04-12T15:07:10.012Z</time></trkpt><trkpt lat="43.7752217" lon="12.3362917"><ele>718.0</ele><time>2026-04-12T15:07:11.014Z</time></trkpt><trkpt lat="43.775415" lon="12.33629"><ele>718.0</ele><time>2026-04-12T15:07:12.013Z</time></trkpt><trkpt lat="43.7756167" lon="12.3363"><ele>718.0</ele><time>2026-04-12T15:07:13.013Z</time></trkpt><trkpt lat="43.775825" lon="12.33631"><ele>718.0</ele><time>2026-04-12T15:07:14.014Z</time></trkpt><trkpt lat="43.77603" lon="12.336315"><ele>719.6666666666667</ele><time>2026-04-12T15:07:15.013Z</time></trkpt><trkpt lat="43.7762317" lon="12.3363233"><ele>721.3333333333334</ele><time>2026-04-12T15:07:16.012Z</time></trkpt><trkpt lat="43.7764167" lon="12.3363283"><ele>723.0</ele><time>2026-04-12T15:07:17.012Z</time></trkpt><trkpt lat="43.77659" lon="12.3363333"><ele>723.0</ele><time>2026-04-12T15:07:18.014Z</time></trkpt><trkpt lat="43.7767567" lon="12.336335"><ele>723.0</ele><time>2026-04-12T15:07:19.013Z</time></trkpt><trkpt lat="43.7769183" lon="12.3363333"><ele>723.0</ele><time>2026-04-12T15:07:20.012Z</time></trkpt><trkpt lat="43.7770783" lon="12.33633"><ele>724.25</ele><time>2026-04-12T15:07:21.015Z</time></trkpt><trkpt lat="43.7772317" lon="12.3363233"><ele>725.5</ele><time>2026-04-12T15:07:22.013Z</time></trkpt><trkpt lat="43.7773717" lon="12.3363183"><ele>726.75</ele><time>2026-04-12T15:07:23.013Z</time></trkpt><trkpt lat="43.777495" lon="12.3363183"><ele>728.0</ele><time>2026-04-12T15:07:24.016Z</time></trkpt><trkpt lat="43.7776033" lon="12.3363217"><ele>727.8</ele><time>2026-04-12T15:07:25.014Z</time></trkpt><trkpt lat="43.7777017" lon="12.33633"><ele>727.5999999999999</ele><time>2026-04-12T15:07:26.013Z</time></trkpt><trkpt lat="43.7777917" lon="12.3363467"><ele>727.4000000000001</ele><time>2026-04-12T15:07:27.013Z</time></trkpt><trkpt lat="43.7778717" lon="12.3363633"><ele>727.2</ele><time>2026-04-12T15:07:28.012Z</time></trkpt><trkpt lat="43.7779433" lon="12.3363867"><ele>727.0</ele><time>2026-04-12T15:07:29.013Z</time></trkpt><trkpt lat="43.778045" lon="12.3364467"><ele>727.0</ele><time>2026-04-12T15:07:31.013Z</time></trkpt><trkpt lat="43.77812" lon="12.3365017"><ele>727.0</ele><time>2026-04-12T15:07:33.014Z</time></trkpt><trkpt lat="43.7782033" lon="12.336525"><ele>727.0</ele><time>2026-04-12T15:08:16.013Z</time></trkpt><trkpt lat="43.7781967" lon="12.3364033"><ele>727.0</ele><time>2026-04-12T15:08:18.011Z</time></trkpt><trkpt lat="43.7781717" lon="12.3362867"><ele>727.0</ele><time>2026-04-12T15:08:19.015Z</time></trkpt><trkpt lat="43.7781383" lon="12.3361"><ele>727.0</ele><time>2026-04-12T15:08:20.013Z</time></trkpt><trkpt lat="43.7781233" lon="12.3359017"><ele>727.0</ele><time>2026-04-12T15:08:21.016Z</time></trkpt><trkpt lat="43.778115" lon="12.3356767"><ele>727.0</ele><time>2026-04-12T15:08:22.012Z</time></trkpt><trkpt lat="43.7781083" lon="12.335425"><ele>727.6666666666667</ele><time>2026-04-12T15:08:23.015Z</time></trkpt><trkpt lat="43.7781067" lon="12.3351617"><ele>728.3333333333334</ele><time>2026-04-12T15:08:24.014Z</time></trkpt><trkpt lat="43.7781017" lon="12.3348767"><ele>729.0</ele><time>2026-04-12T15:08:25.013Z</time></trkpt><trkpt lat="43.7780967" lon="12.3345617"><ele>731.5</ele><time>2026-04-12T15:08:26.014Z</time></trkpt><trkpt lat="43.7780883" lon="12.3342167"><ele>734.0</ele><time>2026-04-12T15:08:27.012Z</time></trkpt><trkpt lat="43.7780833" lon="12.33386"><ele>736.5</ele><time>2026-04-12T15:08:28.013Z</time></trkpt><trkpt lat="43.7780817" lon="12.3335133"><ele>739.0</ele><time>2026-04-12T15:08:29.01Z</time></trkpt><trkpt lat="43.7780883" lon="12.333195"><ele>739.3333333333334</ele><time>2026-04-12T15:08:30.014Z</time></trkpt><trkpt lat="43.7781067" lon="12.3329033"><ele>739.6666666666666</ele><time>2026-04-12T15:08:31.014Z</time></trkpt><trkpt lat="43.77814" lon="12.3326217"><ele>740.0</ele><time>2026-04-12T15:08:32.013Z</time></trkpt><trkpt lat="43.7781933" lon="12.33235"><ele>741.3333333333333</ele><time>2026-04-12T15:08:33.018Z</time></trkpt><trkpt lat="43.7782633" lon="12.3320867"><ele>742.6666666666666</ele><time>2026-04-12T15:08:34.014Z</time></trkpt><trkpt lat="43.7783467" lon="12.3318633"><ele>744.0</ele><time>2026-04-12T15:08:35.013Z</time></trkpt><trkpt lat="43.7784317" lon="12.3316783"><ele>744.0</ele><time>2026-04-12T15:08:36.013Z</time></trkpt><trkpt lat="43.7785133" lon="12.3315267"><ele>744.0</ele><time>2026-04-12T15:08:37.012Z</time></trkpt><trkpt lat="43.7785867" lon="12.3313917"><ele>744.0</ele><time>2026-04-12T15:08:38.014Z</time></trkpt><trkpt lat="43.7786533" lon="12.3312767"><ele>744.0</ele><time>2026-04-12T15:08:39.017Z</time></trkpt><trkpt lat="43.7787133" lon="12.331175"><ele>745.6</ele><time>2026-04-12T15:08:40.014Z</time></trkpt><trkpt lat="43.7787717" lon="12.331085"><ele>747.2</ele><time>2026-04-12T15:08:41.014Z</time></trkpt><trkpt lat="43.778835" lon="12.3309967"><ele>748.8000000000001</ele><time>2026-04-12T15:08:42.013Z</time></trkpt><trkpt lat="43.7789017" lon="12.33091"><ele>750.4000000000001</ele><time>2026-04-12T15:08:43.011Z</time></trkpt><trkpt lat="43.7789717" lon="12.33082"><ele>752.0</ele><time>2026-04-12T15:08:44.014Z</time></trkpt><trkpt lat="43.7790333" lon="12.3307267"><ele>752.0</ele><time>2026-04-12T15:08:45.012Z</time></trkpt><trkpt lat="43.7790817" lon="12.3306217"><ele>752.0</ele><time>2026-04-12T15:08:46.012Z</time></trkpt><trkpt lat="43.7791067" lon="12.330495"><ele>752.0</ele><time>2026-04-12T15:08:47.011Z</time></trkpt><trkpt lat="43.779115" lon="12.3303517"><ele>752.0</ele><time>2026-04-12T15:08:48.012Z</time></trkpt><trkpt lat="43.7790933" lon="12.330195"><ele>752.0</ele><time>2026-04-12T15:08:49.012Z</time></trkpt><trkpt lat="43.77904" lon="12.3300283"><ele>754.0</ele><time>2026-04-12T15:08:50.015Z</time></trkpt><trkpt lat="43.77896" lon="12.3298633"><ele>756.0</ele><time>2026-04-12T15:08:51.012Z</time></trkpt><trkpt lat="43.7788567" lon="12.3296867"><ele>758.0</ele><time>2026-04-12T15:08:52.014Z</time></trkpt><trkpt lat="43.77874" lon="12.3295067"><ele>758.3333333333333</ele><time>2026-04-12T15:08:53.014Z</time></trkpt><trkpt lat="43.7786183" lon="12.3293237"><ele>758.6666666666666</ele><time>2026-04-12T15:08:54.012Z</time></trkpt><trkpt lat="43.778489" lon="12.3291332"><ele>759.0</ele><time>2026-04-12T15:08:55.014Z</time></trkpt><trkpt lat="43.7783488" lon="12.3289514"><ele>760.6666666666666</ele><time>2026-04-12T15:08:56.012Z</time></trkpt><trkpt lat="43.7781969" lon="12.3287812"><ele>762.3333333333333</ele><time>2026-04-12T15:08:57.014Z</time></trkpt><trkpt lat="43.77803" lon="12.3286336"><ele>764.0</ele><time>2026-04-12T15:08:58.013Z</time></trkpt><trkpt lat="43.7778631" lon="12.328509"><ele>764.0</ele><time>2026-04-12T15:08:59.014Z</time></trkpt><trkpt lat="43.7777099" lon="12.328403"><ele>764.0</ele><time>2026-04-12T15:09:00.014Z</time></trkpt><trkpt lat="43.7775705" lon="12.3283021"><ele>764.0</ele><time>2026-04-12T15:09:01.012Z</time></trkpt><trkpt lat="43.7774514" lon="12.3281935"><ele>765.0</ele><time>2026-04-12T15:09:02.014Z</time></trkpt><trkpt lat="43.777365" lon="12.328059"><ele>766.0</ele><time>2026-04-12T15:09:03.012Z</time></trkpt><trkpt lat="43.7773124" lon="12.3278996"><ele>767.0</ele><time>2026-04-12T15:09:04.011Z</time></trkpt><trkpt lat="43.777292" lon="12.327716"><ele>768.0</ele><time>2026-04-12T15:09:05.014Z</time></trkpt><trkpt lat="43.7772898" lon="12.3275286"><ele>768.0</ele><time>2026-04-12T15:09:06.013Z</time></trkpt><trkpt lat="43.7772823" lon="12.3273417"><ele>768.0</ele><time>2026-04-12T15:09:07.013Z</time></trkpt><trkpt lat="43.7772517" lon="12.3271604"><ele>768.0</ele><time>2026-04-12T15:09:08.014Z</time></trkpt><trkpt lat="43.7771816" lon="12.3269861"><ele>768.0</ele><time>2026-04-12T15:09:09.014Z</time></trkpt><trkpt lat="43.7770835" lon="12.3268168"><ele>769.3333333333333</ele><time>2026-04-12T15:09:10.013Z</time></trkpt><trkpt lat="43.7769615" lon="12.3266439"><ele>770.6666666666666</ele><time>2026-04-12T15:09:11.013Z</time></trkpt><trkpt lat="43.7768312" lon="12.3264779"><ele>772.0</ele><time>2026-04-12T15:09:12.012Z</time></trkpt><trkpt lat="43.7767128" lon="12.3263207"><ele>773.75</ele><time>2026-04-12T15:09:13.014Z</time></trkpt><trkpt lat="43.7766134" lon="12.3261706"><ele>775.5</ele><time>2026-04-12T15:09:14.011Z</time></trkpt><trkpt lat="43.7765361" lon="12.3260141"><ele>777.25</ele><time>2026-04-12T15:09:15.013Z</time></trkpt><trkpt lat="43.7764845" lon="12.3258382"><ele>779.0</ele><time>2026-04-12T15:09:16.013Z</time></trkpt><trkpt lat="43.7764606" lon="12.3256447"><ele>781.0</ele><time>2026-04-12T15:09:17.014Z</time></trkpt><trkpt lat="43.7764843" lon="12.3254372"><ele>783.0</ele><time>2026-04-12T15:09:18.013Z</time></trkpt><trkpt lat="43.7765513" lon="12.3252103"><ele>785.0</ele><time>2026-04-12T15:09:19.015Z</time></trkpt><trkpt lat="43.7766429" lon="12.3249652"><ele>787.0</ele><time>2026-04-12T15:09:20.012Z</time></trkpt><trkpt lat="43.7767382" lon="12.324711"><ele>789.0</ele><time>2026-04-12T15:09:21.013Z</time></trkpt><trkpt lat="43.7768325" lon="12.3244653"><ele>791.0</ele><time>2026-04-12T15:09:22.012Z</time></trkpt><trkpt lat="43.7769251" lon="12.3242333"><ele>791.6666666666667</ele><time>2026-04-12T15:09:23.012Z</time></trkpt><trkpt lat="43.777019" lon="12.3240107"><ele>792.3333333333333</ele><time>2026-04-12T15:09:24.014Z</time></trkpt><trkpt lat="43.777106" lon="12.3237952"><ele>793.0</ele><time>2026-04-12T15:09:25.013Z</time></trkpt><trkpt lat="43.7771897" lon="12.323598"><ele>795.3333333333333</ele><time>2026-04-12T15:09:26.013Z</time></trkpt><trkpt lat="43.7772818" lon="12.3234358"><ele>797.6666666666667</ele><time>2026-04-12T15:09:27.012Z</time></trkpt><trkpt lat="43.7773959" lon="12.3233037"><ele>800.0</ele><time>2026-04-12T15:09:28.013Z</time></trkpt><trkpt lat="43.7775416" lon="12.3232013"><ele>801.3333333333334</ele><time>2026-04-12T15:09:29.017Z</time></trkpt><trkpt lat="43.7777107" lon="12.3231083"><ele>802.6666666666667</ele><time>2026-04-12T15:09:30.013Z</time></trkpt><trkpt lat="43.7778905" lon="12.3230106"><ele>804.0</ele><time>2026-04-12T15:09:31.013Z</time></trkpt><trkpt lat="43.7780689" lon="12.3229092"><ele>806.3333333333333</ele><time>2026-04-12T15:09:32.012Z</time></trkpt><trkpt lat="43.7782428" lon="12.3228151"><ele>808.6666666666666</ele><time>2026-04-12T15:09:33.013Z</time></trkpt><trkpt lat="43.7784133" lon="12.3227276"><ele>811.0</ele><time>2026-04-12T15:09:34.011Z</time></trkpt><trkpt lat="43.7785816" lon="12.3226418"><ele>812.0</ele><time>2026-04-12T15:09:35.015Z</time></trkpt><trkpt lat="43.7787491" lon="12.322557"><ele>813.0</ele><time>2026-04-12T15:09:36.013Z</time></trkpt><trkpt lat="43.7789177" lon="12.3224718"><ele>814.0</ele><time>2026-04-12T15:09:37.012Z</time></trkpt><trkpt lat="43.7790871" lon="12.3223821"><ele>814.0</ele><time>2026-04-12T15:09:38.011Z</time></trkpt><trkpt lat="43.7792583" lon="12.3222914"><ele>814.0</ele><time>2026-04-12T15:09:39.013Z</time></trkpt><trkpt lat="43.7794282" lon="12.3222029"><ele>814.0</ele><time>2026-04-12T15:09:40.013Z</time></trkpt><trkpt lat="43.77959" lon="12.3221204"><ele>816.75</ele><time>2026-04-12T15:09:41.012Z</time></trkpt><trkpt lat="43.779739" lon="12.3220493"><ele>819.5</ele><time>2026-04-12T15:09:42.014Z</time></trkpt><trkpt lat="43.7798685" lon="12.3219784"><ele>822.25</ele><time>2026-04-12T15:09:43.015Z</time></trkpt><trkpt lat="43.77998" lon="12.3218917"><ele>825.0</ele><time>2026-04-12T15:09:44.012Z</time></trkpt><trkpt lat="43.7800713" lon="12.3217857"><ele>825.0</ele><time>2026-04-12T15:09:45.013Z</time></trkpt><trkpt lat="43.7801424" lon="12.3216717"><ele>825.0</ele><time>2026-04-12T15:09:46.012Z</time></trkpt><trkpt lat="43.7801884" lon="12.3215438"><ele>825.0</ele><time>2026-04-12T15:09:47.01Z</time></trkpt><trkpt lat="43.7802066" lon="12.3213922"><ele>825.0</ele><time>2026-04-12T15:09:48.013Z</time></trkpt><trkpt lat="43.7801939" lon="12.321204"><ele>828.3333333333333</ele><time>2026-04-12T15:09:49.013Z</time></trkpt><trkpt lat="43.7801523" lon="12.3209872"><ele>831.6666666666666</ele><time>2026-04-12T15:09:50.014Z</time></trkpt><trkpt lat="43.7800898" lon="12.3207571"><ele>835.0</ele><time>2026-04-12T15:09:51.013Z</time></trkpt><trkpt lat="43.7800149" lon="12.3205242"><ele>836.3333333333333</ele><time>2026-04-12T15:09:52.013Z</time></trkpt><trkpt lat="43.7799477" lon="12.3202954"><ele>837.6666666666667</ele><time>2026-04-12T15:09:53.011Z</time></trkpt><trkpt lat="43.7798975" lon="12.3200665"><ele>839.0</ele><time>2026-04-12T15:09:54.015Z</time></trkpt><trkpt lat="43.7798712" lon="12.3198281"><ele>839.6666666666667</ele><time>2026-04-12T15:09:55.013Z</time></trkpt><trkpt lat="43.7798745" lon="12.3195662"><ele>840.3333333333333</ele><time>2026-04-12T15:09:56.011Z</time></trkpt><trkpt lat="43.7798732" lon="12.3192918"><ele>841.0</ele><time>2026-04-12T15:09:57.014Z</time></trkpt><trkpt lat="43.7798812" lon="12.3190061"><ele>842.6666666666666</ele><time>2026-04-12T15:09:58.012Z</time></trkpt><trkpt lat="43.7798974" lon="12.3187212"><ele>844.3333333333333</ele><time>2026-04-12T15:09:59.012Z</time></trkpt><trkpt lat="43.7799187" lon="12.3184403"><ele>846.0</ele><time>2026-04-12T15:10:00.016Z</time></trkpt><trkpt lat="43.7799418" lon="12.3181664"><ele>848.0</ele><time>2026-04-12T15:10:01.011Z</time></trkpt><trkpt lat="43.7799583" lon="12.3179108"><ele>850.0</ele><time>2026-04-12T15:10:02.013Z</time></trkpt><trkpt lat="43.7799558" lon="12.31768"><ele>852.0</ele><time>2026-04-12T15:10:03.011Z</time></trkpt><trkpt lat="43.7799289" lon="12.3174658"><ele>852.0</ele><time>2026-04-12T15:10:04.014Z</time></trkpt><trkpt lat="43.7798652" lon="12.31726"><ele>852.0</ele><time>2026-04-12T15:10:05.012Z</time></trkpt><trkpt lat="43.7797722" lon="12.3170705"><ele>852.0</ele><time>2026-04-12T15:10:06.011Z</time></trkpt><trkpt lat="43.7796634" lon="12.316887"><ele>854.6666666666667</ele><time>2026-04-12T15:10:07.011Z</time></trkpt><trkpt lat="43.7795581" lon="12.3167063"><ele>857.3333333333334</ele><time>2026-04-12T15:10:08.01Z</time></trkpt><trkpt lat="43.7794679" lon="12.3165194"><ele>860.0</ele><time>2026-04-12T15:10:09.014Z</time></trkpt><trkpt lat="43.7794079" lon="12.3163211"><ele>862.0</ele><time>2026-04-12T15:10:10.015Z</time></trkpt><trkpt lat="43.7793767" lon="12.3161155"><ele>864.0</ele><time>2026-04-12T15:10:11.012Z</time></trkpt><trkpt lat="43.7793792" lon="12.3158982"><ele>866.0</ele><time>2026-04-12T15:10:12.011Z</time></trkpt><trkpt lat="43.7794207" lon="12.3156837"><ele>866.6666666666667</ele><time>2026-04-12T15:10:13.012Z</time></trkpt><trkpt lat="43.7794961" lon="12.3154771"><ele>867.3333333333333</ele><time>2026-04-12T15:10:14.016Z</time></trkpt><trkpt lat="43.7795929" lon="12.3152788"><ele>868.0</ele><time>2026-04-12T15:10:15.012Z</time></trkpt><trkpt lat="43.779684" lon="12.315078"><ele>868.0</ele><time>2026-04-12T15:10:16.013Z</time></trkpt><trkpt lat="43.7797465" lon="12.314858"><ele>868.0</ele><time>2026-04-12T15:10:17.017Z</time></trkpt><trkpt lat="43.7797863" lon="12.3146297"><ele>868.0</ele><time>2026-04-12T15:10:18.012Z</time></trkpt><trkpt lat="43.7798022" lon="12.3144107"><ele>869.25</ele><time>2026-04-12T15:10:19.012Z</time></trkpt><trkpt lat="43.7797837" lon="12.3142176"><ele>870.5</ele><time>2026-04-12T15:10:20.011Z</time></trkpt><trkpt lat="43.779724" lon="12.3140413"><ele>871.75</ele><time>2026-04-12T15:10:21.013Z</time></trkpt><trkpt lat="43.7796243" lon="12.3138792"><ele>873.0</ele><time>2026-04-12T15:10:22.014Z</time></trkpt><trkpt lat="43.7794839" lon="12.3137317"><ele>873.0</ele><time>2026-04-12T15:10:23.012Z</time></trkpt><trkpt lat="43.7793172" lon="12.3135899"><ele>873.0</ele><time>2026-04-12T15:10:24.014Z</time></trkpt><trkpt lat="43.7791343" lon="12.3134572"><ele>873.0</ele><time>2026-04-12T15:10:25.012Z</time></trkpt><trkpt lat="43.7789463" lon="12.3133495"><ele>873.0</ele><time>2026-04-12T15:10:26.012Z</time></trkpt><trkpt lat="43.7787611" lon="12.3132855"><ele>873.0</ele><time>2026-04-12T15:10:27.012Z</time></trkpt><trkpt lat="43.7785826" lon="12.3132464"><ele>873.0</ele><time>2026-04-12T15:10:28.014Z</time></trkpt><trkpt lat="43.7784142" lon="12.3131987"><ele>873.0</ele><time>2026-04-12T15:10:29.012Z</time></trkpt><trkpt lat="43.7782681" lon="12.3131196"><ele>873.0</ele><time>2026-04-12T15:10:30.013Z</time></trkpt><trkpt lat="43.7781412" lon="12.3130186"><ele>873.0</ele><time>2026-04-12T15:10:31.011Z</time></trkpt><trkpt lat="43.7780444" lon="12.3128828"><ele>873.0</ele><time>2026-04-12T15:10:32.012Z</time></trkpt><trkpt lat="43.7779778" lon="12.3127138"><ele>875.3333333333333</ele><time>2026-04-12T15:10:33.013Z</time></trkpt><trkpt lat="43.7779416" lon="12.312513"><ele>877.6666666666666</ele><time>2026-04-12T15:10:34.011Z</time></trkpt><trkpt lat="43.7779404" lon="12.3122744"><ele>880.0</ele><time>2026-04-12T15:10:35.011Z</time></trkpt><trkpt lat="43.7779622" lon="12.3120068"><ele>882.3333333333333</ele><time>2026-04-12T15:10:36.011Z</time></trkpt><trkpt lat="43.7780026" lon="12.3117234"><ele>884.6666666666667</ele><time>2026-04-12T15:10:37.013Z</time></trkpt><trkpt lat="43.7780605" lon="12.3114472"><ele>887.0</ele><time>2026-04-12T15:10:38.012Z</time></trkpt><trkpt lat="43.7781206" lon="12.3111916"><ele>889.3333333333334</ele><time>2026-04-12T15:10:39.014Z</time></trkpt><trkpt lat="43.778182" lon="12.3109483"><ele>891.6666666666667</ele><time>2026-04-12T15:10:40.013Z</time></trkpt><trkpt lat="43.7782558" lon="12.3107013"><ele>894.0</ele><time>2026-04-12T15:10:41.014Z</time></trkpt><trkpt lat="43.7783471" lon="12.3104518"><ele>895.6666666666667</ele><time>2026-04-12T15:10:42.012Z</time></trkpt><trkpt lat="43.778459" lon="12.3102106"><ele>897.3333333333334</ele><time>2026-04-12T15:10:43.011Z</time></trkpt><trkpt lat="43.7785614" lon="12.3099873"><ele>899.0</ele><time>2026-04-12T15:10:44.015Z</time></trkpt><trkpt lat="43.7786565" lon="12.3097901"><ele>901.6666666666667</ele><time>2026-04-12T15:10:45.011Z</time></trkpt><trkpt lat="43.7787595" lon="12.30961"><ele>904.3333333333333</ele><time>2026-04-12T15:10:46.014Z</time></trkpt><trkpt lat="43.7788827" lon="12.3094429"><ele>907.0</ele><time>2026-04-12T15:10:47.012Z</time></trkpt><trkpt lat="43.779041" lon="12.3093134"><ele>907.0</ele><time>2026-04-12T15:10:48.016Z</time></trkpt><trkpt lat="43.7792249" lon="12.3092009"><ele>907.0</ele><time>2026-04-12T15:10:49.014Z</time></trkpt><trkpt lat="43.7794172" lon="12.3090848"><ele>907.0</ele><time>2026-04-12T15:10:50.012Z</time></trkpt><trkpt lat="43.7795983" lon="12.3089676"><ele>910.0</ele><time>2026-04-12T15:10:51.016Z</time></trkpt><trkpt lat="43.7797598" lon="12.3088554"><ele>913.0</ele><time>2026-04-12T15:10:52.012Z</time></trkpt><trkpt lat="43.7799039" lon="12.3087349"><ele>916.0</ele><time>2026-04-12T15:10:53.014Z</time></trkpt><trkpt lat="43.7800265" lon="12.3085917"><ele>916.0</ele><time>2026-04-12T15:10:54.013Z</time></trkpt><trkpt lat="43.7801281" lon="12.3084209"><ele>916.0</ele><time>2026-04-12T15:10:55.013Z</time></trkpt><trkpt lat="43.7802171" lon="12.3082322"><ele>916.0</ele><time>2026-04-12T15:10:56.012Z</time></trkpt><trkpt lat="43.7802834" lon="12.3080092"><ele>919.6666666666666</ele><time>2026-04-12T15:10:57.011Z</time></trkpt><trkpt lat="43.7803312" lon="12.3077439"><ele>923.3333333333333</ele><time>2026-04-12T15:10:58.014Z</time></trkpt><trkpt lat="43.780378" lon="12.3074648"><ele>927.0</ele><time>2026-04-12T15:10:59.014Z</time></trkpt><trkpt lat="43.7804227" lon="12.3071869"><ele>929.0</ele><time>2026-04-12T15:11:00.012Z</time></trkpt><trkpt lat="43.7804635" lon="12.3069172"><ele>931.0</ele><time>2026-04-12T15:11:01.012Z</time></trkpt><trkpt lat="43.7805079" lon="12.3066567"><ele>933.0</ele><time>2026-04-12T15:11:02.013Z</time></trkpt><trkpt lat="43.7805538" lon="12.3063977"><ele>934.0</ele><time>2026-04-12T15:11:03.017Z</time></trkpt><trkpt lat="43.7805968" lon="12.3061359"><ele>935.0</ele><time>2026-04-12T15:11:04.014Z</time></trkpt><trkpt lat="43.7806413" lon="12.3058703"><ele>936.0</ele><time>2026-04-12T15:11:05.011Z</time></trkpt><trkpt lat="43.7806862" lon="12.3056011"><ele>937.6666666666667</ele><time>2026-04-12T15:11:06.013Z</time></trkpt><trkpt lat="43.7807348" lon="12.3053361"><ele>939.3333333333334</ele><time>2026-04-12T15:11:07.012Z</time></trkpt><trkpt lat="43.7807816" lon="12.3050809"><ele>941.0</ele><time>2026-04-12T15:11:08.014Z</time></trkpt><trkpt lat="43.780826" lon="12.3048404"><ele>942.0</ele><time>2026-04-12T15:11:09.012Z</time></trkpt><trkpt lat="43.780855" lon="12.3046151"><ele>943.0</ele><time>2026-04-12T15:11:10.011Z</time></trkpt><trkpt lat="43.7808645" lon="12.3043966"><ele>944.0</ele><time>2026-04-12T15:11:11.013Z</time></trkpt><trkpt lat="43.7808358" lon="12.304178"><ele>944.0</ele><time>2026-04-12T15:11:12.012Z</time></trkpt><trkpt lat="43.7807771" lon="12.3039582"><ele>944.0</ele><time>2026-04-12T15:11:13.014Z</time></trkpt><trkpt lat="43.7807012" lon="12.303731"><ele>944.0</ele><time>2026-04-12T15:11:14.014Z</time></trkpt><trkpt lat="43.780628" lon="12.3034911"><ele>946.3333333333334</ele><time>2026-04-12T15:11:15.013Z</time></trkpt><trkpt lat="43.7805563" lon="12.3032527"><ele>948.6666666666667</ele><time>2026-04-12T15:11:16.01Z</time></trkpt><trkpt lat="43.7805067" lon="12.303026"><ele>951.0</ele><time>2026-04-12T15:11:17.014Z</time></trkpt><trkpt lat="43.7804857" lon="12.3028033"><ele>952.0</ele><time>2026-04-12T15:11:18.014Z</time></trkpt><trkpt lat="43.7804874" lon="12.3025951"><ele>953.0</ele><time>2026-04-12T15:11:19.012Z</time></trkpt><trkpt lat="43.7805251" lon="12.3024139"><ele>954.0</ele><time>2026-04-12T15:11:20.012Z</time></trkpt><trkpt lat="43.7805944" lon="12.3022619"><ele>955.0</ele><time>2026-04-12T15:11:21.011Z</time></trkpt><trkpt lat="43.7806806" lon="12.3021462"><ele>955.0</ele><time>2026-04-12T15:11:22.011Z</time></trkpt><trkpt lat="43.7807824" lon="12.302087"><ele>955.0</ele><time>2026-04-12T15:11:23.012Z</time></trkpt><trkpt lat="43.7808982" lon="12.3020907"><ele>955.0</ele><time>2026-04-12T15:11:24.011Z</time></trkpt><trkpt lat="43.7810284" lon="12.3021622"><ele>955.0</ele><time>2026-04-12T15:11:25.011Z</time></trkpt><trkpt lat="43.7811585" lon="12.302267"><ele>957.0</ele><time>2026-04-12T15:11:26.013Z</time></trkpt><trkpt lat="43.7812777" lon="12.3023515"><ele>959.0</ele><time>2026-04-12T15:11:27.011Z</time></trkpt><trkpt lat="43.7813948" lon="12.3023907"><ele>961.0</ele><time>2026-04-12T15:11:28.012Z</time></trkpt><trkpt lat="43.7815191" lon="12.3023722"><ele>963.0</ele><time>2026-04-12T15:11:29.012Z</time></trkpt><trkpt lat="43.7816502" lon="12.3022767"><ele>963.3333333333333</ele><time>2026-04-12T15:11:30.012Z</time></trkpt><trkpt lat="43.7817825" lon="12.3021778"><ele>963.6666666666666</ele><time>2026-04-12T15:11:31.011Z</time></trkpt><trkpt lat="43.7819313" lon="12.3020372"><ele>964.0</ele><time>2026-04-12T15:11:32.011Z</time></trkpt><trkpt lat="43.7820797" lon="12.3018858"><ele>966.0</ele><time>2026-04-12T15:11:33.012Z</time></trkpt><trkpt lat="43.7822291" lon="12.3017735"><ele>968.0</ele><time>2026-04-12T15:11:34.01Z</time></trkpt><trkpt lat="43.7823767" lon="12.3017077"><ele>970.0</ele><time>2026-04-12T15:11:35.017Z</time></trkpt><trkpt lat="43.782523" lon="12.3017059"><ele>970.0</ele><time>2026-04-12T15:11:36.012Z</time></trkpt><trkpt lat="43.7826724" lon="12.3017809"><ele>970.0</ele><time>2026-04-12T15:11:37.013Z</time></trkpt><trkpt lat="43.7828183" lon="12.3019023"><ele>970.0</ele><time>2026-04-12T15:11:38.011Z</time></trkpt><trkpt lat="43.7829731" lon="12.3020519"><ele>972.6666666666666</ele><time>2026-04-12T15:11:39.013Z</time></trkpt><trkpt lat="43.7831432" lon="12.3022019"><ele>975.3333333333333</ele><time>2026-04-12T15:11:40.012Z</time></trkpt><trkpt lat="43.7833161" lon="12.3023458"><ele>978.0</ele><time>2026-04-12T15:11:41.011Z</time></trkpt><trkpt lat="43.7834781" lon="12.3024806"><ele>980.3333333333333</ele><time>2026-04-12T15:11:42.015Z</time></trkpt><trkpt lat="43.7836297" lon="12.3026033"><ele>982.6666666666666</ele><time>2026-04-12T15:11:43.012Z</time></trkpt><trkpt lat="43.7837676" lon="12.3026958"><ele>985.0</ele><time>2026-04-12T15:11:44.012Z</time></trkpt><trkpt lat="43.7838833" lon="12.3027691"><ele>985.0</ele><time>2026-04-12T15:11:45.012Z</time></trkpt><trkpt lat="43.783995" lon="12.3028011"><ele>985.0</ele><time>2026-04-12T15:11:46.013Z</time></trkpt><trkpt lat="43.7841051" lon="12.3027762"><ele>985.0</ele><time>2026-04-12T15:11:47.011Z</time></trkpt><trkpt lat="43.7842182" lon="12.3027034"><ele>985.0</ele><time>2026-04-12T15:11:48.012Z</time></trkpt><trkpt lat="43.7843338" lon="12.3026005"><ele>988.0</ele><time>2026-04-12T15:11:49.012Z</time></trkpt><trkpt lat="43.7844574" lon="12.3024793"><ele>991.0</ele><time>2026-04-12T15:11:50.012Z</time></trkpt><trkpt lat="43.7845928" lon="12.3023462"><ele>994.0</ele><time>2026-04-12T15:11:51.014Z</time></trkpt><trkpt lat="43.784742" lon="12.3022156"><ele>994.0</ele><time>2026-04-12T15:11:52.013Z</time></trkpt><trkpt lat="43.7848989" lon="12.3020932"><ele>994.0</ele><time>2026-04-12T15:11:53.011Z</time></trkpt><trkpt lat="43.7850511" lon="12.3019697"><ele>994.0</ele><time>2026-04-12T15:11:54.012Z</time></trkpt><trkpt lat="43.7851869" lon="12.3018426"><ele>997.25</ele><time>2026-04-12T15:11:55.011Z</time></trkpt><trkpt lat="43.7852952" lon="12.3017006"><ele>1000.5</ele><time>2026-04-12T15:11:56.013Z</time></trkpt><trkpt lat="43.7853722" lon="12.3015311"><ele>1003.75</ele><time>2026-04-12T15:11:57.01Z</time></trkpt><trkpt lat="43.7854229" lon="12.3013331"><ele>1007.0</ele><time>2026-04-12T15:11:58.012Z</time></trkpt><trkpt lat="43.7854484" lon="12.3011252"><ele>1007.6666666666667</ele><time>2026-04-12T15:11:59.012Z</time></trkpt><trkpt lat="43.7854484" lon="12.3009149"><ele>1008.3333333333333</ele><time>2026-04-12T15:12:00.014Z</time></trkpt><trkpt lat="43.7854273" lon="12.3007097"><ele>1009.0</ele><time>2026-04-12T15:12:01.014Z</time></trkpt><trkpt lat="43.7853946" lon="12.3005087"><ele>1009.75</ele><time>2026-04-12T15:12:02.011Z</time></trkpt><trkpt lat="43.785367" lon="12.3003038"><ele>1010.5</ele><time>2026-04-12T15:12:03.013Z</time></trkpt><trkpt lat="43.7853543" lon="12.3000972"><ele>1011.25</ele><time>2026-04-12T15:12:04.011Z</time></trkpt><trkpt lat="43.7853651" lon="12.2998911"><ele>1012.0</ele><time>2026-04-12T15:12:05.015Z</time></trkpt><trkpt lat="43.7854022" lon="12.2996887"><ele>1012.0</ele><time>2026-04-12T15:12:06.012Z</time></trkpt><trkpt lat="43.7854383" lon="12.2994971"><ele>1012.0</ele><time>2026-04-12T15:12:07.013Z</time></trkpt><trkpt lat="43.7854883" lon="12.2993226"><ele>1012.0</ele><time>2026-04-12T15:12:08.011Z</time></trkpt><trkpt lat="43.7855595" lon="12.299148"><ele>1012.0</ele><time>2026-04-12T15:12:09.011Z</time></trkpt><trkpt lat="43.7856442" lon="12.2989738"><ele>1010.6666666666666</ele><time>2026-04-12T15:12:10.014Z</time></trkpt><trkpt lat="43.7857376" lon="12.2987947"><ele>1009.3333333333333</ele><time>2026-04-12T15:12:11.013Z</time></trkpt><trkpt lat="43.7858308" lon="12.2986179"><ele>1008.0</ele><time>2026-04-12T15:12:12.012Z</time></trkpt><trkpt lat="43.7859221" lon="12.2984485"><ele>1007.0</ele><time>2026-04-12T15:12:13.013Z</time></trkpt><trkpt lat="43.7860141" lon="12.2982937"><ele>1006.0</ele><time>2026-04-12T15:12:14.012Z</time></trkpt><trkpt lat="43.7861083" lon="12.2981402"><ele>1005.0</ele><time>2026-04-12T15:12:15.015Z</time></trkpt><trkpt lat="43.786214" lon="12.297986"><ele>1004.0</ele><time>2026-04-12T15:12:16.012Z</time></trkpt><trkpt lat="43.7863422" lon="12.2978534"><ele>1004.0</ele><time>2026-04-12T15:12:17.013Z</time></trkpt><trkpt lat="43.786487" lon="12.2977307"><ele>1004.0</ele><time>2026-04-12T15:12:18.012Z</time></trkpt><trkpt lat="43.7866476" lon="12.297596"><ele>1004.0</ele><time>2026-04-12T15:12:19.01Z</time></trkpt><trkpt lat="43.7868146" lon="12.297438"><ele>1004.0</ele><time>2026-04-12T15:12:20.011Z</time></trkpt><trkpt lat="43.7869863" lon="12.2972604"><ele>1004.0</ele><time>2026-04-12T15:12:21.012Z</time></trkpt><trkpt lat="43.7871473" lon="12.2970611"><ele>1004.0</ele><time>2026-04-12T15:12:22.011Z</time></trkpt><trkpt lat="43.787291" lon="12.2968479"><ele>1004.0</ele><time>2026-04-12T15:12:23.011Z</time></trkpt><trkpt lat="43.7874291" lon="12.2966458"><ele>1004.0</ele><time>2026-04-12T15:12:24.012Z</time></trkpt><trkpt lat="43.7875565" lon="12.2964556"><ele>1004.0</ele><time>2026-04-12T15:12:25.012Z</time></trkpt><trkpt lat="43.7876691" lon="12.2962819"><ele>1002.8000000000001</ele><time>2026-04-12T15:12:26.011Z</time></trkpt><trkpt lat="43.7877729" lon="12.2961464"><ele>1001.6000000000001</ele><time>2026-04-12T15:12:27.013Z</time></trkpt><trkpt lat="43.7878651" lon="12.2960584"><ele>1000.4</ele><time>2026-04-12T15:12:28.01Z</time></trkpt><trkpt lat="43.7879576" lon="12.2960266"><ele>999.2</ele><time>2026-04-12T15:12:29.011Z</time></trkpt><trkpt lat="43.788055" lon="12.2960475"><ele>998.0</ele><time>2026-04-12T15:12:30.011Z</time></trkpt><trkpt lat="43.7881583" lon="12.2960927"><ele>998.0</ele><time>2026-04-12T15:12:31.015Z</time></trkpt><trkpt lat="43.7882591" lon="12.296129"><ele>998.0</ele><time>2026-04-12T15:12:32.012Z</time></trkpt><trkpt lat="43.7883522" lon="12.2961194"><ele>998.0</ele><time>2026-04-12T15:12:33.011Z</time></trkpt><trkpt lat="43.7884283" lon="12.2960599"><ele>998.0</ele><time>2026-04-12T15:12:34.016Z</time></trkpt><trkpt lat="43.7884804" lon="12.2959551"><ele>998.0</ele><time>2026-04-12T15:12:35.01Z</time></trkpt><trkpt lat="43.7885097" lon="12.2958148"><ele>995.5</ele><time>2026-04-12T15:12:36.015Z</time></trkpt><trkpt lat="43.7885141" lon="12.2956409"><ele>993.0</ele><time>2026-04-12T15:12:37.011Z</time></trkpt><trkpt lat="43.7885141" lon="12.2954576"><ele>990.5</ele><time>2026-04-12T15:12:38.011Z</time></trkpt><trkpt lat="43.7885329" lon="12.2952893"><ele>988.0</ele><time>2026-04-12T15:12:39.012Z</time></trkpt><trkpt lat="43.7885741" lon="12.2951418"><ele>987.3333333333333</ele><time>2026-04-12T15:12:40.012Z</time></trkpt><trkpt lat="43.7886403" lon="12.295031"><ele>986.6666666666666</ele><time>2026-04-12T15:12:41.014Z</time></trkpt><trkpt lat="43.7887194" lon="12.2949807"><ele>986.0</ele><time>2026-04-12T15:12:42.012Z</time></trkpt><trkpt lat="43.7888003" lon="12.294992"><ele>985.3333333333333</ele><time>2026-04-12T15:12:43.012Z</time></trkpt><trkpt lat="43.7888717" lon="12.2950359"><ele>984.6666666666666</ele><time>2026-04-12T15:12:44.011Z</time></trkpt><trkpt lat="43.7889338" lon="12.2951148"><ele>984.0</ele><time>2026-04-12T15:12:45.011Z</time></trkpt><trkpt lat="43.7889792" lon="12.2952516"><ele>984.0</ele><time>2026-04-12T15:12:46.011Z</time></trkpt><trkpt lat="43.7890173" lon="12.2954566"><ele>984.0</ele><time>2026-04-12T15:12:47.013Z</time></trkpt><trkpt lat="43.7890355" lon="12.2957132"><ele>984.0</ele><time>2026-04-12T15:12:48.014Z</time></trkpt><trkpt lat="43.789065" lon="12.2959477"><ele>984.0</ele><time>2026-04-12T15:12:49.015Z</time></trkpt><trkpt lat="43.7891111" lon="12.2961564"><ele>984.0</ele><time>2026-04-12T15:12:50.012Z</time></trkpt><trkpt lat="43.7891782" lon="12.2963149"><ele>984.0</ele><time>2026-04-12T15:12:51.011Z</time></trkpt><trkpt lat="43.7892665" lon="12.2964222"><ele>984.0</ele><time>2026-04-12T15:12:52.012Z</time></trkpt><trkpt lat="43.789377" lon="12.2964642"><ele>984.0</ele><time>2026-04-12T15:12:53.011Z</time></trkpt><trkpt lat="43.7895001" lon="12.2964649"><ele>984.0</ele><time>2026-04-12T15:12:54.013Z</time></trkpt><trkpt lat="43.7896289" lon="12.2964503"><ele>984.0</ele><time>2026-04-12T15:12:55.011Z</time></trkpt><trkpt lat="43.7897738" lon="12.2964653"><ele>984.0</ele><time>2026-04-12T15:12:56.011Z</time></trkpt><trkpt lat="43.7899318" lon="12.2965261"><ele>984.0</ele><time>2026-04-12T15:12:57.017Z</time></trkpt><trkpt lat="43.7901069" lon="12.2966309"><ele>984.0</ele><time>2026-04-12T15:12:58.01Z</time></trkpt><trkpt lat="43.790296" lon="12.2967486"><ele>984.0</ele><time>2026-04-12T15:12:59.011Z</time></trkpt><trkpt lat="43.7904996" lon="12.296855"><ele>980.3333333333333</ele><time>2026-04-12T15:13:00.012Z</time></trkpt><trkpt lat="43.7907147" lon="12.2969355"><ele>976.6666666666666</ele><time>2026-04-12T15:13:01.012Z</time></trkpt><trkpt lat="43.7909204" lon="12.2969879"><ele>973.0</ele><time>2026-04-12T15:13:02.011Z</time></trkpt><trkpt lat="43.7911047" lon="12.2970303"><ele>974.6666666666666</ele><time>2026-04-12T15:13:03.012Z</time></trkpt><trkpt lat="43.7912683" lon="12.2970778"><ele>976.3333333333333</ele><time>2026-04-12T15:13:04.012Z</time></trkpt><trkpt lat="43.7914103" lon="12.2971469"><ele>978.0</ele><time>2026-04-12T15:13:05.013Z</time></trkpt><trkpt lat="43.7915398" lon="12.2972547"><ele>978.0</ele><time>2026-04-12T15:13:06.012Z</time></trkpt><trkpt lat="43.791656" lon="12.2973961"><ele>978.0</ele><time>2026-04-12T15:13:07.013Z</time></trkpt><trkpt lat="43.7917609" lon="12.2975495"><ele>978.0</ele><time>2026-04-12T15:13:08.012Z</time></trkpt><trkpt lat="43.7918698" lon="12.2976836"><ele>975.0</ele><time>2026-04-12T15:13:09.011Z</time></trkpt><trkpt lat="43.791994" lon="12.2977815"><ele>972.0</ele><time>2026-04-12T15:13:10.012Z</time></trkpt><trkpt lat="43.7921426" lon="12.2978322"><ele>969.0</ele><time>2026-04-12T15:13:11.014Z</time></trkpt><trkpt lat="43.7923092" lon="12.2978522"><ele>969.0</ele><time>2026-04-12T15:13:12.013Z</time></trkpt><trkpt lat="43.7924819" lon="12.2978463"><ele>969.0</ele><time>2026-04-12T15:13:13.014Z</time></trkpt><trkpt lat="43.7926578" lon="12.2978105"><ele>969.0</ele><time>2026-04-12T15:13:14.011Z</time></trkpt><trkpt lat="43.7928303" lon="12.2977336"><ele>971.0</ele><time>2026-04-12T15:13:15.013Z</time></trkpt><trkpt lat="43.7929856" lon="12.2976232"><ele>973.0</ele><time>2026-04-12T15:13:16.012Z</time></trkpt><trkpt lat="43.7931193" lon="12.2974867"><ele>975.0</ele><time>2026-04-12T15:13:17.012Z</time></trkpt><trkpt lat="43.7932211" lon="12.2973259"><ele>970.3333333333333</ele><time>2026-04-12T15:13:18.011Z</time></trkpt><trkpt lat="43.7932876" lon="12.2971467"><ele>965.6666666666666</ele><time>2026-04-12T15:13:19.01Z</time></trkpt><trkpt lat="43.7933191" lon="12.2969432"><ele>961.0</ele><time>2026-04-12T15:13:20.012Z</time></trkpt><trkpt lat="43.7933446" lon="12.2967287"><ele>961.0</ele><time>2026-04-12T15:13:21.012Z</time></trkpt><trkpt lat="43.7933888" lon="12.2965159"><ele>961.0</ele><time>2026-04-12T15:13:22.013Z</time></trkpt><trkpt lat="43.7934696" lon="12.2963045"><ele>961.0</ele><time>2026-04-12T15:13:23.011Z</time></trkpt><trkpt lat="43.7935752" lon="12.2961019"><ele>960.0</ele><time>2026-04-12T15:13:24.013Z</time></trkpt><trkpt lat="43.793701" lon="12.2959131"><ele>959.0</ele><time>2026-04-12T15:13:25.01Z</time></trkpt><trkpt lat="43.7938221" lon="12.2957426"><ele>958.0</ele><time>2026-04-12T15:13:26.011Z</time></trkpt><trkpt lat="43.7939403" lon="12.2955956"><ele>954.75</ele><time>2026-04-12T15:13:27.013Z</time></trkpt><trkpt lat="43.7940523" lon="12.2954798"><ele>951.5</ele><time>2026-04-12T15:13:28.012Z</time></trkpt><trkpt lat="43.7941712" lon="12.2954235"><ele>948.25</ele><time>2026-04-12T15:13:29.011Z</time></trkpt><trkpt lat="43.7942949" lon="12.2954225"><ele>945.0</ele><time>2026-04-12T15:13:30.014Z</time></trkpt><trkpt lat="43.7944178" lon="12.2954462"><ele>943.2</ele><time>2026-04-12T15:13:31.013Z</time></trkpt><trkpt lat="43.7945362" lon="12.2954734"><ele>941.4</ele><time>2026-04-12T15:13:32.012Z</time></trkpt><trkpt lat="43.7946503" lon="12.2954884"><ele>939.5999999999999</ele><time>2026-04-12T15:13:33.011Z</time></trkpt><trkpt lat="43.7947549" lon="12.2954632"><ele>937.8</ele><time>2026-04-12T15:13:34.013Z</time></trkpt><trkpt lat="43.7948504" lon="12.295392"><ele>936.0</ele><time>2026-04-12T15:13:35.01Z</time></trkpt><trkpt lat="43.7949477" lon="12.295296"><ele>936.0</ele><time>2026-04-12T15:13:36.011Z</time></trkpt><trkpt lat="43.795053" lon="12.295199"><ele>936.0</ele><time>2026-04-12T15:13:37.015Z</time></trkpt><trkpt lat="43.7951637" lon="12.2951113"><ele>936.0</ele><time>2026-04-12T15:13:38.011Z</time></trkpt><trkpt lat="43.7952614" lon="12.2950416"><ele>936.0</ele><time>2026-04-12T15:13:39.016Z</time></trkpt><trkpt lat="43.7953429" lon="12.2949958"><ele>934.8333333333334</ele><time>2026-04-12T15:13:40.011Z</time></trkpt><trkpt lat="43.7954251" lon="12.294981"><ele>933.6666666666667</ele><time>2026-04-12T15:13:41.01Z</time></trkpt><trkpt lat="43.7955058" lon="12.294991"><ele>932.5</ele><time>2026-04-12T15:13:42.013Z</time></trkpt><trkpt lat="43.7955822" lon="12.2950305"><ele>931.3333333333334</ele><time>2026-04-12T15:13:43.014Z</time></trkpt><trkpt lat="43.7956603" lon="12.2950927"><ele>930.1666666666667</ele><time>2026-04-12T15:13:44.01Z</time></trkpt><trkpt lat="43.7957497" lon="12.2951537"><ele>929.0</ele><time>2026-04-12T15:13:45.012Z</time></trkpt><trkpt lat="43.7958463" lon="12.2951958"><ele>929.0</ele><time>2026-04-12T15:13:46.013Z</time></trkpt><trkpt lat="43.7959368" lon="12.2952305"><ele>929.0000000000001</ele><time>2026-04-12T15:13:47.011Z</time></trkpt><trkpt lat="43.7960233" lon="12.295268"><ele>929.0000000000001</ele><time>2026-04-12T15:13:48.013Z</time></trkpt><trkpt lat="43.7961039" lon="12.2953136"><ele>929.0</ele><time>2026-04-12T15:13:49.016Z</time></trkpt><trkpt lat="43.7961625" lon="12.2954021"><ele>929.0</ele><time>2026-04-12T15:13:50.01Z</time></trkpt><trkpt lat="43.7961927" lon="12.2955295"><ele>927.75</ele><time>2026-04-12T15:13:51.011Z</time></trkpt><trkpt lat="43.7962111" lon="12.295672"><ele>926.5</ele><time>2026-04-12T15:13:52.012Z</time></trkpt><trkpt lat="43.796257" lon="12.2958122"><ele>925.25</ele><time>2026-04-12T15:13:53.013Z</time></trkpt><trkpt lat="43.7963284" lon="12.2959586"><ele>924.0</ele><time>2026-04-12T15:13:54.012Z</time></trkpt><trkpt lat="43.7964049" lon="12.296108"><ele>924.0</ele><time>2026-04-12T15:13:55.011Z</time></trkpt><trkpt lat="43.7964828" lon="12.2962582"><ele>924.0</ele><time>2026-04-12T15:13:56.014Z</time></trkpt><trkpt lat="43.7965571" lon="12.2964039"><ele>924.0</ele><time>2026-04-12T15:13:57.011Z</time></trkpt><trkpt lat="43.7966259" lon="12.2965385"><ele>924.0</ele><time>2026-04-12T15:13:58.011Z</time></trkpt><trkpt lat="43.7967126" lon="12.2966261"><ele>924.75</ele><time>2026-04-12T15:13:59.012Z</time></trkpt><trkpt lat="43.796825" lon="12.296664"><ele>925.5</ele><time>2026-04-12T15:14:00.011Z</time></trkpt><trkpt lat="43.7969484" lon="12.2966794"><ele>926.25</ele><time>2026-04-12T15:14:01.011Z</time></trkpt><trkpt lat="43.7970727" lon="12.296724"><ele>927.0</ele><time>2026-04-12T15:14:02.009Z</time></trkpt><trkpt lat="43.7971935" lon="12.2968046"><ele>927.0</ele><time>2026-04-12T15:14:03.011Z</time></trkpt><trkpt lat="43.7972979" lon="12.2968906"><ele>927.0</ele><time>2026-04-12T15:14:04.011Z</time></trkpt><trkpt lat="43.7973866" lon="12.2969563"><ele>927.0</ele><time>2026-04-12T15:14:05.012Z</time></trkpt><trkpt lat="43.7974648" lon="12.2970206"><ele>927.0</ele><time>2026-04-12T15:14:06.01Z</time></trkpt><trkpt lat="43.7975383" lon="12.2970606"><ele>927.0</ele><time>2026-04-12T15:14:07.01Z</time></trkpt><trkpt lat="43.797616" lon="12.2970577"><ele>928.25</ele><time>2026-04-12T15:14:08.014Z</time></trkpt><trkpt lat="43.7977018" lon="12.2970018"><ele>929.5</ele><time>2026-04-12T15:14:09.012Z</time></trkpt><trkpt lat="43.7978016" lon="12.2969106"><ele>930.75</ele><time>2026-04-12T15:14:10.012Z</time></trkpt><trkpt lat="43.7979216" lon="12.2968528"><ele>932.0</ele><time>2026-04-12T15:14:11.013Z</time></trkpt><trkpt lat="43.798056" lon="12.29685"><ele>932.0</ele><time>2026-04-12T15:14:12.01Z</time></trkpt><trkpt lat="43.7981815" lon="12.2968801"><ele>932.0</ele><time>2026-04-12T15:14:13.01Z</time></trkpt><trkpt lat="43.7982933" lon="12.2969211"><ele>932.0</ele><time>2026-04-12T15:14:14.012Z</time></trkpt><trkpt lat="43.7983959" lon="12.2969298"><ele>932.0</ele><time>2026-04-12T15:14:15.014Z</time></trkpt><trkpt lat="43.7984846" lon="12.2968849"><ele>932.0</ele><time>2026-04-12T15:14:16.012Z</time></trkpt><trkpt lat="43.7985583" lon="12.2967965"><ele>935.5</ele><time>2026-04-12T15:14:17.01Z</time></trkpt><trkpt lat="43.7986156" lon="12.2966654"><ele>939.0</ele><time>2026-04-12T15:14:18.011Z</time></trkpt><trkpt lat="43.7986641" lon="12.2965087"><ele>942.5</ele><time>2026-04-12T15:14:19.011Z</time></trkpt><trkpt lat="43.7987041" lon="12.2963371"><ele>946.0</ele><time>2026-04-12T15:14:20.011Z</time></trkpt><trkpt lat="43.7987252" lon="12.296155"><ele>946.0</ele><time>2026-04-12T15:14:21.01Z</time></trkpt><trkpt lat="43.7987216" lon="12.2959697"><ele>946.0</ele><time>2026-04-12T15:14:22.012Z</time></trkpt><trkpt lat="43.7987076" lon="12.2957975"><ele>946.0</ele><time>2026-04-12T15:14:23.009Z</time></trkpt><trkpt lat="43.7986872" lon="12.295635"><ele>946.0</ele><time>2026-04-12T15:14:24.012Z</time></trkpt><trkpt lat="43.7986555" lon="12.2954859"><ele>943.4</ele><time>2026-04-12T15:14:25.011Z</time></trkpt><trkpt lat="43.7986204" lon="12.2953486"><ele>940.8</ele><time>2026-04-12T15:14:26.015Z</time></trkpt><trkpt lat="43.7985942" lon="12.295214"><ele>938.1999999999999</ele><time>2026-04-12T15:14:27.011Z</time></trkpt><trkpt lat="43.7986015" lon="12.2950755"><ele>935.5999999999999</ele><time>2026-04-12T15:14:28.012Z</time></trkpt><trkpt lat="43.7986542" lon="12.2949419"><ele>933.0</ele><time>2026-04-12T15:14:29.011Z</time></trkpt><trkpt lat="43.7987385" lon="12.2948258"><ele>929.5</ele><time>2026-04-12T15:14:30.009Z</time></trkpt><trkpt lat="43.7988339" lon="12.2947226"><ele>926.0</ele><time>2026-04-12T15:14:31.009Z</time></trkpt><trkpt lat="43.7989217" lon="12.2946189"><ele>922.5</ele><time>2026-04-12T15:14:32.015Z</time></trkpt><trkpt lat="43.798993" lon="12.2945027"><ele>919.0</ele><time>2026-04-12T15:14:33.011Z</time></trkpt><trkpt lat="43.7990366" lon="12.2943582"><ele>919.0</ele><time>2026-04-12T15:14:34.01Z</time></trkpt><trkpt lat="43.7990532" lon="12.2941931"><ele>919.0</ele><time>2026-04-12T15:14:35.01Z</time></trkpt><trkpt lat="43.799073" lon="12.294028"><ele>919.0</ele><time>2026-04-12T15:14:36.01Z</time></trkpt><trkpt lat="43.7991001" lon="12.2938761"><ele>919.0</ele><time>2026-04-12T15:14:37.012Z</time></trkpt><trkpt lat="43.7991214" lon="12.2937303"><ele>918.8000000000001</ele><time>2026-04-12T15:14:38.011Z</time></trkpt><trkpt lat="43.7991231" lon="12.2935868"><ele>918.6000000000001</ele><time>2026-04-12T15:14:39.014Z</time></trkpt><trkpt lat="43.7990839" lon="12.2934531"><ele>918.4</ele><time>2026-04-12T15:14:40.011Z</time></trkpt><trkpt lat="43.799009" lon="12.2933304"><ele>918.2</ele><time>2026-04-12T15:14:41.011Z</time></trkpt><trkpt lat="43.7989243" lon="12.2932048"><ele>918.0</ele><time>2026-04-12T15:14:42.013Z</time></trkpt><trkpt lat="43.7988538" lon="12.2930508"><ele>918.0</ele><time>2026-04-12T15:14:43.01Z</time></trkpt><trkpt lat="43.7988059" lon="12.2928698"><ele>918.0</ele><time>2026-04-12T15:14:44.012Z</time></trkpt><trkpt lat="43.7987868" lon="12.2926781"><ele>918.0</ele><time>2026-04-12T15:14:45.012Z</time></trkpt><trkpt lat="43.7987938" lon="12.2924937"><ele>918.0</ele><time>2026-04-12T15:14:46.014Z</time></trkpt><trkpt lat="43.7988186" lon="12.2923246"><ele>916.5999999999999</ele><time>2026-04-12T15:14:47.009Z</time></trkpt><trkpt lat="43.7988499" lon="12.2921822"><ele>915.1999999999999</ele><time>2026-04-12T15:14:48.01Z</time></trkpt><trkpt lat="43.7988552" lon="12.292066"><ele>913.8</ele><time>2026-04-12T15:14:49.011Z</time></trkpt><trkpt lat="43.7988348" lon="12.2919764"><ele>912.4</ele><time>2026-04-12T15:14:50.013Z</time></trkpt><trkpt lat="43.7987163" lon="12.2919443"><ele>911.0</ele><time>2026-04-12T15:14:52.011Z</time></trkpt><trkpt lat="43.7986554" lon="12.2920085"><ele>911.0</ele><time>2026-04-12T15:14:53.012Z</time></trkpt><trkpt lat="43.7986052" lon="12.292071"><ele>910.9999999999999</ele><time>2026-04-12T15:14:54.01Z</time></trkpt><trkpt lat="43.7985505" lon="12.2921155"><ele>910.9999999999999</ele><time>2026-04-12T15:14:55.01Z</time></trkpt><trkpt lat="43.7984624" lon="12.2922695"><ele>911.0</ele><time>2026-04-12T15:14:56.01Z</time></trkpt><trkpt lat="43.7983645" lon="12.2924404"><ele>911.0</ele><time>2026-04-12T15:14:57.011Z</time></trkpt><trkpt lat="43.7982633" lon="12.2925808"><ele>907.1999999999999</ele><time>2026-04-12T15:14:58.013Z</time></trkpt><trkpt lat="43.7981687" lon="12.2926953"><ele>903.3999999999999</ele><time>2026-04-12T15:14:59.012Z</time></trkpt><trkpt lat="43.7980858" lon="12.2927693"><ele>899.6</ele><time>2026-04-12T15:15:00.011Z</time></trkpt><trkpt lat="43.7980208" lon="12.2927978"><ele>895.8</ele><time>2026-04-12T15:15:01.01Z</time></trkpt><trkpt lat="43.7979074" lon="12.2927295"><ele>892.0</ele><time>2026-04-12T15:15:03.01Z</time></trkpt><trkpt lat="43.7978884" lon="12.2926407"><ele>892.0</ele><time>2026-04-12T15:15:04.011Z</time></trkpt><trkpt lat="43.7979092" lon="12.292525"><ele>892.0</ele><time>2026-04-12T15:15:05.01Z</time></trkpt><trkpt lat="43.7980193" lon="12.2923656"><ele>892.0</ele><time>2026-04-12T15:15:06.01Z</time></trkpt><trkpt lat="43.7981324" lon="12.2922257"><ele>892.0</ele><time>2026-04-12T15:15:07.013Z</time></trkpt><trkpt lat="43.7982129" lon="12.2920839"><ele>891.25</ele><time>2026-04-12T15:15:08.011Z</time></trkpt><trkpt lat="43.7982502" lon="12.2919295"><ele>890.5</ele><time>2026-04-12T15:15:09.011Z</time></trkpt><trkpt lat="43.7982559" lon="12.2917548"><ele>889.75</ele><time>2026-04-12T15:15:10.01Z</time></trkpt><trkpt lat="43.7982486" lon="12.2915695"><ele>889.0</ele><time>2026-04-12T15:15:11.009Z</time></trkpt><trkpt lat="43.7982233" lon="12.2913785"><ele>887.25</ele><time>2026-04-12T15:15:12.011Z</time></trkpt><trkpt lat="43.7981777" lon="12.2911877"><ele>885.5</ele><time>2026-04-12T15:15:13.01Z</time></trkpt><trkpt lat="43.7981086" lon="12.2910086"><ele>883.75</ele><time>2026-04-12T15:15:14.009Z</time></trkpt><trkpt lat="43.7980512" lon="12.2908488"><ele>882.0</ele><time>2026-04-12T15:15:15.012Z</time></trkpt><trkpt lat="43.7980325" lon="12.2907047"><ele>878.5</ele><time>2026-04-12T15:15:16.011Z</time></trkpt><trkpt lat="43.7980643" lon="12.2905686"><ele>875.0</ele><time>2026-04-12T15:15:17.01Z</time></trkpt><trkpt lat="43.7981329" lon="12.2904421"><ele>871.5</ele><time>2026-04-12T15:15:18.013Z</time></trkpt><trkpt lat="43.7982322" lon="12.2903428"><ele>868.0</ele><time>2026-04-12T15:15:19.012Z</time></trkpt><trkpt lat="43.7983336" lon="12.2902545"><ele>868.0</ele><time>2026-04-12T15:15:20.013Z</time></trkpt><trkpt lat="43.7984127" lon="12.2901509"><ele>868.0</ele><time>2026-04-12T15:15:21.01Z</time></trkpt><trkpt lat="43.7984601" lon="12.2900086"><ele>868.0</ele><time>2026-04-12T15:15:22.012Z</time></trkpt><trkpt lat="43.7984884" lon="12.2898536"><ele>868.0</ele><time>2026-04-12T15:15:23.011Z</time></trkpt><trkpt lat="43.7984821" lon="12.2896789"><ele>870.75</ele><time>2026-04-12T15:15:24.013Z</time></trkpt><trkpt lat="43.7984652" lon="12.2895021"><ele>873.5</ele><time>2026-04-12T15:15:25.012Z</time></trkpt><trkpt lat="43.7984684" lon="12.2893359"><ele>876.25</ele><time>2026-04-12T15:15:26.013Z</time></trkpt><trkpt lat="43.7984911" lon="12.2891842"><ele>879.0</ele><time>2026-04-12T15:15:27.011Z</time></trkpt><trkpt lat="43.7985567" lon="12.2890495"><ele>879.0</ele><time>2026-04-12T15:15:28.012Z</time></trkpt><trkpt lat="43.7986438" lon="12.2889261"><ele>879.0</ele><time>2026-04-12T15:15:29.012Z</time></trkpt><trkpt lat="43.7987458" lon="12.2888178"><ele>879.0</ele><time>2026-04-12T15:15:30.011Z</time></trkpt><trkpt lat="43.7988277" lon="12.2887048"><ele>879.0</ele><time>2026-04-12T15:15:31.014Z</time></trkpt><trkpt lat="43.7988784" lon="12.2885756"><ele>875.5</ele><time>2026-04-12T15:15:32.011Z</time></trkpt><trkpt lat="43.7988925" lon="12.2884243"><ele>872.0</ele><time>2026-04-12T15:15:33.014Z</time></trkpt><trkpt lat="43.7988718" lon="12.2882569"><ele>868.5</ele><time>2026-04-12T15:15:34.013Z</time></trkpt><trkpt lat="43.7988384" lon="12.2880823"><ele>865.0</ele><time>2026-04-12T15:15:35.011Z</time></trkpt><trkpt lat="43.7988322" lon="12.2879197"><ele>860.4999999999999</ele><time>2026-04-12T15:15:36.011Z</time></trkpt><trkpt lat="43.7988526" lon="12.2877748"><ele>856.0</ele><time>2026-04-12T15:15:37.012Z</time></trkpt><trkpt lat="43.7988955" lon="12.2876601"><ele>851.5</ele><time>2026-04-12T15:15:38.011Z</time></trkpt><trkpt lat="43.7989423" lon="12.2875699"><ele>847.0</ele><time>2026-04-12T15:15:39.014Z</time></trkpt><trkpt lat="43.7990038" lon="12.2875075"><ele>842.4999999999999</ele><time>2026-04-12T15:15:40.012Z</time></trkpt><trkpt lat="43.799072" lon="12.2874709"><ele>838.0</ele><time>2026-04-12T15:15:41.011Z</time></trkpt><trkpt lat="43.7992227" lon="12.287516"><ele>835.0</ele><time>2026-04-12T15:15:42.011Z</time></trkpt><trkpt lat="43.7993925" lon="12.2876005"><ele>832.0</ele><time>2026-04-12T15:15:43.013Z</time></trkpt><trkpt lat="43.7995666" lon="12.2876961"><ele>829.0</ele><time>2026-04-12T15:15:44.012Z</time></trkpt><trkpt lat="43.7997255" lon="12.2877897"><ele>829.0</ele><time>2026-04-12T15:15:45.011Z</time></trkpt><trkpt lat="43.7998722" lon="12.2878591"><ele>829.0</ele><time>2026-04-12T15:15:46.013Z</time></trkpt><trkpt lat="43.8000203" lon="12.2879006"><ele>829.0</ele><time>2026-04-12T15:15:47.012Z</time></trkpt><trkpt lat="43.8001656" lon="12.2879084"><ele>824.75</ele><time>2026-04-12T15:15:48.014Z</time></trkpt><trkpt lat="43.8003062" lon="12.2878935"><ele>820.5</ele><time>2026-04-12T15:15:49.012Z</time></trkpt><trkpt lat="43.8004392" lon="12.2878806"><ele>816.25</ele><time>2026-04-12T15:15:50.009Z</time></trkpt><trkpt lat="43.8005655" lon="12.2879031"><ele>812.0</ele><time>2026-04-12T15:15:51.013Z</time></trkpt><trkpt lat="43.8006859" lon="12.2879609"><ele>812.0</ele><time>2026-04-12T15:15:52.011Z</time></trkpt><trkpt lat="43.800802" lon="12.2880005"><ele>812.0</ele><time>2026-04-12T15:15:53.015Z</time></trkpt><trkpt lat="43.8009144" lon="12.2879809"><ele>812.0</ele><time>2026-04-12T15:15:54.01Z</time></trkpt><trkpt lat="43.801023" lon="12.2879162"><ele>812.0</ele><time>2026-04-12T15:15:55.012Z</time></trkpt><trkpt lat="43.8011231" lon="12.2878399"><ele>813.0</ele><time>2026-04-12T15:15:56.012Z</time></trkpt><trkpt lat="43.8012122" lon="12.2878029"><ele>814.0</ele><time>2026-04-12T15:15:57.012Z</time></trkpt><trkpt lat="43.8012864" lon="12.2878281"><ele>815.0</ele><time>2026-04-12T15:15:58.014Z</time></trkpt><trkpt lat="43.8013379" lon="12.2879124"><ele>816.0</ele><time>2026-04-12T15:15:59.01Z</time></trkpt><trkpt lat="43.8013629" lon="12.2880526"><ele>817.0</ele><time>2026-04-12T15:16:00.011Z</time></trkpt><trkpt lat="43.8013926" lon="12.2882074"><ele>817.0</ele><time>2026-04-12T15:16:01.012Z</time></trkpt><trkpt lat="43.8014391" lon="12.2883583"><ele>817.0</ele><time>2026-04-12T15:16:02.011Z</time></trkpt><trkpt lat="43.801487" lon="12.2885029"><ele>817.0</ele><time>2026-04-12T15:16:03.012Z</time></trkpt><trkpt lat="43.8015303" lon="12.2886375"><ele>817.0</ele><time>2026-04-12T15:16:04.011Z</time></trkpt><trkpt lat="43.8015856" lon="12.2887514"><ele>817.0</ele><time>2026-04-12T15:16:05.014Z</time></trkpt><trkpt lat="43.8016572" lon="12.2888392"><ele>817.0</ele><time>2026-04-12T15:16:06.011Z</time></trkpt><trkpt lat="43.8017461" lon="12.2889007"><ele>817.0</ele><time>2026-04-12T15:16:07.011Z</time></trkpt><trkpt lat="43.8018391" lon="12.2889485"><ele>817.0</ele><time>2026-04-12T15:16:08.011Z</time></trkpt><trkpt lat="43.8019313" lon="12.2889857"><ele>817.0</ele><time>2026-04-12T15:16:09.014Z</time></trkpt><trkpt lat="43.8020223" lon="12.2889843"><ele>817.0</ele><time>2026-04-12T15:16:10.01Z</time></trkpt><trkpt lat="43.8021076" lon="12.2889276"><ele>812.8</ele><time>2026-04-12T15:16:11.011Z</time></trkpt><trkpt lat="43.8021902" lon="12.2888304"><ele>808.6</ele><time>2026-04-12T15:16:12.012Z</time></trkpt><trkpt lat="43.802273" lon="12.2887272"><ele>804.4</ele><time>2026-04-12T15:16:13.014Z</time></trkpt><trkpt lat="43.8023594" lon="12.288657"><ele>800.1999999999999</ele><time>2026-04-12T15:16:14.014Z</time></trkpt><trkpt lat="43.802447" lon="12.2886292"><ele>796.0</ele><time>2026-04-12T15:16:15.014Z</time></trkpt><trkpt lat="43.8025325" lon="12.2886408"><ele>796.0</ele><time>2026-04-12T15:16:16.013Z</time></trkpt><trkpt lat="43.8026069" lon="12.2887145"><ele>796.0</ele><time>2026-04-12T15:16:17.012Z</time></trkpt><trkpt lat="43.8026758" lon="12.2888141"><ele>796.0</ele><time>2026-04-12T15:16:18.012Z</time></trkpt><trkpt lat="43.8027429" lon="12.2889144"><ele>796.0</ele><time>2026-04-12T15:16:19.012Z</time></trkpt><trkpt lat="43.8028106" lon="12.289019"><ele>796.0</ele><time>2026-04-12T15:16:20.013Z</time></trkpt><trkpt lat="43.8028976" lon="12.2891199"><ele>795.5</ele><time>2026-04-12T15:16:21.014Z</time></trkpt><trkpt lat="43.8029951" lon="12.2892124"><ele>795.0</ele><time>2026-04-12T15:16:22.011Z</time></trkpt><trkpt lat="43.8030961" lon="12.289294"><ele>794.5</ele><time>2026-04-12T15:16:23.011Z</time></trkpt><trkpt lat="43.8031845" lon="12.2893879"><ele>794.0</ele><time>2026-04-12T15:16:24.012Z</time></trkpt><trkpt lat="43.8032492" lon="12.2895145"><ele>794.0</ele><time>2026-04-12T15:16:25.014Z</time></trkpt><trkpt lat="43.8033029" lon="12.2896474"><ele>794.0</ele><time>2026-04-12T15:16:26.013Z</time></trkpt><trkpt lat="43.8033618" lon="12.2897694"><ele>794.0</ele><time>2026-04-12T15:16:27.012Z</time></trkpt><trkpt lat="43.8034327" lon="12.2898704"><ele>794.0</ele><time>2026-04-12T15:16:28.014Z</time></trkpt><trkpt lat="43.8035162" lon="12.2899554"><ele>794.0</ele><time>2026-04-12T15:16:29.011Z</time></trkpt><trkpt lat="43.8036137" lon="12.290029"><ele>792.25</ele><time>2026-04-12T15:16:30.017Z</time></trkpt><trkpt lat="43.8037182" lon="12.2901008"><ele>790.5</ele><time>2026-04-12T15:16:31.013Z</time></trkpt><trkpt lat="43.8038294" lon="12.2901619"><ele>788.75</ele><time>2026-04-12T15:16:32.013Z</time></trkpt><trkpt lat="43.8039367" lon="12.2902245"><ele>787.0</ele><time>2026-04-12T15:16:33.012Z</time></trkpt><trkpt lat="43.8040385" lon="12.2902874"><ele>787.0</ele><time>2026-04-12T15:16:34.012Z</time></trkpt><trkpt lat="43.8041334" lon="12.2903515"><ele>787.0</ele><time>2026-04-12T15:16:35.012Z</time></trkpt><trkpt lat="43.8042307" lon="12.2904074"><ele>787.0</ele><time>2026-04-12T15:16:36.012Z</time></trkpt><trkpt lat="43.8043386" lon="12.2904535"><ele>787.0</ele><time>2026-04-12T15:16:37.012Z</time></trkpt><trkpt lat="43.804456" lon="12.290487"><ele>787.0</ele><time>2026-04-12T15:16:38.014Z</time></trkpt><trkpt lat="43.8045803" lon="12.290507"><ele>786.0</ele><time>2026-04-12T15:16:39.012Z</time></trkpt><trkpt lat="43.804702" lon="12.2905293"><ele>785.0</ele><time>2026-04-12T15:16:40.014Z</time></trkpt><trkpt lat="43.8048154" lon="12.2905452"><ele>784.0</ele><time>2026-04-12T15:16:41.011Z</time></trkpt><trkpt lat="43.8049217" lon="12.2905557"><ele>783.0</ele><time>2026-04-12T15:16:42.012Z</time></trkpt><trkpt lat="43.8050262" lon="12.2905448"><ele>782.0</ele><time>2026-04-12T15:16:43.015Z</time></trkpt><trkpt lat="43.8051316" lon="12.2905054"><ele>783.0</ele><time>2026-04-12T15:16:44.012Z</time></trkpt><trkpt lat="43.8052295" lon="12.2904315"><ele>784.0</ele><time>2026-04-12T15:16:45.013Z</time></trkpt><trkpt lat="43.8053175" lon="12.2903281"><ele>785.0</ele><time>2026-04-12T15:16:46.011Z</time></trkpt><trkpt lat="43.8053839" lon="12.2901854"><ele>786.0</ele><time>2026-04-12T15:16:47.012Z</time></trkpt><trkpt lat="43.8054329" lon="12.2900333"><ele>786.0</ele><time>2026-04-12T15:16:48.015Z</time></trkpt><trkpt lat="43.8054544" lon="12.2898517"><ele>786.0</ele><time>2026-04-12T15:16:49.012Z</time></trkpt><trkpt lat="43.8054815" lon="12.2896598"><ele>786.0</ele><time>2026-04-12T15:16:50.016Z</time></trkpt><trkpt lat="43.8055351" lon="12.289486"><ele>786.0</ele><time>2026-04-12T15:16:51.012Z</time></trkpt><trkpt lat="43.8055976" lon="12.2893326"><ele>783.0</ele><time>2026-04-12T15:16:52.013Z</time></trkpt><trkpt lat="43.8056671" lon="12.2892125"><ele>780.0</ele><time>2026-04-12T15:16:53.012Z</time></trkpt><trkpt lat="43.8057444" lon="12.2891257"><ele>777.0</ele><time>2026-04-12T15:16:54.012Z</time></trkpt><trkpt lat="43.805825" lon="12.2890621"><ele>774.0</ele><time>2026-04-12T15:16:55.011Z</time></trkpt><trkpt lat="43.8059149" lon="12.2890446"><ele>771.0</ele><time>2026-04-12T15:16:56.012Z</time></trkpt><trkpt lat="43.8060079" lon="12.289064"><ele>768.5</ele><time>2026-04-12T15:16:57.013Z</time></trkpt><trkpt lat="43.8060899" lon="12.2891585"><ele>766.0</ele><time>2026-04-12T15:16:58.011Z</time></trkpt><trkpt lat="43.8061383" lon="12.2893385"><ele>763.5</ele><time>2026-04-12T15:16:59.012Z</time></trkpt><trkpt lat="43.8061837" lon="12.289504"><ele>761.0</ele><time>2026-04-12T15:17:00.014Z</time></trkpt><trkpt lat="43.8062417" lon="12.2896285"><ele>761.0</ele><time>2026-04-12T15:17:01.012Z</time></trkpt><trkpt lat="43.8063179" lon="12.289698"><ele>761.0</ele><time>2026-04-12T15:17:02.013Z</time></trkpt><trkpt lat="43.8064162" lon="12.2897143"><ele>761.0</ele><time>2026-04-12T15:17:03.011Z</time></trkpt><trkpt lat="43.8065115" lon="12.289691"><ele>761.0</ele><time>2026-04-12T15:17:04.012Z</time></trkpt><trkpt lat="43.8066068" lon="12.2896129"><ele>761.0</ele><time>2026-04-12T15:17:05.012Z</time></trkpt><trkpt lat="43.8066979" lon="12.2895249"><ele>761.0</ele><time>2026-04-12T15:17:06.011Z</time></trkpt><trkpt lat="43.806795" lon="12.2894444"><ele>761.0</ele><time>2026-04-12T15:17:07.013Z</time></trkpt><trkpt lat="43.8068912" lon="12.2893558"><ele>761.0</ele><time>2026-04-12T15:17:08.013Z</time></trkpt><trkpt lat="43.8069929" lon="12.2892709"><ele>761.0</ele><time>2026-04-12T15:17:09.013Z</time></trkpt><trkpt lat="43.8071074" lon="12.2892016"><ele>760.5</ele><time>2026-04-12T15:17:10.013Z</time></trkpt><trkpt lat="43.807235" lon="12.2891671"><ele>760.0</ele><time>2026-04-12T15:17:11.011Z</time></trkpt><trkpt lat="43.8073608" lon="12.2891598"><ele>759.5</ele><time>2026-04-12T15:17:12.01Z</time></trkpt><trkpt lat="43.807482" lon="12.2891694"><ele>759.0</ele><time>2026-04-12T15:17:13.014Z</time></trkpt><trkpt lat="43.8075894" lon="12.2891899"><ele>757.4000000000001</ele><time>2026-04-12T15:17:14.012Z</time></trkpt><trkpt lat="43.8076883" lon="12.2892144"><ele>755.8</ele><time>2026-04-12T15:17:15.012Z</time></trkpt><trkpt lat="43.8077842" lon="12.2892421"><ele>754.2</ele><time>2026-04-12T15:17:16.013Z</time></trkpt><trkpt lat="43.8078753" lon="12.2892745"><ele>752.5999999999999</ele><time>2026-04-12T15:17:17.012Z</time></trkpt><trkpt lat="43.807973" lon="12.2893084"><ele>751.0</ele><time>2026-04-12T15:17:18.014Z</time></trkpt><trkpt lat="43.8080745" lon="12.2893484"><ele>751.0</ele><time>2026-04-12T15:17:19.013Z</time></trkpt><trkpt lat="43.808178" lon="12.2893696"><ele>751.0</ele><time>2026-04-12T15:17:20.011Z</time></trkpt><trkpt lat="43.8082886" lon="12.2893826"><ele>751.0</ele><time>2026-04-12T15:17:21.013Z</time></trkpt><trkpt lat="43.8083997" lon="12.289364"><ele>751.0</ele><time>2026-04-12T15:17:22.012Z</time></trkpt><trkpt lat="43.808506" lon="12.2893171"><ele>751.0</ele><time>2026-04-12T15:17:23.013Z</time></trkpt><trkpt lat="43.8085947" lon="12.2892299"><ele>747.75</ele><time>2026-04-12T15:17:24.013Z</time></trkpt><trkpt lat="43.8086602" lon="12.289107"><ele>744.5</ele><time>2026-04-12T15:17:25.01Z</time></trkpt><trkpt lat="43.8087" lon="12.2889613"><ele>741.25</ele><time>2026-04-12T15:17:26.011Z</time></trkpt><trkpt lat="43.808737" lon="12.2887978"><ele>738.0</ele><time>2026-04-12T15:17:27.013Z</time></trkpt><trkpt lat="43.8087831" lon="12.2886394"><ele>738.0</ele><time>2026-04-12T15:17:28.016Z</time></trkpt><trkpt lat="43.8088469" lon="12.2885015"><ele>738.0</ele><time>2026-04-12T15:17:29.012Z</time></trkpt><trkpt lat="43.808927" lon="12.2883866"><ele>738.0</ele><time>2026-04-12T15:17:30.011Z</time></trkpt><trkpt lat="43.8090208" lon="12.2882923"><ele>738.0</ele><time>2026-04-12T15:17:31.015Z</time></trkpt><trkpt lat="43.8091159" lon="12.2882086"><ele>738.0</ele><time>2026-04-12T15:17:32.012Z</time></trkpt><trkpt lat="43.8092066" lon="12.2881272"><ele>738.0</ele><time>2026-04-12T15:17:33.012Z</time></trkpt><trkpt lat="43.8092835" lon="12.2880269"><ele>738.0</ele><time>2026-04-12T15:17:34.011Z</time></trkpt><trkpt lat="43.8093431" lon="12.2878959"><ele>738.0</ele><time>2026-04-12T15:17:35.013Z</time></trkpt><trkpt lat="43.8093891" lon="12.287749"><ele>738.0</ele><time>2026-04-12T15:17:36.014Z</time></trkpt><trkpt lat="43.8094205" lon="12.2875839"><ele>739.25</ele><time>2026-04-12T15:17:37.015Z</time></trkpt><trkpt lat="43.809462" lon="12.2874201"><ele>740.5</ele><time>2026-04-12T15:17:38.015Z</time></trkpt><trkpt lat="43.8095206" lon="12.2872672"><ele>741.75</ele><time>2026-04-12T15:17:39.011Z</time></trkpt><trkpt lat="43.8095899" lon="12.2871259"><ele>743.0</ele><time>2026-04-12T15:17:40.011Z</time></trkpt><trkpt lat="43.8096556" lon="12.2869877"><ele>743.0</ele><time>2026-04-12T15:17:41.011Z</time></trkpt><trkpt lat="43.8097126" lon="12.2868482"><ele>743.0</ele><time>2026-04-12T15:17:42.01Z</time></trkpt><trkpt lat="43.80974" lon="12.286696"><ele>743.0</ele><time>2026-04-12T15:17:43.01Z</time></trkpt><trkpt lat="43.8097397" lon="12.2865274"><ele>743.0</ele><time>2026-04-12T15:17:44.01Z</time></trkpt><trkpt lat="43.8097251" lon="12.286356"><ele>741.5</ele><time>2026-04-12T15:17:45.015Z</time></trkpt><trkpt lat="43.8097378" lon="12.2861932"><ele>740.0</ele><time>2026-04-12T15:17:46.013Z</time></trkpt><trkpt lat="43.8097883" lon="12.2860379"><ele>738.5</ele><time>2026-04-12T15:17:47.014Z</time></trkpt><trkpt lat="43.8098576" lon="12.2858843"><ele>737.0</ele><time>2026-04-12T15:17:48.012Z</time></trkpt><trkpt lat="43.8099179" lon="12.2857282"><ele>735.6</ele><time>2026-04-12T15:17:49.012Z</time></trkpt><trkpt lat="43.8099604" lon="12.2855766"><ele>734.2</ele><time>2026-04-12T15:17:50.014Z</time></trkpt><trkpt lat="43.8100037" lon="12.2854334"><ele>732.8</ele><time>2026-04-12T15:17:51.013Z</time></trkpt><trkpt lat="43.8100712" lon="12.285318"><ele>731.4</ele><time>2026-04-12T15:17:52.013Z</time></trkpt><trkpt lat="43.8101537" lon="12.2852234"><ele>730.0</ele><time>2026-04-12T15:17:53.01Z</time></trkpt><trkpt lat="43.810257" lon="12.2851494"><ele>730.0</ele><time>2026-04-12T15:17:54.011Z</time></trkpt><trkpt lat="43.8103739" lon="12.2850797"><ele>730.0</ele><time>2026-04-12T15:17:55.012Z</time></trkpt><trkpt lat="43.8104944" lon="12.2849989"><ele>730.0</ele><time>2026-04-12T15:17:56.013Z</time></trkpt><trkpt lat="43.8106175" lon="12.2849079"><ele>730.0</ele><time>2026-04-12T15:17:57.013Z</time></trkpt><trkpt lat="43.8107385" lon="12.2848004"><ele>726.6666666666667</ele><time>2026-04-12T15:17:58.011Z</time></trkpt><trkpt lat="43.8108562" lon="12.2846738"><ele>723.3333333333334</ele><time>2026-04-12T15:17:59.011Z</time></trkpt><trkpt lat="43.8109759" lon="12.2845359"><ele>720.0</ele><time>2026-04-12T15:18:00.012Z</time></trkpt><trkpt lat="43.8110975" lon="12.2843968"><ele>720.0</ele><time>2026-04-12T15:18:01.011Z</time></trkpt><trkpt lat="43.8112206" lon="12.2842653"><ele>720.0</ele><time>2026-04-12T15:18:02.013Z</time></trkpt><trkpt lat="43.8113371" lon="12.2841251"><ele>720.0</ele><time>2026-04-12T15:18:03.013Z</time></trkpt><trkpt lat="43.811439" lon="12.2839553"><ele>715.3333333333334</ele><time>2026-04-12T15:18:04.011Z</time></trkpt><trkpt lat="43.8115344" lon="12.2837699"><ele>710.6666666666667</ele><time>2026-04-12T15:18:05.013Z</time></trkpt><trkpt lat="43.8116267" lon="12.2835819"><ele>706.0</ele><time>2026-04-12T15:18:06.012Z</time></trkpt><trkpt lat="43.8117111" lon="12.2833908"><ele>706.0</ele><time>2026-04-12T15:18:07.012Z</time></trkpt><trkpt lat="43.811787" lon="12.2831956"><ele>706.0</ele><time>2026-04-12T15:18:08.011Z</time></trkpt><trkpt lat="43.8118485" lon="12.2829993"><ele>706.0</ele><time>2026-04-12T15:18:09.014Z</time></trkpt><trkpt lat="43.8119004" lon="12.282815"><ele>707.75</ele><time>2026-04-12T15:18:10.013Z</time></trkpt><trkpt lat="43.8119526" lon="12.2826523"><ele>709.5</ele><time>2026-04-12T15:18:11.014Z</time></trkpt><trkpt lat="43.8120206" lon="12.2825147"><ele>711.25</ele><time>2026-04-12T15:18:12.012Z</time></trkpt><trkpt lat="43.8121186" lon="12.2824068"><ele>713.0</ele><time>2026-04-12T15:18:13.015Z</time></trkpt><trkpt lat="43.8122377" lon="12.2823173"><ele>709.25</ele><time>2026-04-12T15:18:14.011Z</time></trkpt><trkpt lat="43.8123651" lon="12.2822387"><ele>705.5</ele><time>2026-04-12T15:18:15.014Z</time></trkpt><trkpt lat="43.8124938" lon="12.2821683"><ele>701.75</ele><time>2026-04-12T15:18:16.011Z</time></trkpt><trkpt lat="43.812619" lon="12.2820976"><ele>698.0</ele><time>2026-04-12T15:18:17.012Z</time></trkpt><trkpt lat="43.8127403" lon="12.2820144"><ele>698.0</ele><time>2026-04-12T15:18:18.014Z</time></trkpt><trkpt lat="43.8128526" lon="12.2819123"><ele>698.0</ele><time>2026-04-12T15:18:19.012Z</time></trkpt><trkpt lat="43.8129532" lon="12.2817929"><ele>698.0</ele><time>2026-04-12T15:18:20.011Z</time></trkpt><trkpt lat="43.813055" lon="12.2816823"><ele>698.0</ele><time>2026-04-12T15:18:21.01Z</time></trkpt><trkpt lat="43.8131683" lon="12.2816148"><ele>698.0</ele><time>2026-04-12T15:18:22.011Z</time></trkpt><trkpt lat="43.8132929" lon="12.2815901"><ele>698.0</ele><time>2026-04-12T15:18:23.012Z</time></trkpt><trkpt lat="43.8134269" lon="12.2815576"><ele>698.0</ele><time>2026-04-12T15:18:24.012Z</time></trkpt><trkpt lat="43.8135693" lon="12.2815026"><ele>698.0</ele><time>2026-04-12T15:18:25.012Z</time></trkpt><trkpt lat="43.8137149" lon="12.2814364"><ele>688.6666666666666</ele><time>2026-04-12T15:18:26.012Z</time></trkpt><trkpt lat="43.8138595" lon="12.2813596"><ele>679.3333333333334</ele><time>2026-04-12T15:18:27.011Z</time></trkpt><trkpt lat="43.8140106" lon="12.2813004"><ele>670.0</ele><time>2026-04-12T15:18:28.012Z</time></trkpt><trkpt lat="43.8141606" lon="12.2812415"><ele>670.0</ele><time>2026-04-12T15:18:29.011Z</time></trkpt><trkpt lat="43.814308" lon="12.2811958"><ele>670.0</ele><time>2026-04-12T15:18:30.012Z</time></trkpt><trkpt lat="43.8144465" lon="12.2811478"><ele>670.0</ele><time>2026-04-12T15:18:31.012Z</time></trkpt><trkpt lat="43.8145688" lon="12.2810945"><ele>670.0</ele><time>2026-04-12T15:18:32.015Z</time></trkpt><trkpt lat="43.8146764" lon="12.2810533"><ele>670.1666666666667</ele><time>2026-04-12T15:18:33.014Z</time></trkpt><trkpt lat="43.8147664" lon="12.2810394"><ele>670.3333333333334</ele><time>2026-04-12T15:18:34.012Z</time></trkpt><trkpt lat="43.8148507" lon="12.2810742"><ele>670.5</ele><time>2026-04-12T15:18:35.012Z</time></trkpt><trkpt lat="43.8149216" lon="12.2811367"><ele>670.6666666666666</ele><time>2026-04-12T15:18:36.014Z</time></trkpt><trkpt lat="43.8149695" lon="12.2812227"><ele>670.8333333333333</ele><time>2026-04-12T15:18:37.013Z</time></trkpt><trkpt lat="43.8149823" lon="12.2813461"><ele>671.0</ele><time>2026-04-12T15:18:38.011Z</time></trkpt><trkpt lat="43.8149842" lon="12.2814678"><ele>671.0</ele><time>2026-04-12T15:18:39.015Z</time></trkpt><trkpt lat="43.8149872" lon="12.2815841"><ele>671.0</ele><time>2026-04-12T15:18:40.01Z</time></trkpt><trkpt lat="43.815004" lon="12.2816855"><ele>671.0</ele><time>2026-04-12T15:18:41.013Z</time></trkpt><trkpt lat="43.8150975" lon="12.2817405"><ele>671.0</ele><time>2026-04-12T15:18:43.012Z</time></trkpt><trkpt lat="43.8151461" lon="12.2816788"><ele>671.0</ele><time>2026-04-12T15:18:44.012Z</time></trkpt><trkpt lat="43.8151883" lon="12.2816053"><ele>671.0</ele><time>2026-04-12T15:18:45.093Z</time></trkpt><trkpt lat="43.8152066" lon="12.2814826"><ele>666.75</ele><time>2026-04-12T15:18:46.012Z</time></trkpt><trkpt lat="43.8152139" lon="12.2813245"><ele>662.5</ele><time>2026-04-12T15:18:47.011Z</time></trkpt><trkpt lat="43.8152066" lon="12.2811406"><ele>658.25</ele><time>2026-04-12T15:18:48.011Z</time></trkpt><trkpt lat="43.8152052" lon="12.2809607"><ele>654.0</ele><time>2026-04-12T15:18:49.012Z</time></trkpt><trkpt lat="43.8152194" lon="12.2807912"><ele>654.0</ele><time>2026-04-12T15:18:50.011Z</time></trkpt><trkpt lat="43.8152501" lon="12.2806417"><ele>654.0</ele><time>2026-04-12T15:18:51.016Z</time></trkpt><trkpt lat="43.8153016" lon="12.2805187"><ele>654.0</ele><time>2026-04-12T15:18:52.014Z</time></trkpt><trkpt lat="43.8153717" lon="12.2804265"><ele>654.0</ele><time>2026-04-12T15:18:53.014Z</time></trkpt><trkpt lat="43.8154571" lon="12.280376"><ele>654.0</ele><time>2026-04-12T15:18:54.012Z</time></trkpt><trkpt lat="43.8155466" lon="12.2803581"><ele>653.6</ele><time>2026-04-12T15:18:55.011Z</time></trkpt><trkpt lat="43.815636" lon="12.280369"><ele>653.2</ele><time>2026-04-12T15:18:56.016Z</time></trkpt><trkpt lat="43.815727" lon="12.2804067"><ele>652.8000000000001</ele><time>2026-04-12T15:18:57.012Z</time></trkpt><trkpt lat="43.8158191" lon="12.2804541"><ele>652.4000000000001</ele><time>2026-04-12T15:18:58.011Z</time></trkpt><trkpt lat="43.8159075" lon="12.2804701"><ele>652.0</ele><time>2026-04-12T15:18:59.012Z</time></trkpt><trkpt lat="43.815993" lon="12.2804356"><ele>648.75</ele><time>2026-04-12T15:19:00.012Z</time></trkpt><trkpt lat="43.8160661" lon="12.2803372"><ele>645.5</ele><time>2026-04-12T15:19:01.014Z</time></trkpt><trkpt lat="43.8161297" lon="12.2802016"><ele>642.25</ele><time>2026-04-12T15:19:02.013Z</time></trkpt><trkpt lat="43.8161826" lon="12.2800522"><ele>639.0</ele><time>2026-04-12T15:19:03.013Z</time></trkpt><trkpt lat="43.816215" lon="12.2798896"><ele>638.0</ele><time>2026-04-12T15:19:04.014Z</time></trkpt><trkpt lat="43.8162351" lon="12.2797382"><ele>637.0</ele><time>2026-04-12T15:19:05.011Z</time></trkpt><trkpt lat="43.8162303" lon="12.2795975"><ele>636.0</ele><time>2026-04-12T15:19:06.012Z</time></trkpt><trkpt lat="43.8161972" lon="12.2794802"><ele>635.0</ele><time>2026-04-12T15:19:07.013Z</time></trkpt><trkpt lat="43.8161452" lon="12.2793921"><ele>634.0</ele><time>2026-04-12T15:19:08.011Z</time></trkpt><trkpt lat="43.8160773" lon="12.2793643"><ele>634.0</ele><time>2026-04-12T15:19:09.014Z</time></trkpt><trkpt lat="43.8159883" lon="12.2794128"><ele>634.0</ele><time>2026-04-12T15:19:10.012Z</time></trkpt><trkpt lat="43.8158921" lon="12.2794692"><ele>634.0</ele><time>2026-04-12T15:19:11.011Z</time></trkpt><trkpt lat="43.8157976" lon="12.2794735"><ele>634.0</ele><time>2026-04-12T15:19:12.011Z</time></trkpt><trkpt lat="43.8156818" lon="12.2794582"><ele>634.0</ele><time>2026-04-12T15:19:13.015Z</time></trkpt><trkpt lat="43.8155595" lon="12.2794247"><ele>635.4</ele><time>2026-04-12T15:19:14.012Z</time></trkpt><trkpt lat="43.8154438" lon="12.279374"><ele>636.8</ele><time>2026-04-12T15:19:15.011Z</time></trkpt><trkpt lat="43.8153482" lon="12.2793086"><ele>638.1999999999999</ele><time>2026-04-12T15:19:16.011Z</time></trkpt><trkpt lat="43.8152845" lon="12.2792327"><ele>639.5999999999999</ele><time>2026-04-12T15:19:17.012Z</time></trkpt><trkpt lat="43.8152549" lon="12.2791427"><ele>641.0</ele><time>2026-04-12T15:19:18.013Z</time></trkpt><trkpt lat="43.8152617" lon="12.2790457"><ele>641.0</ele><time>2026-04-12T15:19:19.011Z</time></trkpt><trkpt lat="43.8153026" lon="12.2789511"><ele>641.0</ele><time>2026-04-12T15:19:20.012Z</time></trkpt><trkpt lat="43.8153896" lon="12.2788798"><ele>641.0</ele><time>2026-04-12T15:19:21.013Z</time></trkpt><trkpt lat="43.8154943" lon="12.2788231"><ele>641.0</ele><time>2026-04-12T15:19:22.012Z</time></trkpt><trkpt lat="43.8156097" lon="12.2787532"><ele>641.0</ele><time>2026-04-12T15:19:23.012Z</time></trkpt><trkpt lat="43.8157263" lon="12.2786708"><ele>638.0</ele><time>2026-04-12T15:19:24.012Z</time></trkpt><trkpt lat="43.8158341" lon="12.27856"><ele>635.0</ele><time>2026-04-12T15:19:25.016Z</time></trkpt><trkpt lat="43.8159265" lon="12.2784125"><ele>632.0</ele><time>2026-04-12T15:19:26.012Z</time></trkpt><trkpt lat="43.8160205" lon="12.2782521"><ele>629.0</ele><time>2026-04-12T15:19:27.012Z</time></trkpt><trkpt lat="43.8161151" lon="12.2780902"><ele>627.0</ele><time>2026-04-12T15:19:28.013Z</time></trkpt><trkpt lat="43.8162098" lon="12.2779241"><ele>625.0</ele><time>2026-04-12T15:19:29.011Z</time></trkpt><trkpt lat="43.8163057" lon="12.2777648"><ele>623.0</ele><time>2026-04-12T15:19:30.011Z</time></trkpt><trkpt lat="43.8163987" lon="12.2776144"><ele>621.0</ele><time>2026-04-12T15:19:31.012Z</time></trkpt><trkpt lat="43.8164884" lon="12.2774695"><ele>621.0</ele><time>2026-04-12T15:19:32.011Z</time></trkpt><trkpt lat="43.8165786" lon="12.2773201"><ele>621.0</ele><time>2026-04-12T15:19:33.013Z</time></trkpt><trkpt lat="43.8166755" lon="12.2771664"><ele>621.0</ele><time>2026-04-12T15:19:34.012Z</time></trkpt><trkpt lat="43.8167802" lon="12.2770086"><ele>621.0</ele><time>2026-04-12T15:19:35.012Z</time></trkpt><trkpt lat="43.8168884" lon="12.2768472"><ele>618.6666666666666</ele><time>2026-04-12T15:19:36.016Z</time></trkpt><trkpt lat="43.816993" lon="12.2766971"><ele>616.3333333333333</ele><time>2026-04-12T15:19:37.015Z</time></trkpt><trkpt lat="43.8170989" lon="12.2765544"><ele>614.0</ele><time>2026-04-12T15:19:38.013Z</time></trkpt><trkpt lat="43.8172122" lon="12.2764126"><ele>613.3333333333333</ele><time>2026-04-12T15:19:39.011Z</time></trkpt><trkpt lat="43.8173297" lon="12.2762663"><ele>612.6666666666666</ele><time>2026-04-12T15:19:40.01Z</time></trkpt><trkpt lat="43.8174537" lon="12.2761154"><ele>612.0</ele><time>2026-04-12T15:19:41.01Z</time></trkpt><trkpt lat="43.8175832" lon="12.2759586"><ele>612.0</ele><time>2026-04-12T15:19:42.016Z</time></trkpt><trkpt lat="43.8177141" lon="12.275799"><ele>612.0</ele><time>2026-04-12T15:19:43.012Z</time></trkpt><trkpt lat="43.8178408" lon="12.2756415"><ele>612.0</ele><time>2026-04-12T15:19:44.012Z</time></trkpt><trkpt lat="43.8179613" lon="12.275488"><ele>610.6666666666666</ele><time>2026-04-12T15:19:45.012Z</time></trkpt><trkpt lat="43.8180783" lon="12.2753413"><ele>609.3333333333333</ele><time>2026-04-12T15:19:46.009Z</time></trkpt><trkpt lat="43.8181952" lon="12.2752025"><ele>608.0</ele><time>2026-04-12T15:19:47.012Z</time></trkpt><trkpt lat="43.818305" lon="12.2750703"><ele>608.0</ele><time>2026-04-12T15:19:48.011Z</time></trkpt><trkpt lat="43.8184015" lon="12.2749308"><ele>608.0</ele><time>2026-04-12T15:19:49.013Z</time></trkpt><trkpt lat="43.8184792" lon="12.2747797"><ele>608.0</ele><time>2026-04-12T15:19:50.012Z</time></trkpt><trkpt lat="43.8185174" lon="12.2746082"><ele>608.0</ele><time>2026-04-12T15:19:51.011Z</time></trkpt><trkpt lat="43.818518" lon="12.2744275"><ele>609.25</ele><time>2026-04-12T15:19:52.013Z</time></trkpt><trkpt lat="43.8185038" lon="12.2742485"><ele>610.5</ele><time>2026-04-12T15:19:53.012Z</time></trkpt><trkpt lat="43.8184958" lon="12.2740637"><ele>611.75</ele><time>2026-04-12T15:19:54.013Z</time></trkpt><trkpt lat="43.818505" lon="12.2738715"><ele>613.0</ele><time>2026-04-12T15:19:55.014Z</time></trkpt><trkpt lat="43.8185319" lon="12.2736701"><ele>613.0</ele><time>2026-04-12T15:19:56.012Z</time></trkpt><trkpt lat="43.8185737" lon="12.2734601"><ele>613.0</ele><time>2026-04-12T15:19:57.014Z</time></trkpt><trkpt lat="43.8186239" lon="12.2732445"><ele>613.0</ele><time>2026-04-12T15:19:58.013Z</time></trkpt><trkpt lat="43.8186752" lon="12.2730284"><ele>610.6666666666667</ele><time>2026-04-12T15:19:59.012Z</time></trkpt><trkpt lat="43.8187228" lon="12.2728169"><ele>608.3333333333334</ele><time>2026-04-12T15:20:00.013Z</time></trkpt><trkpt lat="43.8187639" lon="12.2726108"><ele>606.0</ele><time>2026-04-12T15:20:01.012Z</time></trkpt><trkpt lat="43.8187956" lon="12.2724058"><ele>604.5</ele><time>2026-04-12T15:20:02.013Z</time></trkpt><trkpt lat="43.8188197" lon="12.2722034"><ele>603.0</ele><time>2026-04-12T15:20:03.014Z</time></trkpt><trkpt lat="43.8188168" lon="12.2720023"><ele>601.5</ele><time>2026-04-12T15:20:04.013Z</time></trkpt><trkpt lat="43.8187929" lon="12.2718118"><ele>600.0</ele><time>2026-04-12T15:20:05.012Z</time></trkpt><trkpt lat="43.8187554" lon="12.2716207"><ele>597.3333333333334</ele><time>2026-04-12T15:20:06.016Z</time></trkpt><trkpt lat="43.8187112" lon="12.2714247"><ele>594.6666666666667</ele><time>2026-04-12T15:20:07.013Z</time></trkpt><trkpt lat="43.8186635" lon="12.2712265"><ele>592.0</ele><time>2026-04-12T15:20:08.011Z</time></trkpt><trkpt lat="43.8186171" lon="12.2710253"><ele>592.0</ele><time>2026-04-12T15:20:09.012Z</time></trkpt><trkpt lat="43.8185738" lon="12.2708249"><ele>592.0</ele><time>2026-04-12T15:20:10.011Z</time></trkpt><trkpt lat="43.8185275" lon="12.2706259"><ele>592.0</ele><time>2026-04-12T15:20:11.013Z</time></trkpt><trkpt lat="43.8184787" lon="12.2704247"><ele>590.3333333333334</ele><time>2026-04-12T15:20:12.017Z</time></trkpt><trkpt lat="43.8184308" lon="12.2702181"><ele>588.6666666666666</ele><time>2026-04-12T15:20:13.013Z</time></trkpt><trkpt lat="43.8183799" lon="12.2700058"><ele>587.0</ele><time>2026-04-12T15:20:14.013Z</time></trkpt><trkpt lat="43.818333" lon="12.2697843"><ele>586.6666666666666</ele><time>2026-04-12T15:20:15.015Z</time></trkpt><trkpt lat="43.8182836" lon="12.2695575"><ele>586.3333333333334</ele><time>2026-04-12T15:20:16.013Z</time></trkpt><trkpt lat="43.8182361" lon="12.2693241"><ele>586.0</ele><time>2026-04-12T15:20:17.015Z</time></trkpt><trkpt lat="43.8181893" lon="12.2690873"><ele>584.0</ele><time>2026-04-12T15:20:18.013Z</time></trkpt><trkpt lat="43.8181451" lon="12.2688471"><ele>582.0</ele><time>2026-04-12T15:20:19.012Z</time></trkpt><trkpt lat="43.818097" lon="12.2686099"><ele>580.0</ele><time>2026-04-12T15:20:20.011Z</time></trkpt><trkpt lat="43.8180527" lon="12.2683777"><ele>580.0</ele><time>2026-04-12T15:20:21.011Z</time></trkpt><trkpt lat="43.818029" lon="12.2681502"><ele>580.0</ele><time>2026-04-12T15:20:22.013Z</time></trkpt><trkpt lat="43.8180337" lon="12.2679317"><ele>580.0</ele><time>2026-04-12T15:20:23.011Z</time></trkpt><trkpt lat="43.8180501" lon="12.2677436"><ele>578.5</ele><time>2026-04-12T15:20:24.015Z</time></trkpt><trkpt lat="43.8180676" lon="12.2675766"><ele>577.0</ele><time>2026-04-12T15:20:25.013Z</time></trkpt><trkpt lat="43.818097" lon="12.2674253"><ele>575.5</ele><time>2026-04-12T15:20:26.011Z</time></trkpt><trkpt lat="43.8181528" lon="12.2672929"><ele>574.0</ele><time>2026-04-12T15:20:27.013Z</time></trkpt><trkpt lat="43.8182358" lon="12.2671892"><ele>572.6666666666667</ele><time>2026-04-12T15:20:28.012Z</time></trkpt><trkpt lat="43.8183305" lon="12.267118"><ele>571.3333333333334</ele><time>2026-04-12T15:20:29.012Z</time></trkpt><trkpt lat="43.8184127" lon="12.2670686"><ele>570.0</ele><time>2026-04-12T15:20:30.012Z</time></trkpt><trkpt lat="43.8184737" lon="12.267029"><ele>568.6666666666666</ele><time>2026-04-12T15:20:31.011Z</time></trkpt><trkpt lat="43.8185182" lon="12.2669447"><ele>567.3333333333333</ele><time>2026-04-12T15:20:33.014Z</time></trkpt><trkpt lat="43.8184944" lon="12.2668498"><ele>566.0</ele><time>2026-04-12T15:20:35.014Z</time></trkpt><trkpt lat="43.8184073" lon="12.2667402"><ele>566.0</ele><time>2026-04-12T15:20:37.012Z</time></trkpt><trkpt lat="43.8183404" lon="12.2666815"><ele>566.0</ele><time>2026-04-12T15:20:38.011Z</time></trkpt><trkpt lat="43.8182618" lon="12.2666114"><ele>566.0</ele><time>2026-04-12T15:20:39.011Z</time></trkpt><trkpt lat="43.8181773" lon="12.266536"><ele>566.0</ele><time>2026-04-12T15:20:40.013Z</time></trkpt><trkpt lat="43.8180912" lon="12.2664621"><ele>566.0</ele><time>2026-04-12T15:20:41.011Z</time></trkpt><trkpt lat="43.8180083" lon="12.2663788"><ele>566.4</ele><time>2026-04-12T15:20:42.013Z</time></trkpt><trkpt lat="43.8179229" lon="12.2663026"><ele>566.8</ele><time>2026-04-12T15:20:43.012Z</time></trkpt><trkpt lat="43.8178422" lon="12.2662295"><ele>567.1999999999999</ele><time>2026-04-12T15:20:44.012Z</time></trkpt><trkpt lat="43.8177676" lon="12.2661618"><ele>567.6</ele><time>2026-04-12T15:20:45.01Z</time></trkpt><trkpt lat="43.8177023" lon="12.2660914"><ele>568.0</ele><time>2026-04-12T15:20:46.012Z</time></trkpt><trkpt lat="43.8176409" lon="12.2660196"><ele>568.0</ele><time>2026-04-12T15:20:47.012Z</time></trkpt><trkpt lat="43.8175866" lon="12.2659427"><ele>568.0</ele><time>2026-04-12T15:20:48.01Z</time></trkpt><trkpt lat="43.8175404" lon="12.2658657"><ele>568.0</ele><time>2026-04-12T15:20:49.013Z</time></trkpt><trkpt lat="43.8174992" lon="12.2657951"><ele>568.0</ele><time>2026-04-12T15:20:50.01Z</time></trkpt><trkpt lat="43.8174634" lon="12.2657228"><ele>568.0</ele><time>2026-04-12T15:20:51.012Z</time></trkpt><trkpt lat="43.8173906" lon="12.2655975"><ele>568.0</ele><time>2026-04-12T15:20:53.01Z</time></trkpt><trkpt lat="43.8173423" lon="12.2654988"><ele>566.5</ele><time>2026-04-12T15:20:55.011Z</time></trkpt><trkpt lat="43.8173438" lon="12.2653779"><ele>565.0</ele><time>2026-04-12T15:20:58.012Z</time></trkpt><trkpt lat="43.8174208" lon="12.2653274"><ele>563.5</ele><time>2026-04-12T15:21:00.01Z</time></trkpt><trkpt lat="43.8175033" lon="12.2653021"><ele>562.0</ele><time>2026-04-12T15:21:02.01Z</time></trkpt><trkpt lat="43.8175964" lon="12.2652987"><ele>560.5</ele><time>2026-04-12T15:21:04.011Z</time></trkpt><trkpt lat="43.8176729" lon="12.2653337"><ele>559.0</ele><time>2026-04-12T15:21:06.012Z</time></trkpt><trkpt lat="43.8177495" lon="12.2652909"><ele>558.5</ele><time>2026-04-12T15:21:09.012Z</time></trkpt><trkpt lat="43.8177397" lon="12.2651537"><ele>558.0</ele><time>2026-04-12T15:21:11.011Z</time></trkpt><trkpt lat="43.8176885" lon="12.265021"><ele>557.5</ele><time>2026-04-12T15:21:12.011Z</time></trkpt><trkpt lat="43.8176593" lon="12.2648715"><ele>557.0</ele><time>2026-04-12T15:21:13.013Z</time></trkpt><trkpt lat="43.8176407" lon="12.264678"><ele>557.0</ele><time>2026-04-12T15:21:14.012Z</time></trkpt><trkpt lat="43.8176169" lon="12.2644709"><ele>557.0</ele><time>2026-04-12T15:21:15.013Z</time></trkpt><trkpt lat="43.8175978" lon="12.2642649"><ele>557.0</ele><time>2026-04-12T15:21:16.013Z</time></trkpt><trkpt lat="43.8175949" lon="12.2640662"><ele>557.0</ele><time>2026-04-12T15:21:17.014Z</time></trkpt><trkpt lat="43.8176036" lon="12.2638708"><ele>557.25</ele><time>2026-04-12T15:21:18.013Z</time></trkpt><trkpt lat="43.8176415" lon="12.263678"><ele>557.5</ele><time>2026-04-12T15:21:19.013Z</time></trkpt><trkpt lat="43.8176934" lon="12.2634837"><ele>557.75</ele><time>2026-04-12T15:21:20.011Z</time></trkpt><trkpt lat="43.8177423" lon="12.2632926"><ele>558.0</ele><time>2026-04-12T15:21:21.014Z</time></trkpt><trkpt lat="43.8177638" lon="12.2631031"><ele>556.0</ele><time>2026-04-12T15:21:22.012Z</time></trkpt><trkpt lat="43.8177579" lon="12.2629137"><ele>554.0</ele><time>2026-04-12T15:21:23.014Z</time></trkpt><trkpt lat="43.8177356" lon="12.2627285"><ele>552.0</ele><time>2026-04-12T15:21:24.012Z</time></trkpt><trkpt lat="43.8176971" lon="12.2625425"><ele>550.0</ele><time>2026-04-12T15:21:25.014Z</time></trkpt><trkpt lat="43.8176501" lon="12.262353"><ele>546.25</ele><time>2026-04-12T15:21:26.012Z</time></trkpt><trkpt lat="43.8176092" lon="12.2621647"><ele>542.5</ele><time>2026-04-12T15:21:27.011Z</time></trkpt><trkpt lat="43.8175543" lon="12.2619829"><ele>538.75</ele><time>2026-04-12T15:21:28.012Z</time></trkpt><trkpt lat="43.8174779" lon="12.2618094"><ele>535.0</ele><time>2026-04-12T15:21:29.011Z</time></trkpt><trkpt lat="43.817385" lon="12.2616447"><ele>535.0</ele><time>2026-04-12T15:21:30.013Z</time></trkpt><trkpt lat="43.8172657" lon="12.2615033"><ele>535.0</ele><time>2026-04-12T15:21:31.015Z</time></trkpt><trkpt lat="43.817131" lon="12.2613867"><ele>535.0</ele><time>2026-04-12T15:21:32.014Z</time></trkpt><trkpt lat="43.8169852" lon="12.2612898"><ele>529.6666666666667</ele><time>2026-04-12T15:21:33.012Z</time></trkpt><trkpt lat="43.8168339" lon="12.2612086"><ele>524.3333333333334</ele><time>2026-04-12T15:21:34.015Z</time></trkpt><trkpt lat="43.816668" lon="12.2611541"><ele>519.0</ele><time>2026-04-12T15:21:35.015Z</time></trkpt><trkpt lat="43.8164984" lon="12.2611141"><ele>519.0</ele><time>2026-04-12T15:21:36.01Z</time></trkpt><trkpt lat="43.8163305" lon="12.2610742"><ele>519.0</ele><time>2026-04-12T15:21:37.013Z</time></trkpt><trkpt lat="43.8161692" lon="12.2610326"><ele>519.0</ele><time>2026-04-12T15:21:38.013Z</time></trkpt><trkpt lat="43.8160076" lon="12.2610037"><ele>518.75</ele><time>2026-04-12T15:21:39.013Z</time></trkpt><trkpt lat="43.8158575" lon="12.2610036"><ele>518.5</ele><time>2026-04-12T15:21:40.011Z</time></trkpt><trkpt lat="43.815719" lon="12.2610694"><ele>518.25</ele><time>2026-04-12T15:21:41.011Z</time></trkpt><trkpt lat="43.8155837" lon="12.2611585"><ele>518.0</ele><time>2026-04-12T15:21:42.012Z</time></trkpt><trkpt lat="43.8154454" lon="12.261267"><ele>518.0</ele><time>2026-04-12T15:21:43.013Z</time></trkpt><trkpt lat="43.815311" lon="12.2613813"><ele>518.0</ele><time>2026-04-12T15:21:44.014Z</time></trkpt><trkpt lat="43.8151824" lon="12.2614879"><ele>518.0</ele><time>2026-04-12T15:21:45.011Z</time></trkpt><trkpt lat="43.8150518" lon="12.2615836"><ele>520.0</ele><time>2026-04-12T15:21:46.015Z</time></trkpt><trkpt lat="43.8149181" lon="12.261665"><ele>522.0</ele><time>2026-04-12T15:21:47.009Z</time></trkpt><trkpt lat="43.8147726" lon="12.2617209"><ele>524.0</ele><time>2026-04-12T15:21:48.01Z</time></trkpt><trkpt lat="43.8146283" lon="12.2617719"><ele>526.0</ele><time>2026-04-12T15:21:49.013Z</time></trkpt><trkpt lat="43.8144917" lon="12.2618238"><ele>526.0</ele><time>2026-04-12T15:21:50.012Z</time></trkpt><trkpt lat="43.8143631" lon="12.2618635"><ele>526.0</ele><time>2026-04-12T15:21:51.012Z</time></trkpt><trkpt lat="43.8142548" lon="12.2618779"><ele>526.0</ele><time>2026-04-12T15:21:52.011Z</time></trkpt><trkpt lat="43.8141663" lon="12.2618592"><ele>526.0</ele><time>2026-04-12T15:21:53.011Z</time></trkpt><trkpt lat="43.8140986" lon="12.2617895"><ele>526.0</ele><time>2026-04-12T15:21:54.01Z</time></trkpt><trkpt lat="43.8140476" lon="12.2616943"><ele>522.25</ele><time>2026-04-12T15:21:55.012Z</time></trkpt><trkpt lat="43.8140562" lon="12.2615705"><ele>518.5</ele><time>2026-04-12T15:21:56.012Z</time></trkpt><trkpt lat="43.8140854" lon="12.2614351"><ele>514.75</ele><time>2026-04-12T15:21:57.013Z</time></trkpt><trkpt lat="43.8141715" lon="12.2612693"><ele>511.0</ele><time>2026-04-12T15:21:58.024Z</time></trkpt><trkpt lat="43.8142789" lon="12.2610685"><ele>511.0</ele><time>2026-04-12T15:21:59.011Z</time></trkpt><trkpt lat="43.8143822" lon="12.260857"><ele>511.0</ele><time>2026-04-12T15:22:00.011Z</time></trkpt><trkpt lat="43.8144827" lon="12.2606486"><ele>511.0</ele><time>2026-04-12T15:22:01.013Z</time></trkpt><trkpt lat="43.8146055" lon="12.2604419"><ele>507.33333333333337</ele><time>2026-04-12T15:22:02.011Z</time></trkpt><trkpt lat="43.8147378" lon="12.2602461"><ele>503.66666666666663</ele><time>2026-04-12T15:22:03.013Z</time></trkpt><trkpt lat="43.814875" lon="12.2600726"><ele>500.0</ele><time>2026-04-12T15:22:04.015Z</time></trkpt><trkpt lat="43.8150086" lon="12.2599177"><ele>497.25</ele><time>2026-04-12T15:22:05.01Z</time></trkpt><trkpt lat="43.81513" lon="12.2597735"><ele>494.5</ele><time>2026-04-12T15:22:06.011Z</time></trkpt><trkpt lat="43.8152178" lon="12.2596221"><ele>491.75</ele><time>2026-04-12T15:22:07.013Z</time></trkpt><trkpt lat="43.8152573" lon="12.2594572"><ele>489.0</ele><time>2026-04-12T15:22:08.012Z</time></trkpt><trkpt lat="43.81526" lon="12.2592848"><ele>489.0</ele><time>2026-04-12T15:22:09.014Z</time></trkpt><trkpt lat="43.8152237" lon="12.2591282"><ele>489.0</ele><time>2026-04-12T15:22:10.013Z</time></trkpt><trkpt lat="43.8151484" lon="12.259005"><ele>489.0</ele><time>2026-04-12T15:22:11.013Z</time></trkpt><trkpt lat="43.8150429" lon="12.2589055"><ele>489.0</ele><time>2026-04-12T15:22:12.015Z</time></trkpt><trkpt lat="43.8149332" lon="12.2588215"><ele>487.5</ele><time>2026-04-12T15:22:13.013Z</time></trkpt><trkpt lat="43.8148384" lon="12.2587426"><ele>486.0</ele><time>2026-04-12T15:22:14.012Z</time></trkpt><trkpt lat="43.8147655" lon="12.2586712"><ele>484.5</ele><time>2026-04-12T15:22:15.012Z</time></trkpt><trkpt lat="43.8147063" lon="12.2585921"><ele>483.0</ele><time>2026-04-12T15:22:16.011Z</time></trkpt><trkpt lat="43.8146722" lon="12.2585069"><ele>481.5</ele><time>2026-04-12T15:22:17.012Z</time></trkpt><trkpt lat="43.8147006" lon="12.2584186"><ele>480.0</ele><time>2026-04-12T15:22:18.013Z</time></trkpt><trkpt lat="43.8147835" lon="12.2583439"><ele>480.0</ele><time>2026-04-12T15:22:19.013Z</time></trkpt><trkpt lat="43.814902" lon="12.2583114"><ele>480.0</ele><time>2026-04-12T15:22:20.014Z</time></trkpt><trkpt lat="43.8150179" lon="12.2582841"><ele>480.0</ele><time>2026-04-12T15:22:21.014Z</time></trkpt><trkpt lat="43.8151507" lon="12.2582488"><ele>480.0</ele><time>2026-04-12T15:22:22.011Z</time></trkpt><trkpt lat="43.8153355" lon="12.258259"><ele>479.0</ele><time>2026-04-12T15:22:23.012Z</time></trkpt><trkpt lat="43.8155278" lon="12.2583075"><ele>478.0</ele><time>2026-04-12T15:22:24.012Z</time></trkpt><trkpt lat="43.815711" lon="12.2583773"><ele>477.0</ele><time>2026-04-12T15:22:25.014Z</time></trkpt><trkpt lat="43.8158784" lon="12.2584478"><ele>476.33333333333337</ele><time>2026-04-12T15:22:26.012Z</time></trkpt><trkpt lat="43.8160433" lon="12.2585011"><ele>475.6666666666667</ele><time>2026-04-12T15:22:27.013Z</time></trkpt><trkpt lat="43.8162088" lon="12.2585114"><ele>475.0</ele><time>2026-04-12T15:22:28.012Z</time></trkpt><trkpt lat="43.8163737" lon="12.2584627"><ele>475.0</ele><time>2026-04-12T15:22:29.013Z</time></trkpt><trkpt lat="43.8165338" lon="12.2583646"><ele>475.0</ele><time>2026-04-12T15:22:30.013Z</time></trkpt><trkpt lat="43.8166932" lon="12.258229"><ele>475.0</ele><time>2026-04-12T15:22:31.012Z</time></trkpt><trkpt lat="43.816834" lon="12.2580476"><ele>475.0</ele><time>2026-04-12T15:22:32.013Z</time></trkpt><trkpt lat="43.8169523" lon="12.2578369"><ele>475.0</ele><time>2026-04-12T15:22:33.013Z</time></trkpt><trkpt lat="43.8170482" lon="12.257619"><ele>475.0</ele><time>2026-04-12T15:22:34.012Z</time></trkpt><trkpt lat="43.8171225" lon="12.2573979"><ele>471.6666666666667</ele><time>2026-04-12T15:22:35.011Z</time></trkpt><trkpt lat="43.817184" lon="12.2571737"><ele>468.33333333333337</ele><time>2026-04-12T15:22:36.015Z</time></trkpt><trkpt lat="43.8172363" lon="12.2569389"><ele>465.0</ele><time>2026-04-12T15:22:37.013Z</time></trkpt><trkpt lat="43.8172985" lon="12.2567073"><ele>465.0</ele><time>2026-04-12T15:22:38.012Z</time></trkpt><trkpt lat="43.8173731" lon="12.2564927"><ele>465.0</ele><time>2026-04-12T15:22:39.013Z</time></trkpt><trkpt lat="43.8174558" lon="12.2563026"><ele>465.0</ele><time>2026-04-12T15:22:40.012Z</time></trkpt><trkpt lat="43.8175399" lon="12.2561531"><ele>462.25</ele><time>2026-04-12T15:22:41.014Z</time></trkpt><trkpt lat="43.8176271" lon="12.2560484"><ele>459.5</ele><time>2026-04-12T15:22:42.012Z</time></trkpt><trkpt lat="43.8177373" lon="12.256"><ele>456.75</ele><time>2026-04-12T15:22:43.013Z</time></trkpt><trkpt lat="43.8178736" lon="12.2559991"><ele>454.0</ele><time>2026-04-12T15:22:44.013Z</time></trkpt><trkpt lat="43.8180313" lon="12.2560131"><ele>453.6666666666667</ele><time>2026-04-12T15:22:45.014Z</time></trkpt><trkpt lat="43.8182075" lon="12.2560017"><ele>453.33333333333337</ele><time>2026-04-12T15:22:46.012Z</time></trkpt><trkpt lat="43.8183915" lon="12.2559554"><ele>453.0</ele><time>2026-04-12T15:22:47.011Z</time></trkpt><trkpt lat="43.8185772" lon="12.2558939"><ele>453.0</ele><time>2026-04-12T15:22:48.013Z</time></trkpt><trkpt lat="43.8187533" lon="12.2558213"><ele>453.0</ele><time>2026-04-12T15:22:49.013Z</time></trkpt><trkpt lat="43.8189242" lon="12.2557467"><ele>453.0</ele><time>2026-04-12T15:22:50.01Z</time></trkpt><trkpt lat="43.8190833" lon="12.2556386"><ele>451.33333333333337</ele><time>2026-04-12T15:22:51.014Z</time></trkpt><trkpt lat="43.8192183" lon="12.2554802"><ele>449.6666666666667</ele><time>2026-04-12T15:22:52.01Z</time></trkpt><trkpt lat="43.8193328" lon="12.2553041"><ele>448.0</ele><time>2026-04-12T15:22:53.013Z</time></trkpt><trkpt lat="43.819424" lon="12.2551239"><ele>448.0</ele><time>2026-04-12T15:22:54.015Z</time></trkpt><trkpt lat="43.8194782" lon="12.2549383"><ele>448.0</ele><time>2026-04-12T15:22:55.012Z</time></trkpt><trkpt lat="43.8194921" lon="12.2547394"><ele>448.0</ele><time>2026-04-12T15:22:56.014Z</time></trkpt><trkpt lat="43.8194788" lon="12.2545368"><ele>448.0</ele><time>2026-04-12T15:22:57.012Z</time></trkpt><trkpt lat="43.8194681" lon="12.2543387"><ele>445.5</ele><time>2026-04-12T15:22:58.013Z</time></trkpt><trkpt lat="43.8194827" lon="12.2541476"><ele>443.0</ele><time>2026-04-12T15:22:59.012Z</time></trkpt><trkpt lat="43.8195293" lon="12.2539692"><ele>440.5</ele><time>2026-04-12T15:23:00.014Z</time></trkpt><trkpt lat="43.8196093" lon="12.2538188"><ele>438.0</ele><time>2026-04-12T15:23:01.014Z</time></trkpt><trkpt lat="43.8197241" lon="12.2537002"><ele>436.5</ele><time>2026-04-12T15:23:02.016Z</time></trkpt><trkpt lat="43.8198542" lon="12.2535994"><ele>435.0</ele><time>2026-04-12T15:23:03.013Z</time></trkpt><trkpt lat="43.8199795" lon="12.2535024"><ele>433.5</ele><time>2026-04-12T15:23:04.013Z</time></trkpt><trkpt lat="43.8200848" lon="12.2533866"><ele>432.0</ele><time>2026-04-12T15:23:05.012Z</time></trkpt><trkpt lat="43.8201715" lon="12.2532328"><ele>430.0</ele><time>2026-04-12T15:23:06.01Z</time></trkpt><trkpt lat="43.8202453" lon="12.253039"><ele>428.0</ele><time>2026-04-12T15:23:07.01Z</time></trkpt><trkpt lat="43.8203161" lon="12.2528174"><ele>426.0</ele><time>2026-04-12T15:23:08.014Z</time></trkpt><trkpt lat="43.8203882" lon="12.252585"><ele>426.0</ele><time>2026-04-12T15:23:09.01Z</time></trkpt><trkpt lat="43.8204658" lon="12.2523499"><ele>426.0</ele><time>2026-04-12T15:23:10.013Z</time></trkpt><trkpt lat="43.8205402" lon="12.2521122"><ele>426.0</ele><time>2026-04-12T15:23:11.011Z</time></trkpt><trkpt lat="43.8206177" lon="12.2518826"><ele>422.33333333333337</ele><time>2026-04-12T15:23:12.013Z</time></trkpt><trkpt lat="43.8206964" lon="12.2516696"><ele>418.6666666666667</ele><time>2026-04-12T15:23:13.014Z</time></trkpt><trkpt lat="43.8207709" lon="12.2514801"><ele>415.0</ele><time>2026-04-12T15:23:14.011Z</time></trkpt><trkpt lat="43.8208354" lon="12.2513151"><ele>413.4</ele><time>2026-04-12T15:23:15.013Z</time></trkpt><trkpt lat="43.8208769" lon="12.2511778"><ele>411.8</ele><time>2026-04-12T15:23:16.01Z</time></trkpt><trkpt lat="43.8208855" lon="12.2510605"><ele>410.20000000000005</ele><time>2026-04-12T15:23:17.013Z</time></trkpt><trkpt lat="43.8208569" lon="12.2509594"><ele>408.6</ele><time>2026-04-12T15:23:18.013Z</time></trkpt><trkpt lat="43.8208014" lon="12.2508719"><ele>407.0</ele><time>2026-04-12T15:23:19.014Z</time></trkpt><trkpt lat="43.8207114" lon="12.2508184"><ele>407.0</ele><time>2026-04-12T15:23:20.013Z</time></trkpt><trkpt lat="43.8206061" lon="12.2508732"><ele>407.0</ele><time>2026-04-12T15:23:21.012Z</time></trkpt><trkpt lat="43.820491" lon="12.2509991"><ele>407.0</ele><time>2026-04-12T15:23:22.01Z</time></trkpt><trkpt lat="43.8203781" lon="12.2511541"><ele>407.0</ele><time>2026-04-12T15:23:23.012Z</time></trkpt><trkpt lat="43.8202629" lon="12.2513216"><ele>408.3333333333333</ele><time>2026-04-12T15:23:24.011Z</time></trkpt><trkpt lat="43.8201419" lon="12.2514909"><ele>409.66666666666663</ele><time>2026-04-12T15:23:25.012Z</time></trkpt><trkpt lat="43.8200164" lon="12.2516501"><ele>411.0</ele><time>2026-04-12T15:23:26.016Z</time></trkpt><trkpt lat="43.8198914" lon="12.2517895"><ele>411.0</ele><time>2026-04-12T15:23:27.014Z</time></trkpt><trkpt lat="43.819755" lon="12.2518999"><ele>411.0</ele><time>2026-04-12T15:23:28.013Z</time></trkpt><trkpt lat="43.8196046" lon="12.2519713"><ele>411.0</ele><time>2026-04-12T15:23:29.009Z</time></trkpt><trkpt lat="43.8194443" lon="12.2519943"><ele>409.25</ele><time>2026-04-12T15:23:30.013Z</time></trkpt><trkpt lat="43.8192882" lon="12.2519779"><ele>407.5</ele><time>2026-04-12T15:23:31.011Z</time></trkpt><trkpt lat="43.8191382" lon="12.2519519"><ele>405.75</ele><time>2026-04-12T15:23:32.012Z</time></trkpt><trkpt lat="43.8190013" lon="12.2519592"><ele>404.0</ele><time>2026-04-12T15:23:33.009Z</time></trkpt><trkpt lat="43.8188716" lon="12.2520142"><ele>404.0</ele><time>2026-04-12T15:23:34.01Z</time></trkpt><trkpt lat="43.8187532" lon="12.2521212"><ele>404.0</ele><time>2026-04-12T15:23:35.013Z</time></trkpt><trkpt lat="43.818641" lon="12.2522562"><ele>404.0</ele><time>2026-04-12T15:23:36.012Z</time></trkpt><trkpt lat="43.8185277" lon="12.2523738"><ele>404.0</ele><time>2026-04-12T15:23:37.013Z</time></trkpt><trkpt lat="43.8184224" lon="12.2524458"><ele>404.2</ele><time>2026-04-12T15:23:38.01Z</time></trkpt><trkpt lat="43.8183265" lon="12.2524636"><ele>404.4</ele><time>2026-04-12T15:23:39.014Z</time></trkpt><trkpt lat="43.8182428" lon="12.2524262"><ele>404.6</ele><time>2026-04-12T15:23:40.014Z</time></trkpt><trkpt lat="43.8181776" lon="12.2523473"><ele>404.8</ele><time>2026-04-12T15:23:41.01Z</time></trkpt><trkpt lat="43.8181268" lon="12.2522449"><ele>405.0</ele><time>2026-04-12T15:23:42.012Z</time></trkpt><trkpt lat="43.8180986" lon="12.2521224"><ele>401.66666666666663</ele><time>2026-04-12T15:23:43.011Z</time></trkpt><trkpt lat="43.8181884" lon="12.2519576"><ele>398.3333333333333</ele><time>2026-04-12T15:23:44.011Z</time></trkpt><trkpt lat="43.8182976" lon="12.2517985"><ele>395.0</ele><time>2026-04-12T15:23:45.012Z</time></trkpt><trkpt lat="43.8184048" lon="12.2516356"><ele>394.66666666666663</ele><time>2026-04-12T15:23:46.011Z</time></trkpt><trkpt lat="43.8185015" lon="12.2514665"><ele>394.33333333333337</ele><time>2026-04-12T15:23:47.014Z</time></trkpt><trkpt lat="43.8185967" lon="12.251294"><ele>394.0</ele><time>2026-04-12T15:23:48.012Z</time></trkpt><trkpt lat="43.8186946" lon="12.2511117"><ele>394.0</ele><time>2026-04-12T15:23:49.015Z</time></trkpt><trkpt lat="43.8187815" lon="12.2509146"><ele>394.0</ele><time>2026-04-12T15:23:50.012Z</time></trkpt><trkpt lat="43.818877" lon="12.2507237"><ele>394.0</ele><time>2026-04-12T15:23:51.014Z</time></trkpt><trkpt lat="43.8189721" lon="12.2505364"><ele>391.6666666666667</ele><time>2026-04-12T15:23:52.011Z</time></trkpt><trkpt lat="43.8190688" lon="12.2503503"><ele>389.33333333333337</ele><time>2026-04-12T15:23:53.01Z</time></trkpt><trkpt lat="43.8191641" lon="12.250163"><ele>387.0</ele><time>2026-04-12T15:23:54.012Z</time></trkpt><trkpt lat="43.8192488" lon="12.2499678"><ele>386.0</ele><time>2026-04-12T15:23:55.011Z</time></trkpt><trkpt lat="43.8193286" lon="12.2497661"><ele>385.0</ele><time>2026-04-12T15:23:56.013Z</time></trkpt><trkpt lat="43.8194016" lon="12.2495586"><ele>384.0</ele><time>2026-04-12T15:23:57.013Z</time></trkpt><trkpt lat="43.819471" lon="12.2493529"><ele>384.0</ele><time>2026-04-12T15:23:58.013Z</time></trkpt><trkpt lat="43.8195398" lon="12.2491493"><ele>384.0</ele><time>2026-04-12T15:23:59.011Z</time></trkpt><trkpt lat="43.8196126" lon="12.2489542"><ele>384.0</ele><time>2026-04-12T15:24:00.012Z</time></trkpt><trkpt lat="43.8196955" lon="12.248775"><ele>381.25</ele><time>2026-04-12T15:24:01.013Z</time></trkpt><trkpt lat="43.8197837" lon="12.2486139"><ele>378.5</ele><time>2026-04-12T15:24:02.01Z</time></trkpt><trkpt lat="43.819866" lon="12.2484752"><ele>375.75</ele><time>2026-04-12T15:24:03.014Z</time></trkpt><trkpt lat="43.8199384" lon="12.2483632"><ele>373.0</ele><time>2026-04-12T15:24:04.017Z</time></trkpt><trkpt lat="43.820002" lon="12.248272"><ele>373.0</ele><time>2026-04-12T15:24:05.01Z</time></trkpt><trkpt lat="43.820055" lon="12.2482117"><ele>373.0</ele><time>2026-04-12T15:24:06.013Z</time></trkpt><trkpt lat="43.8201667" lon="12.24814"><ele>373.0</ele><time>2026-04-12T15:24:08.013Z</time></trkpt><trkpt lat="43.82024" lon="12.2481167"><ele>373.0</ele><time>2026-04-12T15:24:09.012Z</time></trkpt><trkpt lat="43.820335" lon="12.2480833"><ele>373.0</ele><time>2026-04-12T15:24:10.012Z</time></trkpt><trkpt lat="43.8204533" lon="12.248035"><ele>371.5</ele><time>2026-04-12T15:24:11.01Z</time></trkpt><trkpt lat="43.8205833" lon="12.2479733"><ele>370.0</ele><time>2026-04-12T15:24:12.011Z</time></trkpt><trkpt lat="43.820725" lon="12.2479067"><ele>368.5</ele><time>2026-04-12T15:24:13.013Z</time></trkpt><trkpt lat="43.8208717" lon="12.247815"><ele>367.0</ele><time>2026-04-12T15:24:14.012Z</time></trkpt><trkpt lat="43.821025" lon="12.2477117"><ele>367.0</ele><time>2026-04-12T15:24:15.015Z</time></trkpt><trkpt lat="43.82118" lon="12.2476117"><ele>367.0</ele><time>2026-04-12T15:24:16.011Z</time></trkpt><trkpt lat="43.8213383" lon="12.24752"><ele>367.0</ele><time>2026-04-12T15:24:17.013Z</time></trkpt><trkpt lat="43.8215017" lon="12.2474383"><ele>367.0</ele><time>2026-04-12T15:24:18.012Z</time></trkpt><trkpt lat="43.821675" lon="12.2473867"><ele>367.0</ele><time>2026-04-12T15:24:19.011Z</time></trkpt><trkpt lat="43.82186" lon="12.24737"><ele>367.0</ele><time>2026-04-12T15:24:20.013Z</time></trkpt><trkpt lat="43.822055" lon="12.2473783"><ele>365.3333333333333</ele><time>2026-04-12T15:24:21.012Z</time></trkpt><trkpt lat="43.82225" lon="12.2474117"><ele>363.6666666666667</ele><time>2026-04-12T15:24:22.013Z</time></trkpt><trkpt lat="43.8224367" lon="12.2474517"><ele>362.0</ele><time>2026-04-12T15:24:23.013Z</time></trkpt><trkpt lat="43.8226167" lon="12.247485"><ele>359.6666666666667</ele><time>2026-04-12T15:24:24.011Z</time></trkpt><trkpt lat="43.822795" lon="12.2475267"><ele>357.3333333333333</ele><time>2026-04-12T15:24:25.01Z</time></trkpt><trkpt lat="43.8229733" lon="12.24756"><ele>355.0</ele><time>2026-04-12T15:24:26.013Z</time></trkpt><trkpt lat="43.82315" lon="12.2475933"><ele>355.0</ele><time>2026-04-12T15:24:27.012Z</time></trkpt><trkpt lat="43.823325" lon="12.2476217"><ele>355.0</ele><time>2026-04-12T15:24:28.014Z</time></trkpt><trkpt lat="43.823495" lon="12.247645"><ele>355.0</ele><time>2026-04-12T15:24:29.012Z</time></trkpt><trkpt lat="43.8236583" lon="12.2477233"><ele>353.66666666666663</ele><time>2026-04-12T15:24:30.014Z</time></trkpt><trkpt lat="43.823815" lon="12.2478217"><ele>352.3333333333333</ele><time>2026-04-12T15:24:31.013Z</time></trkpt><trkpt lat="43.8239667" lon="12.2479333"><ele>351.0</ele><time>2026-04-12T15:24:32.013Z</time></trkpt><trkpt lat="43.82411" lon="12.2480667"><ele>351.6666666666667</ele><time>2026-04-12T15:24:33.014Z</time></trkpt><trkpt lat="43.82424" lon="12.2482233"><ele>352.33333333333337</ele><time>2026-04-12T15:24:34.015Z</time></trkpt><trkpt lat="43.8243533" lon="12.2484"><ele>353.0</ele><time>2026-04-12T15:24:35.015Z</time></trkpt><trkpt lat="43.82446" lon="12.24859"><ele>349.33333333333337</ele><time>2026-04-12T15:24:36.014Z</time></trkpt><trkpt lat="43.8245683" lon="12.248785"><ele>345.6666666666667</ele><time>2026-04-12T15:24:37.013Z</time></trkpt><trkpt lat="43.8246817" lon="12.2489967"><ele>342.0</ele><time>2026-04-12T15:24:38.012Z</time></trkpt><trkpt lat="43.8248" lon="12.249215"><ele>342.0</ele><time>2026-04-12T15:24:39.014Z</time></trkpt><trkpt lat="43.824925" lon="12.2494333"><ele>342.0</ele><time>2026-04-12T15:24:40.014Z</time></trkpt><trkpt lat="43.8250544" lon="12.2496657"><ele>342.0</ele><time>2026-04-12T15:24:41.011Z</time></trkpt><trkpt lat="43.8251774" lon="12.2499027"><ele>339.0</ele><time>2026-04-12T15:24:42.015Z</time></trkpt><trkpt lat="43.8253011" lon="12.2501343"><ele>336.0</ele><time>2026-04-12T15:24:43.012Z</time></trkpt><trkpt lat="43.8254183" lon="12.2503653"><ele>333.0</ele><time>2026-04-12T15:24:44.011Z</time></trkpt><trkpt lat="43.8255292" lon="12.2505827"><ele>333.3333333333333</ele><time>2026-04-12T15:24:45.013Z</time></trkpt><trkpt lat="43.8256379" lon="12.2507981"><ele>333.66666666666663</ele><time>2026-04-12T15:24:46.014Z</time></trkpt><trkpt lat="43.8257491" lon="12.2510149"><ele>334.0</ele><time>2026-04-12T15:24:47.012Z</time></trkpt><trkpt lat="43.8258598" lon="12.2512296"><ele>334.0</ele><time>2026-04-12T15:24:48.013Z</time></trkpt><trkpt lat="43.8259638" lon="12.2514274"><ele>334.0</ele><time>2026-04-12T15:24:49.013Z</time></trkpt><trkpt lat="43.8260497" lon="12.2515989"><ele>334.0</ele><time>2026-04-12T15:24:50.013Z</time></trkpt><trkpt lat="43.8261185" lon="12.2517331"><ele>334.0</ele><time>2026-04-12T15:24:51.01Z</time></trkpt><trkpt lat="43.8261706" lon="12.2518362"><ele>333.16666666666663</ele><time>2026-04-12T15:24:52.011Z</time></trkpt><trkpt lat="43.826216" lon="12.2519195"><ele>332.3333333333333</ele><time>2026-04-12T15:24:53.013Z</time></trkpt><trkpt lat="43.8262648" lon="12.2519802"><ele>331.5</ele><time>2026-04-12T15:24:54.01Z</time></trkpt><trkpt lat="43.8263238" lon="12.2520126"><ele>330.6666666666667</ele><time>2026-04-12T15:24:55.013Z</time></trkpt><trkpt lat="43.8263916" lon="12.251995"><ele>329.83333333333337</ele><time>2026-04-12T15:24:56.012Z</time></trkpt><trkpt lat="43.8264673" lon="12.2519466"><ele>329.0</ele><time>2026-04-12T15:24:57.011Z</time></trkpt><trkpt lat="43.8265566" lon="12.2518837"><ele>329.0</ele><time>2026-04-12T15:24:58.013Z</time></trkpt><trkpt lat="43.8266931" lon="12.2517601"><ele>329.0</ele><time>2026-04-12T15:24:59.014Z</time></trkpt><trkpt lat="43.8268574" lon="12.2516204"><ele>329.0</ele><time>2026-04-12T15:25:00.014Z</time></trkpt><trkpt lat="43.8270371" lon="12.2514749"><ele>330.33333333333337</ele><time>2026-04-12T15:25:01.013Z</time></trkpt><trkpt lat="43.8272282" lon="12.2513254"><ele>331.6666666666667</ele><time>2026-04-12T15:25:02.012Z</time></trkpt><trkpt lat="43.8274251" lon="12.251179"><ele>333.0</ele><time>2026-04-12T15:25:03.011Z</time></trkpt><trkpt lat="43.8276136" lon="12.2510248"><ele>335.0</ele><time>2026-04-12T15:25:04.012Z</time></trkpt><trkpt lat="43.8277964" lon="12.250885"><ele>337.0</ele><time>2026-04-12T15:25:05.011Z</time></trkpt><trkpt lat="43.8279738" lon="12.2507493"><ele>339.0</ele><time>2026-04-12T15:25:06.013Z</time></trkpt><trkpt lat="43.8281434" lon="12.2506277"><ele>341.6666666666667</ele><time>2026-04-12T15:25:07.014Z</time></trkpt><trkpt lat="43.8282983" lon="12.250519"><ele>344.33333333333337</ele><time>2026-04-12T15:25:08.011Z</time></trkpt><trkpt lat="43.8284562" lon="12.2504444"><ele>347.0</ele><time>2026-04-12T15:25:09.015Z</time></trkpt><trkpt lat="43.8286241" lon="12.2504154"><ele>351.6666666666667</ele><time>2026-04-12T15:25:10.01Z</time></trkpt><trkpt lat="43.8287971" lon="12.2504139"><ele>356.3333333333333</ele><time>2026-04-12T15:25:11.012Z</time></trkpt><trkpt lat="43.8289782" lon="12.2504314"><ele>361.0</ele><time>2026-04-12T15:25:12.012Z</time></trkpt><trkpt lat="43.8291668" lon="12.2504646"><ele>360.3333333333333</ele><time>2026-04-12T15:25:13.014Z</time></trkpt><trkpt lat="43.829359" lon="12.2505146"><ele>359.6666666666667</ele><time>2026-04-12T15:25:14.011Z</time></trkpt><trkpt lat="43.829556" lon="12.2505726"><ele>359.0</ele><time>2026-04-12T15:25:15.013Z</time></trkpt><trkpt lat="43.8297589" lon="12.2506355"><ele>359.0</ele><time>2026-04-12T15:25:16.012Z</time></trkpt><trkpt lat="43.8299584" lon="12.250701"><ele>359.0</ele><time>2026-04-12T15:25:17.012Z</time></trkpt><trkpt lat="43.8301424" lon="12.2507781"><ele>359.0</ele><time>2026-04-12T15:25:18.014Z</time></trkpt><trkpt lat="43.8303109" lon="12.2508669"><ele>362.6666666666667</ele><time>2026-04-12T15:25:19.012Z</time></trkpt><trkpt lat="43.830473" lon="12.2509787"><ele>366.3333333333333</ele><time>2026-04-12T15:25:20.012Z</time></trkpt><trkpt lat="43.8306213" lon="12.2511275"><ele>370.0</ele><time>2026-04-12T15:25:21.015Z</time></trkpt><trkpt lat="43.8307528" lon="12.2513018"><ele>367.3333333333333</ele><time>2026-04-12T15:25:22.013Z</time></trkpt><trkpt lat="43.8308755" lon="12.25148"><ele>364.6666666666667</ele><time>2026-04-12T15:25:23.014Z</time></trkpt><trkpt lat="43.8309953" lon="12.2516273"><ele>362.0</ele><time>2026-04-12T15:25:24.014Z</time></trkpt><trkpt lat="43.8311048" lon="12.2517256"><ele>365.20000000000005</ele><time>2026-04-12T15:25:25.014Z</time></trkpt><trkpt lat="43.8312003" lon="12.2517695"><ele>368.4</ele><time>2026-04-12T15:25:26.014Z</time></trkpt><trkpt lat="43.8312844" lon="12.2517666"><ele>371.6</ele><time>2026-04-12T15:25:27.013Z</time></trkpt><trkpt lat="43.831357" lon="12.2517184"><ele>374.79999999999995</ele><time>2026-04-12T15:25:28.015Z</time></trkpt><trkpt lat="43.8314231" lon="12.2516502"><ele>378.0</ele><time>2026-04-12T15:25:29.014Z</time></trkpt><trkpt lat="43.8314552" lon="12.2514955"><ele>379.3333333333333</ele><time>2026-04-12T15:25:30.012Z</time></trkpt><trkpt lat="43.831476" lon="12.251302"><ele>380.66666666666663</ele><time>2026-04-12T15:25:31.013Z</time></trkpt><trkpt lat="43.8314937" lon="12.2510914"><ele>382.0</ele><time>2026-04-12T15:25:32.012Z</time></trkpt><trkpt lat="43.8315127" lon="12.2508693"><ele>382.0</ele><time>2026-04-12T15:25:33.014Z</time></trkpt><trkpt lat="43.8315362" lon="12.2506316"><ele>382.0</ele><time>2026-04-12T15:25:34.013Z</time></trkpt><trkpt lat="43.8315477" lon="12.250381"><ele>382.0</ele><time>2026-04-12T15:25:35.013Z</time></trkpt><trkpt lat="43.8315387" lon="12.2501387"><ele>383.25</ele><time>2026-04-12T15:25:36.012Z</time></trkpt><trkpt lat="43.8315094" lon="12.2499281"><ele>384.5</ele><time>2026-04-12T15:25:37.011Z</time></trkpt><trkpt lat="43.831478" lon="12.2497524"><ele>385.75</ele><time>2026-04-12T15:25:38.014Z</time></trkpt><trkpt lat="43.831463" lon="12.2496092"><ele>387.0</ele><time>2026-04-12T15:25:39.014Z</time></trkpt><trkpt lat="43.8314785" lon="12.2494917"><ele>388.5</ele><time>2026-04-12T15:25:40.013Z</time></trkpt><trkpt lat="43.8315131" lon="12.2493884"><ele>390.0</ele><time>2026-04-12T15:25:41.013Z</time></trkpt><trkpt lat="43.8315628" lon="12.2493191"><ele>391.5</ele><time>2026-04-12T15:25:42.013Z</time></trkpt><trkpt lat="43.8316325" lon="12.2492992"><ele>393.0</ele><time>2026-04-12T15:25:43.012Z</time></trkpt><trkpt lat="43.8317154" lon="12.2493202"><ele>394.5</ele><time>2026-04-12T15:25:44.01Z</time></trkpt><trkpt lat="43.8318267" lon="12.2494374"><ele>396.0</ele><time>2026-04-12T15:25:45.012Z</time></trkpt><trkpt lat="43.8319236" lon="12.2496111"><ele>399.0</ele><time>2026-04-12T15:25:46.011Z</time></trkpt><trkpt lat="43.8320002" lon="12.2498201"><ele>402.0</ele><time>2026-04-12T15:25:47.01Z</time></trkpt><trkpt lat="43.8320711" lon="12.2500319"><ele>405.0</ele><time>2026-04-12T15:25:48.015Z</time></trkpt><trkpt lat="43.8321381" lon="12.2502347"><ele>405.0</ele><time>2026-04-12T15:25:49.012Z</time></trkpt><trkpt lat="43.8322057" lon="12.250425"><ele>405.0</ele><time>2026-04-12T15:25:50.012Z</time></trkpt><trkpt lat="43.8322849" lon="12.2505966"><ele>405.0</ele><time>2026-04-12T15:25:51.013Z</time></trkpt><trkpt lat="43.8323819" lon="12.2507368"><ele>405.0</ele><time>2026-04-12T15:25:52.013Z</time></trkpt><trkpt lat="43.8324966" lon="12.2508379"><ele>407.33333333333337</ele><time>2026-04-12T15:25:53.014Z</time></trkpt><trkpt lat="43.8326363" lon="12.2509154"><ele>409.6666666666667</ele><time>2026-04-12T15:25:54.01Z</time></trkpt><trkpt lat="43.8327915" lon="12.2509826"><ele>412.0</ele><time>2026-04-12T15:25:55.013Z</time></trkpt><trkpt lat="43.8329531" lon="12.2510555"><ele>412.0</ele><time>2026-04-12T15:25:56.011Z</time></trkpt><trkpt lat="43.8331045" lon="12.2511377"><ele>412.0</ele><time>2026-04-12T15:25:57.012Z</time></trkpt><trkpt lat="43.8332286" lon="12.2512346"><ele>412.0</ele><time>2026-04-12T15:25:58.011Z</time></trkpt><trkpt lat="43.8333097" lon="12.25135"><ele>412.0</ele><time>2026-04-12T15:25:59.013Z</time></trkpt><trkpt lat="43.8333493" lon="12.2514732"><ele>411.20000000000005</ele><time>2026-04-12T15:26:00.013Z</time></trkpt><trkpt lat="43.833346" lon="12.2515885"><ele>410.4</ele><time>2026-04-12T15:26:01.012Z</time></trkpt><trkpt lat="43.8333128" lon="12.2516947"><ele>409.6</ele><time>2026-04-12T15:26:02.011Z</time></trkpt><trkpt lat="43.8332556" lon="12.2517937"><ele>408.79999999999995</ele><time>2026-04-12T15:26:03.009Z</time></trkpt><trkpt lat="43.8331493" lon="12.2518887"><ele>408.0</ele><time>2026-04-12T15:26:04.011Z</time></trkpt><trkpt lat="43.8330412" lon="12.2519992"><ele>408.0</ele><time>2026-04-12T15:26:05.012Z</time></trkpt><trkpt lat="43.8329516" lon="12.2521336"><ele>408.0</ele><time>2026-04-12T15:26:06.013Z</time></trkpt><trkpt lat="43.8328873" lon="12.2522987"><ele>408.0</ele><time>2026-04-12T15:26:07.012Z</time></trkpt><trkpt lat="43.8328514" lon="12.2524937"><ele>408.0</ele><time>2026-04-12T15:26:08.011Z</time></trkpt><trkpt lat="43.8328392" lon="12.2527154"><ele>411.33333333333337</ele><time>2026-04-12T15:26:09.015Z</time></trkpt><trkpt lat="43.8328514" lon="12.2529557"><ele>414.6666666666667</ele><time>2026-04-12T15:26:10.01Z</time></trkpt><trkpt lat="43.8328724" lon="12.2532025"><ele>418.0</ele><time>2026-04-12T15:26:11.013Z</time></trkpt><trkpt lat="43.8328949" lon="12.2534541"><ele>418.33333333333337</ele><time>2026-04-12T15:26:12.013Z</time></trkpt><trkpt lat="43.8329167" lon="12.2537035"><ele>418.66666666666663</ele><time>2026-04-12T15:26:13.012Z</time></trkpt><trkpt lat="43.8329366" lon="12.2539411"><ele>419.0</ele><time>2026-04-12T15:26:14.015Z</time></trkpt><trkpt lat="43.8329555" lon="12.2541694"><ele>419.0</ele><time>2026-04-12T15:26:15.011Z</time></trkpt><trkpt lat="43.8329714" lon="12.2543973"><ele>419.0</ele><time>2026-04-12T15:26:16.012Z</time></trkpt><trkpt lat="43.8329861" lon="12.2546211"><ele>419.0</ele><time>2026-04-12T15:26:17.01Z</time></trkpt><trkpt lat="43.8330009" lon="12.2548381"><ele>419.5</ele><time>2026-04-12T15:26:18.013Z</time></trkpt><trkpt lat="43.8330148" lon="12.2550337"><ele>420.0</ele><time>2026-04-12T15:26:19.014Z</time></trkpt><trkpt lat="43.8330355" lon="12.2552029"><ele>420.5</ele><time>2026-04-12T15:26:20.013Z</time></trkpt><trkpt lat="43.8330804" lon="12.2553474"><ele>421.0</ele><time>2026-04-12T15:26:21.011Z</time></trkpt><trkpt lat="43.8331544" lon="12.2554532"><ele>421.0</ele><time>2026-04-12T15:26:22.012Z</time></trkpt><trkpt lat="43.8332539" lon="12.2555195"><ele>421.0</ele><time>2026-04-12T15:26:23.01Z</time></trkpt><trkpt lat="43.8333751" lon="12.2555457"><ele>421.0</ele><time>2026-04-12T15:26:24.012Z</time></trkpt><trkpt lat="43.8335197" lon="12.2555273"><ele>421.0</ele><time>2026-04-12T15:26:25.01Z</time></trkpt><trkpt lat="43.8336646" lon="12.2554827"><ele>421.0</ele><time>2026-04-12T15:26:26.014Z</time></trkpt><trkpt lat="43.8337908" lon="12.2554152"><ele>421.0</ele><time>2026-04-12T15:26:27.014Z</time></trkpt><trkpt lat="43.8338957" lon="12.2553071"><ele>421.0</ele><time>2026-04-12T15:26:28.012Z</time></trkpt><trkpt lat="43.8339836" lon="12.255153"><ele>421.0</ele><time>2026-04-12T15:26:29.012Z</time></trkpt><trkpt lat="43.8340665" lon="12.2549555"><ele>421.6666666666667</ele><time>2026-04-12T15:26:30.014Z</time></trkpt><trkpt lat="43.8341451" lon="12.2547188"><ele>422.33333333333337</ele><time>2026-04-12T15:26:31.013Z</time></trkpt><trkpt lat="43.8342002" lon="12.2544635"><ele>423.0</ele><time>2026-04-12T15:26:32.013Z</time></trkpt><trkpt lat="43.8342286" lon="12.2541843"><ele>424.33333333333337</ele><time>2026-04-12T15:26:33.014Z</time></trkpt><trkpt lat="43.8342365" lon="12.2539027"><ele>425.6666666666667</ele><time>2026-04-12T15:26:34.013Z</time></trkpt><trkpt lat="43.834238" lon="12.2536376"><ele>427.0</ele><time>2026-04-12T15:26:35.013Z</time></trkpt><trkpt lat="43.8342557" lon="12.2533849"><ele>427.0</ele><time>2026-04-12T15:26:36.014Z</time></trkpt><trkpt lat="43.834299" lon="12.2531381"><ele>427.0</ele><time>2026-04-12T15:26:37.013Z</time></trkpt><trkpt lat="43.8343709" lon="12.2528965"><ele>427.0</ele><time>2026-04-12T15:26:38.013Z</time></trkpt><trkpt lat="43.8344647" lon="12.2526735"><ele>427.0</ele><time>2026-04-12T15:26:39.013Z</time></trkpt><trkpt lat="43.8345567" lon="12.2524833"><ele>427.0</ele><time>2026-04-12T15:26:40.013Z</time></trkpt><trkpt lat="43.8346399" lon="12.2523172"><ele>427.0</ele><time>2026-04-12T15:26:41.013Z</time></trkpt><trkpt lat="43.8347031" lon="12.2521642"><ele>427.0</ele><time>2026-04-12T15:26:42.012Z</time></trkpt><trkpt lat="43.8347436" lon="12.252"><ele>431.0</ele><time>2026-04-12T15:26:43.015Z</time></trkpt><trkpt lat="43.834767" lon="12.2518068"><ele>435.0</ele><time>2026-04-12T15:26:44.011Z</time></trkpt><trkpt lat="43.8347712" lon="12.2515939"><ele>439.0</ele><time>2026-04-12T15:26:45.012Z</time></trkpt><trkpt lat="43.8347559" lon="12.2513648"><ele>440.33333333333337</ele><time>2026-04-12T15:26:46.011Z</time></trkpt><trkpt lat="43.8347179" lon="12.2511186"><ele>441.66666666666663</ele><time>2026-04-12T15:26:47.013Z</time></trkpt><trkpt lat="43.8346713" lon="12.2508626"><ele>443.0</ele><time>2026-04-12T15:26:48.012Z</time></trkpt><trkpt lat="43.8346323" lon="12.2505904"><ele>444.3333333333333</ele><time>2026-04-12T15:26:49.011Z</time></trkpt><trkpt lat="43.8346048" lon="12.2502946"><ele>445.66666666666663</ele><time>2026-04-12T15:26:50.01Z</time></trkpt><trkpt lat="43.8345846" lon="12.249989"><ele>447.0</ele><time>2026-04-12T15:26:51.013Z</time></trkpt><trkpt lat="43.8345816" lon="12.2496928"><ele>449.0</ele><time>2026-04-12T15:26:52.01Z</time></trkpt><trkpt lat="43.834577" lon="12.2494246"><ele>451.0</ele><time>2026-04-12T15:26:53.011Z</time></trkpt><trkpt lat="43.8345586" lon="12.2491949"><ele>453.0</ele><time>2026-04-12T15:26:54.014Z</time></trkpt><trkpt lat="43.8345464" lon="12.2490007"><ele>453.0</ele><time>2026-04-12T15:26:55.015Z</time></trkpt><trkpt lat="43.8345535" lon="12.2488215"><ele>453.0</ele><time>2026-04-12T15:26:56.009Z</time></trkpt><trkpt lat="43.8345896" lon="12.248665"><ele>453.0</ele><time>2026-04-12T15:26:57.012Z</time></trkpt><trkpt lat="43.834657" lon="12.2485154"><ele>453.0</ele><time>2026-04-12T15:26:58.012Z</time></trkpt><trkpt lat="43.8347512" lon="12.2483785"><ele>453.0</ele><time>2026-04-12T15:26:59.012Z</time></trkpt><trkpt lat="43.8348707" lon="12.2482444"><ele>453.0</ele><time>2026-04-12T15:27:00.013Z</time></trkpt><trkpt lat="43.8350068" lon="12.2481027"><ele>453.0</ele><time>2026-04-12T15:27:01.013Z</time></trkpt><trkpt lat="43.8351583" lon="12.2479493"><ele>456.0</ele><time>2026-04-12T15:27:02.013Z</time></trkpt><trkpt lat="43.835319" lon="12.2477882"><ele>459.0</ele><time>2026-04-12T15:27:03.017Z</time></trkpt><trkpt lat="43.8354842" lon="12.2476203"><ele>462.0</ele><time>2026-04-12T15:27:04.013Z</time></trkpt><trkpt lat="43.835654" lon="12.2474419"><ele>460.66666666666663</ele><time>2026-04-12T15:27:05.011Z</time></trkpt><trkpt lat="43.8358285" lon="12.2472544"><ele>459.3333333333333</ele><time>2026-04-12T15:27:06.016Z</time></trkpt><trkpt lat="43.8360082" lon="12.2470682"><ele>458.0</ele><time>2026-04-12T15:27:07.013Z</time></trkpt><trkpt lat="43.836187" lon="12.2468858"><ele>461.3333333333333</ele><time>2026-04-12T15:27:08.013Z</time></trkpt><trkpt lat="43.8363552" lon="12.2467052"><ele>464.66666666666663</ele><time>2026-04-12T15:27:09.012Z</time></trkpt><trkpt lat="43.8365131" lon="12.2465391"><ele>468.0</ele><time>2026-04-12T15:27:10.015Z</time></trkpt><trkpt lat="43.8366636" lon="12.2463875"><ele>473.0</ele><time>2026-04-12T15:27:11.014Z</time></trkpt><trkpt lat="43.8368092" lon="12.2462412"><ele>478.0</ele><time>2026-04-12T15:27:12.014Z</time></trkpt><trkpt lat="43.8369413" lon="12.2460929"><ele>483.0</ele><time>2026-04-12T15:27:13.013Z</time></trkpt><trkpt lat="43.8370559" lon="12.245935"><ele>483.0</ele><time>2026-04-12T15:27:14.011Z</time></trkpt><trkpt lat="43.8371507" lon="12.2457496"><ele>483.0</ele><time>2026-04-12T15:27:15.012Z</time></trkpt><trkpt lat="43.8372219" lon="12.2455345"><ele>483.0</ele><time>2026-04-12T15:27:16.013Z</time></trkpt><trkpt lat="43.8372768" lon="12.2452917"><ele>482.66666666666663</ele><time>2026-04-12T15:27:17.011Z</time></trkpt><trkpt lat="43.8373318" lon="12.2450271"><ele>482.3333333333333</ele><time>2026-04-12T15:27:18.012Z</time></trkpt><trkpt lat="43.8373948" lon="12.2447546"><ele>482.0</ele><time>2026-04-12T15:27:19.012Z</time></trkpt><trkpt lat="43.8374624" lon="12.2444771"><ele>483.3333333333333</ele><time>2026-04-12T15:27:20.012Z</time></trkpt><trkpt lat="43.8375307" lon="12.2441936"><ele>484.66666666666663</ele><time>2026-04-12T15:27:21.014Z</time></trkpt><trkpt lat="43.8376024" lon="12.2439032"><ele>486.0</ele><time>2026-04-12T15:27:22.014Z</time></trkpt><trkpt lat="43.8376715" lon="12.2436058"><ele>492.5</ele><time>2026-04-12T15:27:23.013Z</time></trkpt><trkpt lat="43.8377374" lon="12.2433032"><ele>499.0</ele><time>2026-04-12T15:27:24.014Z</time></trkpt><trkpt lat="43.8378002" lon="12.243008"><ele>499.33333333333337</ele><time>2026-04-12T15:27:25.014Z</time></trkpt><trkpt lat="43.8378567" lon="12.2427352"><ele>499.66666666666663</ele><time>2026-04-12T15:27:26.013Z</time></trkpt><trkpt lat="43.8379079" lon="12.242501"><ele>500.0</ele><time>2026-04-12T15:27:27.013Z</time></trkpt><trkpt lat="43.8379509" lon="12.2423054"><ele>501.0</ele><time>2026-04-12T15:27:28.013Z</time></trkpt><trkpt lat="43.8379948" lon="12.2421472"><ele>502.0</ele><time>2026-04-12T15:27:29.012Z</time></trkpt><trkpt lat="43.8380394" lon="12.2420194"><ele>503.0</ele><time>2026-04-12T15:27:30.013Z</time></trkpt><trkpt lat="43.8380852" lon="12.2419194"><ele>504.0</ele><time>2026-04-12T15:27:31.013Z</time></trkpt><trkpt lat="43.838142" lon="12.2418523"><ele>505.0</ele><time>2026-04-12T15:27:32.012Z</time></trkpt><trkpt lat="43.8382068" lon="12.2418207"><ele>505.0</ele><time>2026-04-12T15:27:33.013Z</time></trkpt><trkpt lat="43.8382848" lon="12.2418612"><ele>505.0</ele><time>2026-04-12T15:27:34.014Z</time></trkpt><trkpt lat="43.8383698" lon="12.2419265"><ele>505.0</ele><time>2026-04-12T15:27:35.014Z</time></trkpt><trkpt lat="43.8384758" lon="12.2420253"><ele>505.0</ele><time>2026-04-12T15:27:36.013Z</time></trkpt><trkpt lat="43.8385989" lon="12.2421302"><ele>507.33333333333337</ele><time>2026-04-12T15:27:37.013Z</time></trkpt><trkpt lat="43.8387398" lon="12.2422397"><ele>509.66666666666663</ele><time>2026-04-12T15:27:38.013Z</time></trkpt><trkpt lat="43.8388849" lon="12.2423529"><ele>512.0</ele><time>2026-04-12T15:27:39.013Z</time></trkpt><trkpt lat="43.8390214" lon="12.2424517"><ele>512.0</ele><time>2026-04-12T15:27:40.014Z</time></trkpt><trkpt lat="43.8391458" lon="12.2425214"><ele>512.0</ele><time>2026-04-12T15:27:41.015Z</time></trkpt><trkpt lat="43.8392562" lon="12.2425392"><ele>512.0</ele><time>2026-04-12T15:27:42.013Z</time></trkpt><trkpt lat="43.839355" lon="12.2424949"><ele>512.0</ele><time>2026-04-12T15:27:43.015Z</time></trkpt><trkpt lat="43.8394431" lon="12.2423951"><ele>516.0</ele><time>2026-04-12T15:27:44.013Z</time></trkpt><trkpt lat="43.8395131" lon="12.2422485"><ele>520.0</ele><time>2026-04-12T15:27:45.014Z</time></trkpt><trkpt lat="43.8395591" lon="12.2420643"><ele>524.0</ele><time>2026-04-12T15:27:46.016Z</time></trkpt><trkpt lat="43.8395905" lon="12.2418516"><ele>528.0</ele><time>2026-04-12T15:27:47.013Z</time></trkpt><trkpt lat="43.8396182" lon="12.2416139"><ele>528.0</ele><time>2026-04-12T15:27:48.013Z</time></trkpt><trkpt lat="43.83965" lon="12.2413589"><ele>528.0</ele><time>2026-04-12T15:27:49.013Z</time></trkpt><trkpt lat="43.8396827" lon="12.2410859"><ele>528.0</ele><time>2026-04-12T15:27:50.014Z</time></trkpt><trkpt lat="43.8397211" lon="12.2407999"><ele>528.3333333333334</ele><time>2026-04-12T15:27:51.013Z</time></trkpt><trkpt lat="43.8397701" lon="12.2405198"><ele>528.6666666666667</ele><time>2026-04-12T15:27:52.012Z</time></trkpt><trkpt lat="43.8398072" lon="12.2402565"><ele>529.0</ele><time>2026-04-12T15:27:53.011Z</time></trkpt><trkpt lat="43.8398402" lon="12.2400104"><ele>529.0</ele><time>2026-04-12T15:27:54.014Z</time></trkpt><trkpt lat="43.8398731" lon="12.2397856"><ele>529.0</ele><time>2026-04-12T15:27:55.013Z</time></trkpt><trkpt lat="43.8399063" lon="12.2395788"><ele>529.0</ele><time>2026-04-12T15:27:56.012Z</time></trkpt><trkpt lat="43.8399597" lon="12.2393926"><ele>529.0</ele><time>2026-04-12T15:27:57.015Z</time></trkpt><trkpt lat="43.8400499" lon="12.2392389"><ele>529.0</ele><time>2026-04-12T15:27:58.012Z</time></trkpt><trkpt lat="43.8401666" lon="12.2391031"><ele>529.0</ele><time>2026-04-12T15:27:59.012Z</time></trkpt><trkpt lat="43.8403022" lon="12.2389782"><ele>533.0</ele><time>2026-04-12T15:28:00.013Z</time></trkpt><trkpt lat="43.8404501" lon="12.2388579"><ele>537.0</ele><time>2026-04-12T15:28:01.013Z</time></trkpt><trkpt lat="43.8405966" lon="12.2387365"><ele>541.0</ele><time>2026-04-12T15:28:02.012Z</time></trkpt><trkpt lat="43.840729" lon="12.2386164"><ele>541.0</ele><time>2026-04-12T15:28:03.013Z</time></trkpt><trkpt lat="43.8408465" lon="12.2385188"><ele>541.0</ele><time>2026-04-12T15:28:04.013Z</time></trkpt><trkpt lat="43.8409509" lon="12.2384496"><ele>541.0</ele><time>2026-04-12T15:28:05.011Z</time></trkpt><trkpt lat="43.84105" lon="12.2384394"><ele>541.0</ele><time>2026-04-12T15:28:06.012Z</time></trkpt><trkpt lat="43.8411429" lon="12.2384952"><ele>544.0</ele><time>2026-04-12T15:28:07.013Z</time></trkpt><trkpt lat="43.8412336" lon="12.2386077"><ele>547.0</ele><time>2026-04-12T15:28:08.013Z</time></trkpt><trkpt lat="43.841307" lon="12.2387703"><ele>550.0</ele><time>2026-04-12T15:28:09.015Z</time></trkpt><trkpt lat="43.8413437" lon="12.238961"><ele>553.0</ele><time>2026-04-12T15:28:10.01Z</time></trkpt><trkpt lat="43.8413425" lon="12.2391658"><ele>553.3333333333334</ele><time>2026-04-12T15:28:11.012Z</time></trkpt><trkpt lat="43.8413163" lon="12.2393874"><ele>553.6666666666666</ele><time>2026-04-12T15:28:12.013Z</time></trkpt><trkpt lat="43.8412759" lon="12.2396279"><ele>554.0</ele><time>2026-04-12T15:28:13.012Z</time></trkpt><trkpt lat="43.8412339" lon="12.2398773"><ele>556.0</ele><time>2026-04-12T15:28:14.013Z</time></trkpt><trkpt lat="43.8411986" lon="12.2401195"><ele>558.0</ele><time>2026-04-12T15:28:15.016Z</time></trkpt><trkpt lat="43.84117" lon="12.2403505"><ele>560.0</ele><time>2026-04-12T15:28:16.012Z</time></trkpt><trkpt lat="43.8411488" lon="12.2405681"><ele>561.25</ele><time>2026-04-12T15:28:17.013Z</time></trkpt><trkpt lat="43.8411487" lon="12.2407621"><ele>562.5</ele><time>2026-04-12T15:28:18.013Z</time></trkpt><trkpt lat="43.8411744" lon="12.2409439"><ele>563.75</ele><time>2026-04-12T15:28:19.012Z</time></trkpt><trkpt lat="43.8412182" lon="12.241128"><ele>565.0</ele><time>2026-04-12T15:28:20.013Z</time></trkpt><trkpt lat="43.8412724" lon="12.2413251"><ele>563.6666666666667</ele><time>2026-04-12T15:28:21.013Z</time></trkpt><trkpt lat="43.8413364" lon="12.2415385"><ele>562.3333333333334</ele><time>2026-04-12T15:28:22.014Z</time></trkpt><trkpt lat="43.8414101" lon="12.2417622"><ele>561.0</ele><time>2026-04-12T15:28:23.013Z</time></trkpt><trkpt lat="43.8414883" lon="12.2419795"><ele>561.0</ele><time>2026-04-12T15:28:24.016Z</time></trkpt><trkpt lat="43.8415673" lon="12.2421712"><ele>561.0</ele><time>2026-04-12T15:28:25.013Z</time></trkpt><trkpt lat="43.8416442" lon="12.2423291"><ele>561.0</ele><time>2026-04-12T15:28:26.014Z</time></trkpt><trkpt lat="43.8417199" lon="12.2424543"><ele>561.0</ele><time>2026-04-12T15:28:27.014Z</time></trkpt><trkpt lat="43.8417989" lon="12.2425334"><ele>559.8</ele><time>2026-04-12T15:28:28.013Z</time></trkpt><trkpt lat="43.8418836" lon="12.2425696"><ele>558.6</ele><time>2026-04-12T15:28:29.015Z</time></trkpt><trkpt lat="43.8419698" lon="12.242571"><ele>557.4</ele><time>2026-04-12T15:28:30.011Z</time></trkpt><trkpt lat="43.8420568" lon="12.2425497"><ele>556.2</ele><time>2026-04-12T15:28:31.013Z</time></trkpt><trkpt lat="43.8421416" lon="12.2425012"><ele>555.0</ele><time>2026-04-12T15:28:32.011Z</time></trkpt><trkpt lat="43.8422196" lon="12.24242"><ele>555.0</ele><time>2026-04-12T15:28:33.015Z</time></trkpt><trkpt lat="43.8422816" lon="12.2423035"><ele>555.0</ele><time>2026-04-12T15:28:34.013Z</time></trkpt><trkpt lat="43.8423183" lon="12.2421718"><ele>555.0</ele><time>2026-04-12T15:28:35.013Z</time></trkpt><trkpt lat="43.8423164" lon="12.2420005"><ele>555.0</ele><time>2026-04-12T15:28:36.015Z</time></trkpt><trkpt lat="43.842295" lon="12.2417714"><ele>557.0</ele><time>2026-04-12T15:28:37.012Z</time></trkpt><trkpt lat="43.8422837" lon="12.2415277"><ele>559.0</ele><time>2026-04-12T15:28:38.016Z</time></trkpt><trkpt lat="43.8422647" lon="12.2412666"><ele>561.0</ele><time>2026-04-12T15:28:39.015Z</time></trkpt><trkpt lat="43.8422485" lon="12.241012"><ele>563.3333333333334</ele><time>2026-04-12T15:28:40.012Z</time></trkpt><trkpt lat="43.8422394" lon="12.2407684"><ele>565.6666666666667</ele><time>2026-04-12T15:28:41.013Z</time></trkpt><trkpt lat="43.8422532" lon="12.2405212"><ele>568.0</ele><time>2026-04-12T15:28:42.014Z</time></trkpt><trkpt lat="43.8422632" lon="12.2402892"><ele>569.25</ele><time>2026-04-12T15:28:43.016Z</time></trkpt><trkpt lat="43.8422935" lon="12.2400902"><ele>570.5</ele><time>2026-04-12T15:28:44.014Z</time></trkpt><trkpt lat="43.8423565" lon="12.2399303"><ele>571.75</ele><time>2026-04-12T15:28:45.014Z</time></trkpt><trkpt lat="43.8424485" lon="12.2398047"><ele>573.0</ele><time>2026-04-12T15:28:46.014Z</time></trkpt><trkpt lat="43.8425635" lon="12.2397004"><ele>576.3333333333334</ele><time>2026-04-12T15:28:47.014Z</time></trkpt><trkpt lat="43.8426841" lon="12.2395856"><ele>579.6666666666667</ele><time>2026-04-12T15:28:48.014Z</time></trkpt><trkpt lat="43.8428148" lon="12.2394612"><ele>583.0</ele><time>2026-04-12T15:28:49.014Z</time></trkpt><trkpt lat="43.8429506" lon="12.2393187"><ele>583.0</ele><time>2026-04-12T15:28:50.013Z</time></trkpt><trkpt lat="43.8430778" lon="12.2391419"><ele>583.0</ele><time>2026-04-12T15:28:51.014Z</time></trkpt><trkpt lat="43.8431956" lon="12.2389401"><ele>583.0</ele><time>2026-04-12T15:28:52.013Z</time></trkpt><trkpt lat="43.8433144" lon="12.2387266"><ele>582.6666666666667</ele><time>2026-04-12T15:28:53.014Z</time></trkpt><trkpt lat="43.8434374" lon="12.2385071"><ele>582.3333333333334</ele><time>2026-04-12T15:28:54.013Z</time></trkpt><trkpt lat="43.8435679" lon="12.2382866"><ele>582.0</ele><time>2026-04-12T15:28:55.014Z</time></trkpt><trkpt lat="43.843701" lon="12.2380708"><ele>586.0</ele><time>2026-04-12T15:28:56.014Z</time></trkpt><trkpt lat="43.8438238" lon="12.2378647"><ele>590.0</ele><time>2026-04-12T15:28:57.013Z</time></trkpt><trkpt lat="43.8439389" lon="12.2376688"><ele>594.0</ele><time>2026-04-12T15:28:58.014Z</time></trkpt><trkpt lat="43.8440565" lon="12.2374789"><ele>592.6666666666666</ele><time>2026-04-12T15:28:59.015Z</time></trkpt><trkpt lat="43.8441831" lon="12.2372944"><ele>591.3333333333333</ele><time>2026-04-12T15:29:00.014Z</time></trkpt><trkpt lat="43.8443307" lon="12.237122"><ele>590.0</ele><time>2026-04-12T15:29:01.013Z</time></trkpt><trkpt lat="43.8444966" lon="12.2369608"><ele>594.0</ele><time>2026-04-12T15:29:02.012Z</time></trkpt><trkpt lat="43.8446627" lon="12.2368042"><ele>598.0</ele><time>2026-04-12T15:29:03.014Z</time></trkpt><trkpt lat="43.8448205" lon="12.2366527"><ele>602.0</ele><time>2026-04-12T15:29:04.014Z</time></trkpt><trkpt lat="43.8449598" lon="12.2365091"><ele>601.0</ele><time>2026-04-12T15:29:05.012Z</time></trkpt><trkpt lat="43.8450788" lon="12.2363779"><ele>600.0</ele><time>2026-04-12T15:29:06.014Z</time></trkpt><trkpt lat="43.8451682" lon="12.2362747"><ele>599.0</ele><time>2026-04-12T15:29:07.014Z</time></trkpt><trkpt lat="43.8452403" lon="12.2361858"><ele>598.0</ele><time>2026-04-12T15:29:08.014Z</time></trkpt><trkpt lat="43.8453169" lon="12.2361457"><ele>597.0</ele><time>2026-04-12T15:29:09.012Z</time></trkpt><trkpt lat="43.8454101" lon="12.2362304"><ele>600.2</ele><time>2026-04-12T15:29:11.013Z</time></trkpt><trkpt lat="43.8453978" lon="12.2363231"><ele>603.4000000000001</ele><time>2026-04-12T15:29:12.015Z</time></trkpt><trkpt lat="43.8453713" lon="12.2364187"><ele>606.5999999999999</ele><time>2026-04-12T15:29:13.014Z</time></trkpt><trkpt lat="43.8453194" lon="12.2365206"><ele>609.8</ele><time>2026-04-12T15:29:14.012Z</time></trkpt><trkpt lat="43.8452439" lon="12.236646"><ele>613.0</ele><time>2026-04-12T15:29:15.017Z</time></trkpt><trkpt lat="43.8451553" lon="12.2368037"><ele>611.75</ele><time>2026-04-12T15:29:16.013Z</time></trkpt><trkpt lat="43.8450819" lon="12.2369599"><ele>610.5</ele><time>2026-04-12T15:29:17.014Z</time></trkpt><trkpt lat="43.8450307" lon="12.237134"><ele>609.25</ele><time>2026-04-12T15:29:18.014Z</time></trkpt><trkpt lat="43.8450067" lon="12.2373111"><ele>608.0</ele><time>2026-04-12T15:29:19.014Z</time></trkpt><trkpt lat="43.8449963" lon="12.237451"><ele>608.0</ele><time>2026-04-12T15:29:20.016Z</time></trkpt><trkpt lat="43.8450008" lon="12.2375649"><ele>608.0</ele><time>2026-04-12T15:29:21.012Z</time></trkpt><trkpt lat="43.8450239" lon="12.2376469"><ele>608.0</ele><time>2026-04-12T15:29:22.014Z</time></trkpt><trkpt lat="43.845153" lon="12.237684"><ele>608.0</ele><time>2026-04-12T15:29:24.015Z</time></trkpt><trkpt lat="43.8452652" lon="12.2376135"><ele>608.0</ele><time>2026-04-12T15:29:25.013Z</time></trkpt><trkpt lat="43.8454023" lon="12.2375017"><ele>611.3333333333333</ele><time>2026-04-12T15:29:26.014Z</time></trkpt><trkpt lat="43.8455475" lon="12.2373899"><ele>614.6666666666666</ele><time>2026-04-12T15:29:27.016Z</time></trkpt><trkpt lat="43.8456938" lon="12.2372721"><ele>618.0</ele><time>2026-04-12T15:29:28.013Z</time></trkpt><trkpt lat="43.8458428" lon="12.2371489"><ele>619.3333333333334</ele><time>2026-04-12T15:29:29.016Z</time></trkpt><trkpt lat="43.845982" lon="12.2369888"><ele>620.6666666666667</ele><time>2026-04-12T15:29:30.013Z</time></trkpt><trkpt lat="43.8461024" lon="12.2367874"><ele>622.0</ele><time>2026-04-12T15:29:31.013Z</time></trkpt><trkpt lat="43.8462036" lon="12.2365545"><ele>622.3333333333334</ele><time>2026-04-12T15:29:32.013Z</time></trkpt><trkpt lat="43.8463196" lon="12.2363352"><ele>622.6666666666666</ele><time>2026-04-12T15:29:33.014Z</time></trkpt><trkpt lat="43.8464589" lon="12.2361407"><ele>623.0</ele><time>2026-04-12T15:29:34.014Z</time></trkpt><trkpt lat="43.8466066" lon="12.2359528"><ele>623.0</ele><time>2026-04-12T15:29:35.012Z</time></trkpt><trkpt lat="43.8467468" lon="12.2357509"><ele>623.0</ele><time>2026-04-12T15:29:36.014Z</time></trkpt><trkpt lat="43.8468803" lon="12.2355504"><ele>623.0</ele><time>2026-04-12T15:29:37.014Z</time></trkpt><trkpt lat="43.8469899" lon="12.2353431"><ele>625.5</ele><time>2026-04-12T15:29:38.015Z</time></trkpt><trkpt lat="43.8470683" lon="12.2351427"><ele>628.0</ele><time>2026-04-12T15:29:39.012Z</time></trkpt><trkpt lat="43.8471254" lon="12.234964"><ele>630.5</ele><time>2026-04-12T15:29:40.012Z</time></trkpt><trkpt lat="43.8471768" lon="12.2348163"><ele>633.0</ele><time>2026-04-12T15:29:41.014Z</time></trkpt><trkpt lat="43.8472452" lon="12.2346996"><ele>633.0</ele><time>2026-04-12T15:29:42.013Z</time></trkpt><trkpt lat="43.8473388" lon="12.234616"><ele>633.0</ele><time>2026-04-12T15:29:43.012Z</time></trkpt><trkpt lat="43.847465" lon="12.23459"><ele>633.0</ele><time>2026-04-12T15:29:44.011Z</time></trkpt><trkpt lat="43.8476083" lon="12.2345833"><ele>633.0</ele><time>2026-04-12T15:29:45.011Z</time></trkpt><trkpt lat="43.8477667" lon="12.2346083"><ele>636.3333333333334</ele><time>2026-04-12T15:29:46.012Z</time></trkpt><trkpt lat="43.8479317" lon="12.2346567"><ele>639.6666666666667</ele><time>2026-04-12T15:29:47.013Z</time></trkpt><trkpt lat="43.8481017" lon="12.2347267"><ele>643.0</ele><time>2026-04-12T15:29:48.012Z</time></trkpt><trkpt lat="43.8482567" lon="12.2347967"><ele>643.0</ele><time>2026-04-12T15:29:49.014Z</time></trkpt><trkpt lat="43.84839" lon="12.2348567"><ele>643.0</ele><time>2026-04-12T15:29:50.011Z</time></trkpt><trkpt lat="43.8485067" lon="12.234895"><ele>643.0</ele><time>2026-04-12T15:29:51.014Z</time></trkpt><trkpt lat="43.8486117" lon="12.2349017"><ele>643.0</ele><time>2026-04-12T15:29:52.014Z</time></trkpt><trkpt lat="43.8487083" lon="12.23487"><ele>645.8333333333334</ele><time>2026-04-12T15:29:53.013Z</time></trkpt><trkpt lat="43.8487867" lon="12.2348033"><ele>648.6666666666667</ele><time>2026-04-12T15:29:54.011Z</time></trkpt><trkpt lat="43.8488367" lon="12.2346983"><ele>651.5</ele><time>2026-04-12T15:29:55.011Z</time></trkpt><trkpt lat="43.8488617" lon="12.23458"><ele>654.3333333333334</ele><time>2026-04-12T15:29:56.013Z</time></trkpt><trkpt lat="43.8488883" lon="12.2344633"><ele>657.1666666666666</ele><time>2026-04-12T15:29:57.012Z</time></trkpt><trkpt lat="43.8489217" lon="12.23436"><ele>660.0</ele><time>2026-04-12T15:29:58.013Z</time></trkpt><trkpt lat="43.84897" lon="12.23429"><ele>660.0</ele><time>2026-04-12T15:29:59.011Z</time></trkpt><trkpt lat="43.849085" lon="12.23429"><ele>660.0</ele><time>2026-04-12T15:30:01.012Z</time></trkpt><trkpt lat="43.8491317" lon="12.2344233"><ele>660.0</ele><time>2026-04-12T15:30:02.014Z</time></trkpt><trkpt lat="43.8491633" lon="12.23456"><ele>660.0</ele><time>2026-04-12T15:30:03.013Z</time></trkpt><trkpt lat="43.8492" lon="12.234695"><ele>660.0</ele><time>2026-04-12T15:30:04.01Z</time></trkpt><trkpt lat="43.849265" lon="12.2347817"><ele>662.0</ele><time>2026-04-12T15:30:05.016Z</time></trkpt><trkpt lat="43.8493467" lon="12.2348567"><ele>664.0</ele><time>2026-04-12T15:30:06.013Z</time></trkpt><trkpt lat="43.8494517" lon="12.2349133"><ele>666.0</ele><time>2026-04-12T15:30:07.014Z</time></trkpt><trkpt lat="43.8495717" lon="12.2349667"><ele>668.0</ele><time>2026-04-12T15:30:08.011Z</time></trkpt><trkpt lat="43.8496867" lon="12.2350217"><ele>668.0</ele><time>2026-04-12T15:30:09.015Z</time></trkpt><trkpt lat="43.8497933" lon="12.2350567"><ele>668.0</ele><time>2026-04-12T15:30:10.014Z</time></trkpt><trkpt lat="43.849885" lon="12.23508"><ele>668.0</ele><time>2026-04-12T15:30:11.013Z</time></trkpt><trkpt lat="43.84996" lon="12.2350717"><ele>668.0</ele><time>2026-04-12T15:30:12.013Z</time></trkpt><trkpt lat="43.850015" lon="12.2350283"><ele>668.0</ele><time>2026-04-12T15:30:13.014Z</time></trkpt><trkpt lat="43.8500117" lon="12.234855"><ele>668.6666666666666</ele><time>2026-04-12T15:30:15.018Z</time></trkpt><trkpt lat="43.84997" lon="12.2347433"><ele>669.3333333333333</ele><time>2026-04-12T15:30:16.015Z</time></trkpt><trkpt lat="43.8498817" lon="12.2346533"><ele>670.0</ele><time>2026-04-12T15:30:17.012Z</time></trkpt><trkpt lat="43.8498233" lon="12.2345717"><ele>670.6666666666666</ele><time>2026-04-12T15:30:18.012Z</time></trkpt><trkpt lat="43.8497821" lon="12.234483"><ele>671.3333333333334</ele><time>2026-04-12T15:30:19.014Z</time></trkpt><trkpt lat="43.8497585" lon="12.2343966"><ele>672.0</ele><time>2026-04-12T15:30:20.013Z</time></trkpt><trkpt lat="43.849818" lon="12.2343161"><ele>672.0</ele><time>2026-04-12T15:30:22.015Z</time></trkpt><trkpt lat="43.8498991" lon="12.234352"><ele>672.0</ele><time>2026-04-12T15:30:23.012Z</time></trkpt><trkpt lat="43.8499922" lon="12.2344274"><ele>672.0</ele><time>2026-04-12T15:30:24.015Z</time></trkpt><trkpt lat="43.8500829" lon="12.2345271"><ele>672.0</ele><time>2026-04-12T15:30:25.013Z</time></trkpt><trkpt lat="43.8501834" lon="12.2346247"><ele>672.0</ele><time>2026-04-12T15:30:26.013Z</time></trkpt><trkpt lat="43.8502896" lon="12.2347065"><ele>675.75</ele><time>2026-04-12T15:30:27.013Z</time></trkpt><trkpt lat="43.8504106" lon="12.2347722"><ele>679.5</ele><time>2026-04-12T15:30:28.013Z</time></trkpt><trkpt lat="43.8505483" lon="12.2347932"><ele>683.25</ele><time>2026-04-12T15:30:29.013Z</time></trkpt><trkpt lat="43.8507028" lon="12.2347909"><ele>687.0</ele><time>2026-04-12T15:30:30.014Z</time></trkpt><trkpt lat="43.8508687" lon="12.2347928"><ele>688.3333333333334</ele><time>2026-04-12T15:30:31.014Z</time></trkpt><trkpt lat="43.8510403" lon="12.2348286"><ele>689.6666666666667</ele><time>2026-04-12T15:30:32.013Z</time></trkpt><trkpt lat="43.8512031" lon="12.2348978"><ele>691.0</ele><time>2026-04-12T15:30:33.014Z</time></trkpt><trkpt lat="43.8513534" lon="12.2349915"><ele>691.0</ele><time>2026-04-12T15:30:34.014Z</time></trkpt><trkpt lat="43.8514833" lon="12.2351016"><ele>691.0</ele><time>2026-04-12T15:30:35.012Z</time></trkpt><trkpt lat="43.8515918" lon="12.2352121"><ele>691.0</ele><time>2026-04-12T15:30:36.014Z</time></trkpt><trkpt lat="43.8516741" lon="12.2353392"><ele>691.0</ele><time>2026-04-12T15:30:37.013Z</time></trkpt><trkpt lat="43.8517345" lon="12.2355008"><ele>691.0</ele><time>2026-04-12T15:30:38.014Z</time></trkpt><trkpt lat="43.8517815" lon="12.235699"><ele>691.0</ele><time>2026-04-12T15:30:39.012Z</time></trkpt><trkpt lat="43.8518176" lon="12.2359183"><ele>691.0</ele><time>2026-04-12T15:30:40.017Z</time></trkpt><trkpt lat="43.851857" lon="12.2361164"><ele>693.75</ele><time>2026-04-12T15:30:41.014Z</time></trkpt><trkpt lat="43.8519056" lon="12.2362775"><ele>696.5</ele><time>2026-04-12T15:30:42.015Z</time></trkpt><trkpt lat="43.8519629" lon="12.2364146"><ele>699.25</ele><time>2026-04-12T15:30:43.015Z</time></trkpt><trkpt lat="43.852048" lon="12.2365365"><ele>702.0</ele><time>2026-04-12T15:30:44.013Z</time></trkpt><trkpt lat="43.8521542" lon="12.2366477"><ele>702.0</ele><time>2026-04-12T15:30:45.014Z</time></trkpt><trkpt lat="43.8522566" lon="12.2367509"><ele>702.0</ele><time>2026-04-12T15:30:46.015Z</time></trkpt><trkpt lat="43.85235" lon="12.2368476"><ele>702.0</ele><time>2026-04-12T15:30:47.013Z</time></trkpt><trkpt lat="43.8524393" lon="12.236929"><ele>702.0</ele><time>2026-04-12T15:30:48.012Z</time></trkpt><trkpt lat="43.8525389" lon="12.2369675"><ele>702.5</ele><time>2026-04-12T15:30:49.012Z</time></trkpt><trkpt lat="43.8526421" lon="12.2369448"><ele>703.0</ele><time>2026-04-12T15:30:50.015Z</time></trkpt><trkpt lat="43.8527441" lon="12.2368695"><ele>703.5</ele><time>2026-04-12T15:30:51.014Z</time></trkpt><trkpt lat="43.8528412" lon="12.2367619"><ele>704.0</ele><time>2026-04-12T15:30:52.014Z</time></trkpt><trkpt lat="43.8529263" lon="12.2366213"><ele>708.0</ele><time>2026-04-12T15:30:53.01Z</time></trkpt><trkpt lat="43.8529892" lon="12.2364508"><ele>712.0</ele><time>2026-04-12T15:30:54.012Z</time></trkpt><trkpt lat="43.8530378" lon="12.2362529"><ele>716.0</ele><time>2026-04-12T15:30:55.011Z</time></trkpt><trkpt lat="43.8530672" lon="12.2360332"><ele>716.0</ele><time>2026-04-12T15:30:56.016Z</time></trkpt><trkpt lat="43.8530901" lon="12.2358033"><ele>716.0</ele><time>2026-04-12T15:30:57.013Z</time></trkpt><trkpt lat="43.8531162" lon="12.2355727"><ele>716.0</ele><time>2026-04-12T15:30:58.013Z</time></trkpt><trkpt lat="43.8531509" lon="12.2353598"><ele>717.0</ele><time>2026-04-12T15:30:59.015Z</time></trkpt><trkpt lat="43.853196" lon="12.2351782"><ele>718.0</ele><time>2026-04-12T15:31:00.012Z</time></trkpt><trkpt lat="43.8532701" lon="12.2350243"><ele>719.0</ele><time>2026-04-12T15:31:01.012Z</time></trkpt><trkpt lat="43.8533748" lon="12.2348921"><ele>720.0</ele><time>2026-04-12T15:31:02.013Z</time></trkpt><trkpt lat="43.8534916" lon="12.2347701"><ele>723.25</ele><time>2026-04-12T15:31:03.016Z</time></trkpt><trkpt lat="43.853605" lon="12.2346463"><ele>726.5</ele><time>2026-04-12T15:31:04.012Z</time></trkpt><trkpt lat="43.8537168" lon="12.2345135"><ele>729.75</ele><time>2026-04-12T15:31:05.012Z</time></trkpt><trkpt lat="43.8538081" lon="12.2343545"><ele>733.0</ele><time>2026-04-12T15:31:06.012Z</time></trkpt><trkpt lat="43.8538743" lon="12.2341731"><ele>733.0</ele><time>2026-04-12T15:31:07.012Z</time></trkpt><trkpt lat="43.8539135" lon="12.2339802"><ele>733.0</ele><time>2026-04-12T15:31:08.014Z</time></trkpt><trkpt lat="43.8539379" lon="12.2337827"><ele>733.0</ele><time>2026-04-12T15:31:09.014Z</time></trkpt><trkpt lat="43.853951" lon="12.2335768"><ele>733.0</ele><time>2026-04-12T15:31:10.014Z</time></trkpt><trkpt lat="43.8539729" lon="12.2333655"><ele>735.3333333333334</ele><time>2026-04-12T15:31:11.012Z</time></trkpt><trkpt lat="43.8540017" lon="12.233158"><ele>737.6666666666666</ele><time>2026-04-12T15:31:12.012Z</time></trkpt><trkpt lat="43.8540249" lon="12.2329532"><ele>740.0</ele><time>2026-04-12T15:31:13.011Z</time></trkpt><trkpt lat="43.8540222" lon="12.2327454"><ele>743.0</ele><time>2026-04-12T15:31:14.013Z</time></trkpt><trkpt lat="43.8540015" lon="12.2325369"><ele>746.0</ele><time>2026-04-12T15:31:15.013Z</time></trkpt><trkpt lat="43.8539561" lon="12.2323234"><ele>749.0</ele><time>2026-04-12T15:31:16.014Z</time></trkpt><trkpt lat="43.8538976" lon="12.232104"><ele>750.6666666666666</ele><time>2026-04-12T15:31:17.012Z</time></trkpt><trkpt lat="43.853829" lon="12.2318761"><ele>752.3333333333334</ele><time>2026-04-12T15:31:18.011Z</time></trkpt><trkpt lat="43.8537391" lon="12.231644"><ele>754.0</ele><time>2026-04-12T15:31:19.013Z</time></trkpt><trkpt lat="43.8536256" lon="12.231412"><ele>756.0</ele><time>2026-04-12T15:31:20.012Z</time></trkpt><trkpt lat="43.8534935" lon="12.2311715"><ele>758.0</ele><time>2026-04-12T15:31:21.013Z</time></trkpt><trkpt lat="43.8533601" lon="12.2309134"><ele>760.0</ele><time>2026-04-12T15:31:22.011Z</time></trkpt><trkpt lat="43.8532335" lon="12.230644"><ele>758.0</ele><time>2026-04-12T15:31:23.012Z</time></trkpt><trkpt lat="43.8531184" lon="12.2303676"><ele>756.0</ele><time>2026-04-12T15:31:24.015Z</time></trkpt><trkpt lat="43.8530067" lon="12.2301006"><ele>756.0</ele><time>2026-04-12T15:31:25.013Z</time></trkpt><trkpt lat="43.8528981" lon="12.2298384"><ele>756.0</ele><time>2026-04-12T15:31:26.012Z</time></trkpt><trkpt lat="43.8527913" lon="12.2295851"><ele>756.0</ele><time>2026-04-12T15:31:27.014Z</time></trkpt><trkpt lat="43.8526877" lon="12.2293416"><ele>754.3333333333334</ele><time>2026-04-12T15:31:28.014Z</time></trkpt><trkpt lat="43.8525807" lon="12.2291208"><ele>752.6666666666667</ele><time>2026-04-12T15:31:29.01Z</time></trkpt><trkpt lat="43.8524712" lon="12.2289256"><ele>751.0</ele><time>2026-04-12T15:31:30.016Z</time></trkpt><trkpt lat="43.8523702" lon="12.2287586"><ele>756.75</ele><time>2026-04-12T15:31:31.012Z</time></trkpt><trkpt lat="43.8522812" lon="12.2286259"><ele>762.5</ele><time>2026-04-12T15:31:32.014Z</time></trkpt><trkpt lat="43.8522137" lon="12.2285009"><ele>768.25</ele><time>2026-04-12T15:31:33.013Z</time></trkpt><trkpt lat="43.8521756" lon="12.2283617"><ele>774.0</ele><time>2026-04-12T15:31:34.012Z</time></trkpt><trkpt lat="43.8521224" lon="12.2282256"><ele>777.0</ele><time>2026-04-12T15:31:35.013Z</time></trkpt><trkpt lat="43.85204" lon="12.2281069"><ele>780.0</ele><time>2026-04-12T15:31:36.012Z</time></trkpt><trkpt lat="43.8519306" lon="12.2280101"><ele>783.0</ele><time>2026-04-12T15:31:37.013Z</time></trkpt><trkpt lat="43.8518165" lon="12.2279221"><ele>786.0</ele><time>2026-04-12T15:31:38.01Z</time></trkpt><trkpt lat="43.851729" lon="12.2278264"><ele>781.6666666666666</ele><time>2026-04-12T15:31:39.014Z</time></trkpt><trkpt lat="43.8516674" lon="12.2277231"><ele>777.3333333333334</ele><time>2026-04-12T15:31:40.015Z</time></trkpt><trkpt lat="43.8516388" lon="12.2276121"><ele>773.0</ele><time>2026-04-12T15:31:41.013Z</time></trkpt><trkpt lat="43.8516256" lon="12.2275013"><ele>768.6666666666667</ele><time>2026-04-12T15:31:42.012Z</time></trkpt><trkpt lat="43.8516267" lon="12.2273992"><ele>764.3333333333334</ele><time>2026-04-12T15:31:43.015Z</time></trkpt><trkpt lat="43.8516652" lon="12.2272812"><ele>760.0</ele><time>2026-04-12T15:31:44.012Z</time></trkpt><trkpt lat="43.8517056" lon="12.2271597"><ele>760.0</ele><time>2026-04-12T15:31:45.013Z</time></trkpt><trkpt lat="43.8517494" lon="12.2270124"><ele>760.0</ele><time>2026-04-12T15:31:46.014Z</time></trkpt><trkpt lat="43.8517845" lon="12.2268619"><ele>760.0</ele><time>2026-04-12T15:31:47.012Z</time></trkpt><trkpt lat="43.8518349" lon="12.2267247"><ele>760.0</ele><time>2026-04-12T15:31:48.014Z</time></trkpt><trkpt lat="43.8519126" lon="12.226598"><ele>765.5</ele><time>2026-04-12T15:31:49.013Z</time></trkpt><trkpt lat="43.852013" lon="12.226488"><ele>771.0</ele><time>2026-04-12T15:31:50.013Z</time></trkpt><trkpt lat="43.8521133" lon="12.2263799"><ele>776.5</ele><time>2026-04-12T15:31:51.013Z</time></trkpt><trkpt lat="43.8521981" lon="12.2262696"><ele>782.0</ele><time>2026-04-12T15:31:52.011Z</time></trkpt><trkpt lat="43.8522559" lon="12.2261372"><ele>783.25</ele><time>2026-04-12T15:31:53.013Z</time></trkpt><trkpt lat="43.8522803" lon="12.2259785"><ele>784.5</ele><time>2026-04-12T15:31:54.013Z</time></trkpt><trkpt lat="43.8522665" lon="12.2257977"><ele>785.75</ele><time>2026-04-12T15:31:55.012Z</time></trkpt><trkpt lat="43.8522478" lon="12.2256021"><ele>787.0</ele><time>2026-04-12T15:31:56.015Z</time></trkpt><trkpt lat="43.8522456" lon="12.2254129"><ele>787.0</ele><time>2026-04-12T15:31:57.014Z</time></trkpt><trkpt lat="43.8522602" lon="12.2252425"><ele>787.0</ele><time>2026-04-12T15:31:58.014Z</time></trkpt><trkpt lat="43.8523004" lon="12.2251098"><ele>787.0</ele><time>2026-04-12T15:31:59.012Z</time></trkpt><trkpt lat="43.8523723" lon="12.225006"><ele>787.0</ele><time>2026-04-12T15:32:00.013Z</time></trkpt><trkpt lat="43.8524536" lon="12.2248964"><ele>787.0</ele><time>2026-04-12T15:32:01.012Z</time></trkpt><trkpt lat="43.8525477" lon="12.2247717"><ele>789.6666666666666</ele><time>2026-04-12T15:32:02.014Z</time></trkpt><trkpt lat="43.8526813" lon="12.2246613"><ele>792.3333333333333</ele><time>2026-04-12T15:32:03.014Z</time></trkpt><trkpt lat="43.8528161" lon="12.2245204"><ele>795.0</ele><time>2026-04-12T15:32:04.013Z</time></trkpt><trkpt lat="43.8529426" lon="12.2243317"><ele>795.0</ele><time>2026-04-12T15:32:05.012Z</time></trkpt><trkpt lat="43.8530701" lon="12.2241188"><ele>795.0</ele><time>2026-04-12T15:32:06.012Z</time></trkpt><trkpt lat="43.8531979" lon="12.223916"><ele>795.0</ele><time>2026-04-12T15:32:07.014Z</time></trkpt><trkpt lat="43.8533197" lon="12.2237417"><ele>794.0</ele><time>2026-04-12T15:32:08.014Z</time></trkpt><trkpt lat="43.8534366" lon="12.2236104"><ele>793.0</ele><time>2026-04-12T15:32:09.015Z</time></trkpt><trkpt lat="43.8535606" lon="12.2235319"><ele>792.0</ele><time>2026-04-12T15:32:10.014Z</time></trkpt><trkpt lat="43.8536826" lon="12.2234867"><ele>791.0</ele><time>2026-04-12T15:32:11.011Z</time></trkpt><trkpt lat="43.8538014" lon="12.2234614"><ele>791.0</ele><time>2026-04-12T15:32:12.011Z</time></trkpt><trkpt lat="43.8539063" lon="12.2234419"><ele>791.0</ele><time>2026-04-12T15:32:13.011Z</time></trkpt><trkpt lat="43.853993" lon="12.22341"><ele>791.0</ele><time>2026-04-12T15:32:14.013Z</time></trkpt><trkpt lat="43.8540643" lon="12.223347"><ele>791.0</ele><time>2026-04-12T15:32:15.015Z</time></trkpt><trkpt lat="43.85413" lon="12.2232558"><ele>791.0</ele><time>2026-04-12T15:32:16.014Z</time></trkpt><trkpt lat="43.8541916" lon="12.2231191"><ele>794.5</ele><time>2026-04-12T15:32:17.011Z</time></trkpt><trkpt lat="43.854257" lon="12.2229484"><ele>798.0</ele><time>2026-04-12T15:32:18.014Z</time></trkpt><trkpt lat="43.8543229" lon="12.2227781"><ele>801.5</ele><time>2026-04-12T15:32:19.013Z</time></trkpt><trkpt lat="43.8543793" lon="12.2226"><ele>805.0</ele><time>2026-04-12T15:32:20.013Z</time></trkpt><trkpt lat="43.8544226" lon="12.2224284"><ele>801.0</ele><time>2026-04-12T15:32:21.012Z</time></trkpt><trkpt lat="43.8544603" lon="12.2222643"><ele>797.0</ele><time>2026-04-12T15:32:22.013Z</time></trkpt><trkpt lat="43.8545136" lon="12.2221212"><ele>793.0</ele><time>2026-04-12T15:32:23.015Z</time></trkpt><trkpt lat="43.8545923" lon="12.2220097"><ele>789.0</ele><time>2026-04-12T15:32:24.013Z</time></trkpt><trkpt lat="43.8546959" lon="12.2219236"><ele>789.0</ele><time>2026-04-12T15:32:25.016Z</time></trkpt><trkpt lat="43.8548127" lon="12.2218553"><ele>789.0</ele><time>2026-04-12T15:32:26.014Z</time></trkpt><trkpt lat="43.854945" lon="12.2218109"><ele>789.0</ele><time>2026-04-12T15:32:27.011Z</time></trkpt><trkpt lat="43.8550749" lon="12.2217573"><ele>789.0</ele><time>2026-04-12T15:32:28.012Z</time></trkpt><trkpt lat="43.8551885" lon="12.221661"><ele>789.5</ele><time>2026-04-12T15:32:29.013Z</time></trkpt><trkpt lat="43.8552827" lon="12.2215186"><ele>790.0</ele><time>2026-04-12T15:32:30.014Z</time></trkpt><trkpt lat="43.8553527" lon="12.2213498"><ele>790.5</ele><time>2026-04-12T15:32:31.013Z</time></trkpt><trkpt lat="43.8554121" lon="12.2212008"><ele>791.0</ele><time>2026-04-12T15:32:32.012Z</time></trkpt><trkpt lat="43.8554473" lon="12.2210553"><ele>791.0</ele><time>2026-04-12T15:32:33.013Z</time></trkpt><trkpt lat="43.8554429" lon="12.2208837"><ele>791.0</ele><time>2026-04-12T15:32:34.011Z</time></trkpt><trkpt lat="43.8554096" lon="12.2206976"><ele>791.0</ele><time>2026-04-12T15:32:35.012Z</time></trkpt><trkpt lat="43.8553623" lon="12.2205028"><ele>791.0</ele><time>2026-04-12T15:32:36.012Z</time></trkpt><trkpt lat="43.8553066" lon="12.2203067"><ele>788.0</ele><time>2026-04-12T15:32:37.01Z</time></trkpt><trkpt lat="43.8552244" lon="12.2201121"><ele>785.0</ele><time>2026-04-12T15:32:38.014Z</time></trkpt><trkpt lat="43.8551308" lon="12.2199187"><ele>782.0</ele><time>2026-04-12T15:32:39.012Z</time></trkpt><trkpt lat="43.8550407" lon="12.2197247"><ele>782.0</ele><time>2026-04-12T15:32:40.013Z</time></trkpt><trkpt lat="43.8549582" lon="12.2195433"><ele>782.0</ele><time>2026-04-12T15:32:41.014Z</time></trkpt><trkpt lat="43.8548832" lon="12.2193705"><ele>782.0</ele><time>2026-04-12T15:32:42.013Z</time></trkpt><trkpt lat="43.8548136" lon="12.2192148"><ele>782.0</ele><time>2026-04-12T15:32:43.013Z</time></trkpt><trkpt lat="43.8547452" lon="12.2190717"><ele>780.0</ele><time>2026-04-12T15:32:44.013Z</time></trkpt><trkpt lat="43.8546878" lon="12.2189271"><ele>778.0</ele><time>2026-04-12T15:32:45.013Z</time></trkpt><trkpt lat="43.8546272" lon="12.2187786"><ele>776.0</ele><time>2026-04-12T15:32:46.013Z</time></trkpt><trkpt lat="43.8545442" lon="12.218647"><ele>774.0</ele><time>2026-04-12T15:32:47.017Z</time></trkpt><trkpt lat="43.8544479" lon="12.2185321"><ele>774.0</ele><time>2026-04-12T15:32:48.013Z</time></trkpt><trkpt lat="43.854351" lon="12.2184261"><ele>774.0</ele><time>2026-04-12T15:32:49.015Z</time></trkpt><trkpt lat="43.8542771" lon="12.2183229"><ele>774.0</ele><time>2026-04-12T15:32:50.014Z</time></trkpt><trkpt lat="43.8542288" lon="12.2182116"><ele>774.0</ele><time>2026-04-12T15:32:51.014Z</time></trkpt><trkpt lat="43.8542038" lon="12.2180909"><ele>774.0</ele><time>2026-04-12T15:32:52.016Z</time></trkpt><trkpt lat="43.8542014" lon="12.2179662"><ele>771.2</ele><time>2026-04-12T15:32:53.013Z</time></trkpt><trkpt lat="43.854224" lon="12.2178397"><ele>768.4000000000001</ele><time>2026-04-12T15:32:54.013Z</time></trkpt><trkpt lat="43.8542665" lon="12.2177226"><ele>765.6</ele><time>2026-04-12T15:32:55.012Z</time></trkpt><trkpt lat="43.8543339" lon="12.2176325"><ele>762.8</ele><time>2026-04-12T15:32:56.012Z</time></trkpt><trkpt lat="43.8544097" lon="12.2175576"><ele>760.0</ele><time>2026-04-12T15:32:57.012Z</time></trkpt><trkpt lat="43.8544938" lon="12.217494"><ele>759.75</ele><time>2026-04-12T15:32:58.011Z</time></trkpt><trkpt lat="43.8546052" lon="12.2174457"><ele>759.5</ele><time>2026-04-12T15:32:59.012Z</time></trkpt><trkpt lat="43.8547254" lon="12.2173895"><ele>759.25</ele><time>2026-04-12T15:33:00.013Z</time></trkpt><trkpt lat="43.85485" lon="12.2173318"><ele>759.0</ele><time>2026-04-12T15:33:01.012Z</time></trkpt><trkpt lat="43.8549702" lon="12.2172732"><ele>756.0</ele><time>2026-04-12T15:33:02.013Z</time></trkpt><trkpt lat="43.8550871" lon="12.2172156"><ele>753.0</ele><time>2026-04-12T15:33:03.014Z</time></trkpt><trkpt lat="43.8552028" lon="12.2171522"><ele>750.0</ele><time>2026-04-12T15:33:04.01Z</time></trkpt><trkpt lat="43.8553167" lon="12.2170928"><ele>747.0</ele><time>2026-04-12T15:33:05.01Z</time></trkpt><trkpt lat="43.8554287" lon="12.2170319"><ele>746.6</ele><time>2026-04-12T15:33:06.013Z</time></trkpt><trkpt lat="43.8555385" lon="12.2169752"><ele>746.2</ele><time>2026-04-12T15:33:07.013Z</time></trkpt><trkpt lat="43.8556332" lon="12.2169151"><ele>745.8</ele><time>2026-04-12T15:33:08.012Z</time></trkpt><trkpt lat="43.8556984" lon="12.2168352"><ele>745.4</ele><time>2026-04-12T15:33:09.015Z</time></trkpt><trkpt lat="43.855735" lon="12.216744"><ele>745.0</ele><time>2026-04-12T15:33:10.013Z</time></trkpt><trkpt lat="43.8557365" lon="12.2166492"><ele>745.0</ele><time>2026-04-12T15:33:11.013Z</time></trkpt><trkpt lat="43.8557064" lon="12.2165515"><ele>745.0</ele><time>2026-04-12T15:33:12.014Z</time></trkpt><trkpt lat="43.8556587" lon="12.2164457"><ele>745.0</ele><time>2026-04-12T15:33:13.014Z</time></trkpt><trkpt lat="43.8555994" lon="12.2163176"><ele>745.0</ele><time>2026-04-12T15:33:14.013Z</time></trkpt><trkpt lat="43.855533" lon="12.2161707"><ele>745.0</ele><time>2026-04-12T15:33:15.013Z</time></trkpt><trkpt lat="43.8554708" lon="12.216026"><ele>744.0</ele><time>2026-04-12T15:33:16.014Z</time></trkpt><trkpt lat="43.8554164" lon="12.2158851"><ele>743.0</ele><time>2026-04-12T15:33:17.014Z</time></trkpt><trkpt lat="43.8553753" lon="12.2157516"><ele>742.0</ele><time>2026-04-12T15:33:18.013Z</time></trkpt><trkpt lat="43.8553756" lon="12.2156241"><ele>741.0</ele><time>2026-04-12T15:33:19.014Z</time></trkpt><trkpt lat="43.8554317" lon="12.2155017"><ele>740.0</ele><time>2026-04-12T15:33:20.013Z</time></trkpt><trkpt lat="43.8555125" lon="12.215372"><ele>738.0</ele><time>2026-04-12T15:33:21.013Z</time></trkpt><trkpt lat="43.8555728" lon="12.2152328"><ele>736.0</ele><time>2026-04-12T15:33:22.013Z</time></trkpt><trkpt lat="43.8556262" lon="12.2151008"><ele>734.0</ele><time>2026-04-12T15:33:23.01Z</time></trkpt><trkpt lat="43.8556446" lon="12.2149732"><ele>732.0</ele><time>2026-04-12T15:33:24.017Z</time></trkpt><trkpt lat="43.8556247" lon="12.2148528"><ele>730.0</ele><time>2026-04-12T15:33:25.014Z</time></trkpt><trkpt lat="43.8555712" lon="12.2147271"><ele>728.25</ele><time>2026-04-12T15:33:26.014Z</time></trkpt><trkpt lat="43.8555227" lon="12.2145828"><ele>726.5</ele><time>2026-04-12T15:33:27.014Z</time></trkpt><trkpt lat="43.8554966" lon="12.2144232"><ele>724.75</ele><time>2026-04-12T15:33:28.013Z</time></trkpt><trkpt lat="43.8555048" lon="12.2142482"><ele>723.0</ele><time>2026-04-12T15:33:29.01Z</time></trkpt><trkpt lat="43.8555369" lon="12.2140724"><ele>723.25</ele><time>2026-04-12T15:33:30.015Z</time></trkpt><trkpt lat="43.8555772" lon="12.2138958"><ele>723.5</ele><time>2026-04-12T15:33:31.014Z</time></trkpt><trkpt lat="43.8556048" lon="12.2137126"><ele>723.75</ele><time>2026-04-12T15:33:32.013Z</time></trkpt><trkpt lat="43.8556051" lon="12.2135145"><ele>724.0</ele><time>2026-04-12T15:33:33.017Z</time></trkpt><trkpt lat="43.8555857" lon="12.2133148"><ele>723.25</ele><time>2026-04-12T15:33:34.013Z</time></trkpt><trkpt lat="43.8555546" lon="12.2131245"><ele>722.5</ele><time>2026-04-12T15:33:35.014Z</time></trkpt><trkpt lat="43.8555356" lon="12.2129555"><ele>721.75</ele><time>2026-04-12T15:33:36.011Z</time></trkpt><trkpt lat="43.8555416" lon="12.2128143"><ele>721.0</ele><time>2026-04-12T15:33:37.011Z</time></trkpt><trkpt lat="43.8555759" lon="12.2126983"><ele>721.0</ele><time>2026-04-12T15:33:38.014Z</time></trkpt><trkpt lat="43.8556418" lon="12.2126168"><ele>721.0</ele><time>2026-04-12T15:33:39.016Z</time></trkpt><trkpt lat="43.8557183" lon="12.2125719"><ele>721.0</ele><time>2026-04-12T15:33:40.015Z</time></trkpt><trkpt lat="43.8557918" lon="12.212545"><ele>721.0</ele><time>2026-04-12T15:33:41.013Z</time></trkpt><trkpt lat="43.8558692" lon="12.2125734"><ele>721.0</ele><time>2026-04-12T15:33:42.014Z</time></trkpt><trkpt lat="43.8559407" lon="12.2126611"><ele>721.0</ele><time>2026-04-12T15:33:43.012Z</time></trkpt><trkpt lat="43.8560123" lon="12.2127461"><ele>718.1999999999999</ele><time>2026-04-12T15:33:44.015Z</time></trkpt><trkpt lat="43.8561039" lon="12.212776"><ele>715.4</ele><time>2026-04-12T15:33:45.012Z</time></trkpt><trkpt lat="43.8561869" lon="12.2128012"><ele>712.6</ele><time>2026-04-12T15:33:46.014Z</time></trkpt><trkpt lat="43.8562842" lon="12.2127653"><ele>709.8</ele><time>2026-04-12T15:33:47.011Z</time></trkpt><trkpt lat="43.8563834" lon="12.212684"><ele>707.0</ele><time>2026-04-12T15:33:48.012Z</time></trkpt><trkpt lat="43.8564921" lon="12.2126067"><ele>707.0</ele><time>2026-04-12T15:33:49.013Z</time></trkpt><trkpt lat="43.8565888" lon="12.2124812"><ele>707.0</ele><time>2026-04-12T15:33:50.012Z</time></trkpt><trkpt lat="43.8566724" lon="12.2123477"><ele>707.0</ele><time>2026-04-12T15:33:51.013Z</time></trkpt><trkpt lat="43.8567278" lon="12.2121799"><ele>707.0</ele><time>2026-04-12T15:33:52.013Z</time></trkpt><trkpt lat="43.8567529" lon="12.2119932"><ele>705.8</ele><time>2026-04-12T15:33:53.013Z</time></trkpt><trkpt lat="43.8567686" lon="12.2118293"><ele>704.6</ele><time>2026-04-12T15:33:54.013Z</time></trkpt><trkpt lat="43.8567753" lon="12.2116921"><ele>703.4</ele><time>2026-04-12T15:33:55.015Z</time></trkpt><trkpt lat="43.8567711" lon="12.2115734"><ele>702.1999999999999</ele><time>2026-04-12T15:33:56.013Z</time></trkpt><trkpt lat="43.8567387" lon="12.2114644"><ele>701.0</ele><time>2026-04-12T15:33:57.013Z</time></trkpt><trkpt lat="43.8566864" lon="12.2113781"><ele>698.8333333333333</ele><time>2026-04-12T15:33:58.014Z</time></trkpt><trkpt lat="43.8566212" lon="12.2113122"><ele>696.6666666666666</ele><time>2026-04-12T15:33:59.014Z</time></trkpt><trkpt lat="43.856556" lon="12.2112581"><ele>694.5</ele><time>2026-04-12T15:34:00.014Z</time></trkpt><trkpt lat="43.8565022" lon="12.211201"><ele>692.3333333333334</ele><time>2026-04-12T15:34:01.012Z</time></trkpt><trkpt lat="43.8564579" lon="12.2110707"><ele>690.1666666666667</ele><time>2026-04-12T15:34:03.012Z</time></trkpt><trkpt lat="43.8565063" lon="12.2109452"><ele>688.0</ele><time>2026-04-12T15:34:05.01Z</time></trkpt><trkpt lat="43.8565841" lon="12.2108854"><ele>688.0</ele><time>2026-04-12T15:34:06.012Z</time></trkpt><trkpt lat="43.8566831" lon="12.2108269"><ele>688.0</ele><time>2026-04-12T15:34:07.014Z</time></trkpt><trkpt lat="43.8567527" lon="12.2107407"><ele>688.0</ele><time>2026-04-12T15:34:08.015Z</time></trkpt><trkpt lat="43.8567868" lon="12.210633"><ele>688.0</ele><time>2026-04-12T15:34:09.012Z</time></trkpt><trkpt lat="43.8567963" lon="12.2105189"><ele>688.0</ele><time>2026-04-12T15:34:10.015Z</time></trkpt><trkpt lat="43.8568108" lon="12.2104028"><ele>683.2</ele><time>2026-04-12T15:34:11.013Z</time></trkpt><trkpt lat="43.8568513" lon="12.2103028"><ele>678.4</ele><time>2026-04-12T15:34:12.012Z</time></trkpt><trkpt lat="43.856919" lon="12.2102449"><ele>673.6</ele><time>2026-04-12T15:34:13.011Z</time></trkpt><trkpt lat="43.8570004" lon="12.2102383"><ele>668.8000000000001</ele><time>2026-04-12T15:34:14.01Z</time></trkpt><trkpt lat="43.8570954" lon="12.2102967"><ele>664.0</ele><time>2026-04-12T15:34:15.015Z</time></trkpt><trkpt lat="43.8571934" lon="12.2103909"><ele>664.0</ele><time>2026-04-12T15:34:16.015Z</time></trkpt><trkpt lat="43.8572903" lon="12.2104773"><ele>664.0</ele><time>2026-04-12T15:34:17.015Z</time></trkpt><trkpt lat="43.8573994" lon="12.2105398"><ele>664.0</ele><time>2026-04-12T15:34:18.015Z</time></trkpt><trkpt lat="43.8575181" lon="12.2105742"><ele>664.0</ele><time>2026-04-12T15:34:19.014Z</time></trkpt><trkpt lat="43.8576459" lon="12.2105682"><ele>661.0</ele><time>2026-04-12T15:34:20.012Z</time></trkpt><trkpt lat="43.8577774" lon="12.2105319"><ele>658.0</ele><time>2026-04-12T15:34:21.013Z</time></trkpt><trkpt lat="43.8579003" lon="12.2104679"><ele>655.0</ele><time>2026-04-12T15:34:22.01Z</time></trkpt><trkpt lat="43.858011" lon="12.2103855"><ele>652.0</ele><time>2026-04-12T15:34:23.014Z</time></trkpt><trkpt lat="43.8581042" lon="12.2103078"><ele>652.0</ele><time>2026-04-12T15:34:24.013Z</time></trkpt><trkpt lat="43.8581748" lon="12.2102233"><ele>652.0</ele><time>2026-04-12T15:34:25.014Z</time></trkpt><trkpt lat="43.8582108" lon="12.2101089"><ele>652.0</ele><time>2026-04-12T15:34:26.015Z</time></trkpt><trkpt lat="43.8582072" lon="12.209981"><ele>652.0</ele><time>2026-04-12T15:34:27.015Z</time></trkpt><trkpt lat="43.8582174" lon="12.2098652"><ele>652.0</ele><time>2026-04-12T15:34:28.013Z</time></trkpt><trkpt lat="43.8582595" lon="12.2097819"><ele>652.0</ele><time>2026-04-12T15:34:29.013Z</time></trkpt><trkpt lat="43.8583177" lon="12.2097317"><ele>650.0</ele><time>2026-04-12T15:34:30.014Z</time></trkpt><trkpt lat="43.8584396" lon="12.2098054"><ele>648.0</ele><time>2026-04-12T15:34:32.013Z</time></trkpt><trkpt lat="43.8584962" lon="12.2099754"><ele>646.0</ele><time>2026-04-12T15:34:33.014Z</time></trkpt><trkpt lat="43.8585773" lon="12.2101116"><ele>644.0</ele><time>2026-04-12T15:34:34.013Z</time></trkpt><trkpt lat="43.858684" lon="12.210222"><ele>642.4000000000001</ele><time>2026-04-12T15:34:35.013Z</time></trkpt><trkpt lat="43.8587904" lon="12.2103211"><ele>640.8000000000001</ele><time>2026-04-12T15:34:36.016Z</time></trkpt><trkpt lat="43.8588837" lon="12.2103964"><ele>639.2</ele><time>2026-04-12T15:34:37.014Z</time></trkpt><trkpt lat="43.8589703" lon="12.2104387"><ele>637.6</ele><time>2026-04-12T15:34:38.014Z</time></trkpt><trkpt lat="43.8590572" lon="12.2104429"><ele>636.0</ele><time>2026-04-12T15:34:39.012Z</time></trkpt><trkpt lat="43.8591261" lon="12.2103728"><ele>636.0</ele><time>2026-04-12T15:34:40.01Z</time></trkpt><trkpt lat="43.8591717" lon="12.2102462"><ele>636.0</ele><time>2026-04-12T15:34:41.014Z</time></trkpt><trkpt lat="43.8592088" lon="12.2101024"><ele>636.0</ele><time>2026-04-12T15:34:42.013Z</time></trkpt><trkpt lat="43.8592652" lon="12.209974"><ele>636.0</ele><time>2026-04-12T15:34:43.012Z</time></trkpt><trkpt lat="43.8593408" lon="12.2098771"><ele>636.0</ele><time>2026-04-12T15:34:44.012Z</time></trkpt><trkpt lat="43.859428" lon="12.2098206"><ele>633.8</ele><time>2026-04-12T15:34:45.014Z</time></trkpt><trkpt lat="43.8595187" lon="12.2098248"><ele>631.6</ele><time>2026-04-12T15:34:46.015Z</time></trkpt><trkpt lat="43.8596007" lon="12.2098568"><ele>629.4</ele><time>2026-04-12T15:34:47.014Z</time></trkpt><trkpt lat="43.8596738" lon="12.2099297"><ele>627.2</ele><time>2026-04-12T15:34:48.013Z</time></trkpt><trkpt lat="43.859736" lon="12.210055"><ele>625.0</ele><time>2026-04-12T15:34:49.014Z</time></trkpt><trkpt lat="43.8598174" lon="12.2101345"><ele>625.0</ele><time>2026-04-12T15:34:50.013Z</time></trkpt><trkpt lat="43.8599169" lon="12.2101531"><ele>625.0</ele><time>2026-04-12T15:34:51.013Z</time></trkpt><trkpt lat="43.8600244" lon="12.2101172"><ele>625.0</ele><time>2026-04-12T15:34:52.013Z</time></trkpt><trkpt lat="43.8601371" lon="12.2100327"><ele>625.0</ele><time>2026-04-12T15:34:53.012Z</time></trkpt><trkpt lat="43.8602387" lon="12.2099111"><ele>622.75</ele><time>2026-04-12T15:34:54.013Z</time></trkpt><trkpt lat="43.8603171" lon="12.2097714"><ele>620.5</ele><time>2026-04-12T15:34:55.013Z</time></trkpt><trkpt lat="43.8603597" lon="12.2096074"><ele>618.25</ele><time>2026-04-12T15:34:56.013Z</time></trkpt><trkpt lat="43.8603644" lon="12.2094237"><ele>616.0</ele><time>2026-04-12T15:34:57.012Z</time></trkpt><trkpt lat="43.8603516" lon="12.2092312"><ele>616.0</ele><time>2026-04-12T15:34:58.016Z</time></trkpt><trkpt lat="43.8603294" lon="12.2090403"><ele>616.0</ele><time>2026-04-12T15:34:59.015Z</time></trkpt><trkpt lat="43.8603048" lon="12.2088485"><ele>616.0</ele><time>2026-04-12T15:35:00.01Z</time></trkpt><trkpt lat="43.8602809" lon="12.2086642"><ele>616.0</ele><time>2026-04-12T15:35:01.011Z</time></trkpt><trkpt lat="43.8602698" lon="12.2084895"><ele>615.0</ele><time>2026-04-12T15:35:02.014Z</time></trkpt><trkpt lat="43.8602719" lon="12.2083364"><ele>614.0</ele><time>2026-04-12T15:35:03.016Z</time></trkpt><trkpt lat="43.8603073" lon="12.2081971"><ele>613.0</ele><time>2026-04-12T15:35:04.011Z</time></trkpt><trkpt lat="43.8603684" lon="12.2080719"><ele>612.0</ele><time>2026-04-12T15:35:05.013Z</time></trkpt><trkpt lat="43.8604522" lon="12.2079811"><ele>611.0</ele><time>2026-04-12T15:35:06.01Z</time></trkpt><trkpt lat="43.8605567" lon="12.2079322"><ele>607.0</ele><time>2026-04-12T15:35:07.017Z</time></trkpt><trkpt lat="43.8606709" lon="12.2079314"><ele>603.0</ele><time>2026-04-12T15:35:08.014Z</time></trkpt><trkpt lat="43.8607833" lon="12.2079728"><ele>599.0</ele><time>2026-04-12T15:35:09.01Z</time></trkpt><trkpt lat="43.860894" lon="12.2080367"><ele>595.0</ele><time>2026-04-12T15:35:10.012Z</time></trkpt><trkpt lat="43.861007" lon="12.2081129"><ele>595.25</ele><time>2026-04-12T15:35:11.01Z</time></trkpt><trkpt lat="43.8611256" lon="12.2081642"><ele>595.5</ele><time>2026-04-12T15:35:12.014Z</time></trkpt><trkpt lat="43.8612498" lon="12.2081969"><ele>595.75</ele><time>2026-04-12T15:35:13.014Z</time></trkpt><trkpt lat="43.8613728" lon="12.2082164"><ele>596.0</ele><time>2026-04-12T15:35:14.013Z</time></trkpt><trkpt lat="43.8614952" lon="12.20823"><ele>596.0</ele><time>2026-04-12T15:35:15.013Z</time></trkpt><trkpt lat="43.8616248" lon="12.2082562"><ele>596.0</ele><time>2026-04-12T15:35:16.013Z</time></trkpt><trkpt lat="43.8617568" lon="12.2082759"><ele>596.0</ele><time>2026-04-12T15:35:17.011Z</time></trkpt><trkpt lat="43.8618889" lon="12.2082862"><ele>596.0</ele><time>2026-04-12T15:35:18.015Z</time></trkpt><trkpt lat="43.8620172" lon="12.2082927"><ele>593.5</ele><time>2026-04-12T15:35:19.013Z</time></trkpt><trkpt lat="43.862143" lon="12.2082985"><ele>591.0</ele><time>2026-04-12T15:35:20.014Z</time></trkpt><trkpt lat="43.8622624" lon="12.2083094"><ele>588.5</ele><time>2026-04-12T15:35:21.013Z</time></trkpt><trkpt lat="43.8623737" lon="12.2083325"><ele>586.0</ele><time>2026-04-12T15:35:22.012Z</time></trkpt><trkpt lat="43.8624758" lon="12.2083468"><ele>586.0</ele><time>2026-04-12T15:35:23.013Z</time></trkpt><trkpt lat="43.8625643" lon="12.2083528"><ele>586.0</ele><time>2026-04-12T15:35:24.013Z</time></trkpt><trkpt lat="43.8626461" lon="12.2083516"><ele>586.0</ele><time>2026-04-12T15:35:25.016Z</time></trkpt><trkpt lat="43.8627169" lon="12.2083547"><ele>586.0</ele><time>2026-04-12T15:35:26.014Z</time></trkpt><trkpt lat="43.8628152" lon="12.2083589"><ele>586.0</ele><time>2026-04-12T15:35:28.01Z</time></trkpt><trkpt lat="43.8628789" lon="12.2083061"><ele>586.0</ele><time>2026-04-12T15:35:30.013Z</time></trkpt><trkpt lat="43.8628985" lon="12.2081892"><ele>584.2</ele><time>2026-04-12T15:35:32.011Z</time></trkpt><trkpt lat="43.8628949" lon="12.2080852"><ele>582.4000000000001</ele><time>2026-04-12T15:35:35.014Z</time></trkpt><trkpt lat="43.86288" lon="12.2079717"><ele>580.6</ele><time>2026-04-12T15:39:12.012Z</time></trkpt><trkpt lat="43.862875" lon="12.2078517"><ele>578.8000000000001</ele><time>2026-04-12T15:39:13.013Z</time></trkpt><trkpt lat="43.8628817" lon="12.2077"><ele>577.0</ele><time>2026-04-12T15:39:14.013Z</time></trkpt><trkpt lat="43.8628967" lon="12.207525"><ele>577.0</ele><time>2026-04-12T15:39:15.011Z</time></trkpt><trkpt lat="43.86291" lon="12.2073417"><ele>577.0</ele><time>2026-04-12T15:39:16.013Z</time></trkpt><trkpt lat="43.862925" lon="12.207145"><ele>577.0</ele><time>2026-04-12T15:39:17.015Z</time></trkpt><trkpt lat="43.8629317" lon="12.2069467"><ele>577.0</ele><time>2026-04-12T15:39:18.01Z</time></trkpt><trkpt lat="43.862945" lon="12.2067417"><ele>575.0</ele><time>2026-04-12T15:39:19.012Z</time></trkpt><trkpt lat="43.8629533" lon="12.2065317"><ele>573.0</ele><time>2026-04-12T15:39:20.01Z</time></trkpt><trkpt lat="43.8629533" lon="12.2063183"><ele>571.0</ele><time>2026-04-12T15:39:21.012Z</time></trkpt><trkpt lat="43.8629417" lon="12.2060983"><ele>570.0</ele><time>2026-04-12T15:39:22.011Z</time></trkpt><trkpt lat="43.862915" lon="12.2058817"><ele>569.0</ele><time>2026-04-12T15:39:23.015Z</time></trkpt><trkpt lat="43.8628783" lon="12.2056833"><ele>568.0</ele><time>2026-04-12T15:39:24.009Z</time></trkpt><trkpt lat="43.8628417" lon="12.20549"><ele>567.25</ele><time>2026-04-12T15:39:25.012Z</time></trkpt><trkpt lat="43.8627933" lon="12.2053033"><ele>566.5</ele><time>2026-04-12T15:39:26.012Z</time></trkpt><trkpt lat="43.8627383" lon="12.2051267"><ele>565.75</ele><time>2026-04-12T15:39:27.013Z</time></trkpt><trkpt lat="43.862675" lon="12.2049583"><ele>565.0</ele><time>2026-04-12T15:39:28.016Z</time></trkpt><trkpt lat="43.8625933" lon="12.2047983"><ele>565.0</ele><time>2026-04-12T15:39:29.013Z</time></trkpt><trkpt lat="43.862495" lon="12.2046317"><ele>565.0</ele><time>2026-04-12T15:39:30.014Z</time></trkpt><trkpt lat="43.8624033" lon="12.2044683"><ele>565.0</ele><time>2026-04-12T15:39:31.013Z</time></trkpt><trkpt lat="43.8623133" lon="12.2043117"><ele>565.0</ele><time>2026-04-12T15:39:32.014Z</time></trkpt><trkpt lat="43.8622317" lon="12.2041533"><ele>565.0</ele><time>2026-04-12T15:39:33.013Z</time></trkpt><trkpt lat="43.8621517" lon="12.2039983"><ele>565.0</ele><time>2026-04-12T15:39:34.016Z</time></trkpt><trkpt lat="43.86209" lon="12.20384"><ele>565.0</ele><time>2026-04-12T15:39:35.013Z</time></trkpt><trkpt lat="43.8620467" lon="12.2036767"><ele>565.0</ele><time>2026-04-12T15:39:36.012Z</time></trkpt><trkpt lat="43.8620267" lon="12.203515"><ele>564.0</ele><time>2026-04-12T15:39:37.012Z</time></trkpt><trkpt lat="43.8620267" lon="12.20334"><ele>563.0</ele><time>2026-04-12T15:39:38.013Z</time></trkpt><trkpt lat="43.86205" lon="12.2031533"><ele>562.0</ele><time>2026-04-12T15:39:39.014Z</time></trkpt><trkpt lat="43.8621033" lon="12.2029767"><ele>561.0</ele><time>2026-04-12T15:39:40.016Z</time></trkpt><trkpt lat="43.8621717" lon="12.202795"><ele>558.75</ele><time>2026-04-12T15:39:41.013Z</time></trkpt><trkpt lat="43.862245" lon="12.2026133"><ele>556.5</ele><time>2026-04-12T15:39:42.013Z</time></trkpt><trkpt lat="43.862325" lon="12.20244"><ele>554.25</ele><time>2026-04-12T15:39:43.013Z</time></trkpt><trkpt lat="43.862415" lon="12.2022767"><ele>552.0</ele><time>2026-04-12T15:39:44.014Z</time></trkpt><trkpt lat="43.8625133" lon="12.2021217"><ele>548.6666666666666</ele><time>2026-04-12T15:39:45.009Z</time></trkpt><trkpt lat="43.8626233" lon="12.2019783"><ele>545.3333333333333</ele><time>2026-04-12T15:39:46.014Z</time></trkpt><trkpt lat="43.8627433" lon="12.20185"><ele>542.0</ele><time>2026-04-12T15:39:47.013Z</time></trkpt><trkpt lat="43.8628667" lon="12.201725"><ele>542.0</ele><time>2026-04-12T15:39:48.014Z</time></trkpt><trkpt lat="43.8629967" lon="12.2016117"><ele>542.0</ele><time>2026-04-12T15:39:49.013Z</time></trkpt><trkpt lat="43.863125" lon="12.2015067"><ele>542.0</ele><time>2026-04-12T15:39:50.012Z</time></trkpt><trkpt lat="43.8632517" lon="12.2013967"><ele>541.0</ele><time>2026-04-12T15:39:51.015Z</time></trkpt><trkpt lat="43.86337" lon="12.2012767"><ele>540.0</ele><time>2026-04-12T15:39:52.011Z</time></trkpt><trkpt lat="43.8634767" lon="12.2011533"><ele>539.0</ele><time>2026-04-12T15:39:53.014Z</time></trkpt><trkpt lat="43.8635633" lon="12.2010033"><ele>538.0</ele><time>2026-04-12T15:39:54.014Z</time></trkpt><trkpt lat="43.86362" lon="12.20082"><ele>535.25</ele><time>2026-04-12T15:39:55.012Z</time></trkpt><trkpt lat="43.8636483" lon="12.2006367"><ele>532.5</ele><time>2026-04-12T15:39:56.013Z</time></trkpt><trkpt lat="43.8636483" lon="12.200465"><ele>529.75</ele><time>2026-04-12T15:39:57.014Z</time></trkpt><trkpt lat="43.863615" lon="12.2003067"><ele>527.0</ele><time>2026-04-12T15:39:58.013Z</time></trkpt><trkpt lat="43.86355" lon="12.2001617"><ele>527.0</ele><time>2026-04-12T15:39:59.013Z</time></trkpt><trkpt lat="43.8634533" lon="12.200005"><ele>527.0</ele><time>2026-04-12T15:40:00.013Z</time></trkpt><trkpt lat="43.86335" lon="12.1998383"><ele>527.0</ele><time>2026-04-12T15:40:01.013Z</time></trkpt><trkpt lat="43.86324" lon="12.1996617"><ele>526.6666666666666</ele><time>2026-04-12T15:40:02.011Z</time></trkpt><trkpt lat="43.8631262" lon="12.1994845"><ele>526.3333333333334</ele><time>2026-04-12T15:40:03.012Z</time></trkpt><trkpt lat="43.8630055" lon="12.1993035"><ele>526.0</ele><time>2026-04-12T15:40:04.013Z</time></trkpt><trkpt lat="43.8628818" lon="12.1991276"><ele>524.3333333333334</ele><time>2026-04-12T15:40:05.012Z</time></trkpt><trkpt lat="43.8627554" lon="12.1989637"><ele>522.6666666666666</ele><time>2026-04-12T15:40:06.009Z</time></trkpt><trkpt lat="43.8626302" lon="12.1988211"><ele>521.0</ele><time>2026-04-12T15:40:07.013Z</time></trkpt><trkpt lat="43.8625001" lon="12.1987132"><ele>521.0</ele><time>2026-04-12T15:40:08.015Z</time></trkpt><trkpt lat="43.8623606" lon="12.1986582"><ele>521.0</ele><time>2026-04-12T15:40:09.014Z</time></trkpt><trkpt lat="43.8622168" lon="12.1986573"><ele>521.0</ele><time>2026-04-12T15:40:10.014Z</time></trkpt><trkpt lat="43.8620764" lon="12.1986827"><ele>521.0</ele><time>2026-04-12T15:40:11.014Z</time></trkpt><trkpt lat="43.8619442" lon="12.1986875"><ele>521.0</ele><time>2026-04-12T15:40:12.013Z</time></trkpt><trkpt lat="43.8618233" lon="12.1986492"><ele>521.0</ele><time>2026-04-12T15:40:13.015Z</time></trkpt><trkpt lat="43.8617182" lon="12.1985649"><ele>521.0</ele><time>2026-04-12T15:40:14.015Z</time></trkpt><trkpt lat="43.8616293" lon="12.1984376"><ele>521.0</ele><time>2026-04-12T15:40:15.017Z</time></trkpt><trkpt lat="43.8615613" lon="12.1982704"><ele>519.6666666666666</ele><time>2026-04-12T15:40:16.014Z</time></trkpt><trkpt lat="43.8615102" lon="12.1980746"><ele>518.3333333333334</ele><time>2026-04-12T15:40:17.013Z</time></trkpt><trkpt lat="43.8614599" lon="12.1978669"><ele>517.0</ele><time>2026-04-12T15:40:18.014Z</time></trkpt><trkpt lat="43.8614023" lon="12.1976597"><ele>517.0</ele><time>2026-04-12T15:40:19.015Z</time></trkpt><trkpt lat="43.8613468" lon="12.1974604"><ele>517.0</ele><time>2026-04-12T15:40:20.013Z</time></trkpt><trkpt lat="43.8613083" lon="12.1972675"><ele>517.0</ele><time>2026-04-12T15:40:21.017Z</time></trkpt><trkpt lat="43.8612916" lon="12.197082"><ele>517.0</ele><time>2026-04-12T15:40:22.015Z</time></trkpt><trkpt lat="43.8613015" lon="12.1969011"><ele>516.0</ele><time>2026-04-12T15:40:23.016Z</time></trkpt><trkpt lat="43.8613458" lon="12.1967307"><ele>515.0</ele><time>2026-04-12T15:40:24.016Z</time></trkpt><trkpt lat="43.8614287" lon="12.1965741"><ele>514.0</ele><time>2026-04-12T15:40:25.014Z</time></trkpt><trkpt lat="43.8615307" lon="12.1964214"><ele>513.0</ele><time>2026-04-12T15:40:26.014Z</time></trkpt><trkpt lat="43.8616337" lon="12.1962645"><ele>510.0</ele><time>2026-04-12T15:40:27.015Z</time></trkpt><trkpt lat="43.861741" lon="12.1961006"><ele>507.0</ele><time>2026-04-12T15:40:28.014Z</time></trkpt><trkpt lat="43.8618555" lon="12.1959473"><ele>504.0</ele><time>2026-04-12T15:40:29.015Z</time></trkpt><trkpt lat="43.8619832" lon="12.1958207"><ele>503.75</ele><time>2026-04-12T15:40:30.013Z</time></trkpt><trkpt lat="43.8621187" lon="12.1957291"><ele>503.5</ele><time>2026-04-12T15:40:31.015Z</time></trkpt><trkpt lat="43.8622509" lon="12.195656"><ele>503.25</ele><time>2026-04-12T15:40:32.015Z</time></trkpt><trkpt lat="43.8623666" lon="12.1955658"><ele>503.0</ele><time>2026-04-12T15:40:33.015Z</time></trkpt><trkpt lat="43.8624553" lon="12.195442"><ele>502.25</ele><time>2026-04-12T15:40:34.017Z</time></trkpt><trkpt lat="43.8625105" lon="12.1952897"><ele>501.5</ele><time>2026-04-12T15:40:35.014Z</time></trkpt><trkpt lat="43.8625304" lon="12.1951103"><ele>500.75</ele><time>2026-04-12T15:40:36.013Z</time></trkpt><trkpt lat="43.862524" lon="12.1949134"><ele>500.0</ele><time>2026-04-12T15:40:37.014Z</time></trkpt><trkpt lat="43.8625039" lon="12.1947055"><ele>498.66666666666663</ele><time>2026-04-12T15:40:38.015Z</time></trkpt><trkpt lat="43.8624797" lon="12.19449"><ele>497.33333333333337</ele><time>2026-04-12T15:40:39.019Z</time></trkpt><trkpt lat="43.8624556" lon="12.1942788"><ele>496.0</ele><time>2026-04-12T15:40:40.015Z</time></trkpt><trkpt lat="43.8624356" lon="12.194077"><ele>494.5</ele><time>2026-04-12T15:40:41.014Z</time></trkpt><trkpt lat="43.8624231" lon="12.1938775"><ele>493.0</ele><time>2026-04-12T15:40:42.014Z</time></trkpt><trkpt lat="43.8624279" lon="12.1936854"><ele>491.5</ele><time>2026-04-12T15:40:43.016Z</time></trkpt><trkpt lat="43.8624631" lon="12.193509"><ele>490.0</ele><time>2026-04-12T15:40:44.012Z</time></trkpt><trkpt lat="43.8625382" lon="12.193359"><ele>490.33333333333337</ele><time>2026-04-12T15:40:45.015Z</time></trkpt><trkpt lat="43.8626469" lon="12.1932349"><ele>490.66666666666663</ele><time>2026-04-12T15:40:46.013Z</time></trkpt><trkpt lat="43.8627825" lon="12.1931357"><ele>491.0</ele><time>2026-04-12T15:40:47.012Z</time></trkpt><trkpt lat="43.8629303" lon="12.1930413"><ele>489.3333333333333</ele><time>2026-04-12T15:40:48.014Z</time></trkpt><trkpt lat="43.8630767" lon="12.1929388"><ele>487.66666666666663</ele><time>2026-04-12T15:40:49.014Z</time></trkpt><trkpt lat="43.8632103" lon="12.1928117"><ele>486.0</ele><time>2026-04-12T15:40:50.013Z</time></trkpt><trkpt lat="43.8633278" lon="12.1926498"><ele>486.0</ele><time>2026-04-12T15:40:51.016Z</time></trkpt><trkpt lat="43.8634353" lon="12.1924606"><ele>486.0</ele><time>2026-04-12T15:40:52.013Z</time></trkpt><trkpt lat="43.8635381" lon="12.1922487"><ele>486.0</ele><time>2026-04-12T15:40:53.014Z</time></trkpt><trkpt lat="43.8636379" lon="12.1920227"><ele>485.66666666666663</ele><time>2026-04-12T15:40:54.015Z</time></trkpt><trkpt lat="43.8637385" lon="12.1917993"><ele>485.3333333333333</ele><time>2026-04-12T15:40:55.014Z</time></trkpt><trkpt lat="43.8638411" lon="12.1915781"><ele>485.0</ele><time>2026-04-12T15:40:56.014Z</time></trkpt><trkpt lat="43.8639389" lon="12.1913582"><ele>483.0</ele><time>2026-04-12T15:40:57.018Z</time></trkpt><trkpt lat="43.8640325" lon="12.1911378"><ele>481.0</ele><time>2026-04-12T15:40:58.014Z</time></trkpt><trkpt lat="43.8641224" lon="12.1909161"><ele>479.0</ele><time>2026-04-12T15:40:59.015Z</time></trkpt><trkpt lat="43.8642027" lon="12.1907033"><ele>478.0</ele><time>2026-04-12T15:41:00.015Z</time></trkpt><trkpt lat="43.8642681" lon="12.190505"><ele>477.0</ele><time>2026-04-12T15:41:01.013Z</time></trkpt><trkpt lat="43.8643127" lon="12.1903078"><ele>476.0</ele><time>2026-04-12T15:41:02.013Z</time></trkpt><trkpt lat="43.8643285" lon="12.190105"><ele>475.3333333333333</ele><time>2026-04-12T15:41:03.014Z</time></trkpt><trkpt lat="43.8643071" lon="12.1898942"><ele>474.66666666666663</ele><time>2026-04-12T15:41:04.016Z</time></trkpt><trkpt lat="43.8642602" lon="12.1896761"><ele>474.0</ele><time>2026-04-12T15:41:05.014Z</time></trkpt><trkpt lat="43.8642078" lon="12.1894507"><ele>474.0</ele><time>2026-04-12T15:41:06.013Z</time></trkpt><trkpt lat="43.8641522" lon="12.1892164"><ele>474.0</ele><time>2026-04-12T15:41:07.014Z</time></trkpt><trkpt lat="43.8640988" lon="12.1889776"><ele>474.0</ele><time>2026-04-12T15:41:08.014Z</time></trkpt><trkpt lat="43.8640417" lon="12.1887319"><ele>473.0</ele><time>2026-04-12T15:41:09.015Z</time></trkpt><trkpt lat="43.8639833" lon="12.1884864"><ele>472.0</ele><time>2026-04-12T15:41:10.013Z</time></trkpt><trkpt lat="43.8639281" lon="12.1882463"><ele>471.0</ele><time>2026-04-12T15:41:11.014Z</time></trkpt><trkpt lat="43.863877" lon="12.1880096"><ele>470.33333333333337</ele><time>2026-04-12T15:41:12.013Z</time></trkpt><trkpt lat="43.8638323" lon="12.1877867"><ele>469.6666666666667</ele><time>2026-04-12T15:41:13.016Z</time></trkpt><trkpt lat="43.8637909" lon="12.1875789"><ele>469.0</ele><time>2026-04-12T15:41:14.013Z</time></trkpt><trkpt lat="43.8637587" lon="12.1873915"><ele>468.2</ele><time>2026-04-12T15:41:15.014Z</time></trkpt><trkpt lat="43.8637417" lon="12.1872243"><ele>467.4</ele><time>2026-04-12T15:41:16.013Z</time></trkpt><trkpt lat="43.8637535" lon="12.1870808"><ele>466.6</ele><time>2026-04-12T15:41:17.014Z</time></trkpt><trkpt lat="43.8637965" lon="12.186954"><ele>465.8</ele><time>2026-04-12T15:41:18.017Z</time></trkpt><trkpt lat="43.8638711" lon="12.1868303"><ele>465.0</ele><time>2026-04-12T15:41:19.013Z</time></trkpt><trkpt lat="43.8639599" lon="12.1866904"><ele>465.0</ele><time>2026-04-12T15:41:20.014Z</time></trkpt><trkpt lat="43.8640481" lon="12.1865199"><ele>465.0</ele><time>2026-04-12T15:41:21.013Z</time></trkpt><trkpt lat="43.8641168" lon="12.1863093"><ele>465.0</ele><time>2026-04-12T15:41:22.013Z</time></trkpt><trkpt lat="43.8641652" lon="12.1860695"><ele>462.0</ele><time>2026-04-12T15:41:23.012Z</time></trkpt><trkpt lat="43.864205" lon="12.1858087"><ele>459.0</ele><time>2026-04-12T15:41:24.014Z</time></trkpt><trkpt lat="43.8642482" lon="12.1855451"><ele>456.0</ele><time>2026-04-12T15:41:25.012Z</time></trkpt><trkpt lat="43.8642988" lon="12.1852852"><ele>459.66666666666663</ele><time>2026-04-12T15:41:26.014Z</time></trkpt><trkpt lat="43.8643508" lon="12.1850461"><ele>463.3333333333333</ele><time>2026-04-12T15:41:27.013Z</time></trkpt><trkpt lat="43.8643968" lon="12.1848305"><ele>467.0</ele><time>2026-04-12T15:41:28.016Z</time></trkpt><trkpt lat="43.8644317" lon="12.184627"><ele>467.0</ele><time>2026-04-12T15:41:29.013Z</time></trkpt><trkpt lat="43.8644423" lon="12.1844244"><ele>467.0</ele><time>2026-04-12T15:41:30.016Z</time></trkpt><trkpt lat="43.8644192" lon="12.1842327"><ele>467.0</ele><time>2026-04-12T15:41:31.012Z</time></trkpt><trkpt lat="43.8643809" lon="12.1840534"><ele>467.0</ele><time>2026-04-12T15:41:32.014Z</time></trkpt><trkpt lat="43.864349" lon="12.183878"><ele>462.0</ele><time>2026-04-12T15:41:33.014Z</time></trkpt><trkpt lat="43.8643448" lon="12.1837067"><ele>457.0</ele><time>2026-04-12T15:41:34.014Z</time></trkpt><trkpt lat="43.8643722" lon="12.1835323"><ele>452.0</ele><time>2026-04-12T15:41:35.014Z</time></trkpt><trkpt lat="43.8644396" lon="12.1833621"><ele>447.0</ele><time>2026-04-12T15:41:36.013Z</time></trkpt><trkpt lat="43.8645378" lon="12.1832171"><ele>442.0</ele><time>2026-04-12T15:41:37.014Z</time></trkpt><trkpt lat="43.8646532" lon="12.1831131"><ele>437.0</ele><time>2026-04-12T15:41:38.014Z</time></trkpt><trkpt lat="43.8647773" lon="12.1830641"><ele>432.0</ele><time>2026-04-12T15:41:39.014Z</time></trkpt><trkpt lat="43.8649005" lon="12.1830653"><ele>427.0</ele><time>2026-04-12T15:41:40.012Z</time></trkpt><trkpt lat="43.8650271" lon="12.1831206"><ele>431.6666666666667</ele><time>2026-04-12T15:41:41.014Z</time></trkpt><trkpt lat="43.8651635" lon="12.1832098"><ele>436.33333333333337</ele><time>2026-04-12T15:41:42.012Z</time></trkpt><trkpt lat="43.8653076" lon="12.1832956"><ele>441.0</ele><time>2026-04-12T15:41:43.014Z</time></trkpt><trkpt lat="43.8654566" lon="12.1833489"><ele>441.0</ele><time>2026-04-12T15:41:44.012Z</time></trkpt><trkpt lat="43.8656081" lon="12.1833529"><ele>441.0</ele><time>2026-04-12T15:41:45.012Z</time></trkpt><trkpt lat="43.8657621" lon="12.1833041"><ele>441.0</ele><time>2026-04-12T15:41:46.011Z</time></trkpt><trkpt lat="43.8659192" lon="12.1832088"><ele>437.66666666666663</ele><time>2026-04-12T15:41:47.012Z</time></trkpt><trkpt lat="43.8660797" lon="12.1830861"><ele>434.3333333333333</ele><time>2026-04-12T15:41:48.014Z</time></trkpt><trkpt lat="43.8662415" lon="12.1829579"><ele>431.0</ele><time>2026-04-12T15:41:49.014Z</time></trkpt><trkpt lat="43.866402" lon="12.1828332"><ele>431.0</ele><time>2026-04-12T15:41:50.013Z</time></trkpt><trkpt lat="43.8665557" lon="12.1827051"><ele>431.0</ele><time>2026-04-12T15:41:51.015Z</time></trkpt><trkpt lat="43.8666949" lon="12.182562"><ele>431.0</ele><time>2026-04-12T15:41:52.012Z</time></trkpt><trkpt lat="43.8668104" lon="12.1823968"><ele>431.0</ele><time>2026-04-12T15:41:53.013Z</time></trkpt><trkpt lat="43.8668993" lon="12.1822169"><ele>431.0</ele><time>2026-04-12T15:41:54.012Z</time></trkpt><trkpt lat="43.8669584" lon="12.1820438"><ele>431.0</ele><time>2026-04-12T15:41:55.012Z</time></trkpt><trkpt lat="43.8669736" lon="12.1818673"><ele>431.0</ele><time>2026-04-12T15:41:56.013Z</time></trkpt><trkpt lat="43.8669508" lon="12.1816928"><ele>431.0</ele><time>2026-04-12T15:41:57.014Z</time></trkpt><trkpt lat="43.8668909" lon="12.1815254"><ele>431.0</ele><time>2026-04-12T15:41:58.014Z</time></trkpt><trkpt lat="43.8668167" lon="12.1813601"><ele>431.0</ele><time>2026-04-12T15:41:59.013Z</time></trkpt><trkpt lat="43.8667606" lon="12.1811944"><ele>431.0</ele><time>2026-04-12T15:42:00.014Z</time></trkpt><trkpt lat="43.8667367" lon="12.181022"><ele>426.25</ele><time>2026-04-12T15:42:01.015Z</time></trkpt><trkpt lat="43.866751" lon="12.1808393"><ele>421.5</ele><time>2026-04-12T15:42:02.012Z</time></trkpt><trkpt lat="43.8667902" lon="12.1806574"><ele>416.75</ele><time>2026-04-12T15:42:03.014Z</time></trkpt><trkpt lat="43.8668283" lon="12.1804806"><ele>412.0</ele><time>2026-04-12T15:42:04.011Z</time></trkpt><trkpt lat="43.866881" lon="12.1803281"><ele>411.20000000000005</ele><time>2026-04-12T15:42:05.012Z</time></trkpt><trkpt lat="43.8669528" lon="12.1802087"><ele>410.4</ele><time>2026-04-12T15:42:06.016Z</time></trkpt><trkpt lat="43.8670456" lon="12.1801281"><ele>409.6</ele><time>2026-04-12T15:42:07.015Z</time></trkpt><trkpt lat="43.8671543" lon="12.1800974"><ele>408.79999999999995</ele><time>2026-04-12T15:42:08.017Z</time></trkpt><trkpt lat="43.8672639" lon="12.1801205"><ele>408.0</ele><time>2026-04-12T15:42:09.013Z</time></trkpt><trkpt lat="43.8673644" lon="12.1802148"><ele>408.0</ele><time>2026-04-12T15:42:10.013Z</time></trkpt><trkpt lat="43.8674277" lon="12.1803578"><ele>408.0</ele><time>2026-04-12T15:42:11.012Z</time></trkpt><trkpt lat="43.8674681" lon="12.1805305"><ele>408.0</ele><time>2026-04-12T15:42:12.012Z</time></trkpt><trkpt lat="43.867514" lon="12.1807156"><ele>408.0</ele><time>2026-04-12T15:42:13.013Z</time></trkpt><trkpt lat="43.8675776" lon="12.1808854"><ele>407.5</ele><time>2026-04-12T15:42:14.013Z</time></trkpt><trkpt lat="43.8676583" lon="12.1810189"><ele>407.0</ele><time>2026-04-12T15:42:15.014Z</time></trkpt><trkpt lat="43.8677565" lon="12.1810931"><ele>406.5</ele><time>2026-04-12T15:42:16.016Z</time></trkpt><trkpt lat="43.8678687" lon="12.1811176"><ele>406.0</ele><time>2026-04-12T15:42:17.014Z</time></trkpt><trkpt lat="43.8679898" lon="12.1810858"><ele>406.0</ele><time>2026-04-12T15:42:18.013Z</time></trkpt><trkpt lat="43.8681223" lon="12.1809874"><ele>406.0</ele><time>2026-04-12T15:42:19.013Z</time></trkpt><trkpt lat="43.8682659" lon="12.1808814"><ele>406.0</ele><time>2026-04-12T15:42:20.012Z</time></trkpt><trkpt lat="43.86842" lon="12.1808211"><ele>407.0</ele><time>2026-04-12T15:42:21.014Z</time></trkpt><trkpt lat="43.8685741" lon="12.1807956"><ele>408.0</ele><time>2026-04-12T15:42:22.014Z</time></trkpt><trkpt lat="43.8687127" lon="12.1807578"><ele>409.0</ele><time>2026-04-12T15:42:23.014Z</time></trkpt><trkpt lat="43.8688334" lon="12.1806892"><ele>410.0</ele><time>2026-04-12T15:42:24.014Z</time></trkpt><trkpt lat="43.8689315" lon="12.180575"><ele>406.0</ele><time>2026-04-12T15:42:25.023Z</time></trkpt><trkpt lat="43.8690095" lon="12.180426"><ele>402.0</ele><time>2026-04-12T15:42:26.013Z</time></trkpt><trkpt lat="43.8690893" lon="12.1802716"><ele>398.0</ele><time>2026-04-12T15:42:27.012Z</time></trkpt><trkpt lat="43.8691826" lon="12.1801278"><ele>394.0</ele><time>2026-04-12T15:42:28.014Z</time></trkpt><trkpt lat="43.8692986" lon="12.1800211"><ele>393.75</ele><time>2026-04-12T15:42:29.013Z</time></trkpt><trkpt lat="43.8694292" lon="12.1799611"><ele>393.5</ele><time>2026-04-12T15:42:30.014Z</time></trkpt><trkpt lat="43.8695589" lon="12.1799026"><ele>393.25</ele><time>2026-04-12T15:42:31.015Z</time></trkpt><trkpt lat="43.8696744" lon="12.1798017"><ele>393.0</ele><time>2026-04-12T15:42:32.012Z</time></trkpt><trkpt lat="43.8697687" lon="12.1796567"><ele>390.5</ele><time>2026-04-12T15:42:33.015Z</time></trkpt><trkpt lat="43.8698453" lon="12.1794955"><ele>388.0</ele><time>2026-04-12T15:42:34.014Z</time></trkpt><trkpt lat="43.8699236" lon="12.1793605"><ele>385.5</ele><time>2026-04-12T15:42:35.011Z</time></trkpt><trkpt lat="43.8700126" lon="12.1792711"><ele>383.0</ele><time>2026-04-12T15:42:36.011Z</time></trkpt><trkpt lat="43.8701115" lon="12.1792212"><ele>379.5</ele><time>2026-04-12T15:42:37.013Z</time></trkpt><trkpt lat="43.8702175" lon="12.1792239"><ele>376.0</ele><time>2026-04-12T15:42:38.015Z</time></trkpt><trkpt lat="43.870323" lon="12.1792792"><ele>372.5</ele><time>2026-04-12T15:42:39.014Z</time></trkpt><trkpt lat="43.8704203" lon="12.1793995"><ele>369.0</ele><time>2026-04-12T15:42:40.012Z</time></trkpt><trkpt lat="43.870513" lon="12.1795732"><ele>369.0</ele><time>2026-04-12T15:42:41.019Z</time></trkpt><trkpt lat="43.8706046" lon="12.1797603"><ele>369.0</ele><time>2026-04-12T15:42:42.016Z</time></trkpt><trkpt lat="43.870697" lon="12.1799482"><ele>369.0</ele><time>2026-04-12T15:42:43.013Z</time></trkpt><trkpt lat="43.8707918" lon="12.1801204"><ele>369.5</ele><time>2026-04-12T15:42:44.012Z</time></trkpt><trkpt lat="43.8708939" lon="12.1802616"><ele>370.0</ele><time>2026-04-12T15:42:45.015Z</time></trkpt><trkpt lat="43.8710101" lon="12.1803591"><ele>370.5</ele><time>2026-04-12T15:42:46.012Z</time></trkpt><trkpt lat="43.8711415" lon="12.1804108"><ele>371.0</ele><time>2026-04-12T15:42:47.015Z</time></trkpt><trkpt lat="43.871273" lon="12.1804387"><ele>371.0</ele><time>2026-04-12T15:42:48.013Z</time></trkpt><trkpt lat="43.8714037" lon="12.1804382"><ele>371.0</ele><time>2026-04-12T15:42:49.012Z</time></trkpt><trkpt lat="43.8715289" lon="12.1803934"><ele>371.0</ele><time>2026-04-12T15:42:50.013Z</time></trkpt><trkpt lat="43.8716435" lon="12.1802947"><ele>371.0</ele><time>2026-04-12T15:42:51.014Z</time></trkpt><trkpt lat="43.8717488" lon="12.18015"><ele>370.5</ele><time>2026-04-12T15:42:52.014Z</time></trkpt><trkpt lat="43.8718531" lon="12.1799947"><ele>370.0</ele><time>2026-04-12T15:42:53.015Z</time></trkpt><trkpt lat="43.8719575" lon="12.1798512"><ele>369.5</ele><time>2026-04-12T15:42:54.016Z</time></trkpt><trkpt lat="43.8720491" lon="12.1797042"><ele>369.0</ele><time>2026-04-12T15:42:55.014Z</time></trkpt><trkpt lat="43.8721144" lon="12.1795259"><ele>366.6666666666667</ele><time>2026-04-12T15:42:56.01Z</time></trkpt><trkpt lat="43.8721522" lon="12.1793203"><ele>364.33333333333337</ele><time>2026-04-12T15:42:57.011Z</time></trkpt><trkpt lat="43.8721743" lon="12.1790965"><ele>362.0</ele><time>2026-04-12T15:42:58.012Z</time></trkpt><trkpt lat="43.8721915" lon="12.1788723"><ele>360.25</ele><time>2026-04-12T15:42:59.015Z</time></trkpt><trkpt lat="43.872202" lon="12.1786568"><ele>358.5</ele><time>2026-04-12T15:43:00.014Z</time></trkpt><trkpt lat="43.8721993" lon="12.1784559"><ele>356.75</ele><time>2026-04-12T15:43:01.014Z</time></trkpt><trkpt lat="43.8721812" lon="12.1782749"><ele>355.0</ele><time>2026-04-12T15:43:02.013Z</time></trkpt><trkpt lat="43.872127" lon="12.1781117"><ele>355.0</ele><time>2026-04-12T15:43:03.012Z</time></trkpt><trkpt lat="43.8720418" lon="12.1779672"><ele>355.0</ele><time>2026-04-12T15:43:04.014Z</time></trkpt><trkpt lat="43.8719338" lon="12.1778247"><ele>355.0</ele><time>2026-04-12T15:43:05.012Z</time></trkpt><trkpt lat="43.8718136" lon="12.1776772"><ele>355.0</ele><time>2026-04-12T15:43:06.017Z</time></trkpt><trkpt lat="43.8716857" lon="12.1775272"><ele>355.0</ele><time>2026-04-12T15:43:07.013Z</time></trkpt><trkpt lat="43.8715541" lon="12.1773759"><ele>355.0</ele><time>2026-04-12T15:43:08.015Z</time></trkpt><trkpt lat="43.8714259" lon="12.1772116"><ele>355.0</ele><time>2026-04-12T15:43:09.016Z</time></trkpt><trkpt lat="43.8713129" lon="12.1770305"><ele>353.25</ele><time>2026-04-12T15:43:10.013Z</time></trkpt><trkpt lat="43.8712173" lon="12.1768539"><ele>351.5</ele><time>2026-04-12T15:43:11.017Z</time></trkpt><trkpt lat="43.8711482" lon="12.1766889"><ele>349.75</ele><time>2026-04-12T15:43:12.012Z</time></trkpt><trkpt lat="43.8711106" lon="12.1765404"><ele>348.0</ele><time>2026-04-12T15:43:13.014Z</time></trkpt><trkpt lat="43.8711197" lon="12.1763981"><ele>346.2</ele><time>2026-04-12T15:43:14.013Z</time></trkpt><trkpt lat="43.8711676" lon="12.1762709"><ele>344.4</ele><time>2026-04-12T15:43:15.014Z</time></trkpt><trkpt lat="43.8712502" lon="12.1761787"><ele>342.59999999999997</ele><time>2026-04-12T15:43:16.014Z</time></trkpt><trkpt lat="43.8713527" lon="12.1761255"><ele>340.79999999999995</ele><time>2026-04-12T15:43:17.017Z</time></trkpt><trkpt lat="43.8714665" lon="12.1761159"><ele>339.0</ele><time>2026-04-12T15:43:18.015Z</time></trkpt><trkpt lat="43.8716015" lon="12.1761604"><ele>339.0</ele><time>2026-04-12T15:43:19.013Z</time></trkpt><trkpt lat="43.8717629" lon="12.1762551"><ele>339.0</ele><time>2026-04-12T15:43:20.012Z</time></trkpt><trkpt lat="43.8719416" lon="12.1763718"><ele>339.0</ele><time>2026-04-12T15:43:21.013Z</time></trkpt><trkpt lat="43.87213" lon="12.1764883"><ele>338.6666666666667</ele><time>2026-04-12T15:43:22.013Z</time></trkpt><trkpt lat="43.8723244" lon="12.1766002"><ele>338.33333333333337</ele><time>2026-04-12T15:43:23.014Z</time></trkpt><trkpt lat="43.8725198" lon="12.1767052"><ele>338.0</ele><time>2026-04-12T15:43:24.014Z</time></trkpt><trkpt lat="43.8727076" lon="12.1767963"><ele>336.0</ele><time>2026-04-12T15:43:25.015Z</time></trkpt><trkpt lat="43.8728775" lon="12.1768774"><ele>334.0</ele><time>2026-04-12T15:43:26.013Z</time></trkpt><trkpt lat="43.8730364" lon="12.1769228"><ele>332.0</ele><time>2026-04-12T15:43:27.013Z</time></trkpt><trkpt lat="43.8731833" lon="12.1769126"><ele>332.0</ele><time>2026-04-12T15:43:28.014Z</time></trkpt><trkpt lat="43.8733175" lon="12.1768328"><ele>332.0</ele><time>2026-04-12T15:43:29.014Z</time></trkpt><trkpt lat="43.8734318" lon="12.1767011"><ele>332.0</ele><time>2026-04-12T15:43:30.013Z</time></trkpt><trkpt lat="43.8735341" lon="12.1765338"><ele>329.0</ele><time>2026-04-12T15:43:31.013Z</time></trkpt><trkpt lat="43.8736326" lon="12.1763786"><ele>326.0</ele><time>2026-04-12T15:43:32.014Z</time></trkpt><trkpt lat="43.8737431" lon="12.176273"><ele>323.0</ele><time>2026-04-12T15:43:33.013Z</time></trkpt><trkpt lat="43.8738635" lon="12.1762278"><ele>320.0</ele><time>2026-04-12T15:43:34.014Z</time></trkpt><trkpt lat="43.8739808" lon="12.176247"><ele>320.0</ele><time>2026-04-12T15:43:35.013Z</time></trkpt><trkpt lat="43.8740934" lon="12.1763324"><ele>320.0</ele><time>2026-04-12T15:43:36.015Z</time></trkpt><trkpt lat="43.8742104" lon="12.176463"><ele>320.0</ele><time>2026-04-12T15:43:37.013Z</time></trkpt><trkpt lat="43.8743315" lon="12.1765952"><ele>320.0</ele><time>2026-04-12T15:43:38.015Z</time></trkpt><trkpt lat="43.8744566" lon="12.1767096"><ele>320.0</ele><time>2026-04-12T15:43:39.016Z</time></trkpt><trkpt lat="43.8745904" lon="12.17678"><ele>320.0</ele><time>2026-04-12T15:43:40.016Z</time></trkpt><trkpt lat="43.8747331" lon="12.1767985"><ele>320.0</ele><time>2026-04-12T15:43:41.013Z</time></trkpt><trkpt lat="43.8748628" lon="12.1767597"><ele>320.0</ele><time>2026-04-12T15:43:42.013Z</time></trkpt><trkpt lat="43.8749761" lon="12.1766705"><ele>320.0</ele><time>2026-04-12T15:43:43.014Z</time></trkpt><trkpt lat="43.8750688" lon="12.1765384"><ele>320.0</ele><time>2026-04-12T15:43:44.013Z</time></trkpt><trkpt lat="43.8751311" lon="12.1763686"><ele>320.0</ele><time>2026-04-12T15:43:45.014Z</time></trkpt><trkpt lat="43.8751587" lon="12.1761714"><ele>320.0</ele><time>2026-04-12T15:43:46.019Z</time></trkpt><trkpt lat="43.8751769" lon="12.1759743"><ele>315.0</ele><time>2026-04-12T15:43:47.014Z</time></trkpt><trkpt lat="43.8752096" lon="12.1757866"><ele>310.0</ele><time>2026-04-12T15:43:48.014Z</time></trkpt><trkpt lat="43.8752693" lon="12.1756178"><ele>305.0</ele><time>2026-04-12T15:43:49.014Z</time></trkpt><trkpt lat="43.8753588" lon="12.1754776"><ele>300.0</ele><time>2026-04-12T15:43:50.013Z</time></trkpt><trkpt lat="43.875477" lon="12.1753777"><ele>298.75</ele><time>2026-04-12T15:43:51.015Z</time></trkpt><trkpt lat="43.8756099" lon="12.1753233"><ele>297.5</ele><time>2026-04-12T15:43:52.016Z</time></trkpt><trkpt lat="43.8757435" lon="12.175328"><ele>296.25</ele><time>2026-04-12T15:43:53.012Z</time></trkpt><trkpt lat="43.8758681" lon="12.1753866"><ele>295.0</ele><time>2026-04-12T15:43:54.015Z</time></trkpt><trkpt lat="43.8759858" lon="12.1754792"><ele>292.25</ele><time>2026-04-12T15:43:55.013Z</time></trkpt><trkpt lat="43.8761077" lon="12.1755733"><ele>289.5</ele><time>2026-04-12T15:43:56.017Z</time></trkpt><trkpt lat="43.8762456" lon="12.1756354"><ele>286.75</ele><time>2026-04-12T15:43:57.013Z</time></trkpt><trkpt lat="43.8763835" lon="12.175646"><ele>284.0</ele><time>2026-04-12T15:43:58.013Z</time></trkpt><trkpt lat="43.8765125" lon="12.1755973"><ele>284.0</ele><time>2026-04-12T15:43:59.014Z</time></trkpt><trkpt lat="43.8766251" lon="12.1755012"><ele>284.0</ele><time>2026-04-12T15:44:00.014Z</time></trkpt><trkpt lat="43.8767111" lon="12.1753568"><ele>284.0</ele><time>2026-04-12T15:44:01.02Z</time></trkpt><trkpt lat="43.8767643" lon="12.1751833"><ele>284.0</ele><time>2026-04-12T15:44:02.015Z</time></trkpt><trkpt lat="43.8767935" lon="12.174985"><ele>283.25</ele><time>2026-04-12T15:44:03.013Z</time></trkpt><trkpt lat="43.8768127" lon="12.1747733"><ele>282.5</ele><time>2026-04-12T15:44:04.013Z</time></trkpt><trkpt lat="43.8768451" lon="12.1745743"><ele>281.75</ele><time>2026-04-12T15:44:05.013Z</time></trkpt><trkpt lat="43.8768993" lon="12.1744057"><ele>281.0</ele><time>2026-04-12T15:44:06.013Z</time></trkpt><trkpt lat="43.8769745" lon="12.1742687"><ele>281.0</ele><time>2026-04-12T15:44:07.016Z</time></trkpt><trkpt lat="43.8770744" lon="12.1741553"><ele>281.0</ele><time>2026-04-12T15:44:08.015Z</time></trkpt><trkpt lat="43.8771891" lon="12.1740483"><ele>281.0</ele><time>2026-04-12T15:44:09.014Z</time></trkpt><trkpt lat="43.8773164" lon="12.1739346"><ele>281.0</ele><time>2026-04-12T15:44:10.013Z</time></trkpt><trkpt lat="43.8774541" lon="12.1738172"><ele>280.0</ele><time>2026-04-12T15:44:11.015Z</time></trkpt><trkpt lat="43.8776023" lon="12.1736979"><ele>279.0</ele><time>2026-04-12T15:44:12.015Z</time></trkpt><trkpt lat="43.8777528" lon="12.1735655"><ele>278.0</ele><time>2026-04-12T15:44:13.014Z</time></trkpt><trkpt lat="43.8779125" lon="12.1734304"><ele>278.0</ele><time>2026-04-12T15:44:14.016Z</time></trkpt><trkpt lat="43.8780794" lon="12.1733072"><ele>278.0</ele><time>2026-04-12T15:44:15.015Z</time></trkpt><trkpt lat="43.8782514" lon="12.1732014"><ele>278.0</ele><time>2026-04-12T15:44:16.013Z</time></trkpt><trkpt lat="43.878425" lon="12.1731289"><ele>275.33333333333337</ele><time>2026-04-12T15:44:17.015Z</time></trkpt><trkpt lat="43.8785924" lon="12.1730685"><ele>272.6666666666667</ele><time>2026-04-12T15:44:18.014Z</time></trkpt><trkpt lat="43.8787449" lon="12.1729909"><ele>270.0</ele><time>2026-04-12T15:44:19.013Z</time></trkpt><trkpt lat="43.8788667" lon="12.1728688"><ele>270.0</ele><time>2026-04-12T15:44:20.016Z</time></trkpt><trkpt lat="43.8789532" lon="12.1726974"><ele>270.0</ele><time>2026-04-12T15:44:21.015Z</time></trkpt><trkpt lat="43.8790225" lon="12.1725061"><ele>270.0</ele><time>2026-04-12T15:44:22.013Z</time></trkpt><trkpt lat="43.879099" lon="12.1723173"><ele>268.0</ele><time>2026-04-12T15:44:23.015Z</time></trkpt><trkpt lat="43.8791985" lon="12.1721509"><ele>266.0</ele><time>2026-04-12T15:44:24.014Z</time></trkpt><trkpt lat="43.8793237" lon="12.1720168"><ele>264.0</ele><time>2026-04-12T15:44:25.014Z</time></trkpt><trkpt lat="43.8794659" lon="12.1719024"><ele>264.0</ele><time>2026-04-12T15:44:26.013Z</time></trkpt><trkpt lat="43.8796216" lon="12.1717993"><ele>264.0</ele><time>2026-04-12T15:44:27.016Z</time></trkpt><trkpt lat="43.8797871" lon="12.1717078"><ele>264.0</ele><time>2026-04-12T15:44:28.013Z</time></trkpt><trkpt lat="43.8799575" lon="12.1716189"><ele>260.6666666666667</ele><time>2026-04-12T15:44:29.012Z</time></trkpt><trkpt lat="43.8801335" lon="12.1715259"><ele>257.33333333333337</ele><time>2026-04-12T15:44:30.015Z</time></trkpt><trkpt lat="43.8803147" lon="12.1714344"><ele>254.0</ele><time>2026-04-12T15:44:31.014Z</time></trkpt><trkpt lat="43.8805007" lon="12.1713396"><ele>262.33333333333337</ele><time>2026-04-12T15:44:32.013Z</time></trkpt><trkpt lat="43.8806949" lon="12.1712606"><ele>270.6666666666667</ele><time>2026-04-12T15:44:33.013Z</time></trkpt><trkpt lat="43.880894" lon="12.1712147"><ele>279.0</ele><time>2026-04-12T15:44:34.016Z</time></trkpt><trkpt lat="43.8810994" lon="12.1712163"><ele>279.0</ele><time>2026-04-12T15:44:35.013Z</time></trkpt><trkpt lat="43.8813068" lon="12.1712391"><ele>279.0</ele><time>2026-04-12T15:44:36.014Z</time></trkpt><trkpt lat="43.8815178" lon="12.1712695"><ele>279.0</ele><time>2026-04-12T15:44:37.016Z</time></trkpt><trkpt lat="43.8817268" lon="12.1713014"><ele>278.0</ele><time>2026-04-12T15:44:38.013Z</time></trkpt><trkpt lat="43.8819291" lon="12.1713336"><ele>277.0</ele><time>2026-04-12T15:44:39.013Z</time></trkpt><trkpt lat="43.8821221" lon="12.1713695"><ele>276.0</ele><time>2026-04-12T15:44:40.017Z</time></trkpt><trkpt lat="43.8823039" lon="12.1714218"><ele>276.0</ele><time>2026-04-12T15:44:41.013Z</time></trkpt><trkpt lat="43.8824744" lon="12.1714932"><ele>276.0</ele><time>2026-04-12T15:44:42.016Z</time></trkpt><trkpt lat="43.8826214" lon="12.1716118"><ele>276.0</ele><time>2026-04-12T15:44:43.014Z</time></trkpt><trkpt lat="43.8827433" lon="12.1717556"><ele>268.0</ele><time>2026-04-12T15:44:44.014Z</time></trkpt><trkpt lat="43.8828524" lon="12.1718788"><ele>260.0</ele><time>2026-04-12T15:44:45.015Z</time></trkpt><trkpt lat="43.882957" lon="12.1719515"><ele>252.0</ele><time>2026-04-12T15:44:46.015Z</time></trkpt><trkpt lat="43.8830541" lon="12.1719575"><ele>244.0</ele><time>2026-04-12T15:44:47.013Z</time></trkpt><trkpt lat="43.8831452" lon="12.1719011"><ele>244.0</ele><time>2026-04-12T15:44:48.016Z</time></trkpt><trkpt lat="43.8832139" lon="12.1717894"><ele>244.0</ele><time>2026-04-12T15:44:49.015Z</time></trkpt><trkpt lat="43.883254" lon="12.1716279"><ele>244.0</ele><time>2026-04-12T15:44:50.015Z</time></trkpt><trkpt lat="43.8832748" lon="12.1714418"><ele>244.0</ele><time>2026-04-12T15:44:51.015Z</time></trkpt><trkpt lat="43.8833031" lon="12.1712546"><ele>244.0</ele><time>2026-04-12T15:44:52.012Z</time></trkpt><trkpt lat="43.8833504" lon="12.1710841"><ele>244.0</ele><time>2026-04-12T15:44:53.017Z</time></trkpt><trkpt lat="43.8834256" lon="12.1709394"><ele>244.0</ele><time>2026-04-12T15:44:54.014Z</time></trkpt><trkpt lat="43.8835254" lon="12.1708234"><ele>244.0</ele><time>2026-04-12T15:44:55.014Z</time></trkpt><trkpt lat="43.8836512" lon="12.1707531"><ele>244.0</ele><time>2026-04-12T15:44:56.014Z</time></trkpt><trkpt lat="43.8837912" lon="12.1707308"><ele>244.0</ele><time>2026-04-12T15:44:57.013Z</time></trkpt><trkpt lat="43.8839363" lon="12.1707614"><ele>244.0</ele><time>2026-04-12T15:44:58.014Z</time></trkpt><trkpt lat="43.8840786" lon="12.1708193"><ele>244.0</ele><time>2026-04-12T15:44:59.013Z</time></trkpt><trkpt lat="43.8842257" lon="12.1708984"><ele>242.66666666666666</ele><time>2026-04-12T15:45:00.014Z</time></trkpt><trkpt lat="43.884378" lon="12.170965"><ele>241.33333333333331</ele><time>2026-04-12T15:45:01.014Z</time></trkpt><trkpt lat="43.8845394" lon="12.1709805"><ele>240.0</ele><time>2026-04-12T15:45:02.013Z</time></trkpt><trkpt lat="43.8847088" lon="12.1709386"><ele>240.0</ele><time>2026-04-12T15:45:03.02Z</time></trkpt><trkpt lat="43.8848909" lon="12.1708506"><ele>240.0</ele><time>2026-04-12T15:45:04.013Z</time></trkpt><trkpt lat="43.8850671" lon="12.1707547"><ele>240.0</ele><time>2026-04-12T15:45:05.015Z</time></trkpt><trkpt lat="43.8852459" lon="12.1706523"><ele>241.0</ele><time>2026-04-12T15:45:06.013Z</time></trkpt><trkpt lat="43.8854222" lon="12.1705525"><ele>242.0</ele><time>2026-04-12T15:45:07.015Z</time></trkpt><trkpt lat="43.8855812" lon="12.1704344"><ele>243.0</ele><time>2026-04-12T15:45:08.013Z</time></trkpt><trkpt lat="43.8857226" lon="12.1702897"><ele>243.0</ele><time>2026-04-12T15:45:09.013Z</time></trkpt><trkpt lat="43.8858472" lon="12.1701266"><ele>243.0</ele><time>2026-04-12T15:45:10.015Z</time></trkpt><trkpt lat="43.8859714" lon="12.1699787"><ele>243.0</ele><time>2026-04-12T15:45:11.017Z</time></trkpt><trkpt lat="43.8861092" lon="12.1698768"><ele>241.33333333333331</ele><time>2026-04-12T15:45:12.012Z</time></trkpt><trkpt lat="43.8862649" lon="12.1698392"><ele>239.66666666666666</ele><time>2026-04-12T15:45:13.017Z</time></trkpt><trkpt lat="43.8864297" lon="12.1698639"><ele>238.0</ele><time>2026-04-12T15:45:14.013Z</time></trkpt><trkpt lat="43.8865978" lon="12.1699155"><ele>236.0</ele><time>2026-04-12T15:45:15.013Z</time></trkpt><trkpt lat="43.8867713" lon="12.1699595"><ele>234.0</ele><time>2026-04-12T15:45:16.016Z</time></trkpt><trkpt lat="43.8869451" lon="12.1699707"><ele>232.0</ele><time>2026-04-12T15:45:17.012Z</time></trkpt><trkpt lat="43.8871252" lon="12.1699536"><ele>232.0</ele><time>2026-04-12T15:45:18.017Z</time></trkpt><trkpt lat="43.8873089" lon="12.1699185"><ele>232.0</ele><time>2026-04-12T15:45:19.013Z</time></trkpt><trkpt lat="43.8874972" lon="12.1698769"><ele>232.0</ele><time>2026-04-12T15:45:20.013Z</time></trkpt><trkpt lat="43.887689" lon="12.1698369"><ele>237.33333333333331</ele><time>2026-04-12T15:45:21.014Z</time></trkpt><trkpt lat="43.8878762" lon="12.1697949"><ele>242.66666666666669</ele><time>2026-04-12T15:45:22.013Z</time></trkpt><trkpt lat="43.8880481" lon="12.1697422"><ele>248.0</ele><time>2026-04-12T15:45:23.013Z</time></trkpt><trkpt lat="43.8882035" lon="12.1696654"><ele>248.0</ele><time>2026-04-12T15:45:24.013Z</time></trkpt><trkpt lat="43.8883501" lon="12.1695436"><ele>248.0</ele><time>2026-04-12T15:45:25.013Z</time></trkpt><trkpt lat="43.888497" lon="12.169411"><ele>248.0</ele><time>2026-04-12T15:45:26.014Z</time></trkpt><trkpt lat="43.8886569" lon="12.1692975"><ele>243.0</ele><time>2026-04-12T15:45:27.013Z</time></trkpt><trkpt lat="43.8888309" lon="12.1692144"><ele>238.0</ele><time>2026-04-12T15:45:28.015Z</time></trkpt><trkpt lat="43.8890148" lon="12.1691553"><ele>233.0</ele><time>2026-04-12T15:45:29.014Z</time></trkpt><trkpt lat="43.8892022" lon="12.1691032"><ele>230.66666666666669</ele><time>2026-04-12T15:45:30.016Z</time></trkpt><trkpt lat="43.8893951" lon="12.1690562"><ele>228.33333333333331</ele><time>2026-04-12T15:45:31.013Z</time></trkpt><trkpt lat="43.8895931" lon="12.169028"><ele>226.0</ele><time>2026-04-12T15:45:32.012Z</time></trkpt><trkpt lat="43.8897882" lon="12.1690244"><ele>226.0</ele><time>2026-04-12T15:45:33.013Z</time></trkpt><trkpt lat="43.889985" lon="12.1690628"><ele>226.0</ele><time>2026-04-12T15:45:34.016Z</time></trkpt><trkpt lat="43.8901792" lon="12.1691176"><ele>226.0</ele><time>2026-04-12T15:45:35.014Z</time></trkpt><trkpt lat="43.8903743" lon="12.169172"><ele>226.0</ele><time>2026-04-12T15:45:36.012Z</time></trkpt><trkpt lat="43.8905597" lon="12.1692109"><ele>226.0</ele><time>2026-04-12T15:45:37.013Z</time></trkpt><trkpt lat="43.8907342" lon="12.1692319"><ele>226.0</ele><time>2026-04-12T15:45:38.013Z</time></trkpt><trkpt lat="43.8909042" lon="12.1692254"><ele>223.0</ele><time>2026-04-12T15:45:39.015Z</time></trkpt><trkpt lat="43.8910784" lon="12.1691713"><ele>220.0</ele><time>2026-04-12T15:45:40.013Z</time></trkpt><trkpt lat="43.8912545" lon="12.1690917"><ele>217.0</ele><time>2026-04-12T15:45:41.014Z</time></trkpt><trkpt lat="43.8914364" lon="12.1690006"><ele>224.0</ele><time>2026-04-12T15:45:42.015Z</time></trkpt><trkpt lat="43.89162" lon="12.1689173"><ele>231.0</ele><time>2026-04-12T15:45:43.013Z</time></trkpt><trkpt lat="43.8918052" lon="12.1688462"><ele>238.0</ele><time>2026-04-12T15:45:44.012Z</time></trkpt><trkpt lat="43.8919919" lon="12.1687955"><ele>238.0</ele><time>2026-04-12T15:45:45.013Z</time></trkpt><trkpt lat="43.8921766" lon="12.1687748"><ele>238.0</ele><time>2026-04-12T15:45:46.014Z</time></trkpt><trkpt lat="43.8923568" lon="12.1687922"><ele>238.0</ele><time>2026-04-12T15:45:47.012Z</time></trkpt><trkpt lat="43.8925315" lon="12.1688567"><ele>238.0</ele><time>2026-04-12T15:45:48.014Z</time></trkpt><trkpt lat="43.8927016" lon="12.16894"><ele>238.0</ele><time>2026-04-12T15:45:49.016Z</time></trkpt><trkpt lat="43.892866" lon="12.1690213"><ele>238.0</ele><time>2026-04-12T15:45:50.012Z</time></trkpt><trkpt lat="43.8930257" lon="12.1690941"><ele>233.33333333333331</ele><time>2026-04-12T15:45:51.014Z</time></trkpt><trkpt lat="43.8931748" lon="12.1691813"><ele>228.66666666666669</ele><time>2026-04-12T15:45:52.013Z</time></trkpt><trkpt lat="43.8933074" lon="12.1693002"><ele>224.0</ele><time>2026-04-12T15:45:53.013Z</time></trkpt><trkpt lat="43.8934112" lon="12.1694681"><ele>224.66666666666669</ele><time>2026-04-12T15:45:54.015Z</time></trkpt><trkpt lat="43.8935052" lon="12.1696478"><ele>225.33333333333331</ele><time>2026-04-12T15:45:55.013Z</time></trkpt><trkpt lat="43.8936068" lon="12.169808"><ele>226.0</ele><time>2026-04-12T15:45:56.013Z</time></trkpt><trkpt lat="43.8937244" lon="12.1699288"><ele>222.75</ele><time>2026-04-12T15:45:57.013Z</time></trkpt><trkpt lat="43.8938538" lon="12.1700073"><ele>219.5</ele><time>2026-04-12T15:45:58.014Z</time></trkpt><trkpt lat="43.8939816" lon="12.1700341"><ele>216.25</ele><time>2026-04-12T15:45:59.013Z</time></trkpt><trkpt lat="43.8941018" lon="12.1700032"><ele>213.0</ele><time>2026-04-12T15:46:00.014Z</time></trkpt><trkpt lat="43.8942118" lon="12.1699182"><ele>210.75</ele><time>2026-04-12T15:46:01.014Z</time></trkpt><trkpt lat="43.8943131" lon="12.1697901"><ele>208.5</ele><time>2026-04-12T15:46:02.013Z</time></trkpt><trkpt lat="43.8944025" lon="12.1696246"><ele>206.25</ele><time>2026-04-12T15:46:03.016Z</time></trkpt><trkpt lat="43.8944877" lon="12.1694427"><ele>204.0</ele><time>2026-04-12T15:46:04.014Z</time></trkpt><trkpt lat="43.8945758" lon="12.1692516"><ele>204.0</ele><time>2026-04-12T15:46:05.015Z</time></trkpt><trkpt lat="43.8946678" lon="12.1690577"><ele>204.0</ele><time>2026-04-12T15:46:06.013Z</time></trkpt><trkpt lat="43.8947613" lon="12.1688524"><ele>204.0</ele><time>2026-04-12T15:46:07.016Z</time></trkpt><trkpt lat="43.894852" lon="12.1686369"><ele>205.66666666666669</ele><time>2026-04-12T15:46:08.013Z</time></trkpt><trkpt lat="43.8949406" lon="12.1684127"><ele>207.33333333333334</ele><time>2026-04-12T15:46:09.015Z</time></trkpt><trkpt lat="43.8950111" lon="12.1681649"><ele>209.0</ele><time>2026-04-12T15:46:10.014Z</time></trkpt><trkpt lat="43.895071" lon="12.1679063"><ele>207.0</ele><time>2026-04-12T15:46:11.016Z</time></trkpt><trkpt lat="43.8951185" lon="12.1676314"><ele>205.0</ele><time>2026-04-12T15:46:12.015Z</time></trkpt><trkpt lat="43.8951821" lon="12.167361"><ele>203.0</ele><time>2026-04-12T15:46:13.012Z</time></trkpt><trkpt lat="43.89527" lon="12.1670983"><ele>203.0</ele><time>2026-04-12T15:46:14.013Z</time></trkpt><trkpt lat="43.8953667" lon="12.1668567"><ele>203.0</ele><time>2026-04-12T15:46:15.014Z</time></trkpt><trkpt lat="43.89546" lon="12.16663"><ele>203.0</ele><time>2026-04-12T15:46:16.015Z</time></trkpt><trkpt lat="43.8955583" lon="12.1664283"><ele>203.66666666666669</ele><time>2026-04-12T15:46:17.013Z</time></trkpt><trkpt lat="43.8956733" lon="12.1662617"><ele>204.33333333333331</ele><time>2026-04-12T15:46:18.012Z</time></trkpt><trkpt lat="43.89582" lon="12.1661417"><ele>205.0</ele><time>2026-04-12T15:46:19.016Z</time></trkpt><trkpt lat="43.8959833" lon="12.166065"><ele>205.0</ele><time>2026-04-12T15:46:20.014Z</time></trkpt><trkpt lat="43.8961617" lon="12.1660067"><ele>205.0</ele><time>2026-04-12T15:46:21.011Z</time></trkpt><trkpt lat="43.8963483" lon="12.1659417"><ele>205.0</ele><time>2026-04-12T15:46:22.011Z</time></trkpt><trkpt lat="43.8965417" lon="12.16586"><ele>205.0</ele><time>2026-04-12T15:46:23.012Z</time></trkpt><trkpt lat="43.896745" lon="12.1657683"><ele>205.0</ele><time>2026-04-12T15:46:24.011Z</time></trkpt><trkpt lat="43.89695" lon="12.1656717"><ele>205.0</ele><time>2026-04-12T15:46:25.012Z</time></trkpt><trkpt lat="43.8971483" lon="12.1655583"><ele>205.66666666666666</ele><time>2026-04-12T15:46:26.011Z</time></trkpt><trkpt lat="43.8973367" lon="12.165455"><ele>206.33333333333331</ele><time>2026-04-12T15:46:27.013Z</time></trkpt><trkpt lat="43.897515" lon="12.1653583"><ele>207.0</ele><time>2026-04-12T15:46:28.011Z</time></trkpt><trkpt lat="43.8976717" lon="12.1652683"><ele>205.25</ele><time>2026-04-12T15:46:29.011Z</time></trkpt><trkpt lat="43.8978" lon="12.1651583"><ele>203.5</ele><time>2026-04-12T15:46:30.013Z</time></trkpt><trkpt lat="43.8979" lon="12.1650117"><ele>201.75</ele><time>2026-04-12T15:46:31.013Z</time></trkpt><trkpt lat="43.8979633" lon="12.1648217"><ele>200.0</ele><time>2026-04-12T15:46:32.013Z</time></trkpt><trkpt lat="43.8979983" lon="12.1646083"><ele>200.0</ele><time>2026-04-12T15:46:33.018Z</time></trkpt><trkpt lat="43.8980233" lon="12.16439"><ele>200.0</ele><time>2026-04-12T15:46:34.014Z</time></trkpt><trkpt lat="43.898065" lon="12.16418"><ele>200.0</ele><time>2026-04-12T15:46:35.012Z</time></trkpt><trkpt lat="43.898135" lon="12.1639917"><ele>198.75</ele><time>2026-04-12T15:46:36.013Z</time></trkpt><trkpt lat="43.89824" lon="12.1638533"><ele>197.5</ele><time>2026-04-12T15:46:37.013Z</time></trkpt><trkpt lat="43.8983733" lon="12.1637617"><ele>196.25</ele><time>2026-04-12T15:46:38.018Z</time></trkpt><trkpt lat="43.89851" lon="12.163695"><ele>195.0</ele><time>2026-04-12T15:46:39.014Z</time></trkpt><trkpt lat="43.8986383" lon="12.16362"><ele>195.0</ele><time>2026-04-12T15:46:40.013Z</time></trkpt><trkpt lat="43.8987417" lon="12.1635017"><ele>195.0</ele><time>2026-04-12T15:46:41.014Z</time></trkpt><trkpt lat="43.8988167" lon="12.1633333"><ele>195.0</ele><time>2026-04-12T15:46:42.013Z</time></trkpt><trkpt lat="43.8988583" lon="12.1631267"><ele>195.0</ele><time>2026-04-12T15:46:43.015Z</time></trkpt><trkpt lat="43.8988917" lon="12.1628983"><ele>195.33333333333331</ele><time>2026-04-12T15:46:44.011Z</time></trkpt><trkpt lat="43.8989333" lon="12.1626667"><ele>195.66666666666666</ele><time>2026-04-12T15:46:45.013Z</time></trkpt><trkpt lat="43.8989933" lon="12.1624317"><ele>196.0</ele><time>2026-04-12T15:46:46.012Z</time></trkpt><trkpt lat="43.899075" lon="12.1621967"><ele>195.0</ele><time>2026-04-12T15:46:47.012Z</time></trkpt><trkpt lat="43.89918" lon="12.1619683"><ele>194.0</ele><time>2026-04-12T15:46:48.014Z</time></trkpt><trkpt lat="43.8993067" lon="12.1617533"><ele>193.0</ele><time>2026-04-12T15:46:49.014Z</time></trkpt><trkpt lat="43.899455" lon="12.1615517"><ele>194.66666666666666</ele><time>2026-04-12T15:46:50.018Z</time></trkpt><trkpt lat="43.8996133" lon="12.161355"><ele>196.33333333333331</ele><time>2026-04-12T15:46:51.014Z</time></trkpt><trkpt lat="43.89978" lon="12.1611617"><ele>198.0</ele><time>2026-04-12T15:46:52.014Z</time></trkpt><trkpt lat="43.8999567" lon="12.1609717"><ele>201.0</ele><time>2026-04-12T15:46:53.013Z</time></trkpt><trkpt lat="43.90014" lon="12.160785"><ele>204.0</ele><time>2026-04-12T15:46:54.015Z</time></trkpt><trkpt lat="43.9003267" lon="12.1605983"><ele>204.0</ele><time>2026-04-12T15:46:55.015Z</time></trkpt><trkpt lat="43.9005283" lon="12.1604383"><ele>204.0</ele><time>2026-04-12T15:46:56.015Z</time></trkpt><trkpt lat="43.9007317" lon="12.1602867"><ele>198.5</ele><time>2026-04-12T15:46:57.015Z</time></trkpt><trkpt lat="43.90094" lon="12.160135"><ele>193.0</ele><time>2026-04-12T15:46:58.016Z</time></trkpt><trkpt lat="43.9011467" lon="12.159975"><ele>202.0</ele><time>2026-04-12T15:46:59.013Z</time></trkpt><trkpt lat="43.901355" lon="12.1598167"><ele>211.0</ele><time>2026-04-12T15:47:00.014Z</time></trkpt><trkpt lat="43.9015633" lon="12.1596633"><ele>204.0</ele><time>2026-04-12T15:47:01.012Z</time></trkpt><trkpt lat="43.9017733" lon="12.1595217"><ele>197.0</ele><time>2026-04-12T15:47:02.013Z</time></trkpt><trkpt lat="43.9019833" lon="12.1593783"><ele>197.0</ele><time>2026-04-12T15:47:03.014Z</time></trkpt><trkpt lat="43.9021933" lon="12.1592267"><ele>197.0</ele><time>2026-04-12T15:47:04.012Z</time></trkpt><trkpt lat="43.9024083" lon="12.1590767"><ele>198.0</ele><time>2026-04-12T15:47:05.014Z</time></trkpt><trkpt lat="43.902625" lon="12.158915"><ele>199.0</ele><time>2026-04-12T15:47:06.016Z</time></trkpt><trkpt lat="43.9028433" lon="12.1587533"><ele>199.0</ele><time>2026-04-12T15:47:07.012Z</time></trkpt><trkpt lat="43.90306" lon="12.15859"><ele>199.0</ele><time>2026-04-12T15:47:08.013Z</time></trkpt><trkpt lat="43.9032667" lon="12.1584217"><ele>196.33333333333331</ele><time>2026-04-12T15:47:09.013Z</time></trkpt><trkpt lat="43.903455" lon="12.158255"><ele>193.66666666666666</ele><time>2026-04-12T15:47:10.014Z</time></trkpt><trkpt lat="43.903625" lon="12.15808"><ele>191.0</ele><time>2026-04-12T15:47:11.013Z</time></trkpt><trkpt lat="43.903795" lon="12.15793"><ele>193.33333333333331</ele><time>2026-04-12T15:47:12.012Z</time></trkpt><trkpt lat="43.9039667" lon="12.1578083"><ele>195.66666666666666</ele><time>2026-04-12T15:47:13.018Z</time></trkpt><trkpt lat="43.90414" lon="12.15771"><ele>198.0</ele><time>2026-04-12T15:47:14.013Z</time></trkpt><trkpt lat="43.9043067" lon="12.15763"><ele>198.0</ele><time>2026-04-12T15:47:15.015Z</time></trkpt><trkpt lat="43.9044683" lon="12.1575883"><ele>198.0</ele><time>2026-04-12T15:47:16.014Z</time></trkpt><trkpt lat="43.9046217" lon="12.15757"><ele>198.0</ele><time>2026-04-12T15:47:17.014Z</time></trkpt><trkpt lat="43.90477" lon="12.1575533"><ele>198.0</ele><time>2026-04-12T15:47:18.012Z</time></trkpt><trkpt lat="43.9049183" lon="12.1574933"><ele>198.0</ele><time>2026-04-12T15:47:19.013Z</time></trkpt><trkpt lat="43.90506" lon="12.1573983"><ele>198.0</ele><time>2026-04-12T15:47:20.014Z</time></trkpt><trkpt lat="43.9051883" lon="12.1572867"><ele>196.5</ele><time>2026-04-12T15:47:21.013Z</time></trkpt><trkpt lat="43.9052917" lon="12.1571433"><ele>195.0</ele><time>2026-04-12T15:47:22.014Z</time></trkpt><trkpt lat="43.9053683" lon="12.1569732"><ele>193.5</ele><time>2026-04-12T15:47:23.014Z</time></trkpt><trkpt lat="43.9054144" lon="12.1567807"><ele>192.0</ele><time>2026-04-12T15:47:24.014Z</time></trkpt><trkpt lat="43.9054456" lon="12.1565769"><ele>192.75</ele><time>2026-04-12T15:47:25.014Z</time></trkpt><trkpt lat="43.9054872" lon="12.1563827"><ele>193.5</ele><time>2026-04-12T15:47:26.017Z</time></trkpt><trkpt lat="43.9055505" lon="12.1562114"><ele>194.25</ele><time>2026-04-12T15:47:27.014Z</time></trkpt><trkpt lat="43.9056414" lon="12.1560734"><ele>195.0</ele><time>2026-04-12T15:47:28.013Z</time></trkpt><trkpt lat="43.9057497" lon="12.1559845"><ele>195.0</ele><time>2026-04-12T15:47:29.014Z</time></trkpt><trkpt lat="43.9058703" lon="12.1559609"><ele>195.0</ele><time>2026-04-12T15:47:30.013Z</time></trkpt><trkpt lat="43.905997" lon="12.156009"><ele>195.0</ele><time>2026-04-12T15:47:31.014Z</time></trkpt><trkpt lat="43.9061226" lon="12.156115"><ele>195.0</ele><time>2026-04-12T15:47:32.016Z</time></trkpt><trkpt lat="43.9062446" lon="12.1562391"><ele>195.0</ele><time>2026-04-12T15:47:33.014Z</time></trkpt><trkpt lat="43.9063731" lon="12.1563414"><ele>195.0</ele><time>2026-04-12T15:47:34.014Z</time></trkpt><trkpt lat="43.9065195" lon="12.1563965"><ele>195.0</ele><time>2026-04-12T15:47:35.017Z</time></trkpt><trkpt lat="43.9066753" lon="12.1564201"><ele>195.33333333333331</ele><time>2026-04-12T15:47:36.013Z</time></trkpt><trkpt lat="43.9068348" lon="12.1564541"><ele>195.66666666666666</ele><time>2026-04-12T15:47:37.013Z</time></trkpt><trkpt lat="43.9069843" lon="12.1565315"><ele>196.0</ele><time>2026-04-12T15:47:38.013Z</time></trkpt><trkpt lat="43.9071101" lon="12.1566574"><ele>194.0</ele><time>2026-04-12T15:47:39.013Z</time></trkpt><trkpt lat="43.9072121" lon="12.1568187"><ele>192.0</ele><time>2026-04-12T15:47:40.014Z</time></trkpt><trkpt lat="43.9073074" lon="12.1569837"><ele>190.0</ele><time>2026-04-12T15:47:41.014Z</time></trkpt><trkpt lat="43.9074118" lon="12.1571285"><ele>190.0</ele><time>2026-04-12T15:47:42.014Z</time></trkpt><trkpt lat="43.9075328" lon="12.1572345"><ele>190.0</ele><time>2026-04-12T15:47:43.012Z</time></trkpt><trkpt lat="43.9076657" lon="12.1572981"><ele>190.0</ele><time>2026-04-12T15:47:44.013Z</time></trkpt><trkpt lat="43.9078083" lon="12.1573209"><ele>190.0</ele><time>2026-04-12T15:47:45.012Z</time></trkpt><trkpt lat="43.9079619" lon="12.1573079"><ele>190.0</ele><time>2026-04-12T15:47:46.013Z</time></trkpt><trkpt lat="43.9081193" lon="12.1572743"><ele>190.0</ele><time>2026-04-12T15:47:47.012Z</time></trkpt><trkpt lat="43.9082748" lon="12.1572278"><ele>190.0</ele><time>2026-04-12T15:47:48.009Z</time></trkpt><trkpt lat="43.9084104" lon="12.1571552"><ele>189.25</ele><time>2026-04-12T15:47:49.016Z</time></trkpt><trkpt lat="43.9085252" lon="12.1570371"><ele>188.5</ele><time>2026-04-12T15:47:50.011Z</time></trkpt><trkpt lat="43.9086152" lon="12.156874"><ele>187.75</ele><time>2026-04-12T15:47:51.014Z</time></trkpt><trkpt lat="43.9086926" lon="12.1566882"><ele>187.0</ele><time>2026-04-12T15:47:52.013Z</time></trkpt><trkpt lat="43.9087822" lon="12.1565114"><ele>191.33333333333334</ele><time>2026-04-12T15:47:53.011Z</time></trkpt><trkpt lat="43.9089027" lon="12.1563679"><ele>195.66666666666669</ele><time>2026-04-12T15:47:54.015Z</time></trkpt><trkpt lat="43.9090471" lon="12.1562655"><ele>200.0</ele><time>2026-04-12T15:47:55.014Z</time></trkpt><trkpt lat="43.9092064" lon="12.1561938"><ele>198.0</ele><time>2026-04-12T15:47:56.012Z</time></trkpt><trkpt lat="43.9093773" lon="12.1561432"><ele>196.0</ele><time>2026-04-12T15:47:57.018Z</time></trkpt><trkpt lat="43.9095546" lon="12.156115"><ele>194.0</ele><time>2026-04-12T15:47:58.016Z</time></trkpt><trkpt lat="43.9097431" lon="12.1561084"><ele>194.0</ele><time>2026-04-12T15:47:59.012Z</time></trkpt><trkpt lat="43.9099368" lon="12.156127"><ele>194.0</ele><time>2026-04-12T15:48:00.017Z</time></trkpt><trkpt lat="43.9101307" lon="12.1561834"><ele>194.0</ele><time>2026-04-12T15:48:01.013Z</time></trkpt><trkpt lat="43.9103159" lon="12.1562803"><ele>192.66666666666669</ele><time>2026-04-12T15:48:02.018Z</time></trkpt><trkpt lat="43.9104856" lon="12.1564089"><ele>191.33333333333334</ele><time>2026-04-12T15:48:03.014Z</time></trkpt><trkpt lat="43.9106417" lon="12.1565529"><ele>190.0</ele><time>2026-04-12T15:48:04.013Z</time></trkpt><trkpt lat="43.910786" lon="12.1566901"><ele>190.0</ele><time>2026-04-12T15:48:05.012Z</time></trkpt><trkpt lat="43.910932" lon="12.1568022"><ele>190.0</ele><time>2026-04-12T15:48:06.012Z</time></trkpt><trkpt lat="43.9110869" lon="12.1568831"><ele>190.0</ele><time>2026-04-12T15:48:07.013Z</time></trkpt><trkpt lat="43.9112531" lon="12.1569274"><ele>190.0</ele><time>2026-04-12T15:48:08.014Z</time></trkpt><trkpt lat="43.9114258" lon="12.1569338"><ele>190.0</ele><time>2026-04-12T15:48:09.013Z</time></trkpt><trkpt lat="43.9116027" lon="12.1568991"><ele>190.0</ele><time>2026-04-12T15:48:10.012Z</time></trkpt><trkpt lat="43.9117773" lon="12.1568207"><ele>189.0</ele><time>2026-04-12T15:48:11.014Z</time></trkpt><trkpt lat="43.9119453" lon="12.1567099"><ele>188.0</ele><time>2026-04-12T15:48:12.014Z</time></trkpt><trkpt lat="43.9121121" lon="12.1565856"><ele>187.0</ele><time>2026-04-12T15:48:13.014Z</time></trkpt><trkpt lat="43.9122879" lon="12.1564606"><ele>191.33333333333334</ele><time>2026-04-12T15:48:14.014Z</time></trkpt><trkpt lat="43.9124719" lon="12.1563622"><ele>195.66666666666669</ele><time>2026-04-12T15:48:15.012Z</time></trkpt><trkpt lat="43.9126651" lon="12.156291"><ele>200.0</ele><time>2026-04-12T15:48:16.016Z</time></trkpt><trkpt lat="43.9128624" lon="12.1562402"><ele>200.33333333333334</ele><time>2026-04-12T15:48:17.014Z</time></trkpt><trkpt lat="43.9130632" lon="12.1562069"><ele>200.66666666666669</ele><time>2026-04-12T15:48:18.014Z</time></trkpt><trkpt lat="43.9132652" lon="12.1561787"><ele>201.0</ele><time>2026-04-12T15:48:19.015Z</time></trkpt><trkpt lat="43.9134667" lon="12.1561505"><ele>201.0</ele><time>2026-04-12T15:48:20.012Z</time></trkpt><trkpt lat="43.913662" lon="12.1561167"><ele>201.0</ele><time>2026-04-12T15:48:21.013Z</time></trkpt><trkpt lat="43.9138536" lon="12.1560828"><ele>201.0</ele><time>2026-04-12T15:48:22.014Z</time></trkpt><trkpt lat="43.914039" lon="12.1560366"><ele>201.0</ele><time>2026-04-12T15:48:23.015Z</time></trkpt><trkpt lat="43.9142165" lon="12.1559615"><ele>201.0</ele><time>2026-04-12T15:48:24.016Z</time></trkpt><trkpt lat="43.914385" lon="12.1558439"><ele>201.0</ele><time>2026-04-12T15:48:25.016Z</time></trkpt><trkpt lat="43.9145495" lon="12.1557118"><ele>204.33333333333331</ele><time>2026-04-12T15:48:26.015Z</time></trkpt><trkpt lat="43.9147125" lon="12.1555895"><ele>207.66666666666666</ele><time>2026-04-12T15:48:27.013Z</time></trkpt><trkpt lat="43.9148802" lon="12.1555035"><ele>211.0</ele><time>2026-04-12T15:48:28.013Z</time></trkpt><trkpt lat="43.9150472" lon="12.1554696"><ele>212.66666666666666</ele><time>2026-04-12T15:48:29.015Z</time></trkpt><trkpt lat="43.91521" lon="12.1554884"><ele>214.33333333333331</ele><time>2026-04-12T15:48:30.014Z</time></trkpt><trkpt lat="43.9153643" lon="12.1555448"><ele>216.0</ele><time>2026-04-12T15:48:31.015Z</time></trkpt><trkpt lat="43.9155109" lon="12.1556114"><ele>216.0</ele><time>2026-04-12T15:48:32.016Z</time></trkpt><trkpt lat="43.9156524" lon="12.1556705"><ele>216.0</ele><time>2026-04-12T15:48:33.012Z</time></trkpt><trkpt lat="43.9157932" lon="12.1557014"><ele>216.0</ele><time>2026-04-12T15:48:34.012Z</time></trkpt><trkpt lat="43.915942" lon="12.1556948"><ele>216.0</ele><time>2026-04-12T15:48:35.013Z</time></trkpt><trkpt lat="43.9161034" lon="12.1556419"><ele>217.0</ele><time>2026-04-12T15:48:36.012Z</time></trkpt><trkpt lat="43.9162674" lon="12.1555616"><ele>218.0</ele><time>2026-04-12T15:48:37.014Z</time></trkpt><trkpt lat="43.9164353" lon="12.1554862"><ele>219.0</ele><time>2026-04-12T15:48:38.011Z</time></trkpt><trkpt lat="43.9166091" lon="12.1554334"><ele>219.0</ele><time>2026-04-12T15:48:39.013Z</time></trkpt><trkpt lat="43.9167862" lon="12.1554066"><ele>219.0</ele><time>2026-04-12T15:48:40.012Z</time></trkpt><trkpt lat="43.9169657" lon="12.1554077"><ele>219.0</ele><time>2026-04-12T15:48:41.013Z</time></trkpt><trkpt lat="43.9171417" lon="12.1554269"><ele>219.0</ele><time>2026-04-12T15:48:42.013Z</time></trkpt><trkpt lat="43.9173055" lon="12.1554487"><ele>219.0</ele><time>2026-04-12T15:48:43.014Z</time></trkpt><trkpt lat="43.917452" lon="12.1554664"><ele>219.0</ele><time>2026-04-12T15:48:44.013Z</time></trkpt><trkpt lat="43.9175748" lon="12.1554767"><ele>219.0</ele><time>2026-04-12T15:48:45.018Z</time></trkpt><trkpt lat="43.9176746" lon="12.1554792"><ele>217.39999999999998</ele><time>2026-04-12T15:48:46.014Z</time></trkpt><trkpt lat="43.9177637" lon="12.1554711"><ele>215.79999999999998</ele><time>2026-04-12T15:48:47.013Z</time></trkpt><trkpt lat="43.9178429" lon="12.1554307"><ele>214.2</ele><time>2026-04-12T15:48:48.013Z</time></trkpt><trkpt lat="43.9179142" lon="12.1553613"><ele>212.60000000000002</ele><time>2026-04-12T15:48:49.012Z</time></trkpt><trkpt lat="43.9179725" lon="12.1552619"><ele>211.0</ele><time>2026-04-12T15:48:50.01Z</time></trkpt><trkpt lat="43.9180061" lon="12.1551242"><ele>211.0</ele><time>2026-04-12T15:48:51.014Z</time></trkpt><trkpt lat="43.9180099" lon="12.1549466"><ele>211.0</ele><time>2026-04-12T15:48:52.012Z</time></trkpt><trkpt lat="43.9179919" lon="12.1547449"><ele>211.0</ele><time>2026-04-12T15:48:53.011Z</time></trkpt><trkpt lat="43.9179474" lon="12.1545252"><ele>211.0</ele><time>2026-04-12T15:48:54.012Z</time></trkpt><trkpt lat="43.9178827" lon="12.1543015"><ele>205.66666666666666</ele><time>2026-04-12T15:48:55.012Z</time></trkpt><trkpt lat="43.9178053" lon="12.1540895"><ele>200.33333333333331</ele><time>2026-04-12T15:48:56.019Z</time></trkpt><trkpt lat="43.9177119" lon="12.1539017"><ele>195.0</ele><time>2026-04-12T15:48:57.013Z</time></trkpt><trkpt lat="43.9175989" lon="12.1537384"><ele>198.33333333333331</ele><time>2026-04-12T15:48:58.013Z</time></trkpt><trkpt lat="43.9174758" lon="12.1535945"><ele>201.66666666666666</ele><time>2026-04-12T15:48:59.01Z</time></trkpt><trkpt lat="43.9173498" lon="12.1534416"><ele>205.0</ele><time>2026-04-12T15:49:00.013Z</time></trkpt><trkpt lat="43.9172382" lon="12.1532619"><ele>201.66666666666666</ele><time>2026-04-12T15:49:01.012Z</time></trkpt><trkpt lat="43.9171494" lon="12.1530556"><ele>198.33333333333331</ele><time>2026-04-12T15:49:02.01Z</time></trkpt><trkpt lat="43.9170814" lon="12.1528253"><ele>195.0</ele><time>2026-04-12T15:49:03.011Z</time></trkpt><trkpt lat="43.9170335" lon="12.1525781"><ele>194.33333333333331</ele><time>2026-04-12T15:49:04.011Z</time></trkpt><trkpt lat="43.9170045" lon="12.1523197"><ele>193.66666666666666</ele><time>2026-04-12T15:49:05.012Z</time></trkpt><trkpt lat="43.9169918" lon="12.1520586"><ele>193.0</ele><time>2026-04-12T15:49:06.011Z</time></trkpt><trkpt lat="43.9169961" lon="12.1518051"><ele>193.0</ele><time>2026-04-12T15:49:07.014Z</time></trkpt><trkpt lat="43.9170176" lon="12.1515588"><ele>193.0</ele><time>2026-04-12T15:49:08.011Z</time></trkpt><trkpt lat="43.9170569" lon="12.1513254"><ele>193.0</ele><time>2026-04-12T15:49:09.012Z</time></trkpt><trkpt lat="43.9171065" lon="12.1511179"><ele>192.5</ele><time>2026-04-12T15:49:10.011Z</time></trkpt><trkpt lat="43.9171557" lon="12.1509263"><ele>192.0</ele><time>2026-04-12T15:49:11.011Z</time></trkpt><trkpt lat="43.9171939" lon="12.1507382"><ele>191.5</ele><time>2026-04-12T15:49:12.009Z</time></trkpt><trkpt lat="43.9172138" lon="12.1505527"><ele>191.0</ele><time>2026-04-12T15:49:13.012Z</time></trkpt><trkpt lat="43.9172137" lon="12.1503671"><ele>189.0</ele><time>2026-04-12T15:49:14.019Z</time></trkpt><trkpt lat="43.9171848" lon="12.1501862"><ele>187.0</ele><time>2026-04-12T15:49:15.013Z</time></trkpt><trkpt lat="43.9171193" lon="12.1500189"><ele>185.0</ele><time>2026-04-12T15:49:16.012Z</time></trkpt><trkpt lat="43.91702" lon="12.1498677"><ele>183.0</ele><time>2026-04-12T15:49:17.012Z</time></trkpt><trkpt lat="43.9168938" lon="12.1497308"><ele>184.0</ele><time>2026-04-12T15:49:18.013Z</time></trkpt><trkpt lat="43.9167503" lon="12.1496012"><ele>185.0</ele><time>2026-04-12T15:49:19.011Z</time></trkpt><trkpt lat="43.9166006" lon="12.1494743"><ele>186.0</ele><time>2026-04-12T15:49:20.012Z</time></trkpt><trkpt lat="43.9164584" lon="12.149343"><ele>186.0</ele><time>2026-04-12T15:49:21.015Z</time></trkpt><trkpt lat="43.9163452" lon="12.1492006"><ele>186.0</ele><time>2026-04-12T15:49:22.014Z</time></trkpt><trkpt lat="43.9162682" lon="12.1490448"><ele>186.0</ele><time>2026-04-12T15:49:23.013Z</time></trkpt><trkpt lat="43.91623" lon="12.1488742"><ele>186.0</ele><time>2026-04-12T15:49:24.011Z</time></trkpt><trkpt lat="43.9162339" lon="12.1486876"><ele>184.5</ele><time>2026-04-12T15:49:25.011Z</time></trkpt><trkpt lat="43.9162474" lon="12.1484922"><ele>183.0</ele><time>2026-04-12T15:49:26.012Z</time></trkpt><trkpt lat="43.9162408" lon="12.1483008"><ele>181.5</ele><time>2026-04-12T15:49:27.011Z</time></trkpt><trkpt lat="43.9161992" lon="12.1481152"><ele>180.0</ele><time>2026-04-12T15:49:28.017Z</time></trkpt><trkpt lat="43.9161329" lon="12.1479246"><ele>179.0</ele><time>2026-04-12T15:49:29.013Z</time></trkpt><trkpt lat="43.9160612" lon="12.1477163"><ele>178.0</ele><time>2026-04-12T15:49:30.011Z</time></trkpt><trkpt lat="43.9160019" lon="12.1475026"><ele>177.0</ele><time>2026-04-12T15:49:31.013Z</time></trkpt><trkpt lat="43.9159672" lon="12.1472965"><ele>177.0</ele><time>2026-04-12T15:49:32.013Z</time></trkpt><trkpt lat="43.9159532" lon="12.1471154"><ele>177.0</ele><time>2026-04-12T15:49:33.01Z</time></trkpt><trkpt lat="43.9159699" lon="12.1469639"><ele>177.0</ele><time>2026-04-12T15:49:34.015Z</time></trkpt><trkpt lat="43.916021" lon="12.1468368"><ele>177.0</ele><time>2026-04-12T15:49:35.013Z</time></trkpt><trkpt lat="43.9161052" lon="12.146725"><ele>177.0</ele><time>2026-04-12T15:49:36.013Z</time></trkpt><trkpt lat="43.9162125" lon="12.1466191"><ele>177.0</ele><time>2026-04-12T15:49:37.011Z</time></trkpt><trkpt lat="43.9163501" lon="12.1465191"><ele>177.0</ele><time>2026-04-12T15:49:38.011Z</time></trkpt><trkpt lat="43.9165024" lon="12.1464159"><ele>182.0</ele><time>2026-04-12T15:49:39.013Z</time></trkpt><trkpt lat="43.916677" lon="12.1463237"><ele>187.0</ele><time>2026-04-12T15:49:40.013Z</time></trkpt><trkpt lat="43.9168702" lon="12.1462475"><ele>192.0</ele><time>2026-04-12T15:49:41.01Z</time></trkpt><trkpt lat="43.917076" lon="12.1461872"><ele>193.66666666666669</ele><time>2026-04-12T15:49:42.015Z</time></trkpt><trkpt lat="43.91729" lon="12.1461234"><ele>195.33333333333334</ele><time>2026-04-12T15:49:43.011Z</time></trkpt><trkpt lat="43.91751" lon="12.1460523"><ele>197.0</ele><time>2026-04-12T15:49:44.013Z</time></trkpt><trkpt lat="43.9177332" lon="12.1459584"><ele>197.0</ele><time>2026-04-12T15:49:45.011Z</time></trkpt><trkpt lat="43.9179494" lon="12.1458631"><ele>197.0</ele><time>2026-04-12T15:49:46.012Z</time></trkpt><trkpt lat="43.9181496" lon="12.1457935"><ele>197.0</ele><time>2026-04-12T15:49:47.011Z</time></trkpt><trkpt lat="43.9183373" lon="12.1457498"><ele>199.33333333333334</ele><time>2026-04-12T15:49:48.011Z</time></trkpt><trkpt lat="43.9185218" lon="12.1457423"><ele>201.66666666666669</ele><time>2026-04-12T15:49:49.012Z</time></trkpt><trkpt lat="43.918704" lon="12.1457839"><ele>204.0</ele><time>2026-04-12T15:49:50.013Z</time></trkpt><trkpt lat="43.9188813" lon="12.1458525"><ele>204.0</ele><time>2026-04-12T15:49:51.014Z</time></trkpt><trkpt lat="43.9190594" lon="12.1459058"><ele>204.0</ele><time>2026-04-12T15:49:52.017Z</time></trkpt><trkpt lat="43.9192384" lon="12.1459168"><ele>204.0</ele><time>2026-04-12T15:49:53.011Z</time></trkpt><trkpt lat="43.9194222" lon="12.1458805"><ele>203.66666666666669</ele><time>2026-04-12T15:49:54.013Z</time></trkpt><trkpt lat="43.9196033" lon="12.1458069"><ele>203.33333333333334</ele><time>2026-04-12T15:49:55.012Z</time></trkpt><trkpt lat="43.9197682" lon="12.1457084"><ele>203.0</ele><time>2026-04-12T15:49:56.013Z</time></trkpt><trkpt lat="43.9199197" lon="12.1456211"><ele>205.75</ele><time>2026-04-12T15:49:57.012Z</time></trkpt><trkpt lat="43.9200587" lon="12.1455748"><ele>208.5</ele><time>2026-04-12T15:49:58.01Z</time></trkpt><trkpt lat="43.920186" lon="12.1455784"><ele>211.25</ele><time>2026-04-12T15:49:59.012Z</time></trkpt><trkpt lat="43.9203" lon="12.1456461"><ele>214.0</ele><time>2026-04-12T15:50:00.013Z</time></trkpt><trkpt lat="43.9204106" lon="12.1457405"><ele>214.0</ele><time>2026-04-12T15:50:01.011Z</time></trkpt><trkpt lat="43.9205362" lon="12.1458156"><ele>214.0</ele><time>2026-04-12T15:50:02.014Z</time></trkpt><trkpt lat="43.9206813" lon="12.1458683"><ele>214.0</ele><time>2026-04-12T15:50:03.014Z</time></trkpt><trkpt lat="43.9208367" lon="12.145922"><ele>214.0</ele><time>2026-04-12T15:50:04.01Z</time></trkpt><trkpt lat="43.9209937" lon="12.1459882"><ele>217.0</ele><time>2026-04-12T15:50:05.011Z</time></trkpt><trkpt lat="43.9211429" lon="12.1460682"><ele>220.0</ele><time>2026-04-12T15:50:06.012Z</time></trkpt><trkpt lat="43.9212731" lon="12.1461538"><ele>223.0</ele><time>2026-04-12T15:50:07.015Z</time></trkpt><trkpt lat="43.9213892" lon="12.1462398"><ele>226.0</ele><time>2026-04-12T15:50:08.011Z</time></trkpt><trkpt lat="43.9214827" lon="12.14634"><ele>226.0</ele><time>2026-04-12T15:50:09.013Z</time></trkpt><trkpt lat="43.9215508" lon="12.1464536"><ele>226.00000000000003</ele><time>2026-04-12T15:50:10.015Z</time></trkpt><trkpt lat="43.921595" lon="12.1465653"><ele>226.00000000000003</ele><time>2026-04-12T15:50:11.013Z</time></trkpt><trkpt lat="43.9216166" lon="12.1466699"><ele>226.0</ele><time>2026-04-12T15:50:12.011Z</time></trkpt><trkpt lat="43.9216235" lon="12.1467632"><ele>226.0</ele><time>2026-04-12T15:50:13.012Z</time></trkpt><trkpt lat="43.9216279" lon="12.1469094"><ele>225.0</ele><time>2026-04-12T15:50:15.015Z</time></trkpt><trkpt lat="43.9216405" lon="12.1470449"><ele>224.00000000000003</ele><time>2026-04-12T15:50:17.013Z</time></trkpt><trkpt lat="43.9216622" lon="12.1471839"><ele>223.00000000000003</ele><time>2026-04-12T15:50:19.013Z</time></trkpt><trkpt lat="43.9216835" lon="12.1473262"><ele>222.0</ele><time>2026-04-12T15:50:21.012Z</time></trkpt><trkpt lat="43.9217303" lon="12.1475008"><ele>221.0</ele><time>2026-04-12T15:50:23.011Z</time></trkpt><trkpt lat="43.9217677" lon="12.147613"><ele>223.4</ele><time>2026-04-12T15:50:24.013Z</time></trkpt><trkpt lat="43.9218129" lon="12.1477383"><ele>225.8</ele><time>2026-04-12T15:50:25.013Z</time></trkpt><trkpt lat="43.921871" lon="12.1478725"><ele>228.20000000000002</ele><time>2026-04-12T15:50:26.013Z</time></trkpt><trkpt lat="43.9219368" lon="12.1480074"><ele>230.60000000000002</ele><time>2026-04-12T15:50:27.013Z</time></trkpt><trkpt lat="43.9220102" lon="12.1481248"><ele>233.0</ele><time>2026-04-12T15:50:28.015Z</time></trkpt><trkpt lat="43.9220921" lon="12.1482126"><ele>229.0</ele><time>2026-04-12T15:50:29.013Z</time></trkpt><trkpt lat="43.92218" lon="12.1482671"><ele>225.0</ele><time>2026-04-12T15:50:30.012Z</time></trkpt><trkpt lat="43.9222757" lon="12.1482879"><ele>221.0</ele><time>2026-04-12T15:50:31.012Z</time></trkpt><trkpt lat="43.9223746" lon="12.1482837"><ele>217.0</ele><time>2026-04-12T15:50:32.013Z</time></trkpt><trkpt lat="43.9224749" lon="12.1482497"><ele>213.0</ele><time>2026-04-12T15:50:33.013Z</time></trkpt><trkpt lat="43.9225756" lon="12.1481767"><ele>213.0</ele><time>2026-04-12T15:50:34.014Z</time></trkpt><trkpt lat="43.9226779" lon="12.1480988"><ele>213.0</ele><time>2026-04-12T15:50:35.011Z</time></trkpt><trkpt lat="43.9227832" lon="12.1480229"><ele>213.0</ele><time>2026-04-12T15:50:36.013Z</time></trkpt><trkpt lat="43.9228977" lon="12.147968"><ele>213.0</ele><time>2026-04-12T15:50:37.014Z</time></trkpt><trkpt lat="43.9230138" lon="12.1479389"><ele>213.0</ele><time>2026-04-12T15:50:38.013Z</time></trkpt><trkpt lat="43.9231324" lon="12.147947"><ele>213.0</ele><time>2026-04-12T15:50:39.015Z</time></trkpt><trkpt lat="43.9232336" lon="12.1479989"><ele>213.0</ele><time>2026-04-12T15:50:40.013Z</time></trkpt><trkpt lat="43.9233144" lon="12.1480953"><ele>213.0</ele><time>2026-04-12T15:50:41.013Z</time></trkpt><trkpt lat="43.9233782" lon="12.1482147"><ele>213.0</ele><time>2026-04-12T15:50:42.014Z</time></trkpt><trkpt lat="43.9234216" lon="12.148362"><ele>209.75</ele><time>2026-04-12T15:50:43.011Z</time></trkpt><trkpt lat="43.9234478" lon="12.1485227"><ele>206.5</ele><time>2026-04-12T15:50:44.014Z</time></trkpt><trkpt lat="43.9234724" lon="12.1486837"><ele>203.25</ele><time>2026-04-12T15:50:45.012Z</time></trkpt><trkpt lat="43.9235136" lon="12.1488321"><ele>200.0</ele><time>2026-04-12T15:50:46.013Z</time></trkpt><trkpt lat="43.9235528" lon="12.1489774"><ele>202.4</ele><time>2026-04-12T15:50:47.021Z</time></trkpt><trkpt lat="43.9235867" lon="12.1491228"><ele>204.8</ele><time>2026-04-12T15:50:48.011Z</time></trkpt><trkpt lat="43.9236242" lon="12.149267"><ele>207.2</ele><time>2026-04-12T15:50:49.014Z</time></trkpt><trkpt lat="43.9236654" lon="12.149406"><ele>209.6</ele><time>2026-04-12T15:50:50.013Z</time></trkpt><trkpt lat="43.9237159" lon="12.149536"><ele>212.0</ele><time>2026-04-12T15:50:51.013Z</time></trkpt><trkpt lat="43.9237751" lon="12.1496543"><ele>212.0</ele><time>2026-04-12T15:50:52.013Z</time></trkpt><trkpt lat="43.9238404" lon="12.1497634"><ele>212.0</ele><time>2026-04-12T15:50:53.013Z</time></trkpt><trkpt lat="43.9239207" lon="12.1498562"><ele>212.0</ele><time>2026-04-12T15:50:54.012Z</time></trkpt><trkpt lat="43.9240092" lon="12.1499353"><ele>212.0</ele><time>2026-04-12T15:50:55.013Z</time></trkpt><trkpt lat="43.9240994" lon="12.1500031"><ele>212.0</ele><time>2026-04-12T15:50:56.015Z</time></trkpt><trkpt lat="43.924192" lon="12.1500507"><ele>213.33333333333334</ele><time>2026-04-12T15:50:57.013Z</time></trkpt><trkpt lat="43.9242746" lon="12.1500851"><ele>214.66666666666669</ele><time>2026-04-12T15:50:58.014Z</time></trkpt><trkpt lat="43.9243393" lon="12.1501221"><ele>216.0</ele><time>2026-04-12T15:50:59.01Z</time></trkpt><trkpt lat="43.9243955" lon="12.1501615"><ele>217.33333333333331</ele><time>2026-04-12T15:51:00.01Z</time></trkpt><trkpt lat="43.9244693" lon="12.1502411"><ele>218.66666666666666</ele><time>2026-04-12T15:51:02.013Z</time></trkpt><trkpt lat="43.9244983" lon="12.150345"><ele>220.0</ele><time>2026-04-12T15:51:34.015Z</time></trkpt><trkpt lat="43.92452" lon="12.1505533"><ele>220.0</ele><time>2026-04-12T15:51:36.014Z</time></trkpt><trkpt lat="43.9245167" lon="12.1506967"><ele>220.0</ele><time>2026-04-12T15:51:37.014Z</time></trkpt><trkpt lat="43.9245117" lon="12.15083"><ele>220.0</ele><time>2026-04-12T15:51:38.013Z</time></trkpt><trkpt lat="43.9244817" lon="12.1510183"><ele>220.0</ele><time>2026-04-12T15:51:39.018Z</time></trkpt><trkpt lat="43.9244733" lon="12.1512383"><ele>214.66666666666666</ele><time>2026-04-12T15:51:40.015Z</time></trkpt><trkpt lat="43.9245" lon="12.1514533"><ele>209.33333333333331</ele><time>2026-04-12T15:51:41.015Z</time></trkpt><trkpt lat="43.924515" lon="12.1516717"><ele>204.0</ele><time>2026-04-12T15:51:42.014Z</time></trkpt><trkpt lat="43.9245067" lon="12.1518883"><ele>204.25</ele><time>2026-04-12T15:51:43.014Z</time></trkpt><trkpt lat="43.9244733" lon="12.1520917"><ele>204.5</ele><time>2026-04-12T15:51:44.014Z</time></trkpt><trkpt lat="43.92442" lon="12.1522817"><ele>204.75</ele><time>2026-04-12T15:51:45.013Z</time></trkpt><trkpt lat="43.9243467" lon="12.1524567"><ele>205.0</ele><time>2026-04-12T15:51:46.014Z</time></trkpt><trkpt lat="43.92425" lon="12.15261"><ele>200.25</ele><time>2026-04-12T15:51:47.014Z</time></trkpt><trkpt lat="43.9241483" lon="12.152745"><ele>195.5</ele><time>2026-04-12T15:51:48.012Z</time></trkpt><trkpt lat="43.92404" lon="12.1528483"><ele>190.75</ele><time>2026-04-12T15:51:49.015Z</time></trkpt><trkpt lat="43.9239283" lon="12.1529317"><ele>186.0</ele><time>2026-04-12T15:51:50.015Z</time></trkpt><trkpt lat="43.9238083" lon="12.1529917"><ele>186.0</ele><time>2026-04-12T15:51:51.014Z</time></trkpt><trkpt lat="43.9236817" lon="12.1530333"><ele>186.0</ele><time>2026-04-12T15:51:52.014Z</time></trkpt><trkpt lat="43.9235433" lon="12.15304"><ele>186.0</ele><time>2026-04-12T15:51:53.014Z</time></trkpt><trkpt lat="43.9234033" lon="12.1530117"><ele>186.0</ele><time>2026-04-12T15:51:54.016Z</time></trkpt><trkpt lat="43.9232633" lon="12.1529467"><ele>181.66666666666666</ele><time>2026-04-12T15:51:55.014Z</time></trkpt><trkpt lat="43.92313" lon="12.1528433"><ele>177.33333333333331</ele><time>2026-04-12T15:51:56.015Z</time></trkpt><trkpt lat="43.9230083" lon="12.152715"><ele>173.0</ele><time>2026-04-12T15:51:57.014Z</time></trkpt><trkpt lat="43.9229033" lon="12.1525733"><ele>173.0</ele><time>2026-04-12T15:51:58.016Z</time></trkpt><trkpt lat="43.922815" lon="12.1524317"><ele>173.0</ele><time>2026-04-12T15:51:59.014Z</time></trkpt><trkpt lat="43.9227417" lon="12.1522883"><ele>173.0</ele><time>2026-04-12T15:52:00.014Z</time></trkpt><trkpt lat="43.92266" lon="12.1521667"><ele>173.0</ele><time>2026-04-12T15:52:01.016Z</time></trkpt><trkpt lat="43.9225667" lon="12.1520833"><ele>172.8</ele><time>2026-04-12T15:52:02.013Z</time></trkpt><trkpt lat="43.9224817" lon="12.1520183"><ele>172.60000000000002</ele><time>2026-04-12T15:52:03.015Z</time></trkpt><trkpt lat="43.922365" lon="12.15202"><ele>172.39999999999998</ele><time>2026-04-12T15:52:04.012Z</time></trkpt><trkpt lat="43.9222633" lon="12.1520683"><ele>172.2</ele><time>2026-04-12T15:52:05.015Z</time></trkpt><trkpt lat="43.92217" lon="12.152135"><ele>172.0</ele><time>2026-04-12T15:52:06.011Z</time></trkpt><trkpt lat="43.9220917" lon="12.15225"><ele>172.25</ele><time>2026-04-12T15:52:07.012Z</time></trkpt><trkpt lat="43.92204" lon="12.15241"><ele>172.5</ele><time>2026-04-12T15:52:08.015Z</time></trkpt><trkpt lat="43.9220517" lon="12.1526017"><ele>172.75</ele><time>2026-04-12T15:52:09.014Z</time></trkpt><trkpt lat="43.9221067" lon="12.1527833"><ele>173.0</ele><time>2026-04-12T15:52:10.013Z</time></trkpt><trkpt lat="43.92219" lon="12.1529383"><ele>173.0</ele><time>2026-04-12T15:52:11.011Z</time></trkpt><trkpt lat="43.922295" lon="12.1530867"><ele>173.0</ele><time>2026-04-12T15:52:12.013Z</time></trkpt><trkpt lat="43.9223933" lon="12.1532517"><ele>173.0</ele><time>2026-04-12T15:52:13.011Z</time></trkpt><trkpt lat="43.9224833" lon="12.1534367"><ele>172.66666666666666</ele><time>2026-04-12T15:52:14.013Z</time></trkpt><trkpt lat="43.9225633" lon="12.15364"><ele>172.33333333333334</ele><time>2026-04-12T15:52:15.012Z</time></trkpt><trkpt lat="43.92263" lon="12.1538617"><ele>172.0</ele><time>2026-04-12T15:52:16.011Z</time></trkpt><trkpt lat="43.922697" lon="12.1541029"><ele>172.0</ele><time>2026-04-12T15:52:17.012Z</time></trkpt><trkpt lat="43.9227479" lon="12.1543633"><ele>172.0</ele><time>2026-04-12T15:52:18.011Z</time></trkpt><trkpt lat="43.9227935" lon="12.1546357"><ele>172.0</ele><time>2026-04-12T15:52:19.013Z</time></trkpt><trkpt lat="43.9228353" lon="12.1549203"><ele>172.0</ele><time>2026-04-12T15:52:20.014Z</time></trkpt><trkpt lat="43.92288" lon="12.1552092"><ele>172.0</ele><time>2026-04-12T15:52:21.014Z</time></trkpt><trkpt lat="43.9229189" lon="12.1555066"><ele>172.0</ele><time>2026-04-12T15:52:22.012Z</time></trkpt><trkpt lat="43.9229544" lon="12.1558095"><ele>172.0</ele><time>2026-04-12T15:52:23.011Z</time></trkpt><trkpt lat="43.9229841" lon="12.1561152"><ele>172.0</ele><time>2026-04-12T15:52:24.012Z</time></trkpt><trkpt lat="43.9230117" lon="12.1564224"><ele>172.0</ele><time>2026-04-12T15:52:25.011Z</time></trkpt><trkpt lat="43.9230408" lon="12.1567312"><ele>172.33333333333334</ele><time>2026-04-12T15:52:26.015Z</time></trkpt><trkpt lat="43.9230671" lon="12.1570393"><ele>172.66666666666666</ele><time>2026-04-12T15:52:27.015Z</time></trkpt><trkpt lat="43.9230936" lon="12.1573452"><ele>173.0</ele><time>2026-04-12T15:52:28.015Z</time></trkpt><trkpt lat="43.9231222" lon="12.1576499"><ele>174.0</ele><time>2026-04-12T15:52:29.011Z</time></trkpt><trkpt lat="43.9231466" lon="12.1579541"><ele>175.0</ele><time>2026-04-12T15:52:30.016Z</time></trkpt><trkpt lat="43.9231687" lon="12.1582588"><ele>176.0</ele><time>2026-04-12T15:52:31.015Z</time></trkpt><trkpt lat="43.9231928" lon="12.158562"><ele>177.33333333333331</ele><time>2026-04-12T15:52:32.013Z</time></trkpt><trkpt lat="43.9232163" lon="12.1588639"><ele>178.66666666666666</ele><time>2026-04-12T15:52:33.013Z</time></trkpt><trkpt lat="43.9232409" lon="12.1591648"><ele>180.0</ele><time>2026-04-12T15:52:34.015Z</time></trkpt><trkpt lat="43.9232657" lon="12.1594657"><ele>181.66666666666666</ele><time>2026-04-12T15:52:35.012Z</time></trkpt><trkpt lat="43.9232885" lon="12.1597685"><ele>183.33333333333331</ele><time>2026-04-12T15:52:36.012Z</time></trkpt><trkpt lat="43.9233129" lon="12.1600724"><ele>185.0</ele><time>2026-04-12T15:52:37.016Z</time></trkpt><trkpt lat="43.9233355" lon="12.1603767"><ele>185.0</ele><time>2026-04-12T15:52:38.014Z</time></trkpt><trkpt lat="43.9233606" lon="12.1606792"><ele>185.0</ele><time>2026-04-12T15:52:39.014Z</time></trkpt><trkpt lat="43.9233802" lon="12.1609822"><ele>185.0</ele><time>2026-04-12T15:52:40.014Z</time></trkpt><trkpt lat="43.9234022" lon="12.1612794"><ele>188.66666666666666</ele><time>2026-04-12T15:52:41.013Z</time></trkpt><trkpt lat="43.9234295" lon="12.1615738"><ele>192.33333333333331</ele><time>2026-04-12T15:52:42.013Z</time></trkpt><trkpt lat="43.9234561" lon="12.1618632"><ele>196.0</ele><time>2026-04-12T15:52:43.013Z</time></trkpt><trkpt lat="43.9234787" lon="12.162151"><ele>192.0</ele><time>2026-04-12T15:52:44.012Z</time></trkpt><trkpt lat="43.9235034" lon="12.1624401"><ele>188.0</ele><time>2026-04-12T15:52:45.015Z</time></trkpt><trkpt lat="43.9235275" lon="12.162731"><ele>184.0</ele><time>2026-04-12T15:52:46.014Z</time></trkpt><trkpt lat="43.9235522" lon="12.163026"><ele>181.66666666666669</ele><time>2026-04-12T15:52:47.016Z</time></trkpt><trkpt lat="43.9235762" lon="12.1633282"><ele>179.33333333333334</ele><time>2026-04-12T15:52:48.013Z</time></trkpt><trkpt lat="43.9236032" lon="12.163636"><ele>177.0</ele><time>2026-04-12T15:52:49.013Z</time></trkpt><trkpt lat="43.9236278" lon="12.1639509"><ele>183.0</ele><time>2026-04-12T15:52:50.014Z</time></trkpt><trkpt lat="43.9236539" lon="12.1642703"><ele>189.0</ele><time>2026-04-12T15:52:51.014Z</time></trkpt><trkpt lat="43.9236758" lon="12.1645961"><ele>192.5</ele><time>2026-04-12T15:52:52.015Z</time></trkpt><trkpt lat="43.9237037" lon="12.1649218"><ele>196.0</ele><time>2026-04-12T15:52:53.013Z</time></trkpt><trkpt lat="43.9237424" lon="12.1652505"><ele>196.0</ele><time>2026-04-12T15:52:54.014Z</time></trkpt><trkpt lat="43.9237889" lon="12.1655819"><ele>196.0</ele><time>2026-04-12T15:52:55.013Z</time></trkpt><trkpt lat="43.9238353" lon="12.1659158"><ele>195.33333333333331</ele><time>2026-04-12T15:52:56.014Z</time></trkpt><trkpt lat="43.9238825" lon="12.1662128"><ele>194.66666666666669</ele><time>2026-04-12T15:52:57.014Z</time></trkpt><trkpt lat="43.9239149" lon="12.1664905"><ele>194.0</ele><time>2026-04-12T15:52:58.014Z</time></trkpt><trkpt lat="43.9239299" lon="12.166796"><ele>187.5</ele><time>2026-04-12T15:52:59.013Z</time></trkpt><trkpt lat="43.9238953" lon="12.1671372"><ele>181.0</ele><time>2026-04-12T15:53:00.015Z</time></trkpt><trkpt lat="43.9239146" lon="12.1674915"><ele>179.5</ele><time>2026-04-12T15:53:01.014Z</time></trkpt><trkpt lat="43.9239662" lon="12.1678434"><ele>178.0</ele><time>2026-04-12T15:53:02.013Z</time></trkpt><trkpt lat="43.9240119" lon="12.1681924"><ele>177.0</ele><time>2026-04-12T15:53:03.017Z</time></trkpt><trkpt lat="43.9240729" lon="12.1685335"><ele>176.0</ele><time>2026-04-12T15:53:04.013Z</time></trkpt><trkpt lat="43.9241465" lon="12.1688649"><ele>176.0</ele><time>2026-04-12T15:53:05.013Z</time></trkpt><trkpt lat="43.9242347" lon="12.1691904"><ele>176.0</ele><time>2026-04-12T15:53:06.014Z</time></trkpt><trkpt lat="43.9243316" lon="12.1695076"><ele>176.0</ele><time>2026-04-12T15:53:07.013Z</time></trkpt><trkpt lat="43.9244469" lon="12.1698139"><ele>176.0</ele><time>2026-04-12T15:53:08.02Z</time></trkpt><trkpt lat="43.9245697" lon="12.1701104"><ele>173.5</ele><time>2026-04-12T15:53:09.014Z</time></trkpt><trkpt lat="43.9247092" lon="12.170398"><ele>171.0</ele><time>2026-04-12T15:53:10.014Z</time></trkpt><trkpt lat="43.9248571" lon="12.1706758"><ele>174.5</ele><time>2026-04-12T15:53:11.014Z</time></trkpt><trkpt lat="43.9250149" lon="12.1709392"><ele>178.0</ele><time>2026-04-12T15:53:12.013Z</time></trkpt><trkpt lat="43.9251832" lon="12.1711906"><ele>174.5</ele><time>2026-04-12T15:53:13.017Z</time></trkpt><trkpt lat="43.925361" lon="12.1714294"><ele>171.0</ele><time>2026-04-12T15:53:14.015Z</time></trkpt><trkpt lat="43.9255481" lon="12.1716548"><ele>171.0</ele><time>2026-04-12T15:53:15.016Z</time></trkpt><trkpt lat="43.9257509" lon="12.171861"><ele>171.0</ele><time>2026-04-12T15:53:16.013Z</time></trkpt><trkpt lat="43.9259596" lon="12.1720566"><ele>174.5</ele><time>2026-04-12T15:53:17.015Z</time></trkpt><trkpt lat="43.926181" lon="12.1722333"><ele>178.0</ele><time>2026-04-12T15:53:18.015Z</time></trkpt><trkpt lat="43.9264102" lon="12.1723936"><ele>182.5</ele><time>2026-04-12T15:53:19.014Z</time></trkpt><trkpt lat="43.9266492" lon="12.1725324"><ele>187.0</ele><time>2026-04-12T15:53:20.014Z</time></trkpt><trkpt lat="43.9268943" lon="12.1726468"><ele>187.0</ele><time>2026-04-12T15:53:21.014Z</time></trkpt><trkpt lat="43.9271432" lon="12.1727516"><ele>187.0</ele><time>2026-04-12T15:53:22.015Z</time></trkpt><trkpt lat="43.9273972" lon="12.1728401"><ele>185.5</ele><time>2026-04-12T15:53:23.013Z</time></trkpt><trkpt lat="43.9276476" lon="12.1729211"><ele>184.0</ele><time>2026-04-12T15:53:24.015Z</time></trkpt><trkpt lat="43.9278923" lon="12.1730011"><ele>184.0</ele><time>2026-04-12T15:53:25.013Z</time></trkpt><trkpt lat="43.9281357" lon="12.1730779"><ele>184.0</ele><time>2026-04-12T15:53:26.013Z</time></trkpt><trkpt lat="43.9283781" lon="12.1731485"><ele>186.5</ele><time>2026-04-12T15:53:27.015Z</time></trkpt><trkpt lat="43.9286222" lon="12.1732066"><ele>189.0</ele><time>2026-04-12T15:53:28.016Z</time></trkpt><trkpt lat="43.9288676" lon="12.1732631"><ele>189.0</ele><time>2026-04-12T15:53:29.013Z</time></trkpt><trkpt lat="43.9291106" lon="12.1733199"><ele>189.0</ele><time>2026-04-12T15:53:30.016Z</time></trkpt><trkpt lat="43.929352" lon="12.173382"><ele>183.0</ele><time>2026-04-12T15:53:31.015Z</time></trkpt><trkpt lat="43.9295921" lon="12.1734387"><ele>177.0</ele><time>2026-04-12T15:53:32.014Z</time></trkpt><trkpt lat="43.9298333" lon="12.1735032"><ele>169.5</ele><time>2026-04-12T15:53:33.014Z</time></trkpt><trkpt lat="43.9300737" lon="12.1735695"><ele>162.0</ele><time>2026-04-12T15:53:34.013Z</time></trkpt><trkpt lat="43.9303163" lon="12.1736388"><ele>162.0</ele><time>2026-04-12T15:53:35.015Z</time></trkpt><trkpt lat="43.9305567" lon="12.1737089"><ele>162.0</ele><time>2026-04-12T15:53:36.013Z</time></trkpt><trkpt lat="43.9307957" lon="12.1737973"><ele>158.5</ele><time>2026-04-12T15:53:37.022Z</time></trkpt><trkpt lat="43.9310291" lon="12.1738977"><ele>155.0</ele><time>2026-04-12T15:53:38.013Z</time></trkpt><trkpt lat="43.9312607" lon="12.1740133"><ele>157.5</ele><time>2026-04-12T15:53:39.013Z</time></trkpt><trkpt lat="43.9314872" lon="12.1741453"><ele>160.0</ele><time>2026-04-12T15:53:40.014Z</time></trkpt><trkpt lat="43.9317074" lon="12.1742888"><ele>157.0</ele><time>2026-04-12T15:53:41.014Z</time></trkpt><trkpt lat="43.9319184" lon="12.1744564"><ele>154.0</ele><time>2026-04-12T15:53:42.014Z</time></trkpt><trkpt lat="43.9321245" lon="12.1746345"><ele>154.0</ele><time>2026-04-12T15:53:43.014Z</time></trkpt><trkpt lat="43.9323218" lon="12.1748251"><ele>154.0</ele><time>2026-04-12T15:53:44.014Z</time></trkpt><trkpt lat="43.932507" lon="12.175037"><ele>160.5</ele><time>2026-04-12T15:53:45.016Z</time></trkpt><trkpt lat="43.9326884" lon="12.1752547"><ele>167.0</ele><time>2026-04-12T15:53:46.012Z</time></trkpt><trkpt lat="43.932859" lon="12.175488"><ele>177.0</ele><time>2026-04-12T15:53:47.013Z</time></trkpt><trkpt lat="43.9330184" lon="12.1757355"><ele>187.0</ele><time>2026-04-12T15:53:48.014Z</time></trkpt><trkpt lat="43.9331725" lon="12.1759933"><ele>187.0</ele><time>2026-04-12T15:53:49.014Z</time></trkpt><trkpt lat="43.9333229" lon="12.1762573"><ele>187.0</ele><time>2026-04-12T15:53:50.013Z</time></trkpt><trkpt lat="43.9334654" lon="12.1765287"><ele>187.5</ele><time>2026-04-12T15:53:51.015Z</time></trkpt><trkpt lat="43.9336072" lon="12.1767972"><ele>188.0</ele><time>2026-04-12T15:53:52.012Z</time></trkpt><trkpt lat="43.9337501" lon="12.1770637"><ele>188.0</ele><time>2026-04-12T15:53:53.018Z</time></trkpt><trkpt lat="43.9338917" lon="12.1773277"><ele>188.0</ele><time>2026-04-12T15:53:54.014Z</time></trkpt><trkpt lat="43.9340321" lon="12.1775916"><ele>190.5</ele><time>2026-04-12T15:53:55.014Z</time></trkpt><trkpt lat="43.9341693" lon="12.1778555"><ele>193.0</ele><time>2026-04-12T15:53:56.014Z</time></trkpt><trkpt lat="43.9343033" lon="12.1781227"><ele>190.5</ele><time>2026-04-12T15:53:57.015Z</time></trkpt><trkpt lat="43.934435" lon="12.1783922"><ele>188.0</ele><time>2026-04-12T15:53:58.015Z</time></trkpt><trkpt lat="43.9345676" lon="12.1786598"><ele>188.0</ele><time>2026-04-12T15:53:59.013Z</time></trkpt><trkpt lat="43.9346997" lon="12.1789332"><ele>188.0</ele><time>2026-04-12T15:54:00.014Z</time></trkpt><trkpt lat="43.9348366" lon="12.1792064"><ele>184.5</ele><time>2026-04-12T15:54:01.015Z</time></trkpt><trkpt lat="43.9349701" lon="12.1794806"><ele>181.0</ele><time>2026-04-12T15:54:02.013Z</time></trkpt><trkpt lat="43.9351048" lon="12.1797533"><ele>187.0</ele><time>2026-04-12T15:54:03.016Z</time></trkpt><trkpt lat="43.9352359" lon="12.1800287"><ele>193.0</ele><time>2026-04-12T15:54:04.013Z</time></trkpt><trkpt lat="43.9353713" lon="12.1803012"><ele>193.0</ele><time>2026-04-12T15:54:05.012Z</time></trkpt><trkpt lat="43.935507" lon="12.1805727"><ele>193.0</ele><time>2026-04-12T15:54:06.014Z</time></trkpt><trkpt lat="43.9356477" lon="12.1808412"><ele>192.0</ele><time>2026-04-12T15:54:07.013Z</time></trkpt><trkpt lat="43.9357892" lon="12.18111"><ele>191.0</ele><time>2026-04-12T15:54:08.014Z</time></trkpt><trkpt lat="43.9359299" lon="12.1813767"><ele>192.0</ele><time>2026-04-12T15:54:09.013Z</time></trkpt><trkpt lat="43.9360761" lon="12.1816424"><ele>193.0</ele><time>2026-04-12T15:54:10.014Z</time></trkpt><trkpt lat="43.9362285" lon="12.1819019"><ele>193.0</ele><time>2026-04-12T15:54:11.014Z</time></trkpt><trkpt lat="43.9363842" lon="12.1821566"><ele>193.0</ele><time>2026-04-12T15:54:12.014Z</time></trkpt><trkpt lat="43.9365521" lon="12.1824002"><ele>188.5</ele><time>2026-04-12T15:54:13.013Z</time></trkpt><trkpt lat="43.9367256" lon="12.1826397"><ele>184.0</ele><time>2026-04-12T15:54:14.013Z</time></trkpt><trkpt lat="43.9369018" lon="12.1828804"><ele>184.0</ele><time>2026-04-12T15:54:15.012Z</time></trkpt><trkpt lat="43.9370845" lon="12.1831185"><ele>184.0</ele><time>2026-04-12T15:54:16.013Z</time></trkpt><trkpt lat="43.9372724" lon="12.1833472"><ele>183.5</ele><time>2026-04-12T15:54:17.013Z</time></trkpt><trkpt lat="43.9374597" lon="12.1835788"><ele>183.0</ele><time>2026-04-12T15:54:18.014Z</time></trkpt><trkpt lat="43.9376566" lon="12.1837948"><ele>183.0</ele><time>2026-04-12T15:54:19.013Z</time></trkpt><trkpt lat="43.9378584" lon="12.1840011"><ele>183.0</ele><time>2026-04-12T15:54:20.015Z</time></trkpt><trkpt lat="43.9380659" lon="12.1841993"><ele>180.5</ele><time>2026-04-12T15:54:21.014Z</time></trkpt><trkpt lat="43.9382778" lon="12.1843911"><ele>178.0</ele><time>2026-04-12T15:54:22.012Z</time></trkpt><trkpt lat="43.9384947" lon="12.184576"><ele>178.0</ele><time>2026-04-12T15:54:23.013Z</time></trkpt><trkpt lat="43.9387187" lon="12.1847463"><ele>178.0</ele><time>2026-04-12T15:54:24.012Z</time></trkpt><trkpt lat="43.9389458" lon="12.1849044"><ele>178.0</ele><time>2026-04-12T15:54:25.014Z</time></trkpt><trkpt lat="43.9391776" lon="12.185055"><ele>178.0</ele><time>2026-04-12T15:54:26.015Z</time></trkpt><trkpt lat="43.9394166" lon="12.1851976"><ele>178.0</ele><time>2026-04-12T15:54:27.017Z</time></trkpt><trkpt lat="43.93966" lon="12.1853283"><ele>178.0</ele><time>2026-04-12T15:54:28.015Z</time></trkpt><trkpt lat="43.9399044" lon="12.1854598"><ele>173.0</ele><time>2026-04-12T15:54:29.013Z</time></trkpt><trkpt lat="43.9401563" lon="12.1855746"><ele>168.0</ele><time>2026-04-12T15:54:30.013Z</time></trkpt><trkpt lat="43.9404098" lon="12.185684"><ele>171.0</ele><time>2026-04-12T15:54:31.014Z</time></trkpt><trkpt lat="43.9406655" lon="12.185785"><ele>174.0</ele><time>2026-04-12T15:54:32.015Z</time></trkpt><trkpt lat="43.9409225" lon="12.1858745"><ele>174.0</ele><time>2026-04-12T15:54:33.013Z</time></trkpt><trkpt lat="43.9411896" lon="12.1859504"><ele>174.0</ele><time>2026-04-12T15:54:34.016Z</time></trkpt><trkpt lat="43.9414595" lon="12.186023"><ele>161.5</ele><time>2026-04-12T15:54:35.012Z</time></trkpt><trkpt lat="43.9417264" lon="12.1861023"><ele>149.0</ele><time>2026-04-12T15:54:36.014Z</time></trkpt><trkpt lat="43.9419934" lon="12.1861857"><ele>149.0</ele><time>2026-04-12T15:54:37.015Z</time></trkpt><trkpt lat="43.9422566" lon="12.186269"><ele>149.0</ele><time>2026-04-12T15:54:38.013Z</time></trkpt><trkpt lat="43.94252" lon="12.1863513"><ele>152.5</ele><time>2026-04-12T15:54:39.014Z</time></trkpt><trkpt lat="43.9427829" lon="12.186425"><ele>156.0</ele><time>2026-04-12T15:54:40.013Z</time></trkpt><trkpt lat="43.9430439" lon="12.1864985"><ele>153.0</ele><time>2026-04-12T15:54:41.014Z</time></trkpt><trkpt lat="43.9433035" lon="12.1865716"><ele>150.0</ele><time>2026-04-12T15:54:42.012Z</time></trkpt><trkpt lat="43.943561" lon="12.1866493"><ele>145.0</ele><time>2026-04-12T15:54:43.014Z</time></trkpt><trkpt lat="43.943816" lon="12.1867164"><ele>140.0</ele><time>2026-04-12T15:54:44.017Z</time></trkpt><trkpt lat="43.9440673" lon="12.1867863"><ele>140.0</ele><time>2026-04-12T15:54:45.014Z</time></trkpt><trkpt lat="43.9443145" lon="12.1868597"><ele>140.0</ele><time>2026-04-12T15:54:46.014Z</time></trkpt><trkpt lat="43.9445597" lon="12.1869304"><ele>140.0</ele><time>2026-04-12T15:54:47.013Z</time></trkpt><trkpt lat="43.9448039" lon="12.1870042"><ele>140.0</ele><time>2026-04-12T15:54:48.014Z</time></trkpt><trkpt lat="43.9450472" lon="12.1870821"><ele>141.5</ele><time>2026-04-12T15:54:49.014Z</time></trkpt><trkpt lat="43.9452865" lon="12.1871575"><ele>143.0</ele><time>2026-04-12T15:54:50.015Z</time></trkpt><trkpt lat="43.9455239" lon="12.1872362"><ele>143.0</ele><time>2026-04-12T15:54:51.014Z</time></trkpt><trkpt lat="43.9457578" lon="12.1873197"><ele>143.0</ele><time>2026-04-12T15:54:52.015Z</time></trkpt><trkpt lat="43.9459895" lon="12.1874153"><ele>145.0</ele><time>2026-04-12T15:54:53.015Z</time></trkpt><trkpt lat="43.946219" lon="12.1875169"><ele>147.0</ele><time>2026-04-12T15:54:54.015Z</time></trkpt><trkpt lat="43.9464473" lon="12.187623"><ele>147.0</ele><time>2026-04-12T15:54:55.015Z</time></trkpt><trkpt lat="43.9466688" lon="12.1877418"><ele>147.0</ele><time>2026-04-12T15:54:56.014Z</time></trkpt><trkpt lat="43.9468924" lon="12.1878624"><ele>161.0</ele><time>2026-04-12T15:54:57.017Z</time></trkpt><trkpt lat="43.9471156" lon="12.187994"><ele>175.0</ele><time>2026-04-12T15:54:58.018Z</time></trkpt><trkpt lat="43.9473398" lon="12.1881336"><ele>185.0</ele><time>2026-04-12T15:54:59.014Z</time></trkpt><trkpt lat="43.9475631" lon="12.1882828"><ele>195.0</ele><time>2026-04-12T15:55:00.014Z</time></trkpt><trkpt lat="43.9477795" lon="12.1884427"><ele>195.0</ele><time>2026-04-12T15:55:01.014Z</time></trkpt><trkpt lat="43.947994" lon="12.1886081"><ele>195.0</ele><time>2026-04-12T15:55:02.012Z</time></trkpt><trkpt lat="43.9482063" lon="12.1887835"><ele>195.0</ele><time>2026-04-12T15:55:03.014Z</time></trkpt><trkpt lat="43.9484165" lon="12.1889639"><ele>195.0</ele><time>2026-04-12T15:55:04.015Z</time></trkpt><trkpt lat="43.9486217" lon="12.1891567"><ele>195.0</ele><time>2026-04-12T15:55:05.016Z</time></trkpt><trkpt lat="43.948825" lon="12.1893583"><ele>195.0</ele><time>2026-04-12T15:55:06.015Z</time></trkpt><trkpt lat="43.9490233" lon="12.1895683"><ele>194.5</ele><time>2026-04-12T15:55:07.016Z</time></trkpt><trkpt lat="43.9492167" lon="12.1897917"><ele>194.0</ele><time>2026-04-12T15:55:08.014Z</time></trkpt><trkpt lat="43.9494017" lon="12.19003"><ele>193.5</ele><time>2026-04-12T15:55:09.014Z</time></trkpt><trkpt lat="43.9495867" lon="12.1902733"><ele>193.0</ele><time>2026-04-12T15:55:10.015Z</time></trkpt><trkpt lat="43.94977" lon="12.190525"><ele>193.0</ele><time>2026-04-12T15:55:11.014Z</time></trkpt><trkpt lat="43.949945" lon="12.1907833"><ele>193.0</ele><time>2026-04-12T15:55:12.016Z</time></trkpt><trkpt lat="43.9501167" lon="12.19105"><ele>192.5</ele><time>2026-04-12T15:55:13.014Z</time></trkpt><trkpt lat="43.9502817" lon="12.1913233"><ele>192.0</ele><time>2026-04-12T15:55:14.014Z</time></trkpt><trkpt lat="43.950445" lon="12.1915967"><ele>191.5</ele><time>2026-04-12T15:55:15.014Z</time></trkpt><trkpt lat="43.9506067" lon="12.1918633"><ele>191.0</ele><time>2026-04-12T15:55:16.014Z</time></trkpt><trkpt lat="43.9507733" lon="12.19212"><ele>189.0</ele><time>2026-04-12T15:55:17.013Z</time></trkpt><trkpt lat="43.95094" lon="12.1923683"><ele>187.0</ele><time>2026-04-12T15:55:18.013Z</time></trkpt><trkpt lat="43.9510967" lon="12.1926167"><ele>187.0</ele><time>2026-04-12T15:55:19.015Z</time></trkpt><trkpt lat="43.9512567" lon="12.192865"><ele>187.0</ele><time>2026-04-12T15:55:20.015Z</time></trkpt><trkpt lat="43.9514167" lon="12.19311"><ele>188.0</ele><time>2026-04-12T15:55:21.016Z</time></trkpt><trkpt lat="43.9515733" lon="12.19335"><ele>189.0</ele><time>2026-04-12T15:55:22.014Z</time></trkpt><trkpt lat="43.9517217" lon="12.193585"><ele>187.66666666666666</ele><time>2026-04-12T15:55:23.014Z</time></trkpt><trkpt lat="43.95186" lon="12.1938083"><ele>186.33333333333331</ele><time>2026-04-12T15:55:24.013Z</time></trkpt><trkpt lat="43.9519933" lon="12.1940283"><ele>185.0</ele><time>2026-04-12T15:55:25.013Z</time></trkpt><trkpt lat="43.9521267" lon="12.1942433"><ele>185.0</ele><time>2026-04-12T15:55:26.016Z</time></trkpt><trkpt lat="43.9522633" lon="12.19446"><ele>185.0</ele><time>2026-04-12T15:55:27.017Z</time></trkpt><trkpt lat="43.9524033" lon="12.19467"><ele>185.0</ele><time>2026-04-12T15:55:28.013Z</time></trkpt><trkpt lat="43.9525367" lon="12.1948867"><ele>179.33333333333331</ele><time>2026-04-12T15:55:29.015Z</time></trkpt><trkpt lat="43.9526633" lon="12.195105"><ele>173.66666666666666</ele><time>2026-04-12T15:55:30.014Z</time></trkpt><trkpt lat="43.9527917" lon="12.1953167"><ele>168.0</ele><time>2026-04-12T15:55:31.017Z</time></trkpt><trkpt lat="43.9529167" lon="12.19552"><ele>169.66666666666666</ele><time>2026-04-12T15:55:32.015Z</time></trkpt><trkpt lat="43.9530417" lon="12.1957117"><ele>171.33333333333331</ele><time>2026-04-12T15:55:33.014Z</time></trkpt><trkpt lat="43.9531733" lon="12.1958883"><ele>173.0</ele><time>2026-04-12T15:55:34.015Z</time></trkpt><trkpt lat="43.953305" lon="12.1960683"><ele>174.33333333333331</ele><time>2026-04-12T15:55:35.013Z</time></trkpt><trkpt lat="43.9534333" lon="12.19626"><ele>175.66666666666666</ele><time>2026-04-12T15:55:36.013Z</time></trkpt><trkpt lat="43.95356" lon="12.1964517"><ele>177.0</ele><time>2026-04-12T15:55:37.015Z</time></trkpt><trkpt lat="43.9536817" lon="12.1966517"><ele>177.0</ele><time>2026-04-12T15:55:38.015Z</time></trkpt><trkpt lat="43.9538017" lon="12.196855"><ele>177.0</ele><time>2026-04-12T15:55:39.019Z</time></trkpt><trkpt lat="43.9539217" lon="12.1970517"><ele>177.0</ele><time>2026-04-12T15:55:40.015Z</time></trkpt><trkpt lat="43.9540417" lon="12.19725"><ele>176.33333333333334</ele><time>2026-04-12T15:55:41.015Z</time></trkpt><trkpt lat="43.9541633" lon="12.1974517"><ele>175.66666666666669</ele><time>2026-04-12T15:55:42.017Z</time></trkpt><trkpt lat="43.954285" lon="12.1976583"><ele>175.0</ele><time>2026-04-12T15:55:43.016Z</time></trkpt><trkpt lat="43.954415" lon="12.197855"><ele>175.0</ele><time>2026-04-12T15:55:44.017Z</time></trkpt><trkpt lat="43.9545483" lon="12.19805"><ele>175.0</ele><time>2026-04-12T15:55:45.017Z</time></trkpt><trkpt lat="43.9546883" lon="12.1982333"><ele>175.0</ele><time>2026-04-12T15:55:46.015Z</time></trkpt><trkpt lat="43.954835" lon="12.1984083"><ele>175.33333333333334</ele><time>2026-04-12T15:55:47.016Z</time></trkpt><trkpt lat="43.954985" lon="12.19858"><ele>175.66666666666666</ele><time>2026-04-12T15:55:48.014Z</time></trkpt><trkpt lat="43.955135" lon="12.1987433"><ele>176.0</ele><time>2026-04-12T15:55:49.019Z</time></trkpt><trkpt lat="43.9552883" lon="12.1988983"><ele>178.66666666666666</ele><time>2026-04-12T15:55:50.012Z</time></trkpt><trkpt lat="43.9554517" lon="12.19905"><ele>181.33333333333334</ele><time>2026-04-12T15:55:51.014Z</time></trkpt><trkpt lat="43.9556217" lon="12.19921"><ele>184.0</ele><time>2026-04-12T15:55:52.012Z</time></trkpt><trkpt lat="43.9557983" lon="12.1993617"><ele>176.66666666666669</ele><time>2026-04-12T15:55:53.013Z</time></trkpt><trkpt lat="43.9559933" lon="12.1994783"><ele>169.33333333333334</ele><time>2026-04-12T15:55:54.015Z</time></trkpt><trkpt lat="43.956175" lon="12.199595"><ele>162.0</ele><time>2026-04-12T15:55:55.013Z</time></trkpt><trkpt lat="43.956345" lon="12.1996933"><ele>162.0</ele><time>2026-04-12T15:55:56.015Z</time></trkpt><trkpt lat="43.9565233" lon="12.1997883"><ele>162.0</ele><time>2026-04-12T15:55:57.014Z</time></trkpt><trkpt lat="43.9567033" lon="12.1998717"><ele>162.0</ele><time>2026-04-12T15:55:58.011Z</time></trkpt><trkpt lat="43.9568867" lon="12.19995"><ele>163.66666666666666</ele><time>2026-04-12T15:55:59.011Z</time></trkpt><trkpt lat="43.9570733" lon="12.20002"><ele>165.33333333333331</ele><time>2026-04-12T15:56:00.014Z</time></trkpt><trkpt lat="43.9572583" lon="12.200075"><ele>167.0</ele><time>2026-04-12T15:56:01.016Z</time></trkpt><trkpt lat="43.9574417" lon="12.2001233"><ele>166.0</ele><time>2026-04-12T15:56:02.011Z</time></trkpt><trkpt lat="43.95762" lon="12.2001633"><ele>165.0</ele><time>2026-04-12T15:56:03.014Z</time></trkpt><trkpt lat="43.9577933" lon="12.2002"><ele>164.0</ele><time>2026-04-12T15:56:04.012Z</time></trkpt><trkpt lat="43.957965" lon="12.2002383"><ele>164.0</ele><time>2026-04-12T15:56:05.013Z</time></trkpt><trkpt lat="43.958135" lon="12.2002867"><ele>164.0</ele><time>2026-04-12T15:56:06.013Z</time></trkpt><trkpt lat="43.9583033" lon="12.200325"><ele>164.0</ele><time>2026-04-12T15:56:07.011Z</time></trkpt><trkpt lat="43.958475" lon="12.2003617"><ele>162.66666666666666</ele><time>2026-04-12T15:56:08.016Z</time></trkpt><trkpt lat="43.9586533" lon="12.2004067"><ele>161.33333333333334</ele><time>2026-04-12T15:56:09.012Z</time></trkpt><trkpt lat="43.9588333" lon="12.2004667"><ele>160.0</ele><time>2026-04-12T15:56:10.012Z</time></trkpt><trkpt lat="43.95902" lon="12.2005317"><ele>159.33333333333334</ele><time>2026-04-12T15:56:11.012Z</time></trkpt><trkpt lat="43.9592117" lon="12.20059"><ele>158.66666666666666</ele><time>2026-04-12T15:56:12.012Z</time></trkpt><trkpt lat="43.9594167" lon="12.2006367"><ele>158.0</ele><time>2026-04-12T15:56:13.013Z</time></trkpt><trkpt lat="43.9596333" lon="12.2006817"><ele>158.0</ele><time>2026-04-12T15:56:14.015Z</time></trkpt><trkpt lat="43.9598633" lon="12.20074"><ele>158.0</ele><time>2026-04-12T15:56:15.011Z</time></trkpt><trkpt lat="43.9601017" lon="12.2008033"><ele>158.0</ele><time>2026-04-12T15:56:16.011Z</time></trkpt><trkpt lat="43.9603517" lon="12.2008733"><ele>158.0</ele><time>2026-04-12T15:56:17.016Z</time></trkpt><trkpt lat="43.9606033" lon="12.20097"><ele>158.0</ele><time>2026-04-12T15:56:18.012Z</time></trkpt><trkpt lat="43.9608583" lon="12.2010717"><ele>158.0</ele><time>2026-04-12T15:56:19.012Z</time></trkpt><trkpt lat="43.96111" lon="12.201195"><ele>157.0</ele><time>2026-04-12T15:56:20.014Z</time></trkpt><trkpt lat="43.9613633" lon="12.2013183"><ele>156.0</ele><time>2026-04-12T15:56:21.011Z</time></trkpt><trkpt lat="43.9616117" lon="12.2014633"><ele>153.5</ele><time>2026-04-12T15:56:22.012Z</time></trkpt><trkpt lat="43.9618617" lon="12.2016017"><ele>151.0</ele><time>2026-04-12T15:56:23.011Z</time></trkpt><trkpt lat="43.962105" lon="12.2017467"><ele>151.0</ele><time>2026-04-12T15:56:24.014Z</time></trkpt><trkpt lat="43.962345" lon="12.201885"><ele>151.0</ele><time>2026-04-12T15:56:25.014Z</time></trkpt><trkpt lat="43.9625817" lon="12.2020117"><ele>142.0</ele><time>2026-04-12T15:56:26.012Z</time></trkpt><trkpt lat="43.96281" lon="12.2021383"><ele>133.0</ele><time>2026-04-12T15:56:27.014Z</time></trkpt><trkpt lat="43.96303" lon="12.20225"><ele>135.66666666666669</ele><time>2026-04-12T15:56:28.013Z</time></trkpt><trkpt lat="43.96324" lon="12.2023667"><ele>138.33333333333334</ele><time>2026-04-12T15:56:29.014Z</time></trkpt><trkpt lat="43.9634467" lon="12.2024833"><ele>141.0</ele><time>2026-04-12T15:56:30.012Z</time></trkpt><trkpt lat="43.9636483" lon="12.2025883"><ele>141.0</ele><time>2026-04-12T15:56:31.013Z</time></trkpt><trkpt lat="43.96385" lon="12.2026833"><ele>141.0</ele><time>2026-04-12T15:56:32.012Z</time></trkpt><trkpt lat="43.964055" lon="12.2027617"><ele>141.0</ele><time>2026-04-12T15:56:33.013Z</time></trkpt><trkpt lat="43.96426" lon="12.2028333"><ele>140.0</ele><time>2026-04-12T15:56:34.014Z</time></trkpt><trkpt lat="43.9644733" lon="12.2029033"><ele>139.0</ele><time>2026-04-12T15:56:35.012Z</time></trkpt><trkpt lat="43.9646933" lon="12.202955"><ele>138.0</ele><time>2026-04-12T15:56:36.013Z</time></trkpt><trkpt lat="43.9649217" lon="12.2029933"><ele>132.0</ele><time>2026-04-12T15:56:37.013Z</time></trkpt><trkpt lat="43.9651533" lon="12.2030267"><ele>126.0</ele><time>2026-04-12T15:56:38.012Z</time></trkpt><trkpt lat="43.9653917" lon="12.2030333"><ele>126.0</ele><time>2026-04-12T15:56:39.013Z</time></trkpt><trkpt lat="43.9656417" lon="12.203035"><ele>126.0</ele><time>2026-04-12T15:56:40.014Z</time></trkpt><trkpt lat="43.965885" lon="12.203035"><ele>127.0</ele><time>2026-04-12T15:56:41.011Z</time></trkpt><trkpt lat="43.9661233" lon="12.2030333"><ele>128.0</ele><time>2026-04-12T15:56:42.016Z</time></trkpt><trkpt lat="43.9663617" lon="12.203045"><ele>128.0</ele><time>2026-04-12T15:56:43.01Z</time></trkpt><trkpt lat="43.966605" lon="12.2030517"><ele>128.0</ele><time>2026-04-12T15:56:44.014Z</time></trkpt><trkpt lat="43.9668483" lon="12.2030583"><ele>128.0</ele><time>2026-04-12T15:56:45.013Z</time></trkpt><trkpt lat="43.9670917" lon="12.20306"><ele>128.0</ele><time>2026-04-12T15:56:46.014Z</time></trkpt><trkpt lat="43.9673367" lon="12.2030583"><ele>126.5</ele><time>2026-04-12T15:56:47.014Z</time></trkpt><trkpt lat="43.9675767" lon="12.2030567"><ele>125.0</ele><time>2026-04-12T15:56:48.012Z</time></trkpt><trkpt lat="43.9678183" lon="12.2030517"><ele>125.0</ele><time>2026-04-12T15:56:49.015Z</time></trkpt><trkpt lat="43.9680567" lon="12.20305"><ele>125.0</ele><time>2026-04-12T15:56:50.011Z</time></trkpt><trkpt lat="43.9682967" lon="12.2030433"><ele>124.0</ele><time>2026-04-12T15:56:51.013Z</time></trkpt><trkpt lat="43.968535" lon="12.2030517"><ele>123.0</ele><time>2026-04-12T15:56:52.012Z</time></trkpt><trkpt lat="43.9687717" lon="12.2030583"><ele>123.0</ele><time>2026-04-12T15:56:53.013Z</time></trkpt><trkpt lat="43.969015" lon="12.2030683"><ele>123.0</ele><time>2026-04-12T15:56:54.015Z</time></trkpt><trkpt lat="43.9692583" lon="12.2030733"><ele>122.0</ele><time>2026-04-12T15:56:55.014Z</time></trkpt><trkpt lat="43.9695" lon="12.2030733"><ele>121.0</ele><time>2026-04-12T15:56:56.016Z</time></trkpt><trkpt lat="43.9697483" lon="12.20308"><ele>121.0</ele><time>2026-04-12T15:56:57.012Z</time></trkpt><trkpt lat="43.9699967" lon="12.20309"><ele>121.0</ele><time>2026-04-12T15:56:58.013Z</time></trkpt><trkpt lat="43.9702467" lon="12.203115"><ele>121.5</ele><time>2026-04-12T15:56:59.012Z</time></trkpt><trkpt lat="43.970495" lon="12.2031333"><ele>122.0</ele><time>2026-04-12T15:57:00.014Z</time></trkpt><trkpt lat="43.9707433" lon="12.2031617"><ele>119.5</ele><time>2026-04-12T15:57:01.013Z</time></trkpt><trkpt lat="43.9709917" lon="12.20319"><ele>117.0</ele><time>2026-04-12T15:57:02.011Z</time></trkpt><trkpt lat="43.9712383" lon="12.2032217"><ele>117.0</ele><time>2026-04-12T15:57:03.014Z</time></trkpt><trkpt lat="43.9714867" lon="12.203255"><ele>117.0</ele><time>2026-04-12T15:57:04.012Z</time></trkpt><trkpt lat="43.9717317" lon="12.2032933"><ele>118.0</ele><time>2026-04-12T15:57:05.013Z</time></trkpt><trkpt lat="43.971975" lon="12.2033383"><ele>119.0</ele><time>2026-04-12T15:57:06.013Z</time></trkpt><trkpt lat="43.972215" lon="12.2033867"><ele>119.0</ele><time>2026-04-12T15:57:07.015Z</time></trkpt><trkpt lat="43.9724517" lon="12.2034267"><ele>119.0</ele><time>2026-04-12T15:57:08.013Z</time></trkpt><trkpt lat="43.9726867" lon="12.2034717"><ele>120.5</ele><time>2026-04-12T15:57:09.012Z</time></trkpt><trkpt lat="43.9729217" lon="12.2035133"><ele>122.0</ele><time>2026-04-12T15:57:10.014Z</time></trkpt><trkpt lat="43.9731567" lon="12.2035667"><ele>123.0</ele><time>2026-04-12T15:57:11.013Z</time></trkpt><trkpt lat="43.9733917" lon="12.203625"><ele>124.0</ele><time>2026-04-12T15:57:12.017Z</time></trkpt><trkpt lat="43.9736283" lon="12.2036867"><ele>124.0</ele><time>2026-04-12T15:57:13.013Z</time></trkpt><trkpt lat="43.9738617" lon="12.2037433"><ele>124.0</ele><time>2026-04-12T15:57:14.01Z</time></trkpt><trkpt lat="43.9740917" lon="12.2037817"><ele>119.0</ele><time>2026-04-12T15:57:15.013Z</time></trkpt><trkpt lat="43.974315" lon="12.2038333"><ele>114.0</ele><time>2026-04-12T15:57:16.012Z</time></trkpt><trkpt lat="43.9745433" lon="12.2038617"><ele>114.0</ele><time>2026-04-12T15:57:17.014Z</time></trkpt><trkpt lat="43.9747667" lon="12.2039117"><ele>114.0</ele><time>2026-04-12T15:57:18.013Z</time></trkpt><trkpt lat="43.9749917" lon="12.20396"><ele>112.5</ele><time>2026-04-12T15:57:19.012Z</time></trkpt><trkpt lat="43.9752183" lon="12.2040117"><ele>111.0</ele><time>2026-04-12T15:57:20.014Z</time></trkpt><trkpt lat="43.97545" lon="12.2040683"><ele>111.0</ele><time>2026-04-12T15:57:21.013Z</time></trkpt><trkpt lat="43.9756817" lon="12.2041267"><ele>111.0</ele><time>2026-04-12T15:57:22.014Z</time></trkpt><trkpt lat="43.9759133" lon="12.2041767"><ele>112.0</ele><time>2026-04-12T15:57:23.012Z</time></trkpt><trkpt lat="43.97615" lon="12.2042283"><ele>113.0</ele><time>2026-04-12T15:57:24.011Z</time></trkpt><trkpt lat="43.976385" lon="12.20428"><ele>113.0</ele><time>2026-04-12T15:57:25.014Z</time></trkpt><trkpt lat="43.97662" lon="12.2043333"><ele>113.0</ele><time>2026-04-12T15:57:26.012Z</time></trkpt><trkpt lat="43.9768567" lon="12.2043867"><ele>113.5</ele><time>2026-04-12T15:57:27.013Z</time></trkpt><trkpt lat="43.9771" lon="12.20444"><ele>114.0</ele><time>2026-04-12T15:57:28.012Z</time></trkpt><trkpt lat="43.9773467" lon="12.2045017"><ele>112.5</ele><time>2026-04-12T15:57:29.013Z</time></trkpt><trkpt lat="43.9775933" lon="12.204565"><ele>111.0</ele><time>2026-04-12T15:57:30.013Z</time></trkpt><trkpt lat="43.9778417" lon="12.204625"><ele>111.0</ele><time>2026-04-12T15:57:31.012Z</time></trkpt><trkpt lat="43.97809" lon="12.2046867"><ele>111.0</ele><time>2026-04-12T15:57:32.013Z</time></trkpt><trkpt lat="43.9783417" lon="12.204745"><ele>110.5</ele><time>2026-04-12T15:57:33.012Z</time></trkpt><trkpt lat="43.97859" lon="12.2048067"><ele>110.0</ele><time>2026-04-12T15:57:34.012Z</time></trkpt><trkpt lat="43.9788367" lon="12.2048667"><ele>110.0</ele><time>2026-04-12T15:57:35.012Z</time></trkpt><trkpt lat="43.979085" lon="12.204925"><ele>110.0</ele><time>2026-04-12T15:57:36.013Z</time></trkpt><trkpt lat="43.9793317" lon="12.2049817"><ele>109.0</ele><time>2026-04-12T15:57:37.013Z</time></trkpt><trkpt lat="43.9795783" lon="12.2050317"><ele>108.0</ele><time>2026-04-12T15:57:38.013Z</time></trkpt><trkpt lat="43.979825" lon="12.2050883"><ele>109.0</ele><time>2026-04-12T15:57:39.013Z</time></trkpt><trkpt lat="43.98007" lon="12.2051433"><ele>110.0</ele><time>2026-04-12T15:57:40.013Z</time></trkpt><trkpt lat="43.980315" lon="12.2051933"><ele>110.0</ele><time>2026-04-12T15:57:41.013Z</time></trkpt><trkpt lat="43.9805583" lon="12.205255"><ele>110.0</ele><time>2026-04-12T15:57:42.011Z</time></trkpt><trkpt lat="43.9808" lon="12.2053083"><ele>109.5</ele><time>2026-04-12T15:57:43.015Z</time></trkpt><trkpt lat="43.9810417" lon="12.2053617"><ele>109.0</ele><time>2026-04-12T15:57:44.015Z</time></trkpt><trkpt lat="43.9812817" lon="12.20541"><ele>109.0</ele><time>2026-04-12T15:57:45.012Z</time></trkpt><trkpt lat="43.9815183" lon="12.2054517"><ele>109.0</ele><time>2026-04-12T15:57:46.013Z</time></trkpt><trkpt lat="43.981755" lon="12.2054783"><ele>108.0</ele><time>2026-04-12T15:57:47.013Z</time></trkpt><trkpt lat="43.9819883" lon="12.205505"><ele>107.0</ele><time>2026-04-12T15:57:48.013Z</time></trkpt><trkpt lat="43.9822267" lon="12.20552"><ele>107.0</ele><time>2026-04-12T15:57:49.012Z</time></trkpt><trkpt lat="43.9824617" lon="12.205525"><ele>107.0</ele><time>2026-04-12T15:57:50.016Z</time></trkpt><trkpt lat="43.9826933" lon="12.20552"><ele>107.33333333333333</ele><time>2026-04-12T15:57:51.015Z</time></trkpt><trkpt lat="43.98292" lon="12.2055167"><ele>107.66666666666666</ele><time>2026-04-12T15:57:52.012Z</time></trkpt><trkpt lat="43.9831383" lon="12.20551"><ele>108.0</ele><time>2026-04-12T15:57:53.012Z</time></trkpt><trkpt lat="43.983345" lon="12.205505"><ele>107.0</ele><time>2026-04-12T15:57:54.015Z</time></trkpt><trkpt lat="43.9835433" lon="12.2055033"><ele>106.0</ele><time>2026-04-12T15:57:55.012Z</time></trkpt><trkpt lat="43.9837333" lon="12.205485"><ele>105.0</ele><time>2026-04-12T15:57:56.012Z</time></trkpt><trkpt lat="43.9839233" lon="12.2054783"><ele>105.0</ele><time>2026-04-12T15:57:57.013Z</time></trkpt><trkpt lat="43.9841133" lon="12.2054683"><ele>105.0</ele><time>2026-04-12T15:57:58.012Z</time></trkpt><trkpt lat="43.9843033" lon="12.2054567"><ele>105.0</ele><time>2026-04-12T15:57:59.015Z</time></trkpt><trkpt lat="43.9845" lon="12.2054467"><ele>104.66666666666666</ele><time>2026-04-12T15:58:00.014Z</time></trkpt><trkpt lat="43.9847" lon="12.205435"><ele>104.33333333333333</ele><time>2026-04-12T15:58:01.012Z</time></trkpt><trkpt lat="43.9848983" lon="12.205425"><ele>104.0</ele><time>2026-04-12T15:58:02.012Z</time></trkpt><trkpt lat="43.9850967" lon="12.20542"><ele>104.66666666666666</ele><time>2026-04-12T15:58:03.013Z</time></trkpt><trkpt lat="43.98529" lon="12.2054117"><ele>105.33333333333334</ele><time>2026-04-12T15:58:04.014Z</time></trkpt><trkpt lat="43.98548" lon="12.2054"><ele>106.0</ele><time>2026-04-12T15:58:05.013Z</time></trkpt><trkpt lat="43.98566" lon="12.2053933"><ele>106.0</ele><time>2026-04-12T15:58:06.012Z</time></trkpt><trkpt lat="43.985835" lon="12.205395"><ele>106.0</ele><time>2026-04-12T15:58:07.012Z</time></trkpt><trkpt lat="43.9860083" lon="12.2053867"><ele>106.0</ele><time>2026-04-12T15:58:08.015Z</time></trkpt><trkpt lat="43.9861817" lon="12.2053733"><ele>106.33333333333334</ele><time>2026-04-12T15:58:09.012Z</time></trkpt><trkpt lat="43.986355" lon="12.205365"><ele>106.66666666666666</ele><time>2026-04-12T15:58:10.012Z</time></trkpt><trkpt lat="43.9865283" lon="12.2053567"><ele>107.0</ele><time>2026-04-12T15:58:11.012Z</time></trkpt><trkpt lat="43.9867033" lon="12.20535"><ele>106.33333333333333</ele><time>2026-04-12T15:58:12.016Z</time></trkpt><trkpt lat="43.9868833" lon="12.2053433"><ele>105.66666666666666</ele><time>2026-04-12T15:58:13.013Z</time></trkpt><trkpt lat="43.9870667" lon="12.20533"><ele>105.0</ele><time>2026-04-12T15:58:14.012Z</time></trkpt><trkpt lat="43.9872533" lon="12.2053167"><ele>105.0</ele><time>2026-04-12T15:58:15.014Z</time></trkpt><trkpt lat="43.98744" lon="12.2052967"><ele>105.0</ele><time>2026-04-12T15:58:16.013Z</time></trkpt><trkpt lat="43.9876333" lon="12.2052717"><ele>105.0</ele><time>2026-04-12T15:58:17.011Z</time></trkpt><trkpt lat="43.987825" lon="12.2052483"><ele>104.33333333333334</ele><time>2026-04-12T15:58:18.013Z</time></trkpt><trkpt lat="43.9880167" lon="12.205225"><ele>103.66666666666667</ele><time>2026-04-12T15:58:19.013Z</time></trkpt><trkpt lat="43.9882083" lon="12.2052017"><ele>103.0</ele><time>2026-04-12T15:58:20.011Z</time></trkpt><trkpt lat="43.9884" lon="12.2051783"><ele>102.0</ele><time>2026-04-12T15:58:21.014Z</time></trkpt><trkpt lat="43.98859" lon="12.2051517"><ele>101.0</ele><time>2026-04-12T15:58:22.014Z</time></trkpt><trkpt lat="43.9887833" lon="12.2051233"><ele>100.0</ele><time>2026-04-12T15:58:23.014Z</time></trkpt><trkpt lat="43.9889767" lon="12.205095"><ele>100.0</ele><time>2026-04-12T15:58:24.012Z</time></trkpt><trkpt lat="43.98917" lon="12.205065"><ele>100.0</ele><time>2026-04-12T15:58:25.013Z</time></trkpt><trkpt lat="43.989365" lon="12.2050317"><ele>100.0</ele><time>2026-04-12T15:58:26.012Z</time></trkpt><trkpt lat="43.98956" lon="12.205005"><ele>99.0</ele><time>2026-04-12T15:58:27.014Z</time></trkpt><trkpt lat="43.9897567" lon="12.204985"><ele>98.0</ele><time>2026-04-12T15:58:28.013Z</time></trkpt><trkpt lat="43.98996" lon="12.2049517"><ele>97.0</ele><time>2026-04-12T15:58:29.013Z</time></trkpt><trkpt lat="43.99016" lon="12.20492"><ele>97.0</ele><time>2026-04-12T15:58:30.015Z</time></trkpt><trkpt lat="43.9903617" lon="12.2048933"><ele>97.0</ele><time>2026-04-12T15:58:31.014Z</time></trkpt><trkpt lat="43.9905683" lon="12.2048633"><ele>97.0</ele><time>2026-04-12T15:58:32.014Z</time></trkpt><trkpt lat="43.990775" lon="12.2048333"><ele>97.0</ele><time>2026-04-12T15:58:33.011Z</time></trkpt><trkpt lat="43.9909783" lon="12.2047983"><ele>97.0</ele><time>2026-04-12T15:58:34.014Z</time></trkpt><trkpt lat="43.9911867" lon="12.204765"><ele>97.0</ele><time>2026-04-12T15:58:35.012Z</time></trkpt><trkpt lat="43.9913933" lon="12.2047317"><ele>97.0</ele><time>2026-04-12T15:58:36.014Z</time></trkpt><trkpt lat="43.9916017" lon="12.2046933"><ele>97.0</ele><time>2026-04-12T15:58:37.013Z</time></trkpt><trkpt lat="43.991815" lon="12.2046683"><ele>97.0</ele><time>2026-04-12T15:58:38.013Z</time></trkpt><trkpt lat="43.9920267" lon="12.20464"><ele>97.0</ele><time>2026-04-12T15:58:39.014Z</time></trkpt><trkpt lat="43.9922383" lon="12.2046067"><ele>97.0</ele><time>2026-04-12T15:58:40.014Z</time></trkpt><trkpt lat="43.9924483" lon="12.2045767"><ele>97.0</ele><time>2026-04-12T15:58:41.014Z</time></trkpt><trkpt lat="43.9926583" lon="12.2045483"><ele>97.0</ele><time>2026-04-12T15:58:42.012Z</time></trkpt><trkpt lat="43.9928683" lon="12.2045283"><ele>97.0</ele><time>2026-04-12T15:58:43.013Z</time></trkpt><trkpt lat="43.9930767" lon="12.2044983"><ele>97.0</ele><time>2026-04-12T15:58:44.013Z</time></trkpt><trkpt lat="43.99329" lon="12.204475"><ele>96.66666666666667</ele><time>2026-04-12T15:58:45.011Z</time></trkpt><trkpt lat="43.993505" lon="12.2044483"><ele>96.33333333333334</ele><time>2026-04-12T15:58:46.012Z</time></trkpt><trkpt lat="43.9937217" lon="12.2044233"><ele>96.0</ele><time>2026-04-12T15:58:47.013Z</time></trkpt><trkpt lat="43.99394" lon="12.204395"><ele>96.0</ele><time>2026-04-12T15:58:48.015Z</time></trkpt><trkpt lat="43.9941567" lon="12.2043617"><ele>96.0</ele><time>2026-04-12T15:58:49.011Z</time></trkpt><trkpt lat="43.9943733" lon="12.20433"><ele>96.0</ele><time>2026-04-12T15:58:50.012Z</time></trkpt><trkpt lat="43.9945917" lon="12.204305"><ele>95.66666666666667</ele><time>2026-04-12T15:58:51.012Z</time></trkpt><trkpt lat="43.994805" lon="12.2042733"><ele>95.33333333333334</ele><time>2026-04-12T15:58:52.015Z</time></trkpt><trkpt lat="43.9950217" lon="12.2042417"><ele>95.0</ele><time>2026-04-12T15:58:53.015Z</time></trkpt><trkpt lat="43.9952367" lon="12.2042033"><ele>96.33333333333334</ele><time>2026-04-12T15:58:54.012Z</time></trkpt><trkpt lat="43.995455" lon="12.204175"><ele>97.66666666666667</ele><time>2026-04-12T15:58:55.013Z</time></trkpt><trkpt lat="43.99567" lon="12.2041483"><ele>99.0</ele><time>2026-04-12T15:58:56.011Z</time></trkpt><trkpt lat="43.9958833" lon="12.204115"><ele>99.66666666666666</ele><time>2026-04-12T15:58:57.011Z</time></trkpt><trkpt lat="43.9960983" lon="12.20408"><ele>100.33333333333333</ele><time>2026-04-12T15:58:58.018Z</time></trkpt><trkpt lat="43.9963117" lon="12.20404"><ele>101.0</ele><time>2026-04-12T15:58:59.014Z</time></trkpt><trkpt lat="43.996525" lon="12.2040067"><ele>99.66666666666666</ele><time>2026-04-12T15:59:00.013Z</time></trkpt><trkpt lat="43.99674" lon="12.2039717"><ele>98.33333333333334</ele><time>2026-04-12T15:59:01.013Z</time></trkpt><trkpt lat="43.9969533" lon="12.2039317"><ele>97.0</ele><time>2026-04-12T15:59:02.012Z</time></trkpt><trkpt lat="43.9971683" lon="12.203905"><ele>97.0</ele><time>2026-04-12T15:59:03.013Z</time></trkpt><trkpt lat="43.99738" lon="12.2038717"><ele>97.0</ele><time>2026-04-12T15:59:04.012Z</time></trkpt><trkpt lat="43.9975917" lon="12.203845"><ele>97.0</ele><time>2026-04-12T15:59:05.013Z</time></trkpt><trkpt lat="43.997805" lon="12.203815"><ele>96.66666666666667</ele><time>2026-04-12T15:59:06.017Z</time></trkpt><trkpt lat="43.9980183" lon="12.20379"><ele>96.33333333333334</ele><time>2026-04-12T15:59:07.016Z</time></trkpt><trkpt lat="43.9982317" lon="12.2037767"><ele>96.0</ele><time>2026-04-12T15:59:08.012Z</time></trkpt><trkpt lat="43.9984517" lon="12.2037567"><ele>96.66666666666666</ele><time>2026-04-12T15:59:09.013Z</time></trkpt><trkpt lat="43.9986667" lon="12.2037467"><ele>97.33333333333333</ele><time>2026-04-12T15:59:10.012Z</time></trkpt><trkpt lat="43.9988833" lon="12.20373"><ele>98.0</ele><time>2026-04-12T15:59:11.01Z</time></trkpt><trkpt lat="43.9991033" lon="12.203715"><ele>96.66666666666666</ele><time>2026-04-12T15:59:12.013Z</time></trkpt><trkpt lat="43.9993217" lon="12.2036983"><ele>95.33333333333333</ele><time>2026-04-12T15:59:13.011Z</time></trkpt><trkpt lat="43.99954" lon="12.203685"><ele>94.0</ele><time>2026-04-12T15:59:14.013Z</time></trkpt><trkpt lat="43.99976" lon="12.20367"><ele>94.0</ele><time>2026-04-12T15:59:15.012Z</time></trkpt><trkpt lat="43.9999783" lon="12.2036533"><ele>94.0</ele><time>2026-04-12T15:59:16.013Z</time></trkpt><trkpt lat="44.0002017" lon="12.2036317"><ele>94.0</ele><time>2026-04-12T15:59:17.012Z</time></trkpt><trkpt lat="44.000425" lon="12.203615"><ele>94.0</ele><time>2026-04-12T15:59:18.011Z</time></trkpt><trkpt lat="44.0006517" lon="12.2036"><ele>94.0</ele><time>2026-04-12T15:59:19.015Z</time></trkpt><trkpt lat="44.0008783" lon="12.20358"><ele>93.0</ele><time>2026-04-12T15:59:20.012Z</time></trkpt><trkpt lat="44.0011067" lon="12.20356"><ele>92.0</ele><time>2026-04-12T15:59:21.014Z</time></trkpt><trkpt lat="44.0013367" lon="12.2035483"><ele>92.0</ele><time>2026-04-12T15:59:22.018Z</time></trkpt><trkpt lat="44.0015683" lon="12.2035367"><ele>92.0</ele><time>2026-04-12T15:59:23.013Z</time></trkpt><trkpt lat="44.0017967" lon="12.20353"><ele>90.5</ele><time>2026-04-12T15:59:24.011Z</time></trkpt><trkpt lat="44.002025" lon="12.2035167"><ele>89.0</ele><time>2026-04-12T15:59:25.018Z</time></trkpt><trkpt lat="44.00225" lon="12.2035083"><ele>89.0</ele><time>2026-04-12T15:59:26.011Z</time></trkpt><trkpt lat="44.002475" lon="12.203505"><ele>89.0</ele><time>2026-04-12T15:59:27.013Z</time></trkpt><trkpt lat="44.0026967" lon="12.203495"><ele>89.0</ele><time>2026-04-12T15:59:28.014Z</time></trkpt><trkpt lat="44.00292" lon="12.203485"><ele>89.33333333333334</ele><time>2026-04-12T15:59:29.012Z</time></trkpt><trkpt lat="44.00314" lon="12.2034683"><ele>89.66666666666667</ele><time>2026-04-12T15:59:30.01Z</time></trkpt><trkpt lat="44.0033583" lon="12.2034533"><ele>90.0</ele><time>2026-04-12T15:59:31.014Z</time></trkpt><trkpt lat="44.00358" lon="12.2034383"><ele>89.0</ele><time>2026-04-12T15:59:32.014Z</time></trkpt><trkpt lat="44.00381" lon="12.2034267"><ele>88.0</ele><time>2026-04-12T15:59:33.016Z</time></trkpt><trkpt lat="44.0040467" lon="12.2034033"><ele>88.5</ele><time>2026-04-12T15:59:34.013Z</time></trkpt><trkpt lat="44.0042917" lon="12.2033833"><ele>89.0</ele><time>2026-04-12T15:59:35.011Z</time></trkpt><trkpt lat="44.0045467" lon="12.2033667"><ele>89.0</ele><time>2026-04-12T15:59:36.012Z</time></trkpt><trkpt lat="44.0048083" lon="12.2033483"><ele>89.0</ele><time>2026-04-12T15:59:37.012Z</time></trkpt><trkpt lat="44.0050733" lon="12.2033217"><ele>88.5</ele><time>2026-04-12T15:59:38.014Z</time></trkpt><trkpt lat="44.0053417" lon="12.2033067"><ele>88.0</ele><time>2026-04-12T15:59:39.014Z</time></trkpt><trkpt lat="44.0056117" lon="12.20329"><ele>88.0</ele><time>2026-04-12T15:59:40.012Z</time></trkpt><trkpt lat="44.0058817" lon="12.20327"><ele>88.0</ele><time>2026-04-12T15:59:41.013Z</time></trkpt><trkpt lat="44.0061533" lon="12.2032433"><ele>88.0</ele><time>2026-04-12T15:59:42.012Z</time></trkpt><trkpt lat="44.006425" lon="12.203225"><ele>88.0</ele><time>2026-04-12T15:59:43.016Z</time></trkpt><trkpt lat="44.0066967" lon="12.2032067"><ele>88.5</ele><time>2026-04-12T15:59:44.012Z</time></trkpt><trkpt lat="44.0069717" lon="12.20319"><ele>89.0</ele><time>2026-04-12T15:59:45.014Z</time></trkpt><trkpt lat="44.0072467" lon="12.2031717"><ele>88.0</ele><time>2026-04-12T15:59:46.014Z</time></trkpt><trkpt lat="44.0075233" lon="12.2031533"><ele>87.0</ele><time>2026-04-12T15:59:47.013Z</time></trkpt><trkpt lat="44.0078017" lon="12.203135"><ele>87.0</ele><time>2026-04-12T15:59:48.011Z</time></trkpt><trkpt lat="44.0080817" lon="12.2031233"><ele>87.0</ele><time>2026-04-12T15:59:49.014Z</time></trkpt><trkpt lat="44.0083633" lon="12.20312"><ele>87.0</ele><time>2026-04-12T15:59:50.014Z</time></trkpt><trkpt lat="44.0086433" lon="12.2031067"><ele>87.0</ele><time>2026-04-12T15:59:51.012Z</time></trkpt><trkpt lat="44.008925" lon="12.2030817"><ele>86.5</ele><time>2026-04-12T15:59:52.012Z</time></trkpt><trkpt lat="44.0092067" lon="12.2030683"><ele>86.0</ele><time>2026-04-12T15:59:53.012Z</time></trkpt><trkpt lat="44.0094883" lon="12.2030417"><ele>86.0</ele><time>2026-04-12T15:59:54.018Z</time></trkpt><trkpt lat="44.00977" lon="12.2030367"><ele>86.0</ele><time>2026-04-12T15:59:55.012Z</time></trkpt><trkpt lat="44.0100483" lon="12.2030433"><ele>86.0</ele><time>2026-04-12T15:59:56.011Z</time></trkpt><trkpt lat="44.010325" lon="12.2030533"><ele>86.0</ele><time>2026-04-12T15:59:57.014Z</time></trkpt><trkpt lat="44.0106017" lon="12.2030567"><ele>87.0</ele><time>2026-04-12T15:59:58.012Z</time></trkpt><trkpt lat="44.0108767" lon="12.2030783"><ele>88.0</ele><time>2026-04-12T15:59:59.012Z</time></trkpt><trkpt lat="44.0111483" lon="12.203115"><ele>88.5</ele><time>2026-04-12T16:00:00.013Z</time></trkpt><trkpt lat="44.0114183" lon="12.2031767"><ele>89.0</ele><time>2026-04-12T16:00:01.014Z</time></trkpt><trkpt lat="44.0116867" lon="12.2032433"><ele>88.0</ele><time>2026-04-12T16:00:02.014Z</time></trkpt><trkpt lat="44.011955" lon="12.2033317"><ele>87.0</ele><time>2026-04-12T16:00:03.013Z</time></trkpt><trkpt lat="44.0122217" lon="12.2034217"><ele>87.0</ele><time>2026-04-12T16:00:04.017Z</time></trkpt><trkpt lat="44.0124867" lon="12.2035217"><ele>87.0</ele><time>2026-04-12T16:00:05.013Z</time></trkpt><trkpt lat="44.0127467" lon="12.2036417"><ele>86.5</ele><time>2026-04-12T16:00:06.011Z</time></trkpt><trkpt lat="44.0130067" lon="12.20375"><ele>86.0</ele><time>2026-04-12T16:00:07.014Z</time></trkpt><trkpt lat="44.01327" lon="12.2038533"><ele>86.5</ele><time>2026-04-12T16:00:08.012Z</time></trkpt><trkpt lat="44.0135333" lon="12.2039583"><ele>87.0</ele><time>2026-04-12T16:00:09.017Z</time></trkpt><trkpt lat="44.0137917" lon="12.204065"><ele>87.0</ele><time>2026-04-12T16:00:10.012Z</time></trkpt><trkpt lat="44.0140524" lon="12.2041708"><ele>87.0</ele><time>2026-04-12T16:00:11.011Z</time></trkpt><trkpt lat="44.0143129" lon="12.204282"><ele>86.5</ele><time>2026-04-12T16:00:12.013Z</time></trkpt><trkpt lat="44.014574" lon="12.2043947"><ele>86.0</ele><time>2026-04-12T16:00:13.014Z</time></trkpt><trkpt lat="44.0148302" lon="12.2045028"><ele>86.0</ele><time>2026-04-12T16:00:14.013Z</time></trkpt><trkpt lat="44.015074" lon="12.2045949"><ele>86.0</ele><time>2026-04-12T16:00:15.012Z</time></trkpt><trkpt lat="44.0153092" lon="12.2046637"><ele>86.0</ele><time>2026-04-12T16:00:16.012Z</time></trkpt><trkpt lat="44.015533" lon="12.204723"><ele>86.0</ele><time>2026-04-12T16:00:17.012Z</time></trkpt><trkpt lat="44.0157505" lon="12.2047706"><ele>86.0</ele><time>2026-04-12T16:00:18.012Z</time></trkpt><trkpt lat="44.0159677" lon="12.2048048"><ele>86.0</ele><time>2026-04-12T16:00:19.013Z</time></trkpt><trkpt lat="44.0161826" lon="12.2048304"><ele>86.0</ele><time>2026-04-12T16:00:20.012Z</time></trkpt><trkpt lat="44.0163947" lon="12.2048418"><ele>86.0</ele><time>2026-04-12T16:00:21.016Z</time></trkpt><trkpt lat="44.0166081" lon="12.2048395"><ele>86.0</ele><time>2026-04-12T16:00:22.01Z</time></trkpt><trkpt lat="44.0168228" lon="12.2048299"><ele>86.0</ele><time>2026-04-12T16:00:23.012Z</time></trkpt><trkpt lat="44.01704" lon="12.2048136"><ele>86.0</ele><time>2026-04-12T16:00:24.015Z</time></trkpt><trkpt lat="44.0172604" lon="12.2047856"><ele>85.33333333333334</ele><time>2026-04-12T16:00:25.015Z</time></trkpt><trkpt lat="44.0174817" lon="12.2047473"><ele>84.66666666666667</ele><time>2026-04-12T16:00:26.013Z</time></trkpt><trkpt lat="44.0177052" lon="12.2046973"><ele>84.0</ele><time>2026-04-12T16:00:27.012Z</time></trkpt><trkpt lat="44.0179301" lon="12.2046309"><ele>83.5</ele><time>2026-04-12T16:00:28.015Z</time></trkpt><trkpt lat="44.0181583" lon="12.2045549"><ele>83.0</ele><time>2026-04-12T16:00:29.013Z</time></trkpt><trkpt lat="44.0183886" lon="12.2044748"><ele>85.0</ele><time>2026-04-12T16:00:30.014Z</time></trkpt><trkpt lat="44.0186187" lon="12.2043864"><ele>87.0</ele><time>2026-04-12T16:00:31.011Z</time></trkpt><trkpt lat="44.0188544" lon="12.2043068"><ele>87.0</ele><time>2026-04-12T16:00:32.012Z</time></trkpt><trkpt lat="44.0190912" lon="12.2042292"><ele>87.0</ele><time>2026-04-12T16:00:33.013Z</time></trkpt><trkpt lat="44.0193284" lon="12.2041461"><ele>87.0</ele><time>2026-04-12T16:00:34.014Z</time></trkpt><trkpt lat="44.0195682" lon="12.2040629"><ele>87.0</ele><time>2026-04-12T16:00:35.014Z</time></trkpt><trkpt lat="44.0198099" lon="12.2039829"><ele>87.0</ele><time>2026-04-12T16:00:36.012Z</time></trkpt><trkpt lat="44.0200493" lon="12.2038949"><ele>87.0</ele><time>2026-04-12T16:00:37.014Z</time></trkpt><trkpt lat="44.0202913" lon="12.2038077"><ele>87.0</ele><time>2026-04-12T16:00:38.014Z</time></trkpt><trkpt lat="44.0205324" lon="12.2037208"><ele>87.0</ele><time>2026-04-12T16:00:39.017Z</time></trkpt><trkpt lat="44.0207761" lon="12.2036362"><ele>88.0</ele><time>2026-04-12T16:00:40.015Z</time></trkpt><trkpt lat="44.0210196" lon="12.2035536"><ele>89.0</ele><time>2026-04-12T16:00:41.013Z</time></trkpt><trkpt lat="44.021262" lon="12.2034608"><ele>89.0</ele><time>2026-04-12T16:00:42.013Z</time></trkpt><trkpt lat="44.0215067" lon="12.203365"><ele>89.0</ele><time>2026-04-12T16:00:43.012Z</time></trkpt><trkpt lat="44.02175" lon="12.203275"><ele>88.0</ele><time>2026-04-12T16:00:44.012Z</time></trkpt><trkpt lat="44.0219933" lon="12.2031867"><ele>87.0</ele><time>2026-04-12T16:00:45.014Z</time></trkpt><trkpt lat="44.0222333" lon="12.20309"><ele>86.5</ele><time>2026-04-12T16:00:46.013Z</time></trkpt><trkpt lat="44.022475" lon="12.202995"><ele>86.0</ele><time>2026-04-12T16:00:47.013Z</time></trkpt><trkpt lat="44.0227183" lon="12.2029067"><ele>86.0</ele><time>2026-04-12T16:00:48.012Z</time></trkpt><trkpt lat="44.0229617" lon="12.2028233"><ele>86.0</ele><time>2026-04-12T16:00:49.011Z</time></trkpt><trkpt lat="44.0232067" lon="12.20274"><ele>84.5</ele><time>2026-04-12T16:00:50.011Z</time></trkpt><trkpt lat="44.0234533" lon="12.2026583"><ele>83.0</ele><time>2026-04-12T16:00:51.012Z</time></trkpt><trkpt lat="44.0236967" lon="12.2025733"><ele>83.0</ele><time>2026-04-12T16:00:52.013Z</time></trkpt><trkpt lat="44.023945" lon="12.2024917"><ele>83.0</ele><time>2026-04-12T16:00:53.013Z</time></trkpt><trkpt lat="44.024195" lon="12.2024083"><ele>81.5</ele><time>2026-04-12T16:00:54.012Z</time></trkpt><trkpt lat="44.024445" lon="12.2023167"><ele>80.0</ele><time>2026-04-12T16:00:55.013Z</time></trkpt><trkpt lat="44.02469" lon="12.202215"><ele>80.0</ele><time>2026-04-12T16:00:56.013Z</time></trkpt><trkpt lat="44.024935" lon="12.2021017"><ele>80.0</ele><time>2026-04-12T16:00:57.016Z</time></trkpt><trkpt lat="44.0251767" lon="12.2019767"><ele>80.0</ele><time>2026-04-12T16:00:58.015Z</time></trkpt><trkpt lat="44.0254167" lon="12.2018417"><ele>80.0</ele><time>2026-04-12T16:00:59.012Z</time></trkpt><trkpt lat="44.0256583" lon="12.2017"><ele>80.0</ele><time>2026-04-12T16:01:00.013Z</time></trkpt><trkpt lat="44.0258933" lon="12.20154"><ele>80.0</ele><time>2026-04-12T16:01:01.015Z</time></trkpt><trkpt lat="44.0261267" lon="12.2013767"><ele>78.5</ele><time>2026-04-12T16:01:02.014Z</time></trkpt><trkpt lat="44.0263583" lon="12.2012"><ele>77.0</ele><time>2026-04-12T16:01:03.013Z</time></trkpt><trkpt lat="44.026585" lon="12.2010117"><ele>77.0</ele><time>2026-04-12T16:01:04.011Z</time></trkpt><trkpt lat="44.0268067" lon="12.20081"><ele>77.0</ele><time>2026-04-12T16:01:05.012Z</time></trkpt><trkpt lat="44.0270283" lon="12.2006067"><ele>77.0</ele><time>2026-04-12T16:01:06.012Z</time></trkpt><trkpt lat="44.0272417" lon="12.2003883"><ele>77.0</ele><time>2026-04-12T16:01:07.013Z</time></trkpt><trkpt lat="44.02745" lon="12.20016"><ele>77.0</ele><time>2026-04-12T16:01:08.012Z</time></trkpt><trkpt lat="44.0276583" lon="12.1999333"><ele>77.0</ele><time>2026-04-12T16:01:09.016Z</time></trkpt><trkpt lat="44.0278633" lon="12.1996983"><ele>76.0</ele><time>2026-04-12T16:01:10.013Z</time></trkpt><trkpt lat="44.02807" lon="12.199465"><ele>75.0</ele><time>2026-04-12T16:01:11.011Z</time></trkpt><trkpt lat="44.02828" lon="12.1992367"><ele>75.5</ele><time>2026-04-12T16:01:12.012Z</time></trkpt><trkpt lat="44.0284917" lon="12.199015"><ele>76.0</ele><time>2026-04-12T16:01:13.013Z</time></trkpt><trkpt lat="44.0287" lon="12.1987917"><ele>75.0</ele><time>2026-04-12T16:01:14.013Z</time></trkpt><trkpt lat="44.0289067" lon="12.1985617"><ele>74.0</ele><time>2026-04-12T16:01:15.013Z</time></trkpt><trkpt lat="44.0291117" lon="12.1983333"><ele>75.5</ele><time>2026-04-12T16:01:16.014Z</time></trkpt><trkpt lat="44.029315" lon="12.1981017"><ele>77.0</ele><time>2026-04-12T16:01:17.013Z</time></trkpt><trkpt lat="44.0295183" lon="12.197875"><ele>77.0</ele><time>2026-04-12T16:01:18.012Z</time></trkpt><trkpt lat="44.0297183" lon="12.197645"><ele>77.0</ele><time>2026-04-12T16:01:19.015Z</time></trkpt><trkpt lat="44.0299283" lon="12.1974333"><ele>78.5</ele><time>2026-04-12T16:01:20.012Z</time></trkpt><trkpt lat="44.030125" lon="12.1972033"><ele>80.0</ele><time>2026-04-12T16:01:21.015Z</time></trkpt><trkpt lat="44.0303267" lon="12.1969917"><ele>80.0</ele><time>2026-04-12T16:01:22.012Z</time></trkpt><trkpt lat="44.0305233" lon="12.1967733"><ele>80.0</ele><time>2026-04-12T16:01:23.011Z</time></trkpt><trkpt lat="44.0307217" lon="12.1965583"><ele>83.5</ele><time>2026-04-12T16:01:24.011Z</time></trkpt><trkpt lat="44.03092" lon="12.1963483"><ele>87.0</ele><time>2026-04-12T16:01:25.012Z</time></trkpt><trkpt lat="44.0311067" lon="12.196125"><ele>87.0</ele><time>2026-04-12T16:01:26.013Z</time></trkpt><trkpt lat="44.0312983" lon="12.19591"><ele>87.0</ele><time>2026-04-12T16:01:27.012Z</time></trkpt><trkpt lat="44.031495" lon="12.1957033"><ele>86.0</ele><time>2026-04-12T16:01:28.013Z</time></trkpt><trkpt lat="44.0316783" lon="12.19548"><ele>85.0</ele><time>2026-04-12T16:01:29.012Z</time></trkpt><trkpt lat="44.0318667" lon="12.1952633"><ele>85.0</ele><time>2026-04-12T16:01:30.013Z</time></trkpt><trkpt lat="44.0320567" lon="12.1950533"><ele>85.0</ele><time>2026-04-12T16:01:31.013Z</time></trkpt><trkpt lat="44.0322467" lon="12.194845"><ele>86.0</ele><time>2026-04-12T16:01:32.012Z</time></trkpt><trkpt lat="44.0324383" lon="12.19464"><ele>87.0</ele><time>2026-04-12T16:01:33.012Z</time></trkpt><trkpt lat="44.032625" lon="12.1944233"><ele>80.0</ele><time>2026-04-12T16:01:34.011Z</time></trkpt><trkpt lat="44.0328083" lon="12.1942067"><ele>73.0</ele><time>2026-04-12T16:01:35.02Z</time></trkpt><trkpt lat="44.0329917" lon="12.1939933"><ele>73.0</ele><time>2026-04-12T16:01:36.012Z</time></trkpt><trkpt lat="44.0331767" lon="12.1937867"><ele>73.0</ele><time>2026-04-12T16:01:37.014Z</time></trkpt><trkpt lat="44.03336" lon="12.193575"><ele>73.5</ele><time>2026-04-12T16:01:38.011Z</time></trkpt><trkpt lat="44.033545" lon="12.1933667"><ele>74.0</ele><time>2026-04-12T16:01:39.015Z</time></trkpt><trkpt lat="44.03373" lon="12.1931567"><ele>73.0</ele><time>2026-04-12T16:01:40.016Z</time></trkpt><trkpt lat="44.03391" lon="12.19294"><ele>72.0</ele><time>2026-04-12T16:01:41.012Z</time></trkpt><trkpt lat="44.0340967" lon="12.1927317"><ele>72.0</ele><time>2026-04-12T16:01:42.012Z</time></trkpt><trkpt lat="44.0342833" lon="12.192525"><ele>72.0</ele><time>2026-04-12T16:01:43.011Z</time></trkpt><trkpt lat="44.0344683" lon="12.192315"><ele>71.0</ele><time>2026-04-12T16:01:44.011Z</time></trkpt><trkpt lat="44.0346533" lon="12.192105"><ele>70.0</ele><time>2026-04-12T16:01:45.014Z</time></trkpt><trkpt lat="44.0348383" lon="12.1919"><ele>70.5</ele><time>2026-04-12T16:01:46.015Z</time></trkpt><trkpt lat="44.0350233" lon="12.1916933"><ele>71.0</ele><time>2026-04-12T16:01:47.016Z</time></trkpt><trkpt lat="44.0352133" lon="12.1914983"><ele>71.0</ele><time>2026-04-12T16:01:48.014Z</time></trkpt><trkpt lat="44.0354033" lon="12.1913017"><ele>71.0</ele><time>2026-04-12T16:01:49.013Z</time></trkpt><trkpt lat="44.0355967" lon="12.1911067"><ele>71.0</ele><time>2026-04-12T16:01:50.014Z</time></trkpt><trkpt lat="44.0357967" lon="12.1909133"><ele>71.0</ele><time>2026-04-12T16:01:51.014Z</time></trkpt><trkpt lat="44.0360117" lon="12.1907333"><ele>71.5</ele><time>2026-04-12T16:01:52.017Z</time></trkpt><trkpt lat="44.0362283" lon="12.1905567"><ele>72.0</ele><time>2026-04-12T16:01:53.011Z</time></trkpt><trkpt lat="44.036445" lon="12.1903883"><ele>72.5</ele><time>2026-04-12T16:01:54.012Z</time></trkpt><trkpt lat="44.03666" lon="12.1902317"><ele>73.0</ele><time>2026-04-12T16:01:55.011Z</time></trkpt><trkpt lat="44.036875" lon="12.1900783"><ele>73.0</ele><time>2026-04-12T16:01:56.014Z</time></trkpt><trkpt lat="44.0370917" lon="12.189935"><ele>73.0</ele><time>2026-04-12T16:01:57.012Z</time></trkpt><trkpt lat="44.0373083" lon="12.189805"><ele>73.0</ele><time>2026-04-12T16:01:58.016Z</time></trkpt><trkpt lat="44.0375267" lon="12.189685"><ele>73.0</ele><time>2026-04-12T16:01:59.012Z</time></trkpt><trkpt lat="44.0377433" lon="12.1895667"><ele>73.0</ele><time>2026-04-12T16:02:00.012Z</time></trkpt><trkpt lat="44.0379567" lon="12.1894533"><ele>73.0</ele><time>2026-04-12T16:02:01.012Z</time></trkpt><trkpt lat="44.0381683" lon="12.189335"><ele>73.5</ele><time>2026-04-12T16:02:02.013Z</time></trkpt><trkpt lat="44.0383783" lon="12.189215"><ele>74.0</ele><time>2026-04-12T16:02:03.016Z</time></trkpt><trkpt lat="44.0385883" lon="12.189085"><ele>72.5</ele><time>2026-04-12T16:02:04.012Z</time></trkpt><trkpt lat="44.0387983" lon="12.1889567"><ele>71.0</ele><time>2026-04-12T16:02:05.013Z</time></trkpt><trkpt lat="44.039015" lon="12.1888383"><ele>70.5</ele><time>2026-04-12T16:02:06.013Z</time></trkpt><trkpt lat="44.039235" lon="12.1887133"><ele>70.0</ele><time>2026-04-12T16:02:07.011Z</time></trkpt><trkpt lat="44.0394567" lon="12.1885833"><ele>70.0</ele><time>2026-04-12T16:02:08.011Z</time></trkpt><trkpt lat="44.03968" lon="12.1884533"><ele>70.0</ele><time>2026-04-12T16:02:09.012Z</time></trkpt><trkpt lat="44.0399033" lon="12.188325"><ele>70.0</ele><time>2026-04-12T16:02:10.01Z</time></trkpt><trkpt lat="44.04013" lon="12.1881983"><ele>70.0</ele><time>2026-04-12T16:02:11.012Z</time></trkpt><trkpt lat="44.0403583" lon="12.1880733"><ele>69.0</ele><time>2026-04-12T16:02:12.011Z</time></trkpt><trkpt lat="44.0405883" lon="12.1879533"><ele>68.0</ele><time>2026-04-12T16:02:13.016Z</time></trkpt><trkpt lat="44.0408167" lon="12.187825"><ele>68.0</ele><time>2026-04-12T16:02:14.013Z</time></trkpt><trkpt lat="44.041045" lon="12.1877"><ele>68.0</ele><time>2026-04-12T16:02:15.013Z</time></trkpt><trkpt lat="44.0412733" lon="12.187575"><ele>68.0</ele><time>2026-04-12T16:02:16.01Z</time></trkpt><trkpt lat="44.0414983" lon="12.1874467"><ele>68.0</ele><time>2026-04-12T16:02:17.011Z</time></trkpt><trkpt lat="44.0417183" lon="12.18732"><ele>70.5</ele><time>2026-04-12T16:02:18.013Z</time></trkpt><trkpt lat="44.04194" lon="12.187195"><ele>73.0</ele><time>2026-04-12T16:02:19.013Z</time></trkpt><trkpt lat="44.04216" lon="12.187075"><ele>73.0</ele><time>2026-04-12T16:02:20.014Z</time></trkpt><trkpt lat="44.0423783" lon="12.18695"><ele>73.0</ele><time>2026-04-12T16:02:21.013Z</time></trkpt><trkpt lat="44.0426" lon="12.1868283"><ele>72.5</ele><time>2026-04-12T16:02:22.012Z</time></trkpt><trkpt lat="44.0428183" lon="12.1867067"><ele>72.0</ele><time>2026-04-12T16:02:23.013Z</time></trkpt><trkpt lat="44.043035" lon="12.18658"><ele>72.5</ele><time>2026-04-12T16:02:24.012Z</time></trkpt><trkpt lat="44.043255" lon="12.1864583"><ele>73.0</ele><time>2026-04-12T16:02:25.014Z</time></trkpt><trkpt lat="44.0434733" lon="12.1863333"><ele>73.0</ele><time>2026-04-12T16:02:26.013Z</time></trkpt><trkpt lat="44.0436883" lon="12.18621"><ele>73.0</ele><time>2026-04-12T16:02:27.015Z</time></trkpt><trkpt lat="44.0439033" lon="12.186085"><ele>73.0</ele><time>2026-04-12T16:02:28.011Z</time></trkpt><trkpt lat="44.04412" lon="12.1859617"><ele>73.0</ele><time>2026-04-12T16:02:29.013Z</time></trkpt><trkpt lat="44.0443333" lon="12.18584"><ele>73.5</ele><time>2026-04-12T16:02:30.013Z</time></trkpt><trkpt lat="44.0445483" lon="12.185725"><ele>74.0</ele><time>2026-04-12T16:02:31.013Z</time></trkpt><trkpt lat="44.044765" lon="12.185605"><ele>75.0</ele><time>2026-04-12T16:02:32.014Z</time></trkpt><trkpt lat="44.04498" lon="12.1854817"><ele>76.0</ele><time>2026-04-12T16:02:33.013Z</time></trkpt><trkpt lat="44.0451933" lon="12.185355"><ele>76.0</ele><time>2026-04-12T16:02:34.013Z</time></trkpt><trkpt lat="44.0454067" lon="12.1852367"><ele>76.0</ele><time>2026-04-12T16:02:35.014Z</time></trkpt><trkpt lat="44.0456117" lon="12.1851217"><ele>76.33333333333333</ele><time>2026-04-12T16:02:36.013Z</time></trkpt><trkpt lat="44.04581" lon="12.1850167"><ele>76.66666666666667</ele><time>2026-04-12T16:02:37.016Z</time></trkpt><trkpt lat="44.0460067" lon="12.1849183"><ele>77.0</ele><time>2026-04-12T16:02:38.013Z</time></trkpt><trkpt lat="44.0462" lon="12.18482"><ele>77.33333333333334</ele><time>2026-04-12T16:02:39.019Z</time></trkpt><trkpt lat="44.0463867" lon="12.1847233"><ele>77.66666666666667</ele><time>2026-04-12T16:02:40.014Z</time></trkpt><trkpt lat="44.046565" lon="12.1846417"><ele>78.0</ele><time>2026-04-12T16:02:41.012Z</time></trkpt><trkpt lat="44.046725" lon="12.1845517"><ele>79.0</ele><time>2026-04-12T16:02:42.013Z</time></trkpt><trkpt lat="44.046865" lon="12.18447"><ele>80.0</ele><time>2026-04-12T16:02:43.014Z</time></trkpt><trkpt lat="44.0469933" lon="12.1844033"><ele>81.0</ele><time>2026-04-12T16:02:44.012Z</time></trkpt><trkpt lat="44.0471233" lon="12.1843817"><ele>82.0</ele><time>2026-04-12T16:02:45.018Z</time></trkpt><trkpt lat="44.0472567" lon="12.1843917"><ele>82.0</ele><time>2026-04-12T16:02:46.012Z</time></trkpt><trkpt lat="44.0473883" lon="12.1844317"><ele>82.0</ele><time>2026-04-12T16:02:47.012Z</time></trkpt><trkpt lat="44.0475083" lon="12.18451"><ele>82.0</ele><time>2026-04-12T16:02:48.018Z</time></trkpt><trkpt lat="44.047635" lon="12.1846617"><ele>82.0</ele><time>2026-04-12T16:02:49.016Z</time></trkpt><trkpt lat="44.0477217" lon="12.184815"><ele>82.0</ele><time>2026-04-12T16:02:50.013Z</time></trkpt><trkpt lat="44.0477817" lon="12.18497"><ele>82.0</ele><time>2026-04-12T16:02:51.014Z</time></trkpt><trkpt lat="44.0478267" lon="12.1851067"><ele>82.0</ele><time>2026-04-12T16:02:52.013Z</time></trkpt><trkpt lat="44.0478633" lon="12.1851883"><ele>82.0</ele><time>2026-04-12T16:02:53.011Z</time></trkpt><trkpt lat="44.0479317" lon="12.185255"><ele>82.0</ele><time>2026-04-12T16:02:55.013Z</time></trkpt><trkpt lat="44.0480217" lon="12.1852167"><ele>82.0</ele><time>2026-04-12T16:02:57.012Z</time></trkpt><trkpt lat="44.0480217" lon="12.185015"><ele>82.0</ele><time>2026-04-12T16:02:58.231Z</time></trkpt><trkpt lat="44.0481633" lon="12.1848567"><ele>82.0</ele><time>2026-04-12T16:02:59.419Z</time></trkpt><trkpt lat="44.0482717" lon="12.184655"><ele>80.33333333333333</ele><time>2026-04-12T16:03:01.015Z</time></trkpt><trkpt lat="44.0483133" lon="12.1844267"><ele>78.66666666666667</ele><time>2026-04-12T16:03:02.014Z</time></trkpt><trkpt lat="44.04836" lon="12.1842167"><ele>77.0</ele><time>2026-04-12T16:03:03.014Z</time></trkpt><trkpt lat="44.0483717" lon="12.1839567"><ele>77.0</ele><time>2026-04-12T16:03:04.015Z</time></trkpt><trkpt lat="44.04839" lon="12.1837133"><ele>77.0</ele><time>2026-04-12T16:03:05.014Z</time></trkpt><trkpt lat="44.0484083" lon="12.1834883"><ele>77.0</ele><time>2026-04-12T16:03:06.016Z</time></trkpt><trkpt lat="44.0484283" lon="12.1832817"><ele>78.5</ele><time>2026-04-12T16:03:07.014Z</time></trkpt><trkpt lat="44.0484633" lon="12.1831017"><ele>80.0</ele><time>2026-04-12T16:03:08.013Z</time></trkpt><trkpt lat="44.04851" lon="12.182935"><ele>81.5</ele><time>2026-04-12T16:03:09.013Z</time></trkpt><trkpt lat="44.048575" lon="12.1827933"><ele>83.0</ele><time>2026-04-12T16:03:10.014Z</time></trkpt><trkpt lat="44.0486633" lon="12.1826767"><ele>83.0</ele><time>2026-04-12T16:03:11.013Z</time></trkpt><trkpt lat="44.0487783" lon="12.1825883"><ele>83.0</ele><time>2026-04-12T16:03:12.013Z</time></trkpt><trkpt lat="44.048925" lon="12.182525"><ele>83.0</ele><time>2026-04-12T16:03:13.017Z</time></trkpt><trkpt lat="44.0490967" lon="12.1824917"><ele>81.66666666666667</ele><time>2026-04-12T16:03:14.012Z</time></trkpt><trkpt lat="44.0493" lon="12.182485"><ele>80.33333333333333</ele><time>2026-04-12T16:03:15.014Z</time></trkpt><trkpt lat="44.0495117" lon="12.1824633"><ele>79.0</ele><time>2026-04-12T16:03:16.015Z</time></trkpt><trkpt lat="44.0497317" lon="12.182435"><ele>79.0</ele><time>2026-04-12T16:03:17.015Z</time></trkpt><trkpt lat="44.0499433" lon="12.1824067"><ele>79.0</ele><time>2026-04-12T16:03:18.013Z</time></trkpt><trkpt lat="44.05014" lon="12.1823667"><ele>79.0</ele><time>2026-04-12T16:03:19.013Z</time></trkpt><trkpt lat="44.050325" lon="12.1822967"><ele>81.33333333333333</ele><time>2026-04-12T16:03:20.014Z</time></trkpt><trkpt lat="44.050485" lon="12.1821833"><ele>83.66666666666667</ele><time>2026-04-12T16:03:21.013Z</time></trkpt><trkpt lat="44.0506233" lon="12.1820433"><ele>86.0</ele><time>2026-04-12T16:03:22.013Z</time></trkpt><trkpt lat="44.0507417" lon="12.181875"><ele>84.33333333333334</ele><time>2026-04-12T16:03:23.013Z</time></trkpt><trkpt lat="44.050835" lon="12.1816833"><ele>82.66666666666667</ele><time>2026-04-12T16:03:24.012Z</time></trkpt><trkpt lat="44.0509" lon="12.18148"><ele>81.0</ele><time>2026-04-12T16:03:25.013Z</time></trkpt><trkpt lat="44.0509433" lon="12.1812767"><ele>81.0</ele><time>2026-04-12T16:03:26.014Z</time></trkpt><trkpt lat="44.0509667" lon="12.1810833"><ele>81.0</ele><time>2026-04-12T16:03:27.018Z</time></trkpt><trkpt lat="44.0509733" lon="12.180905"><ele>81.0</ele><time>2026-04-12T16:03:28.014Z</time></trkpt><trkpt lat="44.0509717" lon="12.1807417"><ele>81.0</ele><time>2026-04-12T16:03:29.012Z</time></trkpt><trkpt lat="44.050965" lon="12.1805883"><ele>80.0</ele><time>2026-04-12T16:03:30.013Z</time></trkpt><trkpt lat="44.050955" lon="12.1804283"><ele>79.0</ele><time>2026-04-12T16:03:31.015Z</time></trkpt><trkpt lat="44.050945" lon="12.1802583"><ele>78.0</ele><time>2026-04-12T16:03:32.016Z</time></trkpt><trkpt lat="44.050945" lon="12.1800767"><ele>77.0</ele><time>2026-04-12T16:03:33.017Z</time></trkpt><trkpt lat="44.0509317" lon="12.1798883"><ele>76.66666666666667</ele><time>2026-04-12T16:03:34.015Z</time></trkpt><trkpt lat="44.0509133" lon="12.1796917"><ele>76.33333333333333</ele><time>2026-04-12T16:03:35.012Z</time></trkpt><trkpt lat="44.05089" lon="12.179485"><ele>76.0</ele><time>2026-04-12T16:03:36.013Z</time></trkpt><trkpt lat="44.0508517" lon="12.1792667"><ele>76.33333333333333</ele><time>2026-04-12T16:03:37.014Z</time></trkpt><trkpt lat="44.05079" lon="12.1790517"><ele>76.66666666666667</ele><time>2026-04-12T16:03:38.014Z</time></trkpt><trkpt lat="44.0507217" lon="12.178845"><ele>77.0</ele><time>2026-04-12T16:03:39.014Z</time></trkpt><trkpt lat="44.0506583" lon="12.17863"><ele>77.0</ele><time>2026-04-12T16:03:40.012Z</time></trkpt><trkpt lat="44.0506083" lon="12.1784067"><ele>77.0</ele><time>2026-04-12T16:03:41.014Z</time></trkpt><trkpt lat="44.0505793" lon="12.1781781"><ele>77.0</ele><time>2026-04-12T16:03:42.013Z</time></trkpt><trkpt lat="44.0505816" lon="12.1779408"><ele>76.0</ele><time>2026-04-12T16:03:43.016Z</time></trkpt><trkpt lat="44.0506187" lon="12.1777046"><ele>75.0</ele><time>2026-04-12T16:03:44.013Z</time></trkpt><trkpt lat="44.050684" lon="12.1774805"><ele>74.0</ele><time>2026-04-12T16:03:45.013Z</time></trkpt><trkpt lat="44.0507602" lon="12.1772716"><ele>73.0</ele><time>2026-04-12T16:03:46.016Z</time></trkpt><trkpt lat="44.0508311" lon="12.1770779"><ele>72.0</ele><time>2026-04-12T16:03:47.011Z</time></trkpt><trkpt lat="44.0508909" lon="12.1768993"><ele>71.0</ele><time>2026-04-12T16:03:48.019Z</time></trkpt><trkpt lat="44.0509431" lon="12.1767475"><ele>70.0</ele><time>2026-04-12T16:03:49.015Z</time></trkpt><trkpt lat="44.0509821" lon="12.1766283"><ele>70.0</ele><time>2026-04-12T16:03:50.013Z</time></trkpt><trkpt lat="44.0510175" lon="12.1765452"><ele>70.0</ele><time>2026-04-12T16:03:51.012Z</time></trkpt><trkpt lat="44.0510738" lon="12.1764495"><ele>70.0</ele><time>2026-04-12T16:03:53.011Z</time></trkpt><trkpt lat="44.0511667" lon="12.176335"><ele>70.0</ele><time>2026-04-12T16:04:45.013Z</time></trkpt><trkpt lat="44.0512179" lon="12.1762633"><ele>70.0</ele><time>2026-04-12T16:04:46.012Z</time></trkpt><trkpt lat="44.0512886" lon="12.1761903"><ele>70.0</ele><time>2026-04-12T16:04:47.012Z</time></trkpt><trkpt lat="44.0513662" lon="12.1761136"><ele>70.16666666666666</ele><time>2026-04-12T16:04:48.013Z</time></trkpt><trkpt lat="44.051447" lon="12.1760463"><ele>70.33333333333333</ele><time>2026-04-12T16:04:49.012Z</time></trkpt><trkpt lat="44.0515344" lon="12.1759957"><ele>70.5</ele><time>2026-04-12T16:04:50.013Z</time></trkpt><trkpt lat="44.0516202" lon="12.1759655"><ele>70.66666666666667</ele><time>2026-04-12T16:04:51.015Z</time></trkpt><trkpt lat="44.0516932" lon="12.1759551"><ele>70.83333333333334</ele><time>2026-04-12T16:04:52.015Z</time></trkpt><trkpt lat="44.0517567" lon="12.1759622"><ele>71.0</ele><time>2026-04-12T16:04:53.013Z</time></trkpt><trkpt lat="44.0518215" lon="12.1759827"><ele>71.0</ele><time>2026-04-12T16:04:54.012Z</time></trkpt><trkpt lat="44.0518922" lon="12.1760229"><ele>71.0</ele><time>2026-04-12T16:04:55.013Z</time></trkpt><trkpt lat="44.0519734" lon="12.1760906"><ele>71.0</ele><time>2026-04-12T16:04:56.013Z</time></trkpt><trkpt lat="44.0520628" lon="12.1762085"><ele>71.0</ele><time>2026-04-12T16:04:57.017Z</time></trkpt><trkpt lat="44.0521533" lon="12.1763639"><ele>71.0</ele><time>2026-04-12T16:04:58.011Z</time></trkpt><trkpt lat="44.05225" lon="12.1765295"><ele>71.0</ele><time>2026-04-12T16:04:59.012Z</time></trkpt><trkpt lat="44.0523469" lon="12.1767088"><ele>71.0</ele><time>2026-04-12T16:05:00.016Z</time></trkpt><trkpt lat="44.0524454" lon="12.1768859"><ele>71.0</ele><time>2026-04-12T16:05:01.013Z</time></trkpt><trkpt lat="44.0525409" lon="12.1770664"><ele>71.0</ele><time>2026-04-12T16:05:02.014Z</time></trkpt><trkpt lat="44.052625" lon="12.1772573"><ele>71.0</ele><time>2026-04-12T16:05:03.021Z</time></trkpt><trkpt lat="44.0527128" lon="12.1774344"><ele>71.0</ele><time>2026-04-12T16:05:04.012Z</time></trkpt><trkpt lat="44.0528133" lon="12.1775957"><ele>71.0</ele><time>2026-04-12T16:05:05.012Z</time></trkpt><trkpt lat="44.0529268" lon="12.1777369"><ele>71.0</ele><time>2026-04-12T16:05:06.015Z</time></trkpt><trkpt lat="44.0530399" lon="12.1778586"><ele>71.0</ele><time>2026-04-12T16:05:07.013Z</time></trkpt><trkpt lat="44.053142" lon="12.1779576"><ele>71.0</ele><time>2026-04-12T16:05:08.013Z</time></trkpt><trkpt lat="44.0532361" lon="12.1780427"><ele>71.75</ele><time>2026-04-12T16:05:09.013Z</time></trkpt><trkpt lat="44.0533402" lon="12.1781315"><ele>72.5</ele><time>2026-04-12T16:05:10.014Z</time></trkpt><trkpt lat="44.053454" lon="12.1782246"><ele>73.25</ele><time>2026-04-12T16:05:11.014Z</time></trkpt><trkpt lat="44.0535741" lon="12.1783248"><ele>74.0</ele><time>2026-04-12T16:05:12.011Z</time></trkpt><trkpt lat="44.0537028" lon="12.1784224"><ele>74.0</ele><time>2026-04-12T16:05:13.013Z</time></trkpt><trkpt lat="44.0538391" lon="12.1785248"><ele>74.0</ele><time>2026-04-12T16:05:14.012Z</time></trkpt><trkpt lat="44.0539796" lon="12.1786307"><ele>74.0</ele><time>2026-04-12T16:05:15.014Z</time></trkpt><trkpt lat="44.0541122" lon="12.1787381"><ele>74.0</ele><time>2026-04-12T16:05:16.011Z</time></trkpt><trkpt lat="44.0542388" lon="12.1788432"><ele>74.0</ele><time>2026-04-12T16:05:17.011Z</time></trkpt><trkpt lat="44.0543592" lon="12.1789476"><ele>74.0</ele><time>2026-04-12T16:05:18.013Z</time></trkpt><trkpt lat="44.0544668" lon="12.1790415"><ele>74.0</ele><time>2026-04-12T16:05:19.012Z</time></trkpt><trkpt lat="44.0545727" lon="12.1791336"><ele>74.0</ele><time>2026-04-12T16:05:20.014Z</time></trkpt><trkpt lat="44.0546882" lon="12.1792291"><ele>74.0</ele><time>2026-04-12T16:05:21.014Z</time></trkpt><trkpt lat="44.0548057" lon="12.1793315"><ele>74.0</ele><time>2026-04-12T16:05:22.013Z</time></trkpt><trkpt lat="44.054919" lon="12.1794359"><ele>74.0</ele><time>2026-04-12T16:05:23.015Z</time></trkpt><trkpt lat="44.05503" lon="12.1795306"><ele>74.4</ele><time>2026-04-12T16:05:24.016Z</time></trkpt><trkpt lat="44.055133" lon="12.1796185"><ele>74.80000000000001</ele><time>2026-04-12T16:05:25.014Z</time></trkpt><trkpt lat="44.055235" lon="12.1796922"><ele>75.19999999999999</ele><time>2026-04-12T16:05:26.012Z</time></trkpt><trkpt lat="44.0553251" lon="12.1797581"><ele>75.6</ele><time>2026-04-12T16:05:27.015Z</time></trkpt><trkpt lat="44.0554013" lon="12.1798117"><ele>76.0</ele><time>2026-04-12T16:05:28.015Z</time></trkpt><trkpt lat="44.0554681" lon="12.1798507"><ele>76.0</ele><time>2026-04-12T16:05:29.013Z</time></trkpt><trkpt lat="44.0555606" lon="12.1798568"><ele>76.0</ele><time>2026-04-12T16:05:31.016Z</time></trkpt><trkpt lat="44.0555758" lon="12.1797692"><ele>76.0</ele><time>2026-04-12T16:05:33.013Z</time></trkpt><trkpt lat="44.0555106" lon="12.1796366"><ele>76.0</ele><time>2026-04-12T16:05:35.014Z</time></trkpt><trkpt lat="44.0554743" lon="12.179564"><ele>76.0</ele><time>2026-04-12T16:05:36.014Z</time></trkpt><trkpt lat="44.0554285" lon="12.1794286"><ele>76.0</ele><time>2026-04-12T16:05:38.015Z</time></trkpt><trkpt lat="44.0554643" lon="12.1793028"><ele>76.83333333333333</ele><time>2026-04-12T16:05:40.014Z</time></trkpt><trkpt lat="44.0555458" lon="12.1792564"><ele>77.66666666666666</ele><time>2026-04-12T16:05:41.017Z</time></trkpt><trkpt lat="44.0556382" lon="12.1791952"><ele>78.5</ele><time>2026-04-12T16:05:42.013Z</time></trkpt><trkpt lat="44.055711" lon="12.1791244"><ele>79.33333333333333</ele><time>2026-04-12T16:05:43.013Z</time></trkpt><trkpt lat="44.0557562" lon="12.1790404"><ele>80.16666666666667</ele><time>2026-04-12T16:05:44.015Z</time></trkpt><trkpt lat="44.0557704" lon="12.1789333"><ele>81.0</ele><time>2026-04-12T16:05:45.016Z</time></trkpt><trkpt lat="44.0557844" lon="12.1788203"><ele>82.5</ele><time>2026-04-12T16:05:46.014Z</time></trkpt><trkpt lat="44.0557546" lon="12.1786769"><ele>84.0</ele><time>2026-04-12T16:05:47.013Z</time></trkpt><trkpt lat="44.0556918" lon="12.1784873"><ele>85.5</ele><time>2026-04-12T16:05:48.015Z</time></trkpt><trkpt lat="44.0556185" lon="12.1782607"><ele>87.0</ele><time>2026-04-12T16:05:49.013Z</time></trkpt><trkpt lat="44.0555506" lon="12.1780302"><ele>89.0</ele><time>2026-04-12T16:05:50.014Z</time></trkpt><trkpt lat="44.0554822" lon="12.1778001"><ele>91.0</ele><time>2026-04-12T16:05:51.013Z</time></trkpt><trkpt lat="44.0554114" lon="12.1775744"><ele>93.0</ele><time>2026-04-12T16:05:52.014Z</time></trkpt><trkpt lat="44.055335" lon="12.1773283"><ele>96.0</ele><time>2026-04-12T16:05:53.015Z</time></trkpt><trkpt lat="44.0552667" lon="12.1771083"><ele>99.0</ele><time>2026-04-12T16:05:54.014Z</time></trkpt><trkpt lat="44.0551767" lon="12.1768917"><ele>102.0</ele><time>2026-04-12T16:05:55.015Z</time></trkpt><trkpt lat="44.0551083" lon="12.1766967"><ele>102.0</ele><time>2026-04-12T16:05:56.013Z</time></trkpt><trkpt lat="44.055055" lon="12.1765317"><ele>102.0</ele><time>2026-04-12T16:05:57.016Z</time></trkpt><trkpt lat="44.0550183" lon="12.1764067"><ele>102.0</ele><time>2026-04-12T16:05:58.016Z</time></trkpt><trkpt lat="44.0550033" lon="12.1762867"><ele>102.0</ele><time>2026-04-12T16:05:59.012Z</time></trkpt><trkpt lat="44.0550133" lon="12.17619"><ele>102.0</ele><time>2026-04-12T16:06:00.014Z</time></trkpt><trkpt lat="44.0550867" lon="12.1761217"><ele>102.0</ele><time>2026-04-12T16:06:02.018Z</time></trkpt><trkpt lat="44.0551933" lon="12.1762017"><ele>102.0</ele><time>2026-04-12T16:06:04.013Z</time></trkpt><trkpt lat="44.055255" lon="12.17632"><ele>102.0</ele><time>2026-04-12T16:06:05.013Z</time></trkpt><trkpt lat="44.055355" lon="12.17648"><ele>102.0</ele><time>2026-04-12T16:06:06.014Z</time></trkpt><trkpt lat="44.055455" lon="12.176595"><ele>102.0</ele><time>2026-04-12T16:06:07.013Z</time></trkpt><trkpt lat="44.0555383" lon="12.1766533"><ele>102.0</ele><time>2026-04-12T16:06:08.015Z</time></trkpt><trkpt lat="44.055605" lon="12.1766883"><ele>102.0</ele><time>2026-04-12T16:06:09.015Z</time></trkpt><trkpt lat="44.0557117" lon="12.1766333"><ele>102.0</ele><time>2026-04-12T16:06:11.019Z</time></trkpt><trkpt lat="44.0557383" lon="12.1765483"><ele>102.0</ele><time>2026-04-12T16:06:12.015Z</time></trkpt><trkpt lat="44.0557567" lon="12.17643"><ele>102.0</ele><time>2026-04-12T16:06:13.014Z</time></trkpt><trkpt lat="44.055745" lon="12.1762133"><ele>105.33333333333334</ele><time>2026-04-12T16:06:14.016Z</time></trkpt><trkpt lat="44.0557267" lon="12.1759817"><ele>108.66666666666667</ele><time>2026-04-12T16:06:15.014Z</time></trkpt><trkpt lat="44.0557183" lon="12.17573"><ele>112.0</ele><time>2026-04-12T16:06:16.013Z</time></trkpt><trkpt lat="44.0557167" lon="12.1755033"><ele>114.5</ele><time>2026-04-12T16:06:17.014Z</time></trkpt><trkpt lat="44.0557067" lon="12.1753017"><ele>117.0</ele><time>2026-04-12T16:06:18.015Z</time></trkpt><trkpt lat="44.0556617" lon="12.1751283"><ele>119.5</ele><time>2026-04-12T16:06:19.015Z</time></trkpt><trkpt lat="44.0555783" lon="12.17497"><ele>122.0</ele><time>2026-04-12T16:06:20.014Z</time></trkpt><trkpt lat="44.0554767" lon="12.1748317"><ele>124.25</ele><time>2026-04-12T16:06:21.015Z</time></trkpt><trkpt lat="44.0553733" lon="12.1747033"><ele>126.5</ele><time>2026-04-12T16:06:22.014Z</time></trkpt><trkpt lat="44.0552833" lon="12.1745733"><ele>128.75</ele><time>2026-04-12T16:06:23.014Z</time></trkpt><trkpt lat="44.055215" lon="12.174435"><ele>131.0</ele><time>2026-04-12T16:06:24.016Z</time></trkpt><trkpt lat="44.0551783" lon="12.1743167"><ele>131.0</ele><time>2026-04-12T16:06:25.013Z</time></trkpt><trkpt lat="44.055175" lon="12.1741933"><ele>131.0</ele><time>2026-04-12T16:06:26.014Z</time></trkpt><trkpt lat="44.0551717" lon="12.1740767"><ele>131.0</ele><time>2026-04-12T16:06:27.015Z</time></trkpt><trkpt lat="44.0551844" lon="12.1739515"><ele>131.0</ele><time>2026-04-12T16:06:28.013Z</time></trkpt><trkpt lat="44.0552273" lon="12.1738154"><ele>131.0</ele><time>2026-04-12T16:06:29.014Z</time></trkpt><trkpt lat="44.0553001" lon="12.1736795"><ele>133.25</ele><time>2026-04-12T16:06:30.016Z</time></trkpt><trkpt lat="44.0553919" lon="12.1735666"><ele>135.5</ele><time>2026-04-12T16:06:31.017Z</time></trkpt><trkpt lat="44.0555122" lon="12.1734835"><ele>137.75</ele><time>2026-04-12T16:06:32.015Z</time></trkpt><trkpt lat="44.055653" lon="12.1734322"><ele>140.0</ele><time>2026-04-12T16:06:33.015Z</time></trkpt><trkpt lat="44.0558001" lon="12.1734002"><ele>140.8</ele><time>2026-04-12T16:06:34.015Z</time></trkpt><trkpt lat="44.0559382" lon="12.1733862"><ele>141.6</ele><time>2026-04-12T16:06:35.013Z</time></trkpt><trkpt lat="44.0560595" lon="12.1733572"><ele>142.4</ele><time>2026-04-12T16:06:36.013Z</time></trkpt><trkpt lat="44.0561527" lon="12.1733129"><ele>143.2</ele><time>2026-04-12T16:06:37.013Z</time></trkpt><trkpt lat="44.056212" lon="12.173245"><ele>144.0</ele><time>2026-04-12T16:06:38.014Z</time></trkpt><trkpt lat="44.0562563" lon="12.17315"><ele>146.4</ele><time>2026-04-12T16:06:39.011Z</time></trkpt><trkpt lat="44.0562746" lon="12.1730555"><ele>148.8</ele><time>2026-04-12T16:06:40.011Z</time></trkpt><trkpt lat="44.056273" lon="12.1729541"><ele>151.2</ele><time>2026-04-12T16:06:41.014Z</time></trkpt><trkpt lat="44.0562252" lon="12.1728408"><ele>153.6</ele><time>2026-04-12T16:06:42.015Z</time></trkpt><trkpt lat="44.056141" lon="12.1727372"><ele>156.0</ele><time>2026-04-12T16:06:43.012Z</time></trkpt><trkpt lat="44.0560369" lon="12.1726354"><ele>156.0</ele><time>2026-04-12T16:06:44.013Z</time></trkpt><trkpt lat="44.0558993" lon="12.1725194"><ele>156.0</ele><time>2026-04-12T16:06:45.015Z</time></trkpt><trkpt lat="44.0557677" lon="12.1723985"><ele>156.0</ele><time>2026-04-12T16:06:46.015Z</time></trkpt><trkpt lat="44.0556578" lon="12.1722807"><ele>155.2</ele><time>2026-04-12T16:06:47.013Z</time></trkpt><trkpt lat="44.0555719" lon="12.1721762"><ele>154.39999999999998</ele><time>2026-04-12T16:06:48.016Z</time></trkpt><trkpt lat="44.055517" lon="12.1720733"><ele>153.6</ele><time>2026-04-12T16:06:49.014Z</time></trkpt><trkpt lat="44.0554819" lon="12.1719711"><ele>152.79999999999998</ele><time>2026-04-12T16:06:50.014Z</time></trkpt><trkpt lat="44.0554678" lon="12.171877"><ele>152.0</ele><time>2026-04-12T16:06:51.015Z</time></trkpt><trkpt lat="44.0555282" lon="12.1717518"><ele>152.0</ele><time>2026-04-12T16:06:53.013Z</time></trkpt><trkpt lat="44.0556555" lon="12.1717548"><ele>152.0</ele><time>2026-04-12T16:06:55.014Z</time></trkpt><trkpt lat="44.0557373" lon="12.1717623"><ele>152.0</ele><time>2026-04-12T16:06:56.012Z</time></trkpt><trkpt lat="44.0558294" lon="12.1717166"><ele>152.0</ele><time>2026-04-12T16:06:57.016Z</time></trkpt><trkpt lat="44.0559197" lon="12.1716532"><ele>152.0</ele><time>2026-04-12T16:06:58.015Z</time></trkpt><trkpt lat="44.056012" lon="12.1715597"><ele>158.0</ele><time>2026-04-12T16:06:59.013Z</time></trkpt><trkpt lat="44.0560895" lon="12.1714492"><ele>164.0</ele><time>2026-04-12T16:07:00.017Z</time></trkpt><trkpt lat="44.056151" lon="12.1713213"><ele>170.0</ele><time>2026-04-12T16:07:01.012Z</time></trkpt><trkpt lat="44.0561901" lon="12.1711569"><ele>176.0</ele><time>2026-04-12T16:07:02.013Z</time></trkpt><trkpt lat="44.0562239" lon="12.1709698"><ele>176.0</ele><time>2026-04-12T16:07:03.013Z</time></trkpt><trkpt lat="44.0562574" lon="12.1707626"><ele>176.0</ele><time>2026-04-12T16:07:04.013Z</time></trkpt><trkpt lat="44.0563027" lon="12.170531"><ele>176.0</ele><time>2026-04-12T16:07:05.013Z</time></trkpt><trkpt lat="44.0563559" lon="12.1702836"><ele>175.33333333333331</ele><time>2026-04-12T16:07:06.012Z</time></trkpt><trkpt lat="44.0564151" lon="12.1700238"><ele>174.66666666666666</ele><time>2026-04-12T16:07:07.013Z</time></trkpt><trkpt lat="44.0564773" lon="12.1697498"><ele>174.0</ele><time>2026-04-12T16:07:08.013Z</time></trkpt><trkpt lat="44.0565405" lon="12.1694619"><ele>172.66666666666666</ele><time>2026-04-12T16:07:09.016Z</time></trkpt><trkpt lat="44.0565983" lon="12.1691607"><ele>171.33333333333331</ele><time>2026-04-12T16:07:10.014Z</time></trkpt><trkpt lat="44.0566773" lon="12.1688765"><ele>170.0</ele><time>2026-04-12T16:07:11.011Z</time></trkpt><trkpt lat="44.0567694" lon="12.1686132"><ele>178.0</ele><time>2026-04-12T16:07:12.013Z</time></trkpt><trkpt lat="44.056866" lon="12.1683517"><ele>186.0</ele><time>2026-04-12T16:07:13.011Z</time></trkpt><trkpt lat="44.0569641" lon="12.168086"><ele>194.0</ele><time>2026-04-12T16:07:14.019Z</time></trkpt><trkpt lat="44.0570571" lon="12.1678217"><ele>194.33333333333334</ele><time>2026-04-12T16:07:15.013Z</time></trkpt><trkpt lat="44.057138" lon="12.1675449"><ele>194.66666666666669</ele><time>2026-04-12T16:07:16.013Z</time></trkpt><trkpt lat="44.0572093" lon="12.1672625"><ele>195.0</ele><time>2026-04-12T16:07:17.013Z</time></trkpt><trkpt lat="44.0572843" lon="12.1669942"><ele>195.66666666666669</ele><time>2026-04-12T16:07:18.012Z</time></trkpt><trkpt lat="44.0573581" lon="12.1667335"><ele>196.33333333333334</ele><time>2026-04-12T16:07:19.017Z</time></trkpt><trkpt lat="44.0574367" lon="12.1664934"><ele>197.0</ele><time>2026-04-12T16:07:20.011Z</time></trkpt><trkpt lat="44.0575222" lon="12.1662898"><ele>200.6</ele><time>2026-04-12T16:07:21.013Z</time></trkpt><trkpt lat="44.057598" lon="12.1661222"><ele>204.2</ele><time>2026-04-12T16:07:22.013Z</time></trkpt><trkpt lat="44.0576507" lon="12.1659926"><ele>207.8</ele><time>2026-04-12T16:07:23.014Z</time></trkpt><trkpt lat="44.0576725" lon="12.1658909"><ele>211.4</ele><time>2026-04-12T16:07:24.017Z</time></trkpt><trkpt lat="44.0576534" lon="12.16574"><ele>215.0</ele><time>2026-04-12T16:07:26.016Z</time></trkpt><trkpt lat="44.0575668" lon="12.1657271"><ele>215.00000000000003</ele><time>2026-04-12T16:07:28.014Z</time></trkpt><trkpt lat="44.0575033" lon="12.1657824"><ele>215.0</ele><time>2026-04-12T16:07:29.013Z</time></trkpt><trkpt lat="44.0574427" lon="12.1658723"><ele>215.0</ele><time>2026-04-12T16:07:30.012Z</time></trkpt><trkpt lat="44.0573692" lon="12.1659671"><ele>215.0</ele><time>2026-04-12T16:07:31.016Z</time></trkpt><trkpt lat="44.057307" lon="12.1660274"><ele>215.00000000000003</ele><time>2026-04-12T16:07:32.015Z</time></trkpt><trkpt lat="44.0572152" lon="12.1660437"><ele>215.0</ele><time>2026-04-12T16:07:34.012Z</time></trkpt><trkpt lat="44.0571598" lon="12.1659002"><ele>214.0</ele><time>2026-04-12T16:07:36.014Z</time></trkpt><trkpt lat="44.0571506" lon="12.1657676"><ele>213.0</ele><time>2026-04-12T16:07:37.013Z</time></trkpt><trkpt lat="44.057169" lon="12.1655757"><ele>212.0</ele><time>2026-04-12T16:07:38.013Z</time></trkpt><trkpt lat="44.0571842" lon="12.1653681"><ele>211.0</ele><time>2026-04-12T16:07:39.011Z</time></trkpt><trkpt lat="44.0571847" lon="12.1651501"><ele>214.0</ele><time>2026-04-12T16:07:40.012Z</time></trkpt><trkpt lat="44.0571716" lon="12.1649364"><ele>217.0</ele><time>2026-04-12T16:07:41.013Z</time></trkpt><trkpt lat="44.0571426" lon="12.1647457"><ele>220.0</ele><time>2026-04-12T16:07:42.013Z</time></trkpt><trkpt lat="44.0570809" lon="12.1645829"><ele>223.0</ele><time>2026-04-12T16:07:43.015Z</time></trkpt><trkpt lat="44.0570046" lon="12.1644357"><ele>225.0</ele><time>2026-04-12T16:07:44.012Z</time></trkpt><trkpt lat="44.0569081" lon="12.164311"><ele>227.0</ele><time>2026-04-12T16:07:45.015Z</time></trkpt><trkpt lat="44.0568093" lon="12.1642009"><ele>229.0</ele><time>2026-04-12T16:07:46.011Z</time></trkpt><trkpt lat="44.0567334" lon="12.164076"><ele>231.0</ele><time>2026-04-12T16:07:47.017Z</time></trkpt><trkpt lat="44.056685" lon="12.1639271"><ele>234.0</ele><time>2026-04-12T16:07:48.012Z</time></trkpt><trkpt lat="44.0566572" lon="12.1637595"><ele>237.0</ele><time>2026-04-12T16:07:49.012Z</time></trkpt><trkpt lat="44.0566469" lon="12.1635785"><ele>240.0</ele><time>2026-04-12T16:07:50.012Z</time></trkpt><trkpt lat="44.0566516" lon="12.163364"><ele>243.0</ele><time>2026-04-12T16:07:51.014Z</time></trkpt><trkpt lat="44.0566633" lon="12.1631371"><ele>245.33333333333331</ele><time>2026-04-12T16:07:52.014Z</time></trkpt><trkpt lat="44.0566705" lon="12.1629015"><ele>247.66666666666666</ele><time>2026-04-12T16:07:53.013Z</time></trkpt><trkpt lat="44.0566636" lon="12.1626532"><ele>250.0</ele><time>2026-04-12T16:07:54.011Z</time></trkpt><trkpt lat="44.0566449" lon="12.1623891"><ele>260.3333333333333</ele><time>2026-04-12T16:07:55.013Z</time></trkpt><trkpt lat="44.0566128" lon="12.1621155"><ele>270.6666666666667</ele><time>2026-04-12T16:07:56.016Z</time></trkpt><trkpt lat="44.0565711" lon="12.1618499"><ele>281.0</ele><time>2026-04-12T16:07:57.014Z</time></trkpt><trkpt lat="44.0565394" lon="12.1616135"><ele>282.5</ele><time>2026-04-12T16:07:58.013Z</time></trkpt><trkpt lat="44.0565243" lon="12.1614091"><ele>284.0</ele><time>2026-04-12T16:07:59.012Z</time></trkpt><trkpt lat="44.0565296" lon="12.1612311"><ele>285.5</ele><time>2026-04-12T16:08:00.014Z</time></trkpt><trkpt lat="44.0565446" lon="12.1610859"><ele>287.0</ele><time>2026-04-12T16:08:01.012Z</time></trkpt><trkpt lat="44.0565532" lon="12.1609845"><ele>287.0</ele><time>2026-04-12T16:08:02.013Z</time></trkpt><trkpt lat="44.0565127" lon="12.1608758"><ele>287.0</ele><time>2026-04-12T16:08:04.011Z</time></trkpt><trkpt lat="44.0564231" lon="12.1608664"><ele>287.0</ele><time>2026-04-12T16:08:06.013Z</time></trkpt><trkpt lat="44.0563608" lon="12.1609223"><ele>287.0</ele><time>2026-04-12T16:08:07.012Z</time></trkpt><trkpt lat="44.0562861" lon="12.1610373"><ele>287.0</ele><time>2026-04-12T16:08:08.012Z</time></trkpt><trkpt lat="44.0562091" lon="12.1611591"><ele>287.0</ele><time>2026-04-12T16:08:09.013Z</time></trkpt><trkpt lat="44.0561251" lon="12.1613069"><ele>287.0</ele><time>2026-04-12T16:08:10.019Z</time></trkpt><trkpt lat="44.0560303" lon="12.1614735"><ele>287.0</ele><time>2026-04-12T16:08:11.011Z</time></trkpt><trkpt lat="44.0559263" lon="12.1616495"><ele>287.75</ele><time>2026-04-12T16:08:12.014Z</time></trkpt><trkpt lat="44.0558265" lon="12.1618215"><ele>288.5</ele><time>2026-04-12T16:08:13.012Z</time></trkpt><trkpt lat="44.0557301" lon="12.1619708"><ele>289.25</ele><time>2026-04-12T16:08:14.014Z</time></trkpt><trkpt lat="44.0556462" lon="12.1620926"><ele>290.0</ele><time>2026-04-12T16:08:15.012Z</time></trkpt><trkpt lat="44.0555677" lon="12.1621815"><ele>290.0</ele><time>2026-04-12T16:08:16.011Z</time></trkpt><trkpt lat="44.0554978" lon="12.1622262"><ele>290.0</ele><time>2026-04-12T16:08:17.012Z</time></trkpt><trkpt lat="44.0554314" lon="12.1622317"><ele>290.0</ele><time>2026-04-12T16:08:18.011Z</time></trkpt><trkpt lat="44.0553637" lon="12.1622017"><ele>290.0</ele><time>2026-04-12T16:08:19.015Z</time></trkpt><trkpt lat="44.0553025" lon="12.1621503"><ele>290.0</ele><time>2026-04-12T16:08:20.013Z</time></trkpt><trkpt lat="44.055236" lon="12.1620616"><ele>290.0</ele><time>2026-04-12T16:08:21.016Z</time></trkpt><trkpt lat="44.055176" lon="12.1619409"><ele>290.0</ele><time>2026-04-12T16:08:22.011Z</time></trkpt><trkpt lat="44.0551217" lon="12.1618092"><ele>290.0</ele><time>2026-04-12T16:08:23.012Z</time></trkpt><trkpt lat="44.0550918" lon="12.1616786"><ele>290.0</ele><time>2026-04-12T16:08:24.014Z</time></trkpt><trkpt lat="44.0550764" lon="12.1615648"><ele>290.0</ele><time>2026-04-12T16:08:25.012Z</time></trkpt><trkpt lat="44.0550862" lon="12.1614689"><ele>290.0</ele><time>2026-04-12T16:08:26.014Z</time></trkpt><trkpt lat="44.055179" lon="12.1613701"><ele>291.33333333333337</ele><time>2026-04-12T16:08:28.012Z</time></trkpt><trkpt lat="44.0552597" lon="12.1613758"><ele>292.6666666666667</ele><time>2026-04-12T16:08:29.014Z</time></trkpt><trkpt lat="44.0553489" lon="12.1613845"><ele>294.0</ele><time>2026-04-12T16:08:30.012Z</time></trkpt><trkpt lat="44.0554243" lon="12.1613571"><ele>295.3333333333333</ele><time>2026-04-12T16:08:31.015Z</time></trkpt><trkpt lat="44.0554798" lon="12.1613015"><ele>296.66666666666663</ele><time>2026-04-12T16:08:32.012Z</time></trkpt><trkpt lat="44.0555262" lon="12.1612251"><ele>298.0</ele><time>2026-04-12T16:08:33.014Z</time></trkpt><trkpt lat="44.0555475" lon="12.1610849"><ele>298.0</ele><time>2026-04-12T16:08:34.015Z</time></trkpt><trkpt lat="44.0555442" lon="12.1608956"><ele>298.0</ele><time>2026-04-12T16:08:35.011Z</time></trkpt><trkpt lat="44.0555477" lon="12.1606996"><ele>298.0</ele><time>2026-04-12T16:08:36.012Z</time></trkpt><trkpt lat="44.0555665" lon="12.1605026"><ele>298.0</ele><time>2026-04-12T16:08:37.014Z</time></trkpt><trkpt lat="44.0556144" lon="12.1603295"><ele>296.5</ele><time>2026-04-12T16:08:38.011Z</time></trkpt><trkpt lat="44.0556864" lon="12.160161"><ele>295.0</ele><time>2026-04-12T16:08:39.012Z</time></trkpt><trkpt lat="44.0557673" lon="12.1600105"><ele>293.5</ele><time>2026-04-12T16:08:40.012Z</time></trkpt><trkpt lat="44.0558455" lon="12.1598593"><ele>292.0</ele><time>2026-04-12T16:08:41.013Z</time></trkpt><trkpt lat="44.0558986" lon="12.1596959"><ele>292.0</ele><time>2026-04-12T16:08:42.012Z</time></trkpt><trkpt lat="44.0559274" lon="12.1595173"><ele>292.0</ele><time>2026-04-12T16:08:43.012Z</time></trkpt><trkpt lat="44.0559382" lon="12.1593153"><ele>292.0</ele><time>2026-04-12T16:08:44.014Z</time></trkpt><trkpt lat="44.0559383" lon="12.1591006"><ele>292.0</ele><time>2026-04-12T16:08:45.013Z</time></trkpt><trkpt lat="44.0559517" lon="12.1589038"><ele>292.25</ele><time>2026-04-12T16:08:46.012Z</time></trkpt><trkpt lat="44.0559833" lon="12.1587321"><ele>292.5</ele><time>2026-04-12T16:08:47.012Z</time></trkpt><trkpt lat="44.0560311" lon="12.1585841"><ele>292.75</ele><time>2026-04-12T16:08:48.013Z</time></trkpt><trkpt lat="44.0561103" lon="12.1584578"><ele>293.0</ele><time>2026-04-12T16:08:49.012Z</time></trkpt><trkpt lat="44.056213" lon="12.1583383"><ele>293.0</ele><time>2026-04-12T16:08:50.017Z</time></trkpt><trkpt lat="44.056323" lon="12.158216"><ele>293.0</ele><time>2026-04-12T16:08:51.013Z</time></trkpt><trkpt lat="44.0564324" lon="12.1580566"><ele>293.0</ele><time>2026-04-12T16:08:52.012Z</time></trkpt><trkpt lat="44.0565418" lon="12.1578647"><ele>294.33333333333337</ele><time>2026-04-12T16:08:53.012Z</time></trkpt><trkpt lat="44.0566587" lon="12.1576552"><ele>295.6666666666667</ele><time>2026-04-12T16:08:54.012Z</time></trkpt><trkpt lat="44.0567823" lon="12.1574298"><ele>297.0</ele><time>2026-04-12T16:08:55.013Z</time></trkpt><trkpt lat="44.0569181" lon="12.1571997"><ele>297.0</ele><time>2026-04-12T16:08:56.013Z</time></trkpt><trkpt lat="44.0570521" lon="12.1569627"><ele>297.0</ele><time>2026-04-12T16:08:57.014Z</time></trkpt><trkpt lat="44.0571788" lon="12.1567342"><ele>297.0</ele><time>2026-04-12T16:08:58.015Z</time></trkpt><trkpt lat="44.05731" lon="12.1565375"><ele>298.6666666666667</ele><time>2026-04-12T16:08:59.011Z</time></trkpt><trkpt lat="44.0574421" lon="12.1563576"><ele>300.33333333333337</ele><time>2026-04-12T16:09:00.013Z</time></trkpt><trkpt lat="44.0575784" lon="12.1561782"><ele>302.0</ele><time>2026-04-12T16:09:01.012Z</time></trkpt><trkpt lat="44.0577255" lon="12.1560148"><ele>302.0</ele><time>2026-04-12T16:09:02.013Z</time></trkpt><trkpt lat="44.0578842" lon="12.1558622"><ele>302.0</ele><time>2026-04-12T16:09:03.012Z</time></trkpt><trkpt lat="44.058038" lon="12.155713"><ele>302.0</ele><time>2026-04-12T16:09:04.012Z</time></trkpt><trkpt lat="44.0581774" lon="12.1555659"><ele>306.5</ele><time>2026-04-12T16:09:05.011Z</time></trkpt><trkpt lat="44.0582971" lon="12.1554181"><ele>311.0</ele><time>2026-04-12T16:09:06.017Z</time></trkpt><trkpt lat="44.0584021" lon="12.155272"><ele>315.5</ele><time>2026-04-12T16:09:07.013Z</time></trkpt><trkpt lat="44.0584943" lon="12.1551287"><ele>320.0</ele><time>2026-04-12T16:09:08.011Z</time></trkpt><trkpt lat="44.0585739" lon="12.1549815"><ele>319.0</ele><time>2026-04-12T16:09:09.012Z</time></trkpt><trkpt lat="44.0586344" lon="12.1548223"><ele>318.0</ele><time>2026-04-12T16:09:10.014Z</time></trkpt><trkpt lat="44.0586846" lon="12.1546478"><ele>317.0</ele><time>2026-04-12T16:09:11.011Z</time></trkpt><trkpt lat="44.0587191" lon="12.1544535"><ele>316.0</ele><time>2026-04-12T16:09:12.015Z</time></trkpt><trkpt lat="44.0587433" lon="12.1542361"><ele>317.3333333333333</ele><time>2026-04-12T16:09:13.012Z</time></trkpt><trkpt lat="44.0587656" lon="12.154001"><ele>318.6666666666667</ele><time>2026-04-12T16:09:14.013Z</time></trkpt><trkpt lat="44.0587864" lon="12.1537572"><ele>320.0</ele><time>2026-04-12T16:09:15.012Z</time></trkpt><trkpt lat="44.0588058" lon="12.1535185"><ele>320.0</ele><time>2026-04-12T16:09:16.013Z</time></trkpt><trkpt lat="44.058829" lon="12.1532907"><ele>320.0</ele><time>2026-04-12T16:09:17.013Z</time></trkpt><trkpt lat="44.0588481" lon="12.1530844"><ele>320.0</ele><time>2026-04-12T16:09:18.012Z</time></trkpt><trkpt lat="44.0588795" lon="12.1529046"><ele>320.0</ele><time>2026-04-12T16:09:19.015Z</time></trkpt><trkpt lat="44.058931" lon="12.152752"><ele>319.5</ele><time>2026-04-12T16:09:20.013Z</time></trkpt><trkpt lat="44.0590102" lon="12.1526257"><ele>319.0</ele><time>2026-04-12T16:09:21.013Z</time></trkpt><trkpt lat="44.059108" lon="12.1525113"><ele>318.5</ele><time>2026-04-12T16:09:22.014Z</time></trkpt><trkpt lat="44.0592201" lon="12.1523948"><ele>318.0</ele><time>2026-04-12T16:09:23.013Z</time></trkpt><trkpt lat="44.0593463" lon="12.1522711"><ele>320.0</ele><time>2026-04-12T16:09:24.011Z</time></trkpt><trkpt lat="44.0594844" lon="12.1521358"><ele>322.0</ele><time>2026-04-12T16:09:25.013Z</time></trkpt><trkpt lat="44.059624" lon="12.1519857"><ele>324.0</ele><time>2026-04-12T16:09:26.013Z</time></trkpt><trkpt lat="44.0597617" lon="12.1518212"><ele>324.0</ele><time>2026-04-12T16:09:27.014Z</time></trkpt><trkpt lat="44.0599027" lon="12.1516547"><ele>324.0</ele><time>2026-04-12T16:09:28.014Z</time></trkpt><trkpt lat="44.060045" lon="12.1514788"><ele>324.0</ele><time>2026-04-12T16:09:29.012Z</time></trkpt><trkpt lat="44.060192" lon="12.151317"><ele>329.0</ele><time>2026-04-12T16:09:30.013Z</time></trkpt><trkpt lat="44.060335" lon="12.1511636"><ele>334.0</ele><time>2026-04-12T16:09:31.014Z</time></trkpt><trkpt lat="44.0604688" lon="12.1510202"><ele>339.0</ele><time>2026-04-12T16:09:32.012Z</time></trkpt><trkpt lat="44.0605945" lon="12.1508893"><ele>339.0</ele><time>2026-04-12T16:09:33.013Z</time></trkpt><trkpt lat="44.0607078" lon="12.1507592"><ele>339.0</ele><time>2026-04-12T16:09:34.012Z</time></trkpt><trkpt lat="44.0608054" lon="12.1506306"><ele>339.0</ele><time>2026-04-12T16:09:35.014Z</time></trkpt><trkpt lat="44.0608798" lon="12.1504984"><ele>339.0</ele><time>2026-04-12T16:09:36.011Z</time></trkpt><trkpt lat="44.0609354" lon="12.1503596"><ele>341.75</ele><time>2026-04-12T16:09:37.011Z</time></trkpt><trkpt lat="44.0609749" lon="12.1502052"><ele>344.5</ele><time>2026-04-12T16:09:38.018Z</time></trkpt><trkpt lat="44.0610054" lon="12.1500356"><ele>347.25</ele><time>2026-04-12T16:09:39.017Z</time></trkpt><trkpt lat="44.0610264" lon="12.1498585"><ele>350.0</ele><time>2026-04-12T16:09:40.012Z</time></trkpt><trkpt lat="44.0610427" lon="12.1496771"><ele>350.0</ele><time>2026-04-12T16:09:41.012Z</time></trkpt><trkpt lat="44.0610555" lon="12.1495005"><ele>350.0</ele><time>2026-04-12T16:09:42.014Z</time></trkpt><trkpt lat="44.0610653" lon="12.1493272"><ele>350.0</ele><time>2026-04-12T16:09:43.014Z</time></trkpt><trkpt lat="44.061078" lon="12.1491541"><ele>350.0</ele><time>2026-04-12T16:09:44.013Z</time></trkpt><trkpt lat="44.0611085" lon="12.1489955"><ele>348.5</ele><time>2026-04-12T16:09:45.013Z</time></trkpt><trkpt lat="44.0611669" lon="12.1488628"><ele>347.0</ele><time>2026-04-12T16:09:46.012Z</time></trkpt><trkpt lat="44.0612392" lon="12.1487382"><ele>345.5</ele><time>2026-04-12T16:09:47.012Z</time></trkpt><trkpt lat="44.0613056" lon="12.1486045"><ele>344.0</ele><time>2026-04-12T16:09:48.012Z</time></trkpt><trkpt lat="44.0613581" lon="12.1484522"><ele>344.0</ele><time>2026-04-12T16:09:49.012Z</time></trkpt><trkpt lat="44.0613929" lon="12.1482802"><ele>344.0</ele><time>2026-04-12T16:09:50.012Z</time></trkpt><trkpt lat="44.0614115" lon="12.1480947"><ele>344.0</ele><time>2026-04-12T16:09:51.014Z</time></trkpt><trkpt lat="44.061421" lon="12.1479172"><ele>344.0</ele><time>2026-04-12T16:09:52.014Z</time></trkpt><trkpt lat="44.0614348" lon="12.1477556"><ele>343.4</ele><time>2026-04-12T16:09:53.012Z</time></trkpt><trkpt lat="44.0614566" lon="12.147611"><ele>342.79999999999995</ele><time>2026-04-12T16:09:54.013Z</time></trkpt><trkpt lat="44.0614981" lon="12.1474775"><ele>342.20000000000005</ele><time>2026-04-12T16:09:55.012Z</time></trkpt><trkpt lat="44.0615612" lon="12.1473461"><ele>341.6</ele><time>2026-04-12T16:09:56.012Z</time></trkpt><trkpt lat="44.0616374" lon="12.1472098"><ele>341.0</ele><time>2026-04-12T16:09:57.014Z</time></trkpt><trkpt lat="44.0617213" lon="12.1470793"><ele>345.5</ele><time>2026-04-12T16:09:58.011Z</time></trkpt><trkpt lat="44.061806" lon="12.1469343"><ele>350.0</ele><time>2026-04-12T16:09:59.016Z</time></trkpt><trkpt lat="44.0618851" lon="12.146773"><ele>354.5</ele><time>2026-04-12T16:10:00.013Z</time></trkpt><trkpt lat="44.0619483" lon="12.1466055"><ele>359.0</ele><time>2026-04-12T16:10:01.016Z</time></trkpt><trkpt lat="44.0619944" lon="12.1464552"><ele>359.1666666666667</ele><time>2026-04-12T16:10:02.014Z</time></trkpt><trkpt lat="44.0620343" lon="12.1463346"><ele>359.33333333333337</ele><time>2026-04-12T16:10:03.013Z</time></trkpt><trkpt lat="44.0620759" lon="12.1462566"><ele>359.5</ele><time>2026-04-12T16:10:04.012Z</time></trkpt><trkpt lat="44.0621564" lon="12.1461992"><ele>359.6666666666667</ele><time>2026-04-12T16:10:06.015Z</time></trkpt><trkpt lat="44.0621844" lon="12.1462786"><ele>359.8333333333333</ele><time>2026-04-12T16:10:08.011Z</time></trkpt><trkpt lat="44.0621725" lon="12.1464338"><ele>360.0</ele><time>2026-04-12T16:10:10.012Z</time></trkpt><trkpt lat="44.0621618" lon="12.1465342"><ele>359.8</ele><time>2026-04-12T16:10:11.012Z</time></trkpt><trkpt lat="44.0621382" lon="12.1466441"><ele>359.6</ele><time>2026-04-12T16:10:12.011Z</time></trkpt><trkpt lat="44.0621019" lon="12.1467712"><ele>359.4</ele><time>2026-04-12T16:10:13.014Z</time></trkpt><trkpt lat="44.0620358" lon="12.1469203"><ele>359.2</ele><time>2026-04-12T16:10:14.012Z</time></trkpt><trkpt lat="44.0619613" lon="12.147074"><ele>359.0</ele><time>2026-04-12T16:10:15.012Z</time></trkpt><trkpt lat="44.0618935" lon="12.1472378"><ele>360.2</ele><time>2026-04-12T16:10:16.013Z</time></trkpt><trkpt lat="44.0618368" lon="12.1473982"><ele>361.4</ele><time>2026-04-12T16:10:17.014Z</time></trkpt><trkpt lat="44.0617982" lon="12.147544"><ele>362.6</ele><time>2026-04-12T16:10:18.011Z</time></trkpt><trkpt lat="44.0617797" lon="12.1476725"><ele>363.8</ele><time>2026-04-12T16:10:19.014Z</time></trkpt><trkpt lat="44.0617746" lon="12.1477863"><ele>365.0</ele><time>2026-04-12T16:10:20.012Z</time></trkpt><trkpt lat="44.0617877" lon="12.1478875"><ele>365.00000000000006</ele><time>2026-04-12T16:10:21.013Z</time></trkpt><trkpt lat="44.0618215" lon="12.1479684"><ele>365.0</ele><time>2026-04-12T16:10:22.012Z</time></trkpt><trkpt lat="44.0618749" lon="12.1480171"><ele>365.0</ele><time>2026-04-12T16:10:23.012Z</time></trkpt><trkpt lat="44.0619385" lon="12.1480407"><ele>365.0</ele><time>2026-04-12T16:10:24.011Z</time></trkpt><trkpt lat="44.062014" lon="12.1480262"><ele>365.0</ele><time>2026-04-12T16:10:25.013Z</time></trkpt><trkpt lat="44.0620893" lon="12.1479756"><ele>365.00000000000006</ele><time>2026-04-12T16:10:26.011Z</time></trkpt><trkpt lat="44.0621634" lon="12.1479103"><ele>365.0</ele><time>2026-04-12T16:10:27.099Z</time></trkpt><trkpt lat="44.0622243" lon="12.1478236"><ele>365.0</ele><time>2026-04-12T16:10:28.012Z</time></trkpt><trkpt lat="44.0622684" lon="12.1477122"><ele>365.0</ele><time>2026-04-12T16:10:29.012Z</time></trkpt><trkpt lat="44.0622978" lon="12.1475741"><ele>365.0</ele><time>2026-04-12T16:10:30.012Z</time></trkpt><trkpt lat="44.0623247" lon="12.1474097"><ele>365.0</ele><time>2026-04-12T16:10:31.013Z</time></trkpt><trkpt lat="44.062357" lon="12.1472245"><ele>363.0</ele><time>2026-04-12T16:10:32.011Z</time></trkpt><trkpt lat="44.0623999" lon="12.1470277"><ele>361.0</ele><time>2026-04-12T16:10:33.013Z</time></trkpt><trkpt lat="44.0624483" lon="12.1468222"><ele>359.0</ele><time>2026-04-12T16:10:34.015Z</time></trkpt><trkpt lat="44.06249" lon="12.1466103"><ele>366.6666666666667</ele><time>2026-04-12T16:10:35.014Z</time></trkpt><trkpt lat="44.0625371" lon="12.1463949"><ele>374.3333333333333</ele><time>2026-04-12T16:10:36.015Z</time></trkpt><trkpt lat="44.0625797" lon="12.1461837"><ele>382.0</ele><time>2026-04-12T16:10:37.014Z</time></trkpt><trkpt lat="44.0626053" lon="12.1459823"><ele>382.0</ele><time>2026-04-12T16:10:38.013Z</time></trkpt><trkpt lat="44.0626069" lon="12.1457871"><ele>382.0</ele><time>2026-04-12T16:10:39.014Z</time></trkpt><trkpt lat="44.0625859" lon="12.1455963"><ele>382.0</ele><time>2026-04-12T16:10:40.011Z</time></trkpt><trkpt lat="44.0625509" lon="12.1454128"><ele>382.0</ele><time>2026-04-12T16:10:41.013Z</time></trkpt><trkpt lat="44.0625239" lon="12.14525"><ele>383.8</ele><time>2026-04-12T16:10:42.012Z</time></trkpt><trkpt lat="44.0625148" lon="12.1451106"><ele>385.6</ele><time>2026-04-12T16:10:43.011Z</time></trkpt><trkpt lat="44.0625282" lon="12.144979"><ele>387.40000000000003</ele><time>2026-04-12T16:10:44.012Z</time></trkpt><trkpt lat="44.0625649" lon="12.1448366"><ele>389.20000000000005</ele><time>2026-04-12T16:10:45.014Z</time></trkpt><trkpt lat="44.0626191" lon="12.1446864"><ele>391.0</ele><time>2026-04-12T16:10:46.018Z</time></trkpt><trkpt lat="44.0626869" lon="12.1445419"><ele>391.0</ele><time>2026-04-12T16:10:47.012Z</time></trkpt><trkpt lat="44.0627585" lon="12.1444142"><ele>391.0</ele><time>2026-04-12T16:10:48.016Z</time></trkpt><trkpt lat="44.0628352" lon="12.1443039"><ele>391.0</ele><time>2026-04-12T16:10:49.012Z</time></trkpt><trkpt lat="44.0629204" lon="12.1442141"><ele>391.0</ele><time>2026-04-12T16:10:50.012Z</time></trkpt><trkpt lat="44.0630179" lon="12.1441345"><ele>391.0</ele><time>2026-04-12T16:10:51.012Z</time></trkpt><trkpt lat="44.0631226" lon="12.1440607"><ele>393.25</ele><time>2026-04-12T16:10:52.013Z</time></trkpt><trkpt lat="44.0632315" lon="12.1439854"><ele>395.5</ele><time>2026-04-12T16:10:53.013Z</time></trkpt><trkpt lat="44.0633487" lon="12.1439075"><ele>397.75</ele><time>2026-04-12T16:10:54.014Z</time></trkpt><trkpt lat="44.0634672" lon="12.143817"><ele>400.0</ele><time>2026-04-12T16:10:55.012Z</time></trkpt><trkpt lat="44.0635907" lon="12.1437175"><ele>400.0</ele><time>2026-04-12T16:10:56.014Z</time></trkpt><trkpt lat="44.0637174" lon="12.1436122"><ele>400.0</ele><time>2026-04-12T16:10:57.014Z</time></trkpt><trkpt lat="44.0638439" lon="12.1434943"><ele>400.0</ele><time>2026-04-12T16:10:58.012Z</time></trkpt><trkpt lat="44.0639581" lon="12.1433626"><ele>400.0</ele><time>2026-04-12T16:10:59.014Z</time></trkpt><trkpt lat="44.0640571" lon="12.1432333"><ele>404.25</ele><time>2026-04-12T16:11:00.014Z</time></trkpt><trkpt lat="44.0641353" lon="12.1431055"><ele>408.5</ele><time>2026-04-12T16:11:01.009Z</time></trkpt><trkpt lat="44.0641975" lon="12.1429722"><ele>412.75</ele><time>2026-04-12T16:11:02.013Z</time></trkpt><trkpt lat="44.0642396" lon="12.1428292"><ele>417.0</ele><time>2026-04-12T16:11:03.014Z</time></trkpt><trkpt lat="44.0642575" lon="12.1426826"><ele>417.0</ele><time>2026-04-12T16:11:04.014Z</time></trkpt><trkpt lat="44.0642464" lon="12.1425329"><ele>417.0</ele><time>2026-04-12T16:11:05.013Z</time></trkpt><trkpt lat="44.0642086" lon="12.1423862"><ele>417.0</ele><time>2026-04-12T16:11:06.013Z</time></trkpt><trkpt lat="44.0641527" lon="12.1422374"><ele>417.0</ele><time>2026-04-12T16:11:07.013Z</time></trkpt><trkpt lat="44.0640946" lon="12.142087"><ele>413.6</ele><time>2026-04-12T16:11:08.014Z</time></trkpt><trkpt lat="44.0640302" lon="12.141942"><ele>410.20000000000005</ele><time>2026-04-12T16:11:09.012Z</time></trkpt><trkpt lat="44.0639834" lon="12.1418089"><ele>406.8</ele><time>2026-04-12T16:11:10.012Z</time></trkpt><trkpt lat="44.0639576" lon="12.1417001"><ele>403.4</ele><time>2026-04-12T16:11:11.013Z</time></trkpt><trkpt lat="44.0639587" lon="12.1415989"><ele>400.0</ele><time>2026-04-12T16:11:12.012Z</time></trkpt><trkpt lat="44.0639831" lon="12.1415004"><ele>399.5</ele><time>2026-04-12T16:11:13.016Z</time></trkpt><trkpt lat="44.0640212" lon="12.1414048"><ele>399.0</ele><time>2026-04-12T16:11:14.014Z</time></trkpt><trkpt lat="44.064121" lon="12.1413118"><ele>398.5</ele><time>2026-04-12T16:11:15.013Z</time></trkpt><trkpt lat="44.0642444" lon="12.1412244"><ele>398.0</ele><time>2026-04-12T16:11:16.014Z</time></trkpt><trkpt lat="44.0643675" lon="12.1411189"><ele>405.3333333333333</ele><time>2026-04-12T16:11:17.013Z</time></trkpt><trkpt lat="44.064503" lon="12.1410101"><ele>412.66666666666663</ele><time>2026-04-12T16:11:18.015Z</time></trkpt><trkpt lat="44.0646392" lon="12.1408875"><ele>420.0</ele><time>2026-04-12T16:11:19.014Z</time></trkpt><trkpt lat="44.0647817" lon="12.1407672"><ele>420.25</ele><time>2026-04-12T16:11:20.014Z</time></trkpt><trkpt lat="44.0649143" lon="12.1406493"><ele>420.5</ele><time>2026-04-12T16:11:21.013Z</time></trkpt><trkpt lat="44.0650354" lon="12.1405375"><ele>420.75</ele><time>2026-04-12T16:11:22.014Z</time></trkpt><trkpt lat="44.0651404" lon="12.1404283"><ele>421.0</ele><time>2026-04-12T16:11:23.013Z</time></trkpt><trkpt lat="44.0652255" lon="12.1403154"><ele>421.0</ele><time>2026-04-12T16:11:24.013Z</time></trkpt><trkpt lat="44.0652853" lon="12.140192"><ele>421.0</ele><time>2026-04-12T16:11:25.016Z</time></trkpt><trkpt lat="44.0653141" lon="12.1400593"><ele>421.0</ele><time>2026-04-12T16:11:26.016Z</time></trkpt><trkpt lat="44.0653172" lon="12.1399033"><ele>421.0</ele><time>2026-04-12T16:11:27.012Z</time></trkpt><trkpt lat="44.0653043" lon="12.1397294"><ele>421.0</ele><time>2026-04-12T16:11:28.014Z</time></trkpt><trkpt lat="44.0652991" lon="12.1395608"><ele>420.75</ele><time>2026-04-12T16:11:29.015Z</time></trkpt><trkpt lat="44.0653091" lon="12.1393884"><ele>420.5</ele><time>2026-04-12T16:11:30.015Z</time></trkpt><trkpt lat="44.0653377" lon="12.1392249"><ele>420.25</ele><time>2026-04-12T16:11:31.015Z</time></trkpt><trkpt lat="44.065384" lon="12.1390594"><ele>420.0</ele><time>2026-04-12T16:11:32.014Z</time></trkpt><trkpt lat="44.0654294" lon="12.1388879"><ele>420.0</ele><time>2026-04-12T16:11:33.015Z</time></trkpt><trkpt lat="44.0654807" lon="12.1387285"><ele>420.0</ele><time>2026-04-12T16:11:34.014Z</time></trkpt><trkpt lat="44.0655411" lon="12.138584"><ele>420.0</ele><time>2026-04-12T16:11:35.018Z</time></trkpt><trkpt lat="44.0656115" lon="12.1384564"><ele>420.0</ele><time>2026-04-12T16:11:36.012Z</time></trkpt><trkpt lat="44.0656967" lon="12.1383488"><ele>421.75</ele><time>2026-04-12T16:11:37.014Z</time></trkpt><trkpt lat="44.0657894" lon="12.1382485"><ele>423.5</ele><time>2026-04-12T16:11:38.015Z</time></trkpt><trkpt lat="44.0658824" lon="12.1381432"><ele>425.25</ele><time>2026-04-12T16:11:39.014Z</time></trkpt><trkpt lat="44.0659776" lon="12.1380387"><ele>427.0</ele><time>2026-04-12T16:11:40.013Z</time></trkpt><trkpt lat="44.0660742" lon="12.137931"><ele>427.0</ele><time>2026-04-12T16:11:41.013Z</time></trkpt><trkpt lat="44.0661778" lon="12.1378324"><ele>427.0</ele><time>2026-04-12T16:11:42.015Z</time></trkpt><trkpt lat="44.0662819" lon="12.1377332"><ele>427.0</ele><time>2026-04-12T16:11:43.014Z</time></trkpt><trkpt lat="44.0663859" lon="12.1376337"><ele>427.0</ele><time>2026-04-12T16:11:44.013Z</time></trkpt><trkpt lat="44.0664881" lon="12.1375313"><ele>427.0</ele><time>2026-04-12T16:11:45.012Z</time></trkpt><trkpt lat="44.0665883" lon="12.1374324"><ele>427.0</ele><time>2026-04-12T16:11:46.013Z</time></trkpt><trkpt lat="44.0666845" lon="12.1373507"><ele>427.0</ele><time>2026-04-12T16:11:47.013Z</time></trkpt><trkpt lat="44.0667835" lon="12.1372846"><ele>427.0</ele><time>2026-04-12T16:11:48.014Z</time></trkpt><trkpt lat="44.0668901" lon="12.1372309"><ele>429.5</ele><time>2026-04-12T16:11:49.013Z</time></trkpt><trkpt lat="44.0670044" lon="12.1371871"><ele>432.0</ele><time>2026-04-12T16:11:50.016Z</time></trkpt><trkpt lat="44.0671243" lon="12.1371451"><ele>434.5</ele><time>2026-04-12T16:11:51.014Z</time></trkpt><trkpt lat="44.0672527" lon="12.1371151"><ele>437.0</ele><time>2026-04-12T16:11:52.015Z</time></trkpt><trkpt lat="44.0673864" lon="12.1370878"><ele>437.25</ele><time>2026-04-12T16:11:53.013Z</time></trkpt><trkpt lat="44.0675263" lon="12.1370717"><ele>437.5</ele><time>2026-04-12T16:11:54.016Z</time></trkpt><trkpt lat="44.0676648" lon="12.1370677"><ele>437.75</ele><time>2026-04-12T16:11:55.016Z</time></trkpt><trkpt lat="44.0677957" lon="12.1370823"><ele>438.0</ele><time>2026-04-12T16:11:56.012Z</time></trkpt><trkpt lat="44.0679153" lon="12.1371037"><ele>438.0</ele><time>2026-04-12T16:11:57.015Z</time></trkpt><trkpt lat="44.0680213" lon="12.1371149"><ele>437.99999999999994</ele><time>2026-04-12T16:11:58.016Z</time></trkpt><trkpt lat="44.0681132" lon="12.1371162"><ele>437.99999999999994</ele><time>2026-04-12T16:11:59.011Z</time></trkpt><trkpt lat="44.0681844" lon="12.1370936"><ele>438.0</ele><time>2026-04-12T16:12:00.015Z</time></trkpt><trkpt lat="44.0682806" lon="12.1369907"><ele>438.0</ele><time>2026-04-12T16:12:02.012Z</time></trkpt><trkpt lat="44.0683172" lon="12.1369072"><ele>436.4</ele><time>2026-04-12T16:12:03.015Z</time></trkpt><trkpt lat="44.0683481" lon="12.1368096"><ele>434.79999999999995</ele><time>2026-04-12T16:12:04.018Z</time></trkpt><trkpt lat="44.0683618" lon="12.1366855"><ele>433.2</ele><time>2026-04-12T16:12:05.012Z</time></trkpt><trkpt lat="44.0683513" lon="12.1365113"><ele>431.6</ele><time>2026-04-12T16:12:06.012Z</time></trkpt><trkpt lat="44.0683421" lon="12.1363221"><ele>430.0</ele><time>2026-04-12T16:12:07.012Z</time></trkpt><trkpt lat="44.068347" lon="12.1361482"><ele>430.0</ele><time>2026-04-12T16:12:08.013Z</time></trkpt><trkpt lat="44.0683471" lon="12.1359857"><ele>430.0</ele><time>2026-04-12T16:12:09.016Z</time></trkpt><trkpt lat="44.0683479" lon="12.1358283"><ele>430.0</ele><time>2026-04-12T16:12:10.013Z</time></trkpt><trkpt lat="44.068348" lon="12.1356803"><ele>430.0</ele><time>2026-04-12T16:12:11.013Z</time></trkpt><trkpt lat="44.0683656" lon="12.1355391"><ele>430.0</ele><time>2026-04-12T16:12:12.012Z</time></trkpt><trkpt lat="44.068394" lon="12.135419"><ele>430.0</ele><time>2026-04-12T16:12:13.014Z</time></trkpt><trkpt lat="44.0684235" lon="12.1353188"><ele>430.0</ele><time>2026-04-12T16:12:14.014Z</time></trkpt><trkpt lat="44.0684655" lon="12.1351754"><ele>430.0</ele><time>2026-04-12T16:12:16.013Z</time></trkpt><trkpt lat="44.0685323" lon="12.135083"><ele>430.0</ele><time>2026-04-12T16:12:19.012Z</time></trkpt><trkpt lat="44.0686143" lon="12.1350829"><ele>430.0</ele><time>2026-04-12T16:12:21.012Z</time></trkpt><trkpt lat="44.0687352" lon="12.135118"><ele>430.0</ele><time>2026-04-12T16:12:23.012Z</time></trkpt><trkpt lat="44.0688131" lon="12.1351247"><ele>430.0</ele><time>2026-04-12T16:12:24.012Z</time></trkpt><trkpt lat="44.0688946" lon="12.1351255"><ele>430.0</ele><time>2026-04-12T16:12:25.012Z</time></trkpt><trkpt lat="44.0689733" lon="12.1351274"><ele>430.0</ele><time>2026-04-12T16:12:26.011Z</time></trkpt><trkpt lat="44.0690461" lon="12.1351309"><ele>430.0</ele><time>2026-04-12T16:12:27.014Z</time></trkpt><trkpt lat="44.0691139" lon="12.135133"><ele>430.0</ele><time>2026-04-12T16:12:28.012Z</time></trkpt><trkpt lat="44.0691826" lon="12.1351341"><ele>430.0</ele><time>2026-04-12T16:12:29.014Z</time></trkpt><trkpt lat="44.0692542" lon="12.1351479"><ele>430.50000000000006</ele><time>2026-04-12T16:12:30.012Z</time></trkpt><trkpt lat="44.0693322" lon="12.1351755"><ele>431.0</ele><time>2026-04-12T16:12:31.012Z</time></trkpt><trkpt lat="44.0694211" lon="12.135196"><ele>431.5</ele><time>2026-04-12T16:12:32.015Z</time></trkpt><trkpt lat="44.0695148" lon="12.1351837"><ele>432.0</ele><time>2026-04-12T16:12:33.013Z</time></trkpt><trkpt lat="44.0696078" lon="12.1351585"><ele>432.50000000000006</ele><time>2026-04-12T16:12:34.012Z</time></trkpt><trkpt lat="44.069695" lon="12.1351332"><ele>433.0</ele><time>2026-04-12T16:12:35.011Z</time></trkpt><trkpt lat="44.0697794" lon="12.1350976"><ele>433.0</ele><time>2026-04-12T16:12:36.012Z</time></trkpt><trkpt lat="44.069865" lon="12.1350499"><ele>432.99999999999994</ele><time>2026-04-12T16:12:37.014Z</time></trkpt><trkpt lat="44.0699487" lon="12.1349905"><ele>432.99999999999994</ele><time>2026-04-12T16:12:38.015Z</time></trkpt><trkpt lat="44.0700309" lon="12.1349183"><ele>433.0</ele><time>2026-04-12T16:12:39.014Z</time></trkpt><trkpt lat="44.0701164" lon="12.134838"><ele>433.0</ele><time>2026-04-12T16:12:40.017Z</time></trkpt><trkpt lat="44.0702035" lon="12.13476"><ele>434.0</ele><time>2026-04-12T16:12:41.011Z</time></trkpt><trkpt lat="44.0702939" lon="12.1346866"><ele>434.99999999999994</ele><time>2026-04-12T16:12:42.013Z</time></trkpt><trkpt lat="44.07039" lon="12.1346294"><ele>435.99999999999994</ele><time>2026-04-12T16:12:43.011Z</time></trkpt><trkpt lat="44.0704899" lon="12.1345889"><ele>437.0</ele><time>2026-04-12T16:12:44.012Z</time></trkpt><trkpt lat="44.0705865" lon="12.1345516"><ele>438.0</ele><time>2026-04-12T16:12:45.013Z</time></trkpt><trkpt lat="44.0706765" lon="12.1345099"><ele>438.0</ele><time>2026-04-12T16:12:46.011Z</time></trkpt><trkpt lat="44.0707598" lon="12.1344738"><ele>438.0</ele><time>2026-04-12T16:12:47.016Z</time></trkpt><trkpt lat="44.0708434" lon="12.1344312"><ele>438.0</ele><time>2026-04-12T16:12:48.011Z</time></trkpt><trkpt lat="44.0709192" lon="12.1343815"><ele>438.0</ele><time>2026-04-12T16:12:49.012Z</time></trkpt><trkpt lat="44.0709915" lon="12.1343291"><ele>438.0</ele><time>2026-04-12T16:12:50.012Z</time></trkpt><trkpt lat="44.0710604" lon="12.1342807"><ele>438.0</ele><time>2026-04-12T16:12:51.013Z</time></trkpt><trkpt lat="44.0711287" lon="12.134238"><ele>438.3333333333333</ele><time>2026-04-12T16:12:52.012Z</time></trkpt><trkpt lat="44.0711947" lon="12.1341931"><ele>438.66666666666663</ele><time>2026-04-12T16:12:53.012Z</time></trkpt><trkpt lat="44.0712495" lon="12.1341175"><ele>439.0</ele><time>2026-04-12T16:12:54.013Z</time></trkpt><trkpt lat="44.0712953" lon="12.1340229"><ele>439.3333333333333</ele><time>2026-04-12T16:12:55.012Z</time></trkpt><trkpt lat="44.071336" lon="12.1339074"><ele>439.66666666666663</ele><time>2026-04-12T16:12:56.014Z</time></trkpt><trkpt lat="44.071391" lon="12.1337846"><ele>440.0</ele><time>2026-04-12T16:12:57.012Z</time></trkpt><trkpt lat="44.0714566" lon="12.1336281"><ele>440.0</ele><time>2026-04-12T16:12:58.016Z</time></trkpt><trkpt lat="44.0715313" lon="12.1334727"><ele>440.0</ele><time>2026-04-12T16:12:59.012Z</time></trkpt><trkpt lat="44.0716189" lon="12.1333345"><ele>440.0</ele><time>2026-04-12T16:13:00.013Z</time></trkpt><trkpt lat="44.0717216" lon="12.1332168"><ele>440.0</ele><time>2026-04-12T16:13:01.013Z</time></trkpt><trkpt lat="44.0718122" lon="12.1330912"><ele>436.8</ele><time>2026-04-12T16:13:02.012Z</time></trkpt><trkpt lat="44.0719011" lon="12.1329747"><ele>433.6</ele><time>2026-04-12T16:13:03.013Z</time></trkpt><trkpt lat="44.0719852" lon="12.1328704"><ele>430.4</ele><time>2026-04-12T16:13:04.012Z</time></trkpt><trkpt lat="44.0720582" lon="12.132768"><ele>427.2</ele><time>2026-04-12T16:13:05.01Z</time></trkpt><trkpt lat="44.072121" lon="12.1326812"><ele>424.0</ele><time>2026-04-12T16:13:06.013Z</time></trkpt><trkpt lat="44.0721738" lon="12.1326082"><ele>424.00000000000006</ele><time>2026-04-12T16:13:07.011Z</time></trkpt><trkpt lat="44.0722754" lon="12.1325236"><ele>424.0</ele><time>2026-04-12T16:13:09.012Z</time></trkpt><trkpt lat="44.0723417" lon="12.132508"><ele>424.0</ele><time>2026-04-12T16:13:10.012Z</time></trkpt><trkpt lat="44.0724035" lon="12.1324858"><ele>424.0</ele><time>2026-04-12T16:13:11.013Z</time></trkpt><trkpt lat="44.0724863" lon="12.132413"><ele>424.00000000000006</ele><time>2026-04-12T16:13:13.013Z</time></trkpt><trkpt lat="44.0725336" lon="12.1323467"><ele>424.0</ele><time>2026-04-12T16:13:16.016Z</time></trkpt><trkpt lat="44.0725964" lon="12.1324032"><ele>424.0</ele><time>2026-04-12T16:13:19.013Z</time></trkpt><trkpt lat="44.0725995" lon="12.1325206"><ele>424.0</ele><time>2026-04-12T16:13:21.012Z</time></trkpt><trkpt lat="44.0725356" lon="12.1327455"><ele>424.0</ele><time>2026-04-12T16:13:24.014Z</time></trkpt><trkpt lat="44.0724964" lon="12.1328711"><ele>424.0</ele><time>2026-04-12T16:13:25.014Z</time></trkpt><trkpt lat="44.0724548" lon="12.1329822"><ele>424.0</ele><time>2026-04-12T16:13:26.012Z</time></trkpt><trkpt lat="44.072419" lon="12.1330804"><ele>424.0</ele><time>2026-04-12T16:13:27.015Z</time></trkpt><trkpt lat="44.0723873" lon="12.1331638"><ele>424.0</ele><time>2026-04-12T16:13:28.012Z</time></trkpt><trkpt lat="44.0723593" lon="12.1332455"><ele>424.0</ele><time>2026-04-12T16:13:29.012Z</time></trkpt><trkpt lat="44.0723011" lon="12.1333956"><ele>424.0</ele><time>2026-04-12T16:13:31.013Z</time></trkpt><trkpt lat="44.0722297" lon="12.1335332"><ele>424.0</ele><time>2026-04-12T16:13:33.011Z</time></trkpt><trkpt lat="44.0721786" lon="12.1336057"><ele>421.79999999999995</ele><time>2026-04-12T16:13:34.011Z</time></trkpt><trkpt lat="44.0721216" lon="12.1336686"><ele>419.59999999999997</ele><time>2026-04-12T16:13:35.011Z</time></trkpt><trkpt lat="44.0720678" lon="12.1337227"><ele>417.4</ele><time>2026-04-12T16:13:36.012Z</time></trkpt><trkpt lat="44.0719939" lon="12.1338569"><ele>415.2</ele><time>2026-04-12T16:13:38.012Z</time></trkpt><trkpt lat="44.071983" lon="12.1340281"><ele>413.0</ele><time>2026-04-12T16:13:40.012Z</time></trkpt><trkpt lat="44.0719966" lon="12.1341779"><ele>410.8333333333333</ele><time>2026-04-12T16:13:42.015Z</time></trkpt><trkpt lat="44.0720306" lon="12.1342738"><ele>408.66666666666663</ele><time>2026-04-12T16:13:43.012Z</time></trkpt><trkpt lat="44.07206" lon="12.1343806"><ele>406.5</ele><time>2026-04-12T16:13:44.014Z</time></trkpt><trkpt lat="44.0720809" lon="12.1344964"><ele>404.33333333333337</ele><time>2026-04-12T16:13:45.012Z</time></trkpt><trkpt lat="44.07209" lon="12.1346211"><ele>402.1666666666667</ele><time>2026-04-12T16:13:46.013Z</time></trkpt><trkpt lat="44.0721019" lon="12.1347421"><ele>400.0</ele><time>2026-04-12T16:13:47.012Z</time></trkpt><trkpt lat="44.0721152" lon="12.1348623"><ele>397.50000000000006</ele><time>2026-04-12T16:13:48.014Z</time></trkpt><trkpt lat="44.0721303" lon="12.1349794"><ele>395.0</ele><time>2026-04-12T16:13:49.013Z</time></trkpt><trkpt lat="44.0721464" lon="12.1350918"><ele>392.5</ele><time>2026-04-12T16:13:50.014Z</time></trkpt><trkpt lat="44.0721642" lon="12.1351995"><ele>390.0</ele><time>2026-04-12T16:13:51.013Z</time></trkpt><trkpt lat="44.0721837" lon="12.1353109"><ele>387.50000000000006</ele><time>2026-04-12T16:13:52.013Z</time></trkpt><trkpt lat="44.0722055" lon="12.1354284"><ele>385.0</ele><time>2026-04-12T16:13:53.011Z</time></trkpt><trkpt lat="44.0722338" lon="12.1355461"><ele>385.00000000000006</ele><time>2026-04-12T16:13:54.012Z</time></trkpt><trkpt lat="44.0722626" lon="12.1356642"><ele>385.0</ele><time>2026-04-12T16:13:55.011Z</time></trkpt><trkpt lat="44.0722832" lon="12.1357912"><ele>385.0</ele><time>2026-04-12T16:13:56.011Z</time></trkpt><trkpt lat="44.0723011" lon="12.1359155"><ele>385.0</ele><time>2026-04-12T16:13:57.012Z</time></trkpt><trkpt lat="44.072311" lon="12.136029"><ele>385.00000000000006</ele><time>2026-04-12T16:13:58.013Z</time></trkpt><trkpt lat="44.0723207" lon="12.1361285"><ele>385.0</ele><time>2026-04-12T16:13:59.015Z</time></trkpt><trkpt lat="44.0723311" lon="12.1362168"><ele>382.1666666666667</ele><time>2026-04-12T16:14:00.014Z</time></trkpt><trkpt lat="44.0723475" lon="12.1363021"><ele>379.33333333333337</ele><time>2026-04-12T16:14:01.016Z</time></trkpt><trkpt lat="44.0723552" lon="12.1364665"><ele>376.5</ele><time>2026-04-12T16:14:03.015Z</time></trkpt><trkpt lat="44.0723763" lon="12.1366068"><ele>373.6666666666667</ele><time>2026-04-12T16:14:05.012Z</time></trkpt><trkpt lat="44.0724039" lon="12.1366866"><ele>370.83333333333337</ele><time>2026-04-12T16:14:06.014Z</time></trkpt><trkpt lat="44.0724431" lon="12.1367692"><ele>368.0</ele><time>2026-04-12T16:14:07.013Z</time></trkpt><trkpt lat="44.0725007" lon="12.1368532"><ele>363.4</ele><time>2026-04-12T16:14:08.012Z</time></trkpt><trkpt lat="44.0725689" lon="12.1369331"><ele>358.79999999999995</ele><time>2026-04-12T16:14:09.011Z</time></trkpt><trkpt lat="44.0726471" lon="12.1370046"><ele>354.2</ele><time>2026-04-12T16:14:10.012Z</time></trkpt><trkpt lat="44.0727337" lon="12.1370668"><ele>349.6</ele><time>2026-04-12T16:14:11.013Z</time></trkpt><trkpt lat="44.0728206" lon="12.1371211"><ele>345.0</ele><time>2026-04-12T16:14:12.013Z</time></trkpt><trkpt lat="44.0729048" lon="12.137169"><ele>345.0</ele><time>2026-04-12T16:14:13.015Z</time></trkpt><trkpt lat="44.0729824" lon="12.1372111"><ele>345.0</ele><time>2026-04-12T16:14:14.013Z</time></trkpt><trkpt lat="44.0730543" lon="12.1372457"><ele>345.0</ele><time>2026-04-12T16:14:15.015Z</time></trkpt><trkpt lat="44.0731205" lon="12.1372678"><ele>345.0</ele><time>2026-04-12T16:14:16.013Z</time></trkpt><trkpt lat="44.0731837" lon="12.1372808"><ele>345.0</ele><time>2026-04-12T16:14:17.015Z</time></trkpt><trkpt lat="44.0733153" lon="12.1372641"><ele>345.0</ele><time>2026-04-12T16:14:19.011Z</time></trkpt><trkpt lat="44.0733948" lon="12.1372414"><ele>340.4</ele><time>2026-04-12T16:14:20.014Z</time></trkpt><trkpt lat="44.0734798" lon="12.1372201"><ele>335.8</ele><time>2026-04-12T16:14:21.013Z</time></trkpt><trkpt lat="44.0735688" lon="12.1371989"><ele>331.20000000000005</ele><time>2026-04-12T16:14:22.011Z</time></trkpt><trkpt lat="44.0736574" lon="12.1371728"><ele>326.6</ele><time>2026-04-12T16:14:23.013Z</time></trkpt><trkpt lat="44.0737485" lon="12.1371324"><ele>322.0</ele><time>2026-04-12T16:14:24.012Z</time></trkpt><trkpt lat="44.0738367" lon="12.1370757"><ele>322.0</ele><time>2026-04-12T16:14:25.019Z</time></trkpt><trkpt lat="44.0739236" lon="12.1370086"><ele>322.0</ele><time>2026-04-12T16:14:26.012Z</time></trkpt><trkpt lat="44.0740159" lon="12.1369432"><ele>322.0</ele><time>2026-04-12T16:14:27.013Z</time></trkpt><trkpt lat="44.0741076" lon="12.1368831"><ele>322.0</ele><time>2026-04-12T16:14:28.011Z</time></trkpt><trkpt lat="44.0742022" lon="12.1368329"><ele>322.0</ele><time>2026-04-12T16:14:29.011Z</time></trkpt><trkpt lat="44.0743021" lon="12.1368045"><ele>317.6</ele><time>2026-04-12T16:14:30.013Z</time></trkpt><trkpt lat="44.074403" lon="12.1367908"><ele>313.20000000000005</ele><time>2026-04-12T16:14:31.016Z</time></trkpt><trkpt lat="44.0745045" lon="12.1367928"><ele>308.8</ele><time>2026-04-12T16:14:32.013Z</time></trkpt><trkpt lat="44.0746051" lon="12.136802"><ele>304.4</ele><time>2026-04-12T16:14:33.016Z</time></trkpt><trkpt lat="44.0747026" lon="12.1368275"><ele>300.0</ele><time>2026-04-12T16:14:34.014Z</time></trkpt><trkpt lat="44.0747978" lon="12.1368675"><ele>300.0</ele><time>2026-04-12T16:14:35.013Z</time></trkpt><trkpt lat="44.074889" lon="12.1369312"><ele>300.0</ele><time>2026-04-12T16:14:36.014Z</time></trkpt><trkpt lat="44.07497" lon="12.1370136"><ele>300.0</ele><time>2026-04-12T16:14:37.013Z</time></trkpt><trkpt lat="44.0750372" lon="12.1371306"><ele>300.0</ele><time>2026-04-12T16:14:38.018Z</time></trkpt><trkpt lat="44.0750977" lon="12.1372763"><ele>300.0</ele><time>2026-04-12T16:14:39.013Z</time></trkpt><trkpt lat="44.0751548" lon="12.1374371"><ele>298.25</ele><time>2026-04-12T16:14:40.012Z</time></trkpt><trkpt lat="44.0752136" lon="12.1376009"><ele>296.5</ele><time>2026-04-12T16:14:41.013Z</time></trkpt><trkpt lat="44.0752804" lon="12.1377499"><ele>294.75</ele><time>2026-04-12T16:14:42.012Z</time></trkpt><trkpt lat="44.0753535" lon="12.1378859"><ele>293.0</ele><time>2026-04-12T16:14:43.013Z</time></trkpt><trkpt lat="44.0754388" lon="12.1379993"><ele>293.0</ele><time>2026-04-12T16:14:44.011Z</time></trkpt><trkpt lat="44.0755396" lon="12.1380899"><ele>293.0</ele><time>2026-04-12T16:14:45.012Z</time></trkpt><trkpt lat="44.0756501" lon="12.138171"><ele>293.0</ele><time>2026-04-12T16:14:46.012Z</time></trkpt><trkpt lat="44.0757717" lon="12.1382374"><ele>293.0</ele><time>2026-04-12T16:14:47.011Z</time></trkpt><trkpt lat="44.0759044" lon="12.1382912"><ele>290.25</ele><time>2026-04-12T16:14:48.015Z</time></trkpt><trkpt lat="44.0760396" lon="12.1383347"><ele>287.5</ele><time>2026-04-12T16:14:49.012Z</time></trkpt><trkpt lat="44.0761874" lon="12.13835"><ele>284.75</ele><time>2026-04-12T16:14:50.012Z</time></trkpt><trkpt lat="44.0763467" lon="12.1383449"><ele>282.0</ele><time>2026-04-12T16:14:51.012Z</time></trkpt><trkpt lat="44.0765138" lon="12.1383338"><ele>279.6666666666667</ele><time>2026-04-12T16:14:52.011Z</time></trkpt><trkpt lat="44.0766879" lon="12.1383222"><ele>277.33333333333337</ele><time>2026-04-12T16:14:53.013Z</time></trkpt><trkpt lat="44.0768641" lon="12.1383191"><ele>275.0</ele><time>2026-04-12T16:14:54.012Z</time></trkpt><trkpt lat="44.0770386" lon="12.1383088"><ele>275.0</ele><time>2026-04-12T16:14:55.014Z</time></trkpt><trkpt lat="44.0772068" lon="12.1382977"><ele>275.0</ele><time>2026-04-12T16:14:56.013Z</time></trkpt><trkpt lat="44.0773704" lon="12.1382894"><ele>275.0</ele><time>2026-04-12T16:14:57.013Z</time></trkpt><trkpt lat="44.07753" lon="12.1382767"><ele>273.0</ele><time>2026-04-12T16:14:58.013Z</time></trkpt><trkpt lat="44.0776982" lon="12.138259"><ele>271.0</ele><time>2026-04-12T16:14:59.013Z</time></trkpt><trkpt lat="44.0778664" lon="12.1382374"><ele>269.0</ele><time>2026-04-12T16:15:00.015Z</time></trkpt><trkpt lat="44.0780297" lon="12.1382123"><ele>267.6666666666667</ele><time>2026-04-12T16:15:01.013Z</time></trkpt><trkpt lat="44.0781886" lon="12.1381924"><ele>266.3333333333333</ele><time>2026-04-12T16:15:02.013Z</time></trkpt><trkpt lat="44.0783427" lon="12.1381711"><ele>265.0</ele><time>2026-04-12T16:15:03.016Z</time></trkpt><trkpt lat="44.07849" lon="12.1381544"><ele>265.0</ele><time>2026-04-12T16:15:04.016Z</time></trkpt><trkpt lat="44.0786267" lon="12.1381403"><ele>265.0</ele><time>2026-04-12T16:15:05.099Z</time></trkpt><trkpt lat="44.0787424" lon="12.1381276"><ele>265.0</ele><time>2026-04-12T16:15:06.014Z</time></trkpt><trkpt lat="44.0788535" lon="12.1381217"><ele>265.0</ele><time>2026-04-12T16:15:07.015Z</time></trkpt><trkpt lat="44.0789526" lon="12.1381329"><ele>265.0</ele><time>2026-04-12T16:15:08.013Z</time></trkpt><trkpt lat="44.0790504" lon="12.1381554"><ele>265.0</ele><time>2026-04-12T16:15:09.014Z</time></trkpt><trkpt lat="44.0791421" lon="12.1382052"><ele>265.0</ele><time>2026-04-12T16:15:10.013Z</time></trkpt><trkpt lat="44.0792328" lon="12.1382723"><ele>265.0</ele><time>2026-04-12T16:15:11.013Z</time></trkpt><trkpt lat="44.079329" lon="12.1383581"><ele>265.0</ele><time>2026-04-12T16:15:12.014Z</time></trkpt><trkpt lat="44.079426" lon="12.138458"><ele>263.75</ele><time>2026-04-12T16:15:13.013Z</time></trkpt><trkpt lat="44.0795255" lon="12.1385673"><ele>262.5</ele><time>2026-04-12T16:15:14.015Z</time></trkpt><trkpt lat="44.0796307" lon="12.1386732"><ele>261.25</ele><time>2026-04-12T16:15:15.015Z</time></trkpt><trkpt lat="44.0797398" lon="12.1387817"><ele>260.0</ele><time>2026-04-12T16:15:16.013Z</time></trkpt><trkpt lat="44.0798408" lon="12.1388943"><ele>257.75</ele><time>2026-04-12T16:15:17.014Z</time></trkpt><trkpt lat="44.0799403" lon="12.1390034"><ele>255.5</ele><time>2026-04-12T16:15:18.013Z</time></trkpt><trkpt lat="44.0800345" lon="12.1391126"><ele>253.25</ele><time>2026-04-12T16:15:19.014Z</time></trkpt><trkpt lat="44.0801286" lon="12.1392196"><ele>251.0</ele><time>2026-04-12T16:15:20.013Z</time></trkpt><trkpt lat="44.0802269" lon="12.1393294"><ele>251.0</ele><time>2026-04-12T16:15:21.013Z</time></trkpt><trkpt lat="44.0803326" lon="12.1394421"><ele>251.0</ele><time>2026-04-12T16:15:22.013Z</time></trkpt><trkpt lat="44.0804468" lon="12.1395574"><ele>251.0</ele><time>2026-04-12T16:15:23.013Z</time></trkpt><trkpt lat="44.08056" lon="12.1396656"><ele>251.0</ele><time>2026-04-12T16:15:24.013Z</time></trkpt><trkpt lat="44.0806688" lon="12.1397617"><ele>251.25</ele><time>2026-04-12T16:15:25.018Z</time></trkpt><trkpt lat="44.0807827" lon="12.139836"><ele>251.5</ele><time>2026-04-12T16:15:26.014Z</time></trkpt><trkpt lat="44.0809072" lon="12.1398934"><ele>251.75</ele><time>2026-04-12T16:15:27.014Z</time></trkpt><trkpt lat="44.0810451" lon="12.1399507"><ele>252.0</ele><time>2026-04-12T16:15:28.013Z</time></trkpt><trkpt lat="44.0811924" lon="12.1400213"><ele>252.0</ele><time>2026-04-12T16:15:29.015Z</time></trkpt><trkpt lat="44.081341" lon="12.1400986"><ele>252.0</ele><time>2026-04-12T16:15:30.012Z</time></trkpt><trkpt lat="44.0814835" lon="12.1401784"><ele>252.0</ele><time>2026-04-12T16:15:31.013Z</time></trkpt><trkpt lat="44.0816127" lon="12.140255"><ele>253.5</ele><time>2026-04-12T16:15:32.012Z</time></trkpt><trkpt lat="44.0817318" lon="12.1403082"><ele>255.0</ele><time>2026-04-12T16:15:33.014Z</time></trkpt><trkpt lat="44.0818446" lon="12.1403329"><ele>256.5</ele><time>2026-04-12T16:15:34.016Z</time></trkpt><trkpt lat="44.0819596" lon="12.1403353"><ele>258.0</ele><time>2026-04-12T16:15:35.014Z</time></trkpt><trkpt lat="44.0820807" lon="12.1403117"><ele>258.0</ele><time>2026-04-12T16:15:36.013Z</time></trkpt><trkpt lat="44.0822074" lon="12.1402718"><ele>258.0</ele><time>2026-04-12T16:15:37.014Z</time></trkpt><trkpt lat="44.0823365" lon="12.1402378"><ele>258.0</ele><time>2026-04-12T16:15:38.014Z</time></trkpt><trkpt lat="44.0824577" lon="12.1401996"><ele>258.0</ele><time>2026-04-12T16:15:39.014Z</time></trkpt><trkpt lat="44.0825722" lon="12.140171"><ele>257.25</ele><time>2026-04-12T16:15:40.013Z</time></trkpt><trkpt lat="44.0826918" lon="12.140173"><ele>256.5</ele><time>2026-04-12T16:15:41.013Z</time></trkpt><trkpt lat="44.0828185" lon="12.1402164"><ele>255.75</ele><time>2026-04-12T16:15:42.013Z</time></trkpt><trkpt lat="44.0829526" lon="12.1402612"><ele>255.0</ele><time>2026-04-12T16:15:43.013Z</time></trkpt><trkpt lat="44.0830934" lon="12.1402979"><ele>255.0</ele><time>2026-04-12T16:15:44.015Z</time></trkpt><trkpt lat="44.0832339" lon="12.1403139"><ele>255.0</ele><time>2026-04-12T16:15:45.013Z</time></trkpt><trkpt lat="44.0833665" lon="12.1403191"><ele>255.0</ele><time>2026-04-12T16:15:46.012Z</time></trkpt><trkpt lat="44.0834849" lon="12.1403188"><ele>255.0</ele><time>2026-04-12T16:15:47.012Z</time></trkpt><trkpt lat="44.0835914" lon="12.1403193"><ele>253.6</ele><time>2026-04-12T16:15:48.013Z</time></trkpt><trkpt lat="44.0836892" lon="12.1403172"><ele>252.2</ele><time>2026-04-12T16:15:49.013Z</time></trkpt><trkpt lat="44.0837854" lon="12.1402968"><ele>250.8</ele><time>2026-04-12T16:15:50.015Z</time></trkpt><trkpt lat="44.0838768" lon="12.140254"><ele>249.4</ele><time>2026-04-12T16:15:51.012Z</time></trkpt><trkpt lat="44.0839638" lon="12.1401807"><ele>248.0</ele><time>2026-04-12T16:15:52.016Z</time></trkpt><trkpt lat="44.0840404" lon="12.1400818"><ele>247.4</ele><time>2026-04-12T16:15:53.014Z</time></trkpt><trkpt lat="44.0841101" lon="12.1399716"><ele>246.8</ele><time>2026-04-12T16:15:54.013Z</time></trkpt><trkpt lat="44.0841805" lon="12.139859"><ele>246.2</ele><time>2026-04-12T16:15:55.015Z</time></trkpt><trkpt lat="44.084253" lon="12.1397429"><ele>245.6</ele><time>2026-04-12T16:15:56.012Z</time></trkpt><trkpt lat="44.0843271" lon="12.1396265"><ele>245.0</ele><time>2026-04-12T16:15:57.015Z</time></trkpt><trkpt lat="44.0844035" lon="12.1395156"><ele>242.8</ele><time>2026-04-12T16:15:58.013Z</time></trkpt><trkpt lat="44.0844785" lon="12.1394027"><ele>240.6</ele><time>2026-04-12T16:15:59.013Z</time></trkpt><trkpt lat="44.0845542" lon="12.1392907"><ele>238.39999999999998</ele><time>2026-04-12T16:16:00.015Z</time></trkpt><trkpt lat="44.0846296" lon="12.1391796"><ele>236.2</ele><time>2026-04-12T16:16:01.011Z</time></trkpt><trkpt lat="44.0847018" lon="12.1390653"><ele>234.0</ele><time>2026-04-12T16:16:02.013Z</time></trkpt><trkpt lat="44.0847804" lon="12.1389547"><ele>231.75</ele><time>2026-04-12T16:16:03.016Z</time></trkpt><trkpt lat="44.0848586" lon="12.1388425"><ele>229.5</ele><time>2026-04-12T16:16:04.013Z</time></trkpt><trkpt lat="44.0849447" lon="12.1387404"><ele>227.25</ele><time>2026-04-12T16:16:05.015Z</time></trkpt><trkpt lat="44.0850316" lon="12.1386384"><ele>225.0</ele><time>2026-04-12T16:16:06.015Z</time></trkpt><trkpt lat="44.0851199" lon="12.1385329"><ele>225.0</ele><time>2026-04-12T16:16:07.013Z</time></trkpt><trkpt lat="44.0852119" lon="12.1384229"><ele>225.0</ele><time>2026-04-12T16:16:08.013Z</time></trkpt><trkpt lat="44.085315" lon="12.1383317"><ele>225.0</ele><time>2026-04-12T16:16:09.012Z</time></trkpt><trkpt lat="44.0854117" lon="12.1382317"><ele>225.0</ele><time>2026-04-12T16:16:10.01Z</time></trkpt><trkpt lat="44.0855017" lon="12.1381283"><ele>221.75</ele><time>2026-04-12T16:16:11.01Z</time></trkpt><trkpt lat="44.085585" lon="12.1380217"><ele>218.5</ele><time>2026-04-12T16:16:12.012Z</time></trkpt><trkpt lat="44.0856717" lon="12.1379183"><ele>215.25</ele><time>2026-04-12T16:16:13.014Z</time></trkpt><trkpt lat="44.08576" lon="12.1378167"><ele>212.0</ele><time>2026-04-12T16:16:14.014Z</time></trkpt><trkpt lat="44.0858533" lon="12.1377133"><ele>212.0</ele><time>2026-04-12T16:16:15.011Z</time></trkpt><trkpt lat="44.0859433" lon="12.1375983"><ele>212.0</ele><time>2026-04-12T16:16:16.014Z</time></trkpt><trkpt lat="44.0860433" lon="12.1374933"><ele>212.0</ele><time>2026-04-12T16:16:17.01Z</time></trkpt><trkpt lat="44.0861383" lon="12.1373817"><ele>212.0</ele><time>2026-04-12T16:16:18.012Z</time></trkpt><trkpt lat="44.0862317" lon="12.1372717"><ele>209.25</ele><time>2026-04-12T16:16:19.01Z</time></trkpt><trkpt lat="44.0863217" lon="12.1371583"><ele>206.5</ele><time>2026-04-12T16:16:20.011Z</time></trkpt><trkpt lat="44.08641" lon="12.1370483"><ele>203.75</ele><time>2026-04-12T16:16:21.012Z</time></trkpt><trkpt lat="44.0865" lon="12.1369383"><ele>201.0</ele><time>2026-04-12T16:16:22.012Z</time></trkpt><trkpt lat="44.0865883" lon="12.136825"><ele>199.0</ele><time>2026-04-12T16:16:23.011Z</time></trkpt><trkpt lat="44.086675" lon="12.1367117"><ele>197.0</ele><time>2026-04-12T16:16:24.014Z</time></trkpt><trkpt lat="44.08676" lon="12.13659"><ele>195.0</ele><time>2026-04-12T16:16:25.014Z</time></trkpt><trkpt lat="44.086835" lon="12.1364483"><ele>193.0</ele><time>2026-04-12T16:16:26.012Z</time></trkpt><trkpt lat="44.0869133" lon="12.136295"><ele>190.5</ele><time>2026-04-12T16:16:27.013Z</time></trkpt><trkpt lat="44.0869933" lon="12.1361383"><ele>188.0</ele><time>2026-04-12T16:16:28.01Z</time></trkpt><trkpt lat="44.0870783" lon="12.135975"><ele>185.5</ele><time>2026-04-12T16:16:29.013Z</time></trkpt><trkpt lat="44.087155" lon="12.13581"><ele>183.0</ele><time>2026-04-12T16:16:30.012Z</time></trkpt><trkpt lat="44.0872333" lon="12.135645"><ele>180.66666666666666</ele><time>2026-04-12T16:16:31.014Z</time></trkpt><trkpt lat="44.087315" lon="12.1354717"><ele>178.33333333333331</ele><time>2026-04-12T16:16:32.017Z</time></trkpt><trkpt lat="44.08739" lon="12.1352783"><ele>176.0</ele><time>2026-04-12T16:16:33.014Z</time></trkpt><trkpt lat="44.087475" lon="12.135085"><ele>172.33333333333331</ele><time>2026-04-12T16:16:34.012Z</time></trkpt><trkpt lat="44.08756" lon="12.1348833"><ele>168.66666666666666</ele><time>2026-04-12T16:16:35.015Z</time></trkpt><trkpt lat="44.0876217" lon="12.13465"><ele>165.0</ele><time>2026-04-12T16:16:36.011Z</time></trkpt><trkpt lat="44.08769" lon="12.1344117"><ele>165.0</ele><time>2026-04-12T16:16:37.012Z</time></trkpt><trkpt lat="44.087735" lon="12.1341667"><ele>165.0</ele><time>2026-04-12T16:16:38.017Z</time></trkpt><trkpt lat="44.087785" lon="12.1339383"><ele>165.0</ele><time>2026-04-12T16:16:39.012Z</time></trkpt><trkpt lat="44.0878233" lon="12.1337233"><ele>163.75</ele><time>2026-04-12T16:16:40.011Z</time></trkpt><trkpt lat="44.0878583" lon="12.1335233"><ele>162.5</ele><time>2026-04-12T16:16:41.012Z</time></trkpt><trkpt lat="44.0878917" lon="12.13333"><ele>161.25</ele><time>2026-04-12T16:16:42.011Z</time></trkpt><trkpt lat="44.0879282" lon="12.1331457"><ele>160.0</ele><time>2026-04-12T16:16:43.013Z</time></trkpt><trkpt lat="44.0879614" lon="12.1329671"><ele>158.5</ele><time>2026-04-12T16:16:44.012Z</time></trkpt><trkpt lat="44.0879974" lon="12.1327937"><ele>157.0</ele><time>2026-04-12T16:16:45.011Z</time></trkpt><trkpt lat="44.0880281" lon="12.1326278"><ele>155.5</ele><time>2026-04-12T16:16:46.012Z</time></trkpt><trkpt lat="44.0880593" lon="12.1324758"><ele>154.0</ele><time>2026-04-12T16:16:47.01Z</time></trkpt><trkpt lat="44.0881004" lon="12.132338"><ele>152.6</ele><time>2026-04-12T16:16:48.014Z</time></trkpt><trkpt lat="44.0881483" lon="12.1322088"><ele>151.2</ele><time>2026-04-12T16:16:49.013Z</time></trkpt><trkpt lat="44.0882051" lon="12.1320857"><ele>149.79999999999998</ele><time>2026-04-12T16:16:50.014Z</time></trkpt><trkpt lat="44.0882752" lon="12.1319725"><ele>148.4</ele><time>2026-04-12T16:16:51.014Z</time></trkpt><trkpt lat="44.0883641" lon="12.1318698"><ele>147.0</ele><time>2026-04-12T16:16:52.014Z</time></trkpt><trkpt lat="44.088465" lon="12.1317831"><ele>146.5</ele><time>2026-04-12T16:16:53.012Z</time></trkpt><trkpt lat="44.088575" lon="12.1317193"><ele>146.0</ele><time>2026-04-12T16:16:54.013Z</time></trkpt><trkpt lat="44.0886846" lon="12.1316573"><ele>145.5</ele><time>2026-04-12T16:16:55.012Z</time></trkpt><trkpt lat="44.0887915" lon="12.1315842"><ele>145.0</ele><time>2026-04-12T16:16:56.012Z</time></trkpt><trkpt lat="44.0889024" lon="12.1315051"><ele>143.25</ele><time>2026-04-12T16:16:57.013Z</time></trkpt><trkpt lat="44.0890231" lon="12.1314394"><ele>141.5</ele><time>2026-04-12T16:16:58.012Z</time></trkpt><trkpt lat="44.0891452" lon="12.131359"><ele>139.75</ele><time>2026-04-12T16:16:59.013Z</time></trkpt><trkpt lat="44.0892716" lon="12.1312787"><ele>138.0</ele><time>2026-04-12T16:17:00.014Z</time></trkpt><trkpt lat="44.0893999" lon="12.1311933"><ele>136.33333333333334</ele><time>2026-04-12T16:17:01.011Z</time></trkpt><trkpt lat="44.0895408" lon="12.1311058"><ele>134.66666666666669</ele><time>2026-04-12T16:17:02.015Z</time></trkpt><trkpt lat="44.0896938" lon="12.1310153"><ele>133.0</ele><time>2026-04-12T16:17:03.011Z</time></trkpt><trkpt lat="44.0898469" lon="12.1309241"><ele>132.66666666666669</ele><time>2026-04-12T16:17:04.013Z</time></trkpt><trkpt lat="44.0900014" lon="12.1308273"><ele>132.33333333333334</ele><time>2026-04-12T16:17:05.013Z</time></trkpt><trkpt lat="44.0901473" lon="12.130728"><ele>132.0</ele><time>2026-04-12T16:17:06.012Z</time></trkpt><trkpt lat="44.0902816" lon="12.1306188"><ele>131.75</ele><time>2026-04-12T16:17:07.016Z</time></trkpt><trkpt lat="44.0904059" lon="12.1305086"><ele>131.5</ele><time>2026-04-12T16:17:08.013Z</time></trkpt><trkpt lat="44.090519" lon="12.1303951"><ele>131.25</ele><time>2026-04-12T16:17:09.012Z</time></trkpt><trkpt lat="44.090615" lon="12.1302801"><ele>131.0</ele><time>2026-04-12T16:17:10.013Z</time></trkpt><trkpt lat="44.090701" lon="12.1301923"><ele>131.66666666666666</ele><time>2026-04-12T16:17:11.012Z</time></trkpt><trkpt lat="44.0907784" lon="12.1301222"><ele>132.33333333333331</ele><time>2026-04-12T16:17:12.014Z</time></trkpt><trkpt lat="44.0908481" lon="12.1300701"><ele>133.0</ele><time>2026-04-12T16:17:13.013Z</time></trkpt><trkpt lat="44.0909114" lon="12.130035"><ele>133.66666666666666</ele><time>2026-04-12T16:17:14.013Z</time></trkpt><trkpt lat="44.0910014" lon="12.1299634"><ele>134.33333333333334</ele><time>2026-04-12T16:17:16.014Z</time></trkpt><trkpt lat="44.0910316" lon="12.1298296"><ele>135.0</ele><time>2026-04-12T16:17:18.013Z</time></trkpt><trkpt lat="44.0910151" lon="12.1296515"><ele>135.0</ele><time>2026-04-12T16:17:20.013Z</time></trkpt><trkpt lat="44.0909998" lon="12.1295476"><ele>135.0</ele><time>2026-04-12T16:17:21.013Z</time></trkpt><trkpt lat="44.0909704" lon="12.1294394"><ele>135.0</ele><time>2026-04-12T16:17:22.012Z</time></trkpt><trkpt lat="44.090935" lon="12.1293235"><ele>135.0</ele><time>2026-04-12T16:17:23.012Z</time></trkpt><trkpt lat="44.0908938" lon="12.1292004"><ele>135.0</ele><time>2026-04-12T16:17:24.014Z</time></trkpt><trkpt lat="44.0908589" lon="12.1290788"><ele>135.0</ele><time>2026-04-12T16:17:25.013Z</time></trkpt><trkpt lat="44.0908352" lon="12.1289496"><ele>133.6</ele><time>2026-04-12T16:17:26.014Z</time></trkpt><trkpt lat="44.0908201" lon="12.1288224"><ele>132.2</ele><time>2026-04-12T16:17:27.017Z</time></trkpt><trkpt lat="44.0908106" lon="12.1286889"><ele>130.8</ele><time>2026-04-12T16:17:28.013Z</time></trkpt><trkpt lat="44.0908169" lon="12.1285467"><ele>129.4</ele><time>2026-04-12T16:17:29.013Z</time></trkpt><trkpt lat="44.0908246" lon="12.1283999"><ele>128.0</ele><time>2026-04-12T16:17:30.012Z</time></trkpt><trkpt lat="44.09083" lon="12.1282483"><ele>126.60000000000001</ele><time>2026-04-12T16:17:31.013Z</time></trkpt><trkpt lat="44.0908357" lon="12.1280946"><ele>125.20000000000002</ele><time>2026-04-12T16:17:32.013Z</time></trkpt><trkpt lat="44.0908422" lon="12.1279417"><ele>123.8</ele><time>2026-04-12T16:17:33.013Z</time></trkpt><trkpt lat="44.090845" lon="12.127785"><ele>122.4</ele><time>2026-04-12T16:17:34.012Z</time></trkpt><trkpt lat="44.090849" lon="12.1276251"><ele>121.0</ele><time>2026-04-12T16:17:35.013Z</time></trkpt><trkpt lat="44.0908471" lon="12.1274589"><ele>120.0</ele><time>2026-04-12T16:17:36.014Z</time></trkpt><trkpt lat="44.0908463" lon="12.1272931"><ele>119.0</ele><time>2026-04-12T16:17:37.013Z</time></trkpt><trkpt lat="44.0908484" lon="12.1271308"><ele>118.0</ele><time>2026-04-12T16:17:38.014Z</time></trkpt><trkpt lat="44.0908553" lon="12.1269764"><ele>117.0</ele><time>2026-04-12T16:17:39.011Z</time></trkpt><trkpt lat="44.0908687" lon="12.1268302"><ele>117.0</ele><time>2026-04-12T16:17:40.014Z</time></trkpt><trkpt lat="44.0908977" lon="12.1266929"><ele>116.99999999999999</ele><time>2026-04-12T16:17:41.012Z</time></trkpt><trkpt lat="44.0909438" lon="12.1265624"><ele>116.99999999999999</ele><time>2026-04-12T16:17:42.012Z</time></trkpt><trkpt lat="44.0909898" lon="12.1264317"><ele>117.0</ele><time>2026-04-12T16:17:43.014Z</time></trkpt><trkpt lat="44.0910364" lon="12.1263048"><ele>117.0</ele><time>2026-04-12T16:17:44.012Z</time></trkpt><trkpt lat="44.0910781" lon="12.1261817"><ele>116.6</ele><time>2026-04-12T16:17:45.014Z</time></trkpt><trkpt lat="44.091107" lon="12.1260607"><ele>116.19999999999999</ele><time>2026-04-12T16:17:46.016Z</time></trkpt><trkpt lat="44.0911322" lon="12.1259356"><ele>115.8</ele><time>2026-04-12T16:17:47.013Z</time></trkpt><trkpt lat="44.0911553" lon="12.1258046"><ele>115.4</ele><time>2026-04-12T16:17:48.013Z</time></trkpt><trkpt lat="44.0911772" lon="12.1256648"><ele>115.0</ele><time>2026-04-12T16:17:49.012Z</time></trkpt><trkpt lat="44.0912036" lon="12.1255245"><ele>115.0</ele><time>2026-04-12T16:17:50.014Z</time></trkpt><trkpt lat="44.0912498" lon="12.1253919"><ele>115.0</ele><time>2026-04-12T16:17:51.018Z</time></trkpt><trkpt lat="44.0913175" lon="12.1252669"><ele>115.0</ele><time>2026-04-12T16:17:52.016Z</time></trkpt><trkpt lat="44.0913993" lon="12.1251525"><ele>115.0</ele><time>2026-04-12T16:17:53.013Z</time></trkpt><trkpt lat="44.0914911" lon="12.1250458"><ele>115.0</ele><time>2026-04-12T16:17:54.012Z</time></trkpt><trkpt lat="44.0915851" lon="12.1249474"><ele>115.0</ele><time>2026-04-12T16:17:55.013Z</time></trkpt><trkpt lat="44.0916814" lon="12.1248568"><ele>115.0</ele><time>2026-04-12T16:17:56.012Z</time></trkpt><trkpt lat="44.0917725" lon="12.1247649"><ele>115.0</ele><time>2026-04-12T16:17:57.014Z</time></trkpt><trkpt lat="44.0918544" lon="12.1246592"><ele>114.75</ele><time>2026-04-12T16:17:58.014Z</time></trkpt><trkpt lat="44.0919388" lon="12.1245554"><ele>114.5</ele><time>2026-04-12T16:17:59.012Z</time></trkpt><trkpt lat="44.09203" lon="12.1244548"><ele>114.25</ele><time>2026-04-12T16:18:00.011Z</time></trkpt><trkpt lat="44.0921177" lon="12.1243363"><ele>114.0</ele><time>2026-04-12T16:18:01.014Z</time></trkpt><trkpt lat="44.0921996" lon="12.1241969"><ele>113.25</ele><time>2026-04-12T16:18:02.012Z</time></trkpt><trkpt lat="44.0922827" lon="12.1240463"><ele>112.5</ele><time>2026-04-12T16:18:03.011Z</time></trkpt><trkpt lat="44.0923722" lon="12.1238854"><ele>111.75</ele><time>2026-04-12T16:18:04.013Z</time></trkpt><trkpt lat="44.0924622" lon="12.1237193"><ele>111.0</ele><time>2026-04-12T16:18:05.012Z</time></trkpt><trkpt lat="44.0925524" lon="12.1235496"><ele>111.0</ele><time>2026-04-12T16:18:06.013Z</time></trkpt><trkpt lat="44.0926475" lon="12.1233811"><ele>111.0</ele><time>2026-04-12T16:18:07.012Z</time></trkpt><trkpt lat="44.0927431" lon="12.1232121"><ele>111.0</ele><time>2026-04-12T16:18:08.012Z</time></trkpt><trkpt lat="44.0928388" lon="12.1230422"><ele>112.66666666666666</ele><time>2026-04-12T16:18:09.013Z</time></trkpt><trkpt lat="44.0929377" lon="12.1228784"><ele>114.33333333333333</ele><time>2026-04-12T16:18:10.014Z</time></trkpt><trkpt lat="44.0930339" lon="12.1227076"><ele>116.0</ele><time>2026-04-12T16:18:11.011Z</time></trkpt><trkpt lat="44.0931285" lon="12.1225313"><ele>117.0</ele><time>2026-04-12T16:18:12.012Z</time></trkpt><trkpt lat="44.0932357" lon="12.1223649"><ele>118.0</ele><time>2026-04-12T16:18:13.013Z</time></trkpt><trkpt lat="44.0933472" lon="12.1221992"><ele>119.0</ele><time>2026-04-12T16:18:14.014Z</time></trkpt><trkpt lat="44.0934569" lon="12.1220347"><ele>117.33333333333333</ele><time>2026-04-12T16:18:15.012Z</time></trkpt><trkpt lat="44.0935709" lon="12.1218712"><ele>115.66666666666666</ele><time>2026-04-12T16:18:16.015Z</time></trkpt><trkpt lat="44.0936918" lon="12.1217145"><ele>114.0</ele><time>2026-04-12T16:18:17.013Z</time></trkpt><trkpt lat="44.0938171" lon="12.1215613"><ele>114.0</ele><time>2026-04-12T16:18:18.012Z</time></trkpt><trkpt lat="44.0939509" lon="12.1214148"><ele>114.0</ele><time>2026-04-12T16:18:19.016Z</time></trkpt><trkpt lat="44.0940888" lon="12.1212703"><ele>114.0</ele><time>2026-04-12T16:18:20.013Z</time></trkpt><trkpt lat="44.0942271" lon="12.1211229"><ele>112.0</ele><time>2026-04-12T16:18:21.017Z</time></trkpt><trkpt lat="44.094371" lon="12.1209755"><ele>110.0</ele><time>2026-04-12T16:18:22.013Z</time></trkpt><trkpt lat="44.0945182" lon="12.1208263"><ele>108.0</ele><time>2026-04-12T16:18:23.011Z</time></trkpt><trkpt lat="44.0946679" lon="12.1206791"><ele>108.0</ele><time>2026-04-12T16:18:24.013Z</time></trkpt><trkpt lat="44.0948092" lon="12.1205187"><ele>108.0</ele><time>2026-04-12T16:18:25.015Z</time></trkpt><trkpt lat="44.0949481" lon="12.120348"><ele>108.0</ele><time>2026-04-12T16:18:26.013Z</time></trkpt><trkpt lat="44.0950907" lon="12.1201871"><ele>108.33333333333334</ele><time>2026-04-12T16:18:27.014Z</time></trkpt><trkpt lat="44.0952407" lon="12.1200311"><ele>108.66666666666667</ele><time>2026-04-12T16:18:28.012Z</time></trkpt><trkpt lat="44.0953943" lon="12.1198833"><ele>109.0</ele><time>2026-04-12T16:18:29.016Z</time></trkpt><trkpt lat="44.0955535" lon="12.1197483"><ele>109.0</ele><time>2026-04-12T16:18:30.014Z</time></trkpt><trkpt lat="44.0957194" lon="12.1196215"><ele>109.0</ele><time>2026-04-12T16:18:31.014Z</time></trkpt><trkpt lat="44.0958855" lon="12.1194974"><ele>109.0</ele><time>2026-04-12T16:18:32.013Z</time></trkpt><trkpt lat="44.0960544" lon="12.1193684"><ele>109.0</ele><time>2026-04-12T16:18:33.016Z</time></trkpt><trkpt lat="44.0962233" lon="12.1192458"><ele>109.0</ele><time>2026-04-12T16:18:34.013Z</time></trkpt><trkpt lat="44.0963876" lon="12.1191294"><ele>109.0</ele><time>2026-04-12T16:18:35.015Z</time></trkpt><trkpt lat="44.096548" lon="12.1190193"><ele>107.33333333333334</ele><time>2026-04-12T16:18:36.012Z</time></trkpt><trkpt lat="44.0967042" lon="12.118915"><ele>105.66666666666666</ele><time>2026-04-12T16:18:37.014Z</time></trkpt><trkpt lat="44.0968552" lon="12.1188189"><ele>104.0</ele><time>2026-04-12T16:18:38.013Z</time></trkpt><trkpt lat="44.0969978" lon="12.1187191"><ele>104.0</ele><time>2026-04-12T16:18:39.014Z</time></trkpt><trkpt lat="44.0971346" lon="12.1186199"><ele>104.0</ele><time>2026-04-12T16:18:40.014Z</time></trkpt><trkpt lat="44.0972715" lon="12.1185289"><ele>104.0</ele><time>2026-04-12T16:18:41.013Z</time></trkpt><trkpt lat="44.0974054" lon="12.1184399"><ele>102.75</ele><time>2026-04-12T16:18:42.013Z</time></trkpt><trkpt lat="44.0975452" lon="12.1183835"><ele>101.5</ele><time>2026-04-12T16:18:43.013Z</time></trkpt><trkpt lat="44.097685" lon="12.1183593"><ele>100.25</ele><time>2026-04-12T16:18:44.014Z</time></trkpt><trkpt lat="44.0978225" lon="12.1183595"><ele>99.0</ele><time>2026-04-12T16:18:45.013Z</time></trkpt><trkpt lat="44.097959" lon="12.1183794"><ele>99.0</ele><time>2026-04-12T16:18:46.013Z</time></trkpt><trkpt lat="44.0980908" lon="12.1184043"><ele>99.0</ele><time>2026-04-12T16:18:47.012Z</time></trkpt><trkpt lat="44.0982239" lon="12.1184222"><ele>99.0</ele><time>2026-04-12T16:18:48.014Z</time></trkpt><trkpt lat="44.0983583" lon="12.1184416"><ele>99.0</ele><time>2026-04-12T16:18:49.012Z</time></trkpt><trkpt lat="44.0985018" lon="12.1184578"><ele>98.0</ele><time>2026-04-12T16:18:50.013Z</time></trkpt><trkpt lat="44.0986474" lon="12.1184736"><ele>97.0</ele><time>2026-04-12T16:18:51.018Z</time></trkpt><trkpt lat="44.0987971" lon="12.1184914"><ele>96.0</ele><time>2026-04-12T16:18:52.013Z</time></trkpt><trkpt lat="44.0989532" lon="12.1185092"><ele>95.66666666666667</ele><time>2026-04-12T16:18:53.014Z</time></trkpt><trkpt lat="44.0991105" lon="12.118527"><ele>95.33333333333334</ele><time>2026-04-12T16:18:54.012Z</time></trkpt><trkpt lat="44.0992718" lon="12.1185437"><ele>95.0</ele><time>2026-04-12T16:18:55.014Z</time></trkpt><trkpt lat="44.0994338" lon="12.118562"><ele>95.0</ele><time>2026-04-12T16:18:56.012Z</time></trkpt><trkpt lat="44.0995975" lon="12.1185805"><ele>95.0</ele><time>2026-04-12T16:18:57.017Z</time></trkpt><trkpt lat="44.0997608" lon="12.1186"><ele>95.0</ele><time>2026-04-12T16:18:58.012Z</time></trkpt><trkpt lat="44.0999287" lon="12.1186187"><ele>94.33333333333334</ele><time>2026-04-12T16:18:59.012Z</time></trkpt><trkpt lat="44.1000981" lon="12.1186341"><ele>93.66666666666667</ele><time>2026-04-12T16:19:00.017Z</time></trkpt><trkpt lat="44.1002695" lon="12.1186525"><ele>93.0</ele><time>2026-04-12T16:19:01.014Z</time></trkpt><trkpt lat="44.1004371" lon="12.1186798"><ele>93.0</ele><time>2026-04-12T16:19:02.014Z</time></trkpt><trkpt lat="44.1005936" lon="12.1186975"><ele>93.0</ele><time>2026-04-12T16:19:03.012Z</time></trkpt><trkpt lat="44.1007327" lon="12.118709"><ele>93.0</ele><time>2026-04-12T16:19:04.013Z</time></trkpt><trkpt lat="44.1008573" lon="12.1187052"><ele>93.0</ele><time>2026-04-12T16:19:05.012Z</time></trkpt><trkpt lat="44.1009705" lon="12.1186721"><ele>92.5</ele><time>2026-04-12T16:19:06.013Z</time></trkpt><trkpt lat="44.1010749" lon="12.1185973"><ele>92.0</ele><time>2026-04-12T16:19:07.016Z</time></trkpt><trkpt lat="44.101175" lon="12.1184922"><ele>91.5</ele><time>2026-04-12T16:19:08.012Z</time></trkpt><trkpt lat="44.101274" lon="12.1183679"><ele>91.0</ele><time>2026-04-12T16:19:09.013Z</time></trkpt><trkpt lat="44.1013721" lon="12.1182333"><ele>90.75</ele><time>2026-04-12T16:19:10.012Z</time></trkpt><trkpt lat="44.1014698" lon="12.1180985"><ele>90.5</ele><time>2026-04-12T16:19:11.012Z</time></trkpt><trkpt lat="44.1015578" lon="12.1179757"><ele>90.25</ele><time>2026-04-12T16:19:12.014Z</time></trkpt><trkpt lat="44.1016469" lon="12.1178924"><ele>90.0</ele><time>2026-04-12T16:19:13.012Z</time></trkpt><trkpt lat="44.1017502" lon="12.1178586"><ele>90.0</ele><time>2026-04-12T16:19:14.013Z</time></trkpt><trkpt lat="44.1018689" lon="12.1178552"><ele>90.0</ele><time>2026-04-12T16:19:15.015Z</time></trkpt><trkpt lat="44.1020033" lon="12.1178721"><ele>90.0</ele><time>2026-04-12T16:19:16.015Z</time></trkpt><trkpt lat="44.1021547" lon="12.1178961"><ele>90.0</ele><time>2026-04-12T16:19:17.013Z</time></trkpt><trkpt lat="44.1023188" lon="12.1179171"><ele>90.0</ele><time>2026-04-12T16:19:18.013Z</time></trkpt><trkpt lat="44.1024891" lon="12.1179333"><ele>90.0</ele><time>2026-04-12T16:19:19.012Z</time></trkpt><trkpt lat="44.1026663" lon="12.1179475"><ele>90.0</ele><time>2026-04-12T16:19:20.011Z</time></trkpt><trkpt lat="44.1028527" lon="12.1179541"><ele>90.0</ele><time>2026-04-12T16:19:21.014Z</time></trkpt><trkpt lat="44.1030515" lon="12.1179538"><ele>90.0</ele><time>2026-04-12T16:19:22.013Z</time></trkpt><trkpt lat="44.1032556" lon="12.1179535"><ele>90.0</ele><time>2026-04-12T16:19:23.012Z</time></trkpt><trkpt lat="44.1034581" lon="12.1179592"><ele>90.33333333333333</ele><time>2026-04-12T16:19:24.014Z</time></trkpt><trkpt lat="44.1036612" lon="12.1179714"><ele>90.66666666666666</ele><time>2026-04-12T16:19:25.016Z</time></trkpt><trkpt lat="44.1038661" lon="12.1179854"><ele>91.0</ele><time>2026-04-12T16:19:26.013Z</time></trkpt><trkpt lat="44.1040678" lon="12.117991"><ele>91.0</ele><time>2026-04-12T16:19:27.012Z</time></trkpt><trkpt lat="44.1042662" lon="12.117997"><ele>91.0</ele><time>2026-04-12T16:19:28.012Z</time></trkpt><trkpt lat="44.1044543" lon="12.1179956"><ele>91.0</ele><time>2026-04-12T16:19:29.011Z</time></trkpt><trkpt lat="44.1046333" lon="12.1180031"><ele>91.0</ele><time>2026-04-12T16:19:30.014Z</time></trkpt><trkpt lat="44.1048006" lon="12.118009"><ele>91.0</ele><time>2026-04-12T16:19:31.012Z</time></trkpt><trkpt lat="44.1049616" lon="12.1180201"><ele>91.0</ele><time>2026-04-12T16:19:32.014Z</time></trkpt><trkpt lat="44.105122" lon="12.1180317"><ele>89.33333333333333</ele><time>2026-04-12T16:19:33.014Z</time></trkpt><trkpt lat="44.1052833" lon="12.1180585"><ele>87.66666666666667</ele><time>2026-04-12T16:19:34.017Z</time></trkpt><trkpt lat="44.1054465" lon="12.1181114"><ele>86.0</ele><time>2026-04-12T16:19:35.011Z</time></trkpt><trkpt lat="44.1056054" lon="12.1181929"><ele>84.66666666666667</ele><time>2026-04-12T16:19:36.012Z</time></trkpt><trkpt lat="44.1057501" lon="12.1182728"><ele>83.33333333333333</ele><time>2026-04-12T16:19:37.015Z</time></trkpt><trkpt lat="44.1058933" lon="12.1183377"><ele>82.0</ele><time>2026-04-12T16:19:38.012Z</time></trkpt><trkpt lat="44.1060386" lon="12.1183755"><ele>82.0</ele><time>2026-04-12T16:19:39.011Z</time></trkpt><trkpt lat="44.1061802" lon="12.1183872"><ele>82.0</ele><time>2026-04-12T16:19:40.018Z</time></trkpt><trkpt lat="44.10631" lon="12.1183959"><ele>82.0</ele><time>2026-04-12T16:19:41.011Z</time></trkpt><trkpt lat="44.1064359" lon="12.1184312"><ele>82.0</ele><time>2026-04-12T16:19:42.013Z</time></trkpt><trkpt lat="44.1065604" lon="12.1185005"><ele>81.66666666666666</ele><time>2026-04-12T16:19:43.014Z</time></trkpt><trkpt lat="44.106688" lon="12.1186028"><ele>81.33333333333333</ele><time>2026-04-12T16:19:44.013Z</time></trkpt><trkpt lat="44.1068263" lon="12.1187235"><ele>81.0</ele><time>2026-04-12T16:19:45.014Z</time></trkpt><trkpt lat="44.1069656" lon="12.1188483"><ele>81.0</ele><time>2026-04-12T16:19:46.012Z</time></trkpt><trkpt lat="44.1071025" lon="12.1189692"><ele>81.0</ele><time>2026-04-12T16:19:47.016Z</time></trkpt><trkpt lat="44.1072343" lon="12.1190751"><ele>81.0</ele><time>2026-04-12T16:19:48.012Z</time></trkpt><trkpt lat="44.1073567" lon="12.1191553"><ele>81.0</ele><time>2026-04-12T16:19:49.014Z</time></trkpt><trkpt lat="44.1074663" lon="12.1191876"><ele>81.0</ele><time>2026-04-12T16:19:50.012Z</time></trkpt><trkpt lat="44.107572" lon="12.1191628"><ele>81.0</ele><time>2026-04-12T16:19:51.013Z</time></trkpt><trkpt lat="44.1076833" lon="12.1190937"><ele>81.0</ele><time>2026-04-12T16:19:52.011Z</time></trkpt><trkpt lat="44.1078052" lon="12.1190044"><ele>81.0</ele><time>2026-04-12T16:19:53.015Z</time></trkpt><trkpt lat="44.1079394" lon="12.1189095"><ele>81.0</ele><time>2026-04-12T16:19:54.013Z</time></trkpt><trkpt lat="44.1080898" lon="12.1188096"><ele>81.0</ele><time>2026-04-12T16:19:55.013Z</time></trkpt><trkpt lat="44.1082479" lon="12.1187056"><ele>80.33333333333333</ele><time>2026-04-12T16:19:56.013Z</time></trkpt><trkpt lat="44.1084136" lon="12.1186001"><ele>79.66666666666666</ele><time>2026-04-12T16:19:57.013Z</time></trkpt><trkpt lat="44.1085818" lon="12.1184828"><ele>79.0</ele><time>2026-04-12T16:19:58.016Z</time></trkpt><trkpt lat="44.1087464" lon="12.1183571"><ele>78.66666666666666</ele><time>2026-04-12T16:19:59.012Z</time></trkpt><trkpt lat="44.108906" lon="12.1182089"><ele>78.33333333333333</ele><time>2026-04-12T16:20:00.013Z</time></trkpt><trkpt lat="44.1090578" lon="12.1180309"><ele>78.0</ele><time>2026-04-12T16:20:01.014Z</time></trkpt><trkpt lat="44.1092124" lon="12.1178433"><ele>78.0</ele><time>2026-04-12T16:20:02.014Z</time></trkpt><trkpt lat="44.1093706" lon="12.1176396"><ele>78.0</ele><time>2026-04-12T16:20:03.014Z</time></trkpt><trkpt lat="44.1095348" lon="12.1174261"><ele>78.0</ele><time>2026-04-12T16:20:04.011Z</time></trkpt><trkpt lat="44.1097053" lon="12.1172003"><ele>78.0</ele><time>2026-04-12T16:20:05.012Z</time></trkpt><trkpt lat="44.1098742" lon="12.1169531"><ele>78.0</ele><time>2026-04-12T16:20:06.013Z</time></trkpt><trkpt lat="44.1100416" lon="12.116695"><ele>77.5</ele><time>2026-04-12T16:20:07.013Z</time></trkpt><trkpt lat="44.1102007" lon="12.1164389"><ele>77.0</ele><time>2026-04-12T16:20:08.012Z</time></trkpt><trkpt lat="44.1103576" lon="12.1162057"><ele>77.0</ele><time>2026-04-12T16:20:09.014Z</time></trkpt><trkpt lat="44.1105019" lon="12.1159812"><ele>77.0</ele><time>2026-04-12T16:20:10.015Z</time></trkpt><trkpt lat="44.1106373" lon="12.1157695"><ele>77.0</ele><time>2026-04-12T16:20:11.016Z</time></trkpt><trkpt lat="44.110763" lon="12.1155633"><ele>76.0</ele><time>2026-04-12T16:20:12.011Z</time></trkpt><trkpt lat="44.1108881" lon="12.1153699"><ele>75.0</ele><time>2026-04-12T16:20:13.017Z</time></trkpt><trkpt lat="44.1110038" lon="12.1151819"><ele>74.0</ele><time>2026-04-12T16:20:14.011Z</time></trkpt><trkpt lat="44.1110923" lon="12.1149757"><ele>74.0</ele><time>2026-04-12T16:20:15.012Z</time></trkpt><trkpt lat="44.1111637" lon="12.1147577"><ele>74.0</ele><time>2026-04-12T16:20:16.013Z</time></trkpt><trkpt lat="44.1112142" lon="12.1145262"><ele>74.0</ele><time>2026-04-12T16:20:17.012Z</time></trkpt><trkpt lat="44.1112436" lon="12.1142761"><ele>74.33333333333334</ele><time>2026-04-12T16:20:18.013Z</time></trkpt><trkpt lat="44.1112689" lon="12.1140221"><ele>74.66666666666667</ele><time>2026-04-12T16:20:19.012Z</time></trkpt><trkpt lat="44.1113089" lon="12.1137752"><ele>75.0</ele><time>2026-04-12T16:20:20.014Z</time></trkpt><trkpt lat="44.1113647" lon="12.1135356"><ele>75.0</ele><time>2026-04-12T16:20:21.013Z</time></trkpt><trkpt lat="44.1114471" lon="12.1133084"><ele>75.0</ele><time>2026-04-12T16:20:22.014Z</time></trkpt><trkpt lat="44.1115621" lon="12.113106"><ele>75.0</ele><time>2026-04-12T16:20:23.012Z</time></trkpt><trkpt lat="44.1116924" lon="12.1129247"><ele>73.66666666666667</ele><time>2026-04-12T16:20:24.013Z</time></trkpt><trkpt lat="44.1118248" lon="12.112755"><ele>72.33333333333334</ele><time>2026-04-12T16:20:25.012Z</time></trkpt><trkpt lat="44.1119457" lon="12.1125771"><ele>71.0</ele><time>2026-04-12T16:20:26.011Z</time></trkpt><trkpt lat="44.1120499" lon="12.1123789"><ele>71.0</ele><time>2026-04-12T16:20:27.014Z</time></trkpt><trkpt lat="44.1121278" lon="12.1121506"><ele>71.0</ele><time>2026-04-12T16:20:28.011Z</time></trkpt><trkpt lat="44.1121904" lon="12.1119046"><ele>71.0</ele><time>2026-04-12T16:20:29.013Z</time></trkpt><trkpt lat="44.1122358" lon="12.1116481"><ele>72.66666666666667</ele><time>2026-04-12T16:20:30.013Z</time></trkpt><trkpt lat="44.1122762" lon="12.1113912"><ele>74.33333333333333</ele><time>2026-04-12T16:20:31.012Z</time></trkpt><trkpt lat="44.1123195" lon="12.1111414"><ele>76.0</ele><time>2026-04-12T16:20:32.013Z</time></trkpt><trkpt lat="44.1123655" lon="12.1109101"><ele>75.25</ele><time>2026-04-12T16:20:33.014Z</time></trkpt><trkpt lat="44.1124127" lon="12.1107062"><ele>74.5</ele><time>2026-04-12T16:20:34.013Z</time></trkpt><trkpt lat="44.1124723" lon="12.1105292"><ele>73.75</ele><time>2026-04-12T16:20:35.013Z</time></trkpt><trkpt lat="44.112566" lon="12.1103786"><ele>73.0</ele><time>2026-04-12T16:20:36.011Z</time></trkpt><trkpt lat="44.1126801" lon="12.110234"><ele>73.0</ele><time>2026-04-12T16:20:37.013Z</time></trkpt><trkpt lat="44.1128148" lon="12.1101091"><ele>73.0</ele><time>2026-04-12T16:20:38.012Z</time></trkpt><trkpt lat="44.1129663" lon="12.1099947"><ele>73.0</ele><time>2026-04-12T16:20:39.012Z</time></trkpt><trkpt lat="44.1131282" lon="12.1099027"><ele>73.0</ele><time>2026-04-12T16:20:40.013Z</time></trkpt><trkpt lat="44.1132832" lon="12.1098179"><ele>73.0</ele><time>2026-04-12T16:20:41.016Z</time></trkpt><trkpt lat="44.1134282" lon="12.1097159"><ele>73.0</ele><time>2026-04-12T16:20:42.012Z</time></trkpt><trkpt lat="44.1135644" lon="12.109584"><ele>73.0</ele><time>2026-04-12T16:20:43.013Z</time></trkpt><trkpt lat="44.1136923" lon="12.1094176"><ele>73.0</ele><time>2026-04-12T16:20:44.013Z</time></trkpt><trkpt lat="44.1138213" lon="12.1092276"><ele>73.0</ele><time>2026-04-12T16:20:45.012Z</time></trkpt><trkpt lat="44.1139502" lon="12.1090246"><ele>72.33333333333333</ele><time>2026-04-12T16:20:46.012Z</time></trkpt><trkpt lat="44.1140817" lon="12.1088269"><ele>71.66666666666667</ele><time>2026-04-12T16:20:47.013Z</time></trkpt><trkpt lat="44.1142081" lon="12.1086474"><ele>71.0</ele><time>2026-04-12T16:20:48.014Z</time></trkpt><trkpt lat="44.1143281" lon="12.108494"><ele>71.0</ele><time>2026-04-12T16:20:49.013Z</time></trkpt><trkpt lat="44.1144443" lon="12.1083591"><ele>71.0</ele><time>2026-04-12T16:20:50.013Z</time></trkpt><trkpt lat="44.114574" lon="12.1082604"><ele>71.0</ele><time>2026-04-12T16:20:51.012Z</time></trkpt><trkpt lat="44.1147234" lon="12.1082011"><ele>71.66666666666667</ele><time>2026-04-12T16:20:52.011Z</time></trkpt><trkpt lat="44.1148853" lon="12.1081675"><ele>72.33333333333333</ele><time>2026-04-12T16:20:53.012Z</time></trkpt><trkpt lat="44.1150563" lon="12.1081445"><ele>73.0</ele><time>2026-04-12T16:20:54.017Z</time></trkpt><trkpt lat="44.1152385" lon="12.1081203"><ele>71.66666666666666</ele><time>2026-04-12T16:20:55.014Z</time></trkpt><trkpt lat="44.1154318" lon="12.1080905"><ele>70.33333333333333</ele><time>2026-04-12T16:20:56.014Z</time></trkpt><trkpt lat="44.1156367" lon="12.1080552"><ele>69.0</ele><time>2026-04-12T16:20:57.012Z</time></trkpt><trkpt lat="44.1158481" lon="12.1080102"><ele>68.33333333333333</ele><time>2026-04-12T16:20:58.013Z</time></trkpt><trkpt lat="44.116054" lon="12.107965"><ele>67.66666666666666</ele><time>2026-04-12T16:20:59.012Z</time></trkpt><trkpt lat="44.1162464" lon="12.1079228"><ele>67.0</ele><time>2026-04-12T16:21:00.019Z</time></trkpt><trkpt lat="44.1164217" lon="12.107893"><ele>67.66666666666666</ele><time>2026-04-12T16:21:01.012Z</time></trkpt><trkpt lat="44.1165853" lon="12.1078906"><ele>68.33333333333333</ele><time>2026-04-12T16:21:02.013Z</time></trkpt><trkpt lat="44.1167347" lon="12.1079214"><ele>69.0</ele><time>2026-04-12T16:21:03.014Z</time></trkpt><trkpt lat="44.1168712" lon="12.1080066"><ele>69.0</ele><time>2026-04-12T16:21:04.013Z</time></trkpt><trkpt lat="44.1170003" lon="12.1081381"><ele>69.0</ele><time>2026-04-12T16:21:05.015Z</time></trkpt><trkpt lat="44.1171257" lon="12.1082996"><ele>69.0</ele><time>2026-04-12T16:21:06.013Z</time></trkpt><trkpt lat="44.1172543" lon="12.1084626"><ele>68.0</ele><time>2026-04-12T16:21:07.014Z</time></trkpt><trkpt lat="44.1173823" lon="12.1086102"><ele>67.0</ele><time>2026-04-12T16:21:08.011Z</time></trkpt><trkpt lat="44.1175106" lon="12.1087324"><ele>66.0</ele><time>2026-04-12T16:21:09.013Z</time></trkpt><trkpt lat="44.1176489" lon="12.1088204"><ele>65.33333333333333</ele><time>2026-04-12T16:21:10.011Z</time></trkpt><trkpt lat="44.1178007" lon="12.1088824"><ele>64.66666666666666</ele><time>2026-04-12T16:21:11.013Z</time></trkpt><trkpt lat="44.1179724" lon="12.1089204"><ele>64.0</ele><time>2026-04-12T16:21:12.011Z</time></trkpt><trkpt lat="44.1181543" lon="12.1089591"><ele>63.33333333333333</ele><time>2026-04-12T16:21:13.015Z</time></trkpt><trkpt lat="44.1183467" lon="12.109011"><ele>62.66666666666667</ele><time>2026-04-12T16:21:14.013Z</time></trkpt><trkpt lat="44.1185513" lon="12.109068"><ele>62.0</ele><time>2026-04-12T16:21:15.014Z</time></trkpt><trkpt lat="44.1187657" lon="12.1091186"><ele>62.0</ele><time>2026-04-12T16:21:16.012Z</time></trkpt><trkpt lat="44.1189805" lon="12.1091737"><ele>62.0</ele><time>2026-04-12T16:21:17.014Z</time></trkpt><trkpt lat="44.1191837" lon="12.1092292"><ele>62.0</ele><time>2026-04-12T16:21:18.014Z</time></trkpt><trkpt lat="44.119379" lon="12.109279"><ele>62.0</ele><time>2026-04-12T16:21:19.013Z</time></trkpt><trkpt lat="44.1195674" lon="12.1093148"><ele>62.0</ele><time>2026-04-12T16:21:20.013Z</time></trkpt><trkpt lat="44.1197479" lon="12.1093419"><ele>62.0</ele><time>2026-04-12T16:21:21.011Z</time></trkpt><trkpt lat="44.119924" lon="12.1093431"><ele>62.0</ele><time>2026-04-12T16:21:22.014Z</time></trkpt><trkpt lat="44.1200967" lon="12.1092953"><ele>62.0</ele><time>2026-04-12T16:21:23.011Z</time></trkpt><trkpt lat="44.120268" lon="12.1092011"><ele>62.0</ele><time>2026-04-12T16:21:24.013Z</time></trkpt><trkpt lat="44.1204445" lon="12.1090797"><ele>61.66666666666667</ele><time>2026-04-12T16:21:25.012Z</time></trkpt><trkpt lat="44.1206285" lon="12.1089454"><ele>61.33333333333333</ele><time>2026-04-12T16:21:26.013Z</time></trkpt><trkpt lat="44.1208206" lon="12.1088121"><ele>61.0</ele><time>2026-04-12T16:21:27.012Z</time></trkpt><trkpt lat="44.1210099" lon="12.1086867"><ele>60.666666666666664</ele><time>2026-04-12T16:21:28.013Z</time></trkpt><trkpt lat="44.1211834" lon="12.1085717"><ele>60.33333333333333</ele><time>2026-04-12T16:21:29.012Z</time></trkpt><trkpt lat="44.1213389" lon="12.1084754"><ele>60.0</ele><time>2026-04-12T16:21:30.016Z</time></trkpt><trkpt lat="44.1214794" lon="12.1084133"><ele>60.5</ele><time>2026-04-12T16:21:31.011Z</time></trkpt><trkpt lat="44.1216081" lon="12.1083962"><ele>61.0</ele><time>2026-04-12T16:21:32.014Z</time></trkpt><trkpt lat="44.1217301" lon="12.1084245"><ele>61.5</ele><time>2026-04-12T16:21:33.012Z</time></trkpt><trkpt lat="44.1218461" lon="12.1084966"><ele>62.0</ele><time>2026-04-12T16:21:34.012Z</time></trkpt><trkpt lat="44.1219604" lon="12.108603"><ele>62.0</ele><time>2026-04-12T16:21:35.012Z</time></trkpt><trkpt lat="44.1220749" lon="12.1087346"><ele>62.0</ele><time>2026-04-12T16:21:36.013Z</time></trkpt><trkpt lat="44.1222006" lon="12.1088732"><ele>62.0</ele><time>2026-04-12T16:21:37.013Z</time></trkpt><trkpt lat="44.1223405" lon="12.1089972"><ele>62.333333333333336</ele><time>2026-04-12T16:21:38.012Z</time></trkpt><trkpt lat="44.1224897" lon="12.1090802"><ele>62.66666666666667</ele><time>2026-04-12T16:21:39.011Z</time></trkpt><trkpt lat="44.1226449" lon="12.1091198"><ele>63.0</ele><time>2026-04-12T16:21:40.014Z</time></trkpt><trkpt lat="44.1227995" lon="12.1091165"><ele>63.0</ele><time>2026-04-12T16:21:41.013Z</time></trkpt><trkpt lat="44.1229513" lon="12.1090876"><ele>63.0</ele><time>2026-04-12T16:21:42.012Z</time></trkpt><trkpt lat="44.1230927" lon="12.1090656"><ele>63.0</ele><time>2026-04-12T16:21:43.015Z</time></trkpt><trkpt lat="44.1232316" lon="12.1090694"><ele>63.0</ele><time>2026-04-12T16:21:44.013Z</time></trkpt><trkpt lat="44.1233741" lon="12.1090989"><ele>64.33333333333333</ele><time>2026-04-12T16:21:45.011Z</time></trkpt><trkpt lat="44.1235227" lon="12.1091447"><ele>65.66666666666666</ele><time>2026-04-12T16:21:46.014Z</time></trkpt><trkpt lat="44.1236719" lon="12.1092063"><ele>67.0</ele><time>2026-04-12T16:21:47.014Z</time></trkpt><trkpt lat="44.1238155" lon="12.1092715"><ele>67.0</ele><time>2026-04-12T16:21:48.012Z</time></trkpt><trkpt lat="44.123939" lon="12.1093361"><ele>67.0</ele><time>2026-04-12T16:21:49.013Z</time></trkpt><trkpt lat="44.1240418" lon="12.1093834"><ele>67.0</ele><time>2026-04-12T16:21:50.013Z</time></trkpt><trkpt lat="44.1241406" lon="12.1094061"><ele>67.0</ele><time>2026-04-12T16:21:51.015Z</time></trkpt><trkpt lat="44.1242537" lon="12.1094072"><ele>66.0</ele><time>2026-04-12T16:21:52.011Z</time></trkpt><trkpt lat="44.1243781" lon="12.1094181"><ele>65.0</ele><time>2026-04-12T16:21:53.013Z</time></trkpt><trkpt lat="44.1245084" lon="12.1094745"><ele>64.0</ele><time>2026-04-12T16:21:54.012Z</time></trkpt><trkpt lat="44.1246347" lon="12.1095787"><ele>63.0</ele><time>2026-04-12T16:21:55.014Z</time></trkpt><trkpt lat="44.124763" lon="12.1097137"><ele>62.33333333333333</ele><time>2026-04-12T16:21:56.012Z</time></trkpt><trkpt lat="44.1248986" lon="12.1098547"><ele>61.666666666666664</ele><time>2026-04-12T16:21:57.013Z</time></trkpt><trkpt lat="44.1250367" lon="12.1099831"><ele>61.0</ele><time>2026-04-12T16:21:58.015Z</time></trkpt><trkpt lat="44.1251675" lon="12.1100868"><ele>61.0</ele><time>2026-04-12T16:21:59.011Z</time></trkpt><trkpt lat="44.1252895" lon="12.110155"><ele>61.0</ele><time>2026-04-12T16:22:00.012Z</time></trkpt><trkpt lat="44.1254047" lon="12.1101802"><ele>61.0</ele><time>2026-04-12T16:22:01.013Z</time></trkpt><trkpt lat="44.125525" lon="12.1101491"><ele>61.0</ele><time>2026-04-12T16:22:02.013Z</time></trkpt><trkpt lat="44.1256258" lon="12.1100798"><ele>61.0</ele><time>2026-04-12T16:22:03.013Z</time></trkpt><trkpt lat="44.1257249" lon="12.1099643"><ele>61.0</ele><time>2026-04-12T16:22:04.013Z</time></trkpt><trkpt lat="44.1258167" lon="12.109819"><ele>61.0</ele><time>2026-04-12T16:22:05.012Z</time></trkpt><trkpt lat="44.1259166" lon="12.1096523"><ele>61.0</ele><time>2026-04-12T16:22:06.013Z</time></trkpt><trkpt lat="44.1260217" lon="12.1094831"><ele>60.666666666666664</ele><time>2026-04-12T16:22:07.016Z</time></trkpt><trkpt lat="44.1261382" lon="12.1093142"><ele>60.33333333333333</ele><time>2026-04-12T16:22:08.012Z</time></trkpt><trkpt lat="44.1262674" lon="12.1091525"><ele>60.0</ele><time>2026-04-12T16:22:09.013Z</time></trkpt><trkpt lat="44.1264241" lon="12.1090122"><ele>60.0</ele><time>2026-04-12T16:22:10.011Z</time></trkpt><trkpt lat="44.1265964" lon="12.1088996"><ele>60.0</ele><time>2026-04-12T16:22:11.015Z</time></trkpt><trkpt lat="44.1267723" lon="12.1088102"><ele>60.0</ele><time>2026-04-12T16:22:12.012Z</time></trkpt><trkpt lat="44.1269468" lon="12.1087279"><ele>60.0</ele><time>2026-04-12T16:22:13.013Z</time></trkpt><trkpt lat="44.1271129" lon="12.1086405"><ele>60.0</ele><time>2026-04-12T16:22:14.013Z</time></trkpt><trkpt lat="44.1272736" lon="12.1085564"><ele>60.0</ele><time>2026-04-12T16:22:15.011Z</time></trkpt><trkpt lat="44.1274278" lon="12.1084714"><ele>60.0</ele><time>2026-04-12T16:22:16.014Z</time></trkpt><trkpt lat="44.1275691" lon="12.1083859"><ele>60.0</ele><time>2026-04-12T16:22:17.012Z</time></trkpt><trkpt lat="44.1277131" lon="12.1083045"><ele>60.0</ele><time>2026-04-12T16:22:18.012Z</time></trkpt><trkpt lat="44.127865" lon="12.1082147"><ele>60.0</ele><time>2026-04-12T16:22:19.012Z</time></trkpt><trkpt lat="44.128035" lon="12.1081183"><ele>60.0</ele><time>2026-04-12T16:22:20.014Z</time></trkpt><trkpt lat="44.1282117" lon="12.1079967"><ele>60.0</ele><time>2026-04-12T16:22:21.013Z</time></trkpt><trkpt lat="44.1284017" lon="12.1078633"><ele>60.33333333333333</ele><time>2026-04-12T16:22:22.015Z</time></trkpt><trkpt lat="44.12859" lon="12.1077067"><ele>60.666666666666664</ele><time>2026-04-12T16:22:23.013Z</time></trkpt><trkpt lat="44.128785" lon="12.1075467"><ele>61.0</ele><time>2026-04-12T16:22:24.014Z</time></trkpt><trkpt lat="44.12898" lon="12.1073917"><ele>59.33333333333333</ele><time>2026-04-12T16:22:25.013Z</time></trkpt><trkpt lat="44.12917" lon="12.1072467"><ele>57.66666666666667</ele><time>2026-04-12T16:22:26.011Z</time></trkpt><trkpt lat="44.1293567" lon="12.10712"><ele>56.0</ele><time>2026-04-12T16:22:27.015Z</time></trkpt><trkpt lat="44.1295333" lon="12.1069967"><ele>56.0</ele><time>2026-04-12T16:22:28.011Z</time></trkpt><trkpt lat="44.12971" lon="12.1069"><ele>56.0</ele><time>2026-04-12T16:22:29.013Z</time></trkpt><trkpt lat="44.1298933" lon="12.1068267"><ele>56.0</ele><time>2026-04-12T16:22:30.013Z</time></trkpt><trkpt lat="44.1300783" lon="12.1067917"><ele>55.333333333333336</ele><time>2026-04-12T16:22:31.012Z</time></trkpt><trkpt lat="44.1302567" lon="12.10678"><ele>54.66666666666667</ele><time>2026-04-12T16:22:32.016Z</time></trkpt><trkpt lat="44.1304267" lon="12.1067967"><ele>54.0</ele><time>2026-04-12T16:22:33.012Z</time></trkpt><trkpt lat="44.13059" lon="12.1068367"><ele>54.66666666666667</ele><time>2026-04-12T16:22:34.014Z</time></trkpt><trkpt lat="44.1307533" lon="12.1068767"><ele>55.333333333333336</ele><time>2026-04-12T16:22:35.014Z</time></trkpt><trkpt lat="44.1309117" lon="12.1068883"><ele>56.0</ele><time>2026-04-12T16:22:36.011Z</time></trkpt><trkpt lat="44.13107" lon="12.1068617"><ele>56.0</ele><time>2026-04-12T16:22:37.014Z</time></trkpt><trkpt lat="44.1312217" lon="12.106805"><ele>56.0</ele><time>2026-04-12T16:22:38.012Z</time></trkpt><trkpt lat="44.1313683" lon="12.1067367"><ele>56.0</ele><time>2026-04-12T16:22:39.014Z</time></trkpt><trkpt lat="44.1315067" lon="12.1066733"><ele>55.0</ele><time>2026-04-12T16:22:40.011Z</time></trkpt><trkpt lat="44.1316433" lon="12.1066183"><ele>54.0</ele><time>2026-04-12T16:22:41.012Z</time></trkpt><trkpt lat="44.1317917" lon="12.1065633"><ele>53.0</ele><time>2026-04-12T16:22:42.013Z</time></trkpt><trkpt lat="44.1319483" lon="12.106525"><ele>53.0</ele><time>2026-04-12T16:22:43.015Z</time></trkpt><trkpt lat="44.1321067" lon="12.1064983"><ele>53.0</ele><time>2026-04-12T16:22:44.012Z</time></trkpt><trkpt lat="44.13226" lon="12.106485"><ele>53.0</ele><time>2026-04-12T16:22:45.014Z</time></trkpt><trkpt lat="44.1324067" lon="12.1065067"><ele>53.75</ele><time>2026-04-12T16:22:46.012Z</time></trkpt><trkpt lat="44.1325433" lon="12.1065667"><ele>54.5</ele><time>2026-04-12T16:22:47.012Z</time></trkpt><trkpt lat="44.132665" lon="12.106625"><ele>55.25</ele><time>2026-04-12T16:22:48.012Z</time></trkpt><trkpt lat="44.1327933" lon="12.1066483"><ele>56.0</ele><time>2026-04-12T16:22:49.012Z</time></trkpt><trkpt lat="44.1329333" lon="12.1066317"><ele>56.333333333333336</ele><time>2026-04-12T16:22:50.012Z</time></trkpt><trkpt lat="44.1330883" lon="12.10659"><ele>56.66666666666667</ele><time>2026-04-12T16:22:51.012Z</time></trkpt><trkpt lat="44.133245" lon="12.106525"><ele>57.0</ele><time>2026-04-12T16:22:52.012Z</time></trkpt><trkpt lat="44.1334117" lon="12.1064417"><ele>57.0</ele><time>2026-04-12T16:22:53.015Z</time></trkpt><trkpt lat="44.1335783" lon="12.1063517"><ele>57.0</ele><time>2026-04-12T16:22:54.013Z</time></trkpt><trkpt lat="44.1337467" lon="12.1062583"><ele>57.0</ele><time>2026-04-12T16:22:55.014Z</time></trkpt><trkpt lat="44.13392" lon="12.1061767"><ele>57.33333333333333</ele><time>2026-04-12T16:22:56.015Z</time></trkpt><trkpt lat="44.1340933" lon="12.1060983"><ele>57.666666666666664</ele><time>2026-04-12T16:22:57.012Z</time></trkpt><trkpt lat="44.1342683" lon="12.1060483"><ele>58.0</ele><time>2026-04-12T16:22:58.013Z</time></trkpt><trkpt lat="44.134455" lon="12.106025"><ele>58.0</ele><time>2026-04-12T16:22:59.012Z</time></trkpt><trkpt lat="44.134645" lon="12.10601"><ele>58.0</ele><time>2026-04-12T16:23:00.012Z</time></trkpt><trkpt lat="44.1348267" lon="12.1059967"><ele>58.0</ele><time>2026-04-12T16:23:01.013Z</time></trkpt><trkpt lat="44.135" lon="12.1059717"><ele>58.666666666666664</ele><time>2026-04-12T16:23:02.012Z</time></trkpt><trkpt lat="44.1351717" lon="12.1059233"><ele>59.33333333333333</ele><time>2026-04-12T16:23:03.012Z</time></trkpt><trkpt lat="44.1353383" lon="12.10583"><ele>60.0</ele><time>2026-04-12T16:23:04.014Z</time></trkpt><trkpt lat="44.1355" lon="12.1057417"><ele>58.0</ele><time>2026-04-12T16:23:05.013Z</time></trkpt><trkpt lat="44.1356567" lon="12.10568"><ele>56.0</ele><time>2026-04-12T16:23:06.019Z</time></trkpt><trkpt lat="44.135805" lon="12.1056333"><ele>54.0</ele><time>2026-04-12T16:23:07.012Z</time></trkpt><trkpt lat="44.1359517" lon="12.1056167"><ele>54.0</ele><time>2026-04-12T16:23:08.012Z</time></trkpt><trkpt lat="44.1361" lon="12.1056333"><ele>54.0</ele><time>2026-04-12T16:23:09.013Z</time></trkpt><trkpt lat="44.1362433" lon="12.105685"><ele>54.0</ele><time>2026-04-12T16:23:10.011Z</time></trkpt><trkpt lat="44.136375" lon="12.1057583"><ele>54.0</ele><time>2026-04-12T16:23:11.013Z</time></trkpt><trkpt lat="44.1365" lon="12.1058267"><ele>54.0</ele><time>2026-04-12T16:23:12.015Z</time></trkpt><trkpt lat="44.1366367" lon="12.1058667"><ele>54.0</ele><time>2026-04-12T16:23:13.012Z</time></trkpt><trkpt lat="44.136775" lon="12.1058633"><ele>54.0</ele><time>2026-04-12T16:23:14.013Z</time></trkpt><trkpt lat="44.136925" lon="12.1057983"><ele>54.0</ele><time>2026-04-12T16:23:15.015Z</time></trkpt><trkpt lat="44.1370767" lon="12.1057017"><ele>54.0</ele><time>2026-04-12T16:23:16.012Z</time></trkpt><trkpt lat="44.13721" lon="12.1055867"><ele>54.0</ele><time>2026-04-12T16:23:17.012Z</time></trkpt><trkpt lat="44.1373233" lon="12.1054917"><ele>54.0</ele><time>2026-04-12T16:23:18.012Z</time></trkpt><trkpt lat="44.137415" lon="12.1054133"><ele>54.0</ele><time>2026-04-12T16:23:19.014Z</time></trkpt><trkpt lat="44.1374917" lon="12.1053533"><ele>54.333333333333336</ele><time>2026-04-12T16:23:20.011Z</time></trkpt><trkpt lat="44.1375517" lon="12.105305"><ele>54.66666666666667</ele><time>2026-04-12T16:23:21.011Z</time></trkpt><trkpt lat="44.137625" lon="12.1052383"><ele>55.0</ele><time>2026-04-12T16:23:23.011Z</time></trkpt><trkpt lat="44.1376283" lon="12.1051383"><ele>55.333333333333336</ele><time>2026-04-12T16:24:03.012Z</time></trkpt><trkpt lat="44.1376667" lon="12.1050433"><ele>55.66666666666667</ele><time>2026-04-12T16:24:04.012Z</time></trkpt><trkpt lat="44.13771" lon="12.10491"><ele>56.0</ele><time>2026-04-12T16:24:05.012Z</time></trkpt><trkpt lat="44.1377767" lon="12.1047083"><ele>56.0</ele><time>2026-04-12T16:24:06.012Z</time></trkpt><trkpt lat="44.1378517" lon="12.104475"><ele>56.0</ele><time>2026-04-12T16:24:07.012Z</time></trkpt><trkpt lat="44.1379267" lon="12.1042533"><ele>56.0</ele><time>2026-04-12T16:24:08.013Z</time></trkpt><trkpt lat="44.1379967" lon="12.1040467"><ele>55.333333333333336</ele><time>2026-04-12T16:24:09.015Z</time></trkpt><trkpt lat="44.13806" lon="12.1038567"><ele>54.66666666666667</ele><time>2026-04-12T16:24:10.011Z</time></trkpt><trkpt lat="44.1381317" lon="12.1036683"><ele>54.0</ele><time>2026-04-12T16:24:11.01Z</time></trkpt><trkpt lat="44.1382008" lon="12.1034832"><ele>54.5</ele><time>2026-04-12T16:24:12.013Z</time></trkpt><trkpt lat="44.1382603" lon="12.1033163"><ele>55.0</ele><time>2026-04-12T16:24:13.013Z</time></trkpt><trkpt lat="44.1383136" lon="12.103165"><ele>55.5</ele><time>2026-04-12T16:24:14.011Z</time></trkpt><trkpt lat="44.1383669" lon="12.1030179"><ele>56.0</ele><time>2026-04-12T16:24:15.012Z</time></trkpt><trkpt lat="44.1384274" lon="12.1028567"><ele>56.0</ele><time>2026-04-12T16:24:16.014Z</time></trkpt><trkpt lat="44.138492" lon="12.1026783"><ele>56.0</ele><time>2026-04-12T16:24:17.011Z</time></trkpt><trkpt lat="44.138554" lon="12.1024854"><ele>56.0</ele><time>2026-04-12T16:24:18.012Z</time></trkpt><trkpt lat="44.1386197" lon="12.1022717"><ele>55.0</ele><time>2026-04-12T16:24:19.02Z</time></trkpt><trkpt lat="44.1386841" lon="12.1020711"><ele>54.0</ele><time>2026-04-12T16:24:20.013Z</time></trkpt><trkpt lat="44.1387486" lon="12.1018859"><ele>53.0</ele><time>2026-04-12T16:24:21.012Z</time></trkpt><trkpt lat="44.1388154" lon="12.1016952"><ele>53.0</ele><time>2026-04-12T16:24:22.011Z</time></trkpt><trkpt lat="44.1388914" lon="12.1015084"><ele>53.0</ele><time>2026-04-12T16:24:23.013Z</time></trkpt><trkpt lat="44.1389763" lon="12.1013168"><ele>53.0</ele><time>2026-04-12T16:24:24.011Z</time></trkpt><trkpt lat="44.1390752" lon="12.101128"><ele>53.66666666666667</ele><time>2026-04-12T16:24:25.012Z</time></trkpt><trkpt lat="44.1391913" lon="12.1009588"><ele>54.33333333333333</ele><time>2026-04-12T16:24:26.014Z</time></trkpt><trkpt lat="44.1393213" lon="12.1008084"><ele>55.0</ele><time>2026-04-12T16:24:27.011Z</time></trkpt><trkpt lat="44.139463" lon="12.1006734"><ele>55.0</ele><time>2026-04-12T16:24:28.014Z</time></trkpt><trkpt lat="44.1396111" lon="12.1005627"><ele>55.0</ele><time>2026-04-12T16:24:29.012Z</time></trkpt><trkpt lat="44.1397632" lon="12.1004738"><ele>55.0</ele><time>2026-04-12T16:24:30.013Z</time></trkpt><trkpt lat="44.1399166" lon="12.1004023"><ele>55.0</ele><time>2026-04-12T16:24:31.013Z</time></trkpt><trkpt lat="44.140072" lon="12.1003572"><ele>55.0</ele><time>2026-04-12T16:24:32.014Z</time></trkpt><trkpt lat="44.1402316" lon="12.1003718"><ele>55.0</ele><time>2026-04-12T16:24:33.015Z</time></trkpt><trkpt lat="44.1403999" lon="12.1004005"><ele>55.0</ele><time>2026-04-12T16:24:34.01Z</time></trkpt><trkpt lat="44.1405788" lon="12.1004431"><ele>55.0</ele><time>2026-04-12T16:24:35.011Z</time></trkpt><trkpt lat="44.1407501" lon="12.1004887"><ele>55.0</ele><time>2026-04-12T16:24:36.011Z</time></trkpt><trkpt lat="44.1409085" lon="12.1005319"><ele>54.75</ele><time>2026-04-12T16:24:37.013Z</time></trkpt><trkpt lat="44.1410537" lon="12.1005749"><ele>54.5</ele><time>2026-04-12T16:24:38.012Z</time></trkpt><trkpt lat="44.1411904" lon="12.1006187"><ele>54.25</ele><time>2026-04-12T16:24:39.012Z</time></trkpt><trkpt lat="44.1413248" lon="12.1006631"><ele>54.0</ele><time>2026-04-12T16:24:40.012Z</time></trkpt><trkpt lat="44.1414574" lon="12.100707"><ele>54.0</ele><time>2026-04-12T16:24:41.011Z</time></trkpt><trkpt lat="44.1415977" lon="12.1007552"><ele>54.0</ele><time>2026-04-12T16:24:42.014Z</time></trkpt><trkpt lat="44.141736" lon="12.1008106"><ele>54.0</ele><time>2026-04-12T16:24:43.014Z</time></trkpt><trkpt lat="44.1418774" lon="12.100875"><ele>54.0</ele><time>2026-04-12T16:24:44.013Z</time></trkpt><trkpt lat="44.1420151" lon="12.1009392"><ele>54.0</ele><time>2026-04-12T16:24:45.01Z</time></trkpt><trkpt lat="44.1421486" lon="12.100999"><ele>54.0</ele><time>2026-04-12T16:24:46.012Z</time></trkpt><trkpt lat="44.1422667" lon="12.1010593"><ele>54.0</ele><time>2026-04-12T16:24:47.012Z</time></trkpt><trkpt lat="44.1423761" lon="12.101114"><ele>54.0</ele><time>2026-04-12T16:24:48.012Z</time></trkpt><trkpt lat="44.1424592" lon="12.1011541"><ele>53.2</ele><time>2026-04-12T16:24:49.012Z</time></trkpt><trkpt lat="44.1425652" lon="12.1011457"><ele>52.400000000000006</ele><time>2026-04-12T16:24:51.013Z</time></trkpt><trkpt lat="44.1426443" lon="12.1010316"><ele>51.6</ele><time>2026-04-12T16:24:53.012Z</time></trkpt><trkpt lat="44.1426623" lon="12.1009448"><ele>50.8</ele><time>2026-04-12T16:24:54.009Z</time></trkpt><trkpt lat="44.142657" lon="12.1008299"><ele>50.0</ele><time>2026-04-12T16:24:55.011Z</time></trkpt><trkpt lat="44.1426285" lon="12.1006828"><ele>50.0</ele><time>2026-04-12T16:24:56.012Z</time></trkpt><trkpt lat="44.1426084" lon="12.1005384"><ele>50.0</ele><time>2026-04-12T16:24:57.012Z</time></trkpt><trkpt lat="44.1425724" lon="12.1003729"><ele>50.0</ele><time>2026-04-12T16:24:58.012Z</time></trkpt><trkpt lat="44.1425258" lon="12.100194"><ele>50.0</ele><time>2026-04-12T16:24:59.011Z</time></trkpt><trkpt lat="44.1424766" lon="12.1000098"><ele>50.75</ele><time>2026-04-12T16:25:00.014Z</time></trkpt><trkpt lat="44.1424295" lon="12.0998232"><ele>51.5</ele><time>2026-04-12T16:25:01.012Z</time></trkpt><trkpt lat="44.1423847" lon="12.0996353"><ele>52.25</ele><time>2026-04-12T16:25:02.013Z</time></trkpt><trkpt lat="44.1423506" lon="12.0994464"><ele>53.0</ele><time>2026-04-12T16:25:03.012Z</time></trkpt><trkpt lat="44.1423428" lon="12.099252"><ele>54.25</ele><time>2026-04-12T16:25:04.013Z</time></trkpt><trkpt lat="44.1423698" lon="12.0990627"><ele>55.5</ele><time>2026-04-12T16:25:05.013Z</time></trkpt><trkpt lat="44.1424221" lon="12.0988699"><ele>56.75</ele><time>2026-04-12T16:25:06.016Z</time></trkpt><trkpt lat="44.1424652" lon="12.0986765"><ele>58.0</ele><time>2026-04-12T16:25:07.015Z</time></trkpt><trkpt lat="44.1425066" lon="12.0984962"><ele>58.0</ele><time>2026-04-12T16:25:08.012Z</time></trkpt><trkpt lat="44.142548" lon="12.0983235"><ele>58.0</ele><time>2026-04-12T16:25:09.013Z</time></trkpt><trkpt lat="44.1425971" lon="12.0981578"><ele>58.0</ele><time>2026-04-12T16:25:10.012Z</time></trkpt><trkpt lat="44.1426446" lon="12.0980059"><ele>58.0</ele><time>2026-04-12T16:25:11.011Z</time></trkpt><trkpt lat="44.1426892" lon="12.0978708"><ele>57.99999999999999</ele><time>2026-04-12T16:25:12.014Z</time></trkpt><trkpt lat="44.1427291" lon="12.0977654"><ele>58.0</ele><time>2026-04-12T16:25:13.012Z</time></trkpt><trkpt lat="44.1427645" lon="12.0976873"><ele>58.0</ele><time>2026-04-12T16:25:14.011Z</time></trkpt><trkpt lat="44.1428045" lon="12.0976035"><ele>58.0</ele><time>2026-04-12T16:25:16.011Z</time></trkpt><trkpt lat="44.1428274" lon="12.0974668"><ele>57.99999999999999</ele><time>2026-04-12T16:25:19.013Z</time></trkpt><trkpt lat="44.1428048" lon="12.0973712"><ele>58.0</ele><time>2026-04-12T16:25:20.012Z</time></trkpt><trkpt lat="44.1427682" lon="12.0972506"><ele>57.75</ele><time>2026-04-12T16:25:21.014Z</time></trkpt><trkpt lat="44.1427184" lon="12.0971061"><ele>57.5</ele><time>2026-04-12T16:25:22.012Z</time></trkpt><trkpt lat="44.1426335" lon="12.0969124"><ele>57.25</ele><time>2026-04-12T16:25:23.011Z</time></trkpt><trkpt lat="44.1425485" lon="12.0967085"><ele>57.0</ele><time>2026-04-12T16:25:24.014Z</time></trkpt><trkpt lat="44.1424508" lon="12.0964878"><ele>58.0</ele><time>2026-04-12T16:25:25.013Z</time></trkpt><trkpt lat="44.1423476" lon="12.0962659"><ele>59.0</ele><time>2026-04-12T16:25:26.011Z</time></trkpt><trkpt lat="44.1422367" lon="12.0960361"><ele>60.0</ele><time>2026-04-12T16:25:27.012Z</time></trkpt><trkpt lat="44.142129" lon="12.0957894"><ele>60.0</ele><time>2026-04-12T16:25:28.012Z</time></trkpt><trkpt lat="44.1420174" lon="12.095527"><ele>60.0</ele><time>2026-04-12T16:25:29.012Z</time></trkpt><trkpt lat="44.1419086" lon="12.0952549"><ele>60.0</ele><time>2026-04-12T16:25:30.012Z</time></trkpt><trkpt lat="44.1417987" lon="12.094977"><ele>60.0</ele><time>2026-04-12T16:25:31.013Z</time></trkpt><trkpt lat="44.1416871" lon="12.0946987"><ele>60.0</ele><time>2026-04-12T16:25:32.012Z</time></trkpt><trkpt lat="44.1415758" lon="12.0944226"><ele>62.0</ele><time>2026-04-12T16:25:33.015Z</time></trkpt><trkpt lat="44.1414717" lon="12.0941647"><ele>64.0</ele><time>2026-04-12T16:25:34.011Z</time></trkpt><trkpt lat="44.1413747" lon="12.0939216"><ele>66.0</ele><time>2026-04-12T16:25:35.01Z</time></trkpt><trkpt lat="44.1412818" lon="12.0936894"><ele>66.0</ele><time>2026-04-12T16:25:36.014Z</time></trkpt><trkpt lat="44.1411909" lon="12.093461"><ele>66.0</ele><time>2026-04-12T16:25:37.012Z</time></trkpt><trkpt lat="44.1411022" lon="12.0932335"><ele>66.0</ele><time>2026-04-12T16:25:38.014Z</time></trkpt><trkpt lat="44.1410115" lon="12.0930099"><ele>66.0</ele><time>2026-04-12T16:25:39.014Z</time></trkpt><trkpt lat="44.1409199" lon="12.0927859"><ele>66.0</ele><time>2026-04-12T16:25:40.011Z</time></trkpt><trkpt lat="44.1408293" lon="12.0925568"><ele>66.0</ele><time>2026-04-12T16:25:41.016Z</time></trkpt><trkpt lat="44.1407379" lon="12.0923231"><ele>66.33333333333333</ele><time>2026-04-12T16:25:42.014Z</time></trkpt><trkpt lat="44.1406438" lon="12.0920842"><ele>66.66666666666666</ele><time>2026-04-12T16:25:43.012Z</time></trkpt><trkpt lat="44.1405486" lon="12.0918395"><ele>67.0</ele><time>2026-04-12T16:25:44.011Z</time></trkpt><trkpt lat="44.1404491" lon="12.0915878"><ele>67.0</ele><time>2026-04-12T16:25:45.013Z</time></trkpt><trkpt lat="44.1403487" lon="12.0913403"><ele>67.0</ele><time>2026-04-12T16:25:46.012Z</time></trkpt><trkpt lat="44.140253" lon="12.091101"><ele>67.0</ele><time>2026-04-12T16:25:47.015Z</time></trkpt><trkpt lat="44.14016" lon="12.0908671"><ele>66.66666666666666</ele><time>2026-04-12T16:25:48.013Z</time></trkpt><trkpt lat="44.1400675" lon="12.0906369"><ele>66.33333333333333</ele><time>2026-04-12T16:25:49.015Z</time></trkpt><trkpt lat="44.1399707" lon="12.0904149"><ele>66.0</ele><time>2026-04-12T16:25:50.012Z</time></trkpt><trkpt lat="44.1398684" lon="12.0901985"><ele>66.0</ele><time>2026-04-12T16:25:51.016Z</time></trkpt><trkpt lat="44.1397527" lon="12.0899839"><ele>66.0</ele><time>2026-04-12T16:25:52.013Z</time></trkpt><trkpt lat="44.1396167" lon="12.0897808"><ele>66.0</ele><time>2026-04-12T16:25:53.012Z</time></trkpt><trkpt lat="44.1394605" lon="12.0895888"><ele>64.0</ele><time>2026-04-12T16:25:54.013Z</time></trkpt><trkpt lat="44.1392912" lon="12.0894059"><ele>62.0</ele><time>2026-04-12T16:25:55.012Z</time></trkpt><trkpt lat="44.1391157" lon="12.0892261"><ele>60.0</ele><time>2026-04-12T16:25:56.012Z</time></trkpt><trkpt lat="44.1389389" lon="12.0890535"><ele>60.0</ele><time>2026-04-12T16:25:57.014Z</time></trkpt><trkpt lat="44.1387599" lon="12.0888688"><ele>60.0</ele><time>2026-04-12T16:25:58.014Z</time></trkpt><trkpt lat="44.1385804" lon="12.088677"><ele>60.0</ele><time>2026-04-12T16:25:59.011Z</time></trkpt><trkpt lat="44.1383973" lon="12.0884819"><ele>61.0</ele><time>2026-04-12T16:26:00.013Z</time></trkpt><trkpt lat="44.1382147" lon="12.0882852"><ele>62.0</ele><time>2026-04-12T16:26:01.011Z</time></trkpt><trkpt lat="44.1380297" lon="12.0880903"><ele>62.0</ele><time>2026-04-12T16:26:02.012Z</time></trkpt><trkpt lat="44.1378432" lon="12.0878985"><ele>62.0</ele><time>2026-04-12T16:26:03.011Z</time></trkpt><trkpt lat="44.1376604" lon="12.0877059"><ele>62.0</ele><time>2026-04-12T16:26:04.011Z</time></trkpt><trkpt lat="44.1374792" lon="12.0875128"><ele>62.0</ele><time>2026-04-12T16:26:05.012Z</time></trkpt><trkpt lat="44.1373004" lon="12.0873206"><ele>62.0</ele><time>2026-04-12T16:26:06.01Z</time></trkpt><trkpt lat="44.1371208" lon="12.0871312"><ele>62.0</ele><time>2026-04-12T16:26:07.015Z</time></trkpt><trkpt lat="44.1369413" lon="12.0869428"><ele>62.0</ele><time>2026-04-12T16:26:08.011Z</time></trkpt><trkpt lat="44.1367602" lon="12.0867495"><ele>62.0</ele><time>2026-04-12T16:26:09.014Z</time></trkpt><trkpt lat="44.1365825" lon="12.0865556"><ele>62.0</ele><time>2026-04-12T16:26:10.013Z</time></trkpt><trkpt lat="44.1364029" lon="12.0863651"><ele>62.0</ele><time>2026-04-12T16:26:11.011Z</time></trkpt><trkpt lat="44.1362258" lon="12.0861767"><ele>62.0</ele><time>2026-04-12T16:26:12.012Z</time></trkpt><trkpt lat="44.13605" lon="12.085994"><ele>62.0</ele><time>2026-04-12T16:26:13.011Z</time></trkpt><trkpt lat="44.135878" lon="12.0858132"><ele>62.0</ele><time>2026-04-12T16:26:14.012Z</time></trkpt><trkpt lat="44.135708" lon="12.0856351"><ele>62.0</ele><time>2026-04-12T16:26:15.012Z</time></trkpt><trkpt lat="44.1355398" lon="12.0854628"><ele>62.333333333333336</ele><time>2026-04-12T16:26:16.012Z</time></trkpt><trkpt lat="44.1353761" lon="12.0852891"><ele>62.66666666666667</ele><time>2026-04-12T16:26:17.011Z</time></trkpt><trkpt lat="44.1352157" lon="12.0851173"><ele>63.0</ele><time>2026-04-12T16:26:18.014Z</time></trkpt><trkpt lat="44.1350601" lon="12.0849422"><ele>62.0</ele><time>2026-04-12T16:26:19.013Z</time></trkpt><trkpt lat="44.1349099" lon="12.0847624"><ele>61.0</ele><time>2026-04-12T16:26:20.012Z</time></trkpt><trkpt lat="44.134772" lon="12.0845776"><ele>60.0</ele><time>2026-04-12T16:26:21.012Z</time></trkpt><trkpt lat="44.1346503" lon="12.0843919"><ele>60.66666666666667</ele><time>2026-04-12T16:26:22.011Z</time></trkpt><trkpt lat="44.1345428" lon="12.0842036"><ele>61.333333333333336</ele><time>2026-04-12T16:26:23.011Z</time></trkpt><trkpt lat="44.1344411" lon="12.0840094"><ele>62.0</ele><time>2026-04-12T16:26:24.012Z</time></trkpt><trkpt lat="44.1343527" lon="12.0837903"><ele>62.0</ele><time>2026-04-12T16:26:25.016Z</time></trkpt><trkpt lat="44.1342763" lon="12.0835517"><ele>62.0</ele><time>2026-04-12T16:26:26.011Z</time></trkpt><trkpt lat="44.1342064" lon="12.083297"><ele>62.0</ele><time>2026-04-12T16:26:27.012Z</time></trkpt><trkpt lat="44.1341356" lon="12.0830385"><ele>62.333333333333336</ele><time>2026-04-12T16:26:28.013Z</time></trkpt><trkpt lat="44.1340589" lon="12.0827804"><ele>62.66666666666667</ele><time>2026-04-12T16:26:29.011Z</time></trkpt><trkpt lat="44.133983" lon="12.0825249"><ele>63.0</ele><time>2026-04-12T16:26:30.011Z</time></trkpt><trkpt lat="44.1339109" lon="12.0822815"><ele>62.33333333333333</ele><time>2026-04-12T16:26:31.013Z</time></trkpt><trkpt lat="44.1338434" lon="12.082055"><ele>61.666666666666664</ele><time>2026-04-12T16:26:32.011Z</time></trkpt><trkpt lat="44.1337744" lon="12.0818455"><ele>61.0</ele><time>2026-04-12T16:26:33.013Z</time></trkpt><trkpt lat="44.1336965" lon="12.0816641"><ele>60.5</ele><time>2026-04-12T16:26:34.011Z</time></trkpt><trkpt lat="44.1336002" lon="12.081521"><ele>60.0</ele><time>2026-04-12T16:26:35.013Z</time></trkpt><trkpt lat="44.1334828" lon="12.0814241"><ele>59.5</ele><time>2026-04-12T16:26:36.011Z</time></trkpt><trkpt lat="44.1333497" lon="12.081358"><ele>59.0</ele><time>2026-04-12T16:26:37.011Z</time></trkpt><trkpt lat="44.1331992" lon="12.0813004"><ele>58.66666666666667</ele><time>2026-04-12T16:26:38.011Z</time></trkpt><trkpt lat="44.1330352" lon="12.0812293"><ele>58.33333333333333</ele><time>2026-04-12T16:26:39.011Z</time></trkpt><trkpt lat="44.1328494" lon="12.0811494"><ele>58.0</ele><time>2026-04-12T16:26:40.012Z</time></trkpt><trkpt lat="44.1326446" lon="12.0810638"><ele>58.0</ele><time>2026-04-12T16:26:41.011Z</time></trkpt><trkpt lat="44.1324257" lon="12.0809753"><ele>58.0</ele><time>2026-04-12T16:26:42.011Z</time></trkpt><trkpt lat="44.1322044" lon="12.0808838"><ele>58.33333333333333</ele><time>2026-04-12T16:26:43.014Z</time></trkpt><trkpt lat="44.1319883" lon="12.0807936"><ele>58.66666666666667</ele><time>2026-04-12T16:26:44.015Z</time></trkpt><trkpt lat="44.1317838" lon="12.0807063"><ele>59.0</ele><time>2026-04-12T16:26:45.012Z</time></trkpt><trkpt lat="44.1315874" lon="12.0806232"><ele>60.0</ele><time>2026-04-12T16:26:46.01Z</time></trkpt><trkpt lat="44.1313942" lon="12.0805454"><ele>61.0</ele><time>2026-04-12T16:26:47.012Z</time></trkpt><trkpt lat="44.1312028" lon="12.0804717"><ele>62.0</ele><time>2026-04-12T16:26:48.013Z</time></trkpt><trkpt lat="44.1310089" lon="12.0804002"><ele>62.0</ele><time>2026-04-12T16:26:49.013Z</time></trkpt><trkpt lat="44.1308125" lon="12.0803265"><ele>62.0</ele><time>2026-04-12T16:26:50.014Z</time></trkpt><trkpt lat="44.1306184" lon="12.0802521"><ele>62.0</ele><time>2026-04-12T16:26:51.013Z</time></trkpt><trkpt lat="44.1304375" lon="12.0801801"><ele>64.0</ele><time>2026-04-12T16:26:52.012Z</time></trkpt><trkpt lat="44.1302686" lon="12.0801115"><ele>66.0</ele><time>2026-04-12T16:26:53.011Z</time></trkpt><trkpt lat="44.1301099" lon="12.0800542"><ele>68.0</ele><time>2026-04-12T16:26:54.016Z</time></trkpt><trkpt lat="44.1299628" lon="12.0800111"><ele>67.33333333333334</ele><time>2026-04-12T16:26:55.011Z</time></trkpt><trkpt lat="44.1298134" lon="12.0800049"><ele>66.66666666666667</ele><time>2026-04-12T16:26:56.013Z</time></trkpt><trkpt lat="44.1296627" lon="12.0800405"><ele>66.0</ele><time>2026-04-12T16:26:57.013Z</time></trkpt><trkpt lat="44.129508" lon="12.0801207"><ele>66.0</ele><time>2026-04-12T16:26:58.012Z</time></trkpt><trkpt lat="44.1293634" lon="12.0802256"><ele>66.0</ele><time>2026-04-12T16:26:59.013Z</time></trkpt><trkpt lat="44.1292241" lon="12.0803163"><ele>66.0</ele><time>2026-04-12T16:27:00.014Z</time></trkpt><trkpt lat="44.1290939" lon="12.0803641"><ele>68.25</ele><time>2026-04-12T16:27:01.014Z</time></trkpt><trkpt lat="44.1289692" lon="12.080367"><ele>70.5</ele><time>2026-04-12T16:27:02.012Z</time></trkpt><trkpt lat="44.1288532" lon="12.0803169"><ele>72.75</ele><time>2026-04-12T16:27:03.013Z</time></trkpt><trkpt lat="44.1287445" lon="12.08022"><ele>75.0</ele><time>2026-04-12T16:27:04.011Z</time></trkpt><trkpt lat="44.1286422" lon="12.0800776"><ele>74.0</ele><time>2026-04-12T16:27:05.011Z</time></trkpt><trkpt lat="44.1285344" lon="12.0799077"><ele>73.0</ele><time>2026-04-12T16:27:06.012Z</time></trkpt><trkpt lat="44.1284161" lon="12.0797259"><ele>72.0</ele><time>2026-04-12T16:27:07.014Z</time></trkpt><trkpt lat="44.1282901" lon="12.0795326"><ele>73.66666666666667</ele><time>2026-04-12T16:27:08.014Z</time></trkpt><trkpt lat="44.1281521" lon="12.0793309"><ele>75.33333333333334</ele><time>2026-04-12T16:27:09.013Z</time></trkpt><trkpt lat="44.1280091" lon="12.0791198"><ele>77.0</ele><time>2026-04-12T16:27:10.012Z</time></trkpt><trkpt lat="44.1278698" lon="12.0789146"><ele>77.0</ele><time>2026-04-12T16:27:11.012Z</time></trkpt><trkpt lat="44.1277423" lon="12.0787157"><ele>77.0</ele><time>2026-04-12T16:27:12.011Z</time></trkpt><trkpt lat="44.1276207" lon="12.078532"><ele>77.0</ele><time>2026-04-12T16:27:13.015Z</time></trkpt><trkpt lat="44.1275012" lon="12.0783648"><ele>78.33333333333334</ele><time>2026-04-12T16:27:14.017Z</time></trkpt><trkpt lat="44.1273702" lon="12.0782232"><ele>79.66666666666667</ele><time>2026-04-12T16:27:15.015Z</time></trkpt><trkpt lat="44.1272195" lon="12.0781095"><ele>81.0</ele><time>2026-04-12T16:27:16.015Z</time></trkpt><trkpt lat="44.1270544" lon="12.0780196"><ele>81.0</ele><time>2026-04-12T16:27:17.01Z</time></trkpt><trkpt lat="44.1268721" lon="12.0779459"><ele>81.0</ele><time>2026-04-12T16:27:18.013Z</time></trkpt><trkpt lat="44.1266888" lon="12.0778762"><ele>81.0</ele><time>2026-04-12T16:27:19.012Z</time></trkpt><trkpt lat="44.1265033" lon="12.0778032"><ele>82.66666666666667</ele><time>2026-04-12T16:27:20.011Z</time></trkpt><trkpt lat="44.1263148" lon="12.0777297"><ele>84.33333333333334</ele><time>2026-04-12T16:27:21.01Z</time></trkpt><trkpt lat="44.1261244" lon="12.0776539"><ele>86.0</ele><time>2026-04-12T16:27:22.012Z</time></trkpt><trkpt lat="44.1259304" lon="12.0775767"><ele>86.0</ele><time>2026-04-12T16:27:23.013Z</time></trkpt><trkpt lat="44.1257429" lon="12.0774958"><ele>86.0</ele><time>2026-04-12T16:27:24.014Z</time></trkpt><trkpt lat="44.1255627" lon="12.077418"><ele>86.0</ele><time>2026-04-12T16:27:25.013Z</time></trkpt><trkpt lat="44.1253926" lon="12.0773518"><ele>84.33333333333334</ele><time>2026-04-12T16:27:26.011Z</time></trkpt><trkpt lat="44.1252356" lon="12.0772866"><ele>82.66666666666667</ele><time>2026-04-12T16:27:27.012Z</time></trkpt><trkpt lat="44.1250904" lon="12.0772127"><ele>81.0</ele><time>2026-04-12T16:27:28.011Z</time></trkpt><trkpt lat="44.1249636" lon="12.0771235"><ele>82.25</ele><time>2026-04-12T16:27:29.01Z</time></trkpt><trkpt lat="44.1248554" lon="12.0770052"><ele>83.5</ele><time>2026-04-12T16:27:30.012Z</time></trkpt><trkpt lat="44.1247617" lon="12.0768544"><ele>84.75</ele><time>2026-04-12T16:27:31.012Z</time></trkpt><trkpt lat="44.1246883" lon="12.0766671"><ele>86.0</ele><time>2026-04-12T16:27:32.014Z</time></trkpt><trkpt lat="44.1246317" lon="12.0764467"><ele>86.0</ele><time>2026-04-12T16:27:33.012Z</time></trkpt><trkpt lat="44.1245783" lon="12.0762101"><ele>86.0</ele><time>2026-04-12T16:27:34.014Z</time></trkpt><trkpt lat="44.1245204" lon="12.0759576"><ele>86.0</ele><time>2026-04-12T16:27:35.012Z</time></trkpt><trkpt lat="44.1244565" lon="12.0756981"><ele>84.0</ele><time>2026-04-12T16:27:36.013Z</time></trkpt><trkpt lat="44.1243871" lon="12.0754351"><ele>82.0</ele><time>2026-04-12T16:27:37.015Z</time></trkpt><trkpt lat="44.1243137" lon="12.0751684"><ele>80.0</ele><time>2026-04-12T16:27:38.013Z</time></trkpt><trkpt lat="44.1242398" lon="12.0748934"><ele>80.0</ele><time>2026-04-12T16:27:39.016Z</time></trkpt><trkpt lat="44.1241689" lon="12.0746177"><ele>80.0</ele><time>2026-04-12T16:27:40.013Z</time></trkpt><trkpt lat="44.1240991" lon="12.0743419"><ele>80.0</ele><time>2026-04-12T16:27:41.011Z</time></trkpt><trkpt lat="44.1240292" lon="12.0740647"><ele>80.0</ele><time>2026-04-12T16:27:42.014Z</time></trkpt><trkpt lat="44.1239604" lon="12.0737966"><ele>80.0</ele><time>2026-04-12T16:27:43.012Z</time></trkpt><trkpt lat="44.1238917" lon="12.0735357"><ele>80.0</ele><time>2026-04-12T16:27:44.012Z</time></trkpt><trkpt lat="44.1238262" lon="12.0732884"><ele>77.66666666666667</ele><time>2026-04-12T16:27:45.013Z</time></trkpt><trkpt lat="44.1237616" lon="12.0730469"><ele>75.33333333333333</ele><time>2026-04-12T16:27:46.013Z</time></trkpt><trkpt lat="44.1236957" lon="12.0728063"><ele>73.0</ele><time>2026-04-12T16:27:47.014Z</time></trkpt><trkpt lat="44.1236306" lon="12.0725631"><ele>72.0</ele><time>2026-04-12T16:27:48.012Z</time></trkpt><trkpt lat="44.123567" lon="12.0723174"><ele>71.0</ele><time>2026-04-12T16:27:49.013Z</time></trkpt><trkpt lat="44.1235068" lon="12.0720726"><ele>70.0</ele><time>2026-04-12T16:27:50.011Z</time></trkpt><trkpt lat="44.1234534" lon="12.0718279"><ele>68.66666666666666</ele><time>2026-04-12T16:27:51.012Z</time></trkpt><trkpt lat="44.1233966" lon="12.0715833"><ele>67.33333333333333</ele><time>2026-04-12T16:27:52.011Z</time></trkpt><trkpt lat="44.123336" lon="12.0713435"><ele>66.0</ele><time>2026-04-12T16:27:53.011Z</time></trkpt><trkpt lat="44.1232718" lon="12.0711001"><ele>65.66666666666667</ele><time>2026-04-12T16:27:54.014Z</time></trkpt><trkpt lat="44.1232042" lon="12.0708559"><ele>65.33333333333334</ele><time>2026-04-12T16:27:55.013Z</time></trkpt><trkpt lat="44.1231381" lon="12.0706091"><ele>65.0</ele><time>2026-04-12T16:27:56.012Z</time></trkpt><trkpt lat="44.1230724" lon="12.0703561"><ele>65.0</ele><time>2026-04-12T16:27:57.014Z</time></trkpt><trkpt lat="44.1230062" lon="12.0700994"><ele>65.0</ele><time>2026-04-12T16:27:58.013Z</time></trkpt><trkpt lat="44.1229393" lon="12.0698396"><ele>65.0</ele><time>2026-04-12T16:27:59.012Z</time></trkpt><trkpt lat="44.1228709" lon="12.0695765"><ele>64.66666666666667</ele><time>2026-04-12T16:28:00.013Z</time></trkpt><trkpt lat="44.1228048" lon="12.0693173"><ele>64.33333333333333</ele><time>2026-04-12T16:28:01.012Z</time></trkpt><trkpt lat="44.1227362" lon="12.0690485"><ele>64.0</ele><time>2026-04-12T16:28:02.014Z</time></trkpt><trkpt lat="44.1226703" lon="12.0687799"><ele>63.666666666666664</ele><time>2026-04-12T16:28:03.012Z</time></trkpt><trkpt lat="44.122605" lon="12.0685182"><ele>63.33333333333333</ele><time>2026-04-12T16:28:04.014Z</time></trkpt><trkpt lat="44.1225363" lon="12.0682492"><ele>63.0</ele><time>2026-04-12T16:28:05.011Z</time></trkpt><trkpt lat="44.1224689" lon="12.0679852"><ele>63.0</ele><time>2026-04-12T16:28:06.012Z</time></trkpt><trkpt lat="44.1223996" lon="12.0677167"><ele>63.0</ele><time>2026-04-12T16:28:07.012Z</time></trkpt><trkpt lat="44.1223333" lon="12.0674506"><ele>63.0</ele><time>2026-04-12T16:28:08.011Z</time></trkpt><trkpt lat="44.1222631" lon="12.067179"><ele>62.66666666666667</ele><time>2026-04-12T16:28:09.012Z</time></trkpt><trkpt lat="44.1221918" lon="12.0669052"><ele>62.333333333333336</ele><time>2026-04-12T16:28:10.01Z</time></trkpt><trkpt lat="44.1221194" lon="12.0666359"><ele>62.0</ele><time>2026-04-12T16:28:11.012Z</time></trkpt><trkpt lat="44.1220511" lon="12.0663566"><ele>61.66666666666667</ele><time>2026-04-12T16:28:12.01Z</time></trkpt><trkpt lat="44.1219738" lon="12.0660695"><ele>61.33333333333333</ele><time>2026-04-12T16:28:13.012Z</time></trkpt><trkpt lat="44.121899" lon="12.0657927"><ele>61.0</ele><time>2026-04-12T16:28:14.013Z</time></trkpt><trkpt lat="44.121828" lon="12.0655285"><ele>59.666666666666664</ele><time>2026-04-12T16:28:15.011Z</time></trkpt><trkpt lat="44.12176" lon="12.0652686"><ele>58.33333333333333</ele><time>2026-04-12T16:28:16.013Z</time></trkpt><trkpt lat="44.1216956" lon="12.0650115"><ele>57.0</ele><time>2026-04-12T16:28:17.012Z</time></trkpt><trkpt lat="44.1216292" lon="12.0647508"><ele>56.66666666666667</ele><time>2026-04-12T16:28:18.011Z</time></trkpt><trkpt lat="44.1215655" lon="12.0644859"><ele>56.333333333333336</ele><time>2026-04-12T16:28:19.011Z</time></trkpt><trkpt lat="44.1214929" lon="12.064225"><ele>56.0</ele><time>2026-04-12T16:28:20.012Z</time></trkpt><trkpt lat="44.121423" lon="12.0639681"><ele>57.0</ele><time>2026-04-12T16:28:21.012Z</time></trkpt><trkpt lat="44.1213565" lon="12.0637173"><ele>58.0</ele><time>2026-04-12T16:28:22.018Z</time></trkpt><trkpt lat="44.1212953" lon="12.0634825"><ele>59.0</ele><time>2026-04-12T16:28:23.013Z</time></trkpt><trkpt lat="44.1212371" lon="12.0632628"><ele>59.0</ele><time>2026-04-12T16:28:24.012Z</time></trkpt><trkpt lat="44.1211838" lon="12.063061"><ele>59.0</ele><time>2026-04-12T16:28:25.012Z</time></trkpt><trkpt lat="44.1211347" lon="12.062873"><ele>59.0</ele><time>2026-04-12T16:28:26.012Z</time></trkpt><trkpt lat="44.121089" lon="12.0626989"><ele>59.0</ele><time>2026-04-12T16:28:27.013Z</time></trkpt><trkpt lat="44.1210443" lon="12.0625392"><ele>58.2</ele><time>2026-04-12T16:28:28.014Z</time></trkpt><trkpt lat="44.1210059" lon="12.0623943"><ele>57.400000000000006</ele><time>2026-04-12T16:28:29.011Z</time></trkpt><trkpt lat="44.1209714" lon="12.0622662"><ele>56.6</ele><time>2026-04-12T16:28:30.011Z</time></trkpt><trkpt lat="44.1209667" lon="12.0621451"><ele>55.8</ele><time>2026-04-12T16:28:31.012Z</time></trkpt><trkpt lat="44.1209809" lon="12.062033"><ele>55.0</ele><time>2026-04-12T16:28:32.011Z</time></trkpt><trkpt lat="44.1210111" lon="12.0619355"><ele>55.0</ele><time>2026-04-12T16:28:33.014Z</time></trkpt><trkpt lat="44.1210717" lon="12.061848"><ele>55.0</ele><time>2026-04-12T16:28:34.011Z</time></trkpt><trkpt lat="44.1211724" lon="12.061775"><ele>55.0</ele><time>2026-04-12T16:28:35.016Z</time></trkpt><trkpt lat="44.1213051" lon="12.0616989"><ele>55.0</ele><time>2026-04-12T16:28:36.011Z</time></trkpt><trkpt lat="44.1214379" lon="12.0616166"><ele>54.99999999999999</ele><time>2026-04-12T16:28:37.013Z</time></trkpt><trkpt lat="44.1215498" lon="12.0615403"><ele>55.0</ele><time>2026-04-12T16:28:38.012Z</time></trkpt><trkpt lat="44.1216298" lon="12.0614849"><ele>55.0</ele><time>2026-04-12T16:28:39.012Z</time></trkpt><trkpt lat="44.1216951" lon="12.0614427"><ele>55.0</ele><time>2026-04-12T16:28:40.013Z</time></trkpt><trkpt lat="44.1217548" lon="12.0614076"><ele>54.99999999999999</ele><time>2026-04-12T16:28:41.012Z</time></trkpt><trkpt lat="44.1218159" lon="12.061373"><ele>55.0</ele><time>2026-04-12T16:28:42.011Z</time></trkpt><trkpt lat="44.1218819" lon="12.0613589"><ele>54.99999999999999</ele><time>2026-04-12T16:28:43.014Z</time></trkpt><trkpt lat="44.1219543" lon="12.0613681"><ele>55.0</ele><time>2026-04-12T16:28:44.014Z</time></trkpt><trkpt lat="44.122032" lon="12.0613788"><ele>55.0</ele><time>2026-04-12T16:28:45.012Z</time></trkpt><trkpt lat="44.1221109" lon="12.06139"><ele>55.0</ele><time>2026-04-12T16:28:46.011Z</time></trkpt><trkpt lat="44.1221898" lon="12.0613982"><ele>54.99999999999999</ele><time>2026-04-12T16:28:47.012Z</time></trkpt><trkpt lat="44.122278" lon="12.0614053"><ele>55.0</ele><time>2026-04-12T16:28:48.014Z</time></trkpt><trkpt lat="44.1223791" lon="12.0614075"><ele>56.25</ele><time>2026-04-12T16:28:49.016Z</time></trkpt><trkpt lat="44.1225006" lon="12.0614101"><ele>57.5</ele><time>2026-04-12T16:28:50.011Z</time></trkpt><trkpt lat="44.1226469" lon="12.0614177"><ele>58.75</ele><time>2026-04-12T16:28:51.011Z</time></trkpt><trkpt lat="44.12282" lon="12.0614367"><ele>60.0</ele><time>2026-04-12T16:28:52.011Z</time></trkpt><trkpt lat="44.123001" lon="12.0614671"><ele>60.0</ele><time>2026-04-12T16:28:53.013Z</time></trkpt><trkpt lat="44.1231691" lon="12.0614964"><ele>60.0</ele><time>2026-04-12T16:28:54.012Z</time></trkpt><trkpt lat="44.1233176" lon="12.0615275"><ele>60.0</ele><time>2026-04-12T16:28:55.011Z</time></trkpt><trkpt lat="44.1234528" lon="12.0615451"><ele>59.75</ele><time>2026-04-12T16:28:56.015Z</time></trkpt><trkpt lat="44.1235772" lon="12.0615724"><ele>59.5</ele><time>2026-04-12T16:28:57.011Z</time></trkpt><trkpt lat="44.1237057" lon="12.0616037"><ele>59.25</ele><time>2026-04-12T16:28:58.009Z</time></trkpt><trkpt lat="44.123838" lon="12.0616206"><ele>59.0</ele><time>2026-04-12T16:28:59.011Z</time></trkpt><trkpt lat="44.1239697" lon="12.0616398"><ele>58.6</ele><time>2026-04-12T16:29:00.013Z</time></trkpt><trkpt lat="44.1240853" lon="12.061662"><ele>58.2</ele><time>2026-04-12T16:29:01.011Z</time></trkpt><trkpt lat="44.1241828" lon="12.0616803"><ele>57.800000000000004</ele><time>2026-04-12T16:29:02.011Z</time></trkpt><trkpt lat="44.1242679" lon="12.0616978"><ele>57.400000000000006</ele><time>2026-04-12T16:29:03.012Z</time></trkpt><trkpt lat="44.1243435" lon="12.0617186"><ele>57.0</ele><time>2026-04-12T16:29:04.012Z</time></trkpt><trkpt lat="44.1244237" lon="12.0617396"><ele>57.0</ele><time>2026-04-12T16:29:05.012Z</time></trkpt><trkpt lat="44.1245157" lon="12.0617475"><ele>57.0</ele><time>2026-04-12T16:29:06.013Z</time></trkpt><trkpt lat="44.1246033" lon="12.0617584"><ele>57.0</ele><time>2026-04-12T16:29:07.012Z</time></trkpt><trkpt lat="44.1246862" lon="12.0617719"><ele>57.0</ele><time>2026-04-12T16:29:08.011Z</time></trkpt><trkpt lat="44.124772" lon="12.061784"><ele>57.0</ele><time>2026-04-12T16:29:09.012Z</time></trkpt><trkpt lat="44.1248577" lon="12.0618034"><ele>57.0</ele><time>2026-04-12T16:29:10.011Z</time></trkpt><trkpt lat="44.1249462" lon="12.0618226"><ele>57.0</ele><time>2026-04-12T16:29:11.013Z</time></trkpt><trkpt lat="44.1250385" lon="12.0618433"><ele>57.0</ele><time>2026-04-12T16:29:12.011Z</time></trkpt><trkpt lat="44.1251275" lon="12.0618528"><ele>57.0</ele><time>2026-04-12T16:29:13.012Z</time></trkpt><trkpt lat="44.125218" lon="12.0618591"><ele>57.0</ele><time>2026-04-12T16:29:14.011Z</time></trkpt><trkpt lat="44.1253096" lon="12.061872"><ele>57.0</ele><time>2026-04-12T16:29:15.011Z</time></trkpt><trkpt lat="44.1254042" lon="12.061884"><ele>57.0</ele><time>2026-04-12T16:29:16.01Z</time></trkpt><trkpt lat="44.125498" lon="12.0618969"><ele>57.0</ele><time>2026-04-12T16:29:17.01Z</time></trkpt><trkpt lat="44.1255939" lon="12.0619062"><ele>57.0</ele><time>2026-04-12T16:29:18.011Z</time></trkpt><trkpt lat="44.1256825" lon="12.0619147"><ele>57.0</ele><time>2026-04-12T16:29:19.013Z</time></trkpt><trkpt lat="44.1257499" lon="12.0619362"><ele>57.0</ele><time>2026-04-12T16:29:20.012Z</time></trkpt><trkpt lat="44.1258183" lon="12.0619496"><ele>57.0</ele><time>2026-04-12T16:29:21.01Z</time></trkpt><trkpt lat="44.1258831" lon="12.0619653"><ele>56.833333333333336</ele><time>2026-04-12T16:29:22.009Z</time></trkpt><trkpt lat="44.1259473" lon="12.0619793"><ele>56.66666666666667</ele><time>2026-04-12T16:29:23.012Z</time></trkpt><trkpt lat="44.126013" lon="12.0619972"><ele>56.5</ele><time>2026-04-12T16:29:24.01Z</time></trkpt><trkpt lat="44.1260825" lon="12.0620263"><ele>56.333333333333336</ele><time>2026-04-12T16:29:25.011Z</time></trkpt><trkpt lat="44.1261633" lon="12.0620565"><ele>56.16666666666667</ele><time>2026-04-12T16:29:26.013Z</time></trkpt><trkpt lat="44.1262535" lon="12.0620987"><ele>56.0</ele><time>2026-04-12T16:29:27.011Z</time></trkpt><trkpt lat="44.1263634" lon="12.0621563"><ele>56.0</ele><time>2026-04-12T16:29:28.011Z</time></trkpt><trkpt lat="44.1264923" lon="12.062221"><ele>56.0</ele><time>2026-04-12T16:29:29.012Z</time></trkpt><trkpt lat="44.1266315" lon="12.0623052"><ele>56.0</ele><time>2026-04-12T16:29:30.012Z</time></trkpt><trkpt lat="44.1267706" lon="12.0623962"><ele>56.0</ele><time>2026-04-12T16:29:31.014Z</time></trkpt><trkpt lat="44.1269029" lon="12.0624848"><ele>55.599999999999994</ele><time>2026-04-12T16:29:32.011Z</time></trkpt><trkpt lat="44.1270175" lon="12.0625705"><ele>55.199999999999996</ele><time>2026-04-12T16:29:33.014Z</time></trkpt><trkpt lat="44.1271138" lon="12.0626443"><ele>54.800000000000004</ele><time>2026-04-12T16:29:34.009Z</time></trkpt><trkpt lat="44.1271937" lon="12.0627052"><ele>54.400000000000006</ele><time>2026-04-12T16:29:35.01Z</time></trkpt><trkpt lat="44.1272673" lon="12.0627618"><ele>54.0</ele><time>2026-04-12T16:29:36.011Z</time></trkpt><trkpt lat="44.1273381" lon="12.0628196"><ele>53.75</ele><time>2026-04-12T16:29:37.012Z</time></trkpt><trkpt lat="44.1274214" lon="12.0628686"><ele>53.5</ele><time>2026-04-12T16:29:38.01Z</time></trkpt><trkpt lat="44.1275215" lon="12.0628861"><ele>53.25</ele><time>2026-04-12T16:29:39.014Z</time></trkpt><trkpt lat="44.1276478" lon="12.0628822"><ele>53.0</ele><time>2026-04-12T16:29:40.011Z</time></trkpt><trkpt lat="44.1277942" lon="12.0628614"><ele>53.0</ele><time>2026-04-12T16:29:41.009Z</time></trkpt><trkpt lat="44.1279263" lon="12.0628499"><ele>53.0</ele><time>2026-04-12T16:29:42.011Z</time></trkpt><trkpt lat="44.1280596" lon="12.0628363"><ele>53.0</ele><time>2026-04-12T16:29:43.012Z</time></trkpt><trkpt lat="44.1281957" lon="12.0628199"><ele>53.0</ele><time>2026-04-12T16:29:44.011Z</time></trkpt><trkpt lat="44.1283256" lon="12.0628075"><ele>52.75</ele><time>2026-04-12T16:29:45.01Z</time></trkpt><trkpt lat="44.1284652" lon="12.0627965"><ele>52.5</ele><time>2026-04-12T16:29:46.011Z</time></trkpt><trkpt lat="44.1286061" lon="12.0627926"><ele>52.25</ele><time>2026-04-12T16:29:47.01Z</time></trkpt><trkpt lat="44.1287486" lon="12.0627872"><ele>52.0</ele><time>2026-04-12T16:29:48.01Z</time></trkpt><trkpt lat="44.1288922" lon="12.0627767"><ele>52.0</ele><time>2026-04-12T16:29:49.012Z</time></trkpt><trkpt lat="44.1290405" lon="12.0627588"><ele>52.0</ele><time>2026-04-12T16:29:50.011Z</time></trkpt><trkpt lat="44.1291903" lon="12.0627386"><ele>52.0</ele><time>2026-04-12T16:29:51.011Z</time></trkpt><trkpt lat="44.1293397" lon="12.0627135"><ele>52.0</ele><time>2026-04-12T16:29:52.013Z</time></trkpt><trkpt lat="44.1294836" lon="12.0626797"><ele>52.0</ele><time>2026-04-12T16:29:53.01Z</time></trkpt><trkpt lat="44.1296152" lon="12.0626236"><ele>52.0</ele><time>2026-04-12T16:29:54.012Z</time></trkpt><trkpt lat="44.1297375" lon="12.0625683"><ele>52.0</ele><time>2026-04-12T16:29:55.011Z</time></trkpt><trkpt lat="44.1298604" lon="12.0625239"><ele>52.0</ele><time>2026-04-12T16:29:56.012Z</time></trkpt><trkpt lat="44.1299911" lon="12.0624779"><ele>52.0</ele><time>2026-04-12T16:29:57.012Z</time></trkpt><trkpt lat="44.1301324" lon="12.0624238"><ele>52.0</ele><time>2026-04-12T16:29:58.015Z</time></trkpt><trkpt lat="44.1302849" lon="12.0623672"><ele>52.0</ele><time>2026-04-12T16:29:59.012Z</time></trkpt><trkpt lat="44.1304385" lon="12.0623094"><ele>53.0</ele><time>2026-04-12T16:30:00.011Z</time></trkpt><trkpt lat="44.1305879" lon="12.062243"><ele>54.0</ele><time>2026-04-12T16:30:01.013Z</time></trkpt><trkpt lat="44.1307315" lon="12.0621914"><ele>55.0</ele><time>2026-04-12T16:30:02.012Z</time></trkpt><trkpt lat="44.130869" lon="12.0621441"><ele>56.0</ele><time>2026-04-12T16:30:03.01Z</time></trkpt><trkpt lat="44.1310044" lon="12.0620959"><ele>56.0</ele><time>2026-04-12T16:30:04.013Z</time></trkpt><trkpt lat="44.1311378" lon="12.0620496"><ele>56.0</ele><time>2026-04-12T16:30:05.013Z</time></trkpt><trkpt lat="44.1312655" lon="12.0619959"><ele>56.0</ele><time>2026-04-12T16:30:06.011Z</time></trkpt><trkpt lat="44.1313881" lon="12.0619361"><ele>56.0</ele><time>2026-04-12T16:30:07.01Z</time></trkpt><trkpt lat="44.1315045" lon="12.0618837"><ele>56.199999999999996</ele><time>2026-04-12T16:30:08.011Z</time></trkpt><trkpt lat="44.1316113" lon="12.0618395"><ele>56.39999999999999</ele><time>2026-04-12T16:30:09.013Z</time></trkpt><trkpt lat="44.1317124" lon="12.0618024"><ele>56.6</ele><time>2026-04-12T16:30:10.013Z</time></trkpt><trkpt lat="44.1318076" lon="12.0617675"><ele>56.8</ele><time>2026-04-12T16:30:11.013Z</time></trkpt><trkpt lat="44.1318988" lon="12.0617366"><ele>57.0</ele><time>2026-04-12T16:30:12.013Z</time></trkpt><trkpt lat="44.1319831" lon="12.0617083"><ele>57.0</ele><time>2026-04-12T16:30:13.012Z</time></trkpt><trkpt lat="44.1320627" lon="12.0616853"><ele>56.99999999999999</ele><time>2026-04-12T16:30:14.013Z</time></trkpt><trkpt lat="44.132135" lon="12.0616603"><ele>57.0</ele><time>2026-04-12T16:30:15.012Z</time></trkpt><trkpt lat="44.1322014" lon="12.0616341"><ele>57.0</ele><time>2026-04-12T16:30:16.014Z</time></trkpt><trkpt lat="44.1322653" lon="12.0616103"><ele>56.99999999999999</ele><time>2026-04-12T16:30:17.011Z</time></trkpt><trkpt lat="44.1323286" lon="12.0615884"><ele>57.0</ele><time>2026-04-12T16:30:18.012Z</time></trkpt><trkpt lat="44.1323931" lon="12.0615624"><ele>57.0</ele><time>2026-04-12T16:30:19.013Z</time></trkpt><trkpt lat="44.1324625" lon="12.061522"><ele>57.0</ele><time>2026-04-12T16:30:20.012Z</time></trkpt><trkpt lat="44.132545" lon="12.0614791"><ele>57.0</ele><time>2026-04-12T16:30:21.013Z</time></trkpt><trkpt lat="44.1326381" lon="12.0614469"><ele>57.0</ele><time>2026-04-12T16:30:22.011Z</time></trkpt><trkpt lat="44.1327275" lon="12.0614316"><ele>57.0</ele><time>2026-04-12T16:30:23.012Z</time></trkpt><trkpt lat="44.1327916" lon="12.0614085"><ele>57.0</ele><time>2026-04-12T16:30:25.014Z</time></trkpt><trkpt lat="44.1328812" lon="12.0613825"><ele>57.0</ele><time>2026-04-12T16:30:29.012Z</time></trkpt><trkpt lat="44.1329794" lon="12.0614011"><ele>57.0</ele><time>2026-04-12T16:30:31.013Z</time></trkpt><trkpt lat="44.1330548" lon="12.0614275"><ele>57.0</ele><time>2026-04-12T16:30:32.012Z</time></trkpt><trkpt lat="44.1331429" lon="12.0614557"><ele>57.0</ele><time>2026-04-12T16:30:33.012Z</time></trkpt><trkpt lat="44.1332314" lon="12.0614719"><ele>57.0</ele><time>2026-04-12T16:30:34.013Z</time></trkpt><trkpt lat="44.1333213" lon="12.0614912"><ele>57.0</ele><time>2026-04-12T16:30:35.012Z</time></trkpt><trkpt lat="44.1334026" lon="12.0615057"><ele>57.0</ele><time>2026-04-12T16:30:36.017Z</time></trkpt><trkpt lat="44.1334741" lon="12.0615109"><ele>56.8</ele><time>2026-04-12T16:30:37.013Z</time></trkpt><trkpt lat="44.1335889" lon="12.0614966"><ele>56.6</ele><time>2026-04-12T16:30:39.014Z</time></trkpt><trkpt lat="44.1336757" lon="12.0615041"><ele>56.39999999999999</ele><time>2026-04-12T16:30:41.017Z</time></trkpt><trkpt lat="44.1337646" lon="12.0615012"><ele>56.199999999999996</ele><time>2026-04-12T16:30:44.013Z</time></trkpt><trkpt lat="44.1338383" lon="12.0615083"><ele>56.0</ele><time>2026-04-12T16:30:46.013Z</time></trkpt><trkpt lat="44.13396" lon="12.0615583"><ele>56.0</ele><time>2026-04-12T16:30:48.012Z</time></trkpt><trkpt lat="44.1340367" lon="12.0615617"><ele>55.99999999999999</ele><time>2026-04-12T16:30:49.017Z</time></trkpt><trkpt lat="44.1341217" lon="12.06154"><ele>55.99999999999999</ele><time>2026-04-12T16:30:50.013Z</time></trkpt><trkpt lat="44.1342167" lon="12.06152"><ele>56.0</ele><time>2026-04-12T16:30:51.011Z</time></trkpt><trkpt lat="44.134315" lon="12.061525"><ele>56.0</ele><time>2026-04-12T16:30:52.011Z</time></trkpt><trkpt lat="44.1344117" lon="12.0615467"><ele>55.75</ele><time>2026-04-12T16:30:53.013Z</time></trkpt><trkpt lat="44.1345167" lon="12.0615733"><ele>55.5</ele><time>2026-04-12T16:30:54.014Z</time></trkpt><trkpt lat="44.134635" lon="12.0615967"><ele>55.25</ele><time>2026-04-12T16:30:55.014Z</time></trkpt><trkpt lat="44.13477" lon="12.06162"><ele>55.0</ele><time>2026-04-12T16:30:56.017Z</time></trkpt><trkpt lat="44.1349233" lon="12.061645"><ele>55.0</ele><time>2026-04-12T16:30:57.013Z</time></trkpt><trkpt lat="44.1350867" lon="12.0616783"><ele>55.0</ele><time>2026-04-12T16:30:58.012Z</time></trkpt><trkpt lat="44.1352617" lon="12.0617117"><ele>55.0</ele><time>2026-04-12T16:30:59.011Z</time></trkpt><trkpt lat="44.1354383" lon="12.0617367"><ele>55.0</ele><time>2026-04-12T16:31:00.018Z</time></trkpt><trkpt lat="44.1356267" lon="12.0617633"><ele>55.0</ele><time>2026-04-12T16:31:01.012Z</time></trkpt><trkpt lat="44.1358167" lon="12.0617933"><ele>55.0</ele><time>2026-04-12T16:31:02.013Z</time></trkpt><trkpt lat="44.136015" lon="12.061815"><ele>54.666666666666664</ele><time>2026-04-12T16:31:03.013Z</time></trkpt><trkpt lat="44.13622" lon="12.0618333"><ele>54.33333333333333</ele><time>2026-04-12T16:31:04.013Z</time></trkpt><trkpt lat="44.1364217" lon="12.0618617"><ele>54.0</ele><time>2026-04-12T16:31:05.014Z</time></trkpt><trkpt lat="44.13662" lon="12.0619017"><ele>54.0</ele><time>2026-04-12T16:31:06.013Z</time></trkpt><trkpt lat="44.1368067" lon="12.0619317"><ele>54.0</ele><time>2026-04-12T16:31:07.013Z</time></trkpt><trkpt lat="44.1369883" lon="12.0619517"><ele>54.0</ele><time>2026-04-12T16:31:08.012Z</time></trkpt><trkpt lat="44.1371667" lon="12.061975"><ele>54.0</ele><time>2026-04-12T16:31:09.016Z</time></trkpt><trkpt lat="44.1373383" lon="12.0619917"><ele>54.0</ele><time>2026-04-12T16:31:10.013Z</time></trkpt><trkpt lat="44.137515" lon="12.0620117"><ele>54.0</ele><time>2026-04-12T16:31:11.013Z</time></trkpt><trkpt lat="44.1376933" lon="12.0620333"><ele>54.0</ele><time>2026-04-12T16:31:12.014Z</time></trkpt><trkpt lat="44.1378683" lon="12.0620633"><ele>54.0</ele><time>2026-04-12T16:31:13.013Z</time></trkpt><trkpt lat="44.13805" lon="12.0620883"><ele>54.0</ele><time>2026-04-12T16:31:14.013Z</time></trkpt><trkpt lat="44.1382283" lon="12.0621133"><ele>54.33333333333333</ele><time>2026-04-12T16:31:15.014Z</time></trkpt><trkpt lat="44.13841" lon="12.0621383"><ele>54.666666666666664</ele><time>2026-04-12T16:31:16.011Z</time></trkpt><trkpt lat="44.1385967" lon="12.0621617"><ele>55.0</ele><time>2026-04-12T16:31:17.014Z</time></trkpt><trkpt lat="44.13878" lon="12.062185"><ele>55.0</ele><time>2026-04-12T16:31:18.012Z</time></trkpt><trkpt lat="44.1389683" lon="12.062215"><ele>55.0</ele><time>2026-04-12T16:31:19.012Z</time></trkpt><trkpt lat="44.13917" lon="12.062255"><ele>55.0</ele><time>2026-04-12T16:31:20.014Z</time></trkpt><trkpt lat="44.1393733" lon="12.0623167"><ele>55.0</ele><time>2026-04-12T16:31:21.013Z</time></trkpt><trkpt lat="44.13958" lon="12.0624"><ele>55.0</ele><time>2026-04-12T16:31:22.014Z</time></trkpt><trkpt lat="44.1397817" lon="12.0625067"><ele>55.0</ele><time>2026-04-12T16:31:23.012Z</time></trkpt><trkpt lat="44.1399817" lon="12.06263"><ele>55.0</ele><time>2026-04-12T16:31:24.011Z</time></trkpt><trkpt lat="44.1401817" lon="12.0627583"><ele>55.0</ele><time>2026-04-12T16:31:25.013Z</time></trkpt><trkpt lat="44.1403833" lon="12.06289"><ele>55.0</ele><time>2026-04-12T16:31:26.013Z</time></trkpt><trkpt lat="44.1405867" lon="12.0630217"><ele>55.0</ele><time>2026-04-12T16:31:27.016Z</time></trkpt><trkpt lat="44.14079" lon="12.06316"><ele>55.0</ele><time>2026-04-12T16:31:28.013Z</time></trkpt><trkpt lat="44.1409917" lon="12.0633"><ele>55.0</ele><time>2026-04-12T16:31:29.013Z</time></trkpt><trkpt lat="44.1411867" lon="12.0634367"><ele>55.0</ele><time>2026-04-12T16:31:30.015Z</time></trkpt><trkpt lat="44.141375" lon="12.0635667"><ele>55.0</ele><time>2026-04-12T16:31:31.015Z</time></trkpt><trkpt lat="44.14155" lon="12.0636867"><ele>55.666666666666664</ele><time>2026-04-12T16:31:32.013Z</time></trkpt><trkpt lat="44.141715" lon="12.0637933"><ele>56.33333333333333</ele><time>2026-04-12T16:31:33.012Z</time></trkpt><trkpt lat="44.14187" lon="12.0638983"><ele>57.0</ele><time>2026-04-12T16:31:34.012Z</time></trkpt><trkpt lat="44.14202" lon="12.0640067"><ele>56.66666666666667</ele><time>2026-04-12T16:31:35.013Z</time></trkpt><trkpt lat="44.1421733" lon="12.0641183"><ele>56.333333333333336</ele><time>2026-04-12T16:31:36.013Z</time></trkpt><trkpt lat="44.14234" lon="12.0642417"><ele>56.0</ele><time>2026-04-12T16:31:37.012Z</time></trkpt><trkpt lat="44.14251" lon="12.06437"><ele>55.66666666666667</ele><time>2026-04-12T16:31:38.014Z</time></trkpt><trkpt lat="44.1426867" lon="12.0645017"><ele>55.33333333333333</ele><time>2026-04-12T16:31:39.014Z</time></trkpt><trkpt lat="44.14286" lon="12.06463"><ele>55.0</ele><time>2026-04-12T16:31:40.017Z</time></trkpt><trkpt lat="44.1430283" lon="12.0647467"><ele>55.0</ele><time>2026-04-12T16:31:41.014Z</time></trkpt><trkpt lat="44.143185" lon="12.064855"><ele>55.0</ele><time>2026-04-12T16:31:42.012Z</time></trkpt><trkpt lat="44.143335" lon="12.0649617"><ele>55.0</ele><time>2026-04-12T16:31:43.014Z</time></trkpt><trkpt lat="44.14348" lon="12.0650617"><ele>55.33333333333333</ele><time>2026-04-12T16:31:44.013Z</time></trkpt><trkpt lat="44.1436183" lon="12.065155"><ele>55.66666666666667</ele><time>2026-04-12T16:31:45.012Z</time></trkpt><trkpt lat="44.1437533" lon="12.06526"><ele>56.0</ele><time>2026-04-12T16:31:46.012Z</time></trkpt><trkpt lat="44.1438867" lon="12.065385"><ele>56.0</ele><time>2026-04-12T16:31:47.012Z</time></trkpt><trkpt lat="44.144015" lon="12.0655267"><ele>56.0</ele><time>2026-04-12T16:31:48.012Z</time></trkpt><trkpt lat="44.1441383" lon="12.06568"><ele>56.0</ele><time>2026-04-12T16:31:49.013Z</time></trkpt><trkpt lat="44.1442483" lon="12.0658517"><ele>55.66666666666667</ele><time>2026-04-12T16:31:50.013Z</time></trkpt><trkpt lat="44.144355" lon="12.0660167"><ele>55.33333333333333</ele><time>2026-04-12T16:31:51.015Z</time></trkpt><trkpt lat="44.144455" lon="12.0661883"><ele>55.0</ele><time>2026-04-12T16:31:52.014Z</time></trkpt><trkpt lat="44.1445583" lon="12.0663833"><ele>55.0</ele><time>2026-04-12T16:31:53.015Z</time></trkpt><trkpt lat="44.144665" lon="12.0665867"><ele>55.0</ele><time>2026-04-12T16:31:54.012Z</time></trkpt><trkpt lat="44.1447633" lon="12.066795"><ele>55.0</ele><time>2026-04-12T16:31:55.016Z</time></trkpt><trkpt lat="44.14486" lon="12.0670017"><ele>54.0</ele><time>2026-04-12T16:31:56.011Z</time></trkpt><trkpt lat="44.144955" lon="12.067185"><ele>53.0</ele><time>2026-04-12T16:31:57.014Z</time></trkpt><trkpt lat="44.1450517" lon="12.06735"><ele>52.0</ele><time>2026-04-12T16:31:58.014Z</time></trkpt><trkpt lat="44.14516" lon="12.06749"><ele>51.666666666666664</ele><time>2026-04-12T16:31:59.012Z</time></trkpt><trkpt lat="44.1453" lon="12.0675883"><ele>51.33333333333333</ele><time>2026-04-12T16:32:00.014Z</time></trkpt><trkpt lat="44.145445" lon="12.067655"><ele>51.0</ele><time>2026-04-12T16:32:01.013Z</time></trkpt><trkpt lat="44.1456033" lon="12.0676983"><ele>51.66666666666667</ele><time>2026-04-12T16:32:02.013Z</time></trkpt><trkpt lat="44.145765" lon="12.0677267"><ele>52.333333333333336</ele><time>2026-04-12T16:32:03.014Z</time></trkpt><trkpt lat="44.1459283" lon="12.0677483"><ele>53.0</ele><time>2026-04-12T16:32:04.013Z</time></trkpt><trkpt lat="44.1460883" lon="12.0677667"><ele>53.0</ele><time>2026-04-12T16:32:05.012Z</time></trkpt><trkpt lat="44.14623" lon="12.067785"><ele>53.0</ele><time>2026-04-12T16:32:06.014Z</time></trkpt><trkpt lat="44.1463567" lon="12.0678"><ele>53.0</ele><time>2026-04-12T16:32:07.013Z</time></trkpt><trkpt lat="44.14647" lon="12.06781"><ele>53.0</ele><time>2026-04-12T16:32:08.012Z</time></trkpt><trkpt lat="44.1465683" lon="12.06782"><ele>53.16666666666667</ele><time>2026-04-12T16:32:09.013Z</time></trkpt><trkpt lat="44.1466583" lon="12.06783"><ele>53.333333333333336</ele><time>2026-04-12T16:32:10.013Z</time></trkpt><trkpt lat="44.1467467" lon="12.0678483"><ele>53.5</ele><time>2026-04-12T16:32:11.011Z</time></trkpt><trkpt lat="44.1468333" lon="12.0678867"><ele>53.66666666666667</ele><time>2026-04-12T16:32:12.012Z</time></trkpt><trkpt lat="44.1469133" lon="12.0679533"><ele>53.833333333333336</ele><time>2026-04-12T16:32:13.014Z</time></trkpt><trkpt lat="44.146985" lon="12.0680133"><ele>54.0</ele><time>2026-04-12T16:32:14.014Z</time></trkpt><trkpt lat="44.1470633" lon="12.0680483"><ele>54.0</ele><time>2026-04-12T16:32:15.015Z</time></trkpt><trkpt lat="44.1471333" lon="12.0680567"><ele>54.0</ele><time>2026-04-12T16:32:16.012Z</time></trkpt><trkpt lat="44.1472033" lon="12.0679817"><ele>54.0</ele><time>2026-04-12T16:32:17.012Z</time></trkpt><trkpt lat="44.14727" lon="12.06792"><ele>54.0</ele><time>2026-04-12T16:32:18.012Z</time></trkpt><trkpt lat="44.1473033" lon="12.0678267"><ele>54.0</ele><time>2026-04-12T16:32:19.012Z</time></trkpt><trkpt lat="44.147315" lon="12.0677083"><ele>54.0</ele><time>2026-04-12T16:32:20.014Z</time></trkpt><trkpt lat="44.14731" lon="12.0675683"><ele>54.0</ele><time>2026-04-12T16:32:21.013Z</time></trkpt><trkpt lat="44.1473267" lon="12.0674183"><ele>54.0</ele><time>2026-04-12T16:32:22.014Z</time></trkpt><trkpt lat="44.14737" lon="12.067265"><ele>54.0</ele><time>2026-04-12T16:32:23.013Z</time></trkpt><trkpt lat="44.1474367" lon="12.067115"><ele>54.0</ele><time>2026-04-12T16:32:24.012Z</time></trkpt><trkpt lat="44.1475183" lon="12.0669517"><ele>54.0</ele><time>2026-04-12T16:32:25.016Z</time></trkpt><trkpt lat="44.1476167" lon="12.066775"><ele>54.0</ele><time>2026-04-12T16:32:26.018Z</time></trkpt><trkpt lat="44.1477267" lon="12.0665767"><ele>54.0</ele><time>2026-04-12T16:32:27.013Z</time></trkpt><trkpt lat="44.14786" lon="12.0663717"><ele>53.66666666666667</ele><time>2026-04-12T16:32:28.012Z</time></trkpt><trkpt lat="44.1479917" lon="12.0661467"><ele>53.333333333333336</ele><time>2026-04-12T16:32:29.015Z</time></trkpt><trkpt lat="44.148135" lon="12.0659117"><ele>53.0</ele><time>2026-04-12T16:32:30.012Z</time></trkpt><trkpt lat="44.14829" lon="12.06567"><ele>54.5</ele><time>2026-04-12T16:32:31.015Z</time></trkpt><trkpt lat="44.1484483" lon="12.0654267"><ele>56.0</ele><time>2026-04-12T16:32:32.012Z</time></trkpt><trkpt lat="44.14861" lon="12.0651833"><ele>56.0</ele><time>2026-04-12T16:32:33.014Z</time></trkpt><trkpt lat="44.1487742" lon="12.0649439"><ele>56.0</ele><time>2026-04-12T16:32:34.014Z</time></trkpt><trkpt lat="44.1489417" lon="12.0647132"><ele>58.5</ele><time>2026-04-12T16:32:35.012Z</time></trkpt><trkpt lat="44.1491192" lon="12.0645032"><ele>61.0</ele><time>2026-04-12T16:32:36.016Z</time></trkpt><trkpt lat="44.1493021" lon="12.0643129"><ele>61.0</ele><time>2026-04-12T16:32:37.013Z</time></trkpt><trkpt lat="44.1494807" lon="12.0641267"><ele>61.0</ele><time>2026-04-12T16:32:38.012Z</time></trkpt><trkpt lat="44.1496525" lon="12.0639449"><ele>61.0</ele><time>2026-04-12T16:32:39.014Z</time></trkpt><trkpt lat="44.1498115" lon="12.0637627"><ele>63.0</ele><time>2026-04-12T16:32:40.012Z</time></trkpt><trkpt lat="44.1499606" lon="12.063591"><ele>65.0</ele><time>2026-04-12T16:32:41.013Z</time></trkpt><trkpt lat="44.1500931" lon="12.063429"><ele>67.0</ele><time>2026-04-12T16:32:42.012Z</time></trkpt><trkpt lat="44.15021" lon="12.0632718"><ele>67.0</ele><time>2026-04-12T16:32:43.012Z</time></trkpt><trkpt lat="44.150316" lon="12.0631037"><ele>67.0</ele><time>2026-04-12T16:32:44.011Z</time></trkpt><trkpt lat="44.1504058" lon="12.0629133"><ele>67.0</ele><time>2026-04-12T16:32:45.014Z</time></trkpt><trkpt lat="44.1504841" lon="12.0627129"><ele>67.0</ele><time>2026-04-12T16:32:46.011Z</time></trkpt><trkpt lat="44.150557" lon="12.0625039"><ele>67.0</ele><time>2026-04-12T16:32:47.013Z</time></trkpt><trkpt lat="44.1506276" lon="12.0622931"><ele>67.0</ele><time>2026-04-12T16:32:48.012Z</time></trkpt><trkpt lat="44.1507013" lon="12.0620801"><ele>68.33333333333333</ele><time>2026-04-12T16:32:49.011Z</time></trkpt><trkpt lat="44.1507838" lon="12.061862"><ele>69.66666666666667</ele><time>2026-04-12T16:32:50.016Z</time></trkpt><trkpt lat="44.150875" lon="12.061643"><ele>71.0</ele><time>2026-04-12T16:32:51.014Z</time></trkpt><trkpt lat="44.15097" lon="12.0614163"><ele>71.0</ele><time>2026-04-12T16:32:52.011Z</time></trkpt><trkpt lat="44.1510712" lon="12.0611808"><ele>71.0</ele><time>2026-04-12T16:32:53.011Z</time></trkpt><trkpt lat="44.1511779" lon="12.0609267"><ele>71.0</ele><time>2026-04-12T16:32:54.014Z</time></trkpt><trkpt lat="44.1512907" lon="12.0606581"><ele>69.0</ele><time>2026-04-12T16:32:55.014Z</time></trkpt><trkpt lat="44.1514166" lon="12.0603828"><ele>67.0</ele><time>2026-04-12T16:32:56.015Z</time></trkpt><trkpt lat="44.1515497" lon="12.0601079"><ele>70.5</ele><time>2026-04-12T16:32:57.013Z</time></trkpt><trkpt lat="44.151681" lon="12.0598293"><ele>74.0</ele><time>2026-04-12T16:32:58.013Z</time></trkpt><trkpt lat="44.1518199" lon="12.0595537"><ele>74.0</ele><time>2026-04-12T16:32:59.013Z</time></trkpt><trkpt lat="44.1519739" lon="12.0592927"><ele>74.0</ele><time>2026-04-12T16:33:00.015Z</time></trkpt><trkpt lat="44.1521411" lon="12.0590512"><ele>72.5</ele><time>2026-04-12T16:33:01.012Z</time></trkpt><trkpt lat="44.152324" lon="12.0588276"><ele>71.0</ele><time>2026-04-12T16:33:02.011Z</time></trkpt><trkpt lat="44.1525171" lon="12.0586157"><ele>74.5</ele><time>2026-04-12T16:33:03.016Z</time></trkpt><trkpt lat="44.1527071" lon="12.0584123"><ele>78.0</ele><time>2026-04-12T16:33:04.012Z</time></trkpt><trkpt lat="44.1528873" lon="12.0582123"><ele>78.0</ele><time>2026-04-12T16:33:05.012Z</time></trkpt><trkpt lat="44.1530593" lon="12.0580203"><ele>78.0</ele><time>2026-04-12T16:33:06.012Z</time></trkpt><trkpt lat="44.1532266" lon="12.0578152"><ele>78.0</ele><time>2026-04-12T16:33:07.015Z</time></trkpt><trkpt lat="44.1533944" lon="12.0576013"><ele>80.0</ele><time>2026-04-12T16:33:08.012Z</time></trkpt><trkpt lat="44.1535565" lon="12.057368"><ele>82.0</ele><time>2026-04-12T16:33:09.013Z</time></trkpt><trkpt lat="44.1537057" lon="12.0571125"><ele>82.0</ele><time>2026-04-12T16:33:10.02Z</time></trkpt><trkpt lat="44.1538386" lon="12.0568433"><ele>82.0</ele><time>2026-04-12T16:33:11.011Z</time></trkpt><trkpt lat="44.1539598" lon="12.0565672"><ele>81.0</ele><time>2026-04-12T16:33:12.013Z</time></trkpt><trkpt lat="44.1540814" lon="12.056298"><ele>80.0</ele><time>2026-04-12T16:33:13.012Z</time></trkpt><trkpt lat="44.1542162" lon="12.0560425"><ele>80.0</ele><time>2026-04-12T16:33:14.013Z</time></trkpt><trkpt lat="44.1543736" lon="12.0558098"><ele>80.0</ele><time>2026-04-12T16:33:15.015Z</time></trkpt><trkpt lat="44.1545496" lon="12.0555978"><ele>80.5</ele><time>2026-04-12T16:33:16.012Z</time></trkpt><trkpt lat="44.1547452" lon="12.0554097"><ele>81.0</ele><time>2026-04-12T16:33:17.013Z</time></trkpt><trkpt lat="44.1549535" lon="12.055238"><ele>81.0</ele><time>2026-04-12T16:33:18.011Z</time></trkpt><trkpt lat="44.1551657" lon="12.0550746"><ele>81.0</ele><time>2026-04-12T16:33:19.013Z</time></trkpt><trkpt lat="44.1553773" lon="12.054917"><ele>82.0</ele><time>2026-04-12T16:33:20.013Z</time></trkpt><trkpt lat="44.1555866" lon="12.0547667"><ele>83.0</ele><time>2026-04-12T16:33:21.014Z</time></trkpt><trkpt lat="44.1557857" lon="12.0546243"><ele>83.0</ele><time>2026-04-12T16:33:22.016Z</time></trkpt><trkpt lat="44.1559714" lon="12.0544865"><ele>83.0</ele><time>2026-04-12T16:33:23.014Z</time></trkpt><trkpt lat="44.1561558" lon="12.0543574"><ele>83.0</ele><time>2026-04-12T16:33:24.012Z</time></trkpt><trkpt lat="44.1563433" lon="12.0542472"><ele>82.33333333333334</ele><time>2026-04-12T16:33:25.014Z</time></trkpt><trkpt lat="44.1565391" lon="12.054169"><ele>81.66666666666667</ele><time>2026-04-12T16:33:26.014Z</time></trkpt><trkpt lat="44.1567409" lon="12.0541217"><ele>81.0</ele><time>2026-04-12T16:33:27.012Z</time></trkpt><trkpt lat="44.1569536" lon="12.0540875"><ele>81.0</ele><time>2026-04-12T16:33:28.014Z</time></trkpt><trkpt lat="44.1571735" lon="12.0540579"><ele>81.0</ele><time>2026-04-12T16:33:29.012Z</time></trkpt><trkpt lat="44.1574039" lon="12.054017"><ele>80.5</ele><time>2026-04-12T16:33:30.011Z</time></trkpt><trkpt lat="44.1576372" lon="12.0539755"><ele>80.0</ele><time>2026-04-12T16:33:31.014Z</time></trkpt><trkpt lat="44.1578731" lon="12.053938"><ele>80.0</ele><time>2026-04-12T16:33:32.012Z</time></trkpt><trkpt lat="44.1581136" lon="12.0539056"><ele>80.0</ele><time>2026-04-12T16:33:33.016Z</time></trkpt><trkpt lat="44.158358" lon="12.0538583"><ele>78.5</ele><time>2026-04-12T16:33:34.013Z</time></trkpt><trkpt lat="44.1586038" lon="12.0538152"><ele>77.0</ele><time>2026-04-12T16:33:35.011Z</time></trkpt><trkpt lat="44.1588473" lon="12.0537764"><ele>76.0</ele><time>2026-04-12T16:33:36.014Z</time></trkpt><trkpt lat="44.159081" lon="12.0537343"><ele>75.0</ele><time>2026-04-12T16:33:37.011Z</time></trkpt><trkpt lat="44.159305" lon="12.0537006"><ele>75.0</ele><time>2026-04-12T16:33:38.013Z</time></trkpt><trkpt lat="44.15952" lon="12.0536696"><ele>75.0</ele><time>2026-04-12T16:33:39.012Z</time></trkpt><trkpt lat="44.1597282" lon="12.0536448"><ele>75.0</ele><time>2026-04-12T16:33:40.012Z</time></trkpt><trkpt lat="44.1599299" lon="12.0536157"><ele>74.66666666666667</ele><time>2026-04-12T16:33:41.012Z</time></trkpt><trkpt lat="44.160126" lon="12.0535839"><ele>74.33333333333334</ele><time>2026-04-12T16:33:42.011Z</time></trkpt><trkpt lat="44.1603189" lon="12.0535575"><ele>74.0</ele><time>2026-04-12T16:33:43.015Z</time></trkpt><trkpt lat="44.1605101" lon="12.0535484"><ele>73.66666666666667</ele><time>2026-04-12T16:33:44.011Z</time></trkpt><trkpt lat="44.1607043" lon="12.0535669"><ele>73.33333333333333</ele><time>2026-04-12T16:33:45.016Z</time></trkpt><trkpt lat="44.1609001" lon="12.0536069"><ele>73.0</ele><time>2026-04-12T16:33:46.014Z</time></trkpt><trkpt lat="44.1610982" lon="12.0536641"><ele>73.0</ele><time>2026-04-12T16:33:47.012Z</time></trkpt><trkpt lat="44.1612982" lon="12.0537373"><ele>73.0</ele><time>2026-04-12T16:33:48.012Z</time></trkpt><trkpt lat="44.1614986" lon="12.0538138"><ele>73.0</ele><time>2026-04-12T16:33:49.012Z</time></trkpt><trkpt lat="44.1617057" lon="12.0538728"><ele>72.33333333333333</ele><time>2026-04-12T16:33:50.012Z</time></trkpt><trkpt lat="44.1619145" lon="12.0539178"><ele>71.66666666666667</ele><time>2026-04-12T16:33:51.013Z</time></trkpt><trkpt lat="44.162127" lon="12.0539465"><ele>71.0</ele><time>2026-04-12T16:33:52.012Z</time></trkpt><trkpt lat="44.1623448" lon="12.053961"><ele>70.5</ele><time>2026-04-12T16:33:53.012Z</time></trkpt><trkpt lat="44.1625682" lon="12.0539847"><ele>70.0</ele><time>2026-04-12T16:33:54.015Z</time></trkpt><trkpt lat="44.1627934" lon="12.0540025"><ele>70.0</ele><time>2026-04-12T16:33:55.014Z</time></trkpt><trkpt lat="44.1630135" lon="12.0540175"><ele>70.0</ele><time>2026-04-12T16:33:56.014Z</time></trkpt><trkpt lat="44.1632291" lon="12.0540174"><ele>70.0</ele><time>2026-04-12T16:33:57.014Z</time></trkpt><trkpt lat="44.163435" lon="12.0540029"><ele>69.0</ele><time>2026-04-12T16:33:58.012Z</time></trkpt><trkpt lat="44.1636364" lon="12.0539639"><ele>68.0</ele><time>2026-04-12T16:33:59.013Z</time></trkpt><trkpt lat="44.1638341" lon="12.0538866"><ele>67.0</ele><time>2026-04-12T16:34:00.013Z</time></trkpt><trkpt lat="44.1640291" lon="12.053778"><ele>66.33333333333333</ele><time>2026-04-12T16:34:01.014Z</time></trkpt><trkpt lat="44.1642145" lon="12.0536323"><ele>65.66666666666667</ele><time>2026-04-12T16:34:02.012Z</time></trkpt><trkpt lat="44.1643832" lon="12.053461"><ele>65.0</ele><time>2026-04-12T16:34:03.011Z</time></trkpt><trkpt lat="44.164534" lon="12.0532768"><ele>65.0</ele><time>2026-04-12T16:34:04.015Z</time></trkpt><trkpt lat="44.1646745" lon="12.0530912"><ele>65.0</ele><time>2026-04-12T16:34:05.014Z</time></trkpt><trkpt lat="44.1648102" lon="12.0529056"><ele>65.0</ele><time>2026-04-12T16:34:06.011Z</time></trkpt><trkpt lat="44.164947" lon="12.0527252"><ele>65.33333333333334</ele><time>2026-04-12T16:34:07.012Z</time></trkpt><trkpt lat="44.1650904" lon="12.052558"><ele>65.66666666666667</ele><time>2026-04-12T16:34:08.012Z</time></trkpt><trkpt lat="44.1652339" lon="12.0523951"><ele>66.0</ele><time>2026-04-12T16:34:09.015Z</time></trkpt><trkpt lat="44.1653788" lon="12.0522384"><ele>65.33333333333333</ele><time>2026-04-12T16:34:10.012Z</time></trkpt><trkpt lat="44.16553" lon="12.0520893"><ele>64.66666666666666</ele><time>2026-04-12T16:34:11.014Z</time></trkpt><trkpt lat="44.1656861" lon="12.0519484"><ele>64.0</ele><time>2026-04-12T16:34:12.014Z</time></trkpt><trkpt lat="44.1658445" lon="12.0518066"><ele>64.0</ele><time>2026-04-12T16:34:13.012Z</time></trkpt><trkpt lat="44.1660009" lon="12.0516598"><ele>64.0</ele><time>2026-04-12T16:34:14.013Z</time></trkpt><trkpt lat="44.1661574" lon="12.0515102"><ele>64.0</ele><time>2026-04-12T16:34:15.012Z</time></trkpt><trkpt lat="44.1663136" lon="12.0513624"><ele>63.0</ele><time>2026-04-12T16:34:16.013Z</time></trkpt><trkpt lat="44.1664703" lon="12.0512161"><ele>62.0</ele><time>2026-04-12T16:34:17.013Z</time></trkpt><trkpt lat="44.1666272" lon="12.0510584"><ele>61.0</ele><time>2026-04-12T16:34:18.016Z</time></trkpt><trkpt lat="44.1667853" lon="12.0508835"><ele>59.666666666666664</ele><time>2026-04-12T16:34:19.014Z</time></trkpt><trkpt lat="44.1669347" lon="12.050683"><ele>58.33333333333333</ele><time>2026-04-12T16:34:20.013Z</time></trkpt><trkpt lat="44.1670824" lon="12.0504742"><ele>57.0</ele><time>2026-04-12T16:34:21.015Z</time></trkpt><trkpt lat="44.167229" lon="12.0502698"><ele>56.0</ele><time>2026-04-12T16:34:22.012Z</time></trkpt><trkpt lat="44.1673758" lon="12.0500795"><ele>55.0</ele><time>2026-04-12T16:34:23.015Z</time></trkpt><trkpt lat="44.1675207" lon="12.049901"><ele>54.0</ele><time>2026-04-12T16:34:24.015Z</time></trkpt><trkpt lat="44.1676537" lon="12.0497245"><ele>52.66666666666667</ele><time>2026-04-12T16:34:25.014Z</time></trkpt><trkpt lat="44.1677897" lon="12.0495498"><ele>51.333333333333336</ele><time>2026-04-12T16:34:26.013Z</time></trkpt><trkpt lat="44.1679262" lon="12.0493718"><ele>50.0</ele><time>2026-04-12T16:34:27.013Z</time></trkpt><trkpt lat="44.1680641" lon="12.0491881"><ele>49.333333333333336</ele><time>2026-04-12T16:34:28.014Z</time></trkpt><trkpt lat="44.1682111" lon="12.0490131"><ele>48.66666666666667</ele><time>2026-04-12T16:34:29.012Z</time></trkpt><trkpt lat="44.1683698" lon="12.0488503"><ele>48.0</ele><time>2026-04-12T16:34:30.013Z</time></trkpt><trkpt lat="44.1685398" lon="12.0487124"><ele>48.0</ele><time>2026-04-12T16:34:31.012Z</time></trkpt><trkpt lat="44.168708" lon="12.0485859"><ele>48.0</ele><time>2026-04-12T16:34:32.012Z</time></trkpt><trkpt lat="44.1688728" lon="12.0484631"><ele>48.0</ele><time>2026-04-12T16:34:33.013Z</time></trkpt><trkpt lat="44.1690414" lon="12.0483256"><ele>48.33333333333333</ele><time>2026-04-12T16:34:34.012Z</time></trkpt><trkpt lat="44.1692176" lon="12.0481754"><ele>48.666666666666664</ele><time>2026-04-12T16:34:35.012Z</time></trkpt><trkpt lat="44.1694033" lon="12.0480142"><ele>49.0</ele><time>2026-04-12T16:34:36.015Z</time></trkpt><trkpt lat="44.1695997" lon="12.0478576"><ele>49.0</ele><time>2026-04-12T16:34:37.013Z</time></trkpt><trkpt lat="44.1698072" lon="12.0477051"><ele>49.0</ele><time>2026-04-12T16:34:38.013Z</time></trkpt><trkpt lat="44.1700246" lon="12.047558"><ele>48.5</ele><time>2026-04-12T16:34:39.011Z</time></trkpt><trkpt lat="44.1702496" lon="12.0474097"><ele>48.0</ele><time>2026-04-12T16:34:40.014Z</time></trkpt><trkpt lat="44.1704749" lon="12.0472574"><ele>47.5</ele><time>2026-04-12T16:34:41.013Z</time></trkpt><trkpt lat="44.1706939" lon="12.0470987"><ele>47.0</ele><time>2026-04-12T16:34:42.013Z</time></trkpt><trkpt lat="44.1709066" lon="12.0469324"><ele>47.0</ele><time>2026-04-12T16:34:43.013Z</time></trkpt><trkpt lat="44.1711162" lon="12.0467672"><ele>47.0</ele><time>2026-04-12T16:34:44.012Z</time></trkpt><trkpt lat="44.1713268" lon="12.0466041"><ele>46.0</ele><time>2026-04-12T16:34:45.015Z</time></trkpt><trkpt lat="44.1715344" lon="12.046431"><ele>45.0</ele><time>2026-04-12T16:34:46.013Z</time></trkpt><trkpt lat="44.1717476" lon="12.0462535"><ele>45.0</ele><time>2026-04-12T16:34:47.015Z</time></trkpt><trkpt lat="44.1719667" lon="12.0460767"><ele>45.0</ele><time>2026-04-12T16:34:48.012Z</time></trkpt><trkpt lat="44.17219" lon="12.04589"><ele>44.5</ele><time>2026-04-12T16:34:49.013Z</time></trkpt><trkpt lat="44.1724283" lon="12.045705"><ele>44.0</ele><time>2026-04-12T16:34:50.02Z</time></trkpt><trkpt lat="44.1726767" lon="12.0455217"><ele>44.0</ele><time>2026-04-12T16:34:51.012Z</time></trkpt><trkpt lat="44.172935" lon="12.0453383"><ele>44.0</ele><time>2026-04-12T16:34:52.014Z</time></trkpt><trkpt lat="44.1731967" lon="12.0451417"><ele>44.0</ele><time>2026-04-12T16:34:53.014Z</time></trkpt><trkpt lat="44.1734567" lon="12.0449367"><ele>44.0</ele><time>2026-04-12T16:34:54.012Z</time></trkpt><trkpt lat="44.17372" lon="12.0447283"><ele>44.0</ele><time>2026-04-12T16:34:55.02Z</time></trkpt><trkpt lat="44.17398" lon="12.0445283"><ele>44.0</ele><time>2026-04-12T16:34:56.013Z</time></trkpt><trkpt lat="44.174225" lon="12.0443317"><ele>44.0</ele><time>2026-04-12T16:34:57.013Z</time></trkpt><trkpt lat="44.174455" lon="12.0441483"><ele>44.0</ele><time>2026-04-12T16:34:58.013Z</time></trkpt><trkpt lat="44.174675" lon="12.04398"><ele>44.0</ele><time>2026-04-12T16:34:59.015Z</time></trkpt><trkpt lat="44.1748933" lon="12.04382"><ele>44.0</ele><time>2026-04-12T16:35:00.015Z</time></trkpt><trkpt lat="44.1751067" lon="12.04365"><ele>44.0</ele><time>2026-04-12T16:35:01.014Z</time></trkpt><trkpt lat="44.1753183" lon="12.0434817"><ele>44.0</ele><time>2026-04-12T16:35:02.015Z</time></trkpt><trkpt lat="44.1755333" lon="12.0433267"><ele>44.5</ele><time>2026-04-12T16:35:03.013Z</time></trkpt><trkpt lat="44.1757417" lon="12.0431583"><ele>45.0</ele><time>2026-04-12T16:35:04.012Z</time></trkpt><trkpt lat="44.1759533" lon="12.043005"><ele>45.0</ele><time>2026-04-12T16:35:05.012Z</time></trkpt><trkpt lat="44.1761633" lon="12.0428567"><ele>45.0</ele><time>2026-04-12T16:35:06.016Z</time></trkpt><trkpt lat="44.176375" lon="12.0427033"><ele>44.5</ele><time>2026-04-12T16:35:07.015Z</time></trkpt><trkpt lat="44.1765983" lon="12.0425683"><ele>44.0</ele><time>2026-04-12T16:35:08.013Z</time></trkpt><trkpt lat="44.17683" lon="12.042445"><ele>44.0</ele><time>2026-04-12T16:35:09.015Z</time></trkpt><trkpt lat="44.1770683" lon="12.04233"><ele>44.0</ele><time>2026-04-12T16:35:10.015Z</time></trkpt><trkpt lat="44.1773083" lon="12.0422333"><ele>43.5</ele><time>2026-04-12T16:35:11.014Z</time></trkpt><trkpt lat="44.1775467" lon="12.042145"><ele>43.0</ele><time>2026-04-12T16:35:12.013Z</time></trkpt><trkpt lat="44.1777783" lon="12.0420567"><ele>43.0</ele><time>2026-04-12T16:35:13.014Z</time></trkpt><trkpt lat="44.1780017" lon="12.04196"><ele>43.0</ele><time>2026-04-12T16:35:14.015Z</time></trkpt><trkpt lat="44.1782167" lon="12.0418683"><ele>43.0</ele><time>2026-04-12T16:35:15.016Z</time></trkpt><trkpt lat="44.178415" lon="12.0417967"><ele>43.0</ele><time>2026-04-12T16:35:16.013Z</time></trkpt><trkpt lat="44.1786033" lon="12.0417217"><ele>43.0</ele><time>2026-04-12T16:35:17.013Z</time></trkpt><trkpt lat="44.1787833" lon="12.041655"><ele>43.0</ele><time>2026-04-12T16:35:18.014Z</time></trkpt><trkpt lat="44.178955" lon="12.0415883"><ele>43.0</ele><time>2026-04-12T16:35:19.015Z</time></trkpt><trkpt lat="44.1791167" lon="12.0415333"><ele>43.0</ele><time>2026-04-12T16:35:20.014Z</time></trkpt><trkpt lat="44.17926" lon="12.0414767"><ele>43.0</ele><time>2026-04-12T16:35:21.014Z</time></trkpt><trkpt lat="44.17939" lon="12.04143"><ele>43.0</ele><time>2026-04-12T16:35:22.012Z</time></trkpt><trkpt lat="44.1795117" lon="12.0413967"><ele>43.0</ele><time>2026-04-12T16:35:23.015Z</time></trkpt><trkpt lat="44.1796283" lon="12.0413717"><ele>43.0</ele><time>2026-04-12T16:35:24.014Z</time></trkpt><trkpt lat="44.1797483" lon="12.041385"><ele>42.8</ele><time>2026-04-12T16:35:25.014Z</time></trkpt><trkpt lat="44.1798683" lon="12.0413733"><ele>42.599999999999994</ele><time>2026-04-12T16:35:26.014Z</time></trkpt><trkpt lat="44.1799733" lon="12.0413217"><ele>42.400000000000006</ele><time>2026-04-12T16:35:27.018Z</time></trkpt><trkpt lat="44.18006" lon="12.041255"><ele>42.2</ele><time>2026-04-12T16:35:28.014Z</time></trkpt><trkpt lat="44.1801233" lon="12.041205"><ele>42.0</ele><time>2026-04-12T16:35:29.013Z</time></trkpt><trkpt lat="44.180205" lon="12.0411433"><ele>42.0</ele><time>2026-04-12T16:35:31.013Z</time></trkpt><trkpt lat="44.1802967" lon="12.0411067"><ele>42.0</ele><time>2026-04-12T16:35:33.014Z</time></trkpt><trkpt lat="44.18036" lon="12.0410717"><ele>42.0</ele><time>2026-04-12T16:35:34.012Z</time></trkpt><trkpt lat="44.1804267" lon="12.04101"><ele>42.0</ele><time>2026-04-12T16:35:35.014Z</time></trkpt><trkpt lat="44.1804833" lon="12.0409267"><ele>42.0</ele><time>2026-04-12T16:35:36.012Z</time></trkpt><trkpt lat="44.1805233" lon="12.0408267"><ele>42.0</ele><time>2026-04-12T16:35:37.013Z</time></trkpt><trkpt lat="44.180535" lon="12.04069"><ele>41.666666666666664</ele><time>2026-04-12T16:35:38.015Z</time></trkpt><trkpt lat="44.180535" lon="12.040505"><ele>41.33333333333333</ele><time>2026-04-12T16:35:39.015Z</time></trkpt><trkpt lat="44.18059" lon="12.0403117"><ele>41.0</ele><time>2026-04-12T16:35:40.015Z</time></trkpt><trkpt lat="44.1806717" lon="12.040095"><ele>41.33333333333333</ele><time>2026-04-12T16:35:41.012Z</time></trkpt><trkpt lat="44.180755" lon="12.0398467"><ele>41.666666666666664</ele><time>2026-04-12T16:35:42.014Z</time></trkpt><trkpt lat="44.1808617" lon="12.03957"><ele>42.0</ele><time>2026-04-12T16:35:43.012Z</time></trkpt><trkpt lat="44.1809683" lon="12.039265"><ele>43.0</ele><time>2026-04-12T16:35:44.014Z</time></trkpt><trkpt lat="44.1810933" lon="12.0389533"><ele>44.0</ele><time>2026-04-12T16:35:45.013Z</time></trkpt><trkpt lat="44.1812133" lon="12.0386467"><ele>44.0</ele><time>2026-04-12T16:35:46.013Z</time></trkpt><trkpt lat="44.1813283" lon="12.0383583"><ele>44.0</ele><time>2026-04-12T16:35:47.013Z</time></trkpt><trkpt lat="44.1814317" lon="12.0380867"><ele>43.666666666666664</ele><time>2026-04-12T16:35:48.015Z</time></trkpt><trkpt lat="44.1815317" lon="12.0378317"><ele>43.333333333333336</ele><time>2026-04-12T16:35:49.015Z</time></trkpt><trkpt lat="44.18163" lon="12.0375917"><ele>43.0</ele><time>2026-04-12T16:35:50.017Z</time></trkpt><trkpt lat="44.1817267" lon="12.037345"><ele>43.66666666666667</ele><time>2026-04-12T16:35:51.018Z</time></trkpt><trkpt lat="44.18183" lon="12.0370917"><ele>44.333333333333336</ele><time>2026-04-12T16:35:52.013Z</time></trkpt><trkpt lat="44.1819367" lon="12.03683"><ele>45.0</ele><time>2026-04-12T16:35:53.013Z</time></trkpt><trkpt lat="44.18203" lon="12.0365767"><ele>45.333333333333336</ele><time>2026-04-12T16:35:54.017Z</time></trkpt><trkpt lat="44.1821133" lon="12.0363433"><ele>45.66666666666667</ele><time>2026-04-12T16:35:55.013Z</time></trkpt><trkpt lat="44.1822" lon="12.0361367"><ele>46.0</ele><time>2026-04-12T16:35:56.016Z</time></trkpt><trkpt lat="44.1822817" lon="12.0359417"><ele>46.333333333333336</ele><time>2026-04-12T16:35:57.014Z</time></trkpt><trkpt lat="44.1823567" lon="12.03574"><ele>46.666666666666664</ele><time>2026-04-12T16:35:58.016Z</time></trkpt><trkpt lat="44.1824333" lon="12.0355317"><ele>47.0</ele><time>2026-04-12T16:35:59.013Z</time></trkpt><trkpt lat="44.182515" lon="12.03533"><ele>47.0</ele><time>2026-04-12T16:36:00.015Z</time></trkpt><trkpt lat="44.1825967" lon="12.0351383"><ele>47.0</ele><time>2026-04-12T16:36:01.013Z</time></trkpt><trkpt lat="44.18267" lon="12.0349567"><ele>47.0</ele><time>2026-04-12T16:36:02.015Z</time></trkpt><trkpt lat="44.1827317" lon="12.0347867"><ele>47.0</ele><time>2026-04-12T16:36:03.016Z</time></trkpt><trkpt lat="44.1827933" lon="12.0346317"><ele>47.0</ele><time>2026-04-12T16:36:04.016Z</time></trkpt><trkpt lat="44.182845" lon="12.0344933"><ele>47.0</ele><time>2026-04-12T16:36:05.017Z</time></trkpt><trkpt lat="44.182895" lon="12.0343733"><ele>47.0</ele><time>2026-04-12T16:36:06.015Z</time></trkpt><trkpt lat="44.1829383" lon="12.0342733"><ele>47.0</ele><time>2026-04-12T16:36:07.014Z</time></trkpt><trkpt lat="44.1829683" lon="12.0341883"><ele>47.0</ele><time>2026-04-12T16:36:08.012Z</time></trkpt><trkpt lat="44.1830033" lon="12.03411"><ele>47.0</ele><time>2026-04-12T16:36:09.014Z</time></trkpt><trkpt lat="44.1830583" lon="12.03397"><ele>47.0</ele><time>2026-04-12T16:36:11.013Z</time></trkpt><trkpt lat="44.183095" lon="12.0338833"><ele>47.0</ele><time>2026-04-12T16:36:14.014Z</time></trkpt><trkpt lat="44.1831383" lon="12.0337933"><ele>47.0</ele><time>2026-04-12T16:36:18.014Z</time></trkpt><trkpt lat="44.1832233" lon="12.0338217"><ele>47.0</ele><time>2026-04-12T16:36:24.013Z</time></trkpt><trkpt lat="44.1832883" lon="12.0338267"><ele>47.0</ele><time>2026-04-12T16:36:25.016Z</time></trkpt><trkpt lat="44.1834183" lon="12.0339"><ele>47.0</ele><time>2026-04-12T16:36:26.012Z</time></trkpt><trkpt lat="44.183575" lon="12.0339983"><ele>47.0</ele><time>2026-04-12T16:36:27.015Z</time></trkpt><trkpt lat="44.1837417" lon="12.03411"><ele>47.0</ele><time>2026-04-12T16:36:28.013Z</time></trkpt><trkpt lat="44.1839267" lon="12.0342383"><ele>47.0</ele><time>2026-04-12T16:36:29.013Z</time></trkpt><trkpt lat="44.1841067" lon="12.0343667"><ele>47.0</ele><time>2026-04-12T16:36:30.015Z</time></trkpt><trkpt lat="44.1842733" lon="12.034485"><ele>47.0</ele><time>2026-04-12T16:36:31.012Z</time></trkpt><trkpt lat="44.1844333" lon="12.0345883"><ele>47.0</ele><time>2026-04-12T16:36:32.012Z</time></trkpt><trkpt lat="44.1845833" lon="12.03469"><ele>47.0</ele><time>2026-04-12T16:36:33.015Z</time></trkpt><trkpt lat="44.184725" lon="12.0347933"><ele>47.0</ele><time>2026-04-12T16:36:34.016Z</time></trkpt><trkpt lat="44.1848683" lon="12.0348867"><ele>47.0</ele><time>2026-04-12T16:36:35.013Z</time></trkpt><trkpt lat="44.1850183" lon="12.0349683"><ele>46.666666666666664</ele><time>2026-04-12T16:36:36.015Z</time></trkpt><trkpt lat="44.185165" lon="12.0350583"><ele>46.333333333333336</ele><time>2026-04-12T16:36:37.014Z</time></trkpt><trkpt lat="44.18531" lon="12.0351433"><ele>46.0</ele><time>2026-04-12T16:36:38.016Z</time></trkpt><trkpt lat="44.18545" lon="12.03523"><ele>46.0</ele><time>2026-04-12T16:36:39.016Z</time></trkpt><trkpt lat="44.1855917" lon="12.03531"><ele>46.0</ele><time>2026-04-12T16:36:40.014Z</time></trkpt><trkpt lat="44.1857267" lon="12.0353767"><ele>46.0</ele><time>2026-04-12T16:36:41.012Z</time></trkpt><trkpt lat="44.1858583" lon="12.035425"><ele>46.0</ele><time>2026-04-12T16:36:42.016Z</time></trkpt><trkpt lat="44.1859783" lon="12.0354683"><ele>45.66666666666667</ele><time>2026-04-12T16:36:43.012Z</time></trkpt><trkpt lat="44.1860883" lon="12.035485"><ele>45.333333333333336</ele><time>2026-04-12T16:36:44.012Z</time></trkpt><trkpt lat="44.186185" lon="12.0354867"><ele>45.0</ele><time>2026-04-12T16:36:45.013Z</time></trkpt><trkpt lat="44.18627" lon="12.0354917"><ele>44.666666666666664</ele><time>2026-04-12T16:36:46.014Z</time></trkpt><trkpt lat="44.186345" lon="12.0354833"><ele>44.33333333333333</ele><time>2026-04-12T16:36:47.014Z</time></trkpt><trkpt lat="44.1864133" lon="12.0354767"><ele>44.0</ele><time>2026-04-12T16:36:48.012Z</time></trkpt><trkpt lat="44.18651" lon="12.035445"><ele>44.400000000000006</ele><time>2026-04-12T16:36:50.015Z</time></trkpt><trkpt lat="44.18659" lon="12.0354417"><ele>44.8</ele><time>2026-04-12T16:36:53.014Z</time></trkpt><trkpt lat="44.1866533" lon="12.0354283"><ele>45.2</ele><time>2026-04-12T16:36:57.016Z</time></trkpt><trkpt lat="44.1867733" lon="12.0354183"><ele>45.599999999999994</ele><time>2026-04-12T16:36:59.013Z</time></trkpt><trkpt lat="44.18687" lon="12.0354"><ele>46.0</ele><time>2026-04-12T16:37:00.017Z</time></trkpt><trkpt lat="44.1870017" lon="12.0353667"><ele>46.0</ele><time>2026-04-12T16:37:01.014Z</time></trkpt><trkpt lat="44.1871467" lon="12.0353233"><ele>46.0</ele><time>2026-04-12T16:37:02.014Z</time></trkpt><trkpt lat="44.187305" lon="12.035265"><ele>46.0</ele><time>2026-04-12T16:37:03.013Z</time></trkpt><trkpt lat="44.1874709" lon="12.0351977"><ele>46.0</ele><time>2026-04-12T16:37:04.014Z</time></trkpt><trkpt lat="44.187638" lon="12.035124"><ele>46.0</ele><time>2026-04-12T16:37:05.015Z</time></trkpt><trkpt lat="44.1877947" lon="12.0350492"><ele>46.0</ele><time>2026-04-12T16:37:06.014Z</time></trkpt><trkpt lat="44.1879434" lon="12.0349683"><ele>45.333333333333336</ele><time>2026-04-12T16:37:07.014Z</time></trkpt><trkpt lat="44.1880892" lon="12.0348649"><ele>44.666666666666664</ele><time>2026-04-12T16:37:08.017Z</time></trkpt><trkpt lat="44.1882364" lon="12.0347443"><ele>44.0</ele><time>2026-04-12T16:37:09.013Z</time></trkpt><trkpt lat="44.1883844" lon="12.03462"><ele>44.0</ele><time>2026-04-12T16:37:10.017Z</time></trkpt><trkpt lat="44.1885397" lon="12.034482"><ele>44.0</ele><time>2026-04-12T16:37:11.011Z</time></trkpt><trkpt lat="44.1887059" lon="12.034332"><ele>44.0</ele><time>2026-04-12T16:37:12.013Z</time></trkpt><trkpt lat="44.1888785" lon="12.0341782"><ele>44.0</ele><time>2026-04-12T16:37:13.012Z</time></trkpt><trkpt lat="44.1890482" lon="12.034026"><ele>44.0</ele><time>2026-04-12T16:37:14.013Z</time></trkpt><trkpt lat="44.1892158" lon="12.0338772"><ele>44.0</ele><time>2026-04-12T16:37:15.012Z</time></trkpt><trkpt lat="44.1893704" lon="12.0337404"><ele>44.0</ele><time>2026-04-12T16:37:16.016Z</time></trkpt><trkpt lat="44.1895158" lon="12.033611"><ele>44.0</ele><time>2026-04-12T16:37:17.013Z</time></trkpt><trkpt lat="44.1896558" lon="12.0334836"><ele>44.0</ele><time>2026-04-12T16:37:18.017Z</time></trkpt><trkpt lat="44.1897922" lon="12.0333593"><ele>44.0</ele><time>2026-04-12T16:37:19.014Z</time></trkpt><trkpt lat="44.1899269" lon="12.0332344"><ele>44.0</ele><time>2026-04-12T16:37:20.015Z</time></trkpt><trkpt lat="44.1900631" lon="12.0331079"><ele>44.0</ele><time>2026-04-12T16:37:21.014Z</time></trkpt><trkpt lat="44.1902008" lon="12.0329789"><ele>44.0</ele><time>2026-04-12T16:37:22.015Z</time></trkpt><trkpt lat="44.1903376" lon="12.0328518"><ele>44.0</ele><time>2026-04-12T16:37:23.014Z</time></trkpt><trkpt lat="44.1904761" lon="12.032722"><ele>44.0</ele><time>2026-04-12T16:37:24.014Z</time></trkpt><trkpt lat="44.1906185" lon="12.0325977"><ele>43.666666666666664</ele><time>2026-04-12T16:37:25.015Z</time></trkpt><trkpt lat="44.1907647" lon="12.0324793"><ele>43.333333333333336</ele><time>2026-04-12T16:37:26.013Z</time></trkpt><trkpt lat="44.1909078" lon="12.0323711"><ele>43.0</ele><time>2026-04-12T16:37:27.019Z</time></trkpt><trkpt lat="44.191041" lon="12.0322844"><ele>42.25</ele><time>2026-04-12T16:37:28.016Z</time></trkpt><trkpt lat="44.1911713" lon="12.0322231"><ele>41.5</ele><time>2026-04-12T16:37:29.013Z</time></trkpt><trkpt lat="44.1912937" lon="12.0321755"><ele>40.75</ele><time>2026-04-12T16:37:30.014Z</time></trkpt><trkpt lat="44.1914115" lon="12.0321347"><ele>40.0</ele><time>2026-04-12T16:37:31.013Z</time></trkpt><trkpt lat="44.1915291" lon="12.0320912"><ele>40.0</ele><time>2026-04-12T16:37:32.013Z</time></trkpt><trkpt lat="44.1916444" lon="12.0320494"><ele>40.0</ele><time>2026-04-12T16:37:33.014Z</time></trkpt><trkpt lat="44.1917524" lon="12.0320135"><ele>40.0</ele><time>2026-04-12T16:37:34.014Z</time></trkpt><trkpt lat="44.1918534" lon="12.0319779"><ele>40.0</ele><time>2026-04-12T16:37:35.014Z</time></trkpt><trkpt lat="44.1919595" lon="12.0319379"><ele>40.0</ele><time>2026-04-12T16:37:36.014Z</time></trkpt><trkpt lat="44.1920796" lon="12.0319005"><ele>40.0</ele><time>2026-04-12T16:37:37.013Z</time></trkpt><trkpt lat="44.1922122" lon="12.0318534"><ele>40.0</ele><time>2026-04-12T16:37:38.012Z</time></trkpt><trkpt lat="44.1923528" lon="12.0318005"><ele>40.0</ele><time>2026-04-12T16:37:39.016Z</time></trkpt><trkpt lat="44.1924981" lon="12.0317423"><ele>40.0</ele><time>2026-04-12T16:37:40.013Z</time></trkpt><trkpt lat="44.1926536" lon="12.031678"><ele>40.333333333333336</ele><time>2026-04-12T16:37:41.013Z</time></trkpt><trkpt lat="44.1928116" lon="12.0316209"><ele>40.666666666666664</ele><time>2026-04-12T16:37:42.015Z</time></trkpt><trkpt lat="44.1929659" lon="12.0315658"><ele>41.0</ele><time>2026-04-12T16:37:43.012Z</time></trkpt><trkpt lat="44.1931213" lon="12.0315048"><ele>40.75</ele><time>2026-04-12T16:37:44.014Z</time></trkpt><trkpt lat="44.1932698" lon="12.0314434"><ele>40.5</ele><time>2026-04-12T16:37:45.014Z</time></trkpt><trkpt lat="44.1934107" lon="12.0313901"><ele>40.25</ele><time>2026-04-12T16:37:46.013Z</time></trkpt><trkpt lat="44.1935444" lon="12.0313411"><ele>40.0</ele><time>2026-04-12T16:37:47.016Z</time></trkpt><trkpt lat="44.1936791" lon="12.0312937"><ele>40.0</ele><time>2026-04-12T16:37:48.014Z</time></trkpt><trkpt lat="44.1938159" lon="12.0312462"><ele>40.0</ele><time>2026-04-12T16:37:49.014Z</time></trkpt><trkpt lat="44.1939575" lon="12.031199"><ele>40.0</ele><time>2026-04-12T16:37:50.014Z</time></trkpt><trkpt lat="44.1940984" lon="12.0311536"><ele>40.0</ele><time>2026-04-12T16:37:51.015Z</time></trkpt><trkpt lat="44.1942321" lon="12.0311093"><ele>40.25</ele><time>2026-04-12T16:37:52.014Z</time></trkpt><trkpt lat="44.1943588" lon="12.0310684"><ele>40.5</ele><time>2026-04-12T16:37:53.013Z</time></trkpt><trkpt lat="44.1944799" lon="12.031033"><ele>40.75</ele><time>2026-04-12T16:37:54.013Z</time></trkpt><trkpt lat="44.1946006" lon="12.0310005"><ele>41.0</ele><time>2026-04-12T16:37:55.014Z</time></trkpt><trkpt lat="44.1947258" lon="12.0309739"><ele>41.25</ele><time>2026-04-12T16:37:56.013Z</time></trkpt><trkpt lat="44.1948548" lon="12.0309587"><ele>41.5</ele><time>2026-04-12T16:37:57.016Z</time></trkpt><trkpt lat="44.194995" lon="12.0309402"><ele>41.75</ele><time>2026-04-12T16:37:58.016Z</time></trkpt><trkpt lat="44.195148" lon="12.0309222"><ele>42.0</ele><time>2026-04-12T16:37:59.018Z</time></trkpt><trkpt lat="44.1953002" lon="12.0309114"><ele>42.0</ele><time>2026-04-12T16:38:00.013Z</time></trkpt><trkpt lat="44.1954469" lon="12.0308971"><ele>42.0</ele><time>2026-04-12T16:38:01.013Z</time></trkpt><trkpt lat="44.1955801" lon="12.0308776"><ele>42.0</ele><time>2026-04-12T16:38:02.013Z</time></trkpt><trkpt lat="44.1956909" lon="12.0308694"><ele>42.0</ele><time>2026-04-12T16:38:03.014Z</time></trkpt><trkpt lat="44.195787" lon="12.0308705"><ele>41.833333333333336</ele><time>2026-04-12T16:38:04.013Z</time></trkpt><trkpt lat="44.1958716" lon="12.0308823"><ele>41.666666666666664</ele><time>2026-04-12T16:38:05.013Z</time></trkpt><trkpt lat="44.1959501" lon="12.0309059"><ele>41.5</ele><time>2026-04-12T16:38:06.014Z</time></trkpt><trkpt lat="44.1960152" lon="12.0309369"><ele>41.33333333333333</ele><time>2026-04-12T16:38:07.013Z</time></trkpt><trkpt lat="44.1961089" lon="12.0310134"><ele>41.166666666666664</ele><time>2026-04-12T16:38:09.012Z</time></trkpt><trkpt lat="44.1961777" lon="12.0311036"><ele>41.0</ele><time>2026-04-12T16:38:11.012Z</time></trkpt><trkpt lat="44.1962641" lon="12.0311566"><ele>41.0</ele><time>2026-04-12T16:38:13.013Z</time></trkpt><trkpt lat="44.196375" lon="12.0311321"><ele>41.0</ele><time>2026-04-12T16:38:15.015Z</time></trkpt><trkpt lat="44.196483" lon="12.0309835"><ele>41.0</ele><time>2026-04-12T16:38:17.013Z</time></trkpt><trkpt lat="44.1965553" lon="12.0308703"><ele>41.0</ele><time>2026-04-12T16:38:18.014Z</time></trkpt><trkpt lat="44.196648" lon="12.0307744"><ele>40.0</ele><time>2026-04-12T16:38:19.014Z</time></trkpt><trkpt lat="44.1967699" lon="12.0306883"><ele>39.0</ele><time>2026-04-12T16:38:20.011Z</time></trkpt><trkpt lat="44.1969188" lon="12.0305999"><ele>38.0</ele><time>2026-04-12T16:38:21.015Z</time></trkpt><trkpt lat="44.1970943" lon="12.0304964"><ele>38.0</ele><time>2026-04-12T16:38:22.012Z</time></trkpt><trkpt lat="44.1972871" lon="12.0303991"><ele>38.0</ele><time>2026-04-12T16:38:23.017Z</time></trkpt><trkpt lat="44.1974885" lon="12.0303132"><ele>38.0</ele><time>2026-04-12T16:38:24.016Z</time></trkpt><trkpt lat="44.1976915" lon="12.030259"><ele>38.0</ele><time>2026-04-12T16:38:25.012Z</time></trkpt><trkpt lat="44.19788" lon="12.0302159"><ele>38.0</ele><time>2026-04-12T16:38:26.014Z</time></trkpt><trkpt lat="44.1980523" lon="12.0301624"><ele>38.0</ele><time>2026-04-12T16:38:27.016Z</time></trkpt><trkpt lat="44.1982139" lon="12.0301221"><ele>37.666666666666664</ele><time>2026-04-12T16:38:28.014Z</time></trkpt><trkpt lat="44.1983698" lon="12.0300793"><ele>37.333333333333336</ele><time>2026-04-12T16:38:29.015Z</time></trkpt><trkpt lat="44.1985212" lon="12.0300335"><ele>37.0</ele><time>2026-04-12T16:38:30.013Z</time></trkpt><trkpt lat="44.1986746" lon="12.0299907"><ele>36.25</ele><time>2026-04-12T16:38:31.015Z</time></trkpt><trkpt lat="44.1988283" lon="12.0299538"><ele>35.5</ele><time>2026-04-12T16:38:32.011Z</time></trkpt><trkpt lat="44.1989759" lon="12.0299135"><ele>34.75</ele><time>2026-04-12T16:38:33.014Z</time></trkpt><trkpt lat="44.1991158" lon="12.029874"><ele>34.0</ele><time>2026-04-12T16:38:34.015Z</time></trkpt><trkpt lat="44.1992466" lon="12.0298371"><ele>34.0</ele><time>2026-04-12T16:38:35.013Z</time></trkpt><trkpt lat="44.1993696" lon="12.0298111"><ele>34.0</ele><time>2026-04-12T16:38:36.013Z</time></trkpt><trkpt lat="44.1994892" lon="12.0297916"><ele>34.0</ele><time>2026-04-12T16:38:37.015Z</time></trkpt><trkpt lat="44.1996054" lon="12.029766"><ele>34.0</ele><time>2026-04-12T16:38:38.015Z</time></trkpt><trkpt lat="44.1997117" lon="12.0297388"><ele>34.0</ele><time>2026-04-12T16:38:39.014Z</time></trkpt><trkpt lat="44.1998115" lon="12.0297121"><ele>34.0</ele><time>2026-04-12T16:38:40.015Z</time></trkpt><trkpt lat="44.199906" lon="12.0296772"><ele>34.0</ele><time>2026-04-12T16:38:41.014Z</time></trkpt><trkpt lat="44.1999971" lon="12.0296401"><ele>34.0</ele><time>2026-04-12T16:38:42.012Z</time></trkpt><trkpt lat="44.2000848" lon="12.0296079"><ele>34.0</ele><time>2026-04-12T16:38:43.014Z</time></trkpt><trkpt lat="44.2001722" lon="12.0295778"><ele>34.0</ele><time>2026-04-12T16:38:44.012Z</time></trkpt><trkpt lat="44.2002594" lon="12.02955"><ele>34.0</ele><time>2026-04-12T16:38:45.019Z</time></trkpt><trkpt lat="44.2003402" lon="12.0295249"><ele>34.0</ele><time>2026-04-12T16:38:46.013Z</time></trkpt><trkpt lat="44.2004202" lon="12.0294979"><ele>34.0</ele><time>2026-04-12T16:38:47.014Z</time></trkpt><trkpt lat="44.200494" lon="12.0294703"><ele>34.0</ele><time>2026-04-12T16:38:48.01Z</time></trkpt><trkpt lat="44.2005589" lon="12.0294414"><ele>34.0</ele><time>2026-04-12T16:38:49.015Z</time></trkpt><trkpt lat="44.2006606" lon="12.0294209"><ele>33.6</ele><time>2026-04-12T16:38:51.014Z</time></trkpt><trkpt lat="44.2007558" lon="12.0294121"><ele>33.2</ele><time>2026-04-12T16:38:53.012Z</time></trkpt><trkpt lat="44.2008553" lon="12.0293314"><ele>32.800000000000004</ele><time>2026-04-12T16:38:55.014Z</time></trkpt><trkpt lat="44.2008963" lon="12.0291758"><ele>32.4</ele><time>2026-04-12T16:38:57.013Z</time></trkpt><trkpt lat="44.2008795" lon="12.029078"><ele>32.0</ele><time>2026-04-12T16:38:58.015Z</time></trkpt><trkpt lat="44.200842" lon="12.0289628"><ele>32.0</ele><time>2026-04-12T16:38:59.013Z</time></trkpt><trkpt lat="44.2007888" lon="12.0288224"><ele>32.0</ele><time>2026-04-12T16:39:00.014Z</time></trkpt><trkpt lat="44.2007352" lon="12.0286408"><ele>32.0</ele><time>2026-04-12T16:39:01.014Z</time></trkpt><trkpt lat="44.200698" lon="12.0284198"><ele>32.0</ele><time>2026-04-12T16:39:02.015Z</time></trkpt><trkpt lat="44.2006803" lon="12.0281781"><ele>30.333333333333332</ele><time>2026-04-12T16:39:03.018Z</time></trkpt><trkpt lat="44.2006608" lon="12.0279259"><ele>28.666666666666664</ele><time>2026-04-12T16:39:04.014Z</time></trkpt><trkpt lat="44.2006365" lon="12.0276563"><ele>27.0</ele><time>2026-04-12T16:39:05.013Z</time></trkpt><trkpt lat="44.2006021" lon="12.0273619"><ele>27.0</ele><time>2026-04-12T16:39:06.014Z</time></trkpt><trkpt lat="44.2005672" lon="12.0270391"><ele>27.0</ele><time>2026-04-12T16:39:07.014Z</time></trkpt><trkpt lat="44.2005386" lon="12.0267103"><ele>27.333333333333336</ele><time>2026-04-12T16:39:08.013Z</time></trkpt><trkpt lat="44.2005215" lon="12.0263939"><ele>27.666666666666668</ele><time>2026-04-12T16:39:09.015Z</time></trkpt><trkpt lat="44.2005123" lon="12.0260889"><ele>28.0</ele><time>2026-04-12T16:39:10.013Z</time></trkpt><trkpt lat="44.200506" lon="12.0257972"><ele>28.0</ele><time>2026-04-12T16:39:11.013Z</time></trkpt><trkpt lat="44.2005104" lon="12.0255239"><ele>28.0</ele><time>2026-04-12T16:39:12.013Z</time></trkpt><trkpt lat="44.2005217" lon="12.0252764"><ele>28.0</ele><time>2026-04-12T16:39:13.014Z</time></trkpt><trkpt lat="44.2005373" lon="12.0250639"><ele>29.25</ele><time>2026-04-12T16:39:14.014Z</time></trkpt><trkpt lat="44.2005539" lon="12.024875"><ele>30.5</ele><time>2026-04-12T16:39:15.012Z</time></trkpt><trkpt lat="44.2005702" lon="12.0246999"><ele>31.75</ele><time>2026-04-12T16:39:16.012Z</time></trkpt><trkpt lat="44.2005857" lon="12.0245333"><ele>33.0</ele><time>2026-04-12T16:39:17.012Z</time></trkpt><trkpt lat="44.2006033" lon="12.0243733"><ele>33.0</ele><time>2026-04-12T16:39:18.015Z</time></trkpt><trkpt lat="44.20062" lon="12.0242067"><ele>33.0</ele><time>2026-04-12T16:39:19.013Z</time></trkpt><trkpt lat="44.200635" lon="12.02404"><ele>33.0</ele><time>2026-04-12T16:39:20.015Z</time></trkpt><trkpt lat="44.2006517" lon="12.0238733"><ele>33.0</ele><time>2026-04-12T16:39:21.013Z</time></trkpt><trkpt lat="44.200665" lon="12.0237083"><ele>33.0</ele><time>2026-04-12T16:39:22.014Z</time></trkpt><trkpt lat="44.2006767" lon="12.023555"><ele>33.0</ele><time>2026-04-12T16:39:23.014Z</time></trkpt><trkpt lat="44.2006917" lon="12.0234017"><ele>33.0</ele><time>2026-04-12T16:39:24.014Z</time></trkpt><trkpt lat="44.2007067" lon="12.0232483"><ele>33.0</ele><time>2026-04-12T16:39:25.019Z</time></trkpt><trkpt lat="44.2007217" lon="12.023095"><ele>33.0</ele><time>2026-04-12T16:39:26.013Z</time></trkpt><trkpt lat="44.20074" lon="12.022945"><ele>33.199999999999996</ele><time>2026-04-12T16:39:27.014Z</time></trkpt><trkpt lat="44.2007633" lon="12.0228067"><ele>33.4</ele><time>2026-04-12T16:39:28.015Z</time></trkpt><trkpt lat="44.2007917" lon="12.0226833"><ele>33.599999999999994</ele><time>2026-04-12T16:39:29.013Z</time></trkpt><trkpt lat="44.2008233" lon="12.0225683"><ele>33.8</ele><time>2026-04-12T16:39:30.014Z</time></trkpt><trkpt lat="44.2008767" lon="12.0224683"><ele>34.0</ele><time>2026-04-12T16:39:31.013Z</time></trkpt><trkpt lat="44.2009317" lon="12.0223717"><ele>34.8</ele><time>2026-04-12T16:39:32.013Z</time></trkpt><trkpt lat="44.2009617" lon="12.02226"><ele>35.599999999999994</ele><time>2026-04-12T16:39:33.012Z</time></trkpt><trkpt lat="44.20096" lon="12.0221467"><ele>36.4</ele><time>2026-04-12T16:39:34.013Z</time></trkpt><trkpt lat="44.2009367" lon="12.0220283"><ele>37.199999999999996</ele><time>2026-04-12T16:39:35.014Z</time></trkpt><trkpt lat="44.2009083" lon="12.0218983"><ele>38.0</ele><time>2026-04-12T16:39:36.015Z</time></trkpt><trkpt lat="44.2008867" lon="12.0217517"><ele>37.75</ele><time>2026-04-12T16:39:37.014Z</time></trkpt><trkpt lat="44.2008833" lon="12.0215917"><ele>37.5</ele><time>2026-04-12T16:39:38.012Z</time></trkpt><trkpt lat="44.2009033" lon="12.0214183"><ele>37.25</ele><time>2026-04-12T16:39:39.012Z</time></trkpt><trkpt lat="44.2009233" lon="12.02123"><ele>37.0</ele><time>2026-04-12T16:39:40.014Z</time></trkpt><trkpt lat="44.20094" lon="12.0210267"><ele>37.0</ele><time>2026-04-12T16:39:41.013Z</time></trkpt><trkpt lat="44.2009567" lon="12.0208233"><ele>37.0</ele><time>2026-04-12T16:39:42.014Z</time></trkpt><trkpt lat="44.2009717" lon="12.02062"><ele>37.0</ele><time>2026-04-12T16:39:43.015Z</time></trkpt><trkpt lat="44.2009917" lon="12.02042"><ele>37.0</ele><time>2026-04-12T16:39:44.013Z</time></trkpt><trkpt lat="44.2010083" lon="12.020215"><ele>37.0</ele><time>2026-04-12T16:39:45.014Z</time></trkpt><trkpt lat="44.2010267" lon="12.020005"><ele>37.0</ele><time>2026-04-12T16:39:46.012Z</time></trkpt><trkpt lat="44.201045" lon="12.0197983"><ele>37.0</ele><time>2026-04-12T16:39:47.014Z</time></trkpt><trkpt lat="44.201065" lon="12.0195983"><ele>37.0</ele><time>2026-04-12T16:39:48.014Z</time></trkpt><trkpt lat="44.20108" lon="12.019415"><ele>37.0</ele><time>2026-04-12T16:39:49.015Z</time></trkpt><trkpt lat="44.2010917" lon="12.0192517"><ele>37.0</ele><time>2026-04-12T16:39:50.016Z</time></trkpt><trkpt lat="44.2011033" lon="12.0191033"><ele>37.0</ele><time>2026-04-12T16:39:51.015Z</time></trkpt><trkpt lat="44.20112" lon="12.0189633"><ele>37.0</ele><time>2026-04-12T16:39:52.013Z</time></trkpt><trkpt lat="44.2011433" lon="12.0188317"><ele>37.0</ele><time>2026-04-12T16:39:53.011Z</time></trkpt><trkpt lat="44.201165" lon="12.0187167"><ele>36.800000000000004</ele><time>2026-04-12T16:39:54.013Z</time></trkpt><trkpt lat="44.2011983" lon="12.018605"><ele>36.6</ele><time>2026-04-12T16:39:55.013Z</time></trkpt><trkpt lat="44.2012567" lon="12.0185117"><ele>36.400000000000006</ele><time>2026-04-12T16:39:56.013Z</time></trkpt><trkpt lat="44.2013333" lon="12.0184167"><ele>36.2</ele><time>2026-04-12T16:39:57.012Z</time></trkpt><trkpt lat="44.2013833" lon="12.018305"><ele>36.0</ele><time>2026-04-12T16:39:58.015Z</time></trkpt><trkpt lat="44.2013883" lon="12.0181767"><ele>36.0</ele><time>2026-04-12T16:39:59.012Z</time></trkpt><trkpt lat="44.2013517" lon="12.0180433"><ele>36.0</ele><time>2026-04-12T16:40:00.012Z</time></trkpt><trkpt lat="44.2013" lon="12.0178983"><ele>36.0</ele><time>2026-04-12T16:40:01.013Z</time></trkpt><trkpt lat="44.201245" lon="12.0177333"><ele>36.0</ele><time>2026-04-12T16:40:02.013Z</time></trkpt><trkpt lat="44.201235" lon="12.01756"><ele>36.0</ele><time>2026-04-12T16:40:03.014Z</time></trkpt><trkpt lat="44.2012333" lon="12.01737"><ele>36.0</ele><time>2026-04-12T16:40:04.011Z</time></trkpt><trkpt lat="44.2012467" lon="12.0171633"><ele>36.0</ele><time>2026-04-12T16:40:05.012Z</time></trkpt><trkpt lat="44.2012567" lon="12.01695"><ele>36.0</ele><time>2026-04-12T16:40:06.013Z</time></trkpt><trkpt lat="44.2012833" lon="12.016725"><ele>36.333333333333336</ele><time>2026-04-12T16:40:07.013Z</time></trkpt><trkpt lat="44.2013083" lon="12.01648"><ele>36.66666666666667</ele><time>2026-04-12T16:40:08.012Z</time></trkpt><trkpt lat="44.20135" lon="12.0162183"><ele>37.0</ele><time>2026-04-12T16:40:09.015Z</time></trkpt><trkpt lat="44.201425" lon="12.0159433"><ele>37.0</ele><time>2026-04-12T16:40:10.012Z</time></trkpt><trkpt lat="44.2015167" lon="12.0156767"><ele>37.0</ele><time>2026-04-12T16:40:11.013Z</time></trkpt><trkpt lat="44.2016117" lon="12.0154217"><ele>37.0</ele><time>2026-04-12T16:40:12.013Z</time></trkpt><trkpt lat="44.2017133" lon="12.0151917"><ele>37.0</ele><time>2026-04-12T16:40:13.012Z</time></trkpt><trkpt lat="44.2018317" lon="12.0150033"><ele>37.0</ele><time>2026-04-12T16:40:14.013Z</time></trkpt><trkpt lat="44.201965" lon="12.0148533"><ele>37.0</ele><time>2026-04-12T16:40:15.014Z</time></trkpt><trkpt lat="44.2021233" lon="12.0147367"><ele>37.0</ele><time>2026-04-12T16:40:16.013Z</time></trkpt><trkpt lat="44.2023" lon="12.01465"><ele>37.0</ele><time>2026-04-12T16:40:17.013Z</time></trkpt><trkpt lat="44.202485" lon="12.01458"><ele>37.0</ele><time>2026-04-12T16:40:18.013Z</time></trkpt><trkpt lat="44.2026667" lon="12.0144983"><ele>36.66666666666667</ele><time>2026-04-12T16:40:19.013Z</time></trkpt><trkpt lat="44.202835" lon="12.0144017"><ele>36.333333333333336</ele><time>2026-04-12T16:40:20.012Z</time></trkpt><trkpt lat="44.2029883" lon="12.0142967"><ele>36.0</ele><time>2026-04-12T16:40:21.015Z</time></trkpt><trkpt lat="44.2031367" lon="12.014215"><ele>35.666666666666664</ele><time>2026-04-12T16:40:22.013Z</time></trkpt><trkpt lat="44.203285" lon="12.0141533"><ele>35.33333333333333</ele><time>2026-04-12T16:40:23.014Z</time></trkpt><trkpt lat="44.2034383" lon="12.014165"><ele>35.0</ele><time>2026-04-12T16:40:24.013Z</time></trkpt><trkpt lat="44.2035867" lon="12.0142417"><ele>34.666666666666664</ele><time>2026-04-12T16:40:25.014Z</time></trkpt><trkpt lat="44.20374" lon="12.0143483"><ele>34.333333333333336</ele><time>2026-04-12T16:40:26.013Z</time></trkpt><trkpt lat="44.203901" lon="12.0144728"><ele>34.0</ele><time>2026-04-12T16:40:27.014Z</time></trkpt><trkpt lat="44.20407" lon="12.0146063"><ele>34.0</ele><time>2026-04-12T16:40:28.014Z</time></trkpt><trkpt lat="44.2042425" lon="12.0147486"><ele>34.0</ele><time>2026-04-12T16:40:29.013Z</time></trkpt><trkpt lat="44.2044195" lon="12.0148985"><ele>34.0</ele><time>2026-04-12T16:40:30.012Z</time></trkpt><trkpt lat="44.204604" lon="12.0150386"><ele>34.66666666666667</ele><time>2026-04-12T16:40:31.014Z</time></trkpt><trkpt lat="44.2047821" lon="12.0151792"><ele>35.333333333333336</ele><time>2026-04-12T16:40:32.017Z</time></trkpt><trkpt lat="44.2049476" lon="12.0153082"><ele>36.0</ele><time>2026-04-12T16:40:33.014Z</time></trkpt><trkpt lat="44.2050979" lon="12.0154254"><ele>36.0</ele><time>2026-04-12T16:40:34.012Z</time></trkpt><trkpt lat="44.2052346" lon="12.0155254"><ele>36.0</ele><time>2026-04-12T16:40:35.013Z</time></trkpt><trkpt lat="44.2053566" lon="12.0156177"><ele>36.0</ele><time>2026-04-12T16:40:36.013Z</time></trkpt><trkpt lat="44.2054612" lon="12.0157101"><ele>36.0</ele><time>2026-04-12T16:40:37.013Z</time></trkpt><trkpt lat="44.2055525" lon="12.0157984"><ele>36.0</ele><time>2026-04-12T16:40:38.013Z</time></trkpt><trkpt lat="44.2056237" lon="12.0158855"><ele>36.0</ele><time>2026-04-12T16:40:39.015Z</time></trkpt><trkpt lat="44.205681" lon="12.0159478"><ele>36.0</ele><time>2026-04-12T16:40:40.013Z</time></trkpt><trkpt lat="44.205788" lon="12.0159509"><ele>36.0</ele><time>2026-04-12T16:40:42.013Z</time></trkpt><trkpt lat="44.2058616" lon="12.0158027"><ele>36.0</ele><time>2026-04-12T16:40:44.013Z</time></trkpt><trkpt lat="44.2059032" lon="12.0156655"><ele>35.666666666666664</ele><time>2026-04-12T16:40:45.013Z</time></trkpt><trkpt lat="44.205955" lon="12.0154927"><ele>35.33333333333333</ele><time>2026-04-12T16:40:46.013Z</time></trkpt><trkpt lat="44.2060315" lon="12.0152733"><ele>35.0</ele><time>2026-04-12T16:40:47.013Z</time></trkpt><trkpt lat="44.2061082" lon="12.0150472"><ele>33.666666666666664</ele><time>2026-04-12T16:40:48.013Z</time></trkpt><trkpt lat="44.2061725" lon="12.0148204"><ele>32.333333333333336</ele><time>2026-04-12T16:40:49.016Z</time></trkpt><trkpt lat="44.206207" lon="12.0145953"><ele>31.0</ele><time>2026-04-12T16:40:50.013Z</time></trkpt><trkpt lat="44.2062023" lon="12.014388"><ele>31.0</ele><time>2026-04-12T16:40:51.014Z</time></trkpt><trkpt lat="44.2061682" lon="12.0141975"><ele>31.0</ele><time>2026-04-12T16:40:52.012Z</time></trkpt><trkpt lat="44.2060955" lon="12.0140024"><ele>31.0</ele><time>2026-04-12T16:40:53.013Z</time></trkpt><trkpt lat="44.2059915" lon="12.0137813"><ele>30.0</ele><time>2026-04-12T16:40:54.012Z</time></trkpt><trkpt lat="44.2058818" lon="12.0135391"><ele>29.0</ele><time>2026-04-12T16:40:55.015Z</time></trkpt><trkpt lat="44.2057865" lon="12.013291"><ele>28.0</ele><time>2026-04-12T16:40:56.015Z</time></trkpt><trkpt lat="44.2057133" lon="12.0130626"><ele>28.0</ele><time>2026-04-12T16:40:57.013Z</time></trkpt><trkpt lat="44.2056617" lon="12.0128559"><ele>28.0</ele><time>2026-04-12T16:40:58.014Z</time></trkpt><trkpt lat="44.2056432" lon="12.0126632"><ele>28.0</ele><time>2026-04-12T16:40:59.014Z</time></trkpt><trkpt lat="44.2056699" lon="12.0124909"><ele>28.0</ele><time>2026-04-12T16:41:00.014Z</time></trkpt><trkpt lat="44.20573" lon="12.0123436"><ele>28.0</ele><time>2026-04-12T16:41:01.016Z</time></trkpt><trkpt lat="44.2058201" lon="12.0122201"><ele>28.0</ele><time>2026-04-12T16:41:02.013Z</time></trkpt><trkpt lat="44.2059266" lon="12.0121131"><ele>28.0</ele><time>2026-04-12T16:41:03.013Z</time></trkpt><trkpt lat="44.2060536" lon="12.0120111"><ele>28.0</ele><time>2026-04-12T16:41:04.013Z</time></trkpt><trkpt lat="44.2062217" lon="12.0119201"><ele>28.0</ele><time>2026-04-12T16:41:05.014Z</time></trkpt><trkpt lat="44.2064233" lon="12.0118209"><ele>28.0</ele><time>2026-04-12T16:41:06.012Z</time></trkpt><trkpt lat="44.2066431" lon="12.0117111"><ele>28.0</ele><time>2026-04-12T16:41:07.012Z</time></trkpt><trkpt lat="44.2068742" lon="12.011585"><ele>28.0</ele><time>2026-04-12T16:41:08.013Z</time></trkpt><trkpt lat="44.2071114" lon="12.0114523"><ele>28.0</ele><time>2026-04-12T16:41:09.013Z</time></trkpt><trkpt lat="44.2073398" lon="12.0113178"><ele>28.0</ele><time>2026-04-12T16:41:10.013Z</time></trkpt><trkpt lat="44.207556" lon="12.0112007"><ele>28.0</ele><time>2026-04-12T16:41:11.012Z</time></trkpt><trkpt lat="44.2077607" lon="12.0110727"><ele>28.0</ele><time>2026-04-12T16:41:12.013Z</time></trkpt><trkpt lat="44.2079569" lon="12.0109507"><ele>28.0</ele><time>2026-04-12T16:41:13.014Z</time></trkpt><trkpt lat="44.2081447" lon="12.010842"><ele>28.0</ele><time>2026-04-12T16:41:14.013Z</time></trkpt><trkpt lat="44.2083183" lon="12.0107323"><ele>28.666666666666668</ele><time>2026-04-12T16:41:15.015Z</time></trkpt><trkpt lat="44.2084803" lon="12.0106287"><ele>29.333333333333336</ele><time>2026-04-12T16:41:16.012Z</time></trkpt><trkpt lat="44.2086465" lon="12.0105166"><ele>30.0</ele><time>2026-04-12T16:41:17.014Z</time></trkpt><trkpt lat="44.2088295" lon="12.0104011"><ele>31.333333333333336</ele><time>2026-04-12T16:41:18.014Z</time></trkpt><trkpt lat="44.209019" lon="12.0102958"><ele>32.66666666666667</ele><time>2026-04-12T16:41:19.012Z</time></trkpt><trkpt lat="44.2092003" lon="12.0101969"><ele>34.0</ele><time>2026-04-12T16:41:20.013Z</time></trkpt><trkpt lat="44.2093702" lon="12.0101075"><ele>34.0</ele><time>2026-04-12T16:41:21.014Z</time></trkpt><trkpt lat="44.2095234" lon="12.0100221"><ele>34.0</ele><time>2026-04-12T16:41:22.013Z</time></trkpt><trkpt lat="44.2096614" lon="12.009943"><ele>34.0</ele><time>2026-04-12T16:41:23.013Z</time></trkpt><trkpt lat="44.2097826" lon="12.0098864"><ele>34.0</ele><time>2026-04-12T16:41:24.012Z</time></trkpt><trkpt lat="44.2098909" lon="12.0098461"><ele>34.333333333333336</ele><time>2026-04-12T16:41:25.015Z</time></trkpt><trkpt lat="44.2099889" lon="12.0098179"><ele>34.66666666666667</ele><time>2026-04-12T16:41:26.013Z</time></trkpt><trkpt lat="44.2100745" lon="12.0098243"><ele>35.0</ele><time>2026-04-12T16:41:27.014Z</time></trkpt><trkpt lat="44.2101483" lon="12.009865"><ele>35.333333333333336</ele><time>2026-04-12T16:41:28.01Z</time></trkpt><trkpt lat="44.2102122" lon="12.0099333"><ele>35.666666666666664</ele><time>2026-04-12T16:41:29.012Z</time></trkpt><trkpt lat="44.2102632" lon="12.0100436"><ele>36.0</ele><time>2026-04-12T16:41:30.013Z</time></trkpt><trkpt lat="44.2103048" lon="12.0101998"><ele>36.333333333333336</ele><time>2026-04-12T16:41:31.014Z</time></trkpt><trkpt lat="44.210346" lon="12.0104029"><ele>36.66666666666667</ele><time>2026-04-12T16:41:32.013Z</time></trkpt><trkpt lat="44.210393" lon="12.0106387"><ele>37.0</ele><time>2026-04-12T16:41:33.013Z</time></trkpt><trkpt lat="44.2104521" lon="12.0109114"><ele>36.0</ele><time>2026-04-12T16:41:34.013Z</time></trkpt><trkpt lat="44.2105226" lon="12.0112098"><ele>35.0</ele><time>2026-04-12T16:41:35.012Z</time></trkpt><trkpt lat="44.2106006" lon="12.0115172"><ele>35.0</ele><time>2026-04-12T16:41:36.013Z</time></trkpt><trkpt lat="44.2106975" lon="12.011825"><ele>35.0</ele><time>2026-04-12T16:41:37.013Z</time></trkpt><trkpt lat="44.210776" lon="12.0121359"><ele>35.0</ele><time>2026-04-12T16:41:38.011Z</time></trkpt><trkpt lat="44.2108558" lon="12.0124251"><ele>35.0</ele><time>2026-04-12T16:41:39.013Z</time></trkpt><trkpt lat="44.21092" lon="12.0126978"><ele>35.0</ele><time>2026-04-12T16:41:40.012Z</time></trkpt><trkpt lat="44.2109843" lon="12.0129526"><ele>34.33333333333333</ele><time>2026-04-12T16:41:41.012Z</time></trkpt><trkpt lat="44.2110455" lon="12.0131948"><ele>33.666666666666664</ele><time>2026-04-12T16:41:42.013Z</time></trkpt><trkpt lat="44.2111098" lon="12.0134222"><ele>33.0</ele><time>2026-04-12T16:41:43.013Z</time></trkpt><trkpt lat="44.2111966" lon="12.0136315"><ele>33.0</ele><time>2026-04-12T16:41:44.012Z</time></trkpt><trkpt lat="44.2112795" lon="12.0138377"><ele>33.0</ele><time>2026-04-12T16:41:45.014Z</time></trkpt><trkpt lat="44.2113619" lon="12.014029"><ele>33.0</ele><time>2026-04-12T16:41:46.012Z</time></trkpt><trkpt lat="44.2114331" lon="12.0142024"><ele>32.8</ele><time>2026-04-12T16:41:47.011Z</time></trkpt><trkpt lat="44.2114897" lon="12.0143457"><ele>32.599999999999994</ele><time>2026-04-12T16:41:48.013Z</time></trkpt><trkpt lat="44.2115378" lon="12.0144549"><ele>32.400000000000006</ele><time>2026-04-12T16:41:49.014Z</time></trkpt><trkpt lat="44.2115903" lon="12.0145276"><ele>32.2</ele><time>2026-04-12T16:41:50.012Z</time></trkpt><trkpt lat="44.2116774" lon="12.0146111"><ele>32.0</ele><time>2026-04-12T16:41:52.013Z</time></trkpt><trkpt lat="44.2117236" lon="12.0147037"><ele>35.0</ele><time>2026-04-12T16:41:54.011Z</time></trkpt><trkpt lat="44.211756" lon="12.0147895"><ele>35.0</ele><time>2026-04-12T16:41:56.012Z</time></trkpt><trkpt lat="44.2118045" lon="12.014848"><ele>35.0</ele><time>2026-04-12T16:41:59.012Z</time></trkpt><trkpt lat="44.2118536" lon="12.0147897"><ele>35.0</ele><time>2026-04-12T16:42:02.012Z</time></trkpt></trkseg></trk></gpx>